<?xml version="1.0" encoding="UTF-8" standalone="no" ?>
<gpx xmlns="http://www.topografix.com/GPX/1/1" xmlns:xsi="http://www.w3.org/2001/XMLSchema-instance" xsi:schemaLocation="http://www.topografix.com/GPX/1/1 http://www.topografix.com/GPX/1/1/gpx.xsd" version="1.1" creator="VisuGPX - https://www.visugpx.com">
  <metadata>
    <name>Sortie vélo dans l'après-midi</name>
  </metadata>
  <trk>
    <name><![CDATA[Sortie vélo dans l'après-midi_1]]></name>
    <trkseg>
      <trkpt lat="47.57822" lon="-3.05418">
        <ele>14.2</ele>
        <time>2024-05-07T13:38:11Z</time>
      </trkpt>
      <trkpt lat="47.57822" lon="-3.05419">
        <ele>13.6</ele>
        <time>2024-05-07T13:38:12Z</time>
      </trkpt>
      <trkpt lat="47.57822" lon="-3.05421">
        <ele>13.2</ele>
        <time>2024-05-07T13:38:13Z</time>
      </trkpt>
      <trkpt lat="47.57822" lon="-3.05423">
        <ele>13</ele>
        <time>2024-05-07T13:38:14Z</time>
      </trkpt>
      <trkpt lat="47.57822" lon="-3.05425">
        <ele>12.8</ele>
        <time>2024-05-07T13:38:15Z</time>
      </trkpt>
      <trkpt lat="47.57822" lon="-3.05427">
        <ele>13.2</ele>
        <time>2024-05-07T13:38:16Z</time>
      </trkpt>
      <trkpt lat="47.57821" lon="-3.05429">
        <ele>12.8</ele>
        <time>2024-05-07T13:38:17Z</time>
      </trkpt>
      <trkpt lat="47.57821" lon="-3.0543">
        <ele>12.6</ele>
        <time>2024-05-07T13:38:18Z</time>
      </trkpt>
      <trkpt lat="47.57821" lon="-3.05432">
        <ele>12.6</ele>
        <time>2024-05-07T13:38:19Z</time>
      </trkpt>
      <trkpt lat="47.57821" lon="-3.05434">
        <ele>12.4</ele>
        <time>2024-05-07T13:38:20Z</time>
      </trkpt>
      <trkpt lat="47.5782" lon="-3.05436">
        <ele>12.4</ele>
        <time>2024-05-07T13:38:21Z</time>
      </trkpt>
      <trkpt lat="47.5782" lon="-3.05438">
        <ele>12.4</ele>
        <time>2024-05-07T13:38:22Z</time>
      </trkpt>
      <trkpt lat="47.57819" lon="-3.0544">
        <ele>12.6</ele>
        <time>2024-05-07T13:38:23Z</time>
      </trkpt>
      <trkpt lat="47.57818" lon="-3.05442">
        <ele>12.6</ele>
        <time>2024-05-07T13:38:24Z</time>
      </trkpt>
      <trkpt lat="47.57818" lon="-3.05443">
        <ele>12.6</ele>
        <time>2024-05-07T13:38:25Z</time>
      </trkpt>
      <trkpt lat="47.57816" lon="-3.05444">
        <ele>12.4</ele>
        <time>2024-05-07T13:38:26Z</time>
      </trkpt>
      <trkpt lat="47.57815" lon="-3.05444">
        <ele>12.4</ele>
        <time>2024-05-07T13:38:27Z</time>
      </trkpt>
      <trkpt lat="47.57814" lon="-3.05444">
        <ele>12.2</ele>
        <time>2024-05-07T13:38:28Z</time>
      </trkpt>
      <trkpt lat="47.57813" lon="-3.05443">
        <ele>12.2</ele>
        <time>2024-05-07T13:38:29Z</time>
      </trkpt>
      <trkpt lat="47.57812" lon="-3.05442">
        <ele>12.2</ele>
        <time>2024-05-07T13:38:30Z</time>
      </trkpt>
      <trkpt lat="47.5781" lon="-3.05441">
        <ele>12.2</ele>
        <time>2024-05-07T13:38:31Z</time>
      </trkpt>
      <trkpt lat="47.57809" lon="-3.05441">
        <ele>12</ele>
        <time>2024-05-07T13:38:32Z</time>
      </trkpt>
      <trkpt lat="47.57808" lon="-3.0544">
        <ele>11.8</ele>
        <time>2024-05-07T13:38:33Z</time>
      </trkpt>
      <trkpt lat="47.57807" lon="-3.05439">
        <ele>12</ele>
        <time>2024-05-07T13:38:34Z</time>
      </trkpt>
      <trkpt lat="47.57806" lon="-3.05439">
        <ele>11.8</ele>
        <time>2024-05-07T13:38:35Z</time>
      </trkpt>
      <trkpt lat="47.57805" lon="-3.05438">
        <ele>11.6</ele>
        <time>2024-05-07T13:38:36Z</time>
      </trkpt>
      <trkpt lat="47.57804" lon="-3.05437">
        <ele>11.4</ele>
        <time>2024-05-07T13:38:37Z</time>
      </trkpt>
      <trkpt lat="47.57802" lon="-3.05436">
        <ele>11.2</ele>
        <time>2024-05-07T13:38:38Z</time>
      </trkpt>
      <trkpt lat="47.57801" lon="-3.05435">
        <ele>11.2</ele>
        <time>2024-05-07T13:38:39Z</time>
      </trkpt>
      <trkpt lat="47.57799" lon="-3.05434">
        <ele>11.2</ele>
        <time>2024-05-07T13:38:40Z</time>
      </trkpt>
      <trkpt lat="47.57797" lon="-3.05433">
        <ele>11</ele>
        <time>2024-05-07T13:38:41Z</time>
      </trkpt>
      <trkpt lat="47.57796" lon="-3.05432">
        <ele>11</ele>
        <time>2024-05-07T13:38:42Z</time>
      </trkpt>
      <trkpt lat="47.57795" lon="-3.05431">
        <ele>11</ele>
        <time>2024-05-07T13:38:43Z</time>
      </trkpt>
      <trkpt lat="47.57793" lon="-3.05429">
        <ele>10.8</ele>
        <time>2024-05-07T13:38:44Z</time>
      </trkpt>
      <trkpt lat="47.57792" lon="-3.05428">
        <ele>10.6</ele>
        <time>2024-05-07T13:38:45Z</time>
      </trkpt>
      <trkpt lat="47.57791" lon="-3.05428">
        <ele>10.6</ele>
        <time>2024-05-07T13:38:46Z</time>
      </trkpt>
      <trkpt lat="47.57789" lon="-3.05427">
        <ele>10.6</ele>
        <time>2024-05-07T13:38:47Z</time>
      </trkpt>
      <trkpt lat="47.57788" lon="-3.05426">
        <ele>10.6</ele>
        <time>2024-05-07T13:38:48Z</time>
      </trkpt>
      <trkpt lat="47.57787" lon="-3.05425">
        <ele>10.6</ele>
        <time>2024-05-07T13:38:49Z</time>
      </trkpt>
      <trkpt lat="47.57785" lon="-3.05425">
        <ele>10.4</ele>
        <time>2024-05-07T13:38:50Z</time>
      </trkpt>
      <trkpt lat="47.57784" lon="-3.05424">
        <ele>10.4</ele>
        <time>2024-05-07T13:38:51Z</time>
      </trkpt>
      <trkpt lat="47.57783" lon="-3.05423">
        <ele>10.4</ele>
        <time>2024-05-07T13:38:52Z</time>
      </trkpt>
      <trkpt lat="47.57782" lon="-3.05422">
        <ele>10.2</ele>
        <time>2024-05-07T13:38:53Z</time>
      </trkpt>
      <trkpt lat="47.57781" lon="-3.05421">
        <ele>10.2</ele>
        <time>2024-05-07T13:38:54Z</time>
      </trkpt>
      <trkpt lat="47.57779" lon="-3.0542">
        <ele>10</ele>
        <time>2024-05-07T13:38:55Z</time>
      </trkpt>
      <trkpt lat="47.57778" lon="-3.05419">
        <ele>10</ele>
        <time>2024-05-07T13:38:56Z</time>
      </trkpt>
      <trkpt lat="47.57776" lon="-3.05418">
        <ele>9.8</ele>
        <time>2024-05-07T13:38:57Z</time>
      </trkpt>
      <trkpt lat="47.57775" lon="-3.05418">
        <ele>9.8</ele>
        <time>2024-05-07T13:38:58Z</time>
      </trkpt>
      <trkpt lat="47.57775" lon="-3.05416">
        <ele>9.6</ele>
        <time>2024-05-07T13:38:59Z</time>
      </trkpt>
      <trkpt lat="47.57773" lon="-3.05415">
        <ele>9.6</ele>
        <time>2024-05-07T13:39:00Z</time>
      </trkpt>
      <trkpt lat="47.57772" lon="-3.05414">
        <ele>9.4</ele>
        <time>2024-05-07T13:39:01Z</time>
      </trkpt>
      <trkpt lat="47.57771" lon="-3.05412">
        <ele>9.4</ele>
        <time>2024-05-07T13:39:02Z</time>
      </trkpt>
      <trkpt lat="47.5777" lon="-3.05411">
        <ele>9.2</ele>
        <time>2024-05-07T13:39:03Z</time>
      </trkpt>
      <trkpt lat="47.5777" lon="-3.05409">
        <ele>9.2</ele>
        <time>2024-05-07T13:39:04Z</time>
      </trkpt>
      <trkpt lat="47.57769" lon="-3.05407">
        <ele>9</ele>
        <time>2024-05-07T13:39:05Z</time>
      </trkpt>
      <trkpt lat="47.57769" lon="-3.05405">
        <ele>8.8</ele>
        <time>2024-05-07T13:39:06Z</time>
      </trkpt>
      <trkpt lat="47.57768" lon="-3.05403">
        <ele>8.6</ele>
        <time>2024-05-07T13:39:07Z</time>
      </trkpt>
      <trkpt lat="47.57768" lon="-3.05401">
        <ele>8.6</ele>
        <time>2024-05-07T13:39:08Z</time>
      </trkpt>
      <trkpt lat="47.57768" lon="-3.05399">
        <ele>8.6</ele>
        <time>2024-05-07T13:39:09Z</time>
      </trkpt>
      <trkpt lat="47.57767" lon="-3.05397">
        <ele>8.4</ele>
        <time>2024-05-07T13:39:10Z</time>
      </trkpt>
      <trkpt lat="47.57767" lon="-3.05396">
        <ele>8.4</ele>
        <time>2024-05-07T13:39:11Z</time>
      </trkpt>
      <trkpt lat="47.57768" lon="-3.05394">
        <ele>8.6</ele>
        <time>2024-05-07T13:39:12Z</time>
      </trkpt>
      <trkpt lat="47.57768" lon="-3.05393">
        <ele>8.4</ele>
        <time>2024-05-07T13:39:13Z</time>
      </trkpt>
      <trkpt lat="47.57769" lon="-3.05392">
        <ele>8.6</ele>
        <time>2024-05-07T13:39:14Z</time>
      </trkpt>
      <trkpt lat="47.57769" lon="-3.05391">
        <ele>8.4</ele>
        <time>2024-05-07T13:39:15Z</time>
      </trkpt>
      <trkpt lat="47.5777" lon="-3.05389">
        <ele>8.6</ele>
        <time>2024-05-07T13:39:16Z</time>
      </trkpt>
      <trkpt lat="47.57771" lon="-3.05387">
        <ele>8.6</ele>
        <time>2024-05-07T13:39:17Z</time>
      </trkpt>
      <trkpt lat="47.57773" lon="-3.05384">
        <ele>8.6</ele>
        <time>2024-05-07T13:39:18Z</time>
      </trkpt>
      <trkpt lat="47.57773" lon="-3.05383">
        <ele>8.6</ele>
        <time>2024-05-07T13:39:19Z</time>
      </trkpt>
      <trkpt lat="47.57774" lon="-3.05381">
        <ele>8.4</ele>
        <time>2024-05-07T13:39:20Z</time>
      </trkpt>
      <trkpt lat="47.57775" lon="-3.05379">
        <ele>8.4</ele>
        <time>2024-05-07T13:39:21Z</time>
      </trkpt>
      <trkpt lat="47.57775" lon="-3.05377">
        <ele>8.4</ele>
        <time>2024-05-07T13:39:22Z</time>
      </trkpt>
      <trkpt lat="47.57776" lon="-3.05375">
        <ele>8.4</ele>
        <time>2024-05-07T13:39:23Z</time>
      </trkpt>
      <trkpt lat="47.57777" lon="-3.05373">
        <ele>8.4</ele>
        <time>2024-05-07T13:39:24Z</time>
      </trkpt>
      <trkpt lat="47.57777" lon="-3.05371">
        <ele>8.4</ele>
        <time>2024-05-07T13:39:25Z</time>
      </trkpt>
      <trkpt lat="47.57778" lon="-3.05369">
        <ele>8.4</ele>
        <time>2024-05-07T13:39:26Z</time>
      </trkpt>
      <trkpt lat="47.57779" lon="-3.05367">
        <ele>8.4</ele>
        <time>2024-05-07T13:39:27Z</time>
      </trkpt>
      <trkpt lat="47.57779" lon="-3.05365">
        <ele>8.4</ele>
        <time>2024-05-07T13:39:28Z</time>
      </trkpt>
      <trkpt lat="47.5778" lon="-3.05363">
        <ele>8.4</ele>
        <time>2024-05-07T13:39:29Z</time>
      </trkpt>
      <trkpt lat="47.57781" lon="-3.05361">
        <ele>8.4</ele>
        <time>2024-05-07T13:39:30Z</time>
      </trkpt>
      <trkpt lat="47.57782" lon="-3.0536">
        <ele>8.4</ele>
        <time>2024-05-07T13:39:31Z</time>
      </trkpt>
      <trkpt lat="47.57783" lon="-3.05357">
        <ele>8.6</ele>
        <time>2024-05-07T13:39:32Z</time>
      </trkpt>
      <trkpt lat="47.57784" lon="-3.05355">
        <ele>8.6</ele>
        <time>2024-05-07T13:39:33Z</time>
      </trkpt>
      <trkpt lat="47.57785" lon="-3.05353">
        <ele>8.6</ele>
        <time>2024-05-07T13:39:34Z</time>
      </trkpt>
      <trkpt lat="47.57786" lon="-3.05351">
        <ele>8.6</ele>
        <time>2024-05-07T13:39:35Z</time>
      </trkpt>
      <trkpt lat="47.57787" lon="-3.05348">
        <ele>8.6</ele>
        <time>2024-05-07T13:39:36Z</time>
      </trkpt>
      <trkpt lat="47.57787" lon="-3.05347">
        <ele>8.6</ele>
        <time>2024-05-07T13:39:37Z</time>
      </trkpt>
      <trkpt lat="47.57788" lon="-3.05345">
        <ele>8.6</ele>
        <time>2024-05-07T13:39:38Z</time>
      </trkpt>
      <trkpt lat="47.57788" lon="-3.05343">
        <ele>8.6</ele>
        <time>2024-05-07T13:39:39Z</time>
      </trkpt>
      <trkpt lat="47.57788" lon="-3.05342">
        <ele>8.8</ele>
        <time>2024-05-07T13:39:40Z</time>
      </trkpt>
      <trkpt lat="47.57789" lon="-3.0534">
        <ele>8.8</ele>
        <time>2024-05-07T13:39:41Z</time>
      </trkpt>
      <trkpt lat="47.57789" lon="-3.05338">
        <ele>8.8</ele>
        <time>2024-05-07T13:39:42Z</time>
      </trkpt>
      <trkpt lat="47.5779" lon="-3.05336">
        <ele>8.8</ele>
        <time>2024-05-07T13:39:43Z</time>
      </trkpt>
      <trkpt lat="47.5779" lon="-3.05334">
        <ele>8.8</ele>
        <time>2024-05-07T13:39:44Z</time>
      </trkpt>
      <trkpt lat="47.57791" lon="-3.05332">
        <ele>8.8</ele>
        <time>2024-05-07T13:39:45Z</time>
      </trkpt>
      <trkpt lat="47.57792" lon="-3.05331">
        <ele>8.8</ele>
        <time>2024-05-07T13:39:46Z</time>
      </trkpt>
      <trkpt lat="47.57793" lon="-3.0533">
        <ele>9</ele>
        <time>2024-05-07T13:39:47Z</time>
      </trkpt>
      <trkpt lat="47.57793" lon="-3.05329">
        <ele>9</ele>
        <time>2024-05-07T13:39:48Z</time>
      </trkpt>
      <trkpt lat="47.57793" lon="-3.05327">
        <ele>9</ele>
        <time>2024-05-07T13:39:49Z</time>
      </trkpt>
      <trkpt lat="47.57794" lon="-3.05325">
        <ele>9</ele>
        <time>2024-05-07T13:39:50Z</time>
      </trkpt>
      <trkpt lat="47.57795" lon="-3.05323">
        <ele>8.8</ele>
        <time>2024-05-07T13:39:51Z</time>
      </trkpt>
      <trkpt lat="47.57796" lon="-3.05322">
        <ele>8.8</ele>
        <time>2024-05-07T13:39:52Z</time>
      </trkpt>
      <trkpt lat="47.57797" lon="-3.0532">
        <ele>8.8</ele>
        <time>2024-05-07T13:39:53Z</time>
      </trkpt>
      <trkpt lat="47.57797" lon="-3.05318">
        <ele>8.6</ele>
        <time>2024-05-07T13:39:54Z</time>
      </trkpt>
      <trkpt lat="47.57797" lon="-3.05316">
        <ele>8.4</ele>
        <time>2024-05-07T13:39:55Z</time>
      </trkpt>
      <trkpt lat="47.57797" lon="-3.05314">
        <ele>8.4</ele>
        <time>2024-05-07T13:39:56Z</time>
      </trkpt>
      <trkpt lat="47.57796" lon="-3.05313">
        <ele>8.2</ele>
        <time>2024-05-07T13:39:57Z</time>
      </trkpt>
      <trkpt lat="47.57795" lon="-3.05312">
        <ele>8.2</ele>
        <time>2024-05-07T13:39:58Z</time>
      </trkpt>
      <trkpt lat="47.57794" lon="-3.05311">
        <ele>8</ele>
        <time>2024-05-07T13:39:59Z</time>
      </trkpt>
      <trkpt lat="47.57793" lon="-3.0531">
        <ele>8</ele>
        <time>2024-05-07T13:40:00Z</time>
      </trkpt>
      <trkpt lat="47.57792" lon="-3.05309">
        <ele>8</ele>
        <time>2024-05-07T13:40:01Z</time>
      </trkpt>
      <trkpt lat="47.57791" lon="-3.05308">
        <ele>8</ele>
        <time>2024-05-07T13:40:02Z</time>
      </trkpt>
      <trkpt lat="47.57791" lon="-3.05307">
        <ele>8</ele>
        <time>2024-05-07T13:40:03Z</time>
      </trkpt>
      <trkpt lat="47.57791" lon="-3.05306">
        <ele>8</ele>
        <time>2024-05-07T13:40:04Z</time>
      </trkpt>
      <trkpt lat="47.57791" lon="-3.05305">
        <ele>8</ele>
        <time>2024-05-07T13:40:05Z</time>
      </trkpt>
      <trkpt lat="47.57791" lon="-3.05303">
        <ele>8</ele>
        <time>2024-05-07T13:40:06Z</time>
      </trkpt>
      <trkpt lat="47.57791" lon="-3.05301">
        <ele>8</ele>
        <time>2024-05-07T13:40:07Z</time>
      </trkpt>
      <trkpt lat="47.57792" lon="-3.05299">
        <ele>8.2</ele>
        <time>2024-05-07T13:40:08Z</time>
      </trkpt>
      <trkpt lat="47.57792" lon="-3.05296">
        <ele>8.2</ele>
        <time>2024-05-07T13:40:09Z</time>
      </trkpt>
      <trkpt lat="47.57792" lon="-3.05294">
        <ele>8.2</ele>
        <time>2024-05-07T13:40:10Z</time>
      </trkpt>
      <trkpt lat="47.57793" lon="-3.05293">
        <ele>8.2</ele>
        <time>2024-05-07T13:40:11Z</time>
      </trkpt>
      <trkpt lat="47.57794" lon="-3.05291">
        <ele>8.2</ele>
        <time>2024-05-07T13:40:12Z</time>
      </trkpt>
      <trkpt lat="47.57795" lon="-3.05289">
        <ele>8.2</ele>
        <time>2024-05-07T13:40:13Z</time>
      </trkpt>
      <trkpt lat="47.57796" lon="-3.05287">
        <ele>8.2</ele>
        <time>2024-05-07T13:40:14Z</time>
      </trkpt>
      <trkpt lat="47.57796" lon="-3.05285">
        <ele>8.2</ele>
        <time>2024-05-07T13:40:15Z</time>
      </trkpt>
      <trkpt lat="47.57797" lon="-3.05282">
        <ele>8.2</ele>
        <time>2024-05-07T13:40:16Z</time>
      </trkpt>
      <trkpt lat="47.57797" lon="-3.0528">
        <ele>8.4</ele>
        <time>2024-05-07T13:40:17Z</time>
      </trkpt>
      <trkpt lat="47.57798" lon="-3.05278">
        <ele>8.4</ele>
        <time>2024-05-07T13:40:18Z</time>
      </trkpt>
      <trkpt lat="47.57798" lon="-3.05276">
        <ele>8.4</ele>
        <time>2024-05-07T13:40:19Z</time>
      </trkpt>
      <trkpt lat="47.57799" lon="-3.05275">
        <ele>8.2</ele>
        <time>2024-05-07T13:40:20Z</time>
      </trkpt>
      <trkpt lat="47.57801" lon="-3.05273">
        <ele>8.2</ele>
        <time>2024-05-07T13:40:21Z</time>
      </trkpt>
      <trkpt lat="47.57802" lon="-3.05272">
        <ele>8.2</ele>
        <time>2024-05-07T13:40:22Z</time>
      </trkpt>
      <trkpt lat="47.57802" lon="-3.0527">
        <ele>8.2</ele>
        <time>2024-05-07T13:40:23Z</time>
      </trkpt>
      <trkpt lat="47.57802" lon="-3.05269">
        <ele>8.2</ele>
        <time>2024-05-07T13:40:24Z</time>
      </trkpt>
      <trkpt lat="47.57803" lon="-3.05267">
        <ele>8.2</ele>
        <time>2024-05-07T13:40:25Z</time>
      </trkpt>
      <trkpt lat="47.57803" lon="-3.05265">
        <ele>8.2</ele>
        <time>2024-05-07T13:40:26Z</time>
      </trkpt>
      <trkpt lat="47.57803" lon="-3.05264">
        <ele>8.2</ele>
        <time>2024-05-07T13:40:27Z</time>
      </trkpt>
      <trkpt lat="47.57804" lon="-3.05262">
        <ele>8.2</ele>
        <time>2024-05-07T13:40:28Z</time>
      </trkpt>
      <trkpt lat="47.57804" lon="-3.0526">
        <ele>8</ele>
        <time>2024-05-07T13:40:29Z</time>
      </trkpt>
      <trkpt lat="47.57805" lon="-3.05259">
        <ele>8</ele>
        <time>2024-05-07T13:40:30Z</time>
      </trkpt>
      <trkpt lat="47.57805" lon="-3.05257">
        <ele>8</ele>
        <time>2024-05-07T13:40:31Z</time>
      </trkpt>
      <trkpt lat="47.57806" lon="-3.05256">
        <ele>8</ele>
        <time>2024-05-07T13:40:32Z</time>
      </trkpt>
      <trkpt lat="47.57807" lon="-3.05254">
        <ele>8</ele>
        <time>2024-05-07T13:40:33Z</time>
      </trkpt>
      <trkpt lat="47.57808" lon="-3.05253">
        <ele>8</ele>
        <time>2024-05-07T13:40:34Z</time>
      </trkpt>
      <trkpt lat="47.5781" lon="-3.05251">
        <ele>8</ele>
        <time>2024-05-07T13:40:35Z</time>
      </trkpt>
      <trkpt lat="47.57811" lon="-3.0525">
        <ele>8</ele>
        <time>2024-05-07T13:40:36Z</time>
      </trkpt>
      <trkpt lat="47.57812" lon="-3.05248">
        <ele>8</ele>
        <time>2024-05-07T13:40:37Z</time>
      </trkpt>
      <trkpt lat="47.57813" lon="-3.05246">
        <ele>8</ele>
        <time>2024-05-07T13:40:38Z</time>
      </trkpt>
      <trkpt lat="47.57814" lon="-3.05244">
        <ele>8</ele>
        <time>2024-05-07T13:40:39Z</time>
      </trkpt>
      <trkpt lat="47.57815" lon="-3.05242">
        <ele>8</ele>
        <time>2024-05-07T13:40:40Z</time>
      </trkpt>
      <trkpt lat="47.57816" lon="-3.0524">
        <ele>8</ele>
        <time>2024-05-07T13:40:41Z</time>
      </trkpt>
      <trkpt lat="47.57818" lon="-3.05238">
        <ele>8</ele>
        <time>2024-05-07T13:40:42Z</time>
      </trkpt>
      <trkpt lat="47.57818" lon="-3.05237">
        <ele>8</ele>
        <time>2024-05-07T13:40:43Z</time>
      </trkpt>
      <trkpt lat="47.57818" lon="-3.05235">
        <ele>8</ele>
        <time>2024-05-07T13:40:44Z</time>
      </trkpt>
      <trkpt lat="47.57819" lon="-3.05233">
        <ele>8</ele>
        <time>2024-05-07T13:40:45Z</time>
      </trkpt>
      <trkpt lat="47.5782" lon="-3.05231">
        <ele>8</ele>
        <time>2024-05-07T13:40:46Z</time>
      </trkpt>
      <trkpt lat="47.57822" lon="-3.05229">
        <ele>8</ele>
        <time>2024-05-07T13:40:47Z</time>
      </trkpt>
      <trkpt lat="47.57824" lon="-3.05227">
        <ele>8</ele>
        <time>2024-05-07T13:40:48Z</time>
      </trkpt>
      <trkpt lat="47.57825" lon="-3.05224">
        <ele>8</ele>
        <time>2024-05-07T13:40:49Z</time>
      </trkpt>
      <trkpt lat="47.57826" lon="-3.05222">
        <ele>8.2</ele>
        <time>2024-05-07T13:40:50Z</time>
      </trkpt>
      <trkpt lat="47.57826" lon="-3.0522">
        <ele>8.2</ele>
        <time>2024-05-07T13:40:51Z</time>
      </trkpt>
      <trkpt lat="47.57826" lon="-3.05218">
        <ele>8.2</ele>
        <time>2024-05-07T13:40:52Z</time>
      </trkpt>
      <trkpt lat="47.57826" lon="-3.05216">
        <ele>8.4</ele>
        <time>2024-05-07T13:40:53Z</time>
      </trkpt>
      <trkpt lat="47.57826" lon="-3.05214">
        <ele>8.4</ele>
        <time>2024-05-07T13:40:54Z</time>
      </trkpt>
      <trkpt lat="47.57825" lon="-3.05212">
        <ele>8.6</ele>
        <time>2024-05-07T13:40:55Z</time>
      </trkpt>
      <trkpt lat="47.57825" lon="-3.0521">
        <ele>8.6</ele>
        <time>2024-05-07T13:40:56Z</time>
      </trkpt>
      <trkpt lat="47.57825" lon="-3.05208">
        <ele>8.6</ele>
        <time>2024-05-07T13:40:57Z</time>
      </trkpt>
      <trkpt lat="47.57826" lon="-3.05206">
        <ele>8.8</ele>
        <time>2024-05-07T13:40:58Z</time>
      </trkpt>
      <trkpt lat="47.57825" lon="-3.05204">
        <ele>8.8</ele>
        <time>2024-05-07T13:40:59Z</time>
      </trkpt>
      <trkpt lat="47.57826" lon="-3.05202">
        <ele>8.8</ele>
        <time>2024-05-07T13:41:00Z</time>
      </trkpt>
      <trkpt lat="47.57826" lon="-3.052">
        <ele>8.8</ele>
        <time>2024-05-07T13:41:01Z</time>
      </trkpt>
      <trkpt lat="47.57826" lon="-3.05198">
        <ele>8.8</ele>
        <time>2024-05-07T13:41:02Z</time>
      </trkpt>
      <trkpt lat="47.57826" lon="-3.05197">
        <ele>8.8</ele>
        <time>2024-05-07T13:41:03Z</time>
      </trkpt>
      <trkpt lat="47.57827" lon="-3.05195">
        <ele>9</ele>
        <time>2024-05-07T13:41:04Z</time>
      </trkpt>
      <trkpt lat="47.57828" lon="-3.05193">
        <ele>9</ele>
        <time>2024-05-07T13:41:05Z</time>
      </trkpt>
      <trkpt lat="47.57829" lon="-3.05191">
        <ele>8.8</ele>
        <time>2024-05-07T13:41:06Z</time>
      </trkpt>
      <trkpt lat="47.57829" lon="-3.05189">
        <ele>8.8</ele>
        <time>2024-05-07T13:41:07Z</time>
      </trkpt>
      <trkpt lat="47.57829" lon="-3.05187">
        <ele>8.8</ele>
        <time>2024-05-07T13:41:08Z</time>
      </trkpt>
      <trkpt lat="47.5783" lon="-3.05185">
        <ele>8.8</ele>
        <time>2024-05-07T13:41:09Z</time>
      </trkpt>
      <trkpt lat="47.57831" lon="-3.05182">
        <ele>8.8</ele>
        <time>2024-05-07T13:41:10Z</time>
      </trkpt>
      <trkpt lat="47.57832" lon="-3.05181">
        <ele>8.8</ele>
        <time>2024-05-07T13:41:11Z</time>
      </trkpt>
      <trkpt lat="47.57832" lon="-3.05179">
        <ele>8.8</ele>
        <time>2024-05-07T13:41:12Z</time>
      </trkpt>
      <trkpt lat="47.57833" lon="-3.05177">
        <ele>8.6</ele>
        <time>2024-05-07T13:41:13Z</time>
      </trkpt>
      <trkpt lat="47.57833" lon="-3.05176">
        <ele>8.6</ele>
        <time>2024-05-07T13:41:14Z</time>
      </trkpt>
      <trkpt lat="47.57833" lon="-3.05174">
        <ele>8.6</ele>
        <time>2024-05-07T13:41:15Z</time>
      </trkpt>
      <trkpt lat="47.57834" lon="-3.05173">
        <ele>8.6</ele>
        <time>2024-05-07T13:41:16Z</time>
      </trkpt>
      <trkpt lat="47.57834" lon="-3.05171">
        <ele>8.6</ele>
        <time>2024-05-07T13:41:17Z</time>
      </trkpt>
      <trkpt lat="47.57834" lon="-3.0517">
        <ele>8.6</ele>
        <time>2024-05-07T13:41:18Z</time>
      </trkpt>
      <trkpt lat="47.57835" lon="-3.05168">
        <ele>8.6</ele>
        <time>2024-05-07T13:41:19Z</time>
      </trkpt>
      <trkpt lat="47.57836" lon="-3.05167">
        <ele>8.4</ele>
        <time>2024-05-07T13:41:20Z</time>
      </trkpt>
      <trkpt lat="47.57836" lon="-3.05166">
        <ele>8.4</ele>
        <time>2024-05-07T13:41:21Z</time>
      </trkpt>
      <trkpt lat="47.57837" lon="-3.05164">
        <ele>8.4</ele>
        <time>2024-05-07T13:41:22Z</time>
      </trkpt>
      <trkpt lat="47.57838" lon="-3.05162">
        <ele>8.4</ele>
        <time>2024-05-07T13:41:23Z</time>
      </trkpt>
      <trkpt lat="47.57838" lon="-3.05161">
        <ele>8.4</ele>
        <time>2024-05-07T13:41:24Z</time>
      </trkpt>
      <trkpt lat="47.57838" lon="-3.05158">
        <ele>8.2</ele>
        <time>2024-05-07T13:41:25Z</time>
      </trkpt>
      <trkpt lat="47.57838" lon="-3.05156">
        <ele>8.2</ele>
        <time>2024-05-07T13:41:26Z</time>
      </trkpt>
      <trkpt lat="47.57839" lon="-3.05154">
        <ele>8.2</ele>
        <time>2024-05-07T13:41:27Z</time>
      </trkpt>
      <trkpt lat="47.57839" lon="-3.05152">
        <ele>8.2</ele>
        <time>2024-05-07T13:41:28Z</time>
      </trkpt>
      <trkpt lat="47.5784" lon="-3.0515">
        <ele>8</ele>
        <time>2024-05-07T13:41:29Z</time>
      </trkpt>
      <trkpt lat="47.5784" lon="-3.05147">
        <ele>8</ele>
        <time>2024-05-07T13:41:30Z</time>
      </trkpt>
      <trkpt lat="47.57841" lon="-3.05146">
        <ele>8</ele>
        <time>2024-05-07T13:41:31Z</time>
      </trkpt>
      <trkpt lat="47.57841" lon="-3.05144">
        <ele>8</ele>
        <time>2024-05-07T13:41:32Z</time>
      </trkpt>
      <trkpt lat="47.57842" lon="-3.05142">
        <ele>8</ele>
        <time>2024-05-07T13:41:33Z</time>
      </trkpt>
      <trkpt lat="47.57843" lon="-3.05139">
        <ele>8</ele>
        <time>2024-05-07T13:41:34Z</time>
      </trkpt>
      <trkpt lat="47.57844" lon="-3.05137">
        <ele>8</ele>
        <time>2024-05-07T13:41:35Z</time>
      </trkpt>
      <trkpt lat="47.57844" lon="-3.05135">
        <ele>8</ele>
        <time>2024-05-07T13:41:36Z</time>
      </trkpt>
      <trkpt lat="47.57845" lon="-3.05133">
        <ele>8</ele>
        <time>2024-05-07T13:41:37Z</time>
      </trkpt>
      <trkpt lat="47.57846" lon="-3.05131">
        <ele>8</ele>
        <time>2024-05-07T13:41:38Z</time>
      </trkpt>
      <trkpt lat="47.57846" lon="-3.0513">
        <ele>8</ele>
        <time>2024-05-07T13:41:39Z</time>
      </trkpt>
      <trkpt lat="47.57846" lon="-3.05128">
        <ele>8</ele>
        <time>2024-05-07T13:41:40Z</time>
      </trkpt>
      <trkpt lat="47.57846" lon="-3.05126">
        <ele>8</ele>
        <time>2024-05-07T13:41:41Z</time>
      </trkpt>
      <trkpt lat="47.57847" lon="-3.05125">
        <ele>8</ele>
        <time>2024-05-07T13:41:42Z</time>
      </trkpt>
      <trkpt lat="47.57847" lon="-3.05124">
        <ele>8</ele>
        <time>2024-05-07T13:41:43Z</time>
      </trkpt>
      <trkpt lat="47.57848" lon="-3.05122">
        <ele>8</ele>
        <time>2024-05-07T13:41:44Z</time>
      </trkpt>
      <trkpt lat="47.57849" lon="-3.05121">
        <ele>8</ele>
        <time>2024-05-07T13:41:45Z</time>
      </trkpt>
      <trkpt lat="47.57849" lon="-3.0512">
        <ele>8.2</ele>
        <time>2024-05-07T13:41:46Z</time>
      </trkpt>
      <trkpt lat="47.5785" lon="-3.05118">
        <ele>8.2</ele>
        <time>2024-05-07T13:41:47Z</time>
      </trkpt>
      <trkpt lat="47.5785" lon="-3.05116">
        <ele>8.2</ele>
        <time>2024-05-07T13:41:48Z</time>
      </trkpt>
      <trkpt lat="47.5785" lon="-3.05114">
        <ele>8.4</ele>
        <time>2024-05-07T13:41:49Z</time>
      </trkpt>
      <trkpt lat="47.5785" lon="-3.05112">
        <ele>8.4</ele>
        <time>2024-05-07T13:41:50Z</time>
      </trkpt>
      <trkpt lat="47.5785" lon="-3.05109">
        <ele>8.4</ele>
        <time>2024-05-07T13:41:51Z</time>
      </trkpt>
      <trkpt lat="47.57851" lon="-3.05107">
        <ele>8.4</ele>
        <time>2024-05-07T13:41:52Z</time>
      </trkpt>
      <trkpt lat="47.57851" lon="-3.05105">
        <ele>8.4</ele>
        <time>2024-05-07T13:41:53Z</time>
      </trkpt>
      <trkpt lat="47.57852" lon="-3.05103">
        <ele>8.4</ele>
        <time>2024-05-07T13:41:54Z</time>
      </trkpt>
      <trkpt lat="47.57853" lon="-3.05101">
        <ele>8.4</ele>
        <time>2024-05-07T13:41:55Z</time>
      </trkpt>
      <trkpt lat="47.57853" lon="-3.05099">
        <ele>8.4</ele>
        <time>2024-05-07T13:41:56Z</time>
      </trkpt>
      <trkpt lat="47.57854" lon="-3.05097">
        <ele>8.4</ele>
        <time>2024-05-07T13:41:57Z</time>
      </trkpt>
      <trkpt lat="47.57854" lon="-3.05094">
        <ele>8.4</ele>
        <time>2024-05-07T13:41:58Z</time>
      </trkpt>
      <trkpt lat="47.57855" lon="-3.05093">
        <ele>8.4</ele>
        <time>2024-05-07T13:41:59Z</time>
      </trkpt>
      <trkpt lat="47.57856" lon="-3.0509">
        <ele>8.4</ele>
        <time>2024-05-07T13:42:00Z</time>
      </trkpt>
      <trkpt lat="47.57856" lon="-3.05088">
        <ele>8.4</ele>
        <time>2024-05-07T13:42:01Z</time>
      </trkpt>
      <trkpt lat="47.57856" lon="-3.05086">
        <ele>8.4</ele>
        <time>2024-05-07T13:42:02Z</time>
      </trkpt>
      <trkpt lat="47.57857" lon="-3.05084">
        <ele>8.4</ele>
        <time>2024-05-07T13:42:03Z</time>
      </trkpt>
      <trkpt lat="47.57858" lon="-3.05082">
        <ele>8.4</ele>
        <time>2024-05-07T13:42:04Z</time>
      </trkpt>
      <trkpt lat="47.57859" lon="-3.0508">
        <ele>8.6</ele>
        <time>2024-05-07T13:42:05Z</time>
      </trkpt>
      <trkpt lat="47.5786" lon="-3.05078">
        <ele>8.6</ele>
        <time>2024-05-07T13:42:06Z</time>
      </trkpt>
      <trkpt lat="47.57861" lon="-3.05076">
        <ele>8.6</ele>
        <time>2024-05-07T13:42:07Z</time>
      </trkpt>
      <trkpt lat="47.57862" lon="-3.05074">
        <ele>8.8</ele>
        <time>2024-05-07T13:42:08Z</time>
      </trkpt>
      <trkpt lat="47.57862" lon="-3.05072">
        <ele>8.8</ele>
        <time>2024-05-07T13:42:09Z</time>
      </trkpt>
      <trkpt lat="47.57863" lon="-3.0507">
        <ele>8.8</ele>
        <time>2024-05-07T13:42:10Z</time>
      </trkpt>
      <trkpt lat="47.57864" lon="-3.05069">
        <ele>8.8</ele>
        <time>2024-05-07T13:42:11Z</time>
      </trkpt>
      <trkpt lat="47.57864" lon="-3.05067">
        <ele>9</ele>
        <time>2024-05-07T13:42:12Z</time>
      </trkpt>
      <trkpt lat="47.57865" lon="-3.05065">
        <ele>9</ele>
        <time>2024-05-07T13:42:13Z</time>
      </trkpt>
      <trkpt lat="47.57865" lon="-3.05063">
        <ele>9</ele>
        <time>2024-05-07T13:42:14Z</time>
      </trkpt>
      <trkpt lat="47.57866" lon="-3.05061">
        <ele>9</ele>
        <time>2024-05-07T13:42:15Z</time>
      </trkpt>
      <trkpt lat="47.57866" lon="-3.05059">
        <ele>9</ele>
        <time>2024-05-07T13:42:16Z</time>
      </trkpt>
      <trkpt lat="47.57866" lon="-3.05057">
        <ele>9</ele>
        <time>2024-05-07T13:42:17Z</time>
      </trkpt>
      <trkpt lat="47.57866" lon="-3.05055">
        <ele>8.8</ele>
        <time>2024-05-07T13:42:18Z</time>
      </trkpt>
      <trkpt lat="47.57866" lon="-3.05054">
        <ele>8.8</ele>
        <time>2024-05-07T13:42:19Z</time>
      </trkpt>
      <trkpt lat="47.57866" lon="-3.05052">
        <ele>8.8</ele>
        <time>2024-05-07T13:42:20Z</time>
      </trkpt>
      <trkpt lat="47.57866" lon="-3.0505">
        <ele>8.8</ele>
        <time>2024-05-07T13:42:21Z</time>
      </trkpt>
      <trkpt lat="47.57867" lon="-3.05048">
        <ele>8.8</ele>
        <time>2024-05-07T13:42:22Z</time>
      </trkpt>
      <trkpt lat="47.57868" lon="-3.05046">
        <ele>8.8</ele>
        <time>2024-05-07T13:42:23Z</time>
      </trkpt>
      <trkpt lat="47.57869" lon="-3.05045">
        <ele>8.8</ele>
        <time>2024-05-07T13:42:24Z</time>
      </trkpt>
      <trkpt lat="47.57869" lon="-3.05043">
        <ele>8.8</ele>
        <time>2024-05-07T13:42:25Z</time>
      </trkpt>
      <trkpt lat="47.5787" lon="-3.05041">
        <ele>8.6</ele>
        <time>2024-05-07T13:42:26Z</time>
      </trkpt>
      <trkpt lat="47.57871" lon="-3.05039">
        <ele>8.6</ele>
        <time>2024-05-07T13:42:27Z</time>
      </trkpt>
      <trkpt lat="47.57872" lon="-3.05038">
        <ele>8.6</ele>
        <time>2024-05-07T13:42:28Z</time>
      </trkpt>
      <trkpt lat="47.57874" lon="-3.05038">
        <ele>8.6</ele>
        <time>2024-05-07T13:42:29Z</time>
      </trkpt>
      <trkpt lat="47.57875" lon="-3.05037">
        <ele>8.6</ele>
        <time>2024-05-07T13:42:30Z</time>
      </trkpt>
      <trkpt lat="47.57876" lon="-3.05034">
        <ele>8.6</ele>
        <time>2024-05-07T13:42:31Z</time>
      </trkpt>
      <trkpt lat="47.57876" lon="-3.05032">
        <ele>8.6</ele>
        <time>2024-05-07T13:42:32Z</time>
      </trkpt>
      <trkpt lat="47.57876" lon="-3.05029">
        <ele>8.6</ele>
        <time>2024-05-07T13:42:33Z</time>
      </trkpt>
      <trkpt lat="47.57877" lon="-3.05027">
        <ele>8.6</ele>
        <time>2024-05-07T13:42:34Z</time>
      </trkpt>
      <trkpt lat="47.57877" lon="-3.05025">
        <ele>8.6</ele>
        <time>2024-05-07T13:42:35Z</time>
      </trkpt>
      <trkpt lat="47.57877" lon="-3.05022">
        <ele>8.6</ele>
        <time>2024-05-07T13:42:36Z</time>
      </trkpt>
      <trkpt lat="47.57877" lon="-3.0502">
        <ele>8.6</ele>
        <time>2024-05-07T13:42:37Z</time>
      </trkpt>
      <trkpt lat="47.57876" lon="-3.05018">
        <ele>8.6</ele>
        <time>2024-05-07T13:42:38Z</time>
      </trkpt>
      <trkpt lat="47.57876" lon="-3.05016">
        <ele>8.6</ele>
        <time>2024-05-07T13:42:39Z</time>
      </trkpt>
      <trkpt lat="47.57875" lon="-3.05013">
        <ele>8.6</ele>
        <time>2024-05-07T13:42:40Z</time>
      </trkpt>
      <trkpt lat="47.57876" lon="-3.05012">
        <ele>8.6</ele>
        <time>2024-05-07T13:42:41Z</time>
      </trkpt>
      <trkpt lat="47.57876" lon="-3.0501">
        <ele>8.6</ele>
        <time>2024-05-07T13:42:42Z</time>
      </trkpt>
      <trkpt lat="47.57876" lon="-3.05007">
        <ele>8.6</ele>
        <time>2024-05-07T13:42:43Z</time>
      </trkpt>
      <trkpt lat="47.57876" lon="-3.05005">
        <ele>8.6</ele>
        <time>2024-05-07T13:42:44Z</time>
      </trkpt>
      <trkpt lat="47.57876" lon="-3.05004">
        <ele>8.6</ele>
        <time>2024-05-07T13:42:45Z</time>
      </trkpt>
      <trkpt lat="47.57876" lon="-3.05003">
        <ele>8.6</ele>
        <time>2024-05-07T13:42:46Z</time>
      </trkpt>
      <trkpt lat="47.57876" lon="-3.05001">
        <ele>8.6</ele>
        <time>2024-05-07T13:42:47Z</time>
      </trkpt>
      <trkpt lat="47.57876" lon="-3.04999">
        <ele>8.6</ele>
        <time>2024-05-07T13:42:48Z</time>
      </trkpt>
      <trkpt lat="47.57875" lon="-3.04997">
        <ele>8.6</ele>
        <time>2024-05-07T13:42:49Z</time>
      </trkpt>
      <trkpt lat="47.57874" lon="-3.04996">
        <ele>8.6</ele>
        <time>2024-05-07T13:42:50Z</time>
      </trkpt>
      <trkpt lat="47.57874" lon="-3.04993">
        <ele>8.4</ele>
        <time>2024-05-07T13:42:51Z</time>
      </trkpt>
      <trkpt lat="47.57874" lon="-3.04991">
        <ele>8.4</ele>
        <time>2024-05-07T13:42:52Z</time>
      </trkpt>
      <trkpt lat="47.57876" lon="-3.04988">
        <ele>8.6</ele>
        <time>2024-05-07T13:42:53Z</time>
      </trkpt>
      <trkpt lat="47.57876" lon="-3.04986">
        <ele>8.6</ele>
        <time>2024-05-07T13:42:54Z</time>
      </trkpt>
      <trkpt lat="47.57877" lon="-3.04983">
        <ele>8.6</ele>
        <time>2024-05-07T13:42:55Z</time>
      </trkpt>
      <trkpt lat="47.57877" lon="-3.04981">
        <ele>8.6</ele>
        <time>2024-05-07T13:42:56Z</time>
      </trkpt>
      <trkpt lat="47.57878" lon="-3.04978">
        <ele>8.6</ele>
        <time>2024-05-07T13:42:57Z</time>
      </trkpt>
      <trkpt lat="47.57879" lon="-3.04976">
        <ele>8.6</ele>
        <time>2024-05-07T13:42:58Z</time>
      </trkpt>
      <trkpt lat="47.5788" lon="-3.04974">
        <ele>8.6</ele>
        <time>2024-05-07T13:42:59Z</time>
      </trkpt>
      <trkpt lat="47.5788" lon="-3.04973">
        <ele>8.6</ele>
        <time>2024-05-07T13:43:00Z</time>
      </trkpt>
      <trkpt lat="47.57881" lon="-3.04971">
        <ele>8.6</ele>
        <time>2024-05-07T13:43:01Z</time>
      </trkpt>
      <trkpt lat="47.57881" lon="-3.0497">
        <ele>8.6</ele>
        <time>2024-05-07T13:43:02Z</time>
      </trkpt>
      <trkpt lat="47.57882" lon="-3.04968">
        <ele>8.6</ele>
        <time>2024-05-07T13:43:03Z</time>
      </trkpt>
      <trkpt lat="47.57882" lon="-3.04965">
        <ele>8.6</ele>
        <time>2024-05-07T13:43:04Z</time>
      </trkpt>
      <trkpt lat="47.57882" lon="-3.04963">
        <ele>8.6</ele>
        <time>2024-05-07T13:43:05Z</time>
      </trkpt>
      <trkpt lat="47.57882" lon="-3.04961">
        <ele>8.8</ele>
        <time>2024-05-07T13:43:06Z</time>
      </trkpt>
      <trkpt lat="47.57882" lon="-3.04958">
        <ele>8.8</ele>
        <time>2024-05-07T13:43:07Z</time>
      </trkpt>
      <trkpt lat="47.57883" lon="-3.04956">
        <ele>8.8</ele>
        <time>2024-05-07T13:43:08Z</time>
      </trkpt>
      <trkpt lat="47.57883" lon="-3.04955">
        <ele>8.8</ele>
        <time>2024-05-07T13:43:09Z</time>
      </trkpt>
      <trkpt lat="47.57883" lon="-3.04953">
        <ele>8.8</ele>
        <time>2024-05-07T13:43:10Z</time>
      </trkpt>
      <trkpt lat="47.57883" lon="-3.04951">
        <ele>8.8</ele>
        <time>2024-05-07T13:43:11Z</time>
      </trkpt>
      <trkpt lat="47.57884" lon="-3.04949">
        <ele>8.8</ele>
        <time>2024-05-07T13:43:12Z</time>
      </trkpt>
      <trkpt lat="47.57884" lon="-3.04948">
        <ele>8.8</ele>
        <time>2024-05-07T13:43:13Z</time>
      </trkpt>
      <trkpt lat="47.57884" lon="-3.04946">
        <ele>8.8</ele>
        <time>2024-05-07T13:43:14Z</time>
      </trkpt>
      <trkpt lat="47.57883" lon="-3.04943">
        <ele>8.8</ele>
        <time>2024-05-07T13:43:15Z</time>
      </trkpt>
      <trkpt lat="47.57883" lon="-3.04941">
        <ele>8.8</ele>
        <time>2024-05-07T13:43:16Z</time>
      </trkpt>
      <trkpt lat="47.57883" lon="-3.04939">
        <ele>8.8</ele>
        <time>2024-05-07T13:43:17Z</time>
      </trkpt>
      <trkpt lat="47.57883" lon="-3.04937">
        <ele>8.8</ele>
        <time>2024-05-07T13:43:18Z</time>
      </trkpt>
      <trkpt lat="47.57882" lon="-3.04935">
        <ele>8.8</ele>
        <time>2024-05-07T13:43:19Z</time>
      </trkpt>
      <trkpt lat="47.57882" lon="-3.04933">
        <ele>8.8</ele>
        <time>2024-05-07T13:43:20Z</time>
      </trkpt>
      <trkpt lat="47.57882" lon="-3.04931">
        <ele>8.8</ele>
        <time>2024-05-07T13:43:21Z</time>
      </trkpt>
      <trkpt lat="47.57883" lon="-3.04929">
        <ele>8.8</ele>
        <time>2024-05-07T13:43:22Z</time>
      </trkpt>
      <trkpt lat="47.57883" lon="-3.04926">
        <ele>8.6</ele>
        <time>2024-05-07T13:43:23Z</time>
      </trkpt>
      <trkpt lat="47.57883" lon="-3.04924">
        <ele>8.6</ele>
        <time>2024-05-07T13:43:24Z</time>
      </trkpt>
      <trkpt lat="47.57884" lon="-3.04922">
        <ele>8.6</ele>
        <time>2024-05-07T13:43:25Z</time>
      </trkpt>
      <trkpt lat="47.57884" lon="-3.0492">
        <ele>8.6</ele>
        <time>2024-05-07T13:43:26Z</time>
      </trkpt>
      <trkpt lat="47.57884" lon="-3.04918">
        <ele>8.6</ele>
        <time>2024-05-07T13:43:27Z</time>
      </trkpt>
      <trkpt lat="47.57884" lon="-3.04916">
        <ele>8.6</ele>
        <time>2024-05-07T13:43:28Z</time>
      </trkpt>
      <trkpt lat="47.57884" lon="-3.04914">
        <ele>8.8</ele>
        <time>2024-05-07T13:43:29Z</time>
      </trkpt>
      <trkpt lat="47.57885" lon="-3.04912">
        <ele>8.8</ele>
        <time>2024-05-07T13:43:30Z</time>
      </trkpt>
      <trkpt lat="47.57885" lon="-3.0491">
        <ele>8.8</ele>
        <time>2024-05-07T13:43:31Z</time>
      </trkpt>
      <trkpt lat="47.57886" lon="-3.04908">
        <ele>8.8</ele>
        <time>2024-05-07T13:43:32Z</time>
      </trkpt>
      <trkpt lat="47.57887" lon="-3.04907">
        <ele>8.8</ele>
        <time>2024-05-07T13:43:33Z</time>
      </trkpt>
      <trkpt lat="47.57887" lon="-3.04905">
        <ele>8.8</ele>
        <time>2024-05-07T13:43:34Z</time>
      </trkpt>
      <trkpt lat="47.57887" lon="-3.04903">
        <ele>8.8</ele>
        <time>2024-05-07T13:43:35Z</time>
      </trkpt>
      <trkpt lat="47.57887" lon="-3.04902">
        <ele>8.8</ele>
        <time>2024-05-07T13:43:36Z</time>
      </trkpt>
      <trkpt lat="47.57888" lon="-3.049">
        <ele>8.8</ele>
        <time>2024-05-07T13:43:37Z</time>
      </trkpt>
      <trkpt lat="47.57888" lon="-3.04899">
        <ele>8.8</ele>
        <time>2024-05-07T13:43:38Z</time>
      </trkpt>
      <trkpt lat="47.57888" lon="-3.04897">
        <ele>8.8</ele>
        <time>2024-05-07T13:43:39Z</time>
      </trkpt>
      <trkpt lat="47.57888" lon="-3.04895">
        <ele>8.8</ele>
        <time>2024-05-07T13:43:40Z</time>
      </trkpt>
      <trkpt lat="47.57888" lon="-3.04892">
        <ele>8.6</ele>
        <time>2024-05-07T13:43:41Z</time>
      </trkpt>
      <trkpt lat="47.57888" lon="-3.0489">
        <ele>8.6</ele>
        <time>2024-05-07T13:43:42Z</time>
      </trkpt>
      <trkpt lat="47.57887" lon="-3.04888">
        <ele>8.6</ele>
        <time>2024-05-07T13:43:43Z</time>
      </trkpt>
      <trkpt lat="47.57887" lon="-3.04886">
        <ele>8.6</ele>
        <time>2024-05-07T13:43:44Z</time>
      </trkpt>
      <trkpt lat="47.57887" lon="-3.04884">
        <ele>8.8</ele>
        <time>2024-05-07T13:43:45Z</time>
      </trkpt>
      <trkpt lat="47.57887" lon="-3.04883">
        <ele>8.8</ele>
        <time>2024-05-07T13:43:46Z</time>
      </trkpt>
      <trkpt lat="47.57888" lon="-3.04881">
        <ele>8.8</ele>
        <time>2024-05-07T13:43:47Z</time>
      </trkpt>
      <trkpt lat="47.57889" lon="-3.04879">
        <ele>8.8</ele>
        <time>2024-05-07T13:43:48Z</time>
      </trkpt>
      <trkpt lat="47.57889" lon="-3.04877">
        <ele>8.8</ele>
        <time>2024-05-07T13:43:49Z</time>
      </trkpt>
      <trkpt lat="47.5789" lon="-3.04875">
        <ele>8.8</ele>
        <time>2024-05-07T13:43:50Z</time>
      </trkpt>
      <trkpt lat="47.5789" lon="-3.04873">
        <ele>8.8</ele>
        <time>2024-05-07T13:43:51Z</time>
      </trkpt>
      <trkpt lat="47.5789" lon="-3.04872">
        <ele>9</ele>
        <time>2024-05-07T13:43:52Z</time>
      </trkpt>
      <trkpt lat="47.5789" lon="-3.0487">
        <ele>9</ele>
        <time>2024-05-07T13:43:53Z</time>
      </trkpt>
      <trkpt lat="47.5789" lon="-3.04868">
        <ele>9</ele>
        <time>2024-05-07T13:43:54Z</time>
      </trkpt>
      <trkpt lat="47.5789" lon="-3.04865">
        <ele>9</ele>
        <time>2024-05-07T13:43:55Z</time>
      </trkpt>
      <trkpt lat="47.5789" lon="-3.04863">
        <ele>8.8</ele>
        <time>2024-05-07T13:43:56Z</time>
      </trkpt>
      <trkpt lat="47.5789" lon="-3.04861">
        <ele>8.8</ele>
        <time>2024-05-07T13:43:57Z</time>
      </trkpt>
      <trkpt lat="47.5789" lon="-3.04859">
        <ele>8.8</ele>
        <time>2024-05-07T13:43:58Z</time>
      </trkpt>
      <trkpt lat="47.5789" lon="-3.04857">
        <ele>8.8</ele>
        <time>2024-05-07T13:43:59Z</time>
      </trkpt>
      <trkpt lat="47.5789" lon="-3.04855">
        <ele>8.6</ele>
        <time>2024-05-07T13:44:00Z</time>
      </trkpt>
      <trkpt lat="47.57891" lon="-3.04853">
        <ele>8.6</ele>
        <time>2024-05-07T13:44:01Z</time>
      </trkpt>
      <trkpt lat="47.5789" lon="-3.04851">
        <ele>8.6</ele>
        <time>2024-05-07T13:44:02Z</time>
      </trkpt>
      <trkpt lat="47.57891" lon="-3.0485">
        <ele>8.6</ele>
        <time>2024-05-07T13:44:03Z</time>
      </trkpt>
      <trkpt lat="47.57891" lon="-3.04847">
        <ele>8.6</ele>
        <time>2024-05-07T13:44:04Z</time>
      </trkpt>
      <trkpt lat="47.5789" lon="-3.04844">
        <ele>8.6</ele>
        <time>2024-05-07T13:44:05Z</time>
      </trkpt>
      <trkpt lat="47.57889" lon="-3.04841">
        <ele>8.6</ele>
        <time>2024-05-07T13:44:06Z</time>
      </trkpt>
      <trkpt lat="47.57889" lon="-3.04838">
        <ele>8.6</ele>
        <time>2024-05-07T13:44:07Z</time>
      </trkpt>
      <trkpt lat="47.57889" lon="-3.04836">
        <ele>8.6</ele>
        <time>2024-05-07T13:44:08Z</time>
      </trkpt>
      <trkpt lat="47.57888" lon="-3.04833">
        <ele>8.6</ele>
        <time>2024-05-07T13:44:09Z</time>
      </trkpt>
      <trkpt lat="47.57888" lon="-3.04831">
        <ele>8.6</ele>
        <time>2024-05-07T13:44:10Z</time>
      </trkpt>
      <trkpt lat="47.57888" lon="-3.04828">
        <ele>8.6</ele>
        <time>2024-05-07T13:44:11Z</time>
      </trkpt>
      <trkpt lat="47.57888" lon="-3.04826">
        <ele>8.6</ele>
        <time>2024-05-07T13:44:12Z</time>
      </trkpt>
      <trkpt lat="47.57887" lon="-3.04823">
        <ele>8.6</ele>
        <time>2024-05-07T13:44:13Z</time>
      </trkpt>
      <trkpt lat="47.57886" lon="-3.0482">
        <ele>8.6</ele>
        <time>2024-05-07T13:44:14Z</time>
      </trkpt>
      <trkpt lat="47.57886" lon="-3.04818">
        <ele>8.6</ele>
        <time>2024-05-07T13:44:15Z</time>
      </trkpt>
      <trkpt lat="47.57885" lon="-3.04815">
        <ele>8.6</ele>
        <time>2024-05-07T13:44:16Z</time>
      </trkpt>
      <trkpt lat="47.57885" lon="-3.04813">
        <ele>8.6</ele>
        <time>2024-05-07T13:44:17Z</time>
      </trkpt>
      <trkpt lat="47.57885" lon="-3.0481">
        <ele>8.6</ele>
        <time>2024-05-07T13:44:18Z</time>
      </trkpt>
      <trkpt lat="47.57885" lon="-3.04808">
        <ele>8.6</ele>
        <time>2024-05-07T13:44:19Z</time>
      </trkpt>
      <trkpt lat="47.57885" lon="-3.04806">
        <ele>8.6</ele>
        <time>2024-05-07T13:44:20Z</time>
      </trkpt>
      <trkpt lat="47.57885" lon="-3.04803">
        <ele>8.6</ele>
        <time>2024-05-07T13:44:21Z</time>
      </trkpt>
      <trkpt lat="47.57884" lon="-3.04801">
        <ele>8.6</ele>
        <time>2024-05-07T13:44:22Z</time>
      </trkpt>
      <trkpt lat="47.57884" lon="-3.048">
        <ele>8.6</ele>
        <time>2024-05-07T13:44:23Z</time>
      </trkpt>
      <trkpt lat="47.57884" lon="-3.04798">
        <ele>8.6</ele>
        <time>2024-05-07T13:44:24Z</time>
      </trkpt>
      <trkpt lat="47.57884" lon="-3.04796">
        <ele>8.6</ele>
        <time>2024-05-07T13:44:25Z</time>
      </trkpt>
      <trkpt lat="47.57884" lon="-3.04794">
        <ele>8.6</ele>
        <time>2024-05-07T13:44:26Z</time>
      </trkpt>
      <trkpt lat="47.57884" lon="-3.04792">
        <ele>8.6</ele>
        <time>2024-05-07T13:44:27Z</time>
      </trkpt>
      <trkpt lat="47.57884" lon="-3.0479">
        <ele>8.6</ele>
        <time>2024-05-07T13:44:28Z</time>
      </trkpt>
      <trkpt lat="47.57884" lon="-3.04788">
        <ele>8.6</ele>
        <time>2024-05-07T13:44:29Z</time>
      </trkpt>
      <trkpt lat="47.57884" lon="-3.04786">
        <ele>8.6</ele>
        <time>2024-05-07T13:44:30Z</time>
      </trkpt>
      <trkpt lat="47.57883" lon="-3.04783">
        <ele>8.4</ele>
        <time>2024-05-07T13:44:31Z</time>
      </trkpt>
      <trkpt lat="47.57883" lon="-3.0478">
        <ele>8.4</ele>
        <time>2024-05-07T13:44:32Z</time>
      </trkpt>
      <trkpt lat="47.57882" lon="-3.04778">
        <ele>8.4</ele>
        <time>2024-05-07T13:44:33Z</time>
      </trkpt>
      <trkpt lat="47.57882" lon="-3.04776">
        <ele>8.4</ele>
        <time>2024-05-07T13:44:34Z</time>
      </trkpt>
      <trkpt lat="47.57882" lon="-3.04774">
        <ele>8.2</ele>
        <time>2024-05-07T13:44:35Z</time>
      </trkpt>
      <trkpt lat="47.57881" lon="-3.04771">
        <ele>8.2</ele>
        <time>2024-05-07T13:44:36Z</time>
      </trkpt>
      <trkpt lat="47.57881" lon="-3.04769">
        <ele>8</ele>
        <time>2024-05-07T13:44:37Z</time>
      </trkpt>
      <trkpt lat="47.5788" lon="-3.04767">
        <ele>8</ele>
        <time>2024-05-07T13:44:38Z</time>
      </trkpt>
      <trkpt lat="47.5788" lon="-3.04765">
        <ele>8</ele>
        <time>2024-05-07T13:44:39Z</time>
      </trkpt>
      <trkpt lat="47.57879" lon="-3.04764">
        <ele>8</ele>
        <time>2024-05-07T13:44:40Z</time>
      </trkpt>
      <trkpt lat="47.57878" lon="-3.04761">
        <ele>8</ele>
        <time>2024-05-07T13:44:41Z</time>
      </trkpt>
      <trkpt lat="47.57877" lon="-3.04759">
        <ele>8</ele>
        <time>2024-05-07T13:44:42Z</time>
      </trkpt>
      <trkpt lat="47.57877" lon="-3.04757">
        <ele>7.8</ele>
        <time>2024-05-07T13:44:43Z</time>
      </trkpt>
      <trkpt lat="47.57876" lon="-3.04754">
        <ele>7.8</ele>
        <time>2024-05-07T13:44:44Z</time>
      </trkpt>
      <trkpt lat="47.57875" lon="-3.04752">
        <ele>8</ele>
        <time>2024-05-07T13:44:45Z</time>
      </trkpt>
      <trkpt lat="47.57875" lon="-3.0475">
        <ele>8</ele>
        <time>2024-05-07T13:44:46Z</time>
      </trkpt>
      <trkpt lat="47.57874" lon="-3.04749">
        <ele>8</ele>
        <time>2024-05-07T13:44:47Z</time>
      </trkpt>
      <trkpt lat="47.57874" lon="-3.04747">
        <ele>8</ele>
        <time>2024-05-07T13:44:48Z</time>
      </trkpt>
      <trkpt lat="47.57875" lon="-3.04745">
        <ele>8</ele>
        <time>2024-05-07T13:44:49Z</time>
      </trkpt>
      <trkpt lat="47.57874" lon="-3.04744">
        <ele>8.2</ele>
        <time>2024-05-07T13:44:50Z</time>
      </trkpt>
      <trkpt lat="47.57874" lon="-3.04742">
        <ele>8.2</ele>
        <time>2024-05-07T13:44:51Z</time>
      </trkpt>
      <trkpt lat="47.57874" lon="-3.0474">
        <ele>8.2</ele>
        <time>2024-05-07T13:44:52Z</time>
      </trkpt>
      <trkpt lat="47.57873" lon="-3.04738">
        <ele>8.2</ele>
        <time>2024-05-07T13:44:53Z</time>
      </trkpt>
      <trkpt lat="47.57874" lon="-3.04736">
        <ele>8.2</ele>
        <time>2024-05-07T13:44:54Z</time>
      </trkpt>
      <trkpt lat="47.57874" lon="-3.04734">
        <ele>8.2</ele>
        <time>2024-05-07T13:44:55Z</time>
      </trkpt>
      <trkpt lat="47.57873" lon="-3.04732">
        <ele>8</ele>
        <time>2024-05-07T13:44:56Z</time>
      </trkpt>
      <trkpt lat="47.57872" lon="-3.0473">
        <ele>8</ele>
        <time>2024-05-07T13:44:57Z</time>
      </trkpt>
      <trkpt lat="47.57871" lon="-3.04727">
        <ele>8</ele>
        <time>2024-05-07T13:44:58Z</time>
      </trkpt>
      <trkpt lat="47.57872" lon="-3.04725">
        <ele>8</ele>
        <time>2024-05-07T13:44:59Z</time>
      </trkpt>
      <trkpt lat="47.57872" lon="-3.04723">
        <ele>7.8</ele>
        <time>2024-05-07T13:45:00Z</time>
      </trkpt>
      <trkpt lat="47.57872" lon="-3.04721">
        <ele>7.8</ele>
        <time>2024-05-07T13:45:01Z</time>
      </trkpt>
      <trkpt lat="47.57872" lon="-3.04719">
        <ele>7.8</ele>
        <time>2024-05-07T13:45:02Z</time>
      </trkpt>
      <trkpt lat="47.57872" lon="-3.04717">
        <ele>7.6</ele>
        <time>2024-05-07T13:45:03Z</time>
      </trkpt>
      <trkpt lat="47.57872" lon="-3.04714">
        <ele>7.6</ele>
        <time>2024-05-07T13:45:04Z</time>
      </trkpt>
      <trkpt lat="47.57872" lon="-3.04712">
        <ele>7.6</ele>
        <time>2024-05-07T13:45:05Z</time>
      </trkpt>
      <trkpt lat="47.57872" lon="-3.04711">
        <ele>7.6</ele>
        <time>2024-05-07T13:45:06Z</time>
      </trkpt>
      <trkpt lat="47.57873" lon="-3.04708">
        <ele>7.6</ele>
        <time>2024-05-07T13:45:07Z</time>
      </trkpt>
      <trkpt lat="47.57873" lon="-3.04707">
        <ele>7.6</ele>
        <time>2024-05-07T13:45:08Z</time>
      </trkpt>
      <trkpt lat="47.57873" lon="-3.04705">
        <ele>7.6</ele>
        <time>2024-05-07T13:45:09Z</time>
      </trkpt>
      <trkpt lat="47.57872" lon="-3.04703">
        <ele>7.6</ele>
        <time>2024-05-07T13:45:10Z</time>
      </trkpt>
      <trkpt lat="47.57872" lon="-3.04701">
        <ele>7.6</ele>
        <time>2024-05-07T13:45:11Z</time>
      </trkpt>
      <trkpt lat="47.57871" lon="-3.04699">
        <ele>7.6</ele>
        <time>2024-05-07T13:45:12Z</time>
      </trkpt>
      <trkpt lat="47.5787" lon="-3.04697">
        <ele>7.6</ele>
        <time>2024-05-07T13:45:13Z</time>
      </trkpt>
      <trkpt lat="47.5787" lon="-3.04695">
        <ele>7.6</ele>
        <time>2024-05-07T13:45:14Z</time>
      </trkpt>
      <trkpt lat="47.57871" lon="-3.04693">
        <ele>7.6</ele>
        <time>2024-05-07T13:45:15Z</time>
      </trkpt>
      <trkpt lat="47.5787" lon="-3.04691">
        <ele>7.6</ele>
        <time>2024-05-07T13:45:16Z</time>
      </trkpt>
      <trkpt lat="47.57869" lon="-3.04689">
        <ele>7.8</ele>
        <time>2024-05-07T13:45:17Z</time>
      </trkpt>
      <trkpt lat="47.57869" lon="-3.04687">
        <ele>7.8</ele>
        <time>2024-05-07T13:45:18Z</time>
      </trkpt>
      <trkpt lat="47.57868" lon="-3.04684">
        <ele>7.8</ele>
        <time>2024-05-07T13:45:19Z</time>
      </trkpt>
      <trkpt lat="47.57867" lon="-3.04681">
        <ele>7.8</ele>
        <time>2024-05-07T13:45:20Z</time>
      </trkpt>
      <trkpt lat="47.57867" lon="-3.04679">
        <ele>7.8</ele>
        <time>2024-05-07T13:45:21Z</time>
      </trkpt>
      <trkpt lat="47.57868" lon="-3.04676">
        <ele>7.8</ele>
        <time>2024-05-07T13:45:22Z</time>
      </trkpt>
      <trkpt lat="47.57868" lon="-3.04674">
        <ele>7.8</ele>
        <time>2024-05-07T13:45:23Z</time>
      </trkpt>
      <trkpt lat="47.57868" lon="-3.04671">
        <ele>7.8</ele>
        <time>2024-05-07T13:45:24Z</time>
      </trkpt>
      <trkpt lat="47.57867" lon="-3.04669">
        <ele>7.8</ele>
        <time>2024-05-07T13:45:25Z</time>
      </trkpt>
      <trkpt lat="47.57866" lon="-3.04667">
        <ele>7.8</ele>
        <time>2024-05-07T13:45:26Z</time>
      </trkpt>
      <trkpt lat="47.57867" lon="-3.04665">
        <ele>7.8</ele>
        <time>2024-05-07T13:45:27Z</time>
      </trkpt>
      <trkpt lat="47.57868" lon="-3.04664">
        <ele>7.8</ele>
        <time>2024-05-07T13:45:28Z</time>
      </trkpt>
      <trkpt lat="47.57868" lon="-3.04661">
        <ele>7.8</ele>
        <time>2024-05-07T13:45:29Z</time>
      </trkpt>
      <trkpt lat="47.57868" lon="-3.04659">
        <ele>7.8</ele>
        <time>2024-05-07T13:45:30Z</time>
      </trkpt>
      <trkpt lat="47.57867" lon="-3.04657">
        <ele>7.8</ele>
        <time>2024-05-07T13:45:31Z</time>
      </trkpt>
      <trkpt lat="47.57865" lon="-3.04654">
        <ele>7.8</ele>
        <time>2024-05-07T13:45:32Z</time>
      </trkpt>
      <trkpt lat="47.57864" lon="-3.04653">
        <ele>7.8</ele>
        <time>2024-05-07T13:45:33Z</time>
      </trkpt>
      <trkpt lat="47.57864" lon="-3.04651">
        <ele>7.8</ele>
        <time>2024-05-07T13:45:34Z</time>
      </trkpt>
      <trkpt lat="47.57864" lon="-3.04649">
        <ele>7.8</ele>
        <time>2024-05-07T13:45:35Z</time>
      </trkpt>
      <trkpt lat="47.57865" lon="-3.04647">
        <ele>7.8</ele>
        <time>2024-05-07T13:45:36Z</time>
      </trkpt>
      <trkpt lat="47.57864" lon="-3.04645">
        <ele>7.6</ele>
        <time>2024-05-07T13:45:37Z</time>
      </trkpt>
      <trkpt lat="47.57862" lon="-3.04643">
        <ele>7.6</ele>
        <time>2024-05-07T13:45:38Z</time>
      </trkpt>
      <trkpt lat="47.57861" lon="-3.04641">
        <ele>7.6</ele>
        <time>2024-05-07T13:45:39Z</time>
      </trkpt>
      <trkpt lat="47.57861" lon="-3.0464">
        <ele>7.6</ele>
        <time>2024-05-07T13:45:40Z</time>
      </trkpt>
      <trkpt lat="47.57862" lon="-3.04638">
        <ele>7.6</ele>
        <time>2024-05-07T13:45:41Z</time>
      </trkpt>
      <trkpt lat="47.57862" lon="-3.04636">
        <ele>7.6</ele>
        <time>2024-05-07T13:45:42Z</time>
      </trkpt>
      <trkpt lat="47.57861" lon="-3.04634">
        <ele>7.6</ele>
        <time>2024-05-07T13:45:43Z</time>
      </trkpt>
      <trkpt lat="47.5786" lon="-3.04632">
        <ele>7.6</ele>
        <time>2024-05-07T13:45:44Z</time>
      </trkpt>
      <trkpt lat="47.5786" lon="-3.0463">
        <ele>7.6</ele>
        <time>2024-05-07T13:45:45Z</time>
      </trkpt>
      <trkpt lat="47.5786" lon="-3.04628">
        <ele>7.6</ele>
        <time>2024-05-07T13:45:46Z</time>
      </trkpt>
      <trkpt lat="47.57861" lon="-3.04626">
        <ele>7.4</ele>
        <time>2024-05-07T13:45:47Z</time>
      </trkpt>
      <trkpt lat="47.57861" lon="-3.04624">
        <ele>7.4</ele>
        <time>2024-05-07T13:45:48Z</time>
      </trkpt>
      <trkpt lat="47.5786" lon="-3.04621">
        <ele>7.4</ele>
        <time>2024-05-07T13:45:49Z</time>
      </trkpt>
      <trkpt lat="47.5786" lon="-3.04619">
        <ele>7.4</ele>
        <time>2024-05-07T13:45:50Z</time>
      </trkpt>
      <trkpt lat="47.5786" lon="-3.04617">
        <ele>7.4</ele>
        <time>2024-05-07T13:45:51Z</time>
      </trkpt>
      <trkpt lat="47.57861" lon="-3.04615">
        <ele>7.2</ele>
        <time>2024-05-07T13:45:52Z</time>
      </trkpt>
      <trkpt lat="47.57861" lon="-3.04612">
        <ele>7.2</ele>
        <time>2024-05-07T13:45:53Z</time>
      </trkpt>
      <trkpt lat="47.57861" lon="-3.0461">
        <ele>7.2</ele>
        <time>2024-05-07T13:45:54Z</time>
      </trkpt>
      <trkpt lat="47.57861" lon="-3.04608">
        <ele>7</ele>
        <time>2024-05-07T13:45:55Z</time>
      </trkpt>
      <trkpt lat="47.57861" lon="-3.04606">
        <ele>7</ele>
        <time>2024-05-07T13:45:56Z</time>
      </trkpt>
      <trkpt lat="47.57862" lon="-3.04604">
        <ele>7</ele>
        <time>2024-05-07T13:45:57Z</time>
      </trkpt>
      <trkpt lat="47.57862" lon="-3.04602">
        <ele>7</ele>
        <time>2024-05-07T13:45:58Z</time>
      </trkpt>
      <trkpt lat="47.57862" lon="-3.046">
        <ele>6.8</ele>
        <time>2024-05-07T13:45:59Z</time>
      </trkpt>
      <trkpt lat="47.57861" lon="-3.04598">
        <ele>6.8</ele>
        <time>2024-05-07T13:46:00Z</time>
      </trkpt>
      <trkpt lat="47.57861" lon="-3.04596">
        <ele>6.8</ele>
        <time>2024-05-07T13:46:01Z</time>
      </trkpt>
      <trkpt lat="47.57861" lon="-3.04594">
        <ele>6.8</ele>
        <time>2024-05-07T13:46:02Z</time>
      </trkpt>
      <trkpt lat="47.5786" lon="-3.04591">
        <ele>6.8</ele>
        <time>2024-05-07T13:46:03Z</time>
      </trkpt>
      <trkpt lat="47.5786" lon="-3.04589">
        <ele>6.6</ele>
        <time>2024-05-07T13:46:04Z</time>
      </trkpt>
      <trkpt lat="47.5786" lon="-3.04586">
        <ele>6.6</ele>
        <time>2024-05-07T13:46:05Z</time>
      </trkpt>
      <trkpt lat="47.5786" lon="-3.04584">
        <ele>6.6</ele>
        <time>2024-05-07T13:46:06Z</time>
      </trkpt>
      <trkpt lat="47.57859" lon="-3.04582">
        <ele>6.6</ele>
        <time>2024-05-07T13:46:07Z</time>
      </trkpt>
      <trkpt lat="47.5786" lon="-3.04581">
        <ele>6.6</ele>
        <time>2024-05-07T13:46:08Z</time>
      </trkpt>
      <trkpt lat="47.5786" lon="-3.04578">
        <ele>6.6</ele>
        <time>2024-05-07T13:46:09Z</time>
      </trkpt>
      <trkpt lat="47.5786" lon="-3.04576">
        <ele>6.6</ele>
        <time>2024-05-07T13:46:10Z</time>
      </trkpt>
      <trkpt lat="47.57859" lon="-3.04574">
        <ele>6.6</ele>
        <time>2024-05-07T13:46:11Z</time>
      </trkpt>
      <trkpt lat="47.57859" lon="-3.04571">
        <ele>6.6</ele>
        <time>2024-05-07T13:46:12Z</time>
      </trkpt>
      <trkpt lat="47.57858" lon="-3.04569">
        <ele>6.6</ele>
        <time>2024-05-07T13:46:13Z</time>
      </trkpt>
      <trkpt lat="47.57859" lon="-3.04567">
        <ele>6.6</ele>
        <time>2024-05-07T13:46:14Z</time>
      </trkpt>
      <trkpt lat="47.57858" lon="-3.04564">
        <ele>6.4</ele>
        <time>2024-05-07T13:46:15Z</time>
      </trkpt>
      <trkpt lat="47.57858" lon="-3.04562">
        <ele>6.4</ele>
        <time>2024-05-07T13:46:16Z</time>
      </trkpt>
      <trkpt lat="47.57858" lon="-3.0456">
        <ele>6.4</ele>
        <time>2024-05-07T13:46:17Z</time>
      </trkpt>
      <trkpt lat="47.57858" lon="-3.04559">
        <ele>6.4</ele>
        <time>2024-05-07T13:46:18Z</time>
      </trkpt>
      <trkpt lat="47.57858" lon="-3.04557">
        <ele>6.4</ele>
        <time>2024-05-07T13:46:19Z</time>
      </trkpt>
      <trkpt lat="47.57858" lon="-3.04555">
        <ele>6.4</ele>
        <time>2024-05-07T13:46:20Z</time>
      </trkpt>
      <trkpt lat="47.57858" lon="-3.04553">
        <ele>6.4</ele>
        <time>2024-05-07T13:46:21Z</time>
      </trkpt>
      <trkpt lat="47.57857" lon="-3.04551">
        <ele>6.2</ele>
        <time>2024-05-07T13:46:22Z</time>
      </trkpt>
      <trkpt lat="47.57856" lon="-3.04549">
        <ele>6.2</ele>
        <time>2024-05-07T13:46:23Z</time>
      </trkpt>
      <trkpt lat="47.57855" lon="-3.04547">
        <ele>6.4</ele>
        <time>2024-05-07T13:46:24Z</time>
      </trkpt>
      <trkpt lat="47.57855" lon="-3.04546">
        <ele>6.4</ele>
        <time>2024-05-07T13:46:25Z</time>
      </trkpt>
      <trkpt lat="47.57854" lon="-3.04544">
        <ele>6.4</ele>
        <time>2024-05-07T13:46:26Z</time>
      </trkpt>
      <trkpt lat="47.57854" lon="-3.04542">
        <ele>6.4</ele>
        <time>2024-05-07T13:46:27Z</time>
      </trkpt>
      <trkpt lat="47.57854" lon="-3.0454">
        <ele>6.4</ele>
        <time>2024-05-07T13:46:28Z</time>
      </trkpt>
      <trkpt lat="47.57854" lon="-3.04538">
        <ele>6.4</ele>
        <time>2024-05-07T13:46:29Z</time>
      </trkpt>
      <trkpt lat="47.57855" lon="-3.04536">
        <ele>6.4</ele>
        <time>2024-05-07T13:46:30Z</time>
      </trkpt>
      <trkpt lat="47.57855" lon="-3.04535">
        <ele>6.2</ele>
        <time>2024-05-07T13:46:31Z</time>
      </trkpt>
      <trkpt lat="47.57855" lon="-3.04533">
        <ele>6.2</ele>
        <time>2024-05-07T13:46:32Z</time>
      </trkpt>
      <trkpt lat="47.57855" lon="-3.04532">
        <ele>6.2</ele>
        <time>2024-05-07T13:46:33Z</time>
      </trkpt>
      <trkpt lat="47.57854" lon="-3.0453">
        <ele>6.2</ele>
        <time>2024-05-07T13:46:34Z</time>
      </trkpt>
      <trkpt lat="47.57854" lon="-3.04528">
        <ele>6.2</ele>
        <time>2024-05-07T13:46:35Z</time>
      </trkpt>
      <trkpt lat="47.57853" lon="-3.04526">
        <ele>6</ele>
        <time>2024-05-07T13:46:36Z</time>
      </trkpt>
      <trkpt lat="47.57852" lon="-3.04523">
        <ele>6</ele>
        <time>2024-05-07T13:46:37Z</time>
      </trkpt>
      <trkpt lat="47.57852" lon="-3.04521">
        <ele>5.8</ele>
        <time>2024-05-07T13:46:38Z</time>
      </trkpt>
      <trkpt lat="47.57852" lon="-3.04519">
        <ele>5.8</ele>
        <time>2024-05-07T13:46:39Z</time>
      </trkpt>
      <trkpt lat="47.57852" lon="-3.04517">
        <ele>5.8</ele>
        <time>2024-05-07T13:46:40Z</time>
      </trkpt>
      <trkpt lat="47.57852" lon="-3.04515">
        <ele>5.8</ele>
        <time>2024-05-07T13:46:41Z</time>
      </trkpt>
      <trkpt lat="47.57851" lon="-3.04512">
        <ele>5.8</ele>
        <time>2024-05-07T13:46:42Z</time>
      </trkpt>
      <trkpt lat="47.5785" lon="-3.0451">
        <ele>5.8</ele>
        <time>2024-05-07T13:46:43Z</time>
      </trkpt>
      <trkpt lat="47.57851" lon="-3.04509">
        <ele>5.8</ele>
        <time>2024-05-07T13:46:44Z</time>
      </trkpt>
      <trkpt lat="47.5785" lon="-3.04506">
        <ele>5.8</ele>
        <time>2024-05-07T13:46:45Z</time>
      </trkpt>
      <trkpt lat="47.57851" lon="-3.04505">
        <ele>5.8</ele>
        <time>2024-05-07T13:46:46Z</time>
      </trkpt>
      <trkpt lat="47.57852" lon="-3.04503">
        <ele>6</ele>
        <time>2024-05-07T13:46:47Z</time>
      </trkpt>
      <trkpt lat="47.57853" lon="-3.04501">
        <ele>6</ele>
        <time>2024-05-07T13:46:48Z</time>
      </trkpt>
      <trkpt lat="47.57855" lon="-3.04499">
        <ele>6</ele>
        <time>2024-05-07T13:46:49Z</time>
      </trkpt>
      <trkpt lat="47.57856" lon="-3.04498">
        <ele>6.2</ele>
        <time>2024-05-07T13:46:50Z</time>
      </trkpt>
      <trkpt lat="47.57858" lon="-3.04497">
        <ele>6.2</ele>
        <time>2024-05-07T13:46:51Z</time>
      </trkpt>
      <trkpt lat="47.57858" lon="-3.04496">
        <ele>6.2</ele>
        <time>2024-05-07T13:46:52Z</time>
      </trkpt>
      <trkpt lat="47.57859" lon="-3.04495">
        <ele>6.2</ele>
        <time>2024-05-07T13:46:53Z</time>
      </trkpt>
      <trkpt lat="47.5786" lon="-3.04493">
        <ele>6.2</ele>
        <time>2024-05-07T13:46:54Z</time>
      </trkpt>
      <trkpt lat="47.57861" lon="-3.04491">
        <ele>6.2</ele>
        <time>2024-05-07T13:46:55Z</time>
      </trkpt>
      <trkpt lat="47.57862" lon="-3.04489">
        <ele>6.2</ele>
        <time>2024-05-07T13:46:56Z</time>
      </trkpt>
      <trkpt lat="47.57863" lon="-3.04489">
        <ele>6.2</ele>
        <time>2024-05-07T13:46:57Z</time>
      </trkpt>
      <trkpt lat="47.57864" lon="-3.04489">
        <ele>6</ele>
        <time>2024-05-07T13:46:58Z</time>
      </trkpt>
      <trkpt lat="47.57865" lon="-3.04488">
        <ele>6</ele>
        <time>2024-05-07T13:46:59Z</time>
      </trkpt>
      <trkpt lat="47.57866" lon="-3.04488">
        <ele>6</ele>
        <time>2024-05-07T13:47:00Z</time>
      </trkpt>
      <trkpt lat="47.57867" lon="-3.04487">
        <ele>6</ele>
        <time>2024-05-07T13:47:01Z</time>
      </trkpt>
      <trkpt lat="47.57868" lon="-3.04487">
        <ele>6</ele>
        <time>2024-05-07T13:47:02Z</time>
      </trkpt>
      <trkpt lat="47.57869" lon="-3.04486">
        <ele>6</ele>
        <time>2024-05-07T13:47:03Z</time>
      </trkpt>
      <trkpt lat="47.57871" lon="-3.04486">
        <ele>5.8</ele>
        <time>2024-05-07T13:47:04Z</time>
      </trkpt>
      <trkpt lat="47.57875" lon="-3.04485">
        <ele>5.8</ele>
        <time>2024-05-07T13:47:05Z</time>
      </trkpt>
      <trkpt lat="47.57878" lon="-3.04485">
        <ele>5.8</ele>
        <time>2024-05-07T13:47:06Z</time>
      </trkpt>
      <trkpt lat="47.5788" lon="-3.04483">
        <ele>5.6</ele>
        <time>2024-05-07T13:47:07Z</time>
      </trkpt>
      <trkpt lat="47.57881" lon="-3.04482">
        <ele>5.6</ele>
        <time>2024-05-07T13:47:08Z</time>
      </trkpt>
      <trkpt lat="47.5788" lon="-3.0448">
        <ele>5.6</ele>
        <time>2024-05-07T13:47:09Z</time>
      </trkpt>
      <trkpt lat="47.5788" lon="-3.04479">
        <ele>5.6</ele>
        <time>2024-05-07T13:47:10Z</time>
      </trkpt>
      <trkpt lat="47.57882" lon="-3.04478">
        <ele>5.6</ele>
        <time>2024-05-07T13:47:11Z</time>
      </trkpt>
      <trkpt lat="47.57882" lon="-3.04476">
        <ele>5.6</ele>
        <time>2024-05-07T13:47:12Z</time>
      </trkpt>
      <trkpt lat="47.57884" lon="-3.04475">
        <ele>5.6</ele>
        <time>2024-05-07T13:47:13Z</time>
      </trkpt>
      <trkpt lat="47.57885" lon="-3.04475">
        <ele>5.6</ele>
        <time>2024-05-07T13:47:14Z</time>
      </trkpt>
      <trkpt lat="47.57888" lon="-3.04475">
        <ele>5.6</ele>
        <time>2024-05-07T13:47:15Z</time>
      </trkpt>
      <trkpt lat="47.57889" lon="-3.04474">
        <ele>5.8</ele>
        <time>2024-05-07T13:47:16Z</time>
      </trkpt>
      <trkpt lat="47.5789" lon="-3.04472">
        <ele>5.6</ele>
        <time>2024-05-07T13:47:17Z</time>
      </trkpt>
      <trkpt lat="47.57892" lon="-3.0447">
        <ele>5.6</ele>
        <time>2024-05-07T13:47:18Z</time>
      </trkpt>
      <trkpt lat="47.57893" lon="-3.04468">
        <ele>5.6</ele>
        <time>2024-05-07T13:47:19Z</time>
      </trkpt>
      <trkpt lat="47.57892" lon="-3.04465">
        <ele>5.4</ele>
        <time>2024-05-07T13:47:20Z</time>
      </trkpt>
      <trkpt lat="47.57892" lon="-3.04463">
        <ele>5.4</ele>
        <time>2024-05-07T13:47:21Z</time>
      </trkpt>
      <trkpt lat="47.57893" lon="-3.04461">
        <ele>5.4</ele>
        <time>2024-05-07T13:47:22Z</time>
      </trkpt>
      <trkpt lat="47.57894" lon="-3.04459">
        <ele>5.4</ele>
        <time>2024-05-07T13:47:23Z</time>
      </trkpt>
      <trkpt lat="47.57895" lon="-3.04457">
        <ele>5.2</ele>
        <time>2024-05-07T13:47:24Z</time>
      </trkpt>
      <trkpt lat="47.57896" lon="-3.04455">
        <ele>5.2</ele>
        <time>2024-05-07T13:47:25Z</time>
      </trkpt>
      <trkpt lat="47.57897" lon="-3.04453">
        <ele>5.2</ele>
        <time>2024-05-07T13:47:26Z</time>
      </trkpt>
      <trkpt lat="47.57898" lon="-3.0445">
        <ele>5.2</ele>
        <time>2024-05-07T13:47:27Z</time>
      </trkpt>
      <trkpt lat="47.57898" lon="-3.04448">
        <ele>5.2</ele>
        <time>2024-05-07T13:47:28Z</time>
      </trkpt>
      <trkpt lat="47.57898" lon="-3.04445">
        <ele>5</ele>
        <time>2024-05-07T13:47:29Z</time>
      </trkpt>
      <trkpt lat="47.57898" lon="-3.04443">
        <ele>5</ele>
        <time>2024-05-07T13:47:30Z</time>
      </trkpt>
      <trkpt lat="47.57898" lon="-3.04441">
        <ele>5</ele>
        <time>2024-05-07T13:47:31Z</time>
      </trkpt>
      <trkpt lat="47.57899" lon="-3.04438">
        <ele>5</ele>
        <time>2024-05-07T13:47:32Z</time>
      </trkpt>
      <trkpt lat="47.57899" lon="-3.04437">
        <ele>5</ele>
        <time>2024-05-07T13:47:33Z</time>
      </trkpt>
      <trkpt lat="47.57899" lon="-3.04434">
        <ele>5</ele>
        <time>2024-05-07T13:47:34Z</time>
      </trkpt>
      <trkpt lat="47.57899" lon="-3.04432">
        <ele>5</ele>
        <time>2024-05-07T13:47:35Z</time>
      </trkpt>
      <trkpt lat="47.57898" lon="-3.04429">
        <ele>5</ele>
        <time>2024-05-07T13:47:36Z</time>
      </trkpt>
      <trkpt lat="47.57898" lon="-3.04427">
        <ele>5</ele>
        <time>2024-05-07T13:47:37Z</time>
      </trkpt>
      <trkpt lat="47.57898" lon="-3.04425">
        <ele>5</ele>
        <time>2024-05-07T13:47:38Z</time>
      </trkpt>
      <trkpt lat="47.57898" lon="-3.04422">
        <ele>5</ele>
        <time>2024-05-07T13:47:39Z</time>
      </trkpt>
      <trkpt lat="47.57898" lon="-3.0442">
        <ele>5</ele>
        <time>2024-05-07T13:47:40Z</time>
      </trkpt>
      <trkpt lat="47.57898" lon="-3.04419">
        <ele>5</ele>
        <time>2024-05-07T13:47:41Z</time>
      </trkpt>
      <trkpt lat="47.57897" lon="-3.04417">
        <ele>5</ele>
        <time>2024-05-07T13:47:42Z</time>
      </trkpt>
      <trkpt lat="47.57897" lon="-3.04416">
        <ele>5</ele>
        <time>2024-05-07T13:47:43Z</time>
      </trkpt>
      <trkpt lat="47.57898" lon="-3.04414">
        <ele>5</ele>
        <time>2024-05-07T13:47:44Z</time>
      </trkpt>
      <trkpt lat="47.57898" lon="-3.04413">
        <ele>5</ele>
        <time>2024-05-07T13:47:45Z</time>
      </trkpt>
      <trkpt lat="47.57898" lon="-3.04412">
        <ele>5</ele>
        <time>2024-05-07T13:47:46Z</time>
      </trkpt>
      <trkpt lat="47.57899" lon="-3.0441">
        <ele>5</ele>
        <time>2024-05-07T13:47:47Z</time>
      </trkpt>
      <trkpt lat="47.57899" lon="-3.04408">
        <ele>5</ele>
        <time>2024-05-07T13:47:48Z</time>
      </trkpt>
      <trkpt lat="47.579" lon="-3.04407">
        <ele>5</ele>
        <time>2024-05-07T13:47:49Z</time>
      </trkpt>
      <trkpt lat="47.579" lon="-3.04405">
        <ele>4.8</ele>
        <time>2024-05-07T13:47:50Z</time>
      </trkpt>
      <trkpt lat="47.57901" lon="-3.04404">
        <ele>4.8</ele>
        <time>2024-05-07T13:47:51Z</time>
      </trkpt>
      <trkpt lat="47.57901" lon="-3.04402">
        <ele>4.8</ele>
        <time>2024-05-07T13:47:52Z</time>
      </trkpt>
      <trkpt lat="47.57901" lon="-3.04401">
        <ele>4.8</ele>
        <time>2024-05-07T13:47:53Z</time>
      </trkpt>
      <trkpt lat="47.57902" lon="-3.044">
        <ele>4.8</ele>
        <time>2024-05-07T13:47:54Z</time>
      </trkpt>
      <trkpt lat="47.57901" lon="-3.04398">
        <ele>4.8</ele>
        <time>2024-05-07T13:47:55Z</time>
      </trkpt>
      <trkpt lat="47.57902" lon="-3.04396">
        <ele>4.8</ele>
        <time>2024-05-07T13:47:56Z</time>
      </trkpt>
      <trkpt lat="47.57902" lon="-3.04394">
        <ele>5</ele>
        <time>2024-05-07T13:47:57Z</time>
      </trkpt>
      <trkpt lat="47.57902" lon="-3.04392">
        <ele>5</ele>
        <time>2024-05-07T13:47:58Z</time>
      </trkpt>
      <trkpt lat="47.57902" lon="-3.0439">
        <ele>5.2</ele>
        <time>2024-05-07T13:47:59Z</time>
      </trkpt>
      <trkpt lat="47.57903" lon="-3.04388">
        <ele>5.2</ele>
        <time>2024-05-07T13:48:00Z</time>
      </trkpt>
      <trkpt lat="47.57903" lon="-3.04386">
        <ele>5.4</ele>
        <time>2024-05-07T13:48:01Z</time>
      </trkpt>
      <trkpt lat="47.57904" lon="-3.04384">
        <ele>5.4</ele>
        <time>2024-05-07T13:48:02Z</time>
      </trkpt>
      <trkpt lat="47.57905" lon="-3.04383">
        <ele>5.4</ele>
        <time>2024-05-07T13:48:03Z</time>
      </trkpt>
      <trkpt lat="47.57906" lon="-3.04381">
        <ele>5.2</ele>
        <time>2024-05-07T13:48:04Z</time>
      </trkpt>
      <trkpt lat="47.57906" lon="-3.04379">
        <ele>5.2</ele>
        <time>2024-05-07T13:48:05Z</time>
      </trkpt>
      <trkpt lat="47.57907" lon="-3.04376">
        <ele>5</ele>
        <time>2024-05-07T13:48:06Z</time>
      </trkpt>
      <trkpt lat="47.57907" lon="-3.04375">
        <ele>5</ele>
        <time>2024-05-07T13:48:07Z</time>
      </trkpt>
      <trkpt lat="47.57906" lon="-3.04373">
        <ele>4.8</ele>
        <time>2024-05-07T13:48:08Z</time>
      </trkpt>
      <trkpt lat="47.57906" lon="-3.04371">
        <ele>4.6</ele>
        <time>2024-05-07T13:48:09Z</time>
      </trkpt>
      <trkpt lat="47.57905" lon="-3.04368">
        <ele>4.4</ele>
        <time>2024-05-07T13:48:10Z</time>
      </trkpt>
      <trkpt lat="47.57905" lon="-3.04366">
        <ele>4.2</ele>
        <time>2024-05-07T13:48:11Z</time>
      </trkpt>
      <trkpt lat="47.57906" lon="-3.04364">
        <ele>4</ele>
        <time>2024-05-07T13:48:12Z</time>
      </trkpt>
      <trkpt lat="47.57907" lon="-3.04363">
        <ele>4</ele>
        <time>2024-05-07T13:48:13Z</time>
      </trkpt>
      <trkpt lat="47.57907" lon="-3.04361">
        <ele>4</ele>
        <time>2024-05-07T13:48:14Z</time>
      </trkpt>
      <trkpt lat="47.57908" lon="-3.04359">
        <ele>3.8</ele>
        <time>2024-05-07T13:48:15Z</time>
      </trkpt>
      <trkpt lat="47.57908" lon="-3.04358">
        <ele>3.8</ele>
        <time>2024-05-07T13:48:16Z</time>
      </trkpt>
      <trkpt lat="47.57909" lon="-3.04356">
        <ele>3.4</ele>
        <time>2024-05-07T13:48:17Z</time>
      </trkpt>
      <trkpt lat="47.5791" lon="-3.04354">
        <ele>3.2</ele>
        <time>2024-05-07T13:48:18Z</time>
      </trkpt>
      <trkpt lat="47.5791" lon="-3.04351">
        <ele>3</ele>
        <time>2024-05-07T13:48:19Z</time>
      </trkpt>
      <trkpt lat="47.57911" lon="-3.04349">
        <ele>3.2</ele>
        <time>2024-05-07T13:48:20Z</time>
      </trkpt>
      <trkpt lat="47.57912" lon="-3.04348">
        <ele>3.4</ele>
        <time>2024-05-07T13:48:21Z</time>
      </trkpt>
      <trkpt lat="47.57913" lon="-3.04346">
        <ele>5</ele>
        <time>2024-05-07T13:48:22Z</time>
      </trkpt>
      <trkpt lat="47.57913" lon="-3.04344">
        <ele>5.8</ele>
        <time>2024-05-07T13:48:23Z</time>
      </trkpt>
      <trkpt lat="47.57913" lon="-3.04343">
        <ele>6.6</ele>
        <time>2024-05-07T13:48:24Z</time>
      </trkpt>
      <trkpt lat="47.57913" lon="-3.04341">
        <ele>6.8</ele>
        <time>2024-05-07T13:48:25Z</time>
      </trkpt>
      <trkpt lat="47.57914" lon="-3.04339">
        <ele>6.2</ele>
        <time>2024-05-07T13:48:26Z</time>
      </trkpt>
      <trkpt lat="47.57914" lon="-3.04338">
        <ele>5.8</ele>
        <time>2024-05-07T13:48:27Z</time>
      </trkpt>
      <trkpt lat="47.57914" lon="-3.04336">
        <ele>5.8</ele>
        <time>2024-05-07T13:48:28Z</time>
      </trkpt>
      <trkpt lat="47.57914" lon="-3.04334">
        <ele>6</ele>
        <time>2024-05-07T13:48:29Z</time>
      </trkpt>
      <trkpt lat="47.57915" lon="-3.04332">
        <ele>6</ele>
        <time>2024-05-07T13:48:30Z</time>
      </trkpt>
      <trkpt lat="47.57915" lon="-3.0433">
        <ele>6</ele>
        <time>2024-05-07T13:48:31Z</time>
      </trkpt>
      <trkpt lat="47.57915" lon="-3.04329">
        <ele>5.4</ele>
        <time>2024-05-07T13:48:32Z</time>
      </trkpt>
      <trkpt lat="47.57916" lon="-3.04327">
        <ele>5.2</ele>
        <time>2024-05-07T13:48:33Z</time>
      </trkpt>
      <trkpt lat="47.57917" lon="-3.04325">
        <ele>5</ele>
        <time>2024-05-07T13:48:34Z</time>
      </trkpt>
      <trkpt lat="47.57918" lon="-3.04323">
        <ele>4.8</ele>
        <time>2024-05-07T13:48:35Z</time>
      </trkpt>
      <trkpt lat="47.57918" lon="-3.04321">
        <ele>4.8</ele>
        <time>2024-05-07T13:48:36Z</time>
      </trkpt>
      <trkpt lat="47.57919" lon="-3.04319">
        <ele>4.8</ele>
        <time>2024-05-07T13:48:37Z</time>
      </trkpt>
      <trkpt lat="47.57919" lon="-3.04318">
        <ele>4.8</ele>
        <time>2024-05-07T13:48:38Z</time>
      </trkpt>
      <trkpt lat="47.5792" lon="-3.04317">
        <ele>4.8</ele>
        <time>2024-05-07T13:48:39Z</time>
      </trkpt>
      <trkpt lat="47.57919" lon="-3.04315">
        <ele>4.8</ele>
        <time>2024-05-07T13:48:40Z</time>
      </trkpt>
      <trkpt lat="47.57919" lon="-3.04312">
        <ele>4.8</ele>
        <time>2024-05-07T13:48:41Z</time>
      </trkpt>
      <trkpt lat="47.5792" lon="-3.04309">
        <ele>4.8</ele>
        <time>2024-05-07T13:48:42Z</time>
      </trkpt>
      <trkpt lat="47.5792" lon="-3.04308">
        <ele>5.6</ele>
        <time>2024-05-07T13:48:43Z</time>
      </trkpt>
      <trkpt lat="47.57921" lon="-3.04306">
        <ele>5.8</ele>
        <time>2024-05-07T13:48:44Z</time>
      </trkpt>
      <trkpt lat="47.57921" lon="-3.04304">
        <ele>5.2</ele>
        <time>2024-05-07T13:48:45Z</time>
      </trkpt>
      <trkpt lat="47.57921" lon="-3.04303">
        <ele>5.4</ele>
        <time>2024-05-07T13:48:46Z</time>
      </trkpt>
      <trkpt lat="47.57921" lon="-3.04302">
        <ele>5.4</ele>
        <time>2024-05-07T13:48:47Z</time>
      </trkpt>
      <trkpt lat="47.57921" lon="-3.04302">
        <ele>5.6</ele>
        <time>2024-05-07T13:48:48Z</time>
      </trkpt>
      <trkpt lat="47.57922" lon="-3.04301">
        <ele>5.8</ele>
        <time>2024-05-07T13:48:49Z</time>
      </trkpt>
      <trkpt lat="47.57922" lon="-3.04301">
        <ele>6</ele>
        <time>2024-05-07T13:48:50Z</time>
      </trkpt>
      <trkpt lat="47.57922" lon="-3.04301">
        <ele>6</ele>
        <time>2024-05-07T13:48:51Z</time>
      </trkpt>
      <trkpt lat="47.57922" lon="-3.04301">
        <ele>6.4</ele>
        <time>2024-05-07T13:48:52Z</time>
      </trkpt>
      <trkpt lat="47.57922" lon="-3.04301">
        <ele>6.4</ele>
        <time>2024-05-07T13:48:53Z</time>
      </trkpt>
      <trkpt lat="47.57923" lon="-3.043">
        <ele>6.2</ele>
        <time>2024-05-07T13:48:54Z</time>
      </trkpt>
      <trkpt lat="47.57923" lon="-3.043">
        <ele>5.8</ele>
        <time>2024-05-07T13:48:55Z</time>
      </trkpt>
      <trkpt lat="47.57924" lon="-3.04298">
        <ele>5.6</ele>
        <time>2024-05-07T13:48:56Z</time>
      </trkpt>
      <trkpt lat="47.57924" lon="-3.04297">
        <ele>5.6</ele>
        <time>2024-05-07T13:48:57Z</time>
      </trkpt>
      <trkpt lat="47.57924" lon="-3.04296">
        <ele>5.4</ele>
        <time>2024-05-07T13:48:58Z</time>
      </trkpt>
      <trkpt lat="47.57924" lon="-3.04294">
        <ele>5.4</ele>
        <time>2024-05-07T13:48:59Z</time>
      </trkpt>
      <trkpt lat="47.57925" lon="-3.04293">
        <ele>5.2</ele>
        <time>2024-05-07T13:49:00Z</time>
      </trkpt>
      <trkpt lat="47.57925" lon="-3.04292">
        <ele>5</ele>
        <time>2024-05-07T13:49:01Z</time>
      </trkpt>
      <trkpt lat="47.57925" lon="-3.0429">
        <ele>4.8</ele>
        <time>2024-05-07T13:49:02Z</time>
      </trkpt>
      <trkpt lat="47.57925" lon="-3.04289">
        <ele>4.6</ele>
        <time>2024-05-07T13:49:03Z</time>
      </trkpt>
      <trkpt lat="47.57926" lon="-3.04287">
        <ele>4.4</ele>
        <time>2024-05-07T13:49:04Z</time>
      </trkpt>
      <trkpt lat="47.57926" lon="-3.04286">
        <ele>4.4</ele>
        <time>2024-05-07T13:49:05Z</time>
      </trkpt>
      <trkpt lat="47.57927" lon="-3.04284">
        <ele>4.4</ele>
        <time>2024-05-07T13:49:06Z</time>
      </trkpt>
      <trkpt lat="47.57927" lon="-3.04282">
        <ele>4.2</ele>
        <time>2024-05-07T13:49:07Z</time>
      </trkpt>
      <trkpt lat="47.57927" lon="-3.04281">
        <ele>4.2</ele>
        <time>2024-05-07T13:49:08Z</time>
      </trkpt>
      <trkpt lat="47.57928" lon="-3.0428">
        <ele>4.2</ele>
        <time>2024-05-07T13:49:09Z</time>
      </trkpt>
      <trkpt lat="47.57928" lon="-3.04279">
        <ele>4.2</ele>
        <time>2024-05-07T13:49:10Z</time>
      </trkpt>
      <trkpt lat="47.57929" lon="-3.04277">
        <ele>4.2</ele>
        <time>2024-05-07T13:49:11Z</time>
      </trkpt>
      <trkpt lat="47.57929" lon="-3.04275">
        <ele>4.2</ele>
        <time>2024-05-07T13:49:12Z</time>
      </trkpt>
      <trkpt lat="47.5793" lon="-3.04273">
        <ele>4</ele>
        <time>2024-05-07T13:49:13Z</time>
      </trkpt>
      <trkpt lat="47.5793" lon="-3.04272">
        <ele>4</ele>
        <time>2024-05-07T13:49:14Z</time>
      </trkpt>
      <trkpt lat="47.57931" lon="-3.0427">
        <ele>4</ele>
        <time>2024-05-07T13:49:15Z</time>
      </trkpt>
      <trkpt lat="47.57932" lon="-3.04268">
        <ele>4</ele>
        <time>2024-05-07T13:49:16Z</time>
      </trkpt>
      <trkpt lat="47.57933" lon="-3.04267">
        <ele>3.8</ele>
        <time>2024-05-07T13:49:17Z</time>
      </trkpt>
      <trkpt lat="47.57933" lon="-3.04265">
        <ele>3.8</ele>
        <time>2024-05-07T13:49:18Z</time>
      </trkpt>
      <trkpt lat="47.57933" lon="-3.04263">
        <ele>4</ele>
        <time>2024-05-07T13:49:19Z</time>
      </trkpt>
      <trkpt lat="47.57934" lon="-3.04262">
        <ele>4.4</ele>
        <time>2024-05-07T13:49:20Z</time>
      </trkpt>
      <trkpt lat="47.57934" lon="-3.0426">
        <ele>4.4</ele>
        <time>2024-05-07T13:49:21Z</time>
      </trkpt>
      <trkpt lat="47.57935" lon="-3.04259">
        <ele>4.6</ele>
        <time>2024-05-07T13:49:22Z</time>
      </trkpt>
      <trkpt lat="47.57935" lon="-3.04257">
        <ele>4.8</ele>
        <time>2024-05-07T13:49:23Z</time>
      </trkpt>
      <trkpt lat="47.57935" lon="-3.04254">
        <ele>5</ele>
        <time>2024-05-07T13:49:24Z</time>
      </trkpt>
      <trkpt lat="47.57935" lon="-3.04252">
        <ele>5.2</ele>
        <time>2024-05-07T13:49:25Z</time>
      </trkpt>
      <trkpt lat="47.57936" lon="-3.0425">
        <ele>5.2</ele>
        <time>2024-05-07T13:49:26Z</time>
      </trkpt>
      <trkpt lat="47.57935" lon="-3.04247">
        <ele>5.4</ele>
        <time>2024-05-07T13:49:27Z</time>
      </trkpt>
      <trkpt lat="47.57936" lon="-3.04244">
        <ele>5.4</ele>
        <time>2024-05-07T13:49:28Z</time>
      </trkpt>
      <trkpt lat="47.57936" lon="-3.04242">
        <ele>5.2</ele>
        <time>2024-05-07T13:49:29Z</time>
      </trkpt>
      <trkpt lat="47.57936" lon="-3.0424">
        <ele>5.2</ele>
        <time>2024-05-07T13:49:30Z</time>
      </trkpt>
      <trkpt lat="47.57937" lon="-3.04238">
        <ele>5</ele>
        <time>2024-05-07T13:49:31Z</time>
      </trkpt>
      <trkpt lat="47.57937" lon="-3.04236">
        <ele>5</ele>
        <time>2024-05-07T13:49:32Z</time>
      </trkpt>
      <trkpt lat="47.57939" lon="-3.04234">
        <ele>5</ele>
        <time>2024-05-07T13:49:33Z</time>
      </trkpt>
      <trkpt lat="47.5794" lon="-3.04232">
        <ele>5</ele>
        <time>2024-05-07T13:49:34Z</time>
      </trkpt>
      <trkpt lat="47.5794" lon="-3.0423">
        <ele>5</ele>
        <time>2024-05-07T13:49:35Z</time>
      </trkpt>
      <trkpt lat="47.5794" lon="-3.04228">
        <ele>4.8</ele>
        <time>2024-05-07T13:49:36Z</time>
      </trkpt>
      <trkpt lat="47.5794" lon="-3.04226">
        <ele>4.8</ele>
        <time>2024-05-07T13:49:37Z</time>
      </trkpt>
      <trkpt lat="47.5794" lon="-3.04223">
        <ele>4.8</ele>
        <time>2024-05-07T13:49:38Z</time>
      </trkpt>
      <trkpt lat="47.5794" lon="-3.04221">
        <ele>4.8</ele>
        <time>2024-05-07T13:49:39Z</time>
      </trkpt>
      <trkpt lat="47.57939" lon="-3.04219">
        <ele>4.8</ele>
        <time>2024-05-07T13:49:40Z</time>
      </trkpt>
      <trkpt lat="47.57939" lon="-3.04217">
        <ele>4.6</ele>
        <time>2024-05-07T13:49:41Z</time>
      </trkpt>
      <trkpt lat="47.57939" lon="-3.04215">
        <ele>4.6</ele>
        <time>2024-05-07T13:49:42Z</time>
      </trkpt>
      <trkpt lat="47.57939" lon="-3.04213">
        <ele>4.6</ele>
        <time>2024-05-07T13:49:43Z</time>
      </trkpt>
      <trkpt lat="47.57939" lon="-3.0421">
        <ele>4.6</ele>
        <time>2024-05-07T13:49:44Z</time>
      </trkpt>
      <trkpt lat="47.5794" lon="-3.04207">
        <ele>4.6</ele>
        <time>2024-05-07T13:49:45Z</time>
      </trkpt>
      <trkpt lat="47.5794" lon="-3.04205">
        <ele>4.6</ele>
        <time>2024-05-07T13:49:46Z</time>
      </trkpt>
      <trkpt lat="47.5794" lon="-3.04204">
        <ele>4.6</ele>
        <time>2024-05-07T13:49:47Z</time>
      </trkpt>
      <trkpt lat="47.5794" lon="-3.04202">
        <ele>4.6</ele>
        <time>2024-05-07T13:49:48Z</time>
      </trkpt>
      <trkpt lat="47.5794" lon="-3.042">
        <ele>4.6</ele>
        <time>2024-05-07T13:49:49Z</time>
      </trkpt>
      <trkpt lat="47.5794" lon="-3.04199">
        <ele>4.6</ele>
        <time>2024-05-07T13:49:50Z</time>
      </trkpt>
      <trkpt lat="47.5794" lon="-3.04197">
        <ele>4.6</ele>
        <time>2024-05-07T13:49:51Z</time>
      </trkpt>
      <trkpt lat="47.5794" lon="-3.04195">
        <ele>4.6</ele>
        <time>2024-05-07T13:49:52Z</time>
      </trkpt>
      <trkpt lat="47.5794" lon="-3.04193">
        <ele>4.6</ele>
        <time>2024-05-07T13:49:53Z</time>
      </trkpt>
      <trkpt lat="47.57941" lon="-3.04191">
        <ele>4.6</ele>
        <time>2024-05-07T13:49:54Z</time>
      </trkpt>
      <trkpt lat="47.57941" lon="-3.04189">
        <ele>4.4</ele>
        <time>2024-05-07T13:49:55Z</time>
      </trkpt>
      <trkpt lat="47.57941" lon="-3.04186">
        <ele>4.4</ele>
        <time>2024-05-07T13:49:56Z</time>
      </trkpt>
      <trkpt lat="47.5794" lon="-3.04184">
        <ele>4.4</ele>
        <time>2024-05-07T13:49:57Z</time>
      </trkpt>
      <trkpt lat="47.5794" lon="-3.04183">
        <ele>4.4</ele>
        <time>2024-05-07T13:49:58Z</time>
      </trkpt>
      <trkpt lat="47.5794" lon="-3.04181">
        <ele>4.2</ele>
        <time>2024-05-07T13:49:59Z</time>
      </trkpt>
      <trkpt lat="47.57941" lon="-3.04178">
        <ele>4.2</ele>
        <time>2024-05-07T13:50:00Z</time>
      </trkpt>
      <trkpt lat="47.57942" lon="-3.04176">
        <ele>4.2</ele>
        <time>2024-05-07T13:50:01Z</time>
      </trkpt>
      <trkpt lat="47.57942" lon="-3.04175">
        <ele>4.2</ele>
        <time>2024-05-07T13:50:02Z</time>
      </trkpt>
      <trkpt lat="47.57943" lon="-3.04173">
        <ele>4.2</ele>
        <time>2024-05-07T13:50:03Z</time>
      </trkpt>
      <trkpt lat="47.57943" lon="-3.0417">
        <ele>4.2</ele>
        <time>2024-05-07T13:50:04Z</time>
      </trkpt>
      <trkpt lat="47.57944" lon="-3.04168">
        <ele>4.2</ele>
        <time>2024-05-07T13:50:05Z</time>
      </trkpt>
      <trkpt lat="47.57944" lon="-3.04166">
        <ele>4.2</ele>
        <time>2024-05-07T13:50:06Z</time>
      </trkpt>
      <trkpt lat="47.57944" lon="-3.04163">
        <ele>4.2</ele>
        <time>2024-05-07T13:50:07Z</time>
      </trkpt>
      <trkpt lat="47.57944" lon="-3.04161">
        <ele>4.2</ele>
        <time>2024-05-07T13:50:08Z</time>
      </trkpt>
      <trkpt lat="47.57944" lon="-3.04158">
        <ele>4.2</ele>
        <time>2024-05-07T13:50:09Z</time>
      </trkpt>
      <trkpt lat="47.57944" lon="-3.04156">
        <ele>4.2</ele>
        <time>2024-05-07T13:50:10Z</time>
      </trkpt>
      <trkpt lat="47.57944" lon="-3.04154">
        <ele>4.2</ele>
        <time>2024-05-07T13:50:11Z</time>
      </trkpt>
      <trkpt lat="47.57944" lon="-3.04151">
        <ele>4.2</ele>
        <time>2024-05-07T13:50:12Z</time>
      </trkpt>
      <trkpt lat="47.57944" lon="-3.04149">
        <ele>4.2</ele>
        <time>2024-05-07T13:50:13Z</time>
      </trkpt>
      <trkpt lat="47.57943" lon="-3.04147">
        <ele>4.2</ele>
        <time>2024-05-07T13:50:14Z</time>
      </trkpt>
      <trkpt lat="47.57943" lon="-3.04145">
        <ele>4.2</ele>
        <time>2024-05-07T13:50:15Z</time>
      </trkpt>
      <trkpt lat="47.57943" lon="-3.04144">
        <ele>4.2</ele>
        <time>2024-05-07T13:50:16Z</time>
      </trkpt>
      <trkpt lat="47.57943" lon="-3.04142">
        <ele>4.2</ele>
        <time>2024-05-07T13:50:17Z</time>
      </trkpt>
      <trkpt lat="47.57943" lon="-3.04139">
        <ele>4.2</ele>
        <time>2024-05-07T13:50:18Z</time>
      </trkpt>
      <trkpt lat="47.57943" lon="-3.04137">
        <ele>4.2</ele>
        <time>2024-05-07T13:50:19Z</time>
      </trkpt>
      <trkpt lat="47.57943" lon="-3.04135">
        <ele>4.2</ele>
        <time>2024-05-07T13:50:20Z</time>
      </trkpt>
      <trkpt lat="47.57943" lon="-3.04134">
        <ele>4.2</ele>
        <time>2024-05-07T13:50:21Z</time>
      </trkpt>
      <trkpt lat="47.57943" lon="-3.04132">
        <ele>4.2</ele>
        <time>2024-05-07T13:50:22Z</time>
      </trkpt>
      <trkpt lat="47.57943" lon="-3.0413">
        <ele>4.2</ele>
        <time>2024-05-07T13:50:23Z</time>
      </trkpt>
      <trkpt lat="47.57942" lon="-3.04128">
        <ele>4.2</ele>
        <time>2024-05-07T13:50:24Z</time>
      </trkpt>
      <trkpt lat="47.57942" lon="-3.04127">
        <ele>4.2</ele>
        <time>2024-05-07T13:50:25Z</time>
      </trkpt>
      <trkpt lat="47.57941" lon="-3.04125">
        <ele>4.2</ele>
        <time>2024-05-07T13:50:26Z</time>
      </trkpt>
      <trkpt lat="47.57941" lon="-3.04124">
        <ele>4.2</ele>
        <time>2024-05-07T13:50:27Z</time>
      </trkpt>
      <trkpt lat="47.57941" lon="-3.04122">
        <ele>4.2</ele>
        <time>2024-05-07T13:50:28Z</time>
      </trkpt>
      <trkpt lat="47.57941" lon="-3.04121">
        <ele>4.2</ele>
        <time>2024-05-07T13:50:29Z</time>
      </trkpt>
      <trkpt lat="47.57941" lon="-3.04119">
        <ele>4.2</ele>
        <time>2024-05-07T13:50:30Z</time>
      </trkpt>
      <trkpt lat="47.57941" lon="-3.04117">
        <ele>4.2</ele>
        <time>2024-05-07T13:50:31Z</time>
      </trkpt>
      <trkpt lat="47.5794" lon="-3.04114">
        <ele>4.4</ele>
        <time>2024-05-07T13:50:32Z</time>
      </trkpt>
      <trkpt lat="47.5794" lon="-3.04112">
        <ele>4.4</ele>
        <time>2024-05-07T13:50:33Z</time>
      </trkpt>
      <trkpt lat="47.5794" lon="-3.0411">
        <ele>4.4</ele>
        <time>2024-05-07T13:50:34Z</time>
      </trkpt>
      <trkpt lat="47.57939" lon="-3.04108">
        <ele>4.4</ele>
        <time>2024-05-07T13:50:35Z</time>
      </trkpt>
      <trkpt lat="47.57939" lon="-3.04106">
        <ele>4.4</ele>
        <time>2024-05-07T13:50:36Z</time>
      </trkpt>
      <trkpt lat="47.57939" lon="-3.04104">
        <ele>4.4</ele>
        <time>2024-05-07T13:50:37Z</time>
      </trkpt>
      <trkpt lat="47.57939" lon="-3.04102">
        <ele>4.4</ele>
        <time>2024-05-07T13:50:38Z</time>
      </trkpt>
      <trkpt lat="47.57938" lon="-3.041">
        <ele>4.4</ele>
        <time>2024-05-07T13:50:39Z</time>
      </trkpt>
      <trkpt lat="47.57938" lon="-3.04098">
        <ele>4.4</ele>
        <time>2024-05-07T13:50:40Z</time>
      </trkpt>
      <trkpt lat="47.57937" lon="-3.04096">
        <ele>4.6</ele>
        <time>2024-05-07T13:50:41Z</time>
      </trkpt>
      <trkpt lat="47.57936" lon="-3.04095">
        <ele>4.6</ele>
        <time>2024-05-07T13:50:42Z</time>
      </trkpt>
      <trkpt lat="47.57936" lon="-3.04093">
        <ele>4.6</ele>
        <time>2024-05-07T13:50:43Z</time>
      </trkpt>
      <trkpt lat="47.57935" lon="-3.04091">
        <ele>4.6</ele>
        <time>2024-05-07T13:50:44Z</time>
      </trkpt>
      <trkpt lat="47.57935" lon="-3.0409">
        <ele>4.6</ele>
        <time>2024-05-07T13:50:45Z</time>
      </trkpt>
      <trkpt lat="47.57935" lon="-3.04088">
        <ele>4.6</ele>
        <time>2024-05-07T13:50:46Z</time>
      </trkpt>
      <trkpt lat="47.57935" lon="-3.04086">
        <ele>4.6</ele>
        <time>2024-05-07T13:50:47Z</time>
      </trkpt>
      <trkpt lat="47.57934" lon="-3.04084">
        <ele>4.6</ele>
        <time>2024-05-07T13:50:48Z</time>
      </trkpt>
      <trkpt lat="47.57933" lon="-3.04082">
        <ele>4.6</ele>
        <time>2024-05-07T13:50:49Z</time>
      </trkpt>
      <trkpt lat="47.57932" lon="-3.04081">
        <ele>4.6</ele>
        <time>2024-05-07T13:50:50Z</time>
      </trkpt>
      <trkpt lat="47.57932" lon="-3.04078">
        <ele>4.6</ele>
        <time>2024-05-07T13:50:51Z</time>
      </trkpt>
      <trkpt lat="47.57932" lon="-3.04077">
        <ele>4.8</ele>
        <time>2024-05-07T13:50:52Z</time>
      </trkpt>
      <trkpt lat="47.57931" lon="-3.04075">
        <ele>4.8</ele>
        <time>2024-05-07T13:50:53Z</time>
      </trkpt>
      <trkpt lat="47.5793" lon="-3.04074">
        <ele>4.8</ele>
        <time>2024-05-07T13:50:54Z</time>
      </trkpt>
      <trkpt lat="47.5793" lon="-3.04072">
        <ele>4.8</ele>
        <time>2024-05-07T13:50:55Z</time>
      </trkpt>
      <trkpt lat="47.5793" lon="-3.0407">
        <ele>4.8</ele>
        <time>2024-05-07T13:50:56Z</time>
      </trkpt>
      <trkpt lat="47.5793" lon="-3.04068">
        <ele>4.8</ele>
        <time>2024-05-07T13:50:57Z</time>
      </trkpt>
      <trkpt lat="47.57929" lon="-3.04066">
        <ele>4.8</ele>
        <time>2024-05-07T13:50:58Z</time>
      </trkpt>
      <trkpt lat="47.57929" lon="-3.04064">
        <ele>5</ele>
        <time>2024-05-07T13:50:59Z</time>
      </trkpt>
      <trkpt lat="47.57929" lon="-3.04062">
        <ele>5.2</ele>
        <time>2024-05-07T13:51:00Z</time>
      </trkpt>
      <trkpt lat="47.57928" lon="-3.04059">
        <ele>5.2</ele>
        <time>2024-05-07T13:51:01Z</time>
      </trkpt>
      <trkpt lat="47.57928" lon="-3.04057">
        <ele>5.2</ele>
        <time>2024-05-07T13:51:02Z</time>
      </trkpt>
      <trkpt lat="47.57928" lon="-3.04056">
        <ele>5.2</ele>
        <time>2024-05-07T13:51:03Z</time>
      </trkpt>
      <trkpt lat="47.57927" lon="-3.04053">
        <ele>5</ele>
        <time>2024-05-07T13:51:04Z</time>
      </trkpt>
      <trkpt lat="47.57926" lon="-3.04052">
        <ele>5</ele>
        <time>2024-05-07T13:51:05Z</time>
      </trkpt>
      <trkpt lat="47.57925" lon="-3.04049">
        <ele>4.8</ele>
        <time>2024-05-07T13:51:06Z</time>
      </trkpt>
      <trkpt lat="47.57924" lon="-3.04047">
        <ele>4.8</ele>
        <time>2024-05-07T13:51:07Z</time>
      </trkpt>
      <trkpt lat="47.57924" lon="-3.04046">
        <ele>4.8</ele>
        <time>2024-05-07T13:51:08Z</time>
      </trkpt>
      <trkpt lat="47.57923" lon="-3.04044">
        <ele>5</ele>
        <time>2024-05-07T13:51:09Z</time>
      </trkpt>
      <trkpt lat="47.57922" lon="-3.04042">
        <ele>5</ele>
        <time>2024-05-07T13:51:10Z</time>
      </trkpt>
      <trkpt lat="47.57922" lon="-3.0404">
        <ele>5</ele>
        <time>2024-05-07T13:51:11Z</time>
      </trkpt>
      <trkpt lat="47.57922" lon="-3.04038">
        <ele>5</ele>
        <time>2024-05-07T13:51:12Z</time>
      </trkpt>
      <trkpt lat="47.57921" lon="-3.04036">
        <ele>5</ele>
        <time>2024-05-07T13:51:13Z</time>
      </trkpt>
      <trkpt lat="47.57921" lon="-3.04034">
        <ele>5</ele>
        <time>2024-05-07T13:51:14Z</time>
      </trkpt>
      <trkpt lat="47.5792" lon="-3.04032">
        <ele>5.2</ele>
        <time>2024-05-07T13:51:15Z</time>
      </trkpt>
      <trkpt lat="47.57919" lon="-3.0403">
        <ele>5.2</ele>
        <time>2024-05-07T13:51:16Z</time>
      </trkpt>
      <trkpt lat="47.57919" lon="-3.04028">
        <ele>5.4</ele>
        <time>2024-05-07T13:51:17Z</time>
      </trkpt>
      <trkpt lat="47.57918" lon="-3.04027">
        <ele>5.4</ele>
        <time>2024-05-07T13:51:18Z</time>
      </trkpt>
      <trkpt lat="47.57917" lon="-3.04025">
        <ele>5.4</ele>
        <time>2024-05-07T13:51:19Z</time>
      </trkpt>
      <trkpt lat="47.57916" lon="-3.04024">
        <ele>5.4</ele>
        <time>2024-05-07T13:51:20Z</time>
      </trkpt>
      <trkpt lat="47.57915" lon="-3.04022">
        <ele>5.4</ele>
        <time>2024-05-07T13:51:21Z</time>
      </trkpt>
      <trkpt lat="47.57914" lon="-3.0402">
        <ele>5.4</ele>
        <time>2024-05-07T13:51:22Z</time>
      </trkpt>
      <trkpt lat="47.57914" lon="-3.04018">
        <ele>5.4</ele>
        <time>2024-05-07T13:51:23Z</time>
      </trkpt>
      <trkpt lat="47.57913" lon="-3.04016">
        <ele>5.4</ele>
        <time>2024-05-07T13:51:24Z</time>
      </trkpt>
      <trkpt lat="47.57913" lon="-3.04014">
        <ele>5.4</ele>
        <time>2024-05-07T13:51:25Z</time>
      </trkpt>
      <trkpt lat="47.57913" lon="-3.04012">
        <ele>5.4</ele>
        <time>2024-05-07T13:51:26Z</time>
      </trkpt>
      <trkpt lat="47.57912" lon="-3.0401">
        <ele>5.4</ele>
        <time>2024-05-07T13:51:27Z</time>
      </trkpt>
      <trkpt lat="47.57911" lon="-3.04009">
        <ele>5.4</ele>
        <time>2024-05-07T13:51:28Z</time>
      </trkpt>
      <trkpt lat="47.57911" lon="-3.04007">
        <ele>5.2</ele>
        <time>2024-05-07T13:51:29Z</time>
      </trkpt>
      <trkpt lat="47.5791" lon="-3.04005">
        <ele>5.2</ele>
        <time>2024-05-07T13:51:30Z</time>
      </trkpt>
      <trkpt lat="47.57909" lon="-3.04003">
        <ele>5.2</ele>
        <time>2024-05-07T13:51:31Z</time>
      </trkpt>
      <trkpt lat="47.57909" lon="-3.04002">
        <ele>5</ele>
        <time>2024-05-07T13:51:32Z</time>
      </trkpt>
      <trkpt lat="47.57909" lon="-3.04">
        <ele>5</ele>
        <time>2024-05-07T13:51:33Z</time>
      </trkpt>
      <trkpt lat="47.57908" lon="-3.03998">
        <ele>5</ele>
        <time>2024-05-07T13:51:34Z</time>
      </trkpt>
      <trkpt lat="47.57907" lon="-3.03996">
        <ele>4.8</ele>
        <time>2024-05-07T13:51:35Z</time>
      </trkpt>
      <trkpt lat="47.57907" lon="-3.03994">
        <ele>4.8</ele>
        <time>2024-05-07T13:51:36Z</time>
      </trkpt>
      <trkpt lat="47.57906" lon="-3.03993">
        <ele>4.8</ele>
        <time>2024-05-07T13:51:37Z</time>
      </trkpt>
      <trkpt lat="47.57905" lon="-3.03991">
        <ele>4.6</ele>
        <time>2024-05-07T13:51:38Z</time>
      </trkpt>
      <trkpt lat="47.57904" lon="-3.03989">
        <ele>4.6</ele>
        <time>2024-05-07T13:51:39Z</time>
      </trkpt>
      <trkpt lat="47.57904" lon="-3.03987">
        <ele>4.4</ele>
        <time>2024-05-07T13:51:40Z</time>
      </trkpt>
      <trkpt lat="47.57904" lon="-3.03986">
        <ele>4.4</ele>
        <time>2024-05-07T13:51:41Z</time>
      </trkpt>
      <trkpt lat="47.57903" lon="-3.03984">
        <ele>4.4</ele>
        <time>2024-05-07T13:51:42Z</time>
      </trkpt>
      <trkpt lat="47.57903" lon="-3.03982">
        <ele>4.4</ele>
        <time>2024-05-07T13:51:43Z</time>
      </trkpt>
      <trkpt lat="47.57902" lon="-3.03981">
        <ele>4.4</ele>
        <time>2024-05-07T13:51:44Z</time>
      </trkpt>
      <trkpt lat="47.57901" lon="-3.03979">
        <ele>4.6</ele>
        <time>2024-05-07T13:51:45Z</time>
      </trkpt>
      <trkpt lat="47.57901" lon="-3.03978">
        <ele>4.6</ele>
        <time>2024-05-07T13:51:46Z</time>
      </trkpt>
      <trkpt lat="47.579" lon="-3.03976">
        <ele>4.6</ele>
        <time>2024-05-07T13:51:47Z</time>
      </trkpt>
      <trkpt lat="47.579" lon="-3.03974">
        <ele>4.6</ele>
        <time>2024-05-07T13:51:48Z</time>
      </trkpt>
      <trkpt lat="47.57899" lon="-3.03972">
        <ele>4.6</ele>
        <time>2024-05-07T13:51:49Z</time>
      </trkpt>
      <trkpt lat="47.57899" lon="-3.0397">
        <ele>4.6</ele>
        <time>2024-05-07T13:51:50Z</time>
      </trkpt>
      <trkpt lat="47.57898" lon="-3.03968">
        <ele>4.6</ele>
        <time>2024-05-07T13:51:51Z</time>
      </trkpt>
      <trkpt lat="47.57897" lon="-3.03966">
        <ele>4.6</ele>
        <time>2024-05-07T13:51:52Z</time>
      </trkpt>
      <trkpt lat="47.57897" lon="-3.03965">
        <ele>4.6</ele>
        <time>2024-05-07T13:51:53Z</time>
      </trkpt>
      <trkpt lat="47.57896" lon="-3.03963">
        <ele>4.6</ele>
        <time>2024-05-07T13:51:54Z</time>
      </trkpt>
      <trkpt lat="47.57896" lon="-3.03962">
        <ele>4.6</ele>
        <time>2024-05-07T13:51:55Z</time>
      </trkpt>
      <trkpt lat="47.57895" lon="-3.0396">
        <ele>4.6</ele>
        <time>2024-05-07T13:51:56Z</time>
      </trkpt>
      <trkpt lat="47.57895" lon="-3.03959">
        <ele>4.6</ele>
        <time>2024-05-07T13:51:57Z</time>
      </trkpt>
      <trkpt lat="47.57894" lon="-3.03957">
        <ele>4.6</ele>
        <time>2024-05-07T13:51:58Z</time>
      </trkpt>
      <trkpt lat="47.57893" lon="-3.03955">
        <ele>4.6</ele>
        <time>2024-05-07T13:51:59Z</time>
      </trkpt>
      <trkpt lat="47.57893" lon="-3.03953">
        <ele>4.6</ele>
        <time>2024-05-07T13:52:00Z</time>
      </trkpt>
      <trkpt lat="47.57892" lon="-3.03951">
        <ele>4.6</ele>
        <time>2024-05-07T13:52:01Z</time>
      </trkpt>
      <trkpt lat="47.57891" lon="-3.03949">
        <ele>4.4</ele>
        <time>2024-05-07T13:52:02Z</time>
      </trkpt>
      <trkpt lat="47.57891" lon="-3.03947">
        <ele>4.4</ele>
        <time>2024-05-07T13:52:03Z</time>
      </trkpt>
      <trkpt lat="47.5789" lon="-3.03946">
        <ele>4.4</ele>
        <time>2024-05-07T13:52:04Z</time>
      </trkpt>
      <trkpt lat="47.5789" lon="-3.03944">
        <ele>4.4</ele>
        <time>2024-05-07T13:52:05Z</time>
      </trkpt>
      <trkpt lat="47.5789" lon="-3.03943">
        <ele>4.4</ele>
        <time>2024-05-07T13:52:06Z</time>
      </trkpt>
      <trkpt lat="47.57889" lon="-3.03942">
        <ele>4.4</ele>
        <time>2024-05-07T13:52:07Z</time>
      </trkpt>
      <trkpt lat="47.57888" lon="-3.0394">
        <ele>4.4</ele>
        <time>2024-05-07T13:52:08Z</time>
      </trkpt>
      <trkpt lat="47.57888" lon="-3.03938">
        <ele>4.4</ele>
        <time>2024-05-07T13:52:09Z</time>
      </trkpt>
      <trkpt lat="47.57887" lon="-3.03936">
        <ele>4.4</ele>
        <time>2024-05-07T13:52:10Z</time>
      </trkpt>
      <trkpt lat="47.57886" lon="-3.03934">
        <ele>4.4</ele>
        <time>2024-05-07T13:52:11Z</time>
      </trkpt>
      <trkpt lat="47.57885" lon="-3.03933">
        <ele>4.4</ele>
        <time>2024-05-07T13:52:12Z</time>
      </trkpt>
      <trkpt lat="47.57885" lon="-3.03931">
        <ele>4.4</ele>
        <time>2024-05-07T13:52:13Z</time>
      </trkpt>
      <trkpt lat="47.57884" lon="-3.0393">
        <ele>4.4</ele>
        <time>2024-05-07T13:52:14Z</time>
      </trkpt>
      <trkpt lat="47.57884" lon="-3.03928">
        <ele>4.4</ele>
        <time>2024-05-07T13:52:15Z</time>
      </trkpt>
      <trkpt lat="47.57883" lon="-3.03926">
        <ele>4.4</ele>
        <time>2024-05-07T13:52:16Z</time>
      </trkpt>
      <trkpt lat="47.57882" lon="-3.03925">
        <ele>4.2</ele>
        <time>2024-05-07T13:52:17Z</time>
      </trkpt>
      <trkpt lat="47.57882" lon="-3.03923">
        <ele>4.2</ele>
        <time>2024-05-07T13:52:18Z</time>
      </trkpt>
      <trkpt lat="47.57881" lon="-3.03921">
        <ele>4.2</ele>
        <time>2024-05-07T13:52:19Z</time>
      </trkpt>
      <trkpt lat="47.57881" lon="-3.03919">
        <ele>4.2</ele>
        <time>2024-05-07T13:52:20Z</time>
      </trkpt>
      <trkpt lat="47.5788" lon="-3.03917">
        <ele>4.2</ele>
        <time>2024-05-07T13:52:21Z</time>
      </trkpt>
      <trkpt lat="47.57879" lon="-3.03915">
        <ele>4.2</ele>
        <time>2024-05-07T13:52:22Z</time>
      </trkpt>
      <trkpt lat="47.57879" lon="-3.03913">
        <ele>4.2</ele>
        <time>2024-05-07T13:52:23Z</time>
      </trkpt>
      <trkpt lat="47.57878" lon="-3.03911">
        <ele>4.4</ele>
        <time>2024-05-07T13:52:24Z</time>
      </trkpt>
      <trkpt lat="47.57878" lon="-3.03909">
        <ele>4.6</ele>
        <time>2024-05-07T13:52:25Z</time>
      </trkpt>
      <trkpt lat="47.57877" lon="-3.03907">
        <ele>4.6</ele>
        <time>2024-05-07T13:52:26Z</time>
      </trkpt>
      <trkpt lat="47.57877" lon="-3.03906">
        <ele>4.6</ele>
        <time>2024-05-07T13:52:27Z</time>
      </trkpt>
      <trkpt lat="47.57876" lon="-3.03903">
        <ele>4.6</ele>
        <time>2024-05-07T13:52:28Z</time>
      </trkpt>
      <trkpt lat="47.57876" lon="-3.03902">
        <ele>4.6</ele>
        <time>2024-05-07T13:52:29Z</time>
      </trkpt>
      <trkpt lat="47.57876" lon="-3.039">
        <ele>4.6</ele>
        <time>2024-05-07T13:52:30Z</time>
      </trkpt>
      <trkpt lat="47.57875" lon="-3.03898">
        <ele>4.6</ele>
        <time>2024-05-07T13:52:31Z</time>
      </trkpt>
      <trkpt lat="47.57875" lon="-3.03897">
        <ele>4.6</ele>
        <time>2024-05-07T13:52:32Z</time>
      </trkpt>
      <trkpt lat="47.57874" lon="-3.03896">
        <ele>4.6</ele>
        <time>2024-05-07T13:52:33Z</time>
      </trkpt>
      <trkpt lat="47.57874" lon="-3.03894">
        <ele>4.4</ele>
        <time>2024-05-07T13:52:34Z</time>
      </trkpt>
      <trkpt lat="47.57873" lon="-3.03892">
        <ele>4.4</ele>
        <time>2024-05-07T13:52:35Z</time>
      </trkpt>
      <trkpt lat="47.57873" lon="-3.0389">
        <ele>4.6</ele>
        <time>2024-05-07T13:52:36Z</time>
      </trkpt>
      <trkpt lat="47.57872" lon="-3.03888">
        <ele>4.6</ele>
        <time>2024-05-07T13:52:37Z</time>
      </trkpt>
      <trkpt lat="47.57872" lon="-3.03886">
        <ele>4.6</ele>
        <time>2024-05-07T13:52:38Z</time>
      </trkpt>
      <trkpt lat="47.57871" lon="-3.03884">
        <ele>4.4</ele>
        <time>2024-05-07T13:52:39Z</time>
      </trkpt>
      <trkpt lat="47.5787" lon="-3.03882">
        <ele>4.4</ele>
        <time>2024-05-07T13:52:40Z</time>
      </trkpt>
      <trkpt lat="47.57869" lon="-3.03879">
        <ele>4.4</ele>
        <time>2024-05-07T13:52:41Z</time>
      </trkpt>
      <trkpt lat="47.57869" lon="-3.03877">
        <ele>4.4</ele>
        <time>2024-05-07T13:52:42Z</time>
      </trkpt>
      <trkpt lat="47.57869" lon="-3.03875">
        <ele>4.4</ele>
        <time>2024-05-07T13:52:43Z</time>
      </trkpt>
      <trkpt lat="47.57868" lon="-3.03874">
        <ele>4.4</ele>
        <time>2024-05-07T13:52:44Z</time>
      </trkpt>
      <trkpt lat="47.57867" lon="-3.03873">
        <ele>4.4</ele>
        <time>2024-05-07T13:52:45Z</time>
      </trkpt>
      <trkpt lat="47.57867" lon="-3.03872">
        <ele>4.4</ele>
        <time>2024-05-07T13:52:46Z</time>
      </trkpt>
      <trkpt lat="47.57866" lon="-3.03871">
        <ele>4.4</ele>
        <time>2024-05-07T13:52:47Z</time>
      </trkpt>
      <trkpt lat="47.57866" lon="-3.03869">
        <ele>4.4</ele>
        <time>2024-05-07T13:52:48Z</time>
      </trkpt>
      <trkpt lat="47.57865" lon="-3.03867">
        <ele>4.4</ele>
        <time>2024-05-07T13:52:49Z</time>
      </trkpt>
      <trkpt lat="47.57865" lon="-3.03865">
        <ele>4.4</ele>
        <time>2024-05-07T13:52:50Z</time>
      </trkpt>
      <trkpt lat="47.57864" lon="-3.03863">
        <ele>4.4</ele>
        <time>2024-05-07T13:52:51Z</time>
      </trkpt>
      <trkpt lat="47.57863" lon="-3.03861">
        <ele>4.4</ele>
        <time>2024-05-07T13:52:52Z</time>
      </trkpt>
      <trkpt lat="47.57862" lon="-3.0386">
        <ele>4.4</ele>
        <time>2024-05-07T13:52:53Z</time>
      </trkpt>
      <trkpt lat="47.57861" lon="-3.03859">
        <ele>4.4</ele>
        <time>2024-05-07T13:52:54Z</time>
      </trkpt>
      <trkpt lat="47.5786" lon="-3.03857">
        <ele>4.4</ele>
        <time>2024-05-07T13:52:55Z</time>
      </trkpt>
      <trkpt lat="47.57859" lon="-3.03856">
        <ele>4.4</ele>
        <time>2024-05-07T13:52:56Z</time>
      </trkpt>
      <trkpt lat="47.57858" lon="-3.03855">
        <ele>4.4</ele>
        <time>2024-05-07T13:52:57Z</time>
      </trkpt>
      <trkpt lat="47.57857" lon="-3.03854">
        <ele>4.4</ele>
        <time>2024-05-07T13:52:58Z</time>
      </trkpt>
      <trkpt lat="47.57855" lon="-3.03853">
        <ele>4.4</ele>
        <time>2024-05-07T13:52:59Z</time>
      </trkpt>
      <trkpt lat="47.57854" lon="-3.03852">
        <ele>4.4</ele>
        <time>2024-05-07T13:53:00Z</time>
      </trkpt>
      <trkpt lat="47.57853" lon="-3.03851">
        <ele>4.4</ele>
        <time>2024-05-07T13:53:01Z</time>
      </trkpt>
      <trkpt lat="47.57852" lon="-3.03849">
        <ele>4.4</ele>
        <time>2024-05-07T13:53:02Z</time>
      </trkpt>
      <trkpt lat="47.57851" lon="-3.03848">
        <ele>4.2</ele>
        <time>2024-05-07T13:53:03Z</time>
      </trkpt>
      <trkpt lat="47.5785" lon="-3.03848">
        <ele>4.2</ele>
        <time>2024-05-07T13:53:04Z</time>
      </trkpt>
      <trkpt lat="47.57849" lon="-3.03847">
        <ele>4.2</ele>
        <time>2024-05-07T13:53:05Z</time>
      </trkpt>
      <trkpt lat="47.57848" lon="-3.03848">
        <ele>4</ele>
        <time>2024-05-07T13:53:06Z</time>
      </trkpt>
      <trkpt lat="47.57847" lon="-3.03848">
        <ele>4</ele>
        <time>2024-05-07T13:53:07Z</time>
      </trkpt>
      <trkpt lat="47.57846" lon="-3.03849">
        <ele>4</ele>
        <time>2024-05-07T13:53:08Z</time>
      </trkpt>
      <trkpt lat="47.57845" lon="-3.03849">
        <ele>4</ele>
        <time>2024-05-07T13:53:09Z</time>
      </trkpt>
      <trkpt lat="47.57844" lon="-3.03848">
        <ele>4</ele>
        <time>2024-05-07T13:53:10Z</time>
      </trkpt>
      <trkpt lat="47.57842" lon="-3.03847">
        <ele>4</ele>
        <time>2024-05-07T13:53:11Z</time>
      </trkpt>
      <trkpt lat="47.57841" lon="-3.03847">
        <ele>4</ele>
        <time>2024-05-07T13:53:12Z</time>
      </trkpt>
      <trkpt lat="47.5784" lon="-3.03846">
        <ele>4</ele>
        <time>2024-05-07T13:53:13Z</time>
      </trkpt>
      <trkpt lat="47.57838" lon="-3.03846">
        <ele>4</ele>
        <time>2024-05-07T13:53:14Z</time>
      </trkpt>
      <trkpt lat="47.57837" lon="-3.03845">
        <ele>4.2</ele>
        <time>2024-05-07T13:53:15Z</time>
      </trkpt>
      <trkpt lat="47.57835" lon="-3.03844">
        <ele>4.2</ele>
        <time>2024-05-07T13:53:16Z</time>
      </trkpt>
      <trkpt lat="47.57834" lon="-3.03843">
        <ele>4.2</ele>
        <time>2024-05-07T13:53:17Z</time>
      </trkpt>
      <trkpt lat="47.57832" lon="-3.03843">
        <ele>4.2</ele>
        <time>2024-05-07T13:53:18Z</time>
      </trkpt>
      <trkpt lat="47.5783" lon="-3.03843">
        <ele>4.2</ele>
        <time>2024-05-07T13:53:19Z</time>
      </trkpt>
      <trkpt lat="47.57828" lon="-3.03843">
        <ele>4.4</ele>
        <time>2024-05-07T13:53:20Z</time>
      </trkpt>
      <trkpt lat="47.57827" lon="-3.03843">
        <ele>4.4</ele>
        <time>2024-05-07T13:53:21Z</time>
      </trkpt>
      <trkpt lat="47.57827" lon="-3.03843">
        <ele>4.4</ele>
        <time>2024-05-07T13:53:22Z</time>
      </trkpt>
      <trkpt lat="47.57826" lon="-3.03844">
        <ele>4.4</ele>
        <time>2024-05-07T13:53:23Z</time>
      </trkpt>
      <trkpt lat="47.57825" lon="-3.03843">
        <ele>4.4</ele>
        <time>2024-05-07T13:53:24Z</time>
      </trkpt>
      <trkpt lat="47.57824" lon="-3.03843">
        <ele>4.4</ele>
        <time>2024-05-07T13:53:25Z</time>
      </trkpt>
      <trkpt lat="47.57823" lon="-3.03842">
        <ele>4.4</ele>
        <time>2024-05-07T13:53:26Z</time>
      </trkpt>
      <trkpt lat="47.57822" lon="-3.03841">
        <ele>4.6</ele>
        <time>2024-05-07T13:53:27Z</time>
      </trkpt>
      <trkpt lat="47.5782" lon="-3.0384">
        <ele>4.6</ele>
        <time>2024-05-07T13:53:28Z</time>
      </trkpt>
      <trkpt lat="47.57818" lon="-3.03839">
        <ele>4.6</ele>
        <time>2024-05-07T13:53:29Z</time>
      </trkpt>
      <trkpt lat="47.57817" lon="-3.03838">
        <ele>4.6</ele>
        <time>2024-05-07T13:53:30Z</time>
      </trkpt>
      <trkpt lat="47.57815" lon="-3.03837">
        <ele>4.6</ele>
        <time>2024-05-07T13:53:31Z</time>
      </trkpt>
      <trkpt lat="47.57814" lon="-3.03837">
        <ele>4.6</ele>
        <time>2024-05-07T13:53:32Z</time>
      </trkpt>
      <trkpt lat="47.57812" lon="-3.03836">
        <ele>4.8</ele>
        <time>2024-05-07T13:53:33Z</time>
      </trkpt>
      <trkpt lat="47.5781" lon="-3.03836">
        <ele>4.8</ele>
        <time>2024-05-07T13:53:34Z</time>
      </trkpt>
      <trkpt lat="47.57808" lon="-3.03835">
        <ele>4.8</ele>
        <time>2024-05-07T13:53:35Z</time>
      </trkpt>
      <trkpt lat="47.57806" lon="-3.03835">
        <ele>4.6</ele>
        <time>2024-05-07T13:53:36Z</time>
      </trkpt>
      <trkpt lat="47.57805" lon="-3.03834">
        <ele>4.6</ele>
        <time>2024-05-07T13:53:37Z</time>
      </trkpt>
      <trkpt lat="47.57803" lon="-3.03834">
        <ele>4.8</ele>
        <time>2024-05-07T13:53:38Z</time>
      </trkpt>
      <trkpt lat="47.57802" lon="-3.03833">
        <ele>4.8</ele>
        <time>2024-05-07T13:53:39Z</time>
      </trkpt>
      <trkpt lat="47.57802" lon="-3.03833">
        <ele>4.8</ele>
        <time>2024-05-07T13:53:40Z</time>
      </trkpt>
      <trkpt lat="47.57799" lon="-3.03833">
        <ele>5</ele>
        <time>2024-05-07T13:53:41Z</time>
      </trkpt>
      <trkpt lat="47.57797" lon="-3.03832">
        <ele>5</ele>
        <time>2024-05-07T13:53:42Z</time>
      </trkpt>
      <trkpt lat="47.57797" lon="-3.03831">
        <ele>5</ele>
        <time>2024-05-07T13:53:43Z</time>
      </trkpt>
      <trkpt lat="47.57796" lon="-3.0383">
        <ele>5</ele>
        <time>2024-05-07T13:53:44Z</time>
      </trkpt>
      <trkpt lat="47.57795" lon="-3.03829">
        <ele>5</ele>
        <time>2024-05-07T13:53:45Z</time>
      </trkpt>
      <trkpt lat="47.57795" lon="-3.03829">
        <ele>5</ele>
        <time>2024-05-07T13:53:46Z</time>
      </trkpt>
      <trkpt lat="47.57794" lon="-3.03828">
        <ele>5</ele>
        <time>2024-05-07T13:53:47Z</time>
      </trkpt>
      <trkpt lat="47.57793" lon="-3.03826">
        <ele>4.8</ele>
        <time>2024-05-07T13:53:48Z</time>
      </trkpt>
      <trkpt lat="47.57793" lon="-3.03826">
        <ele>4.8</ele>
        <time>2024-05-07T13:53:49Z</time>
      </trkpt>
      <trkpt lat="47.57792" lon="-3.03826">
        <ele>4.8</ele>
        <time>2024-05-07T13:53:50Z</time>
      </trkpt>
      <trkpt lat="47.5779" lon="-3.03824">
        <ele>4.8</ele>
        <time>2024-05-07T13:53:51Z</time>
      </trkpt>
      <trkpt lat="47.57789" lon="-3.03823">
        <ele>4.6</ele>
        <time>2024-05-07T13:53:52Z</time>
      </trkpt>
      <trkpt lat="47.57787" lon="-3.03823">
        <ele>4.6</ele>
        <time>2024-05-07T13:53:53Z</time>
      </trkpt>
      <trkpt lat="47.57786" lon="-3.03822">
        <ele>4.6</ele>
        <time>2024-05-07T13:53:54Z</time>
      </trkpt>
      <trkpt lat="47.57784" lon="-3.03821">
        <ele>4.4</ele>
        <time>2024-05-07T13:53:55Z</time>
      </trkpt>
      <trkpt lat="47.57782" lon="-3.03821">
        <ele>4.4</ele>
        <time>2024-05-07T13:53:56Z</time>
      </trkpt>
      <trkpt lat="47.57781" lon="-3.03821">
        <ele>4.4</ele>
        <time>2024-05-07T13:53:57Z</time>
      </trkpt>
      <trkpt lat="47.5778" lon="-3.0382">
        <ele>4.4</ele>
        <time>2024-05-07T13:53:58Z</time>
      </trkpt>
      <trkpt lat="47.57779" lon="-3.0382">
        <ele>4.2</ele>
        <time>2024-05-07T13:53:59Z</time>
      </trkpt>
      <trkpt lat="47.57778" lon="-3.0382">
        <ele>4.2</ele>
        <time>2024-05-07T13:54:00Z</time>
      </trkpt>
      <trkpt lat="47.57777" lon="-3.0382">
        <ele>4.2</ele>
        <time>2024-05-07T13:54:01Z</time>
      </trkpt>
      <trkpt lat="47.57776" lon="-3.0382">
        <ele>4</ele>
        <time>2024-05-07T13:54:02Z</time>
      </trkpt>
      <trkpt lat="47.57775" lon="-3.03819">
        <ele>4</ele>
        <time>2024-05-07T13:54:03Z</time>
      </trkpt>
      <trkpt lat="47.57774" lon="-3.03819">
        <ele>3.8</ele>
        <time>2024-05-07T13:54:04Z</time>
      </trkpt>
      <trkpt lat="47.57773" lon="-3.03818">
        <ele>3.8</ele>
        <time>2024-05-07T13:54:05Z</time>
      </trkpt>
      <trkpt lat="47.5777" lon="-3.03817">
        <ele>3.8</ele>
        <time>2024-05-07T13:54:06Z</time>
      </trkpt>
      <trkpt lat="47.57767" lon="-3.03816">
        <ele>3.8</ele>
        <time>2024-05-07T13:54:07Z</time>
      </trkpt>
      <trkpt lat="47.57765" lon="-3.03815">
        <ele>3.6</ele>
        <time>2024-05-07T13:54:08Z</time>
      </trkpt>
      <trkpt lat="47.57764" lon="-3.03814">
        <ele>3.8</ele>
        <time>2024-05-07T13:54:09Z</time>
      </trkpt>
      <trkpt lat="47.57763" lon="-3.03815">
        <ele>3.8</ele>
        <time>2024-05-07T13:54:10Z</time>
      </trkpt>
      <trkpt lat="47.57761" lon="-3.03815">
        <ele>3.8</ele>
        <time>2024-05-07T13:54:11Z</time>
      </trkpt>
      <trkpt lat="47.57759" lon="-3.03815">
        <ele>3.8</ele>
        <time>2024-05-07T13:54:12Z</time>
      </trkpt>
      <trkpt lat="47.57758" lon="-3.03814">
        <ele>3.8</ele>
        <time>2024-05-07T13:54:13Z</time>
      </trkpt>
      <trkpt lat="47.57756" lon="-3.03814">
        <ele>3.8</ele>
        <time>2024-05-07T13:54:14Z</time>
      </trkpt>
      <trkpt lat="47.57755" lon="-3.03813">
        <ele>3.8</ele>
        <time>2024-05-07T13:54:15Z</time>
      </trkpt>
      <trkpt lat="47.57754" lon="-3.03812">
        <ele>3.8</ele>
        <time>2024-05-07T13:54:16Z</time>
      </trkpt>
      <trkpt lat="47.57752" lon="-3.03812">
        <ele>3.8</ele>
        <time>2024-05-07T13:54:17Z</time>
      </trkpt>
      <trkpt lat="47.57751" lon="-3.03812">
        <ele>3.8</ele>
        <time>2024-05-07T13:54:18Z</time>
      </trkpt>
      <trkpt lat="47.57749" lon="-3.03812">
        <ele>3.8</ele>
        <time>2024-05-07T13:54:19Z</time>
      </trkpt>
      <trkpt lat="47.57749" lon="-3.03812">
        <ele>3.8</ele>
        <time>2024-05-07T13:54:20Z</time>
      </trkpt>
      <trkpt lat="47.57747" lon="-3.03811">
        <ele>3.8</ele>
        <time>2024-05-07T13:54:21Z</time>
      </trkpt>
      <trkpt lat="47.57745" lon="-3.0381">
        <ele>3.8</ele>
        <time>2024-05-07T13:54:22Z</time>
      </trkpt>
      <trkpt lat="47.57744" lon="-3.03809">
        <ele>3.8</ele>
        <time>2024-05-07T13:54:23Z</time>
      </trkpt>
      <trkpt lat="47.57742" lon="-3.03809">
        <ele>4</ele>
        <time>2024-05-07T13:54:24Z</time>
      </trkpt>
      <trkpt lat="47.5774" lon="-3.0381">
        <ele>4</ele>
        <time>2024-05-07T13:54:25Z</time>
      </trkpt>
      <trkpt lat="47.57739" lon="-3.0381">
        <ele>4</ele>
        <time>2024-05-07T13:54:26Z</time>
      </trkpt>
      <trkpt lat="47.57737" lon="-3.03809">
        <ele>4</ele>
        <time>2024-05-07T13:54:27Z</time>
      </trkpt>
      <trkpt lat="47.57736" lon="-3.03809">
        <ele>4</ele>
        <time>2024-05-07T13:54:28Z</time>
      </trkpt>
      <trkpt lat="47.57734" lon="-3.03809">
        <ele>4.2</ele>
        <time>2024-05-07T13:54:29Z</time>
      </trkpt>
      <trkpt lat="47.57733" lon="-3.03809">
        <ele>4.2</ele>
        <time>2024-05-07T13:54:30Z</time>
      </trkpt>
      <trkpt lat="47.57731" lon="-3.03809">
        <ele>4.2</ele>
        <time>2024-05-07T13:54:31Z</time>
      </trkpt>
      <trkpt lat="47.5773" lon="-3.03809">
        <ele>4.4</ele>
        <time>2024-05-07T13:54:32Z</time>
      </trkpt>
      <trkpt lat="47.57729" lon="-3.0381">
        <ele>4.4</ele>
        <time>2024-05-07T13:54:33Z</time>
      </trkpt>
      <trkpt lat="47.57727" lon="-3.03811">
        <ele>4.4</ele>
        <time>2024-05-07T13:54:34Z</time>
      </trkpt>
      <trkpt lat="47.57727" lon="-3.03811">
        <ele>4.4</ele>
        <time>2024-05-07T13:54:35Z</time>
      </trkpt>
      <trkpt lat="47.57725" lon="-3.0381">
        <ele>4.4</ele>
        <time>2024-05-07T13:54:36Z</time>
      </trkpt>
      <trkpt lat="47.57724" lon="-3.03808">
        <ele>4.4</ele>
        <time>2024-05-07T13:54:37Z</time>
      </trkpt>
      <trkpt lat="47.57723" lon="-3.03808">
        <ele>4.4</ele>
        <time>2024-05-07T13:54:38Z</time>
      </trkpt>
      <trkpt lat="47.57722" lon="-3.03806">
        <ele>4.4</ele>
        <time>2024-05-07T13:54:39Z</time>
      </trkpt>
      <trkpt lat="47.57719" lon="-3.03805">
        <ele>4.2</ele>
        <time>2024-05-07T13:54:40Z</time>
      </trkpt>
      <trkpt lat="47.57717" lon="-3.03804">
        <ele>4.2</ele>
        <time>2024-05-07T13:54:41Z</time>
      </trkpt>
      <trkpt lat="47.57717" lon="-3.03803">
        <ele>4.2</ele>
        <time>2024-05-07T13:54:42Z</time>
      </trkpt>
      <trkpt lat="47.57718" lon="-3.03803">
        <ele>4</ele>
        <time>2024-05-07T13:54:43Z</time>
      </trkpt>
      <trkpt lat="47.57717" lon="-3.03803">
        <ele>4</ele>
        <time>2024-05-07T13:54:44Z</time>
      </trkpt>
      <trkpt lat="47.57716" lon="-3.03802">
        <ele>3.8</ele>
        <time>2024-05-07T13:54:45Z</time>
      </trkpt>
      <trkpt lat="47.57715" lon="-3.03802">
        <ele>3.8</ele>
        <time>2024-05-07T13:54:46Z</time>
      </trkpt>
      <trkpt lat="47.57715" lon="-3.03801">
        <ele>3.8</ele>
        <time>2024-05-07T13:54:47Z</time>
      </trkpt>
      <trkpt lat="47.57714" lon="-3.03801">
        <ele>3.6</ele>
        <time>2024-05-07T13:54:48Z</time>
      </trkpt>
      <trkpt lat="47.57712" lon="-3.038">
        <ele>3.6</ele>
        <time>2024-05-07T13:54:49Z</time>
      </trkpt>
      <trkpt lat="47.57711" lon="-3.038">
        <ele>3.6</ele>
        <time>2024-05-07T13:54:50Z</time>
      </trkpt>
      <trkpt lat="47.5771" lon="-3.038">
        <ele>3.6</ele>
        <time>2024-05-07T13:54:51Z</time>
      </trkpt>
      <trkpt lat="47.57709" lon="-3.038">
        <ele>3.6</ele>
        <time>2024-05-07T13:54:52Z</time>
      </trkpt>
      <trkpt lat="47.57707" lon="-3.03799">
        <ele>3.6</ele>
        <time>2024-05-07T13:54:53Z</time>
      </trkpt>
      <trkpt lat="47.57706" lon="-3.03798">
        <ele>3.6</ele>
        <time>2024-05-07T13:54:54Z</time>
      </trkpt>
      <trkpt lat="47.57704" lon="-3.03797">
        <ele>3.4</ele>
        <time>2024-05-07T13:54:55Z</time>
      </trkpt>
      <trkpt lat="47.57702" lon="-3.03796">
        <ele>3.4</ele>
        <time>2024-05-07T13:54:56Z</time>
      </trkpt>
      <trkpt lat="47.57701" lon="-3.03795">
        <ele>3.4</ele>
        <time>2024-05-07T13:54:57Z</time>
      </trkpt>
      <trkpt lat="47.577" lon="-3.03794">
        <ele>3.4</ele>
        <time>2024-05-07T13:54:58Z</time>
      </trkpt>
      <trkpt lat="47.577" lon="-3.03793">
        <ele>3.4</ele>
        <time>2024-05-07T13:54:59Z</time>
      </trkpt>
      <trkpt lat="47.577" lon="-3.03791">
        <ele>3.4</ele>
        <time>2024-05-07T13:55:00Z</time>
      </trkpt>
      <trkpt lat="47.577" lon="-3.0379">
        <ele>3.4</ele>
        <time>2024-05-07T13:55:01Z</time>
      </trkpt>
      <trkpt lat="47.57701" lon="-3.03788">
        <ele>3.4</ele>
        <time>2024-05-07T13:55:02Z</time>
      </trkpt>
      <trkpt lat="47.577" lon="-3.03787">
        <ele>3.4</ele>
        <time>2024-05-07T13:55:03Z</time>
      </trkpt>
      <trkpt lat="47.57698" lon="-3.03784">
        <ele>3.4</ele>
        <time>2024-05-07T13:55:04Z</time>
      </trkpt>
      <trkpt lat="47.57697" lon="-3.03782">
        <ele>3.4</ele>
        <time>2024-05-07T13:55:05Z</time>
      </trkpt>
      <trkpt lat="47.57697" lon="-3.03782">
        <ele>3.4</ele>
        <time>2024-05-07T13:55:06Z</time>
      </trkpt>
      <trkpt lat="47.57698" lon="-3.0378">
        <ele>3.4</ele>
        <time>2024-05-07T13:55:07Z</time>
      </trkpt>
      <trkpt lat="47.57699" lon="-3.03779">
        <ele>3.4</ele>
        <time>2024-05-07T13:55:08Z</time>
      </trkpt>
      <trkpt lat="47.57699" lon="-3.03777">
        <ele>3.4</ele>
        <time>2024-05-07T13:55:09Z</time>
      </trkpt>
      <trkpt lat="47.57698" lon="-3.03775">
        <ele>3.4</ele>
        <time>2024-05-07T13:55:10Z</time>
      </trkpt>
      <trkpt lat="47.57696" lon="-3.03774">
        <ele>3.4</ele>
        <time>2024-05-07T13:55:11Z</time>
      </trkpt>
      <trkpt lat="47.57696" lon="-3.03772">
        <ele>3.4</ele>
        <time>2024-05-07T13:55:12Z</time>
      </trkpt>
      <trkpt lat="47.57695" lon="-3.03771">
        <ele>3.4</ele>
        <time>2024-05-07T13:55:13Z</time>
      </trkpt>
      <trkpt lat="47.57695" lon="-3.03769">
        <ele>3.4</ele>
        <time>2024-05-07T13:55:14Z</time>
      </trkpt>
      <trkpt lat="47.57695" lon="-3.03767">
        <ele>3.2</ele>
        <time>2024-05-07T13:55:15Z</time>
      </trkpt>
      <trkpt lat="47.57696" lon="-3.03765">
        <ele>3.2</ele>
        <time>2024-05-07T13:55:16Z</time>
      </trkpt>
      <trkpt lat="47.57696" lon="-3.03763">
        <ele>3.2</ele>
        <time>2024-05-07T13:55:17Z</time>
      </trkpt>
      <trkpt lat="47.57697" lon="-3.03762">
        <ele>3.2</ele>
        <time>2024-05-07T13:55:18Z</time>
      </trkpt>
      <trkpt lat="47.57697" lon="-3.0376">
        <ele>3.2</ele>
        <time>2024-05-07T13:55:19Z</time>
      </trkpt>
      <trkpt lat="47.57697" lon="-3.03758">
        <ele>3.2</ele>
        <time>2024-05-07T13:55:20Z</time>
      </trkpt>
      <trkpt lat="47.57696" lon="-3.03756">
        <ele>3.2</ele>
        <time>2024-05-07T13:55:21Z</time>
      </trkpt>
      <trkpt lat="47.57695" lon="-3.03756">
        <ele>3.2</ele>
        <time>2024-05-07T13:55:22Z</time>
      </trkpt>
      <trkpt lat="47.57694" lon="-3.03755">
        <ele>3.2</ele>
        <time>2024-05-07T13:55:23Z</time>
      </trkpt>
      <trkpt lat="47.57692" lon="-3.03755">
        <ele>3.2</ele>
        <time>2024-05-07T13:55:24Z</time>
      </trkpt>
      <trkpt lat="47.57691" lon="-3.03755">
        <ele>3.2</ele>
        <time>2024-05-07T13:55:25Z</time>
      </trkpt>
      <trkpt lat="47.5769" lon="-3.03754">
        <ele>3.2</ele>
        <time>2024-05-07T13:55:26Z</time>
      </trkpt>
      <trkpt lat="47.5769" lon="-3.03753">
        <ele>3.2</ele>
        <time>2024-05-07T13:55:27Z</time>
      </trkpt>
      <trkpt lat="47.57689" lon="-3.03752">
        <ele>3.2</ele>
        <time>2024-05-07T13:55:28Z</time>
      </trkpt>
      <trkpt lat="47.57687" lon="-3.03751">
        <ele>3.2</ele>
        <time>2024-05-07T13:55:29Z</time>
      </trkpt>
      <trkpt lat="47.57686" lon="-3.03751">
        <ele>3.4</ele>
        <time>2024-05-07T13:55:30Z</time>
      </trkpt>
      <trkpt lat="47.57685" lon="-3.0375">
        <ele>3.2</ele>
        <time>2024-05-07T13:55:31Z</time>
      </trkpt>
      <trkpt lat="47.57684" lon="-3.03749">
        <ele>3.2</ele>
        <time>2024-05-07T13:55:32Z</time>
      </trkpt>
      <trkpt lat="47.57683" lon="-3.03746">
        <ele>3.2</ele>
        <time>2024-05-07T13:55:33Z</time>
      </trkpt>
      <trkpt lat="47.57684" lon="-3.03744">
        <ele>3.2</ele>
        <time>2024-05-07T13:55:34Z</time>
      </trkpt>
      <trkpt lat="47.57682" lon="-3.03743">
        <ele>3.2</ele>
        <time>2024-05-07T13:55:35Z</time>
      </trkpt>
      <trkpt lat="47.57681" lon="-3.03742">
        <ele>3.2</ele>
        <time>2024-05-07T13:55:36Z</time>
      </trkpt>
      <trkpt lat="47.57681" lon="-3.0374">
        <ele>3.2</ele>
        <time>2024-05-07T13:55:37Z</time>
      </trkpt>
      <trkpt lat="47.57683" lon="-3.03739">
        <ele>3.2</ele>
        <time>2024-05-07T13:55:38Z</time>
      </trkpt>
      <trkpt lat="47.57683" lon="-3.03739">
        <ele>3.2</ele>
        <time>2024-05-07T13:55:39Z</time>
      </trkpt>
      <trkpt lat="47.57681" lon="-3.03738">
        <ele>3.2</ele>
        <time>2024-05-07T13:55:40Z</time>
      </trkpt>
      <trkpt lat="47.57678" lon="-3.03737">
        <ele>3.2</ele>
        <time>2024-05-07T13:55:41Z</time>
      </trkpt>
      <trkpt lat="47.57674" lon="-3.03737">
        <ele>3.2</ele>
        <time>2024-05-07T13:55:42Z</time>
      </trkpt>
      <trkpt lat="47.57673" lon="-3.03736">
        <ele>3.2</ele>
        <time>2024-05-07T13:55:43Z</time>
      </trkpt>
      <trkpt lat="47.57672" lon="-3.03736">
        <ele>3.2</ele>
        <time>2024-05-07T13:55:44Z</time>
      </trkpt>
      <trkpt lat="47.57671" lon="-3.03736">
        <ele>3.2</ele>
        <time>2024-05-07T13:55:45Z</time>
      </trkpt>
      <trkpt lat="47.5767" lon="-3.03736">
        <ele>3.2</ele>
        <time>2024-05-07T13:55:46Z</time>
      </trkpt>
      <trkpt lat="47.57668" lon="-3.03735">
        <ele>3.2</ele>
        <time>2024-05-07T13:55:47Z</time>
      </trkpt>
      <trkpt lat="47.57668" lon="-3.03735">
        <ele>3.2</ele>
        <time>2024-05-07T13:55:48Z</time>
      </trkpt>
      <trkpt lat="47.57666" lon="-3.03735">
        <ele>3.2</ele>
        <time>2024-05-07T13:55:49Z</time>
      </trkpt>
      <trkpt lat="47.57665" lon="-3.03735">
        <ele>3.2</ele>
        <time>2024-05-07T13:55:50Z</time>
      </trkpt>
      <trkpt lat="47.57663" lon="-3.03735">
        <ele>3.4</ele>
        <time>2024-05-07T13:55:51Z</time>
      </trkpt>
      <trkpt lat="47.57661" lon="-3.03734">
        <ele>3.4</ele>
        <time>2024-05-07T13:55:52Z</time>
      </trkpt>
      <trkpt lat="47.57661" lon="-3.03734">
        <ele>3.4</ele>
        <time>2024-05-07T13:55:53Z</time>
      </trkpt>
      <trkpt lat="47.5766" lon="-3.03734">
        <ele>3.4</ele>
        <time>2024-05-07T13:55:54Z</time>
      </trkpt>
      <trkpt lat="47.5766" lon="-3.03734">
        <ele>3.4</ele>
        <time>2024-05-07T13:55:55Z</time>
      </trkpt>
      <trkpt lat="47.57658" lon="-3.03734">
        <ele>3.4</ele>
        <time>2024-05-07T13:55:56Z</time>
      </trkpt>
      <trkpt lat="47.57657" lon="-3.03734">
        <ele>3.4</ele>
        <time>2024-05-07T13:55:57Z</time>
      </trkpt>
      <trkpt lat="47.57656" lon="-3.03734">
        <ele>3.4</ele>
        <time>2024-05-07T13:55:58Z</time>
      </trkpt>
      <trkpt lat="47.57654" lon="-3.03733">
        <ele>3.4</ele>
        <time>2024-05-07T13:55:59Z</time>
      </trkpt>
      <trkpt lat="47.57652" lon="-3.03732">
        <ele>3.4</ele>
        <time>2024-05-07T13:56:00Z</time>
      </trkpt>
      <trkpt lat="47.57651" lon="-3.0373">
        <ele>3.6</ele>
        <time>2024-05-07T13:56:01Z</time>
      </trkpt>
      <trkpt lat="47.5765" lon="-3.03729">
        <ele>3.6</ele>
        <time>2024-05-07T13:56:02Z</time>
      </trkpt>
      <trkpt lat="47.57649" lon="-3.03728">
        <ele>3.6</ele>
        <time>2024-05-07T13:56:03Z</time>
      </trkpt>
      <trkpt lat="47.57647" lon="-3.03727">
        <ele>3.6</ele>
        <time>2024-05-07T13:56:04Z</time>
      </trkpt>
      <trkpt lat="47.57645" lon="-3.03725">
        <ele>3.6</ele>
        <time>2024-05-07T13:56:05Z</time>
      </trkpt>
      <trkpt lat="47.57644" lon="-3.03724">
        <ele>3.8</ele>
        <time>2024-05-07T13:56:06Z</time>
      </trkpt>
      <trkpt lat="47.57643" lon="-3.03722">
        <ele>3.8</ele>
        <time>2024-05-07T13:56:07Z</time>
      </trkpt>
      <trkpt lat="47.57642" lon="-3.03719">
        <ele>3.8</ele>
        <time>2024-05-07T13:56:08Z</time>
      </trkpt>
      <trkpt lat="47.57641" lon="-3.03717">
        <ele>3.8</ele>
        <time>2024-05-07T13:56:09Z</time>
      </trkpt>
      <trkpt lat="47.5764" lon="-3.03716">
        <ele>3.8</ele>
        <time>2024-05-07T13:56:10Z</time>
      </trkpt>
      <trkpt lat="47.57639" lon="-3.03714">
        <ele>3.8</ele>
        <time>2024-05-07T13:56:11Z</time>
      </trkpt>
      <trkpt lat="47.57638" lon="-3.03712">
        <ele>3.8</ele>
        <time>2024-05-07T13:56:12Z</time>
      </trkpt>
      <trkpt lat="47.57639" lon="-3.03709">
        <ele>3.6</ele>
        <time>2024-05-07T13:56:13Z</time>
      </trkpt>
      <trkpt lat="47.57639" lon="-3.03706">
        <ele>3.6</ele>
        <time>2024-05-07T13:56:14Z</time>
      </trkpt>
      <trkpt lat="47.57638" lon="-3.03703">
        <ele>3.6</ele>
        <time>2024-05-07T13:56:15Z</time>
      </trkpt>
      <trkpt lat="47.57637" lon="-3.03701">
        <ele>3.6</ele>
        <time>2024-05-07T13:56:16Z</time>
      </trkpt>
      <trkpt lat="47.57635" lon="-3.037">
        <ele>3.8</ele>
        <time>2024-05-07T13:56:17Z</time>
      </trkpt>
      <trkpt lat="47.57634" lon="-3.03697">
        <ele>3.8</ele>
        <time>2024-05-07T13:56:18Z</time>
      </trkpt>
      <trkpt lat="47.57634" lon="-3.03696">
        <ele>3.8</ele>
        <time>2024-05-07T13:56:19Z</time>
      </trkpt>
      <trkpt lat="47.57634" lon="-3.03694">
        <ele>3.8</ele>
        <time>2024-05-07T13:56:20Z</time>
      </trkpt>
      <trkpt lat="47.57633" lon="-3.03692">
        <ele>3.8</ele>
        <time>2024-05-07T13:56:21Z</time>
      </trkpt>
      <trkpt lat="47.57633" lon="-3.03691">
        <ele>3.8</ele>
        <time>2024-05-07T13:56:22Z</time>
      </trkpt>
      <trkpt lat="47.57633" lon="-3.03689">
        <ele>4</ele>
        <time>2024-05-07T13:56:23Z</time>
      </trkpt>
      <trkpt lat="47.57632" lon="-3.03688">
        <ele>4</ele>
        <time>2024-05-07T13:56:24Z</time>
      </trkpt>
      <trkpt lat="47.57632" lon="-3.03686">
        <ele>4</ele>
        <time>2024-05-07T13:56:25Z</time>
      </trkpt>
      <trkpt lat="47.57631" lon="-3.03685">
        <ele>4</ele>
        <time>2024-05-07T13:56:26Z</time>
      </trkpt>
      <trkpt lat="47.57631" lon="-3.03683">
        <ele>4</ele>
        <time>2024-05-07T13:56:27Z</time>
      </trkpt>
      <trkpt lat="47.5763" lon="-3.03682">
        <ele>4</ele>
        <time>2024-05-07T13:56:28Z</time>
      </trkpt>
      <trkpt lat="47.5763" lon="-3.03681">
        <ele>4</ele>
        <time>2024-05-07T13:56:29Z</time>
      </trkpt>
      <trkpt lat="47.57629" lon="-3.03679">
        <ele>4</ele>
        <time>2024-05-07T13:56:30Z</time>
      </trkpt>
      <trkpt lat="47.57629" lon="-3.03678">
        <ele>4</ele>
        <time>2024-05-07T13:56:31Z</time>
      </trkpt>
      <trkpt lat="47.57628" lon="-3.03676">
        <ele>4</ele>
        <time>2024-05-07T13:56:32Z</time>
      </trkpt>
      <trkpt lat="47.57628" lon="-3.03674">
        <ele>4</ele>
        <time>2024-05-07T13:56:33Z</time>
      </trkpt>
      <trkpt lat="47.57628" lon="-3.03672">
        <ele>4.2</ele>
        <time>2024-05-07T13:56:34Z</time>
      </trkpt>
      <trkpt lat="47.57627" lon="-3.03671">
        <ele>4.2</ele>
        <time>2024-05-07T13:56:35Z</time>
      </trkpt>
      <trkpt lat="47.57627" lon="-3.0367">
        <ele>4.2</ele>
        <time>2024-05-07T13:56:36Z</time>
      </trkpt>
      <trkpt lat="47.57627" lon="-3.03669">
        <ele>4.2</ele>
        <time>2024-05-07T13:56:37Z</time>
      </trkpt>
      <trkpt lat="47.57626" lon="-3.03668">
        <ele>4.2</ele>
        <time>2024-05-07T13:56:38Z</time>
      </trkpt>
      <trkpt lat="47.57625" lon="-3.03667">
        <ele>4.4</ele>
        <time>2024-05-07T13:56:39Z</time>
      </trkpt>
      <trkpt lat="47.57624" lon="-3.03665">
        <ele>4.4</ele>
        <time>2024-05-07T13:56:40Z</time>
      </trkpt>
      <trkpt lat="47.57623" lon="-3.03664">
        <ele>4.4</ele>
        <time>2024-05-07T13:56:41Z</time>
      </trkpt>
      <trkpt lat="47.57622" lon="-3.03662">
        <ele>4.4</ele>
        <time>2024-05-07T13:56:42Z</time>
      </trkpt>
      <trkpt lat="47.57621" lon="-3.03659">
        <ele>4.4</ele>
        <time>2024-05-07T13:56:43Z</time>
      </trkpt>
      <trkpt lat="47.5762" lon="-3.03658">
        <ele>4.4</ele>
        <time>2024-05-07T13:56:44Z</time>
      </trkpt>
      <trkpt lat="47.57619" lon="-3.03656">
        <ele>4.2</ele>
        <time>2024-05-07T13:56:45Z</time>
      </trkpt>
      <trkpt lat="47.57619" lon="-3.03653">
        <ele>4.2</ele>
        <time>2024-05-07T13:56:46Z</time>
      </trkpt>
      <trkpt lat="47.57618" lon="-3.03652">
        <ele>4.2</ele>
        <time>2024-05-07T13:56:47Z</time>
      </trkpt>
      <trkpt lat="47.57617" lon="-3.03651">
        <ele>4</ele>
        <time>2024-05-07T13:56:48Z</time>
      </trkpt>
      <trkpt lat="47.57616" lon="-3.03651">
        <ele>4</ele>
        <time>2024-05-07T13:56:49Z</time>
      </trkpt>
      <trkpt lat="47.57615" lon="-3.03649">
        <ele>4</ele>
        <time>2024-05-07T13:56:50Z</time>
      </trkpt>
      <trkpt lat="47.57614" lon="-3.03647">
        <ele>3.8</ele>
        <time>2024-05-07T13:56:51Z</time>
      </trkpt>
      <trkpt lat="47.57614" lon="-3.03645">
        <ele>3.8</ele>
        <time>2024-05-07T13:56:52Z</time>
      </trkpt>
      <trkpt lat="47.57613" lon="-3.03644">
        <ele>3.8</ele>
        <time>2024-05-07T13:56:53Z</time>
      </trkpt>
      <trkpt lat="47.57613" lon="-3.03643">
        <ele>3.6</ele>
        <time>2024-05-07T13:56:54Z</time>
      </trkpt>
      <trkpt lat="47.57611" lon="-3.03642">
        <ele>3.6</ele>
        <time>2024-05-07T13:56:55Z</time>
      </trkpt>
      <trkpt lat="47.5761" lon="-3.0364">
        <ele>3.6</ele>
        <time>2024-05-07T13:56:56Z</time>
      </trkpt>
      <trkpt lat="47.5761" lon="-3.03639">
        <ele>3.4</ele>
        <time>2024-05-07T13:56:57Z</time>
      </trkpt>
      <trkpt lat="47.57609" lon="-3.03638">
        <ele>3.4</ele>
        <time>2024-05-07T13:56:58Z</time>
      </trkpt>
      <trkpt lat="47.57609" lon="-3.03636">
        <ele>3.4</ele>
        <time>2024-05-07T13:56:59Z</time>
      </trkpt>
      <trkpt lat="47.57609" lon="-3.03634">
        <ele>3.4</ele>
        <time>2024-05-07T13:57:00Z</time>
      </trkpt>
      <trkpt lat="47.57608" lon="-3.03632">
        <ele>3.4</ele>
        <time>2024-05-07T13:57:01Z</time>
      </trkpt>
      <trkpt lat="47.57607" lon="-3.03631">
        <ele>3.4</ele>
        <time>2024-05-07T13:57:02Z</time>
      </trkpt>
      <trkpt lat="47.57606" lon="-3.0363">
        <ele>3.4</ele>
        <time>2024-05-07T13:57:03Z</time>
      </trkpt>
      <trkpt lat="47.57606" lon="-3.03628">
        <ele>3.4</ele>
        <time>2024-05-07T13:57:04Z</time>
      </trkpt>
      <trkpt lat="47.57606" lon="-3.03626">
        <ele>3.4</ele>
        <time>2024-05-07T13:57:05Z</time>
      </trkpt>
      <trkpt lat="47.57607" lon="-3.03625">
        <ele>3.4</ele>
        <time>2024-05-07T13:57:06Z</time>
      </trkpt>
      <trkpt lat="47.57608" lon="-3.03623">
        <ele>3.4</ele>
        <time>2024-05-07T13:57:07Z</time>
      </trkpt>
      <trkpt lat="47.57607" lon="-3.03621">
        <ele>3.6</ele>
        <time>2024-05-07T13:57:08Z</time>
      </trkpt>
      <trkpt lat="47.57606" lon="-3.03618">
        <ele>3.6</ele>
        <time>2024-05-07T13:57:09Z</time>
      </trkpt>
      <trkpt lat="47.57605" lon="-3.03617">
        <ele>3.6</ele>
        <time>2024-05-07T13:57:10Z</time>
      </trkpt>
      <trkpt lat="47.57605" lon="-3.03615">
        <ele>3.6</ele>
        <time>2024-05-07T13:57:11Z</time>
      </trkpt>
      <trkpt lat="47.57606" lon="-3.03614">
        <ele>3.6</ele>
        <time>2024-05-07T13:57:12Z</time>
      </trkpt>
      <trkpt lat="47.57606" lon="-3.03614">
        <ele>3.6</ele>
        <time>2024-05-07T13:57:13Z</time>
      </trkpt>
      <trkpt lat="47.57606" lon="-3.03613">
        <ele>3.6</ele>
        <time>2024-05-07T13:57:14Z</time>
      </trkpt>
      <trkpt lat="47.57606" lon="-3.03613">
        <ele>3.6</ele>
        <time>2024-05-07T13:57:15Z</time>
      </trkpt>
      <trkpt lat="47.57605" lon="-3.03614">
        <ele>3.6</ele>
        <time>2024-05-07T13:57:16Z</time>
      </trkpt>
      <trkpt lat="47.57605" lon="-3.03614">
        <ele>3.6</ele>
        <time>2024-05-07T13:57:17Z</time>
      </trkpt>
      <trkpt lat="47.57605" lon="-3.03613">
        <ele>3.6</ele>
        <time>2024-05-07T13:57:18Z</time>
      </trkpt>
      <trkpt lat="47.57604" lon="-3.03612">
        <ele>3.6</ele>
        <time>2024-05-07T13:57:19Z</time>
      </trkpt>
      <trkpt lat="47.57604" lon="-3.03612">
        <ele>3.6</ele>
        <time>2024-05-07T13:57:20Z</time>
      </trkpt>
      <trkpt lat="47.57604" lon="-3.03612">
        <ele>3.4</ele>
        <time>2024-05-07T13:57:21Z</time>
      </trkpt>
      <trkpt lat="47.57604" lon="-3.0361">
        <ele>3.4</ele>
        <time>2024-05-07T13:57:22Z</time>
      </trkpt>
      <trkpt lat="47.57603" lon="-3.03609">
        <ele>3.4</ele>
        <time>2024-05-07T13:57:23Z</time>
      </trkpt>
      <trkpt lat="47.57603" lon="-3.03607">
        <ele>3.4</ele>
        <time>2024-05-07T13:57:24Z</time>
      </trkpt>
      <trkpt lat="47.57603" lon="-3.03606">
        <ele>3.4</ele>
        <time>2024-05-07T13:57:25Z</time>
      </trkpt>
      <trkpt lat="47.57602" lon="-3.03604">
        <ele>3.4</ele>
        <time>2024-05-07T13:57:26Z</time>
      </trkpt>
      <trkpt lat="47.57602" lon="-3.03603">
        <ele>3.4</ele>
        <time>2024-05-07T13:57:27Z</time>
      </trkpt>
      <trkpt lat="47.57602" lon="-3.03602">
        <ele>3.4</ele>
        <time>2024-05-07T13:57:28Z</time>
      </trkpt>
      <trkpt lat="47.57602" lon="-3.03601">
        <ele>3.2</ele>
        <time>2024-05-07T13:57:29Z</time>
      </trkpt>
      <trkpt lat="47.57602" lon="-3.036">
        <ele>3.2</ele>
        <time>2024-05-07T13:57:30Z</time>
      </trkpt>
      <trkpt lat="47.57603" lon="-3.03598">
        <ele>3.2</ele>
        <time>2024-05-07T13:57:31Z</time>
      </trkpt>
      <trkpt lat="47.57603" lon="-3.03595">
        <ele>3.4</ele>
        <time>2024-05-07T13:57:32Z</time>
      </trkpt>
      <trkpt lat="47.57603" lon="-3.03594">
        <ele>3.4</ele>
        <time>2024-05-07T13:57:33Z</time>
      </trkpt>
      <trkpt lat="47.57603" lon="-3.03592">
        <ele>3.6</ele>
        <time>2024-05-07T13:57:34Z</time>
      </trkpt>
      <trkpt lat="47.57603" lon="-3.03591">
        <ele>3.6</ele>
        <time>2024-05-07T13:57:35Z</time>
      </trkpt>
      <trkpt lat="47.57604" lon="-3.03589">
        <ele>3.6</ele>
        <time>2024-05-07T13:57:36Z</time>
      </trkpt>
      <trkpt lat="47.57605" lon="-3.03588">
        <ele>3.6</ele>
        <time>2024-05-07T13:57:37Z</time>
      </trkpt>
      <trkpt lat="47.57606" lon="-3.03587">
        <ele>3.8</ele>
        <time>2024-05-07T13:57:38Z</time>
      </trkpt>
      <trkpt lat="47.57605" lon="-3.03586">
        <ele>4</ele>
        <time>2024-05-07T13:57:39Z</time>
      </trkpt>
      <trkpt lat="47.57605" lon="-3.03584">
        <ele>4</ele>
        <time>2024-05-07T13:57:40Z</time>
      </trkpt>
      <trkpt lat="47.57605" lon="-3.03582">
        <ele>4</ele>
        <time>2024-05-07T13:57:41Z</time>
      </trkpt>
      <trkpt lat="47.57605" lon="-3.0358">
        <ele>4</ele>
        <time>2024-05-07T13:57:42Z</time>
      </trkpt>
      <trkpt lat="47.57604" lon="-3.03579">
        <ele>4.2</ele>
        <time>2024-05-07T13:57:43Z</time>
      </trkpt>
      <trkpt lat="47.57604" lon="-3.03578">
        <ele>4.2</ele>
        <time>2024-05-07T13:57:44Z</time>
      </trkpt>
      <trkpt lat="47.57604" lon="-3.03577">
        <ele>4.2</ele>
        <time>2024-05-07T13:57:45Z</time>
      </trkpt>
      <trkpt lat="47.57604" lon="-3.03575">
        <ele>4.2</ele>
        <time>2024-05-07T13:57:46Z</time>
      </trkpt>
      <trkpt lat="47.57604" lon="-3.03573">
        <ele>4.4</ele>
        <time>2024-05-07T13:57:47Z</time>
      </trkpt>
      <trkpt lat="47.57604" lon="-3.03572">
        <ele>4.4</ele>
        <time>2024-05-07T13:57:48Z</time>
      </trkpt>
      <trkpt lat="47.57605" lon="-3.03571">
        <ele>4.4</ele>
        <time>2024-05-07T13:57:49Z</time>
      </trkpt>
      <trkpt lat="47.57606" lon="-3.03568">
        <ele>4.6</ele>
        <time>2024-05-07T13:57:50Z</time>
      </trkpt>
      <trkpt lat="47.57606" lon="-3.03567">
        <ele>4.6</ele>
        <time>2024-05-07T13:57:51Z</time>
      </trkpt>
      <trkpt lat="47.57605" lon="-3.03566">
        <ele>4.8</ele>
        <time>2024-05-07T13:57:52Z</time>
      </trkpt>
      <trkpt lat="47.57606" lon="-3.03564">
        <ele>4.8</ele>
        <time>2024-05-07T13:57:53Z</time>
      </trkpt>
      <trkpt lat="47.57606" lon="-3.03562">
        <ele>4.8</ele>
        <time>2024-05-07T13:57:54Z</time>
      </trkpt>
      <trkpt lat="47.57607" lon="-3.0356">
        <ele>4.6</ele>
        <time>2024-05-07T13:57:55Z</time>
      </trkpt>
      <trkpt lat="47.57608" lon="-3.03559">
        <ele>4.6</ele>
        <time>2024-05-07T13:57:56Z</time>
      </trkpt>
      <trkpt lat="47.57609" lon="-3.03558">
        <ele>4.4</ele>
        <time>2024-05-07T13:57:57Z</time>
      </trkpt>
      <trkpt lat="47.5761" lon="-3.03556">
        <ele>4.4</ele>
        <time>2024-05-07T13:57:58Z</time>
      </trkpt>
      <trkpt lat="47.5761" lon="-3.03555">
        <ele>4.4</ele>
        <time>2024-05-07T13:57:59Z</time>
      </trkpt>
      <trkpt lat="47.5761" lon="-3.03553">
        <ele>4.4</ele>
        <time>2024-05-07T13:58:00Z</time>
      </trkpt>
      <trkpt lat="47.5761" lon="-3.0355">
        <ele>4.4</ele>
        <time>2024-05-07T13:58:01Z</time>
      </trkpt>
      <trkpt lat="47.5761" lon="-3.03548">
        <ele>4.4</ele>
        <time>2024-05-07T13:58:02Z</time>
      </trkpt>
      <trkpt lat="47.57611" lon="-3.03547">
        <ele>4.2</ele>
        <time>2024-05-07T13:58:03Z</time>
      </trkpt>
      <trkpt lat="47.57612" lon="-3.03545">
        <ele>4.2</ele>
        <time>2024-05-07T13:58:04Z</time>
      </trkpt>
      <trkpt lat="47.57613" lon="-3.03544">
        <ele>4.2</ele>
        <time>2024-05-07T13:58:05Z</time>
      </trkpt>
      <trkpt lat="47.57613" lon="-3.03542">
        <ele>4</ele>
        <time>2024-05-07T13:58:06Z</time>
      </trkpt>
      <trkpt lat="47.57614" lon="-3.0354">
        <ele>4</ele>
        <time>2024-05-07T13:58:07Z</time>
      </trkpt>
      <trkpt lat="47.57614" lon="-3.03538">
        <ele>4</ele>
        <time>2024-05-07T13:58:08Z</time>
      </trkpt>
      <trkpt lat="47.57615" lon="-3.03536">
        <ele>4</ele>
        <time>2024-05-07T13:58:09Z</time>
      </trkpt>
      <trkpt lat="47.57615" lon="-3.03534">
        <ele>4</ele>
        <time>2024-05-07T13:58:10Z</time>
      </trkpt>
      <trkpt lat="47.57616" lon="-3.03532">
        <ele>3.8</ele>
        <time>2024-05-07T13:58:11Z</time>
      </trkpt>
      <trkpt lat="47.57616" lon="-3.0353">
        <ele>3.8</ele>
        <time>2024-05-07T13:58:12Z</time>
      </trkpt>
      <trkpt lat="47.57617" lon="-3.03528">
        <ele>3.8</ele>
        <time>2024-05-07T13:58:13Z</time>
      </trkpt>
      <trkpt lat="47.57618" lon="-3.03526">
        <ele>3.8</ele>
        <time>2024-05-07T13:58:14Z</time>
      </trkpt>
      <trkpt lat="47.57618" lon="-3.03525">
        <ele>3.8</ele>
        <time>2024-05-07T13:58:15Z</time>
      </trkpt>
      <trkpt lat="47.57618" lon="-3.03523">
        <ele>3.6</ele>
        <time>2024-05-07T13:58:16Z</time>
      </trkpt>
      <trkpt lat="47.57619" lon="-3.03522">
        <ele>3.6</ele>
        <time>2024-05-07T13:58:17Z</time>
      </trkpt>
      <trkpt lat="47.5762" lon="-3.0352">
        <ele>3.6</ele>
        <time>2024-05-07T13:58:18Z</time>
      </trkpt>
      <trkpt lat="47.57621" lon="-3.03517">
        <ele>3.4</ele>
        <time>2024-05-07T13:58:19Z</time>
      </trkpt>
      <trkpt lat="47.57622" lon="-3.03515">
        <ele>3.4</ele>
        <time>2024-05-07T13:58:20Z</time>
      </trkpt>
      <trkpt lat="47.57623" lon="-3.03512">
        <ele>3.2</ele>
        <time>2024-05-07T13:58:21Z</time>
      </trkpt>
      <trkpt lat="47.57623" lon="-3.03511">
        <ele>3.2</ele>
        <time>2024-05-07T13:58:22Z</time>
      </trkpt>
      <trkpt lat="47.57623" lon="-3.03509">
        <ele>3.2</ele>
        <time>2024-05-07T13:58:23Z</time>
      </trkpt>
      <trkpt lat="47.57624" lon="-3.03508">
        <ele>3.2</ele>
        <time>2024-05-07T13:58:24Z</time>
      </trkpt>
      <trkpt lat="47.57623" lon="-3.03507">
        <ele>3.2</ele>
        <time>2024-05-07T13:58:25Z</time>
      </trkpt>
      <trkpt lat="47.57623" lon="-3.03505">
        <ele>3</ele>
        <time>2024-05-07T13:58:26Z</time>
      </trkpt>
      <trkpt lat="47.57622" lon="-3.03504">
        <ele>3</ele>
        <time>2024-05-07T13:58:27Z</time>
      </trkpt>
      <trkpt lat="47.57621" lon="-3.03503">
        <ele>3</ele>
        <time>2024-05-07T13:58:28Z</time>
      </trkpt>
      <trkpt lat="47.5762" lon="-3.03504">
        <ele>3</ele>
        <time>2024-05-07T13:58:29Z</time>
      </trkpt>
      <trkpt lat="47.57619" lon="-3.03504">
        <ele>3</ele>
        <time>2024-05-07T13:58:30Z</time>
      </trkpt>
      <trkpt lat="47.57619" lon="-3.03505">
        <ele>3</ele>
        <time>2024-05-07T13:58:31Z</time>
      </trkpt>
      <trkpt lat="47.57617" lon="-3.03506">
        <ele>3.2</ele>
        <time>2024-05-07T13:58:32Z</time>
      </trkpt>
      <trkpt lat="47.57617" lon="-3.03507">
        <ele>3.2</ele>
        <time>2024-05-07T13:58:33Z</time>
      </trkpt>
      <trkpt lat="47.57616" lon="-3.03509">
        <ele>3.2</ele>
        <time>2024-05-07T13:58:34Z</time>
      </trkpt>
      <trkpt lat="47.57616" lon="-3.03509">
        <ele>3.2</ele>
        <time>2024-05-07T13:58:35Z</time>
      </trkpt>
      <trkpt lat="47.57615" lon="-3.0351">
        <ele>3.2</ele>
        <time>2024-05-07T13:58:36Z</time>
      </trkpt>
      <trkpt lat="47.57614" lon="-3.0351">
        <ele>3.2</ele>
        <time>2024-05-07T13:58:37Z</time>
      </trkpt>
      <trkpt lat="47.57613" lon="-3.03511">
        <ele>3.2</ele>
        <time>2024-05-07T13:58:38Z</time>
      </trkpt>
      <trkpt lat="47.57612" lon="-3.03511">
        <ele>3.2</ele>
        <time>2024-05-07T13:58:39Z</time>
      </trkpt>
      <trkpt lat="47.57611" lon="-3.03511">
        <ele>3.2</ele>
        <time>2024-05-07T13:58:40Z</time>
      </trkpt>
      <trkpt lat="47.57609" lon="-3.03511">
        <ele>3.4</ele>
        <time>2024-05-07T13:58:41Z</time>
      </trkpt>
      <trkpt lat="47.57608" lon="-3.03511">
        <ele>3.6</ele>
        <time>2024-05-07T13:58:42Z</time>
      </trkpt>
      <trkpt lat="47.57608" lon="-3.03511">
        <ele>3.8</ele>
        <time>2024-05-07T13:58:43Z</time>
      </trkpt>
      <trkpt lat="47.57607" lon="-3.03512">
        <ele>3.8</ele>
        <time>2024-05-07T13:58:44Z</time>
      </trkpt>
      <trkpt lat="47.57605" lon="-3.03511">
        <ele>4</ele>
        <time>2024-05-07T13:58:45Z</time>
      </trkpt>
      <trkpt lat="47.57604" lon="-3.03511">
        <ele>4.2</ele>
        <time>2024-05-07T13:58:46Z</time>
      </trkpt>
      <trkpt lat="47.57603" lon="-3.0351">
        <ele>4.4</ele>
        <time>2024-05-07T13:58:47Z</time>
      </trkpt>
      <trkpt lat="47.57601" lon="-3.0351">
        <ele>4.4</ele>
        <time>2024-05-07T13:58:48Z</time>
      </trkpt>
      <trkpt lat="47.576" lon="-3.03509">
        <ele>4.6</ele>
        <time>2024-05-07T13:58:49Z</time>
      </trkpt>
      <trkpt lat="47.57599" lon="-3.03509">
        <ele>4.6</ele>
        <time>2024-05-07T13:58:50Z</time>
      </trkpt>
      <trkpt lat="47.57598" lon="-3.03508">
        <ele>4.8</ele>
        <time>2024-05-07T13:58:51Z</time>
      </trkpt>
      <trkpt lat="47.57596" lon="-3.03507">
        <ele>4.8</ele>
        <time>2024-05-07T13:58:52Z</time>
      </trkpt>
      <trkpt lat="47.57596" lon="-3.03506">
        <ele>5</ele>
        <time>2024-05-07T13:58:53Z</time>
      </trkpt>
      <trkpt lat="47.57594" lon="-3.03505">
        <ele>5</ele>
        <time>2024-05-07T13:58:54Z</time>
      </trkpt>
      <trkpt lat="47.57594" lon="-3.03506">
        <ele>5</ele>
        <time>2024-05-07T13:58:55Z</time>
      </trkpt>
      <trkpt lat="47.57592" lon="-3.03505">
        <ele>5.2</ele>
        <time>2024-05-07T13:58:56Z</time>
      </trkpt>
      <trkpt lat="47.57592" lon="-3.03505">
        <ele>5.2</ele>
        <time>2024-05-07T13:58:57Z</time>
      </trkpt>
      <trkpt lat="47.57591" lon="-3.03505">
        <ele>5.2</ele>
        <time>2024-05-07T13:58:58Z</time>
      </trkpt>
      <trkpt lat="47.5759" lon="-3.03505">
        <ele>5.2</ele>
        <time>2024-05-07T13:58:59Z</time>
      </trkpt>
      <trkpt lat="47.57589" lon="-3.03505">
        <ele>5.2</ele>
        <time>2024-05-07T13:59:00Z</time>
      </trkpt>
      <trkpt lat="47.57589" lon="-3.03505">
        <ele>5.2</ele>
        <time>2024-05-07T13:59:01Z</time>
      </trkpt>
      <trkpt lat="47.57587" lon="-3.03505">
        <ele>5</ele>
        <time>2024-05-07T13:59:02Z</time>
      </trkpt>
      <trkpt lat="47.57586" lon="-3.03504">
        <ele>5</ele>
        <time>2024-05-07T13:59:03Z</time>
      </trkpt>
      <trkpt lat="47.57586" lon="-3.03504">
        <ele>5</ele>
        <time>2024-05-07T13:59:04Z</time>
      </trkpt>
      <trkpt lat="47.57585" lon="-3.03504">
        <ele>4.8</ele>
        <time>2024-05-07T13:59:05Z</time>
      </trkpt>
      <trkpt lat="47.57584" lon="-3.03504">
        <ele>4.6</ele>
        <time>2024-05-07T13:59:06Z</time>
      </trkpt>
      <trkpt lat="47.57583" lon="-3.03503">
        <ele>4.6</ele>
        <time>2024-05-07T13:59:07Z</time>
      </trkpt>
      <trkpt lat="47.57582" lon="-3.03503">
        <ele>4.2</ele>
        <time>2024-05-07T13:59:08Z</time>
      </trkpt>
      <trkpt lat="47.5758" lon="-3.03502">
        <ele>4</ele>
        <time>2024-05-07T13:59:09Z</time>
      </trkpt>
      <trkpt lat="47.57578" lon="-3.03502">
        <ele>4</ele>
        <time>2024-05-07T13:59:10Z</time>
      </trkpt>
      <trkpt lat="47.57577" lon="-3.03502">
        <ele>3.8</ele>
        <time>2024-05-07T13:59:11Z</time>
      </trkpt>
      <trkpt lat="47.57577" lon="-3.03502">
        <ele>3.6</ele>
        <time>2024-05-07T13:59:12Z</time>
      </trkpt>
      <trkpt lat="47.57576" lon="-3.03502">
        <ele>3.4</ele>
        <time>2024-05-07T13:59:13Z</time>
      </trkpt>
      <trkpt lat="47.57575" lon="-3.03501">
        <ele>3.2</ele>
        <time>2024-05-07T13:59:14Z</time>
      </trkpt>
      <trkpt lat="47.57574" lon="-3.03499">
        <ele>3</ele>
        <time>2024-05-07T13:59:15Z</time>
      </trkpt>
      <trkpt lat="47.57573" lon="-3.03497">
        <ele>2.8</ele>
        <time>2024-05-07T13:59:16Z</time>
      </trkpt>
      <trkpt lat="47.57573" lon="-3.03495">
        <ele>2.8</ele>
        <time>2024-05-07T13:59:17Z</time>
      </trkpt>
      <trkpt lat="47.57573" lon="-3.03493">
        <ele>2.8</ele>
        <time>2024-05-07T13:59:18Z</time>
      </trkpt>
      <trkpt lat="47.57573" lon="-3.03491">
        <ele>2.6</ele>
        <time>2024-05-07T13:59:19Z</time>
      </trkpt>
      <trkpt lat="47.57574" lon="-3.0349">
        <ele>2.6</ele>
        <time>2024-05-07T13:59:20Z</time>
      </trkpt>
      <trkpt lat="47.57575" lon="-3.03489">
        <ele>2.8</ele>
        <time>2024-05-07T13:59:21Z</time>
      </trkpt>
      <trkpt lat="47.57577" lon="-3.03488">
        <ele>2.8</ele>
        <time>2024-05-07T13:59:22Z</time>
      </trkpt>
      <trkpt lat="47.57578" lon="-3.03487">
        <ele>2.8</ele>
        <time>2024-05-07T13:59:23Z</time>
      </trkpt>
      <trkpt lat="47.57579" lon="-3.03486">
        <ele>2.8</ele>
        <time>2024-05-07T13:59:24Z</time>
      </trkpt>
      <trkpt lat="47.57579" lon="-3.03485">
        <ele>2.8</ele>
        <time>2024-05-07T13:59:25Z</time>
      </trkpt>
      <trkpt lat="47.57579" lon="-3.03485">
        <ele>2.8</ele>
        <time>2024-05-07T13:59:26Z</time>
      </trkpt>
      <trkpt lat="47.57578" lon="-3.03486">
        <ele>2.8</ele>
        <time>2024-05-07T13:59:27Z</time>
      </trkpt>
      <trkpt lat="47.57578" lon="-3.03486">
        <ele>2.8</ele>
        <time>2024-05-07T13:59:28Z</time>
      </trkpt>
      <trkpt lat="47.57578" lon="-3.03487">
        <ele>2.8</ele>
        <time>2024-05-07T13:59:29Z</time>
      </trkpt>
      <trkpt lat="47.57576" lon="-3.03489">
        <ele>2.8</ele>
        <time>2024-05-07T13:59:30Z</time>
      </trkpt>
      <trkpt lat="47.57575" lon="-3.03489">
        <ele>2.6</ele>
        <time>2024-05-07T13:59:31Z</time>
      </trkpt>
      <trkpt lat="47.57574" lon="-3.0349">
        <ele>2.6</ele>
        <time>2024-05-07T13:59:32Z</time>
      </trkpt>
      <trkpt lat="47.57573" lon="-3.03491">
        <ele>2.6</ele>
        <time>2024-05-07T13:59:33Z</time>
      </trkpt>
      <trkpt lat="47.57572" lon="-3.03492">
        <ele>2.6</ele>
        <time>2024-05-07T13:59:34Z</time>
      </trkpt>
      <trkpt lat="47.57571" lon="-3.03493">
        <ele>2.6</ele>
        <time>2024-05-07T13:59:35Z</time>
      </trkpt>
      <trkpt lat="47.5757" lon="-3.03494">
        <ele>2.6</ele>
        <time>2024-05-07T13:59:36Z</time>
      </trkpt>
      <trkpt lat="47.57569" lon="-3.03495">
        <ele>2.6</ele>
        <time>2024-05-07T13:59:37Z</time>
      </trkpt>
      <trkpt lat="47.57568" lon="-3.03496">
        <ele>2.6</ele>
        <time>2024-05-07T13:59:38Z</time>
      </trkpt>
      <trkpt lat="47.57568" lon="-3.03497">
        <ele>2.4</ele>
        <time>2024-05-07T13:59:39Z</time>
      </trkpt>
      <trkpt lat="47.57567" lon="-3.03498">
        <ele>2.4</ele>
        <time>2024-05-07T13:59:40Z</time>
      </trkpt>
      <trkpt lat="47.57567" lon="-3.035">
        <ele>2.4</ele>
        <time>2024-05-07T13:59:41Z</time>
      </trkpt>
      <trkpt lat="47.57567" lon="-3.03501">
        <ele>2.4</ele>
        <time>2024-05-07T13:59:42Z</time>
      </trkpt>
      <trkpt lat="47.57567" lon="-3.03502">
        <ele>2.6</ele>
        <time>2024-05-07T13:59:43Z</time>
      </trkpt>
      <trkpt lat="47.57566" lon="-3.03503">
        <ele>2.6</ele>
        <time>2024-05-07T13:59:44Z</time>
      </trkpt>
      <trkpt lat="47.57566" lon="-3.03505">
        <ele>2.6</ele>
        <time>2024-05-07T13:59:45Z</time>
      </trkpt>
      <trkpt lat="47.57566" lon="-3.03506">
        <ele>2.6</ele>
        <time>2024-05-07T13:59:46Z</time>
      </trkpt>
      <trkpt lat="47.57565" lon="-3.03506">
        <ele>2.6</ele>
        <time>2024-05-07T13:59:47Z</time>
      </trkpt>
      <trkpt lat="47.57564" lon="-3.03507">
        <ele>2.6</ele>
        <time>2024-05-07T13:59:48Z</time>
      </trkpt>
      <trkpt lat="47.57562" lon="-3.03508">
        <ele>2.6</ele>
        <time>2024-05-07T13:59:49Z</time>
      </trkpt>
      <trkpt lat="47.57561" lon="-3.0351">
        <ele>2.6</ele>
        <time>2024-05-07T13:59:50Z</time>
      </trkpt>
      <trkpt lat="47.5756" lon="-3.03511">
        <ele>2.6</ele>
        <time>2024-05-07T13:59:51Z</time>
      </trkpt>
      <trkpt lat="47.5756" lon="-3.03513">
        <ele>2.8</ele>
        <time>2024-05-07T13:59:52Z</time>
      </trkpt>
      <trkpt lat="47.57559" lon="-3.03513">
        <ele>2.8</ele>
        <time>2024-05-07T13:59:53Z</time>
      </trkpt>
      <trkpt lat="47.57559" lon="-3.03514">
        <ele>2.8</ele>
        <time>2024-05-07T13:59:54Z</time>
      </trkpt>
      <trkpt lat="47.57558" lon="-3.03515">
        <ele>2.6</ele>
        <time>2024-05-07T13:59:55Z</time>
      </trkpt>
      <trkpt lat="47.57558" lon="-3.03516">
        <ele>2.6</ele>
        <time>2024-05-07T13:59:56Z</time>
      </trkpt>
      <trkpt lat="47.57558" lon="-3.03516">
        <ele>2.6</ele>
        <time>2024-05-07T13:59:57Z</time>
      </trkpt>
      <trkpt lat="47.57557" lon="-3.03517">
        <ele>2.6</ele>
        <time>2024-05-07T13:59:58Z</time>
      </trkpt>
      <trkpt lat="47.57556" lon="-3.03518">
        <ele>2.6</ele>
        <time>2024-05-07T13:59:59Z</time>
      </trkpt>
      <trkpt lat="47.57556" lon="-3.03519">
        <ele>2.6</ele>
        <time>2024-05-07T14:00:00Z</time>
      </trkpt>
      <trkpt lat="47.57555" lon="-3.03521">
        <ele>2.6</ele>
        <time>2024-05-07T14:00:01Z</time>
      </trkpt>
      <trkpt lat="47.57554" lon="-3.03523">
        <ele>2.6</ele>
        <time>2024-05-07T14:00:02Z</time>
      </trkpt>
      <trkpt lat="47.57552" lon="-3.03524">
        <ele>2.4</ele>
        <time>2024-05-07T14:00:03Z</time>
      </trkpt>
      <trkpt lat="47.57551" lon="-3.03526">
        <ele>2.4</ele>
        <time>2024-05-07T14:00:04Z</time>
      </trkpt>
      <trkpt lat="47.57549" lon="-3.03528">
        <ele>2.4</ele>
        <time>2024-05-07T14:00:05Z</time>
      </trkpt>
      <trkpt lat="47.57548" lon="-3.03528">
        <ele>2.4</ele>
        <time>2024-05-07T14:00:06Z</time>
      </trkpt>
      <trkpt lat="47.57546" lon="-3.03529">
        <ele>2.4</ele>
        <time>2024-05-07T14:00:07Z</time>
      </trkpt>
      <trkpt lat="47.57545" lon="-3.03529">
        <ele>2.4</ele>
        <time>2024-05-07T14:00:08Z</time>
      </trkpt>
      <trkpt lat="47.57544" lon="-3.03529">
        <ele>2.4</ele>
        <time>2024-05-07T14:00:09Z</time>
      </trkpt>
      <trkpt lat="47.57542" lon="-3.03529">
        <ele>2.4</ele>
        <time>2024-05-07T14:00:10Z</time>
      </trkpt>
      <trkpt lat="47.57539" lon="-3.0353">
        <ele>2.4</ele>
        <time>2024-05-07T14:00:11Z</time>
      </trkpt>
      <trkpt lat="47.57535" lon="-3.03531">
        <ele>2.4</ele>
        <time>2024-05-07T14:00:12Z</time>
      </trkpt>
      <trkpt lat="47.57531" lon="-3.03532">
        <ele>2.4</ele>
        <time>2024-05-07T14:00:13Z</time>
      </trkpt>
      <trkpt lat="47.5753" lon="-3.03533">
        <ele>2.4</ele>
        <time>2024-05-07T14:00:14Z</time>
      </trkpt>
      <trkpt lat="47.57529" lon="-3.03535">
        <ele>2.4</ele>
        <time>2024-05-07T14:00:15Z</time>
      </trkpt>
      <trkpt lat="47.57528" lon="-3.03536">
        <ele>2.4</ele>
        <time>2024-05-07T14:00:16Z</time>
      </trkpt>
      <trkpt lat="47.57527" lon="-3.03538">
        <ele>2.4</ele>
        <time>2024-05-07T14:00:17Z</time>
      </trkpt>
      <trkpt lat="47.57526" lon="-3.0354">
        <ele>2.4</ele>
        <time>2024-05-07T14:00:18Z</time>
      </trkpt>
      <trkpt lat="47.57527" lon="-3.03542">
        <ele>2.6</ele>
        <time>2024-05-07T14:00:19Z</time>
      </trkpt>
      <trkpt lat="47.57526" lon="-3.03543">
        <ele>2.4</ele>
        <time>2024-05-07T14:00:20Z</time>
      </trkpt>
      <trkpt lat="47.57526" lon="-3.03545">
        <ele>2.4</ele>
        <time>2024-05-07T14:00:21Z</time>
      </trkpt>
      <trkpt lat="47.57525" lon="-3.03547">
        <ele>2.4</ele>
        <time>2024-05-07T14:00:22Z</time>
      </trkpt>
      <trkpt lat="47.57524" lon="-3.03548">
        <ele>2.4</ele>
        <time>2024-05-07T14:00:23Z</time>
      </trkpt>
      <trkpt lat="47.57524" lon="-3.0355">
        <ele>2.4</ele>
        <time>2024-05-07T14:00:24Z</time>
      </trkpt>
      <trkpt lat="47.57523" lon="-3.03551">
        <ele>2.4</ele>
        <time>2024-05-07T14:00:25Z</time>
      </trkpt>
      <trkpt lat="47.57523" lon="-3.03553">
        <ele>2.4</ele>
        <time>2024-05-07T14:00:26Z</time>
      </trkpt>
      <trkpt lat="47.57522" lon="-3.03554">
        <ele>2.4</ele>
        <time>2024-05-07T14:00:27Z</time>
      </trkpt>
      <trkpt lat="47.57522" lon="-3.03555">
        <ele>2.4</ele>
        <time>2024-05-07T14:00:28Z</time>
      </trkpt>
      <trkpt lat="47.57522" lon="-3.03556">
        <ele>2.4</ele>
        <time>2024-05-07T14:00:29Z</time>
      </trkpt>
      <trkpt lat="47.57522" lon="-3.03558">
        <ele>2.4</ele>
        <time>2024-05-07T14:00:30Z</time>
      </trkpt>
      <trkpt lat="47.57521" lon="-3.03559">
        <ele>2.6</ele>
        <time>2024-05-07T14:00:31Z</time>
      </trkpt>
      <trkpt lat="47.5752" lon="-3.03561">
        <ele>2.6</ele>
        <time>2024-05-07T14:00:32Z</time>
      </trkpt>
      <trkpt lat="47.57519" lon="-3.03561">
        <ele>2.8</ele>
        <time>2024-05-07T14:00:33Z</time>
      </trkpt>
      <trkpt lat="47.57518" lon="-3.03561">
        <ele>3.2</ele>
        <time>2024-05-07T14:00:34Z</time>
      </trkpt>
      <trkpt lat="47.57517" lon="-3.03561">
        <ele>3.4</ele>
        <time>2024-05-07T14:00:35Z</time>
      </trkpt>
      <trkpt lat="47.57516" lon="-3.03561">
        <ele>3.4</ele>
        <time>2024-05-07T14:00:36Z</time>
      </trkpt>
      <trkpt lat="47.57516" lon="-3.03561">
        <ele>3.6</ele>
        <time>2024-05-07T14:00:37Z</time>
      </trkpt>
      <trkpt lat="47.57515" lon="-3.0356">
        <ele>3.6</ele>
        <time>2024-05-07T14:00:38Z</time>
      </trkpt>
      <trkpt lat="47.57515" lon="-3.03561">
        <ele>3.8</ele>
        <time>2024-05-07T14:00:39Z</time>
      </trkpt>
      <trkpt lat="47.57514" lon="-3.03562">
        <ele>3.8</ele>
        <time>2024-05-07T14:00:40Z</time>
      </trkpt>
      <trkpt lat="47.57513" lon="-3.03563">
        <ele>3.8</ele>
        <time>2024-05-07T14:00:41Z</time>
      </trkpt>
      <trkpt lat="47.57512" lon="-3.03562">
        <ele>3.8</ele>
        <time>2024-05-07T14:00:42Z</time>
      </trkpt>
      <trkpt lat="47.57511" lon="-3.03562">
        <ele>3.8</ele>
        <time>2024-05-07T14:00:43Z</time>
      </trkpt>
      <trkpt lat="47.5751" lon="-3.03561">
        <ele>4</ele>
        <time>2024-05-07T14:00:44Z</time>
      </trkpt>
      <trkpt lat="47.5751" lon="-3.03559">
        <ele>4</ele>
        <time>2024-05-07T14:00:45Z</time>
      </trkpt>
      <trkpt lat="47.5751" lon="-3.03556">
        <ele>4</ele>
        <time>2024-05-07T14:00:46Z</time>
      </trkpt>
      <trkpt lat="47.57509" lon="-3.03554">
        <ele>4</ele>
        <time>2024-05-07T14:00:47Z</time>
      </trkpt>
      <trkpt lat="47.5751" lon="-3.03549">
        <ele>4</ele>
        <time>2024-05-07T14:00:48Z</time>
      </trkpt>
      <trkpt lat="47.5751" lon="-3.03548">
        <ele>4</ele>
        <time>2024-05-07T14:00:49Z</time>
      </trkpt>
      <trkpt lat="47.5751" lon="-3.03547">
        <ele>4</ele>
        <time>2024-05-07T14:00:50Z</time>
      </trkpt>
      <trkpt lat="47.5751" lon="-3.03545">
        <ele>3.6</ele>
        <time>2024-05-07T14:00:51Z</time>
      </trkpt>
      <trkpt lat="47.57509" lon="-3.03542">
        <ele>3.6</ele>
        <time>2024-05-07T14:00:52Z</time>
      </trkpt>
      <trkpt lat="47.5751" lon="-3.0354">
        <ele>3.6</ele>
        <time>2024-05-07T14:00:53Z</time>
      </trkpt>
      <trkpt lat="47.57509" lon="-3.03538">
        <ele>3.6</ele>
        <time>2024-05-07T14:00:54Z</time>
      </trkpt>
      <trkpt lat="47.57509" lon="-3.03536">
        <ele>3.6</ele>
        <time>2024-05-07T14:00:55Z</time>
      </trkpt>
      <trkpt lat="47.57509" lon="-3.03535">
        <ele>3.6</ele>
        <time>2024-05-07T14:00:56Z</time>
      </trkpt>
      <trkpt lat="47.57509" lon="-3.03533">
        <ele>3.6</ele>
        <time>2024-05-07T14:00:57Z</time>
      </trkpt>
      <trkpt lat="47.57509" lon="-3.03531">
        <ele>3.6</ele>
        <time>2024-05-07T14:00:58Z</time>
      </trkpt>
      <trkpt lat="47.57509" lon="-3.03529">
        <ele>3.6</ele>
        <time>2024-05-07T14:00:59Z</time>
      </trkpt>
      <trkpt lat="47.5751" lon="-3.03527">
        <ele>3.6</ele>
        <time>2024-05-07T14:01:00Z</time>
      </trkpt>
      <trkpt lat="47.57509" lon="-3.03525">
        <ele>3.4</ele>
        <time>2024-05-07T14:01:01Z</time>
      </trkpt>
      <trkpt lat="47.57509" lon="-3.03523">
        <ele>3.4</ele>
        <time>2024-05-07T14:01:02Z</time>
      </trkpt>
      <trkpt lat="47.5751" lon="-3.0352">
        <ele>3.4</ele>
        <time>2024-05-07T14:01:03Z</time>
      </trkpt>
      <trkpt lat="47.57511" lon="-3.03518">
        <ele>3.4</ele>
        <time>2024-05-07T14:01:04Z</time>
      </trkpt>
      <trkpt lat="47.57511" lon="-3.03515">
        <ele>3.4</ele>
        <time>2024-05-07T14:01:05Z</time>
      </trkpt>
      <trkpt lat="47.57511" lon="-3.03513">
        <ele>3.4</ele>
        <time>2024-05-07T14:01:06Z</time>
      </trkpt>
      <trkpt lat="47.57511" lon="-3.0351">
        <ele>3.4</ele>
        <time>2024-05-07T14:01:07Z</time>
      </trkpt>
      <trkpt lat="47.57511" lon="-3.03508">
        <ele>3.4</ele>
        <time>2024-05-07T14:01:08Z</time>
      </trkpt>
      <trkpt lat="47.57511" lon="-3.03506">
        <ele>3.4</ele>
        <time>2024-05-07T14:01:09Z</time>
      </trkpt>
      <trkpt lat="47.57511" lon="-3.03505">
        <ele>3.4</ele>
        <time>2024-05-07T14:01:10Z</time>
      </trkpt>
      <trkpt lat="47.57511" lon="-3.03503">
        <ele>3.4</ele>
        <time>2024-05-07T14:01:11Z</time>
      </trkpt>
      <trkpt lat="47.57511" lon="-3.03502">
        <ele>3.4</ele>
        <time>2024-05-07T14:01:12Z</time>
      </trkpt>
      <trkpt lat="47.57511" lon="-3.035">
        <ele>3.4</ele>
        <time>2024-05-07T14:01:13Z</time>
      </trkpt>
      <trkpt lat="47.57512" lon="-3.03498">
        <ele>3.4</ele>
        <time>2024-05-07T14:01:14Z</time>
      </trkpt>
      <trkpt lat="47.57512" lon="-3.03497">
        <ele>3.4</ele>
        <time>2024-05-07T14:01:15Z</time>
      </trkpt>
      <trkpt lat="47.57512" lon="-3.03495">
        <ele>3.4</ele>
        <time>2024-05-07T14:01:16Z</time>
      </trkpt>
      <trkpt lat="47.57513" lon="-3.03493">
        <ele>3.4</ele>
        <time>2024-05-07T14:01:17Z</time>
      </trkpt>
      <trkpt lat="47.57513" lon="-3.03491">
        <ele>3.4</ele>
        <time>2024-05-07T14:01:18Z</time>
      </trkpt>
      <trkpt lat="47.57513" lon="-3.03489">
        <ele>3.4</ele>
        <time>2024-05-07T14:01:19Z</time>
      </trkpt>
      <trkpt lat="47.57513" lon="-3.03487">
        <ele>3.4</ele>
        <time>2024-05-07T14:01:20Z</time>
      </trkpt>
      <trkpt lat="47.57513" lon="-3.03485">
        <ele>3.4</ele>
        <time>2024-05-07T14:01:21Z</time>
      </trkpt>
      <trkpt lat="47.57514" lon="-3.03482">
        <ele>3.4</ele>
        <time>2024-05-07T14:01:22Z</time>
      </trkpt>
      <trkpt lat="47.57514" lon="-3.03481">
        <ele>3.4</ele>
        <time>2024-05-07T14:01:23Z</time>
      </trkpt>
      <trkpt lat="47.57514" lon="-3.03478">
        <ele>3.4</ele>
        <time>2024-05-07T14:01:24Z</time>
      </trkpt>
      <trkpt lat="47.57514" lon="-3.03477">
        <ele>3.4</ele>
        <time>2024-05-07T14:01:25Z</time>
      </trkpt>
      <trkpt lat="47.57514" lon="-3.03475">
        <ele>3.4</ele>
        <time>2024-05-07T14:01:26Z</time>
      </trkpt>
      <trkpt lat="47.57514" lon="-3.03473">
        <ele>3.4</ele>
        <time>2024-05-07T14:01:27Z</time>
      </trkpt>
      <trkpt lat="47.57514" lon="-3.0347">
        <ele>3.4</ele>
        <time>2024-05-07T14:01:28Z</time>
      </trkpt>
      <trkpt lat="47.57515" lon="-3.03469">
        <ele>3.4</ele>
        <time>2024-05-07T14:01:29Z</time>
      </trkpt>
      <trkpt lat="47.57515" lon="-3.03467">
        <ele>3.4</ele>
        <time>2024-05-07T14:01:30Z</time>
      </trkpt>
      <trkpt lat="47.57515" lon="-3.03466">
        <ele>3.4</ele>
        <time>2024-05-07T14:01:31Z</time>
      </trkpt>
      <trkpt lat="47.57516" lon="-3.03464">
        <ele>3.4</ele>
        <time>2024-05-07T14:01:32Z</time>
      </trkpt>
      <trkpt lat="47.57516" lon="-3.03462">
        <ele>3.4</ele>
        <time>2024-05-07T14:01:33Z</time>
      </trkpt>
      <trkpt lat="47.57516" lon="-3.0346">
        <ele>3.4</ele>
        <time>2024-05-07T14:01:34Z</time>
      </trkpt>
      <trkpt lat="47.57516" lon="-3.03459">
        <ele>3.6</ele>
        <time>2024-05-07T14:01:35Z</time>
      </trkpt>
      <trkpt lat="47.57517" lon="-3.03457">
        <ele>3.6</ele>
        <time>2024-05-07T14:01:36Z</time>
      </trkpt>
      <trkpt lat="47.57517" lon="-3.03455">
        <ele>3.6</ele>
        <time>2024-05-07T14:01:37Z</time>
      </trkpt>
      <trkpt lat="47.57517" lon="-3.03454">
        <ele>3.6</ele>
        <time>2024-05-07T14:01:38Z</time>
      </trkpt>
      <trkpt lat="47.57517" lon="-3.03453">
        <ele>3.6</ele>
        <time>2024-05-07T14:01:39Z</time>
      </trkpt>
      <trkpt lat="47.57517" lon="-3.03452">
        <ele>3.6</ele>
        <time>2024-05-07T14:01:40Z</time>
      </trkpt>
      <trkpt lat="47.57517" lon="-3.03452">
        <ele>3.6</ele>
        <time>2024-05-07T14:01:41Z</time>
      </trkpt>
      <trkpt lat="47.57517" lon="-3.03452">
        <ele>3.6</ele>
        <time>2024-05-07T14:01:42Z</time>
      </trkpt>
      <trkpt lat="47.57517" lon="-3.03453">
        <ele>3.6</ele>
        <time>2024-05-07T14:01:43Z</time>
      </trkpt>
      <trkpt lat="47.57517" lon="-3.03453">
        <ele>3.6</ele>
        <time>2024-05-07T14:01:44Z</time>
      </trkpt>
      <trkpt lat="47.57517" lon="-3.03453">
        <ele>3.6</ele>
        <time>2024-05-07T14:01:45Z</time>
      </trkpt>
      <trkpt lat="47.57517" lon="-3.03453">
        <ele>3.4</ele>
        <time>2024-05-07T14:01:46Z</time>
      </trkpt>
      <trkpt lat="47.57517" lon="-3.03452">
        <ele>3.4</ele>
        <time>2024-05-07T14:01:47Z</time>
      </trkpt>
      <trkpt lat="47.57517" lon="-3.03451">
        <ele>3.2</ele>
        <time>2024-05-07T14:01:48Z</time>
      </trkpt>
      <trkpt lat="47.57517" lon="-3.03449">
        <ele>3.2</ele>
        <time>2024-05-07T14:01:49Z</time>
      </trkpt>
      <trkpt lat="47.57518" lon="-3.03447">
        <ele>3.2</ele>
        <time>2024-05-07T14:01:50Z</time>
      </trkpt>
      <trkpt lat="47.57518" lon="-3.03445">
        <ele>3</ele>
        <time>2024-05-07T14:01:51Z</time>
      </trkpt>
      <trkpt lat="47.57517" lon="-3.03444">
        <ele>3</ele>
        <time>2024-05-07T14:01:52Z</time>
      </trkpt>
      <trkpt lat="47.57517" lon="-3.03441">
        <ele>3</ele>
        <time>2024-05-07T14:01:53Z</time>
      </trkpt>
      <trkpt lat="47.57518" lon="-3.0344">
        <ele>3</ele>
        <time>2024-05-07T14:01:54Z</time>
      </trkpt>
      <trkpt lat="47.57518" lon="-3.03439">
        <ele>2.8</ele>
        <time>2024-05-07T14:01:55Z</time>
      </trkpt>
      <trkpt lat="47.57518" lon="-3.03437">
        <ele>2.8</ele>
        <time>2024-05-07T14:01:56Z</time>
      </trkpt>
      <trkpt lat="47.57519" lon="-3.03435">
        <ele>2.8</ele>
        <time>2024-05-07T14:01:57Z</time>
      </trkpt>
      <trkpt lat="47.57519" lon="-3.03433">
        <ele>2.6</ele>
        <time>2024-05-07T14:01:58Z</time>
      </trkpt>
      <trkpt lat="47.57519" lon="-3.03431">
        <ele>2.6</ele>
        <time>2024-05-07T14:01:59Z</time>
      </trkpt>
      <trkpt lat="47.5752" lon="-3.0343">
        <ele>2.6</ele>
        <time>2024-05-07T14:02:00Z</time>
      </trkpt>
      <trkpt lat="47.5752" lon="-3.03428">
        <ele>2.6</ele>
        <time>2024-05-07T14:02:01Z</time>
      </trkpt>
      <trkpt lat="47.5752" lon="-3.03425">
        <ele>2.4</ele>
        <time>2024-05-07T14:02:02Z</time>
      </trkpt>
      <trkpt lat="47.57519" lon="-3.03422">
        <ele>2.4</ele>
        <time>2024-05-07T14:02:03Z</time>
      </trkpt>
      <trkpt lat="47.57519" lon="-3.0342">
        <ele>2.4</ele>
        <time>2024-05-07T14:02:04Z</time>
      </trkpt>
      <trkpt lat="47.57519" lon="-3.03418">
        <ele>2.4</ele>
        <time>2024-05-07T14:02:05Z</time>
      </trkpt>
      <trkpt lat="47.57519" lon="-3.03416">
        <ele>2.4</ele>
        <time>2024-05-07T14:02:06Z</time>
      </trkpt>
      <trkpt lat="47.57519" lon="-3.03414">
        <ele>2.4</ele>
        <time>2024-05-07T14:02:07Z</time>
      </trkpt>
      <trkpt lat="47.5752" lon="-3.03411">
        <ele>2.4</ele>
        <time>2024-05-07T14:02:08Z</time>
      </trkpt>
      <trkpt lat="47.5752" lon="-3.03409">
        <ele>2.4</ele>
        <time>2024-05-07T14:02:09Z</time>
      </trkpt>
      <trkpt lat="47.5752" lon="-3.03408">
        <ele>2.4</ele>
        <time>2024-05-07T14:02:10Z</time>
      </trkpt>
      <trkpt lat="47.5752" lon="-3.03405">
        <ele>2.4</ele>
        <time>2024-05-07T14:02:11Z</time>
      </trkpt>
      <trkpt lat="47.5752" lon="-3.03404">
        <ele>2.4</ele>
        <time>2024-05-07T14:02:12Z</time>
      </trkpt>
      <trkpt lat="47.57521" lon="-3.03402">
        <ele>2.4</ele>
        <time>2024-05-07T14:02:13Z</time>
      </trkpt>
      <trkpt lat="47.57521" lon="-3.034">
        <ele>2.4</ele>
        <time>2024-05-07T14:02:14Z</time>
      </trkpt>
      <trkpt lat="47.57521" lon="-3.03398">
        <ele>2.4</ele>
        <time>2024-05-07T14:02:15Z</time>
      </trkpt>
      <trkpt lat="47.57521" lon="-3.03396">
        <ele>2.4</ele>
        <time>2024-05-07T14:02:16Z</time>
      </trkpt>
      <trkpt lat="47.57521" lon="-3.03393">
        <ele>2.4</ele>
        <time>2024-05-07T14:02:17Z</time>
      </trkpt>
      <trkpt lat="47.57521" lon="-3.03391">
        <ele>2.4</ele>
        <time>2024-05-07T14:02:18Z</time>
      </trkpt>
      <trkpt lat="47.57521" lon="-3.0339">
        <ele>2.4</ele>
        <time>2024-05-07T14:02:19Z</time>
      </trkpt>
      <trkpt lat="47.5752" lon="-3.03388">
        <ele>2.2</ele>
        <time>2024-05-07T14:02:20Z</time>
      </trkpt>
      <trkpt lat="47.57519" lon="-3.03386">
        <ele>2.2</ele>
        <time>2024-05-07T14:02:21Z</time>
      </trkpt>
      <trkpt lat="47.57518" lon="-3.03385">
        <ele>2.2</ele>
        <time>2024-05-07T14:02:22Z</time>
      </trkpt>
      <trkpt lat="47.57517" lon="-3.03383">
        <ele>2.2</ele>
        <time>2024-05-07T14:02:23Z</time>
      </trkpt>
      <trkpt lat="47.57515" lon="-3.03382">
        <ele>2</ele>
        <time>2024-05-07T14:02:24Z</time>
      </trkpt>
      <trkpt lat="47.57514" lon="-3.03382">
        <ele>2</ele>
        <time>2024-05-07T14:02:25Z</time>
      </trkpt>
      <trkpt lat="47.57512" lon="-3.03381">
        <ele>1.8</ele>
        <time>2024-05-07T14:02:26Z</time>
      </trkpt>
      <trkpt lat="47.57511" lon="-3.03381">
        <ele>1.8</ele>
        <time>2024-05-07T14:02:27Z</time>
      </trkpt>
      <trkpt lat="47.5751" lon="-3.0338">
        <ele>1.8</ele>
        <time>2024-05-07T14:02:28Z</time>
      </trkpt>
      <trkpt lat="47.57509" lon="-3.0338">
        <ele>1.8</ele>
        <time>2024-05-07T14:02:29Z</time>
      </trkpt>
      <trkpt lat="47.57507" lon="-3.0338">
        <ele>1.8</ele>
        <time>2024-05-07T14:02:30Z</time>
      </trkpt>
      <trkpt lat="47.57506" lon="-3.03379">
        <ele>1.8</ele>
        <time>2024-05-07T14:02:31Z</time>
      </trkpt>
      <trkpt lat="47.57504" lon="-3.03379">
        <ele>1.6</ele>
        <time>2024-05-07T14:02:32Z</time>
      </trkpt>
      <trkpt lat="47.57504" lon="-3.03379">
        <ele>1.6</ele>
        <time>2024-05-07T14:02:33Z</time>
      </trkpt>
      <trkpt lat="47.57502" lon="-3.03379">
        <ele>1.6</ele>
        <time>2024-05-07T14:02:34Z</time>
      </trkpt>
      <trkpt lat="47.57501" lon="-3.0338">
        <ele>1.6</ele>
        <time>2024-05-07T14:02:35Z</time>
      </trkpt>
      <trkpt lat="47.575" lon="-3.0338">
        <ele>1.6</ele>
        <time>2024-05-07T14:02:36Z</time>
      </trkpt>
      <trkpt lat="47.57499" lon="-3.03381">
        <ele>1.6</ele>
        <time>2024-05-07T14:02:37Z</time>
      </trkpt>
      <trkpt lat="47.57497" lon="-3.03381">
        <ele>1.8</ele>
        <time>2024-05-07T14:02:38Z</time>
      </trkpt>
      <trkpt lat="47.57496" lon="-3.03381">
        <ele>1.8</ele>
        <time>2024-05-07T14:02:39Z</time>
      </trkpt>
      <trkpt lat="47.57495" lon="-3.0338">
        <ele>1.8</ele>
        <time>2024-05-07T14:02:40Z</time>
      </trkpt>
      <trkpt lat="47.57494" lon="-3.0338">
        <ele>2</ele>
        <time>2024-05-07T14:02:41Z</time>
      </trkpt>
      <trkpt lat="47.57493" lon="-3.03379">
        <ele>2</ele>
        <time>2024-05-07T14:02:42Z</time>
      </trkpt>
      <trkpt lat="47.57492" lon="-3.03379">
        <ele>2.2</ele>
        <time>2024-05-07T14:02:43Z</time>
      </trkpt>
      <trkpt lat="47.5749" lon="-3.03379">
        <ele>2.4</ele>
        <time>2024-05-07T14:02:44Z</time>
      </trkpt>
      <trkpt lat="47.57489" lon="-3.03378">
        <ele>2.4</ele>
        <time>2024-05-07T14:02:45Z</time>
      </trkpt>
      <trkpt lat="47.57488" lon="-3.03379">
        <ele>2.4</ele>
        <time>2024-05-07T14:02:46Z</time>
      </trkpt>
      <trkpt lat="47.57486" lon="-3.03379">
        <ele>2.4</ele>
        <time>2024-05-07T14:02:47Z</time>
      </trkpt>
      <trkpt lat="47.57484" lon="-3.03378">
        <ele>2.4</ele>
        <time>2024-05-07T14:02:48Z</time>
      </trkpt>
      <trkpt lat="47.57482" lon="-3.03378">
        <ele>2.4</ele>
        <time>2024-05-07T14:02:49Z</time>
      </trkpt>
      <trkpt lat="47.57481" lon="-3.03379">
        <ele>2.4</ele>
        <time>2024-05-07T14:02:50Z</time>
      </trkpt>
      <trkpt lat="47.5748" lon="-3.03379">
        <ele>2.4</ele>
        <time>2024-05-07T14:02:51Z</time>
      </trkpt>
      <trkpt lat="47.57479" lon="-3.03379">
        <ele>2.4</ele>
        <time>2024-05-07T14:02:52Z</time>
      </trkpt>
      <trkpt lat="47.57479" lon="-3.0338">
        <ele>2.4</ele>
        <time>2024-05-07T14:02:53Z</time>
      </trkpt>
      <trkpt lat="47.57478" lon="-3.03379">
        <ele>2.4</ele>
        <time>2024-05-07T14:02:54Z</time>
      </trkpt>
      <trkpt lat="47.57476" lon="-3.03378">
        <ele>2.4</ele>
        <time>2024-05-07T14:02:55Z</time>
      </trkpt>
      <trkpt lat="47.57474" lon="-3.03377">
        <ele>2.4</ele>
        <time>2024-05-07T14:02:56Z</time>
      </trkpt>
      <trkpt lat="47.57473" lon="-3.03376">
        <ele>2.4</ele>
        <time>2024-05-07T14:02:57Z</time>
      </trkpt>
      <trkpt lat="47.57471" lon="-3.03375">
        <ele>2.4</ele>
        <time>2024-05-07T14:02:58Z</time>
      </trkpt>
      <trkpt lat="47.5747" lon="-3.03375">
        <ele>2.4</ele>
        <time>2024-05-07T14:02:59Z</time>
      </trkpt>
      <trkpt lat="47.57468" lon="-3.03374">
        <ele>2.4</ele>
        <time>2024-05-07T14:03:00Z</time>
      </trkpt>
      <trkpt lat="47.57465" lon="-3.03374">
        <ele>2.4</ele>
        <time>2024-05-07T14:03:01Z</time>
      </trkpt>
      <trkpt lat="47.57464" lon="-3.03375">
        <ele>2.4</ele>
        <time>2024-05-07T14:03:02Z</time>
      </trkpt>
      <trkpt lat="47.57462" lon="-3.03375">
        <ele>2.4</ele>
        <time>2024-05-07T14:03:03Z</time>
      </trkpt>
      <trkpt lat="47.57461" lon="-3.03376">
        <ele>2.4</ele>
        <time>2024-05-07T14:03:04Z</time>
      </trkpt>
      <trkpt lat="47.57459" lon="-3.03375">
        <ele>2.6</ele>
        <time>2024-05-07T14:03:05Z</time>
      </trkpt>
      <trkpt lat="47.57458" lon="-3.03375">
        <ele>2.6</ele>
        <time>2024-05-07T14:03:06Z</time>
      </trkpt>
      <trkpt lat="47.57457" lon="-3.03375">
        <ele>2.6</ele>
        <time>2024-05-07T14:03:07Z</time>
      </trkpt>
      <trkpt lat="47.57456" lon="-3.03374">
        <ele>2.6</ele>
        <time>2024-05-07T14:03:08Z</time>
      </trkpt>
      <trkpt lat="47.57454" lon="-3.03374">
        <ele>2.6</ele>
        <time>2024-05-07T14:03:09Z</time>
      </trkpt>
      <trkpt lat="47.57453" lon="-3.03374">
        <ele>2.6</ele>
        <time>2024-05-07T14:03:10Z</time>
      </trkpt>
      <trkpt lat="47.57452" lon="-3.03373">
        <ele>2.6</ele>
        <time>2024-05-07T14:03:11Z</time>
      </trkpt>
      <trkpt lat="47.5745" lon="-3.03374">
        <ele>2.8</ele>
        <time>2024-05-07T14:03:12Z</time>
      </trkpt>
      <trkpt lat="47.57449" lon="-3.03374">
        <ele>2.8</ele>
        <time>2024-05-07T14:03:13Z</time>
      </trkpt>
      <trkpt lat="47.57447" lon="-3.03374">
        <ele>2.8</ele>
        <time>2024-05-07T14:03:14Z</time>
      </trkpt>
      <trkpt lat="47.57445" lon="-3.03374">
        <ele>2.8</ele>
        <time>2024-05-07T14:03:15Z</time>
      </trkpt>
      <trkpt lat="47.57444" lon="-3.03374">
        <ele>2.8</ele>
        <time>2024-05-07T14:03:16Z</time>
      </trkpt>
      <trkpt lat="47.57443" lon="-3.03374">
        <ele>2.8</ele>
        <time>2024-05-07T14:03:17Z</time>
      </trkpt>
      <trkpt lat="47.57442" lon="-3.03374">
        <ele>2.8</ele>
        <time>2024-05-07T14:03:18Z</time>
      </trkpt>
      <trkpt lat="47.57441" lon="-3.03374">
        <ele>2.6</ele>
        <time>2024-05-07T14:03:19Z</time>
      </trkpt>
      <trkpt lat="47.57439" lon="-3.03374">
        <ele>2.6</ele>
        <time>2024-05-07T14:03:20Z</time>
      </trkpt>
      <trkpt lat="47.57438" lon="-3.03374">
        <ele>2.4</ele>
        <time>2024-05-07T14:03:21Z</time>
      </trkpt>
      <trkpt lat="47.57436" lon="-3.03374">
        <ele>2.4</ele>
        <time>2024-05-07T14:03:22Z</time>
      </trkpt>
      <trkpt lat="47.57436" lon="-3.03374">
        <ele>2.4</ele>
        <time>2024-05-07T14:03:23Z</time>
      </trkpt>
      <trkpt lat="47.57435" lon="-3.03374">
        <ele>2.4</ele>
        <time>2024-05-07T14:03:24Z</time>
      </trkpt>
      <trkpt lat="47.57434" lon="-3.03374">
        <ele>2.4</ele>
        <time>2024-05-07T14:03:25Z</time>
      </trkpt>
      <trkpt lat="47.57432" lon="-3.03375">
        <ele>2.4</ele>
        <time>2024-05-07T14:03:26Z</time>
      </trkpt>
      <trkpt lat="47.57431" lon="-3.03375">
        <ele>2.4</ele>
        <time>2024-05-07T14:03:27Z</time>
      </trkpt>
      <trkpt lat="47.57429" lon="-3.03374">
        <ele>2.2</ele>
        <time>2024-05-07T14:03:28Z</time>
      </trkpt>
      <trkpt lat="47.57428" lon="-3.03374">
        <ele>2.2</ele>
        <time>2024-05-07T14:03:29Z</time>
      </trkpt>
      <trkpt lat="47.57426" lon="-3.03373">
        <ele>2.2</ele>
        <time>2024-05-07T14:03:30Z</time>
      </trkpt>
      <trkpt lat="47.57424" lon="-3.03373">
        <ele>2.2</ele>
        <time>2024-05-07T14:03:31Z</time>
      </trkpt>
      <trkpt lat="47.57423" lon="-3.03372">
        <ele>2.4</ele>
        <time>2024-05-07T14:03:32Z</time>
      </trkpt>
      <trkpt lat="47.57422" lon="-3.03372">
        <ele>2.4</ele>
        <time>2024-05-07T14:03:33Z</time>
      </trkpt>
      <trkpt lat="47.57421" lon="-3.03371">
        <ele>2.4</ele>
        <time>2024-05-07T14:03:34Z</time>
      </trkpt>
      <trkpt lat="47.5742" lon="-3.0337">
        <ele>2.4</ele>
        <time>2024-05-07T14:03:35Z</time>
      </trkpt>
      <trkpt lat="47.57419" lon="-3.03369">
        <ele>2.4</ele>
        <time>2024-05-07T14:03:36Z</time>
      </trkpt>
      <trkpt lat="47.57417" lon="-3.03368">
        <ele>2.4</ele>
        <time>2024-05-07T14:03:37Z</time>
      </trkpt>
      <trkpt lat="47.57416" lon="-3.03367">
        <ele>2.6</ele>
        <time>2024-05-07T14:03:38Z</time>
      </trkpt>
      <trkpt lat="47.57415" lon="-3.03366">
        <ele>2.6</ele>
        <time>2024-05-07T14:03:39Z</time>
      </trkpt>
      <trkpt lat="47.57414" lon="-3.03365">
        <ele>2.6</ele>
        <time>2024-05-07T14:03:40Z</time>
      </trkpt>
      <trkpt lat="47.57413" lon="-3.03364">
        <ele>2.6</ele>
        <time>2024-05-07T14:03:41Z</time>
      </trkpt>
      <trkpt lat="47.57412" lon="-3.03363">
        <ele>2.6</ele>
        <time>2024-05-07T14:03:42Z</time>
      </trkpt>
      <trkpt lat="47.57411" lon="-3.03362">
        <ele>2.6</ele>
        <time>2024-05-07T14:03:43Z</time>
      </trkpt>
      <trkpt lat="47.57409" lon="-3.03361">
        <ele>2.6</ele>
        <time>2024-05-07T14:03:44Z</time>
      </trkpt>
      <trkpt lat="47.57408" lon="-3.0336">
        <ele>2.6</ele>
        <time>2024-05-07T14:03:45Z</time>
      </trkpt>
      <trkpt lat="47.57407" lon="-3.03359">
        <ele>2.6</ele>
        <time>2024-05-07T14:03:46Z</time>
      </trkpt>
      <trkpt lat="47.57406" lon="-3.03359">
        <ele>2.6</ele>
        <time>2024-05-07T14:03:47Z</time>
      </trkpt>
      <trkpt lat="47.57405" lon="-3.03358">
        <ele>2.6</ele>
        <time>2024-05-07T14:03:48Z</time>
      </trkpt>
      <trkpt lat="47.57403" lon="-3.03357">
        <ele>2.6</ele>
        <time>2024-05-07T14:03:49Z</time>
      </trkpt>
      <trkpt lat="47.57401" lon="-3.03356">
        <ele>2.6</ele>
        <time>2024-05-07T14:03:50Z</time>
      </trkpt>
      <trkpt lat="47.57399" lon="-3.03355">
        <ele>2.6</ele>
        <time>2024-05-07T14:03:51Z</time>
      </trkpt>
      <trkpt lat="47.57398" lon="-3.03355">
        <ele>2.6</ele>
        <time>2024-05-07T14:03:52Z</time>
      </trkpt>
      <trkpt lat="47.57398" lon="-3.03352">
        <ele>2.6</ele>
        <time>2024-05-07T14:03:53Z</time>
      </trkpt>
      <trkpt lat="47.57397" lon="-3.03351">
        <ele>2.6</ele>
        <time>2024-05-07T14:03:54Z</time>
      </trkpt>
      <trkpt lat="47.57395" lon="-3.03351">
        <ele>2.6</ele>
        <time>2024-05-07T14:03:55Z</time>
      </trkpt>
      <trkpt lat="47.57394" lon="-3.0335">
        <ele>2.6</ele>
        <time>2024-05-07T14:03:56Z</time>
      </trkpt>
      <trkpt lat="47.57393" lon="-3.0335">
        <ele>2.8</ele>
        <time>2024-05-07T14:03:57Z</time>
      </trkpt>
      <trkpt lat="47.57391" lon="-3.03349">
        <ele>2.8</ele>
        <time>2024-05-07T14:03:58Z</time>
      </trkpt>
      <trkpt lat="47.5739" lon="-3.03349">
        <ele>3</ele>
        <time>2024-05-07T14:03:59Z</time>
      </trkpt>
      <trkpt lat="47.57388" lon="-3.03348">
        <ele>3</ele>
        <time>2024-05-07T14:04:00Z</time>
      </trkpt>
      <trkpt lat="47.57387" lon="-3.03347">
        <ele>3</ele>
        <time>2024-05-07T14:04:01Z</time>
      </trkpt>
      <trkpt lat="47.57386" lon="-3.03347">
        <ele>3</ele>
        <time>2024-05-07T14:04:02Z</time>
      </trkpt>
      <trkpt lat="47.57385" lon="-3.03347">
        <ele>3</ele>
        <time>2024-05-07T14:04:03Z</time>
      </trkpt>
      <trkpt lat="47.57384" lon="-3.03346">
        <ele>3</ele>
        <time>2024-05-07T14:04:04Z</time>
      </trkpt>
      <trkpt lat="47.57383" lon="-3.03345">
        <ele>3</ele>
        <time>2024-05-07T14:04:05Z</time>
      </trkpt>
      <trkpt lat="47.57381" lon="-3.03345">
        <ele>3</ele>
        <time>2024-05-07T14:04:06Z</time>
      </trkpt>
      <trkpt lat="47.57379" lon="-3.03344">
        <ele>3</ele>
        <time>2024-05-07T14:04:07Z</time>
      </trkpt>
      <trkpt lat="47.57378" lon="-3.03343">
        <ele>3</ele>
        <time>2024-05-07T14:04:08Z</time>
      </trkpt>
      <trkpt lat="47.57378" lon="-3.03342">
        <ele>2.8</ele>
        <time>2024-05-07T14:04:09Z</time>
      </trkpt>
      <trkpt lat="47.57377" lon="-3.03342">
        <ele>2.8</ele>
        <time>2024-05-07T14:04:10Z</time>
      </trkpt>
      <trkpt lat="47.57376" lon="-3.03341">
        <ele>2.8</ele>
        <time>2024-05-07T14:04:11Z</time>
      </trkpt>
      <trkpt lat="47.57375" lon="-3.0334">
        <ele>2.8</ele>
        <time>2024-05-07T14:04:12Z</time>
      </trkpt>
      <trkpt lat="47.57374" lon="-3.0334">
        <ele>2.8</ele>
        <time>2024-05-07T14:04:13Z</time>
      </trkpt>
      <trkpt lat="47.57373" lon="-3.0334">
        <ele>2.8</ele>
        <time>2024-05-07T14:04:14Z</time>
      </trkpt>
      <trkpt lat="47.57372" lon="-3.0334">
        <ele>2.8</ele>
        <time>2024-05-07T14:04:15Z</time>
      </trkpt>
      <trkpt lat="47.57371" lon="-3.0334">
        <ele>2.8</ele>
        <time>2024-05-07T14:04:16Z</time>
      </trkpt>
      <trkpt lat="47.5737" lon="-3.0334">
        <ele>2.8</ele>
        <time>2024-05-07T14:04:17Z</time>
      </trkpt>
      <trkpt lat="47.57369" lon="-3.03339">
        <ele>2.8</ele>
        <time>2024-05-07T14:04:18Z</time>
      </trkpt>
      <trkpt lat="47.57367" lon="-3.03338">
        <ele>2.8</ele>
        <time>2024-05-07T14:04:19Z</time>
      </trkpt>
      <trkpt lat="47.57366" lon="-3.03338">
        <ele>3</ele>
        <time>2024-05-07T14:04:20Z</time>
      </trkpt>
      <trkpt lat="47.57365" lon="-3.03337">
        <ele>3</ele>
        <time>2024-05-07T14:04:21Z</time>
      </trkpt>
      <trkpt lat="47.57364" lon="-3.03336">
        <ele>3</ele>
        <time>2024-05-07T14:04:22Z</time>
      </trkpt>
      <trkpt lat="47.57363" lon="-3.03335">
        <ele>3.2</ele>
        <time>2024-05-07T14:04:23Z</time>
      </trkpt>
      <trkpt lat="47.57363" lon="-3.03334">
        <ele>3.2</ele>
        <time>2024-05-07T14:04:24Z</time>
      </trkpt>
      <trkpt lat="47.57363" lon="-3.03333">
        <ele>3.4</ele>
        <time>2024-05-07T14:04:25Z</time>
      </trkpt>
      <trkpt lat="47.57362" lon="-3.03332">
        <ele>3.4</ele>
        <time>2024-05-07T14:04:26Z</time>
      </trkpt>
      <trkpt lat="47.57361" lon="-3.0333">
        <ele>3.4</ele>
        <time>2024-05-07T14:04:27Z</time>
      </trkpt>
      <trkpt lat="47.5736" lon="-3.03328">
        <ele>3.6</ele>
        <time>2024-05-07T14:04:28Z</time>
      </trkpt>
      <trkpt lat="47.5736" lon="-3.03327">
        <ele>3.6</ele>
        <time>2024-05-07T14:04:29Z</time>
      </trkpt>
      <trkpt lat="47.57359" lon="-3.03325">
        <ele>3.6</ele>
        <time>2024-05-07T14:04:30Z</time>
      </trkpt>
      <trkpt lat="47.57359" lon="-3.03323">
        <ele>3.6</ele>
        <time>2024-05-07T14:04:31Z</time>
      </trkpt>
      <trkpt lat="47.57359" lon="-3.03322">
        <ele>4</ele>
        <time>2024-05-07T14:04:32Z</time>
      </trkpt>
      <trkpt lat="47.57358" lon="-3.03321">
        <ele>3.8</ele>
        <time>2024-05-07T14:04:33Z</time>
      </trkpt>
      <trkpt lat="47.57357" lon="-3.03319">
        <ele>3.8</ele>
        <time>2024-05-07T14:04:34Z</time>
      </trkpt>
      <trkpt lat="47.57357" lon="-3.03318">
        <ele>3.8</ele>
        <time>2024-05-07T14:04:35Z</time>
      </trkpt>
      <trkpt lat="47.57357" lon="-3.03316">
        <ele>3.8</ele>
        <time>2024-05-07T14:04:36Z</time>
      </trkpt>
      <trkpt lat="47.57356" lon="-3.03314">
        <ele>4.2</ele>
        <time>2024-05-07T14:04:37Z</time>
      </trkpt>
      <trkpt lat="47.57356" lon="-3.03313">
        <ele>4.2</ele>
        <time>2024-05-07T14:04:38Z</time>
      </trkpt>
      <trkpt lat="47.57356" lon="-3.0331">
        <ele>4.2</ele>
        <time>2024-05-07T14:04:39Z</time>
      </trkpt>
      <trkpt lat="47.57356" lon="-3.03308">
        <ele>4.4</ele>
        <time>2024-05-07T14:04:40Z</time>
      </trkpt>
      <trkpt lat="47.57357" lon="-3.03305">
        <ele>4.4</ele>
        <time>2024-05-07T14:04:41Z</time>
      </trkpt>
      <trkpt lat="47.57357" lon="-3.03303">
        <ele>4.4</ele>
        <time>2024-05-07T14:04:42Z</time>
      </trkpt>
      <trkpt lat="47.57358" lon="-3.03301">
        <ele>4.4</ele>
        <time>2024-05-07T14:04:43Z</time>
      </trkpt>
      <trkpt lat="47.57358" lon="-3.03298">
        <ele>4.4</ele>
        <time>2024-05-07T14:04:44Z</time>
      </trkpt>
      <trkpt lat="47.57358" lon="-3.03294">
        <ele>4.6</ele>
        <time>2024-05-07T14:04:45Z</time>
      </trkpt>
      <trkpt lat="47.57358" lon="-3.03293">
        <ele>4.6</ele>
        <time>2024-05-07T14:04:46Z</time>
      </trkpt>
      <trkpt lat="47.57358" lon="-3.03291">
        <ele>4.6</ele>
        <time>2024-05-07T14:04:47Z</time>
      </trkpt>
      <trkpt lat="47.57358" lon="-3.03289">
        <ele>4.6</ele>
        <time>2024-05-07T14:04:48Z</time>
      </trkpt>
      <trkpt lat="47.57359" lon="-3.03288">
        <ele>4.8</ele>
        <time>2024-05-07T14:04:49Z</time>
      </trkpt>
      <trkpt lat="47.57359" lon="-3.03286">
        <ele>4.8</ele>
        <time>2024-05-07T14:04:50Z</time>
      </trkpt>
      <trkpt lat="47.57359" lon="-3.03285">
        <ele>4.8</ele>
        <time>2024-05-07T14:04:51Z</time>
      </trkpt>
      <trkpt lat="47.57359" lon="-3.03284">
        <ele>5</ele>
        <time>2024-05-07T14:04:52Z</time>
      </trkpt>
      <trkpt lat="47.5736" lon="-3.03282">
        <ele>5</ele>
        <time>2024-05-07T14:04:53Z</time>
      </trkpt>
      <trkpt lat="47.5736" lon="-3.0328">
        <ele>5</ele>
        <time>2024-05-07T14:04:54Z</time>
      </trkpt>
      <trkpt lat="47.57361" lon="-3.03278">
        <ele>5</ele>
        <time>2024-05-07T14:04:55Z</time>
      </trkpt>
      <trkpt lat="47.57361" lon="-3.03277">
        <ele>5</ele>
        <time>2024-05-07T14:04:56Z</time>
      </trkpt>
      <trkpt lat="47.57361" lon="-3.03274">
        <ele>5</ele>
        <time>2024-05-07T14:04:57Z</time>
      </trkpt>
      <trkpt lat="47.57361" lon="-3.03273">
        <ele>5</ele>
        <time>2024-05-07T14:04:58Z</time>
      </trkpt>
      <trkpt lat="47.57361" lon="-3.03271">
        <ele>5</ele>
        <time>2024-05-07T14:04:59Z</time>
      </trkpt>
      <trkpt lat="47.57362" lon="-3.03269">
        <ele>5</ele>
        <time>2024-05-07T14:05:00Z</time>
      </trkpt>
      <trkpt lat="47.57363" lon="-3.03267">
        <ele>5</ele>
        <time>2024-05-07T14:05:01Z</time>
      </trkpt>
      <trkpt lat="47.57364" lon="-3.03265">
        <ele>5</ele>
        <time>2024-05-07T14:05:02Z</time>
      </trkpt>
      <trkpt lat="47.57364" lon="-3.03264">
        <ele>5</ele>
        <time>2024-05-07T14:05:03Z</time>
      </trkpt>
      <trkpt lat="47.57364" lon="-3.03262">
        <ele>5</ele>
        <time>2024-05-07T14:05:04Z</time>
      </trkpt>
      <trkpt lat="47.57365" lon="-3.0326">
        <ele>5</ele>
        <time>2024-05-07T14:05:05Z</time>
      </trkpt>
      <trkpt lat="47.57365" lon="-3.03258">
        <ele>5</ele>
        <time>2024-05-07T14:05:06Z</time>
      </trkpt>
      <trkpt lat="47.57366" lon="-3.03255">
        <ele>5</ele>
        <time>2024-05-07T14:05:07Z</time>
      </trkpt>
      <trkpt lat="47.57367" lon="-3.03252">
        <ele>5</ele>
        <time>2024-05-07T14:05:08Z</time>
      </trkpt>
      <trkpt lat="47.57367" lon="-3.0325">
        <ele>5.2</ele>
        <time>2024-05-07T14:05:09Z</time>
      </trkpt>
      <trkpt lat="47.57367" lon="-3.03248">
        <ele>5.2</ele>
        <time>2024-05-07T14:05:10Z</time>
      </trkpt>
      <trkpt lat="47.57368" lon="-3.03246">
        <ele>5.2</ele>
        <time>2024-05-07T14:05:11Z</time>
      </trkpt>
      <trkpt lat="47.57368" lon="-3.03244">
        <ele>5.2</ele>
        <time>2024-05-07T14:05:12Z</time>
      </trkpt>
      <trkpt lat="47.57368" lon="-3.03243">
        <ele>5.2</ele>
        <time>2024-05-07T14:05:13Z</time>
      </trkpt>
      <trkpt lat="47.57368" lon="-3.0324">
        <ele>5.4</ele>
        <time>2024-05-07T14:05:14Z</time>
      </trkpt>
      <trkpt lat="47.57368" lon="-3.03238">
        <ele>5.4</ele>
        <time>2024-05-07T14:05:15Z</time>
      </trkpt>
      <trkpt lat="47.57369" lon="-3.03237">
        <ele>5.4</ele>
        <time>2024-05-07T14:05:16Z</time>
      </trkpt>
      <trkpt lat="47.57369" lon="-3.03235">
        <ele>5.4</ele>
        <time>2024-05-07T14:05:17Z</time>
      </trkpt>
      <trkpt lat="47.57369" lon="-3.03233">
        <ele>5.4</ele>
        <time>2024-05-07T14:05:18Z</time>
      </trkpt>
      <trkpt lat="47.57369" lon="-3.03232">
        <ele>5.4</ele>
        <time>2024-05-07T14:05:19Z</time>
      </trkpt>
      <trkpt lat="47.5737" lon="-3.0323">
        <ele>5.4</ele>
        <time>2024-05-07T14:05:20Z</time>
      </trkpt>
      <trkpt lat="47.57371" lon="-3.03228">
        <ele>5.6</ele>
        <time>2024-05-07T14:05:21Z</time>
      </trkpt>
      <trkpt lat="47.57371" lon="-3.03226">
        <ele>5.6</ele>
        <time>2024-05-07T14:05:22Z</time>
      </trkpt>
      <trkpt lat="47.57371" lon="-3.03224">
        <ele>5.6</ele>
        <time>2024-05-07T14:05:23Z</time>
      </trkpt>
      <trkpt lat="47.57371" lon="-3.03222">
        <ele>5.6</ele>
        <time>2024-05-07T14:05:24Z</time>
      </trkpt>
      <trkpt lat="47.57371" lon="-3.0322">
        <ele>5.6</ele>
        <time>2024-05-07T14:05:25Z</time>
      </trkpt>
      <trkpt lat="47.57371" lon="-3.03218">
        <ele>5.6</ele>
        <time>2024-05-07T14:05:26Z</time>
      </trkpt>
      <trkpt lat="47.57371" lon="-3.03216">
        <ele>5.6</ele>
        <time>2024-05-07T14:05:27Z</time>
      </trkpt>
      <trkpt lat="47.57372" lon="-3.03214">
        <ele>5.6</ele>
        <time>2024-05-07T14:05:28Z</time>
      </trkpt>
      <trkpt lat="47.57372" lon="-3.03213">
        <ele>5.6</ele>
        <time>2024-05-07T14:05:29Z</time>
      </trkpt>
      <trkpt lat="47.57372" lon="-3.03211">
        <ele>5.6</ele>
        <time>2024-05-07T14:05:30Z</time>
      </trkpt>
      <trkpt lat="47.57372" lon="-3.03208">
        <ele>5.6</ele>
        <time>2024-05-07T14:05:31Z</time>
      </trkpt>
      <trkpt lat="47.57372" lon="-3.03207">
        <ele>5.6</ele>
        <time>2024-05-07T14:05:32Z</time>
      </trkpt>
      <trkpt lat="47.57372" lon="-3.03205">
        <ele>5.6</ele>
        <time>2024-05-07T14:05:33Z</time>
      </trkpt>
      <trkpt lat="47.57372" lon="-3.03202">
        <ele>5.6</ele>
        <time>2024-05-07T14:05:34Z</time>
      </trkpt>
      <trkpt lat="47.57373" lon="-3.03201">
        <ele>5.6</ele>
        <time>2024-05-07T14:05:35Z</time>
      </trkpt>
      <trkpt lat="47.57374" lon="-3.03198">
        <ele>5.6</ele>
        <time>2024-05-07T14:05:36Z</time>
      </trkpt>
      <trkpt lat="47.57375" lon="-3.03196">
        <ele>5.6</ele>
        <time>2024-05-07T14:05:37Z</time>
      </trkpt>
      <trkpt lat="47.57374" lon="-3.03196">
        <ele>5.6</ele>
        <time>2024-05-07T14:05:38Z</time>
      </trkpt>
      <trkpt lat="47.57374" lon="-3.03194">
        <ele>5.6</ele>
        <time>2024-05-07T14:05:39Z</time>
      </trkpt>
      <trkpt lat="47.57375" lon="-3.03193">
        <ele>5.6</ele>
        <time>2024-05-07T14:05:40Z</time>
      </trkpt>
      <trkpt lat="47.57375" lon="-3.03191">
        <ele>5.6</ele>
        <time>2024-05-07T14:05:41Z</time>
      </trkpt>
      <trkpt lat="47.57375" lon="-3.03189">
        <ele>5.6</ele>
        <time>2024-05-07T14:05:42Z</time>
      </trkpt>
      <trkpt lat="47.57376" lon="-3.03188">
        <ele>5.6</ele>
        <time>2024-05-07T14:05:43Z</time>
      </trkpt>
      <trkpt lat="47.57376" lon="-3.03186">
        <ele>5.6</ele>
        <time>2024-05-07T14:05:44Z</time>
      </trkpt>
      <trkpt lat="47.57376" lon="-3.03185">
        <ele>5.6</ele>
        <time>2024-05-07T14:05:45Z</time>
      </trkpt>
      <trkpt lat="47.57377" lon="-3.03183">
        <ele>5.6</ele>
        <time>2024-05-07T14:05:46Z</time>
      </trkpt>
      <trkpt lat="47.57378" lon="-3.03181">
        <ele>5.6</ele>
        <time>2024-05-07T14:05:47Z</time>
      </trkpt>
      <trkpt lat="47.57378" lon="-3.0318">
        <ele>5.6</ele>
        <time>2024-05-07T14:05:48Z</time>
      </trkpt>
      <trkpt lat="47.57378" lon="-3.03178">
        <ele>5.6</ele>
        <time>2024-05-07T14:05:49Z</time>
      </trkpt>
      <trkpt lat="47.57379" lon="-3.03177">
        <ele>5.8</ele>
        <time>2024-05-07T14:05:50Z</time>
      </trkpt>
      <trkpt lat="47.5738" lon="-3.03175">
        <ele>5.8</ele>
        <time>2024-05-07T14:05:51Z</time>
      </trkpt>
      <trkpt lat="47.57381" lon="-3.03173">
        <ele>5.6</ele>
        <time>2024-05-07T14:05:52Z</time>
      </trkpt>
      <trkpt lat="47.57382" lon="-3.03171">
        <ele>5.6</ele>
        <time>2024-05-07T14:05:53Z</time>
      </trkpt>
      <trkpt lat="47.57382" lon="-3.0317">
        <ele>5.6</ele>
        <time>2024-05-07T14:05:54Z</time>
      </trkpt>
      <trkpt lat="47.57383" lon="-3.03168">
        <ele>5.4</ele>
        <time>2024-05-07T14:05:55Z</time>
      </trkpt>
      <trkpt lat="47.57383" lon="-3.03166">
        <ele>5.4</ele>
        <time>2024-05-07T14:05:56Z</time>
      </trkpt>
      <trkpt lat="47.57383" lon="-3.03165">
        <ele>5.4</ele>
        <time>2024-05-07T14:05:57Z</time>
      </trkpt>
      <trkpt lat="47.57384" lon="-3.03163">
        <ele>5.4</ele>
        <time>2024-05-07T14:05:58Z</time>
      </trkpt>
      <trkpt lat="47.57384" lon="-3.0316">
        <ele>5.4</ele>
        <time>2024-05-07T14:05:59Z</time>
      </trkpt>
      <trkpt lat="47.57384" lon="-3.03157">
        <ele>5.2</ele>
        <time>2024-05-07T14:06:00Z</time>
      </trkpt>
      <trkpt lat="47.57384" lon="-3.03155">
        <ele>5.2</ele>
        <time>2024-05-07T14:06:01Z</time>
      </trkpt>
      <trkpt lat="47.57384" lon="-3.03154">
        <ele>5</ele>
        <time>2024-05-07T14:06:02Z</time>
      </trkpt>
      <trkpt lat="47.57385" lon="-3.03152">
        <ele>5</ele>
        <time>2024-05-07T14:06:03Z</time>
      </trkpt>
      <trkpt lat="47.57386" lon="-3.0315">
        <ele>4.8</ele>
        <time>2024-05-07T14:06:04Z</time>
      </trkpt>
      <trkpt lat="47.57388" lon="-3.03148">
        <ele>4.8</ele>
        <time>2024-05-07T14:06:05Z</time>
      </trkpt>
      <trkpt lat="47.57389" lon="-3.03146">
        <ele>4.6</ele>
        <time>2024-05-07T14:06:06Z</time>
      </trkpt>
      <trkpt lat="47.5739" lon="-3.03144">
        <ele>4.6</ele>
        <time>2024-05-07T14:06:07Z</time>
      </trkpt>
      <trkpt lat="47.5739" lon="-3.03142">
        <ele>4.6</ele>
        <time>2024-05-07T14:06:08Z</time>
      </trkpt>
      <trkpt lat="47.57391" lon="-3.03141">
        <ele>4.6</ele>
        <time>2024-05-07T14:06:09Z</time>
      </trkpt>
      <trkpt lat="47.57391" lon="-3.0314">
        <ele>4.6</ele>
        <time>2024-05-07T14:06:10Z</time>
      </trkpt>
      <trkpt lat="47.57391" lon="-3.03137">
        <ele>4.6</ele>
        <time>2024-05-07T14:06:11Z</time>
      </trkpt>
      <trkpt lat="47.57392" lon="-3.03135">
        <ele>4.6</ele>
        <time>2024-05-07T14:06:12Z</time>
      </trkpt>
      <trkpt lat="47.57392" lon="-3.03133">
        <ele>4.6</ele>
        <time>2024-05-07T14:06:13Z</time>
      </trkpt>
      <trkpt lat="47.57392" lon="-3.03131">
        <ele>4.6</ele>
        <time>2024-05-07T14:06:14Z</time>
      </trkpt>
      <trkpt lat="47.57392" lon="-3.0313">
        <ele>4.6</ele>
        <time>2024-05-07T14:06:15Z</time>
      </trkpt>
      <trkpt lat="47.57393" lon="-3.03128">
        <ele>4.6</ele>
        <time>2024-05-07T14:06:16Z</time>
      </trkpt>
      <trkpt lat="47.57393" lon="-3.03126">
        <ele>4.6</ele>
        <time>2024-05-07T14:06:17Z</time>
      </trkpt>
      <trkpt lat="47.57393" lon="-3.03124">
        <ele>4.6</ele>
        <time>2024-05-07T14:06:18Z</time>
      </trkpt>
      <trkpt lat="47.57394" lon="-3.03122">
        <ele>4.6</ele>
        <time>2024-05-07T14:06:19Z</time>
      </trkpt>
      <trkpt lat="47.57394" lon="-3.0312">
        <ele>4.6</ele>
        <time>2024-05-07T14:06:20Z</time>
      </trkpt>
      <trkpt lat="47.57395" lon="-3.03118">
        <ele>4.6</ele>
        <time>2024-05-07T14:06:21Z</time>
      </trkpt>
      <trkpt lat="47.57395" lon="-3.03116">
        <ele>4.6</ele>
        <time>2024-05-07T14:06:22Z</time>
      </trkpt>
      <trkpt lat="47.57395" lon="-3.03114">
        <ele>4.6</ele>
        <time>2024-05-07T14:06:23Z</time>
      </trkpt>
      <trkpt lat="47.57396" lon="-3.03111">
        <ele>4.6</ele>
        <time>2024-05-07T14:06:24Z</time>
      </trkpt>
      <trkpt lat="47.57396" lon="-3.0311">
        <ele>4.6</ele>
        <time>2024-05-07T14:06:25Z</time>
      </trkpt>
      <trkpt lat="47.57396" lon="-3.03108">
        <ele>4.4</ele>
        <time>2024-05-07T14:06:26Z</time>
      </trkpt>
      <trkpt lat="47.57397" lon="-3.03106">
        <ele>4.4</ele>
        <time>2024-05-07T14:06:27Z</time>
      </trkpt>
      <trkpt lat="47.57397" lon="-3.03103">
        <ele>4.4</ele>
        <time>2024-05-07T14:06:28Z</time>
      </trkpt>
      <trkpt lat="47.57397" lon="-3.03102">
        <ele>4.4</ele>
        <time>2024-05-07T14:06:29Z</time>
      </trkpt>
      <trkpt lat="47.57396" lon="-3.031">
        <ele>4.4</ele>
        <time>2024-05-07T14:06:30Z</time>
      </trkpt>
      <trkpt lat="47.57396" lon="-3.03098">
        <ele>4.4</ele>
        <time>2024-05-07T14:06:31Z</time>
      </trkpt>
      <trkpt lat="47.57396" lon="-3.03097">
        <ele>4.4</ele>
        <time>2024-05-07T14:06:32Z</time>
      </trkpt>
      <trkpt lat="47.57396" lon="-3.03095">
        <ele>4.4</ele>
        <time>2024-05-07T14:06:33Z</time>
      </trkpt>
      <trkpt lat="47.57396" lon="-3.03094">
        <ele>4.4</ele>
        <time>2024-05-07T14:06:34Z</time>
      </trkpt>
      <trkpt lat="47.57395" lon="-3.03092">
        <ele>4.4</ele>
        <time>2024-05-07T14:06:35Z</time>
      </trkpt>
      <trkpt lat="47.57395" lon="-3.0309">
        <ele>4.4</ele>
        <time>2024-05-07T14:06:36Z</time>
      </trkpt>
      <trkpt lat="47.57395" lon="-3.03089">
        <ele>4.4</ele>
        <time>2024-05-07T14:06:37Z</time>
      </trkpt>
      <trkpt lat="47.57395" lon="-3.03088">
        <ele>4.4</ele>
        <time>2024-05-07T14:06:38Z</time>
      </trkpt>
      <trkpt lat="47.57396" lon="-3.03087">
        <ele>4.4</ele>
        <time>2024-05-07T14:06:39Z</time>
      </trkpt>
      <trkpt lat="47.57397" lon="-3.03084">
        <ele>4.4</ele>
        <time>2024-05-07T14:06:40Z</time>
      </trkpt>
      <trkpt lat="47.57397" lon="-3.03082">
        <ele>4.4</ele>
        <time>2024-05-07T14:06:41Z</time>
      </trkpt>
      <trkpt lat="47.57396" lon="-3.03081">
        <ele>4.4</ele>
        <time>2024-05-07T14:06:42Z</time>
      </trkpt>
      <trkpt lat="47.57395" lon="-3.03079">
        <ele>4.4</ele>
        <time>2024-05-07T14:06:43Z</time>
      </trkpt>
      <trkpt lat="47.57395" lon="-3.03077">
        <ele>4.4</ele>
        <time>2024-05-07T14:06:44Z</time>
      </trkpt>
      <trkpt lat="47.57395" lon="-3.03074">
        <ele>4.6</ele>
        <time>2024-05-07T14:06:45Z</time>
      </trkpt>
      <trkpt lat="47.57395" lon="-3.03072">
        <ele>4.6</ele>
        <time>2024-05-07T14:06:46Z</time>
      </trkpt>
      <trkpt lat="47.57394" lon="-3.0307">
        <ele>4.6</ele>
        <time>2024-05-07T14:06:47Z</time>
      </trkpt>
      <trkpt lat="47.57393" lon="-3.03069">
        <ele>4.6</ele>
        <time>2024-05-07T14:06:48Z</time>
      </trkpt>
      <trkpt lat="47.57392" lon="-3.03066">
        <ele>4.6</ele>
        <time>2024-05-07T14:06:49Z</time>
      </trkpt>
      <trkpt lat="47.57393" lon="-3.03064">
        <ele>4.6</ele>
        <time>2024-05-07T14:06:50Z</time>
      </trkpt>
      <trkpt lat="47.57393" lon="-3.03061">
        <ele>4.6</ele>
        <time>2024-05-07T14:06:51Z</time>
      </trkpt>
      <trkpt lat="47.57393" lon="-3.03059">
        <ele>4.6</ele>
        <time>2024-05-07T14:06:52Z</time>
      </trkpt>
      <trkpt lat="47.57393" lon="-3.03057">
        <ele>4.6</ele>
        <time>2024-05-07T14:06:53Z</time>
      </trkpt>
      <trkpt lat="47.57393" lon="-3.03055">
        <ele>4.6</ele>
        <time>2024-05-07T14:06:54Z</time>
      </trkpt>
      <trkpt lat="47.57392" lon="-3.03053">
        <ele>4.6</ele>
        <time>2024-05-07T14:06:55Z</time>
      </trkpt>
      <trkpt lat="47.57392" lon="-3.03051">
        <ele>4.6</ele>
        <time>2024-05-07T14:06:56Z</time>
      </trkpt>
      <trkpt lat="47.57391" lon="-3.03049">
        <ele>4.6</ele>
        <time>2024-05-07T14:06:57Z</time>
      </trkpt>
      <trkpt lat="47.57391" lon="-3.03047">
        <ele>4.6</ele>
        <time>2024-05-07T14:06:58Z</time>
      </trkpt>
      <trkpt lat="47.57391" lon="-3.03045">
        <ele>4.6</ele>
        <time>2024-05-07T14:06:59Z</time>
      </trkpt>
      <trkpt lat="47.57391" lon="-3.03043">
        <ele>4.6</ele>
        <time>2024-05-07T14:07:00Z</time>
      </trkpt>
      <trkpt lat="47.57391" lon="-3.03041">
        <ele>4.6</ele>
        <time>2024-05-07T14:07:01Z</time>
      </trkpt>
      <trkpt lat="47.57391" lon="-3.03038">
        <ele>4.6</ele>
        <time>2024-05-07T14:07:02Z</time>
      </trkpt>
      <trkpt lat="47.57391" lon="-3.03035">
        <ele>4.6</ele>
        <time>2024-05-07T14:07:03Z</time>
      </trkpt>
      <trkpt lat="47.57391" lon="-3.03033">
        <ele>4.8</ele>
        <time>2024-05-07T14:07:04Z</time>
      </trkpt>
      <trkpt lat="47.57391" lon="-3.03031">
        <ele>4.8</ele>
        <time>2024-05-07T14:07:05Z</time>
      </trkpt>
      <trkpt lat="47.57392" lon="-3.03029">
        <ele>4.8</ele>
        <time>2024-05-07T14:07:06Z</time>
      </trkpt>
      <trkpt lat="47.57391" lon="-3.03027">
        <ele>4.8</ele>
        <time>2024-05-07T14:07:07Z</time>
      </trkpt>
      <trkpt lat="47.57391" lon="-3.03024">
        <ele>5</ele>
        <time>2024-05-07T14:07:08Z</time>
      </trkpt>
      <trkpt lat="47.57391" lon="-3.03023">
        <ele>5</ele>
        <time>2024-05-07T14:07:09Z</time>
      </trkpt>
      <trkpt lat="47.57391" lon="-3.03021">
        <ele>5.2</ele>
        <time>2024-05-07T14:07:10Z</time>
      </trkpt>
      <trkpt lat="47.57391" lon="-3.03019">
        <ele>5.2</ele>
        <time>2024-05-07T14:07:11Z</time>
      </trkpt>
      <trkpt lat="47.57392" lon="-3.03018">
        <ele>5.2</ele>
        <time>2024-05-07T14:07:12Z</time>
      </trkpt>
      <trkpt lat="47.57393" lon="-3.03016">
        <ele>5.2</ele>
        <time>2024-05-07T14:07:13Z</time>
      </trkpt>
      <trkpt lat="47.57393" lon="-3.03014">
        <ele>5.2</ele>
        <time>2024-05-07T14:07:14Z</time>
      </trkpt>
      <trkpt lat="47.57392" lon="-3.03012">
        <ele>5.4</ele>
        <time>2024-05-07T14:07:15Z</time>
      </trkpt>
      <trkpt lat="47.57392" lon="-3.0301">
        <ele>5.4</ele>
        <time>2024-05-07T14:07:16Z</time>
      </trkpt>
      <trkpt lat="47.57391" lon="-3.03009">
        <ele>5.4</ele>
        <time>2024-05-07T14:07:17Z</time>
      </trkpt>
      <trkpt lat="47.57391" lon="-3.03007">
        <ele>5.4</ele>
        <time>2024-05-07T14:07:18Z</time>
      </trkpt>
      <trkpt lat="47.57391" lon="-3.03006">
        <ele>5.4</ele>
        <time>2024-05-07T14:07:19Z</time>
      </trkpt>
      <trkpt lat="47.5739" lon="-3.03004">
        <ele>5.4</ele>
        <time>2024-05-07T14:07:20Z</time>
      </trkpt>
      <trkpt lat="47.5739" lon="-3.03002">
        <ele>5.4</ele>
        <time>2024-05-07T14:07:21Z</time>
      </trkpt>
      <trkpt lat="47.57389" lon="-3.03">
        <ele>5.6</ele>
        <time>2024-05-07T14:07:22Z</time>
      </trkpt>
      <trkpt lat="47.57389" lon="-3.02998">
        <ele>5.6</ele>
        <time>2024-05-07T14:07:23Z</time>
      </trkpt>
      <trkpt lat="47.57389" lon="-3.02996">
        <ele>5.6</ele>
        <time>2024-05-07T14:07:24Z</time>
      </trkpt>
      <trkpt lat="47.57389" lon="-3.02993">
        <ele>5.6</ele>
        <time>2024-05-07T14:07:25Z</time>
      </trkpt>
      <trkpt lat="47.57389" lon="-3.02992">
        <ele>5.6</ele>
        <time>2024-05-07T14:07:26Z</time>
      </trkpt>
      <trkpt lat="47.57388" lon="-3.0299">
        <ele>5.8</ele>
        <time>2024-05-07T14:07:27Z</time>
      </trkpt>
      <trkpt lat="47.57388" lon="-3.02988">
        <ele>5.8</ele>
        <time>2024-05-07T14:07:28Z</time>
      </trkpt>
      <trkpt lat="47.57388" lon="-3.02986">
        <ele>6</ele>
        <time>2024-05-07T14:07:29Z</time>
      </trkpt>
      <trkpt lat="47.57388" lon="-3.02985">
        <ele>6.4</ele>
        <time>2024-05-07T14:07:30Z</time>
      </trkpt>
      <trkpt lat="47.57388" lon="-3.02983">
        <ele>6.4</ele>
        <time>2024-05-07T14:07:31Z</time>
      </trkpt>
      <trkpt lat="47.57388" lon="-3.02981">
        <ele>6.6</ele>
        <time>2024-05-07T14:07:32Z</time>
      </trkpt>
      <trkpt lat="47.57388" lon="-3.02979">
        <ele>6.6</ele>
        <time>2024-05-07T14:07:33Z</time>
      </trkpt>
      <trkpt lat="47.57388" lon="-3.02977">
        <ele>6.6</ele>
        <time>2024-05-07T14:07:34Z</time>
      </trkpt>
      <trkpt lat="47.57388" lon="-3.02976">
        <ele>6.6</ele>
        <time>2024-05-07T14:07:35Z</time>
      </trkpt>
      <trkpt lat="47.57388" lon="-3.02974">
        <ele>6.8</ele>
        <time>2024-05-07T14:07:36Z</time>
      </trkpt>
      <trkpt lat="47.57389" lon="-3.02972">
        <ele>6.8</ele>
        <time>2024-05-07T14:07:37Z</time>
      </trkpt>
      <trkpt lat="47.57389" lon="-3.0297">
        <ele>6.8</ele>
        <time>2024-05-07T14:07:38Z</time>
      </trkpt>
      <trkpt lat="47.57388" lon="-3.02968">
        <ele>6.8</ele>
        <time>2024-05-07T14:07:39Z</time>
      </trkpt>
      <trkpt lat="47.57386" lon="-3.02966">
        <ele>6.8</ele>
        <time>2024-05-07T14:07:40Z</time>
      </trkpt>
      <trkpt lat="47.57386" lon="-3.02964">
        <ele>6.8</ele>
        <time>2024-05-07T14:07:41Z</time>
      </trkpt>
      <trkpt lat="47.57385" lon="-3.02962">
        <ele>6.8</ele>
        <time>2024-05-07T14:07:42Z</time>
      </trkpt>
      <trkpt lat="47.57385" lon="-3.02961">
        <ele>7</ele>
        <time>2024-05-07T14:07:43Z</time>
      </trkpt>
      <trkpt lat="47.57385" lon="-3.02959">
        <ele>7</ele>
        <time>2024-05-07T14:07:44Z</time>
      </trkpt>
      <trkpt lat="47.57385" lon="-3.02957">
        <ele>7</ele>
        <time>2024-05-07T14:07:45Z</time>
      </trkpt>
      <trkpt lat="47.57385" lon="-3.02956">
        <ele>7</ele>
        <time>2024-05-07T14:07:46Z</time>
      </trkpt>
      <trkpt lat="47.57386" lon="-3.02953">
        <ele>7</ele>
        <time>2024-05-07T14:07:47Z</time>
      </trkpt>
      <trkpt lat="47.57386" lon="-3.02951">
        <ele>7.2</ele>
        <time>2024-05-07T14:07:48Z</time>
      </trkpt>
      <trkpt lat="47.57386" lon="-3.02949">
        <ele>7.2</ele>
        <time>2024-05-07T14:07:49Z</time>
      </trkpt>
      <trkpt lat="47.57387" lon="-3.02947">
        <ele>7.2</ele>
        <time>2024-05-07T14:07:50Z</time>
      </trkpt>
      <trkpt lat="47.57386" lon="-3.02945">
        <ele>7.4</ele>
        <time>2024-05-07T14:07:51Z</time>
      </trkpt>
      <trkpt lat="47.57386" lon="-3.02943">
        <ele>7.4</ele>
        <time>2024-05-07T14:07:52Z</time>
      </trkpt>
      <trkpt lat="47.57385" lon="-3.02941">
        <ele>7.4</ele>
        <time>2024-05-07T14:07:53Z</time>
      </trkpt>
      <trkpt lat="47.57385" lon="-3.02939">
        <ele>7.4</ele>
        <time>2024-05-07T14:07:54Z</time>
      </trkpt>
      <trkpt lat="47.57385" lon="-3.02938">
        <ele>7.4</ele>
        <time>2024-05-07T14:07:55Z</time>
      </trkpt>
      <trkpt lat="47.57385" lon="-3.02936">
        <ele>7.4</ele>
        <time>2024-05-07T14:07:56Z</time>
      </trkpt>
      <trkpt lat="47.57385" lon="-3.02934">
        <ele>7.4</ele>
        <time>2024-05-07T14:07:57Z</time>
      </trkpt>
      <trkpt lat="47.57385" lon="-3.02932">
        <ele>7.2</ele>
        <time>2024-05-07T14:07:58Z</time>
      </trkpt>
      <trkpt lat="47.57384" lon="-3.0293">
        <ele>7.2</ele>
        <time>2024-05-07T14:07:59Z</time>
      </trkpt>
      <trkpt lat="47.57384" lon="-3.02928">
        <ele>7.2</ele>
        <time>2024-05-07T14:08:00Z</time>
      </trkpt>
      <trkpt lat="47.57384" lon="-3.02926">
        <ele>7.2</ele>
        <time>2024-05-07T14:08:01Z</time>
      </trkpt>
      <trkpt lat="47.57385" lon="-3.02924">
        <ele>7.2</ele>
        <time>2024-05-07T14:08:02Z</time>
      </trkpt>
      <trkpt lat="47.57385" lon="-3.02921">
        <ele>7.2</ele>
        <time>2024-05-07T14:08:03Z</time>
      </trkpt>
      <trkpt lat="47.57385" lon="-3.02918">
        <ele>7.2</ele>
        <time>2024-05-07T14:08:04Z</time>
      </trkpt>
      <trkpt lat="47.57385" lon="-3.02917">
        <ele>7.2</ele>
        <time>2024-05-07T14:08:05Z</time>
      </trkpt>
      <trkpt lat="47.57385" lon="-3.02915">
        <ele>7.4</ele>
        <time>2024-05-07T14:08:06Z</time>
      </trkpt>
      <trkpt lat="47.57385" lon="-3.02913">
        <ele>7.4</ele>
        <time>2024-05-07T14:08:07Z</time>
      </trkpt>
      <trkpt lat="47.57385" lon="-3.02911">
        <ele>7.4</ele>
        <time>2024-05-07T14:08:08Z</time>
      </trkpt>
      <trkpt lat="47.57385" lon="-3.02909">
        <ele>7.4</ele>
        <time>2024-05-07T14:08:09Z</time>
      </trkpt>
      <trkpt lat="47.57385" lon="-3.02907">
        <ele>7.6</ele>
        <time>2024-05-07T14:08:10Z</time>
      </trkpt>
      <trkpt lat="47.57385" lon="-3.02906">
        <ele>7.6</ele>
        <time>2024-05-07T14:08:11Z</time>
      </trkpt>
      <trkpt lat="47.57384" lon="-3.02903">
        <ele>7.6</ele>
        <time>2024-05-07T14:08:12Z</time>
      </trkpt>
      <trkpt lat="47.57384" lon="-3.02901">
        <ele>7.6</ele>
        <time>2024-05-07T14:08:13Z</time>
      </trkpt>
      <trkpt lat="47.57384" lon="-3.02899">
        <ele>7.6</ele>
        <time>2024-05-07T14:08:14Z</time>
      </trkpt>
      <trkpt lat="47.57384" lon="-3.02897">
        <ele>7.6</ele>
        <time>2024-05-07T14:08:15Z</time>
      </trkpt>
      <trkpt lat="47.57384" lon="-3.02895">
        <ele>7.6</ele>
        <time>2024-05-07T14:08:16Z</time>
      </trkpt>
      <trkpt lat="47.57384" lon="-3.02893">
        <ele>7.6</ele>
        <time>2024-05-07T14:08:17Z</time>
      </trkpt>
      <trkpt lat="47.57384" lon="-3.02891">
        <ele>7.6</ele>
        <time>2024-05-07T14:08:18Z</time>
      </trkpt>
      <trkpt lat="47.57384" lon="-3.02889">
        <ele>7.6</ele>
        <time>2024-05-07T14:08:19Z</time>
      </trkpt>
      <trkpt lat="47.57384" lon="-3.02887">
        <ele>7.6</ele>
        <time>2024-05-07T14:08:20Z</time>
      </trkpt>
      <trkpt lat="47.57384" lon="-3.02885">
        <ele>8</ele>
        <time>2024-05-07T14:08:21Z</time>
      </trkpt>
      <trkpt lat="47.57384" lon="-3.02882">
        <ele>8.2</ele>
        <time>2024-05-07T14:08:22Z</time>
      </trkpt>
      <trkpt lat="47.57384" lon="-3.02881">
        <ele>8.6</ele>
        <time>2024-05-07T14:08:23Z</time>
      </trkpt>
      <trkpt lat="47.57384" lon="-3.02879">
        <ele>8.6</ele>
        <time>2024-05-07T14:08:24Z</time>
      </trkpt>
      <trkpt lat="47.57384" lon="-3.02877">
        <ele>8.6</ele>
        <time>2024-05-07T14:08:25Z</time>
      </trkpt>
      <trkpt lat="47.57385" lon="-3.02875">
        <ele>8.6</ele>
        <time>2024-05-07T14:08:26Z</time>
      </trkpt>
      <trkpt lat="47.57385" lon="-3.02873">
        <ele>8.6</ele>
        <time>2024-05-07T14:08:27Z</time>
      </trkpt>
      <trkpt lat="47.57386" lon="-3.02872">
        <ele>8.6</ele>
        <time>2024-05-07T14:08:28Z</time>
      </trkpt>
      <trkpt lat="47.57386" lon="-3.0287">
        <ele>8.4</ele>
        <time>2024-05-07T14:08:29Z</time>
      </trkpt>
      <trkpt lat="47.57386" lon="-3.02868">
        <ele>8.2</ele>
        <time>2024-05-07T14:08:30Z</time>
      </trkpt>
      <trkpt lat="47.57386" lon="-3.02865">
        <ele>8</ele>
        <time>2024-05-07T14:08:31Z</time>
      </trkpt>
      <trkpt lat="47.57386" lon="-3.02863">
        <ele>8</ele>
        <time>2024-05-07T14:08:32Z</time>
      </trkpt>
      <trkpt lat="47.57387" lon="-3.0286">
        <ele>8</ele>
        <time>2024-05-07T14:08:33Z</time>
      </trkpt>
      <trkpt lat="47.57387" lon="-3.02857">
        <ele>7.8</ele>
        <time>2024-05-07T14:08:34Z</time>
      </trkpt>
      <trkpt lat="47.57386" lon="-3.02854">
        <ele>7.8</ele>
        <time>2024-05-07T14:08:35Z</time>
      </trkpt>
      <trkpt lat="47.57387" lon="-3.02851">
        <ele>7.6</ele>
        <time>2024-05-07T14:08:36Z</time>
      </trkpt>
      <trkpt lat="47.57386" lon="-3.02848">
        <ele>7.6</ele>
        <time>2024-05-07T14:08:37Z</time>
      </trkpt>
      <trkpt lat="47.57386" lon="-3.02846">
        <ele>7.6</ele>
        <time>2024-05-07T14:08:38Z</time>
      </trkpt>
      <trkpt lat="47.57386" lon="-3.02844">
        <ele>7.6</ele>
        <time>2024-05-07T14:08:39Z</time>
      </trkpt>
      <trkpt lat="47.57387" lon="-3.02843">
        <ele>7.6</ele>
        <time>2024-05-07T14:08:40Z</time>
      </trkpt>
      <trkpt lat="47.57386" lon="-3.02842">
        <ele>7.6</ele>
        <time>2024-05-07T14:08:41Z</time>
      </trkpt>
      <trkpt lat="47.57385" lon="-3.02841">
        <ele>7.6</ele>
        <time>2024-05-07T14:08:42Z</time>
      </trkpt>
      <trkpt lat="47.57385" lon="-3.0284">
        <ele>7.6</ele>
        <time>2024-05-07T14:08:43Z</time>
      </trkpt>
      <trkpt lat="47.57385" lon="-3.02838">
        <ele>7.8</ele>
        <time>2024-05-07T14:08:44Z</time>
      </trkpt>
      <trkpt lat="47.57385" lon="-3.02836">
        <ele>7.8</ele>
        <time>2024-05-07T14:08:45Z</time>
      </trkpt>
      <trkpt lat="47.57386" lon="-3.02835">
        <ele>7.8</ele>
        <time>2024-05-07T14:08:46Z</time>
      </trkpt>
      <trkpt lat="47.57386" lon="-3.02832">
        <ele>7.8</ele>
        <time>2024-05-07T14:08:47Z</time>
      </trkpt>
      <trkpt lat="47.57386" lon="-3.0283">
        <ele>7.8</ele>
        <time>2024-05-07T14:08:48Z</time>
      </trkpt>
      <trkpt lat="47.57386" lon="-3.02828">
        <ele>7.8</ele>
        <time>2024-05-07T14:08:49Z</time>
      </trkpt>
      <trkpt lat="47.57388" lon="-3.02824">
        <ele>8</ele>
        <time>2024-05-07T14:08:50Z</time>
      </trkpt>
      <trkpt lat="47.57388" lon="-3.02822">
        <ele>8</ele>
        <time>2024-05-07T14:08:51Z</time>
      </trkpt>
      <trkpt lat="47.57388" lon="-3.02821">
        <ele>8</ele>
        <time>2024-05-07T14:08:52Z</time>
      </trkpt>
      <trkpt lat="47.57388" lon="-3.0282">
        <ele>8</ele>
        <time>2024-05-07T14:08:53Z</time>
      </trkpt>
      <trkpt lat="47.57388" lon="-3.02819">
        <ele>8</ele>
        <time>2024-05-07T14:08:54Z</time>
      </trkpt>
      <trkpt lat="47.57388" lon="-3.02817">
        <ele>8</ele>
        <time>2024-05-07T14:08:55Z</time>
      </trkpt>
      <trkpt lat="47.57389" lon="-3.02814">
        <ele>8</ele>
        <time>2024-05-07T14:08:56Z</time>
      </trkpt>
      <trkpt lat="47.57388" lon="-3.02812">
        <ele>8</ele>
        <time>2024-05-07T14:08:57Z</time>
      </trkpt>
      <trkpt lat="47.57389" lon="-3.02811">
        <ele>8</ele>
        <time>2024-05-07T14:08:58Z</time>
      </trkpt>
      <trkpt lat="47.57389" lon="-3.02809">
        <ele>8</ele>
        <time>2024-05-07T14:08:59Z</time>
      </trkpt>
      <trkpt lat="47.57389" lon="-3.02807">
        <ele>8</ele>
        <time>2024-05-07T14:09:00Z</time>
      </trkpt>
      <trkpt lat="47.57389" lon="-3.02805">
        <ele>8</ele>
        <time>2024-05-07T14:09:01Z</time>
      </trkpt>
      <trkpt lat="47.57389" lon="-3.02803">
        <ele>8.2</ele>
        <time>2024-05-07T14:09:02Z</time>
      </trkpt>
      <trkpt lat="47.57389" lon="-3.02802">
        <ele>8.2</ele>
        <time>2024-05-07T14:09:03Z</time>
      </trkpt>
      <trkpt lat="47.57389" lon="-3.028">
        <ele>8.2</ele>
        <time>2024-05-07T14:09:04Z</time>
      </trkpt>
      <trkpt lat="47.5739" lon="-3.02799">
        <ele>8.4</ele>
        <time>2024-05-07T14:09:05Z</time>
      </trkpt>
      <trkpt lat="47.5739" lon="-3.02797">
        <ele>8.4</ele>
        <time>2024-05-07T14:09:06Z</time>
      </trkpt>
      <trkpt lat="47.5739" lon="-3.02796">
        <ele>8.4</ele>
        <time>2024-05-07T14:09:07Z</time>
      </trkpt>
      <trkpt lat="47.5739" lon="-3.02794">
        <ele>8.4</ele>
        <time>2024-05-07T14:09:08Z</time>
      </trkpt>
      <trkpt lat="47.5739" lon="-3.02792">
        <ele>8.4</ele>
        <time>2024-05-07T14:09:09Z</time>
      </trkpt>
      <trkpt lat="47.5739" lon="-3.0279">
        <ele>8.4</ele>
        <time>2024-05-07T14:09:10Z</time>
      </trkpt>
      <trkpt lat="47.5739" lon="-3.02788">
        <ele>8.4</ele>
        <time>2024-05-07T14:09:11Z</time>
      </trkpt>
      <trkpt lat="47.5739" lon="-3.02787">
        <ele>8.4</ele>
        <time>2024-05-07T14:09:12Z</time>
      </trkpt>
      <trkpt lat="47.57391" lon="-3.02786">
        <ele>8.4</ele>
        <time>2024-05-07T14:09:13Z</time>
      </trkpt>
      <trkpt lat="47.57391" lon="-3.02784">
        <ele>8.4</ele>
        <time>2024-05-07T14:09:14Z</time>
      </trkpt>
      <trkpt lat="47.57391" lon="-3.02783">
        <ele>8.4</ele>
        <time>2024-05-07T14:09:15Z</time>
      </trkpt>
      <trkpt lat="47.57391" lon="-3.02781">
        <ele>8.4</ele>
        <time>2024-05-07T14:09:16Z</time>
      </trkpt>
      <trkpt lat="47.57392" lon="-3.02778">
        <ele>8.6</ele>
        <time>2024-05-07T14:09:17Z</time>
      </trkpt>
      <trkpt lat="47.57392" lon="-3.02776">
        <ele>8.4</ele>
        <time>2024-05-07T14:09:18Z</time>
      </trkpt>
      <trkpt lat="47.57391" lon="-3.02773">
        <ele>8.4</ele>
        <time>2024-05-07T14:09:19Z</time>
      </trkpt>
      <trkpt lat="47.5739" lon="-3.02772">
        <ele>8.6</ele>
        <time>2024-05-07T14:09:20Z</time>
      </trkpt>
      <trkpt lat="47.57389" lon="-3.0277">
        <ele>8.4</ele>
        <time>2024-05-07T14:09:21Z</time>
      </trkpt>
      <trkpt lat="47.57387" lon="-3.02768">
        <ele>8.4</ele>
        <time>2024-05-07T14:09:22Z</time>
      </trkpt>
      <trkpt lat="47.57386" lon="-3.02767">
        <ele>8.2</ele>
        <time>2024-05-07T14:09:23Z</time>
      </trkpt>
      <trkpt lat="47.57384" lon="-3.02766">
        <ele>8.2</ele>
        <time>2024-05-07T14:09:24Z</time>
      </trkpt>
      <trkpt lat="47.57383" lon="-3.02766">
        <ele>8.2</ele>
        <time>2024-05-07T14:09:25Z</time>
      </trkpt>
      <trkpt lat="47.57382" lon="-3.02766">
        <ele>8.2</ele>
        <time>2024-05-07T14:09:26Z</time>
      </trkpt>
      <trkpt lat="47.57381" lon="-3.02765">
        <ele>8.2</ele>
        <time>2024-05-07T14:09:27Z</time>
      </trkpt>
      <trkpt lat="47.5738" lon="-3.02765">
        <ele>8</ele>
        <time>2024-05-07T14:09:28Z</time>
      </trkpt>
      <trkpt lat="47.5738" lon="-3.02765">
        <ele>8</ele>
        <time>2024-05-07T14:09:29Z</time>
      </trkpt>
      <trkpt lat="47.5738" lon="-3.02765">
        <ele>8</ele>
        <time>2024-05-07T14:09:30Z</time>
      </trkpt>
      <trkpt lat="47.57379" lon="-3.02765">
        <ele>8</ele>
        <time>2024-05-07T14:09:31Z</time>
      </trkpt>
      <trkpt lat="47.57378" lon="-3.02764">
        <ele>8</ele>
        <time>2024-05-07T14:09:32Z</time>
      </trkpt>
      <trkpt lat="47.57376" lon="-3.02763">
        <ele>8</ele>
        <time>2024-05-07T14:09:33Z</time>
      </trkpt>
      <trkpt lat="47.57374" lon="-3.02762">
        <ele>8</ele>
        <time>2024-05-07T14:09:34Z</time>
      </trkpt>
      <trkpt lat="47.57374" lon="-3.02762">
        <ele>7.8</ele>
        <time>2024-05-07T14:09:35Z</time>
      </trkpt>
      <trkpt lat="47.57373" lon="-3.02762">
        <ele>7.8</ele>
        <time>2024-05-07T14:09:36Z</time>
      </trkpt>
      <trkpt lat="47.57372" lon="-3.02762">
        <ele>7.8</ele>
        <time>2024-05-07T14:09:37Z</time>
      </trkpt>
      <trkpt lat="47.57371" lon="-3.02761">
        <ele>7.8</ele>
        <time>2024-05-07T14:09:38Z</time>
      </trkpt>
      <trkpt lat="47.5737" lon="-3.0276">
        <ele>8</ele>
        <time>2024-05-07T14:09:39Z</time>
      </trkpt>
      <trkpt lat="47.57369" lon="-3.02759">
        <ele>8</ele>
        <time>2024-05-07T14:09:40Z</time>
      </trkpt>
      <trkpt lat="47.57367" lon="-3.02758">
        <ele>8.2</ele>
        <time>2024-05-07T14:09:41Z</time>
      </trkpt>
      <trkpt lat="47.57367" lon="-3.02757">
        <ele>8.2</ele>
        <time>2024-05-07T14:09:42Z</time>
      </trkpt>
      <trkpt lat="47.57367" lon="-3.02756">
        <ele>8.2</ele>
        <time>2024-05-07T14:09:43Z</time>
      </trkpt>
      <trkpt lat="47.57367" lon="-3.02755">
        <ele>8.2</ele>
        <time>2024-05-07T14:09:44Z</time>
      </trkpt>
      <trkpt lat="47.57366" lon="-3.02752">
        <ele>8.2</ele>
        <time>2024-05-07T14:09:45Z</time>
      </trkpt>
      <trkpt lat="47.57366" lon="-3.02751">
        <ele>8.2</ele>
        <time>2024-05-07T14:09:46Z</time>
      </trkpt>
      <trkpt lat="47.57365" lon="-3.02749">
        <ele>8.2</ele>
        <time>2024-05-07T14:09:47Z</time>
      </trkpt>
      <trkpt lat="47.57364" lon="-3.02747">
        <ele>8.2</ele>
        <time>2024-05-07T14:09:48Z</time>
      </trkpt>
      <trkpt lat="47.57363" lon="-3.02745">
        <ele>8.6</ele>
        <time>2024-05-07T14:09:49Z</time>
      </trkpt>
      <trkpt lat="47.57362" lon="-3.02743">
        <ele>8.4</ele>
        <time>2024-05-07T14:09:50Z</time>
      </trkpt>
      <trkpt lat="47.57362" lon="-3.02742">
        <ele>8.6</ele>
        <time>2024-05-07T14:09:51Z</time>
      </trkpt>
      <trkpt lat="47.57361" lon="-3.02741">
        <ele>8.6</ele>
        <time>2024-05-07T14:09:52Z</time>
      </trkpt>
      <trkpt lat="47.5736" lon="-3.0274">
        <ele>8.6</ele>
        <time>2024-05-07T14:09:53Z</time>
      </trkpt>
      <trkpt lat="47.57359" lon="-3.02739">
        <ele>9</ele>
        <time>2024-05-07T14:09:54Z</time>
      </trkpt>
      <trkpt lat="47.57358" lon="-3.02738">
        <ele>9</ele>
        <time>2024-05-07T14:09:55Z</time>
      </trkpt>
      <trkpt lat="47.57356" lon="-3.02737">
        <ele>8.8</ele>
        <time>2024-05-07T14:09:56Z</time>
      </trkpt>
      <trkpt lat="47.57355" lon="-3.02736">
        <ele>8.8</ele>
        <time>2024-05-07T14:09:57Z</time>
      </trkpt>
      <trkpt lat="47.57354" lon="-3.02734">
        <ele>8.8</ele>
        <time>2024-05-07T14:09:58Z</time>
      </trkpt>
      <trkpt lat="47.57353" lon="-3.02733">
        <ele>8.8</ele>
        <time>2024-05-07T14:09:59Z</time>
      </trkpt>
      <trkpt lat="47.57352" lon="-3.02731">
        <ele>8.8</ele>
        <time>2024-05-07T14:10:00Z</time>
      </trkpt>
      <trkpt lat="47.57351" lon="-3.0273">
        <ele>8.8</ele>
        <time>2024-05-07T14:10:01Z</time>
      </trkpt>
      <trkpt lat="47.5735" lon="-3.02729">
        <ele>8.6</ele>
        <time>2024-05-07T14:10:02Z</time>
      </trkpt>
      <trkpt lat="47.5735" lon="-3.02727">
        <ele>8.6</ele>
        <time>2024-05-07T14:10:03Z</time>
      </trkpt>
      <trkpt lat="47.57349" lon="-3.02727">
        <ele>8.6</ele>
        <time>2024-05-07T14:10:04Z</time>
      </trkpt>
      <trkpt lat="47.57348" lon="-3.02726">
        <ele>8.6</ele>
        <time>2024-05-07T14:10:05Z</time>
      </trkpt>
      <trkpt lat="47.57347" lon="-3.02725">
        <ele>8.6</ele>
        <time>2024-05-07T14:10:06Z</time>
      </trkpt>
      <trkpt lat="47.57347" lon="-3.02723">
        <ele>8.6</ele>
        <time>2024-05-07T14:10:07Z</time>
      </trkpt>
      <trkpt lat="47.57347" lon="-3.02721">
        <ele>8.4</ele>
        <time>2024-05-07T14:10:08Z</time>
      </trkpt>
      <trkpt lat="47.57347" lon="-3.02719">
        <ele>8.4</ele>
        <time>2024-05-07T14:10:09Z</time>
      </trkpt>
      <trkpt lat="47.57346" lon="-3.02718">
        <ele>8.2</ele>
        <time>2024-05-07T14:10:10Z</time>
      </trkpt>
      <trkpt lat="47.57344" lon="-3.02716">
        <ele>8.2</ele>
        <time>2024-05-07T14:10:11Z</time>
      </trkpt>
      <trkpt lat="47.57343" lon="-3.02714">
        <ele>8.2</ele>
        <time>2024-05-07T14:10:12Z</time>
      </trkpt>
      <trkpt lat="47.57342" lon="-3.02713">
        <ele>8</ele>
        <time>2024-05-07T14:10:13Z</time>
      </trkpt>
      <trkpt lat="47.57341" lon="-3.02712">
        <ele>8</ele>
        <time>2024-05-07T14:10:14Z</time>
      </trkpt>
      <trkpt lat="47.5734" lon="-3.02712">
        <ele>7.8</ele>
        <time>2024-05-07T14:10:15Z</time>
      </trkpt>
      <trkpt lat="47.57338" lon="-3.02711">
        <ele>7.8</ele>
        <time>2024-05-07T14:10:16Z</time>
      </trkpt>
      <trkpt lat="47.57338" lon="-3.02711">
        <ele>7.6</ele>
        <time>2024-05-07T14:10:17Z</time>
      </trkpt>
      <trkpt lat="47.57336" lon="-3.0271">
        <ele>7.6</ele>
        <time>2024-05-07T14:10:18Z</time>
      </trkpt>
      <trkpt lat="47.57335" lon="-3.0271">
        <ele>7.4</ele>
        <time>2024-05-07T14:10:19Z</time>
      </trkpt>
      <trkpt lat="47.57333" lon="-3.02709">
        <ele>7.4</ele>
        <time>2024-05-07T14:10:20Z</time>
      </trkpt>
      <trkpt lat="47.57332" lon="-3.02708">
        <ele>7.4</ele>
        <time>2024-05-07T14:10:21Z</time>
      </trkpt>
      <trkpt lat="47.5733" lon="-3.02707">
        <ele>7.2</ele>
        <time>2024-05-07T14:10:22Z</time>
      </trkpt>
      <trkpt lat="47.57329" lon="-3.02706">
        <ele>7.2</ele>
        <time>2024-05-07T14:10:23Z</time>
      </trkpt>
      <trkpt lat="47.57328" lon="-3.02704">
        <ele>7.2</ele>
        <time>2024-05-07T14:10:24Z</time>
      </trkpt>
      <trkpt lat="47.57327" lon="-3.02703">
        <ele>7.2</ele>
        <time>2024-05-07T14:10:25Z</time>
      </trkpt>
      <trkpt lat="47.57326" lon="-3.02702">
        <ele>7.2</ele>
        <time>2024-05-07T14:10:26Z</time>
      </trkpt>
      <trkpt lat="47.57325" lon="-3.02701">
        <ele>7.2</ele>
        <time>2024-05-07T14:10:27Z</time>
      </trkpt>
      <trkpt lat="47.57324" lon="-3.02699">
        <ele>7.2</ele>
        <time>2024-05-07T14:10:28Z</time>
      </trkpt>
      <trkpt lat="47.57323" lon="-3.02697">
        <ele>7.2</ele>
        <time>2024-05-07T14:10:29Z</time>
      </trkpt>
      <trkpt lat="47.57323" lon="-3.02695">
        <ele>7.2</ele>
        <time>2024-05-07T14:10:30Z</time>
      </trkpt>
      <trkpt lat="47.57322" lon="-3.02693">
        <ele>7.2</ele>
        <time>2024-05-07T14:10:31Z</time>
      </trkpt>
      <trkpt lat="47.57321" lon="-3.02692">
        <ele>7.2</ele>
        <time>2024-05-07T14:10:32Z</time>
      </trkpt>
      <trkpt lat="47.5732" lon="-3.02691">
        <ele>7.2</ele>
        <time>2024-05-07T14:10:33Z</time>
      </trkpt>
      <trkpt lat="47.5732" lon="-3.0269">
        <ele>7.2</ele>
        <time>2024-05-07T14:10:34Z</time>
      </trkpt>
      <trkpt lat="47.57319" lon="-3.02688">
        <ele>7.2</ele>
        <time>2024-05-07T14:10:35Z</time>
      </trkpt>
      <trkpt lat="47.57319" lon="-3.02686">
        <ele>7.2</ele>
        <time>2024-05-07T14:10:36Z</time>
      </trkpt>
      <trkpt lat="47.57318" lon="-3.02685">
        <ele>7.2</ele>
        <time>2024-05-07T14:10:37Z</time>
      </trkpt>
      <trkpt lat="47.57317" lon="-3.02684">
        <ele>7.2</ele>
        <time>2024-05-07T14:10:38Z</time>
      </trkpt>
      <trkpt lat="47.57316" lon="-3.02683">
        <ele>7.2</ele>
        <time>2024-05-07T14:10:39Z</time>
      </trkpt>
      <trkpt lat="47.57315" lon="-3.02681">
        <ele>7.2</ele>
        <time>2024-05-07T14:10:40Z</time>
      </trkpt>
      <trkpt lat="47.57313" lon="-3.0268">
        <ele>7.2</ele>
        <time>2024-05-07T14:10:41Z</time>
      </trkpt>
      <trkpt lat="47.57312" lon="-3.02679">
        <ele>7.2</ele>
        <time>2024-05-07T14:10:42Z</time>
      </trkpt>
      <trkpt lat="47.5731" lon="-3.02679">
        <ele>7.2</ele>
        <time>2024-05-07T14:10:43Z</time>
      </trkpt>
      <trkpt lat="47.57309" lon="-3.02679">
        <ele>7.2</ele>
        <time>2024-05-07T14:10:44Z</time>
      </trkpt>
      <trkpt lat="47.57308" lon="-3.02678">
        <ele>7.4</ele>
        <time>2024-05-07T14:10:45Z</time>
      </trkpt>
      <trkpt lat="47.57307" lon="-3.02677">
        <ele>7.4</ele>
        <time>2024-05-07T14:10:46Z</time>
      </trkpt>
      <trkpt lat="47.57306" lon="-3.02677">
        <ele>7.4</ele>
        <time>2024-05-07T14:10:47Z</time>
      </trkpt>
      <trkpt lat="47.57305" lon="-3.02675">
        <ele>7.4</ele>
        <time>2024-05-07T14:10:48Z</time>
      </trkpt>
      <trkpt lat="47.57303" lon="-3.02674">
        <ele>7.4</ele>
        <time>2024-05-07T14:10:49Z</time>
      </trkpt>
      <trkpt lat="47.57302" lon="-3.02672">
        <ele>7.4</ele>
        <time>2024-05-07T14:10:50Z</time>
      </trkpt>
      <trkpt lat="47.57301" lon="-3.02671">
        <ele>7.4</ele>
        <time>2024-05-07T14:10:51Z</time>
      </trkpt>
      <trkpt lat="47.573" lon="-3.0267">
        <ele>7.4</ele>
        <time>2024-05-07T14:10:52Z</time>
      </trkpt>
      <trkpt lat="47.57299" lon="-3.02669">
        <ele>7.4</ele>
        <time>2024-05-07T14:10:53Z</time>
      </trkpt>
      <trkpt lat="47.57298" lon="-3.02668">
        <ele>7.2</ele>
        <time>2024-05-07T14:10:54Z</time>
      </trkpt>
      <trkpt lat="47.57298" lon="-3.02667">
        <ele>7.2</ele>
        <time>2024-05-07T14:10:55Z</time>
      </trkpt>
      <trkpt lat="47.57297" lon="-3.02666">
        <ele>7.2</ele>
        <time>2024-05-07T14:10:56Z</time>
      </trkpt>
      <trkpt lat="47.57296" lon="-3.02665">
        <ele>7</ele>
        <time>2024-05-07T14:10:57Z</time>
      </trkpt>
      <trkpt lat="47.57295" lon="-3.02663">
        <ele>6.8</ele>
        <time>2024-05-07T14:10:58Z</time>
      </trkpt>
      <trkpt lat="47.57293" lon="-3.02663">
        <ele>6.6</ele>
        <time>2024-05-07T14:10:59Z</time>
      </trkpt>
      <trkpt lat="47.57291" lon="-3.02662">
        <ele>6.6</ele>
        <time>2024-05-07T14:11:00Z</time>
      </trkpt>
      <trkpt lat="47.57289" lon="-3.02662">
        <ele>6.4</ele>
        <time>2024-05-07T14:11:01Z</time>
      </trkpt>
      <trkpt lat="47.57288" lon="-3.02661">
        <ele>6.4</ele>
        <time>2024-05-07T14:11:02Z</time>
      </trkpt>
      <trkpt lat="47.57286" lon="-3.02659">
        <ele>6.4</ele>
        <time>2024-05-07T14:11:03Z</time>
      </trkpt>
      <trkpt lat="47.57285" lon="-3.02658">
        <ele>6.4</ele>
        <time>2024-05-07T14:11:04Z</time>
      </trkpt>
      <trkpt lat="47.57284" lon="-3.02657">
        <ele>6.4</ele>
        <time>2024-05-07T14:11:05Z</time>
      </trkpt>
      <trkpt lat="47.57283" lon="-3.02656">
        <ele>6.4</ele>
        <time>2024-05-07T14:11:06Z</time>
      </trkpt>
      <trkpt lat="47.57282" lon="-3.02655">
        <ele>6.4</ele>
        <time>2024-05-07T14:11:07Z</time>
      </trkpt>
      <trkpt lat="47.57282" lon="-3.02654">
        <ele>6.2</ele>
        <time>2024-05-07T14:11:08Z</time>
      </trkpt>
      <trkpt lat="47.57281" lon="-3.02654">
        <ele>6.2</ele>
        <time>2024-05-07T14:11:09Z</time>
      </trkpt>
      <trkpt lat="47.5728" lon="-3.02653">
        <ele>6.2</ele>
        <time>2024-05-07T14:11:10Z</time>
      </trkpt>
      <trkpt lat="47.57278" lon="-3.02652">
        <ele>6.2</ele>
        <time>2024-05-07T14:11:11Z</time>
      </trkpt>
      <trkpt lat="47.57275" lon="-3.0265">
        <ele>6.2</ele>
        <time>2024-05-07T14:11:12Z</time>
      </trkpt>
      <trkpt lat="47.57274" lon="-3.02648">
        <ele>6.2</ele>
        <time>2024-05-07T14:11:13Z</time>
      </trkpt>
      <trkpt lat="47.57273" lon="-3.02647">
        <ele>6.2</ele>
        <time>2024-05-07T14:11:14Z</time>
      </trkpt>
      <trkpt lat="47.57272" lon="-3.02646">
        <ele>6</ele>
        <time>2024-05-07T14:11:15Z</time>
      </trkpt>
      <trkpt lat="47.57271" lon="-3.02644">
        <ele>6</ele>
        <time>2024-05-07T14:11:16Z</time>
      </trkpt>
      <trkpt lat="47.57269" lon="-3.02643">
        <ele>5.8</ele>
        <time>2024-05-07T14:11:17Z</time>
      </trkpt>
      <trkpt lat="47.57269" lon="-3.02642">
        <ele>5.8</ele>
        <time>2024-05-07T14:11:18Z</time>
      </trkpt>
      <trkpt lat="47.57268" lon="-3.02641">
        <ele>5.6</ele>
        <time>2024-05-07T14:11:19Z</time>
      </trkpt>
      <trkpt lat="47.57267" lon="-3.02639">
        <ele>5.6</ele>
        <time>2024-05-07T14:11:20Z</time>
      </trkpt>
      <trkpt lat="47.57266" lon="-3.02638">
        <ele>5.6</ele>
        <time>2024-05-07T14:11:21Z</time>
      </trkpt>
      <trkpt lat="47.57265" lon="-3.02637">
        <ele>5.4</ele>
        <time>2024-05-07T14:11:22Z</time>
      </trkpt>
      <trkpt lat="47.57264" lon="-3.02637">
        <ele>5.4</ele>
        <time>2024-05-07T14:11:23Z</time>
      </trkpt>
      <trkpt lat="47.57262" lon="-3.02636">
        <ele>5.4</ele>
        <time>2024-05-07T14:11:24Z</time>
      </trkpt>
      <trkpt lat="47.57261" lon="-3.02635">
        <ele>5.4</ele>
        <time>2024-05-07T14:11:25Z</time>
      </trkpt>
      <trkpt lat="47.5726" lon="-3.02634">
        <ele>5.4</ele>
        <time>2024-05-07T14:11:26Z</time>
      </trkpt>
      <trkpt lat="47.57259" lon="-3.02633">
        <ele>5.4</ele>
        <time>2024-05-07T14:11:27Z</time>
      </trkpt>
      <trkpt lat="47.57259" lon="-3.02631">
        <ele>5.4</ele>
        <time>2024-05-07T14:11:28Z</time>
      </trkpt>
      <trkpt lat="47.57258" lon="-3.0263">
        <ele>5.4</ele>
        <time>2024-05-07T14:11:29Z</time>
      </trkpt>
      <trkpt lat="47.57256" lon="-3.02628">
        <ele>5.6</ele>
        <time>2024-05-07T14:11:30Z</time>
      </trkpt>
      <trkpt lat="47.57254" lon="-3.02627">
        <ele>5.6</ele>
        <time>2024-05-07T14:11:31Z</time>
      </trkpt>
      <trkpt lat="47.57253" lon="-3.02626">
        <ele>5.6</ele>
        <time>2024-05-07T14:11:32Z</time>
      </trkpt>
      <trkpt lat="47.57251" lon="-3.02625">
        <ele>5.6</ele>
        <time>2024-05-07T14:11:33Z</time>
      </trkpt>
      <trkpt lat="47.5725" lon="-3.02624">
        <ele>5.6</ele>
        <time>2024-05-07T14:11:34Z</time>
      </trkpt>
      <trkpt lat="47.5725" lon="-3.02623">
        <ele>5.6</ele>
        <time>2024-05-07T14:11:35Z</time>
      </trkpt>
      <trkpt lat="47.57249" lon="-3.02622">
        <ele>5.6</ele>
        <time>2024-05-07T14:11:36Z</time>
      </trkpt>
      <trkpt lat="47.57248" lon="-3.02622">
        <ele>5.6</ele>
        <time>2024-05-07T14:11:37Z</time>
      </trkpt>
      <trkpt lat="47.57247" lon="-3.02621">
        <ele>5.6</ele>
        <time>2024-05-07T14:11:38Z</time>
      </trkpt>
      <trkpt lat="47.57245" lon="-3.0262">
        <ele>5.6</ele>
        <time>2024-05-07T14:11:39Z</time>
      </trkpt>
      <trkpt lat="47.57244" lon="-3.02619">
        <ele>5.6</ele>
        <time>2024-05-07T14:11:40Z</time>
      </trkpt>
      <trkpt lat="47.57244" lon="-3.02617">
        <ele>5.4</ele>
        <time>2024-05-07T14:11:41Z</time>
      </trkpt>
      <trkpt lat="47.57243" lon="-3.02617">
        <ele>5.4</ele>
        <time>2024-05-07T14:11:42Z</time>
      </trkpt>
      <trkpt lat="47.57241" lon="-3.02616">
        <ele>5.4</ele>
        <time>2024-05-07T14:11:43Z</time>
      </trkpt>
      <trkpt lat="47.5724" lon="-3.02615">
        <ele>5.4</ele>
        <time>2024-05-07T14:11:44Z</time>
      </trkpt>
      <trkpt lat="47.57238" lon="-3.02614">
        <ele>5.4</ele>
        <time>2024-05-07T14:11:45Z</time>
      </trkpt>
      <trkpt lat="47.57237" lon="-3.02613">
        <ele>5.2</ele>
        <time>2024-05-07T14:11:46Z</time>
      </trkpt>
      <trkpt lat="47.57236" lon="-3.02612">
        <ele>5.2</ele>
        <time>2024-05-07T14:11:47Z</time>
      </trkpt>
      <trkpt lat="47.57236" lon="-3.02611">
        <ele>5.2</ele>
        <time>2024-05-07T14:11:48Z</time>
      </trkpt>
      <trkpt lat="47.57235" lon="-3.0261">
        <ele>5.2</ele>
        <time>2024-05-07T14:11:49Z</time>
      </trkpt>
      <trkpt lat="47.57234" lon="-3.02608">
        <ele>5.2</ele>
        <time>2024-05-07T14:11:50Z</time>
      </trkpt>
      <trkpt lat="47.57234" lon="-3.02607">
        <ele>5.2</ele>
        <time>2024-05-07T14:11:51Z</time>
      </trkpt>
      <trkpt lat="47.57232" lon="-3.02606">
        <ele>5.2</ele>
        <time>2024-05-07T14:11:52Z</time>
      </trkpt>
      <trkpt lat="47.57231" lon="-3.02605">
        <ele>5.2</ele>
        <time>2024-05-07T14:11:53Z</time>
      </trkpt>
      <trkpt lat="47.57229" lon="-3.02605">
        <ele>5.2</ele>
        <time>2024-05-07T14:11:54Z</time>
      </trkpt>
      <trkpt lat="47.57228" lon="-3.02604">
        <ele>5.2</ele>
        <time>2024-05-07T14:11:55Z</time>
      </trkpt>
      <trkpt lat="47.57227" lon="-3.02604">
        <ele>5.4</ele>
        <time>2024-05-07T14:11:56Z</time>
      </trkpt>
      <trkpt lat="47.57226" lon="-3.02603">
        <ele>5.4</ele>
        <time>2024-05-07T14:11:57Z</time>
      </trkpt>
      <trkpt lat="47.57225" lon="-3.02604">
        <ele>5.4</ele>
        <time>2024-05-07T14:11:58Z</time>
      </trkpt>
      <trkpt lat="47.57224" lon="-3.02605">
        <ele>5.4</ele>
        <time>2024-05-07T14:11:59Z</time>
      </trkpt>
      <trkpt lat="47.57223" lon="-3.02606">
        <ele>5.4</ele>
        <time>2024-05-07T14:12:00Z</time>
      </trkpt>
      <trkpt lat="47.57223" lon="-3.02608">
        <ele>5.4</ele>
        <time>2024-05-07T14:12:01Z</time>
      </trkpt>
      <trkpt lat="47.57222" lon="-3.0261">
        <ele>5.4</ele>
        <time>2024-05-07T14:12:02Z</time>
      </trkpt>
      <trkpt lat="47.57221" lon="-3.02612">
        <ele>5.4</ele>
        <time>2024-05-07T14:12:03Z</time>
      </trkpt>
      <trkpt lat="47.5722" lon="-3.02614">
        <ele>5.4</ele>
        <time>2024-05-07T14:12:04Z</time>
      </trkpt>
      <trkpt lat="47.5722" lon="-3.02616">
        <ele>5.2</ele>
        <time>2024-05-07T14:12:05Z</time>
      </trkpt>
      <trkpt lat="47.57219" lon="-3.02619">
        <ele>5.2</ele>
        <time>2024-05-07T14:12:06Z</time>
      </trkpt>
      <trkpt lat="47.57219" lon="-3.0262">
        <ele>5.2</ele>
        <time>2024-05-07T14:12:07Z</time>
      </trkpt>
      <trkpt lat="47.57218" lon="-3.02622">
        <ele>5</ele>
        <time>2024-05-07T14:12:08Z</time>
      </trkpt>
      <trkpt lat="47.57217" lon="-3.02625">
        <ele>5</ele>
        <time>2024-05-07T14:12:09Z</time>
      </trkpt>
      <trkpt lat="47.57216" lon="-3.02627">
        <ele>5</ele>
        <time>2024-05-07T14:12:10Z</time>
      </trkpt>
      <trkpt lat="47.57216" lon="-3.02628">
        <ele>5</ele>
        <time>2024-05-07T14:12:11Z</time>
      </trkpt>
      <trkpt lat="47.57215" lon="-3.0263">
        <ele>4.8</ele>
        <time>2024-05-07T14:12:12Z</time>
      </trkpt>
      <trkpt lat="47.57214" lon="-3.02632">
        <ele>4.8</ele>
        <time>2024-05-07T14:12:13Z</time>
      </trkpt>
      <trkpt lat="47.57213" lon="-3.02634">
        <ele>4.8</ele>
        <time>2024-05-07T14:12:14Z</time>
      </trkpt>
      <trkpt lat="47.57212" lon="-3.02636">
        <ele>4.8</ele>
        <time>2024-05-07T14:12:15Z</time>
      </trkpt>
      <trkpt lat="47.57212" lon="-3.02637">
        <ele>4.8</ele>
        <time>2024-05-07T14:12:16Z</time>
      </trkpt>
      <trkpt lat="47.57211" lon="-3.02638">
        <ele>4.8</ele>
        <time>2024-05-07T14:12:17Z</time>
      </trkpt>
      <trkpt lat="47.5721" lon="-3.02639">
        <ele>4.8</ele>
        <time>2024-05-07T14:12:18Z</time>
      </trkpt>
      <trkpt lat="47.57209" lon="-3.0264">
        <ele>4.8</ele>
        <time>2024-05-07T14:12:19Z</time>
      </trkpt>
      <trkpt lat="47.57209" lon="-3.02642">
        <ele>4.8</ele>
        <time>2024-05-07T14:12:20Z</time>
      </trkpt>
      <trkpt lat="47.57208" lon="-3.02644">
        <ele>4.8</ele>
        <time>2024-05-07T14:12:21Z</time>
      </trkpt>
      <trkpt lat="47.57207" lon="-3.02646">
        <ele>4.8</ele>
        <time>2024-05-07T14:12:22Z</time>
      </trkpt>
      <trkpt lat="47.57206" lon="-3.02647">
        <ele>4.8</ele>
        <time>2024-05-07T14:12:23Z</time>
      </trkpt>
      <trkpt lat="47.57205" lon="-3.0265">
        <ele>4.6</ele>
        <time>2024-05-07T14:12:24Z</time>
      </trkpt>
      <trkpt lat="47.57205" lon="-3.02652">
        <ele>4.6</ele>
        <time>2024-05-07T14:12:25Z</time>
      </trkpt>
      <trkpt lat="47.57204" lon="-3.02654">
        <ele>4.4</ele>
        <time>2024-05-07T14:12:26Z</time>
      </trkpt>
      <trkpt lat="47.57204" lon="-3.02655">
        <ele>4.4</ele>
        <time>2024-05-07T14:12:27Z</time>
      </trkpt>
      <trkpt lat="47.57204" lon="-3.02656">
        <ele>4.4</ele>
        <time>2024-05-07T14:12:28Z</time>
      </trkpt>
      <trkpt lat="47.57203" lon="-3.02658">
        <ele>4.4</ele>
        <time>2024-05-07T14:12:29Z</time>
      </trkpt>
      <trkpt lat="47.57202" lon="-3.02659">
        <ele>4.4</ele>
        <time>2024-05-07T14:12:30Z</time>
      </trkpt>
      <trkpt lat="47.57202" lon="-3.02661">
        <ele>4.2</ele>
        <time>2024-05-07T14:12:31Z</time>
      </trkpt>
      <trkpt lat="47.57201" lon="-3.02663">
        <ele>4.2</ele>
        <time>2024-05-07T14:12:32Z</time>
      </trkpt>
      <trkpt lat="47.57201" lon="-3.02665">
        <ele>4.2</ele>
        <time>2024-05-07T14:12:33Z</time>
      </trkpt>
      <trkpt lat="47.572" lon="-3.02667">
        <ele>4.2</ele>
        <time>2024-05-07T14:12:34Z</time>
      </trkpt>
      <trkpt lat="47.572" lon="-3.02669">
        <ele>4.2</ele>
        <time>2024-05-07T14:12:35Z</time>
      </trkpt>
      <trkpt lat="47.57199" lon="-3.02671">
        <ele>4.2</ele>
        <time>2024-05-07T14:12:36Z</time>
      </trkpt>
      <trkpt lat="47.57198" lon="-3.02673">
        <ele>4.2</ele>
        <time>2024-05-07T14:12:37Z</time>
      </trkpt>
      <trkpt lat="47.57198" lon="-3.02675">
        <ele>4</ele>
        <time>2024-05-07T14:12:38Z</time>
      </trkpt>
      <trkpt lat="47.57197" lon="-3.02677">
        <ele>4</ele>
        <time>2024-05-07T14:12:39Z</time>
      </trkpt>
      <trkpt lat="47.57197" lon="-3.02679">
        <ele>4</ele>
        <time>2024-05-07T14:12:40Z</time>
      </trkpt>
      <trkpt lat="47.57196" lon="-3.02681">
        <ele>3.8</ele>
        <time>2024-05-07T14:12:41Z</time>
      </trkpt>
      <trkpt lat="47.57196" lon="-3.02682">
        <ele>3.8</ele>
        <time>2024-05-07T14:12:42Z</time>
      </trkpt>
      <trkpt lat="47.57195" lon="-3.02684">
        <ele>3.6</ele>
        <time>2024-05-07T14:12:43Z</time>
      </trkpt>
      <trkpt lat="47.57194" lon="-3.02686">
        <ele>3.6</ele>
        <time>2024-05-07T14:12:44Z</time>
      </trkpt>
      <trkpt lat="47.57193" lon="-3.02687">
        <ele>3.6</ele>
        <time>2024-05-07T14:12:45Z</time>
      </trkpt>
      <trkpt lat="47.57193" lon="-3.02689">
        <ele>3.6</ele>
        <time>2024-05-07T14:12:46Z</time>
      </trkpt>
      <trkpt lat="47.57193" lon="-3.02691">
        <ele>3.6</ele>
        <time>2024-05-07T14:12:47Z</time>
      </trkpt>
      <trkpt lat="47.57192" lon="-3.02692">
        <ele>3.4</ele>
        <time>2024-05-07T14:12:48Z</time>
      </trkpt>
      <trkpt lat="47.57192" lon="-3.02693">
        <ele>3.4</ele>
        <time>2024-05-07T14:12:49Z</time>
      </trkpt>
      <trkpt lat="47.57192" lon="-3.02695">
        <ele>3.4</ele>
        <time>2024-05-07T14:12:50Z</time>
      </trkpt>
      <trkpt lat="47.57191" lon="-3.02697">
        <ele>3.4</ele>
        <time>2024-05-07T14:12:51Z</time>
      </trkpt>
      <trkpt lat="47.57191" lon="-3.02699">
        <ele>3.4</ele>
        <time>2024-05-07T14:12:52Z</time>
      </trkpt>
      <trkpt lat="47.57191" lon="-3.027">
        <ele>3.4</ele>
        <time>2024-05-07T14:12:53Z</time>
      </trkpt>
      <trkpt lat="47.57191" lon="-3.027">
        <ele>3.4</ele>
        <time>2024-05-07T14:12:54Z</time>
      </trkpt>
      <trkpt lat="47.57192" lon="-3.02701">
        <ele>3.4</ele>
        <time>2024-05-07T14:12:55Z</time>
      </trkpt>
      <trkpt lat="47.57192" lon="-3.02701">
        <ele>3.4</ele>
        <time>2024-05-07T14:12:56Z</time>
      </trkpt>
      <trkpt lat="47.57192" lon="-3.02702">
        <ele>3.4</ele>
        <time>2024-05-07T14:12:57Z</time>
      </trkpt>
      <trkpt lat="47.57192" lon="-3.02702">
        <ele>3.4</ele>
        <time>2024-05-07T14:12:58Z</time>
      </trkpt>
      <trkpt lat="47.57192" lon="-3.02703">
        <ele>3.2</ele>
        <time>2024-05-07T14:12:59Z</time>
      </trkpt>
      <trkpt lat="47.57191" lon="-3.02704">
        <ele>3.2</ele>
        <time>2024-05-07T14:13:00Z</time>
      </trkpt>
      <trkpt lat="47.5719" lon="-3.02704">
        <ele>3</ele>
        <time>2024-05-07T14:13:01Z</time>
      </trkpt>
      <trkpt lat="47.57189" lon="-3.02706">
        <ele>2.8</ele>
        <time>2024-05-07T14:13:02Z</time>
      </trkpt>
      <trkpt lat="47.57189" lon="-3.02707">
        <ele>2.8</ele>
        <time>2024-05-07T14:13:03Z</time>
      </trkpt>
      <trkpt lat="47.57189" lon="-3.02709">
        <ele>2.6</ele>
        <time>2024-05-07T14:13:04Z</time>
      </trkpt>
      <trkpt lat="47.57188" lon="-3.02711">
        <ele>2.4</ele>
        <time>2024-05-07T14:13:05Z</time>
      </trkpt>
      <trkpt lat="47.57188" lon="-3.02712">
        <ele>2.4</ele>
        <time>2024-05-07T14:13:06Z</time>
      </trkpt>
      <trkpt lat="47.57188" lon="-3.02713">
        <ele>2.4</ele>
        <time>2024-05-07T14:13:07Z</time>
      </trkpt>
      <trkpt lat="47.57187" lon="-3.02715">
        <ele>2.2</ele>
        <time>2024-05-07T14:13:08Z</time>
      </trkpt>
      <trkpt lat="47.57186" lon="-3.02716">
        <ele>2.2</ele>
        <time>2024-05-07T14:13:09Z</time>
      </trkpt>
      <trkpt lat="47.57185" lon="-3.02717">
        <ele>2.2</ele>
        <time>2024-05-07T14:13:10Z</time>
      </trkpt>
      <trkpt lat="47.57184" lon="-3.02719">
        <ele>2</ele>
        <time>2024-05-07T14:13:11Z</time>
      </trkpt>
      <trkpt lat="47.57184" lon="-3.02721">
        <ele>2</ele>
        <time>2024-05-07T14:13:12Z</time>
      </trkpt>
      <trkpt lat="47.57183" lon="-3.02723">
        <ele>2</ele>
        <time>2024-05-07T14:13:13Z</time>
      </trkpt>
      <trkpt lat="47.57182" lon="-3.02724">
        <ele>2</ele>
        <time>2024-05-07T14:13:14Z</time>
      </trkpt>
      <trkpt lat="47.57181" lon="-3.02725">
        <ele>2</ele>
        <time>2024-05-07T14:13:15Z</time>
      </trkpt>
      <trkpt lat="47.5718" lon="-3.02727">
        <ele>2</ele>
        <time>2024-05-07T14:13:16Z</time>
      </trkpt>
      <trkpt lat="47.57179" lon="-3.02729">
        <ele>2</ele>
        <time>2024-05-07T14:13:17Z</time>
      </trkpt>
      <trkpt lat="47.57178" lon="-3.0273">
        <ele>2</ele>
        <time>2024-05-07T14:13:18Z</time>
      </trkpt>
      <trkpt lat="47.57177" lon="-3.02732">
        <ele>2</ele>
        <time>2024-05-07T14:13:19Z</time>
      </trkpt>
      <trkpt lat="47.57177" lon="-3.02734">
        <ele>2</ele>
        <time>2024-05-07T14:13:20Z</time>
      </trkpt>
      <trkpt lat="47.57175" lon="-3.02736">
        <ele>2</ele>
        <time>2024-05-07T14:13:21Z</time>
      </trkpt>
      <trkpt lat="47.57175" lon="-3.02738">
        <ele>2</ele>
        <time>2024-05-07T14:13:22Z</time>
      </trkpt>
      <trkpt lat="47.57175" lon="-3.02739">
        <ele>2</ele>
        <time>2024-05-07T14:13:23Z</time>
      </trkpt>
      <trkpt lat="47.57174" lon="-3.0274">
        <ele>2</ele>
        <time>2024-05-07T14:13:24Z</time>
      </trkpt>
      <trkpt lat="47.57173" lon="-3.02741">
        <ele>2</ele>
        <time>2024-05-07T14:13:25Z</time>
      </trkpt>
      <trkpt lat="47.57172" lon="-3.02742">
        <ele>2</ele>
        <time>2024-05-07T14:13:26Z</time>
      </trkpt>
      <trkpt lat="47.57171" lon="-3.02744">
        <ele>2</ele>
        <time>2024-05-07T14:13:27Z</time>
      </trkpt>
      <trkpt lat="47.57171" lon="-3.02746">
        <ele>2.2</ele>
        <time>2024-05-07T14:13:28Z</time>
      </trkpt>
      <trkpt lat="47.5717" lon="-3.02747">
        <ele>2.2</ele>
        <time>2024-05-07T14:13:29Z</time>
      </trkpt>
      <trkpt lat="47.57169" lon="-3.02749">
        <ele>2.2</ele>
        <time>2024-05-07T14:13:30Z</time>
      </trkpt>
      <trkpt lat="47.57169" lon="-3.02751">
        <ele>2.2</ele>
        <time>2024-05-07T14:13:31Z</time>
      </trkpt>
      <trkpt lat="47.57168" lon="-3.02753">
        <ele>2.2</ele>
        <time>2024-05-07T14:13:32Z</time>
      </trkpt>
      <trkpt lat="47.57168" lon="-3.02755">
        <ele>2.2</ele>
        <time>2024-05-07T14:13:33Z</time>
      </trkpt>
      <trkpt lat="47.57167" lon="-3.02755">
        <ele>2.2</ele>
        <time>2024-05-07T14:13:34Z</time>
      </trkpt>
      <trkpt lat="47.57168" lon="-3.02755">
        <ele>2.2</ele>
        <time>2024-05-07T14:13:35Z</time>
      </trkpt>
      <trkpt lat="47.57167" lon="-3.02756">
        <ele>2.2</ele>
        <time>2024-05-07T14:13:36Z</time>
      </trkpt>
      <trkpt lat="47.57166" lon="-3.02757">
        <ele>2.4</ele>
        <time>2024-05-07T14:13:37Z</time>
      </trkpt>
      <trkpt lat="47.57166" lon="-3.02758">
        <ele>2.4</ele>
        <time>2024-05-07T14:13:38Z</time>
      </trkpt>
      <trkpt lat="47.57165" lon="-3.0276">
        <ele>2.4</ele>
        <time>2024-05-07T14:13:39Z</time>
      </trkpt>
      <trkpt lat="47.57163" lon="-3.02761">
        <ele>2.6</ele>
        <time>2024-05-07T14:13:40Z</time>
      </trkpt>
      <trkpt lat="47.57163" lon="-3.02763">
        <ele>2.6</ele>
        <time>2024-05-07T14:13:41Z</time>
      </trkpt>
      <trkpt lat="47.57161" lon="-3.02764">
        <ele>2.6</ele>
        <time>2024-05-07T14:13:42Z</time>
      </trkpt>
      <trkpt lat="47.57159" lon="-3.02766">
        <ele>2.6</ele>
        <time>2024-05-07T14:13:43Z</time>
      </trkpt>
      <trkpt lat="47.57158" lon="-3.02767">
        <ele>2.6</ele>
        <time>2024-05-07T14:13:44Z</time>
      </trkpt>
      <trkpt lat="47.57157" lon="-3.02768">
        <ele>2.6</ele>
        <time>2024-05-07T14:13:45Z</time>
      </trkpt>
      <trkpt lat="47.57155" lon="-3.02769">
        <ele>2.4</ele>
        <time>2024-05-07T14:13:46Z</time>
      </trkpt>
      <trkpt lat="47.57154" lon="-3.02769">
        <ele>2.4</ele>
        <time>2024-05-07T14:13:47Z</time>
      </trkpt>
      <trkpt lat="47.57153" lon="-3.02769">
        <ele>2.4</ele>
        <time>2024-05-07T14:13:48Z</time>
      </trkpt>
      <trkpt lat="47.57153" lon="-3.0277">
        <ele>2.4</ele>
        <time>2024-05-07T14:13:49Z</time>
      </trkpt>
      <trkpt lat="47.57152" lon="-3.02772">
        <ele>2.4</ele>
        <time>2024-05-07T14:13:50Z</time>
      </trkpt>
      <trkpt lat="47.57151" lon="-3.02772">
        <ele>2.4</ele>
        <time>2024-05-07T14:13:51Z</time>
      </trkpt>
      <trkpt lat="47.5715" lon="-3.02773">
        <ele>2.4</ele>
        <time>2024-05-07T14:13:52Z</time>
      </trkpt>
      <trkpt lat="47.57148" lon="-3.02773">
        <ele>2.4</ele>
        <time>2024-05-07T14:13:53Z</time>
      </trkpt>
      <trkpt lat="47.57146" lon="-3.02773">
        <ele>2.4</ele>
        <time>2024-05-07T14:13:54Z</time>
      </trkpt>
      <trkpt lat="47.57145" lon="-3.02773">
        <ele>2.4</ele>
        <time>2024-05-07T14:13:55Z</time>
      </trkpt>
      <trkpt lat="47.57145" lon="-3.02773">
        <ele>2.4</ele>
        <time>2024-05-07T14:13:56Z</time>
      </trkpt>
      <trkpt lat="47.57144" lon="-3.02773">
        <ele>2.4</ele>
        <time>2024-05-07T14:13:57Z</time>
      </trkpt>
      <trkpt lat="47.57143" lon="-3.02774">
        <ele>2.4</ele>
        <time>2024-05-07T14:13:58Z</time>
      </trkpt>
      <trkpt lat="47.57142" lon="-3.02773">
        <ele>2.4</ele>
        <time>2024-05-07T14:13:59Z</time>
      </trkpt>
      <trkpt lat="47.5714" lon="-3.02773">
        <ele>2.4</ele>
        <time>2024-05-07T14:14:00Z</time>
      </trkpt>
      <trkpt lat="47.57138" lon="-3.02773">
        <ele>2.4</ele>
        <time>2024-05-07T14:14:01Z</time>
      </trkpt>
      <trkpt lat="47.57136" lon="-3.02773">
        <ele>2.4</ele>
        <time>2024-05-07T14:14:02Z</time>
      </trkpt>
      <trkpt lat="47.57133" lon="-3.02775">
        <ele>2.4</ele>
        <time>2024-05-07T14:14:03Z</time>
      </trkpt>
      <trkpt lat="47.57131" lon="-3.02777">
        <ele>2.4</ele>
        <time>2024-05-07T14:14:04Z</time>
      </trkpt>
      <trkpt lat="47.57131" lon="-3.02776">
        <ele>2.4</ele>
        <time>2024-05-07T14:14:05Z</time>
      </trkpt>
      <trkpt lat="47.5713" lon="-3.02776">
        <ele>2.4</ele>
        <time>2024-05-07T14:14:06Z</time>
      </trkpt>
      <trkpt lat="47.57131" lon="-3.02775">
        <ele>2.4</ele>
        <time>2024-05-07T14:14:07Z</time>
      </trkpt>
      <trkpt lat="47.57131" lon="-3.02772">
        <ele>2.4</ele>
        <time>2024-05-07T14:14:08Z</time>
      </trkpt>
      <trkpt lat="47.5713" lon="-3.02771">
        <ele>2.4</ele>
        <time>2024-05-07T14:14:09Z</time>
      </trkpt>
      <trkpt lat="47.5713" lon="-3.02769">
        <ele>2.4</ele>
        <time>2024-05-07T14:14:10Z</time>
      </trkpt>
      <trkpt lat="47.57129" lon="-3.02769">
        <ele>2.4</ele>
        <time>2024-05-07T14:14:11Z</time>
      </trkpt>
      <trkpt lat="47.57129" lon="-3.02768">
        <ele>2.4</ele>
        <time>2024-05-07T14:14:12Z</time>
      </trkpt>
      <trkpt lat="47.57129" lon="-3.02768">
        <ele>2.4</ele>
        <time>2024-05-07T14:14:13Z</time>
      </trkpt>
      <trkpt lat="47.57128" lon="-3.02767">
        <ele>2.6</ele>
        <time>2024-05-07T14:14:14Z</time>
      </trkpt>
      <trkpt lat="47.57127" lon="-3.02768">
        <ele>2.6</ele>
        <time>2024-05-07T14:14:15Z</time>
      </trkpt>
      <trkpt lat="47.57126" lon="-3.02768">
        <ele>2.6</ele>
        <time>2024-05-07T14:14:16Z</time>
      </trkpt>
      <trkpt lat="47.57126" lon="-3.02768">
        <ele>2.6</ele>
        <time>2024-05-07T14:14:17Z</time>
      </trkpt>
      <trkpt lat="47.57126" lon="-3.02767">
        <ele>2.8</ele>
        <time>2024-05-07T14:14:18Z</time>
      </trkpt>
      <trkpt lat="47.57125" lon="-3.02766">
        <ele>2.8</ele>
        <time>2024-05-07T14:14:19Z</time>
      </trkpt>
      <trkpt lat="47.57124" lon="-3.02765">
        <ele>2.8</ele>
        <time>2024-05-07T14:14:20Z</time>
      </trkpt>
      <trkpt lat="47.57123" lon="-3.02763">
        <ele>2.8</ele>
        <time>2024-05-07T14:14:21Z</time>
      </trkpt>
      <trkpt lat="47.57123" lon="-3.02762">
        <ele>3</ele>
        <time>2024-05-07T14:14:22Z</time>
      </trkpt>
      <trkpt lat="47.57122" lon="-3.02762">
        <ele>3</ele>
        <time>2024-05-07T14:14:23Z</time>
      </trkpt>
      <trkpt lat="47.57121" lon="-3.02761">
        <ele>3</ele>
        <time>2024-05-07T14:14:24Z</time>
      </trkpt>
      <trkpt lat="47.5712" lon="-3.02759">
        <ele>3</ele>
        <time>2024-05-07T14:14:25Z</time>
      </trkpt>
      <trkpt lat="47.57119" lon="-3.02758">
        <ele>3</ele>
        <time>2024-05-07T14:14:26Z</time>
      </trkpt>
      <trkpt lat="47.57118" lon="-3.02757">
        <ele>3.2</ele>
        <time>2024-05-07T14:14:27Z</time>
      </trkpt>
      <trkpt lat="47.57117" lon="-3.02756">
        <ele>3.2</ele>
        <time>2024-05-07T14:14:28Z</time>
      </trkpt>
      <trkpt lat="47.57116" lon="-3.02754">
        <ele>3.2</ele>
        <time>2024-05-07T14:14:29Z</time>
      </trkpt>
      <trkpt lat="47.57115" lon="-3.02753">
        <ele>3.2</ele>
        <time>2024-05-07T14:14:30Z</time>
      </trkpt>
      <trkpt lat="47.57115" lon="-3.02751">
        <ele>3.2</ele>
        <time>2024-05-07T14:14:31Z</time>
      </trkpt>
      <trkpt lat="47.57114" lon="-3.0275">
        <ele>3.2</ele>
        <time>2024-05-07T14:14:32Z</time>
      </trkpt>
      <trkpt lat="47.57114" lon="-3.02748">
        <ele>3.2</ele>
        <time>2024-05-07T14:14:33Z</time>
      </trkpt>
      <trkpt lat="47.57113" lon="-3.02747">
        <ele>3.2</ele>
        <time>2024-05-07T14:14:34Z</time>
      </trkpt>
      <trkpt lat="47.57113" lon="-3.02746">
        <ele>3.2</ele>
        <time>2024-05-07T14:14:35Z</time>
      </trkpt>
      <trkpt lat="47.57112" lon="-3.02745">
        <ele>3.2</ele>
        <time>2024-05-07T14:14:36Z</time>
      </trkpt>
      <trkpt lat="47.57112" lon="-3.02744">
        <ele>3.4</ele>
        <time>2024-05-07T14:14:37Z</time>
      </trkpt>
      <trkpt lat="47.57111" lon="-3.02744">
        <ele>3.4</ele>
        <time>2024-05-07T14:14:38Z</time>
      </trkpt>
      <trkpt lat="47.57111" lon="-3.02743">
        <ele>3.4</ele>
        <time>2024-05-07T14:14:39Z</time>
      </trkpt>
      <trkpt lat="47.57111" lon="-3.02741">
        <ele>3.4</ele>
        <time>2024-05-07T14:14:40Z</time>
      </trkpt>
      <trkpt lat="47.5711" lon="-3.02741">
        <ele>3.4</ele>
        <time>2024-05-07T14:14:41Z</time>
      </trkpt>
      <trkpt lat="47.5711" lon="-3.0274">
        <ele>3.4</ele>
        <time>2024-05-07T14:14:42Z</time>
      </trkpt>
      <trkpt lat="47.57109" lon="-3.02739">
        <ele>3.4</ele>
        <time>2024-05-07T14:14:43Z</time>
      </trkpt>
      <trkpt lat="47.57109" lon="-3.02737">
        <ele>3.4</ele>
        <time>2024-05-07T14:14:44Z</time>
      </trkpt>
      <trkpt lat="47.57108" lon="-3.02736">
        <ele>3.4</ele>
        <time>2024-05-07T14:14:45Z</time>
      </trkpt>
      <trkpt lat="47.57108" lon="-3.02734">
        <ele>3.6</ele>
        <time>2024-05-07T14:14:46Z</time>
      </trkpt>
      <trkpt lat="47.57108" lon="-3.02732">
        <ele>3.6</ele>
        <time>2024-05-07T14:14:47Z</time>
      </trkpt>
      <trkpt lat="47.57106" lon="-3.02732">
        <ele>3.8</ele>
        <time>2024-05-07T14:14:48Z</time>
      </trkpt>
      <trkpt lat="47.57105" lon="-3.02731">
        <ele>3.8</ele>
        <time>2024-05-07T14:14:49Z</time>
      </trkpt>
      <trkpt lat="47.57103" lon="-3.02731">
        <ele>3.8</ele>
        <time>2024-05-07T14:14:50Z</time>
      </trkpt>
      <trkpt lat="47.57102" lon="-3.0273">
        <ele>3.8</ele>
        <time>2024-05-07T14:14:51Z</time>
      </trkpt>
      <trkpt lat="47.57101" lon="-3.02729">
        <ele>3.6</ele>
        <time>2024-05-07T14:14:52Z</time>
      </trkpt>
      <trkpt lat="47.57101" lon="-3.02728">
        <ele>3.6</ele>
        <time>2024-05-07T14:14:53Z</time>
      </trkpt>
      <trkpt lat="47.57101" lon="-3.02727">
        <ele>3.6</ele>
        <time>2024-05-07T14:14:54Z</time>
      </trkpt>
      <trkpt lat="47.57101" lon="-3.02726">
        <ele>3.6</ele>
        <time>2024-05-07T14:14:55Z</time>
      </trkpt>
      <trkpt lat="47.571" lon="-3.02726">
        <ele>3.6</ele>
        <time>2024-05-07T14:14:56Z</time>
      </trkpt>
      <trkpt lat="47.57099" lon="-3.02724">
        <ele>3.6</ele>
        <time>2024-05-07T14:14:57Z</time>
      </trkpt>
      <trkpt lat="47.57099" lon="-3.02722">
        <ele>3.4</ele>
        <time>2024-05-07T14:14:58Z</time>
      </trkpt>
      <trkpt lat="47.57099" lon="-3.0272">
        <ele>3.4</ele>
        <time>2024-05-07T14:14:59Z</time>
      </trkpt>
      <trkpt lat="47.57099" lon="-3.02718">
        <ele>3.4</ele>
        <time>2024-05-07T14:15:00Z</time>
      </trkpt>
      <trkpt lat="47.57098" lon="-3.02715">
        <ele>3.4</ele>
        <time>2024-05-07T14:15:01Z</time>
      </trkpt>
      <trkpt lat="47.57097" lon="-3.02714">
        <ele>3.6</ele>
        <time>2024-05-07T14:15:02Z</time>
      </trkpt>
      <trkpt lat="47.57096" lon="-3.02712">
        <ele>3.6</ele>
        <time>2024-05-07T14:15:03Z</time>
      </trkpt>
      <trkpt lat="47.57096" lon="-3.02711">
        <ele>3.8</ele>
        <time>2024-05-07T14:15:04Z</time>
      </trkpt>
      <trkpt lat="47.57095" lon="-3.0271">
        <ele>3.8</ele>
        <time>2024-05-07T14:15:05Z</time>
      </trkpt>
      <trkpt lat="47.57095" lon="-3.02708">
        <ele>3.8</ele>
        <time>2024-05-07T14:15:06Z</time>
      </trkpt>
      <trkpt lat="47.57094" lon="-3.02707">
        <ele>3.8</ele>
        <time>2024-05-07T14:15:07Z</time>
      </trkpt>
      <trkpt lat="47.57093" lon="-3.02706">
        <ele>3.8</ele>
        <time>2024-05-07T14:15:08Z</time>
      </trkpt>
      <trkpt lat="47.57092" lon="-3.02705">
        <ele>3.8</ele>
        <time>2024-05-07T14:15:09Z</time>
      </trkpt>
      <trkpt lat="47.57091" lon="-3.02703">
        <ele>3.8</ele>
        <time>2024-05-07T14:15:10Z</time>
      </trkpt>
      <trkpt lat="47.5709" lon="-3.02702">
        <ele>3.8</ele>
        <time>2024-05-07T14:15:11Z</time>
      </trkpt>
      <trkpt lat="47.57088" lon="-3.02701">
        <ele>3.8</ele>
        <time>2024-05-07T14:15:12Z</time>
      </trkpt>
      <trkpt lat="47.57087" lon="-3.02701">
        <ele>3.8</ele>
        <time>2024-05-07T14:15:13Z</time>
      </trkpt>
      <trkpt lat="47.57086" lon="-3.027">
        <ele>3.8</ele>
        <time>2024-05-07T14:15:14Z</time>
      </trkpt>
      <trkpt lat="47.57084" lon="-3.02699">
        <ele>3.8</ele>
        <time>2024-05-07T14:15:15Z</time>
      </trkpt>
      <trkpt lat="47.57083" lon="-3.02698">
        <ele>3.8</ele>
        <time>2024-05-07T14:15:16Z</time>
      </trkpt>
      <trkpt lat="47.57082" lon="-3.02697">
        <ele>3.8</ele>
        <time>2024-05-07T14:15:17Z</time>
      </trkpt>
      <trkpt lat="47.57081" lon="-3.02696">
        <ele>3.8</ele>
        <time>2024-05-07T14:15:18Z</time>
      </trkpt>
      <trkpt lat="47.5708" lon="-3.02695">
        <ele>3.8</ele>
        <time>2024-05-07T14:15:19Z</time>
      </trkpt>
      <trkpt lat="47.57079" lon="-3.02694">
        <ele>3.8</ele>
        <time>2024-05-07T14:15:20Z</time>
      </trkpt>
      <trkpt lat="47.57077" lon="-3.02694">
        <ele>3.6</ele>
        <time>2024-05-07T14:15:21Z</time>
      </trkpt>
      <trkpt lat="47.57075" lon="-3.02693">
        <ele>3.6</ele>
        <time>2024-05-07T14:15:22Z</time>
      </trkpt>
      <trkpt lat="47.57074" lon="-3.02692">
        <ele>3.6</ele>
        <time>2024-05-07T14:15:23Z</time>
      </trkpt>
      <trkpt lat="47.57073" lon="-3.02692">
        <ele>3.6</ele>
        <time>2024-05-07T14:15:24Z</time>
      </trkpt>
      <trkpt lat="47.57072" lon="-3.02691">
        <ele>3.6</ele>
        <time>2024-05-07T14:15:25Z</time>
      </trkpt>
      <trkpt lat="47.57071" lon="-3.02689">
        <ele>3.6</ele>
        <time>2024-05-07T14:15:26Z</time>
      </trkpt>
      <trkpt lat="47.5707" lon="-3.02688">
        <ele>3.6</ele>
        <time>2024-05-07T14:15:27Z</time>
      </trkpt>
      <trkpt lat="47.57069" lon="-3.02687">
        <ele>3.4</ele>
        <time>2024-05-07T14:15:28Z</time>
      </trkpt>
      <trkpt lat="47.57069" lon="-3.02686">
        <ele>3.4</ele>
        <time>2024-05-07T14:15:29Z</time>
      </trkpt>
      <trkpt lat="47.57069" lon="-3.02685">
        <ele>3.4</ele>
        <time>2024-05-07T14:15:30Z</time>
      </trkpt>
      <trkpt lat="47.57068" lon="-3.02684">
        <ele>3.4</ele>
        <time>2024-05-07T14:15:31Z</time>
      </trkpt>
      <trkpt lat="47.57067" lon="-3.02682">
        <ele>3.4</ele>
        <time>2024-05-07T14:15:32Z</time>
      </trkpt>
      <trkpt lat="47.57066" lon="-3.0268">
        <ele>3.4</ele>
        <time>2024-05-07T14:15:33Z</time>
      </trkpt>
      <trkpt lat="47.57065" lon="-3.02678">
        <ele>3.4</ele>
        <time>2024-05-07T14:15:34Z</time>
      </trkpt>
      <trkpt lat="47.57064" lon="-3.02677">
        <ele>3.4</ele>
        <time>2024-05-07T14:15:35Z</time>
      </trkpt>
      <trkpt lat="47.57063" lon="-3.02676">
        <ele>3.4</ele>
        <time>2024-05-07T14:15:36Z</time>
      </trkpt>
      <trkpt lat="47.57062" lon="-3.02676">
        <ele>3.6</ele>
        <time>2024-05-07T14:15:37Z</time>
      </trkpt>
      <trkpt lat="47.57061" lon="-3.02675">
        <ele>3.6</ele>
        <time>2024-05-07T14:15:38Z</time>
      </trkpt>
      <trkpt lat="47.57059" lon="-3.02675">
        <ele>3.6</ele>
        <time>2024-05-07T14:15:39Z</time>
      </trkpt>
      <trkpt lat="47.57057" lon="-3.02676">
        <ele>3.6</ele>
        <time>2024-05-07T14:15:40Z</time>
      </trkpt>
      <trkpt lat="47.57054" lon="-3.02677">
        <ele>3.6</ele>
        <time>2024-05-07T14:15:41Z</time>
      </trkpt>
      <trkpt lat="47.57052" lon="-3.02677">
        <ele>3.8</ele>
        <time>2024-05-07T14:15:42Z</time>
      </trkpt>
      <trkpt lat="47.5705" lon="-3.02677">
        <ele>3.8</ele>
        <time>2024-05-07T14:15:43Z</time>
      </trkpt>
      <trkpt lat="47.57049" lon="-3.02677">
        <ele>3.8</ele>
        <time>2024-05-07T14:15:44Z</time>
      </trkpt>
      <trkpt lat="47.57049" lon="-3.02676">
        <ele>3.8</ele>
        <time>2024-05-07T14:15:45Z</time>
      </trkpt>
      <trkpt lat="47.57048" lon="-3.02676">
        <ele>3.8</ele>
        <time>2024-05-07T14:15:46Z</time>
      </trkpt>
      <trkpt lat="47.57048" lon="-3.02676">
        <ele>3.6</ele>
        <time>2024-05-07T14:15:47Z</time>
      </trkpt>
      <trkpt lat="47.57048" lon="-3.02676">
        <ele>3.8</ele>
        <time>2024-05-07T14:15:48Z</time>
      </trkpt>
      <trkpt lat="47.57047" lon="-3.02675">
        <ele>3.6</ele>
        <time>2024-05-07T14:15:49Z</time>
      </trkpt>
      <trkpt lat="47.57044" lon="-3.02676">
        <ele>3.4</ele>
        <time>2024-05-07T14:15:50Z</time>
      </trkpt>
      <trkpt lat="47.57042" lon="-3.02676">
        <ele>3.4</ele>
        <time>2024-05-07T14:15:51Z</time>
      </trkpt>
      <trkpt lat="47.57041" lon="-3.02675">
        <ele>3.6</ele>
        <time>2024-05-07T14:15:52Z</time>
      </trkpt>
      <trkpt lat="47.57039" lon="-3.02675">
        <ele>3.6</ele>
        <time>2024-05-07T14:15:53Z</time>
      </trkpt>
      <trkpt lat="47.57037" lon="-3.02676">
        <ele>3.6</ele>
        <time>2024-05-07T14:15:54Z</time>
      </trkpt>
      <trkpt lat="47.57035" lon="-3.02676">
        <ele>3.6</ele>
        <time>2024-05-07T14:15:55Z</time>
      </trkpt>
      <trkpt lat="47.57034" lon="-3.02676">
        <ele>3.6</ele>
        <time>2024-05-07T14:15:56Z</time>
      </trkpt>
      <trkpt lat="47.57032" lon="-3.02677">
        <ele>3.6</ele>
        <time>2024-05-07T14:15:57Z</time>
      </trkpt>
      <trkpt lat="47.57031" lon="-3.02677">
        <ele>3.8</ele>
        <time>2024-05-07T14:15:58Z</time>
      </trkpt>
      <trkpt lat="47.5703" lon="-3.02677">
        <ele>3.8</ele>
        <time>2024-05-07T14:15:59Z</time>
      </trkpt>
      <trkpt lat="47.5703" lon="-3.02678">
        <ele>3.8</ele>
        <time>2024-05-07T14:16:00Z</time>
      </trkpt>
      <trkpt lat="47.57029" lon="-3.02679">
        <ele>3.8</ele>
        <time>2024-05-07T14:16:01Z</time>
      </trkpt>
      <trkpt lat="47.57028" lon="-3.0268">
        <ele>3.8</ele>
        <time>2024-05-07T14:16:02Z</time>
      </trkpt>
      <trkpt lat="47.57027" lon="-3.02681">
        <ele>4</ele>
        <time>2024-05-07T14:16:03Z</time>
      </trkpt>
      <trkpt lat="47.57027" lon="-3.02681">
        <ele>4</ele>
        <time>2024-05-07T14:16:04Z</time>
      </trkpt>
      <trkpt lat="47.57026" lon="-3.02681">
        <ele>4.2</ele>
        <time>2024-05-07T14:16:05Z</time>
      </trkpt>
      <trkpt lat="47.57025" lon="-3.02682">
        <ele>4.2</ele>
        <time>2024-05-07T14:16:06Z</time>
      </trkpt>
      <trkpt lat="47.57024" lon="-3.02682">
        <ele>4.4</ele>
        <time>2024-05-07T14:16:07Z</time>
      </trkpt>
      <trkpt lat="47.57023" lon="-3.02683">
        <ele>4.6</ele>
        <time>2024-05-07T14:16:08Z</time>
      </trkpt>
      <trkpt lat="47.57022" lon="-3.02683">
        <ele>4.6</ele>
        <time>2024-05-07T14:16:09Z</time>
      </trkpt>
      <trkpt lat="47.57021" lon="-3.02683">
        <ele>4.8</ele>
        <time>2024-05-07T14:16:10Z</time>
      </trkpt>
      <trkpt lat="47.5702" lon="-3.02682">
        <ele>4.8</ele>
        <time>2024-05-07T14:16:11Z</time>
      </trkpt>
      <trkpt lat="47.57019" lon="-3.02682">
        <ele>5</ele>
        <time>2024-05-07T14:16:12Z</time>
      </trkpt>
      <trkpt lat="47.57018" lon="-3.02683">
        <ele>5</ele>
        <time>2024-05-07T14:16:13Z</time>
      </trkpt>
      <trkpt lat="47.57017" lon="-3.02684">
        <ele>5</ele>
        <time>2024-05-07T14:16:14Z</time>
      </trkpt>
      <trkpt lat="47.57016" lon="-3.02685">
        <ele>5</ele>
        <time>2024-05-07T14:16:15Z</time>
      </trkpt>
      <trkpt lat="47.57015" lon="-3.02685">
        <ele>5</ele>
        <time>2024-05-07T14:16:16Z</time>
      </trkpt>
      <trkpt lat="47.57014" lon="-3.02685">
        <ele>5</ele>
        <time>2024-05-07T14:16:17Z</time>
      </trkpt>
      <trkpt lat="47.57013" lon="-3.02685">
        <ele>5</ele>
        <time>2024-05-07T14:16:18Z</time>
      </trkpt>
      <trkpt lat="47.57011" lon="-3.02685">
        <ele>4.6</ele>
        <time>2024-05-07T14:16:19Z</time>
      </trkpt>
      <trkpt lat="47.5701" lon="-3.02683">
        <ele>4.6</ele>
        <time>2024-05-07T14:16:20Z</time>
      </trkpt>
      <trkpt lat="47.57009" lon="-3.02682">
        <ele>4.4</ele>
        <time>2024-05-07T14:16:21Z</time>
      </trkpt>
      <trkpt lat="47.57008" lon="-3.02681">
        <ele>4.4</ele>
        <time>2024-05-07T14:16:22Z</time>
      </trkpt>
      <trkpt lat="47.57007" lon="-3.02679">
        <ele>4.4</ele>
        <time>2024-05-07T14:16:23Z</time>
      </trkpt>
      <trkpt lat="47.57006" lon="-3.02678">
        <ele>4.2</ele>
        <time>2024-05-07T14:16:24Z</time>
      </trkpt>
      <trkpt lat="47.57006" lon="-3.02677">
        <ele>4.2</ele>
        <time>2024-05-07T14:16:25Z</time>
      </trkpt>
      <trkpt lat="47.57006" lon="-3.02675">
        <ele>4.2</ele>
        <time>2024-05-07T14:16:26Z</time>
      </trkpt>
      <trkpt lat="47.57006" lon="-3.02674">
        <ele>4.4</ele>
        <time>2024-05-07T14:16:27Z</time>
      </trkpt>
      <trkpt lat="47.57005" lon="-3.02672">
        <ele>4.4</ele>
        <time>2024-05-07T14:16:28Z</time>
      </trkpt>
      <trkpt lat="47.57004" lon="-3.02672">
        <ele>4.4</ele>
        <time>2024-05-07T14:16:29Z</time>
      </trkpt>
      <trkpt lat="47.57004" lon="-3.02671">
        <ele>4.6</ele>
        <time>2024-05-07T14:16:30Z</time>
      </trkpt>
      <trkpt lat="47.57003" lon="-3.0267">
        <ele>4.6</ele>
        <time>2024-05-07T14:16:31Z</time>
      </trkpt>
      <trkpt lat="47.57002" lon="-3.02668">
        <ele>4.8</ele>
        <time>2024-05-07T14:16:32Z</time>
      </trkpt>
      <trkpt lat="47.57002" lon="-3.02667">
        <ele>4.8</ele>
        <time>2024-05-07T14:16:33Z</time>
      </trkpt>
      <trkpt lat="47.57001" lon="-3.02666">
        <ele>4.8</ele>
        <time>2024-05-07T14:16:34Z</time>
      </trkpt>
      <trkpt lat="47.57001" lon="-3.02665">
        <ele>5</ele>
        <time>2024-05-07T14:16:35Z</time>
      </trkpt>
      <trkpt lat="47.57" lon="-3.02663">
        <ele>5</ele>
        <time>2024-05-07T14:16:36Z</time>
      </trkpt>
      <trkpt lat="47.56999" lon="-3.02662">
        <ele>5</ele>
        <time>2024-05-07T14:16:37Z</time>
      </trkpt>
      <trkpt lat="47.56999" lon="-3.0266">
        <ele>5</ele>
        <time>2024-05-07T14:16:38Z</time>
      </trkpt>
      <trkpt lat="47.56999" lon="-3.02658">
        <ele>5.2</ele>
        <time>2024-05-07T14:16:39Z</time>
      </trkpt>
      <trkpt lat="47.56999" lon="-3.02657">
        <ele>5.2</ele>
        <time>2024-05-07T14:16:40Z</time>
      </trkpt>
      <trkpt lat="47.56998" lon="-3.02656">
        <ele>5.2</ele>
        <time>2024-05-07T14:16:41Z</time>
      </trkpt>
      <trkpt lat="47.56997" lon="-3.02655">
        <ele>5.4</ele>
        <time>2024-05-07T14:16:42Z</time>
      </trkpt>
      <trkpt lat="47.56996" lon="-3.02655">
        <ele>5.4</ele>
        <time>2024-05-07T14:16:43Z</time>
      </trkpt>
      <trkpt lat="47.56995" lon="-3.02655">
        <ele>5.4</ele>
        <time>2024-05-07T14:16:44Z</time>
      </trkpt>
      <trkpt lat="47.56994" lon="-3.02654">
        <ele>5.4</ele>
        <time>2024-05-07T14:16:45Z</time>
      </trkpt>
      <trkpt lat="47.56992" lon="-3.02653">
        <ele>5.4</ele>
        <time>2024-05-07T14:16:46Z</time>
      </trkpt>
      <trkpt lat="47.5699" lon="-3.02652">
        <ele>5.4</ele>
        <time>2024-05-07T14:16:47Z</time>
      </trkpt>
      <trkpt lat="47.56989" lon="-3.02651">
        <ele>5.4</ele>
        <time>2024-05-07T14:16:48Z</time>
      </trkpt>
      <trkpt lat="47.56988" lon="-3.02651">
        <ele>5.4</ele>
        <time>2024-05-07T14:16:49Z</time>
      </trkpt>
      <trkpt lat="47.56986" lon="-3.0265">
        <ele>5.4</ele>
        <time>2024-05-07T14:16:50Z</time>
      </trkpt>
      <trkpt lat="47.56985" lon="-3.02648">
        <ele>5.4</ele>
        <time>2024-05-07T14:16:51Z</time>
      </trkpt>
      <trkpt lat="47.56984" lon="-3.02648">
        <ele>5.4</ele>
        <time>2024-05-07T14:16:52Z</time>
      </trkpt>
      <trkpt lat="47.56983" lon="-3.02648">
        <ele>5.4</ele>
        <time>2024-05-07T14:16:53Z</time>
      </trkpt>
      <trkpt lat="47.56982" lon="-3.02646">
        <ele>5.4</ele>
        <time>2024-05-07T14:16:54Z</time>
      </trkpt>
      <trkpt lat="47.56982" lon="-3.02646">
        <ele>5.4</ele>
        <time>2024-05-07T14:16:55Z</time>
      </trkpt>
      <trkpt lat="47.56981" lon="-3.02645">
        <ele>5.4</ele>
        <time>2024-05-07T14:16:56Z</time>
      </trkpt>
      <trkpt lat="47.5698" lon="-3.02644">
        <ele>5.4</ele>
        <time>2024-05-07T14:16:57Z</time>
      </trkpt>
      <trkpt lat="47.56979" lon="-3.02643">
        <ele>5.4</ele>
        <time>2024-05-07T14:16:58Z</time>
      </trkpt>
      <trkpt lat="47.56978" lon="-3.02641">
        <ele>5.4</ele>
        <time>2024-05-07T14:16:59Z</time>
      </trkpt>
      <trkpt lat="47.56977" lon="-3.0264">
        <ele>5.4</ele>
        <time>2024-05-07T14:17:00Z</time>
      </trkpt>
      <trkpt lat="47.56977" lon="-3.02639">
        <ele>5.4</ele>
        <time>2024-05-07T14:17:01Z</time>
      </trkpt>
      <trkpt lat="47.56976" lon="-3.02639">
        <ele>5.2</ele>
        <time>2024-05-07T14:17:02Z</time>
      </trkpt>
      <trkpt lat="47.56974" lon="-3.02638">
        <ele>5.2</ele>
        <time>2024-05-07T14:17:03Z</time>
      </trkpt>
      <trkpt lat="47.56973" lon="-3.02637">
        <ele>5.2</ele>
        <time>2024-05-07T14:17:04Z</time>
      </trkpt>
      <trkpt lat="47.56972" lon="-3.02636">
        <ele>5.2</ele>
        <time>2024-05-07T14:17:05Z</time>
      </trkpt>
      <trkpt lat="47.56972" lon="-3.02636">
        <ele>5.2</ele>
        <time>2024-05-07T14:17:06Z</time>
      </trkpt>
      <trkpt lat="47.56971" lon="-3.02635">
        <ele>5.2</ele>
        <time>2024-05-07T14:17:07Z</time>
      </trkpt>
      <trkpt lat="47.5697" lon="-3.02634">
        <ele>5.2</ele>
        <time>2024-05-07T14:17:08Z</time>
      </trkpt>
      <trkpt lat="47.56969" lon="-3.02633">
        <ele>5.2</ele>
        <time>2024-05-07T14:17:09Z</time>
      </trkpt>
      <trkpt lat="47.56968" lon="-3.02631">
        <ele>5</ele>
        <time>2024-05-07T14:17:10Z</time>
      </trkpt>
      <trkpt lat="47.56967" lon="-3.0263">
        <ele>5</ele>
        <time>2024-05-07T14:17:11Z</time>
      </trkpt>
      <trkpt lat="47.56966" lon="-3.02628">
        <ele>5</ele>
        <time>2024-05-07T14:17:12Z</time>
      </trkpt>
      <trkpt lat="47.56965" lon="-3.02627">
        <ele>5</ele>
        <time>2024-05-07T14:17:13Z</time>
      </trkpt>
      <trkpt lat="47.56964" lon="-3.02626">
        <ele>4.8</ele>
        <time>2024-05-07T14:17:14Z</time>
      </trkpt>
      <trkpt lat="47.56963" lon="-3.02626">
        <ele>4.8</ele>
        <time>2024-05-07T14:17:15Z</time>
      </trkpt>
      <trkpt lat="47.56962" lon="-3.02625">
        <ele>4.8</ele>
        <time>2024-05-07T14:17:16Z</time>
      </trkpt>
      <trkpt lat="47.56961" lon="-3.02623">
        <ele>4.8</ele>
        <time>2024-05-07T14:17:17Z</time>
      </trkpt>
      <trkpt lat="47.56961" lon="-3.02621">
        <ele>4.8</ele>
        <time>2024-05-07T14:17:18Z</time>
      </trkpt>
      <trkpt lat="47.5696" lon="-3.0262">
        <ele>4.8</ele>
        <time>2024-05-07T14:17:19Z</time>
      </trkpt>
      <trkpt lat="47.5696" lon="-3.02618">
        <ele>4.8</ele>
        <time>2024-05-07T14:17:20Z</time>
      </trkpt>
      <trkpt lat="47.56959" lon="-3.02616">
        <ele>4.8</ele>
        <time>2024-05-07T14:17:21Z</time>
      </trkpt>
      <trkpt lat="47.56959" lon="-3.02615">
        <ele>4.8</ele>
        <time>2024-05-07T14:17:22Z</time>
      </trkpt>
      <trkpt lat="47.56959" lon="-3.02613">
        <ele>4.8</ele>
        <time>2024-05-07T14:17:23Z</time>
      </trkpt>
      <trkpt lat="47.56959" lon="-3.02612">
        <ele>4.8</ele>
        <time>2024-05-07T14:17:24Z</time>
      </trkpt>
      <trkpt lat="47.56958" lon="-3.0261">
        <ele>4.6</ele>
        <time>2024-05-07T14:17:25Z</time>
      </trkpt>
      <trkpt lat="47.56958" lon="-3.02609">
        <ele>4.6</ele>
        <time>2024-05-07T14:17:26Z</time>
      </trkpt>
      <trkpt lat="47.56957" lon="-3.02607">
        <ele>4.6</ele>
        <time>2024-05-07T14:17:27Z</time>
      </trkpt>
      <trkpt lat="47.56957" lon="-3.02605">
        <ele>4.6</ele>
        <time>2024-05-07T14:17:28Z</time>
      </trkpt>
      <trkpt lat="47.56957" lon="-3.02604">
        <ele>4.6</ele>
        <time>2024-05-07T14:17:29Z</time>
      </trkpt>
      <trkpt lat="47.56957" lon="-3.02602">
        <ele>4.6</ele>
        <time>2024-05-07T14:17:30Z</time>
      </trkpt>
      <trkpt lat="47.56956" lon="-3.026">
        <ele>4.6</ele>
        <time>2024-05-07T14:17:31Z</time>
      </trkpt>
      <trkpt lat="47.56956" lon="-3.02598">
        <ele>4.6</ele>
        <time>2024-05-07T14:17:32Z</time>
      </trkpt>
      <trkpt lat="47.56955" lon="-3.02596">
        <ele>4.8</ele>
        <time>2024-05-07T14:17:33Z</time>
      </trkpt>
      <trkpt lat="47.56955" lon="-3.02594">
        <ele>4.8</ele>
        <time>2024-05-07T14:17:34Z</time>
      </trkpt>
      <trkpt lat="47.56954" lon="-3.02592">
        <ele>4.8</ele>
        <time>2024-05-07T14:17:35Z</time>
      </trkpt>
      <trkpt lat="47.56954" lon="-3.02591">
        <ele>4.8</ele>
        <time>2024-05-07T14:17:36Z</time>
      </trkpt>
      <trkpt lat="47.56953" lon="-3.0259">
        <ele>4.8</ele>
        <time>2024-05-07T14:17:37Z</time>
      </trkpt>
      <trkpt lat="47.56952" lon="-3.02589">
        <ele>5</ele>
        <time>2024-05-07T14:17:38Z</time>
      </trkpt>
      <trkpt lat="47.56951" lon="-3.02589">
        <ele>5</ele>
        <time>2024-05-07T14:17:39Z</time>
      </trkpt>
      <trkpt lat="47.5695" lon="-3.02588">
        <ele>4.8</ele>
        <time>2024-05-07T14:17:40Z</time>
      </trkpt>
      <trkpt lat="47.56949" lon="-3.02587">
        <ele>5</ele>
        <time>2024-05-07T14:17:41Z</time>
      </trkpt>
      <trkpt lat="47.56948" lon="-3.02587">
        <ele>5</ele>
        <time>2024-05-07T14:17:42Z</time>
      </trkpt>
      <trkpt lat="47.56947" lon="-3.02586">
        <ele>5</ele>
        <time>2024-05-07T14:17:43Z</time>
      </trkpt>
      <trkpt lat="47.56945" lon="-3.02585">
        <ele>5</ele>
        <time>2024-05-07T14:17:44Z</time>
      </trkpt>
      <trkpt lat="47.56944" lon="-3.02584">
        <ele>5</ele>
        <time>2024-05-07T14:17:45Z</time>
      </trkpt>
      <trkpt lat="47.56943" lon="-3.02583">
        <ele>5</ele>
        <time>2024-05-07T14:17:46Z</time>
      </trkpt>
      <trkpt lat="47.56943" lon="-3.02581">
        <ele>5</ele>
        <time>2024-05-07T14:17:47Z</time>
      </trkpt>
      <trkpt lat="47.56942" lon="-3.0258">
        <ele>5</ele>
        <time>2024-05-07T14:17:48Z</time>
      </trkpt>
      <trkpt lat="47.56941" lon="-3.02578">
        <ele>5</ele>
        <time>2024-05-07T14:17:49Z</time>
      </trkpt>
      <trkpt lat="47.5694" lon="-3.02576">
        <ele>4.8</ele>
        <time>2024-05-07T14:17:50Z</time>
      </trkpt>
      <trkpt lat="47.5694" lon="-3.02574">
        <ele>4.8</ele>
        <time>2024-05-07T14:17:51Z</time>
      </trkpt>
      <trkpt lat="47.5694" lon="-3.02572">
        <ele>4.8</ele>
        <time>2024-05-07T14:17:52Z</time>
      </trkpt>
      <trkpt lat="47.56939" lon="-3.0257">
        <ele>4.8</ele>
        <time>2024-05-07T14:17:53Z</time>
      </trkpt>
      <trkpt lat="47.56938" lon="-3.02568">
        <ele>4.6</ele>
        <time>2024-05-07T14:17:54Z</time>
      </trkpt>
      <trkpt lat="47.56938" lon="-3.02566">
        <ele>4.6</ele>
        <time>2024-05-07T14:17:55Z</time>
      </trkpt>
      <trkpt lat="47.56937" lon="-3.02565">
        <ele>4.6</ele>
        <time>2024-05-07T14:17:56Z</time>
      </trkpt>
      <trkpt lat="47.56937" lon="-3.02563">
        <ele>4.4</ele>
        <time>2024-05-07T14:17:57Z</time>
      </trkpt>
      <trkpt lat="47.56937" lon="-3.02561">
        <ele>4.4</ele>
        <time>2024-05-07T14:17:58Z</time>
      </trkpt>
      <trkpt lat="47.56936" lon="-3.0256">
        <ele>4.4</ele>
        <time>2024-05-07T14:17:59Z</time>
      </trkpt>
      <trkpt lat="47.56936" lon="-3.02559">
        <ele>4.4</ele>
        <time>2024-05-07T14:18:00Z</time>
      </trkpt>
      <trkpt lat="47.56935" lon="-3.02558">
        <ele>4.4</ele>
        <time>2024-05-07T14:18:01Z</time>
      </trkpt>
      <trkpt lat="47.56934" lon="-3.02557">
        <ele>4.2</ele>
        <time>2024-05-07T14:18:02Z</time>
      </trkpt>
      <trkpt lat="47.56933" lon="-3.02556">
        <ele>4.2</ele>
        <time>2024-05-07T14:18:03Z</time>
      </trkpt>
      <trkpt lat="47.56932" lon="-3.02555">
        <ele>4.2</ele>
        <time>2024-05-07T14:18:04Z</time>
      </trkpt>
      <trkpt lat="47.56931" lon="-3.02554">
        <ele>4.2</ele>
        <time>2024-05-07T14:18:05Z</time>
      </trkpt>
      <trkpt lat="47.5693" lon="-3.02553">
        <ele>4.2</ele>
        <time>2024-05-07T14:18:06Z</time>
      </trkpt>
      <trkpt lat="47.56929" lon="-3.02552">
        <ele>4.2</ele>
        <time>2024-05-07T14:18:07Z</time>
      </trkpt>
      <trkpt lat="47.56928" lon="-3.0255">
        <ele>4.2</ele>
        <time>2024-05-07T14:18:08Z</time>
      </trkpt>
      <trkpt lat="47.56927" lon="-3.02549">
        <ele>4.2</ele>
        <time>2024-05-07T14:18:09Z</time>
      </trkpt>
      <trkpt lat="47.56926" lon="-3.02547">
        <ele>4.2</ele>
        <time>2024-05-07T14:18:10Z</time>
      </trkpt>
      <trkpt lat="47.56926" lon="-3.02546">
        <ele>4.2</ele>
        <time>2024-05-07T14:18:11Z</time>
      </trkpt>
      <trkpt lat="47.56925" lon="-3.02544">
        <ele>4.2</ele>
        <time>2024-05-07T14:18:12Z</time>
      </trkpt>
      <trkpt lat="47.56924" lon="-3.02543">
        <ele>4.2</ele>
        <time>2024-05-07T14:18:13Z</time>
      </trkpt>
      <trkpt lat="47.56923" lon="-3.02542">
        <ele>4</ele>
        <time>2024-05-07T14:18:14Z</time>
      </trkpt>
      <trkpt lat="47.56922" lon="-3.02541">
        <ele>4</ele>
        <time>2024-05-07T14:18:15Z</time>
      </trkpt>
      <trkpt lat="47.56922" lon="-3.0254">
        <ele>4</ele>
        <time>2024-05-07T14:18:16Z</time>
      </trkpt>
      <trkpt lat="47.56921" lon="-3.02539">
        <ele>4</ele>
        <time>2024-05-07T14:18:17Z</time>
      </trkpt>
      <trkpt lat="47.5692" lon="-3.02537">
        <ele>3.8</ele>
        <time>2024-05-07T14:18:18Z</time>
      </trkpt>
      <trkpt lat="47.5692" lon="-3.02536">
        <ele>3.8</ele>
        <time>2024-05-07T14:18:19Z</time>
      </trkpt>
      <trkpt lat="47.56919" lon="-3.02534">
        <ele>3.8</ele>
        <time>2024-05-07T14:18:20Z</time>
      </trkpt>
      <trkpt lat="47.56918" lon="-3.02533">
        <ele>3.8</ele>
        <time>2024-05-07T14:18:21Z</time>
      </trkpt>
      <trkpt lat="47.56916" lon="-3.02532">
        <ele>3.8</ele>
        <time>2024-05-07T14:18:22Z</time>
      </trkpt>
      <trkpt lat="47.56914" lon="-3.02531">
        <ele>3.8</ele>
        <time>2024-05-07T14:18:23Z</time>
      </trkpt>
      <trkpt lat="47.56914" lon="-3.0253">
        <ele>3.8</ele>
        <time>2024-05-07T14:18:24Z</time>
      </trkpt>
      <trkpt lat="47.56912" lon="-3.02529">
        <ele>3.8</ele>
        <time>2024-05-07T14:18:25Z</time>
      </trkpt>
      <trkpt lat="47.56911" lon="-3.02528">
        <ele>3.8</ele>
        <time>2024-05-07T14:18:26Z</time>
      </trkpt>
      <trkpt lat="47.5691" lon="-3.02528">
        <ele>3.8</ele>
        <time>2024-05-07T14:18:27Z</time>
      </trkpt>
      <trkpt lat="47.56909" lon="-3.02527">
        <ele>3.6</ele>
        <time>2024-05-07T14:18:28Z</time>
      </trkpt>
      <trkpt lat="47.56907" lon="-3.02527">
        <ele>3.6</ele>
        <time>2024-05-07T14:18:29Z</time>
      </trkpt>
      <trkpt lat="47.56905" lon="-3.02526">
        <ele>3.6</ele>
        <time>2024-05-07T14:18:30Z</time>
      </trkpt>
      <trkpt lat="47.56904" lon="-3.02525">
        <ele>3.6</ele>
        <time>2024-05-07T14:18:31Z</time>
      </trkpt>
      <trkpt lat="47.56903" lon="-3.02524">
        <ele>3.6</ele>
        <time>2024-05-07T14:18:32Z</time>
      </trkpt>
      <trkpt lat="47.56902" lon="-3.02522">
        <ele>3.6</ele>
        <time>2024-05-07T14:18:33Z</time>
      </trkpt>
      <trkpt lat="47.56902" lon="-3.02521">
        <ele>3.4</ele>
        <time>2024-05-07T14:18:34Z</time>
      </trkpt>
      <trkpt lat="47.56901" lon="-3.0252">
        <ele>3.4</ele>
        <time>2024-05-07T14:18:35Z</time>
      </trkpt>
      <trkpt lat="47.56899" lon="-3.02518">
        <ele>3.4</ele>
        <time>2024-05-07T14:18:36Z</time>
      </trkpt>
      <trkpt lat="47.56898" lon="-3.02517">
        <ele>3.4</ele>
        <time>2024-05-07T14:18:37Z</time>
      </trkpt>
      <trkpt lat="47.56897" lon="-3.02516">
        <ele>3.4</ele>
        <time>2024-05-07T14:18:38Z</time>
      </trkpt>
      <trkpt lat="47.56896" lon="-3.02515">
        <ele>3.4</ele>
        <time>2024-05-07T14:18:39Z</time>
      </trkpt>
      <trkpt lat="47.56894" lon="-3.02515">
        <ele>3.4</ele>
        <time>2024-05-07T14:18:40Z</time>
      </trkpt>
      <trkpt lat="47.56892" lon="-3.02515">
        <ele>3.4</ele>
        <time>2024-05-07T14:18:41Z</time>
      </trkpt>
      <trkpt lat="47.56891" lon="-3.02515">
        <ele>3.4</ele>
        <time>2024-05-07T14:18:42Z</time>
      </trkpt>
      <trkpt lat="47.5689" lon="-3.02515">
        <ele>3.4</ele>
        <time>2024-05-07T14:18:43Z</time>
      </trkpt>
      <trkpt lat="47.56889" lon="-3.02515">
        <ele>3.2</ele>
        <time>2024-05-07T14:18:44Z</time>
      </trkpt>
      <trkpt lat="47.56888" lon="-3.02516">
        <ele>3.2</ele>
        <time>2024-05-07T14:18:45Z</time>
      </trkpt>
      <trkpt lat="47.56886" lon="-3.02516">
        <ele>3.2</ele>
        <time>2024-05-07T14:18:46Z</time>
      </trkpt>
      <trkpt lat="47.56885" lon="-3.02516">
        <ele>3</ele>
        <time>2024-05-07T14:18:47Z</time>
      </trkpt>
      <trkpt lat="47.56884" lon="-3.02516">
        <ele>2.8</ele>
        <time>2024-05-07T14:18:48Z</time>
      </trkpt>
      <trkpt lat="47.56883" lon="-3.02516">
        <ele>2.6</ele>
        <time>2024-05-07T14:18:49Z</time>
      </trkpt>
      <trkpt lat="47.56882" lon="-3.02515">
        <ele>2.6</ele>
        <time>2024-05-07T14:18:50Z</time>
      </trkpt>
      <trkpt lat="47.56881" lon="-3.02515">
        <ele>2.6</ele>
        <time>2024-05-07T14:18:51Z</time>
      </trkpt>
      <trkpt lat="47.5688" lon="-3.02514">
        <ele>2.6</ele>
        <time>2024-05-07T14:18:52Z</time>
      </trkpt>
      <trkpt lat="47.56879" lon="-3.02514">
        <ele>2.6</ele>
        <time>2024-05-07T14:18:53Z</time>
      </trkpt>
      <trkpt lat="47.56878" lon="-3.02513">
        <ele>2.6</ele>
        <time>2024-05-07T14:18:54Z</time>
      </trkpt>
      <trkpt lat="47.56878" lon="-3.02512">
        <ele>2.6</ele>
        <time>2024-05-07T14:18:55Z</time>
      </trkpt>
      <trkpt lat="47.56876" lon="-3.02511">
        <ele>2.6</ele>
        <time>2024-05-07T14:18:56Z</time>
      </trkpt>
      <trkpt lat="47.56876" lon="-3.02511">
        <ele>2.6</ele>
        <time>2024-05-07T14:18:57Z</time>
      </trkpt>
      <trkpt lat="47.56875" lon="-3.0251">
        <ele>2.6</ele>
        <time>2024-05-07T14:18:58Z</time>
      </trkpt>
      <trkpt lat="47.56873" lon="-3.0251">
        <ele>2.6</ele>
        <time>2024-05-07T14:18:59Z</time>
      </trkpt>
      <trkpt lat="47.56871" lon="-3.0251">
        <ele>2.8</ele>
        <time>2024-05-07T14:19:00Z</time>
      </trkpt>
      <trkpt lat="47.56869" lon="-3.0251">
        <ele>2.8</ele>
        <time>2024-05-07T14:19:01Z</time>
      </trkpt>
      <trkpt lat="47.56868" lon="-3.0251">
        <ele>2.8</ele>
        <time>2024-05-07T14:19:02Z</time>
      </trkpt>
      <trkpt lat="47.56867" lon="-3.0251">
        <ele>3</ele>
        <time>2024-05-07T14:19:03Z</time>
      </trkpt>
      <trkpt lat="47.56866" lon="-3.0251">
        <ele>3</ele>
        <time>2024-05-07T14:19:04Z</time>
      </trkpt>
      <trkpt lat="47.56864" lon="-3.02511">
        <ele>3</ele>
        <time>2024-05-07T14:19:05Z</time>
      </trkpt>
      <trkpt lat="47.56863" lon="-3.02512">
        <ele>3.2</ele>
        <time>2024-05-07T14:19:06Z</time>
      </trkpt>
      <trkpt lat="47.56862" lon="-3.02512">
        <ele>3.2</ele>
        <time>2024-05-07T14:19:07Z</time>
      </trkpt>
      <trkpt lat="47.56861" lon="-3.02512">
        <ele>3.2</ele>
        <time>2024-05-07T14:19:08Z</time>
      </trkpt>
      <trkpt lat="47.5686" lon="-3.02512">
        <ele>3.2</ele>
        <time>2024-05-07T14:19:09Z</time>
      </trkpt>
      <trkpt lat="47.5686" lon="-3.02512">
        <ele>3.2</ele>
        <time>2024-05-07T14:19:10Z</time>
      </trkpt>
      <trkpt lat="47.56859" lon="-3.02511">
        <ele>3.2</ele>
        <time>2024-05-07T14:19:11Z</time>
      </trkpt>
      <trkpt lat="47.56858" lon="-3.02511">
        <ele>3.2</ele>
        <time>2024-05-07T14:19:12Z</time>
      </trkpt>
      <trkpt lat="47.56856" lon="-3.0251">
        <ele>3.2</ele>
        <time>2024-05-07T14:19:13Z</time>
      </trkpt>
      <trkpt lat="47.56855" lon="-3.02509">
        <ele>3.2</ele>
        <time>2024-05-07T14:19:14Z</time>
      </trkpt>
      <trkpt lat="47.56853" lon="-3.02508">
        <ele>3.2</ele>
        <time>2024-05-07T14:19:15Z</time>
      </trkpt>
      <trkpt lat="47.56852" lon="-3.02507">
        <ele>3.2</ele>
        <time>2024-05-07T14:19:16Z</time>
      </trkpt>
      <trkpt lat="47.56851" lon="-3.02506">
        <ele>3.2</ele>
        <time>2024-05-07T14:19:17Z</time>
      </trkpt>
      <trkpt lat="47.56851" lon="-3.02505">
        <ele>3.2</ele>
        <time>2024-05-07T14:19:18Z</time>
      </trkpt>
      <trkpt lat="47.5685" lon="-3.02505">
        <ele>3.2</ele>
        <time>2024-05-07T14:19:19Z</time>
      </trkpt>
      <trkpt lat="47.56848" lon="-3.02505">
        <ele>3.2</ele>
        <time>2024-05-07T14:19:20Z</time>
      </trkpt>
      <trkpt lat="47.56847" lon="-3.02504">
        <ele>3.4</ele>
        <time>2024-05-07T14:19:21Z</time>
      </trkpt>
      <trkpt lat="47.56847" lon="-3.02504">
        <ele>3.4</ele>
        <time>2024-05-07T14:19:22Z</time>
      </trkpt>
      <trkpt lat="47.56845" lon="-3.02504">
        <ele>3.6</ele>
        <time>2024-05-07T14:19:23Z</time>
      </trkpt>
      <trkpt lat="47.56844" lon="-3.02503">
        <ele>3.6</ele>
        <time>2024-05-07T14:19:24Z</time>
      </trkpt>
      <trkpt lat="47.56843" lon="-3.02502">
        <ele>3.6</ele>
        <time>2024-05-07T14:19:25Z</time>
      </trkpt>
      <trkpt lat="47.56842" lon="-3.02502">
        <ele>3.8</ele>
        <time>2024-05-07T14:19:26Z</time>
      </trkpt>
      <trkpt lat="47.56841" lon="-3.025">
        <ele>3.8</ele>
        <time>2024-05-07T14:19:27Z</time>
      </trkpt>
      <trkpt lat="47.5684" lon="-3.02499">
        <ele>3.8</ele>
        <time>2024-05-07T14:19:28Z</time>
      </trkpt>
      <trkpt lat="47.56839" lon="-3.02498">
        <ele>3.8</ele>
        <time>2024-05-07T14:19:29Z</time>
      </trkpt>
      <trkpt lat="47.56838" lon="-3.02498">
        <ele>4</ele>
        <time>2024-05-07T14:19:30Z</time>
      </trkpt>
      <trkpt lat="47.56837" lon="-3.02497">
        <ele>4</ele>
        <time>2024-05-07T14:19:31Z</time>
      </trkpt>
      <trkpt lat="47.56836" lon="-3.02496">
        <ele>4</ele>
        <time>2024-05-07T14:19:32Z</time>
      </trkpt>
      <trkpt lat="47.56835" lon="-3.02494">
        <ele>4.2</ele>
        <time>2024-05-07T14:19:33Z</time>
      </trkpt>
      <trkpt lat="47.56835" lon="-3.02492">
        <ele>4.2</ele>
        <time>2024-05-07T14:19:34Z</time>
      </trkpt>
      <trkpt lat="47.56834" lon="-3.02491">
        <ele>4.4</ele>
        <time>2024-05-07T14:19:35Z</time>
      </trkpt>
      <trkpt lat="47.56833" lon="-3.0249">
        <ele>4.4</ele>
        <time>2024-05-07T14:19:36Z</time>
      </trkpt>
      <trkpt lat="47.56832" lon="-3.02488">
        <ele>4.4</ele>
        <time>2024-05-07T14:19:37Z</time>
      </trkpt>
      <trkpt lat="47.56831" lon="-3.02486">
        <ele>4.4</ele>
        <time>2024-05-07T14:19:38Z</time>
      </trkpt>
      <trkpt lat="47.56831" lon="-3.02484">
        <ele>4.6</ele>
        <time>2024-05-07T14:19:39Z</time>
      </trkpt>
      <trkpt lat="47.5683" lon="-3.02483">
        <ele>4.6</ele>
        <time>2024-05-07T14:19:40Z</time>
      </trkpt>
      <trkpt lat="47.5683" lon="-3.02482">
        <ele>4.6</ele>
        <time>2024-05-07T14:19:41Z</time>
      </trkpt>
      <trkpt lat="47.56831" lon="-3.0248">
        <ele>4.8</ele>
        <time>2024-05-07T14:19:42Z</time>
      </trkpt>
      <trkpt lat="47.5683" lon="-3.02478">
        <ele>4.8</ele>
        <time>2024-05-07T14:19:43Z</time>
      </trkpt>
      <trkpt lat="47.56829" lon="-3.02476">
        <ele>4.8</ele>
        <time>2024-05-07T14:19:44Z</time>
      </trkpt>
      <trkpt lat="47.56829" lon="-3.02476">
        <ele>4.8</ele>
        <time>2024-05-07T14:19:45Z</time>
      </trkpt>
      <trkpt lat="47.56828" lon="-3.02474">
        <ele>4.8</ele>
        <time>2024-05-07T14:19:46Z</time>
      </trkpt>
      <trkpt lat="47.56828" lon="-3.02472">
        <ele>4.8</ele>
        <time>2024-05-07T14:19:47Z</time>
      </trkpt>
      <trkpt lat="47.56827" lon="-3.02471">
        <ele>4.8</ele>
        <time>2024-05-07T14:19:48Z</time>
      </trkpt>
      <trkpt lat="47.56826" lon="-3.02469">
        <ele>4.8</ele>
        <time>2024-05-07T14:19:49Z</time>
      </trkpt>
      <trkpt lat="47.56824" lon="-3.02468">
        <ele>4.8</ele>
        <time>2024-05-07T14:19:50Z</time>
      </trkpt>
      <trkpt lat="47.56823" lon="-3.02466">
        <ele>4.8</ele>
        <time>2024-05-07T14:19:51Z</time>
      </trkpt>
      <trkpt lat="47.56823" lon="-3.02464">
        <ele>4.8</ele>
        <time>2024-05-07T14:19:52Z</time>
      </trkpt>
      <trkpt lat="47.56822" lon="-3.02463">
        <ele>4.6</ele>
        <time>2024-05-07T14:19:53Z</time>
      </trkpt>
      <trkpt lat="47.56822" lon="-3.02461">
        <ele>4.6</ele>
        <time>2024-05-07T14:19:54Z</time>
      </trkpt>
      <trkpt lat="47.56822" lon="-3.02459">
        <ele>4.6</ele>
        <time>2024-05-07T14:19:55Z</time>
      </trkpt>
      <trkpt lat="47.56822" lon="-3.02458">
        <ele>4.6</ele>
        <time>2024-05-07T14:19:56Z</time>
      </trkpt>
      <trkpt lat="47.56822" lon="-3.02457">
        <ele>4.6</ele>
        <time>2024-05-07T14:19:57Z</time>
      </trkpt>
      <trkpt lat="47.56821" lon="-3.02455">
        <ele>4.6</ele>
        <time>2024-05-07T14:19:58Z</time>
      </trkpt>
      <trkpt lat="47.56821" lon="-3.02453">
        <ele>4.6</ele>
        <time>2024-05-07T14:19:59Z</time>
      </trkpt>
      <trkpt lat="47.56821" lon="-3.02452">
        <ele>4.4</ele>
        <time>2024-05-07T14:20:00Z</time>
      </trkpt>
      <trkpt lat="47.5682" lon="-3.0245">
        <ele>4.4</ele>
        <time>2024-05-07T14:20:01Z</time>
      </trkpt>
      <trkpt lat="47.5682" lon="-3.02449">
        <ele>4.4</ele>
        <time>2024-05-07T14:20:02Z</time>
      </trkpt>
      <trkpt lat="47.56819" lon="-3.02447">
        <ele>4.4</ele>
        <time>2024-05-07T14:20:03Z</time>
      </trkpt>
      <trkpt lat="47.56819" lon="-3.02445">
        <ele>4.4</ele>
        <time>2024-05-07T14:20:04Z</time>
      </trkpt>
      <trkpt lat="47.56819" lon="-3.02443">
        <ele>4.4</ele>
        <time>2024-05-07T14:20:05Z</time>
      </trkpt>
      <trkpt lat="47.56818" lon="-3.02442">
        <ele>4.4</ele>
        <time>2024-05-07T14:20:06Z</time>
      </trkpt>
      <trkpt lat="47.56818" lon="-3.0244">
        <ele>4.2</ele>
        <time>2024-05-07T14:20:07Z</time>
      </trkpt>
      <trkpt lat="47.56818" lon="-3.02438">
        <ele>4.2</ele>
        <time>2024-05-07T14:20:08Z</time>
      </trkpt>
      <trkpt lat="47.56817" lon="-3.02436">
        <ele>4.2</ele>
        <time>2024-05-07T14:20:09Z</time>
      </trkpt>
      <trkpt lat="47.56817" lon="-3.02435">
        <ele>4</ele>
        <time>2024-05-07T14:20:10Z</time>
      </trkpt>
      <trkpt lat="47.56817" lon="-3.02433">
        <ele>4</ele>
        <time>2024-05-07T14:20:11Z</time>
      </trkpt>
      <trkpt lat="47.56817" lon="-3.02432">
        <ele>3.8</ele>
        <time>2024-05-07T14:20:12Z</time>
      </trkpt>
      <trkpt lat="47.56818" lon="-3.0243">
        <ele>3.8</ele>
        <time>2024-05-07T14:20:13Z</time>
      </trkpt>
      <trkpt lat="47.56817" lon="-3.02429">
        <ele>3.8</ele>
        <time>2024-05-07T14:20:14Z</time>
      </trkpt>
      <trkpt lat="47.56817" lon="-3.02428">
        <ele>3.8</ele>
        <time>2024-05-07T14:20:15Z</time>
      </trkpt>
      <trkpt lat="47.56817" lon="-3.02426">
        <ele>3.8</ele>
        <time>2024-05-07T14:20:16Z</time>
      </trkpt>
      <trkpt lat="47.56818" lon="-3.02425">
        <ele>3.8</ele>
        <time>2024-05-07T14:20:17Z</time>
      </trkpt>
      <trkpt lat="47.56818" lon="-3.02423">
        <ele>3.8</ele>
        <time>2024-05-07T14:20:18Z</time>
      </trkpt>
      <trkpt lat="47.56818" lon="-3.0242">
        <ele>3.8</ele>
        <time>2024-05-07T14:20:19Z</time>
      </trkpt>
      <trkpt lat="47.56818" lon="-3.02418">
        <ele>3.8</ele>
        <time>2024-05-07T14:20:20Z</time>
      </trkpt>
      <trkpt lat="47.56817" lon="-3.02416">
        <ele>3.8</ele>
        <time>2024-05-07T14:20:21Z</time>
      </trkpt>
      <trkpt lat="47.56817" lon="-3.02414">
        <ele>3.8</ele>
        <time>2024-05-07T14:20:22Z</time>
      </trkpt>
      <trkpt lat="47.56817" lon="-3.02413">
        <ele>3.8</ele>
        <time>2024-05-07T14:20:23Z</time>
      </trkpt>
      <trkpt lat="47.56817" lon="-3.02411">
        <ele>4</ele>
        <time>2024-05-07T14:20:24Z</time>
      </trkpt>
      <trkpt lat="47.56816" lon="-3.0241">
        <ele>4</ele>
        <time>2024-05-07T14:20:25Z</time>
      </trkpt>
      <trkpt lat="47.56815" lon="-3.02408">
        <ele>4</ele>
        <time>2024-05-07T14:20:26Z</time>
      </trkpt>
      <trkpt lat="47.56815" lon="-3.02406">
        <ele>4</ele>
        <time>2024-05-07T14:20:27Z</time>
      </trkpt>
      <trkpt lat="47.56814" lon="-3.02404">
        <ele>4</ele>
        <time>2024-05-07T14:20:28Z</time>
      </trkpt>
      <trkpt lat="47.56814" lon="-3.02402">
        <ele>4</ele>
        <time>2024-05-07T14:20:29Z</time>
      </trkpt>
      <trkpt lat="47.56813" lon="-3.024">
        <ele>4</ele>
        <time>2024-05-07T14:20:30Z</time>
      </trkpt>
      <trkpt lat="47.56813" lon="-3.02398">
        <ele>4</ele>
        <time>2024-05-07T14:20:31Z</time>
      </trkpt>
      <trkpt lat="47.56812" lon="-3.02396">
        <ele>4</ele>
        <time>2024-05-07T14:20:32Z</time>
      </trkpt>
      <trkpt lat="47.56811" lon="-3.02394">
        <ele>4</ele>
        <time>2024-05-07T14:20:33Z</time>
      </trkpt>
      <trkpt lat="47.5681" lon="-3.02392">
        <ele>4.2</ele>
        <time>2024-05-07T14:20:34Z</time>
      </trkpt>
      <trkpt lat="47.56809" lon="-3.02391">
        <ele>4.2</ele>
        <time>2024-05-07T14:20:35Z</time>
      </trkpt>
      <trkpt lat="47.56808" lon="-3.0239">
        <ele>4.2</ele>
        <time>2024-05-07T14:20:36Z</time>
      </trkpt>
      <trkpt lat="47.56807" lon="-3.02389">
        <ele>4</ele>
        <time>2024-05-07T14:20:37Z</time>
      </trkpt>
      <trkpt lat="47.56806" lon="-3.02388">
        <ele>4</ele>
        <time>2024-05-07T14:20:38Z</time>
      </trkpt>
      <trkpt lat="47.56806" lon="-3.02387">
        <ele>4</ele>
        <time>2024-05-07T14:20:39Z</time>
      </trkpt>
      <trkpt lat="47.56805" lon="-3.02386">
        <ele>4</ele>
        <time>2024-05-07T14:20:40Z</time>
      </trkpt>
      <trkpt lat="47.56804" lon="-3.02385">
        <ele>4</ele>
        <time>2024-05-07T14:20:41Z</time>
      </trkpt>
      <trkpt lat="47.56803" lon="-3.02383">
        <ele>4</ele>
        <time>2024-05-07T14:20:42Z</time>
      </trkpt>
      <trkpt lat="47.56802" lon="-3.02382">
        <ele>4</ele>
        <time>2024-05-07T14:20:43Z</time>
      </trkpt>
      <trkpt lat="47.56801" lon="-3.0238">
        <ele>3.8</ele>
        <time>2024-05-07T14:20:44Z</time>
      </trkpt>
      <trkpt lat="47.568" lon="-3.02379">
        <ele>3.8</ele>
        <time>2024-05-07T14:20:45Z</time>
      </trkpt>
      <trkpt lat="47.56799" lon="-3.02378">
        <ele>3.8</ele>
        <time>2024-05-07T14:20:46Z</time>
      </trkpt>
      <trkpt lat="47.56798" lon="-3.02378">
        <ele>3.8</ele>
        <time>2024-05-07T14:20:47Z</time>
      </trkpt>
      <trkpt lat="47.56797" lon="-3.02377">
        <ele>3.8</ele>
        <time>2024-05-07T14:20:48Z</time>
      </trkpt>
      <trkpt lat="47.56797" lon="-3.02376">
        <ele>3.8</ele>
        <time>2024-05-07T14:20:49Z</time>
      </trkpt>
      <trkpt lat="47.56796" lon="-3.02374">
        <ele>3.8</ele>
        <time>2024-05-07T14:20:50Z</time>
      </trkpt>
      <trkpt lat="47.56795" lon="-3.02373">
        <ele>3.8</ele>
        <time>2024-05-07T14:20:51Z</time>
      </trkpt>
      <trkpt lat="47.56794" lon="-3.02373">
        <ele>3.8</ele>
        <time>2024-05-07T14:20:52Z</time>
      </trkpt>
      <trkpt lat="47.56792" lon="-3.02372">
        <ele>3.8</ele>
        <time>2024-05-07T14:20:53Z</time>
      </trkpt>
      <trkpt lat="47.56791" lon="-3.02371">
        <ele>3.8</ele>
        <time>2024-05-07T14:20:54Z</time>
      </trkpt>
      <trkpt lat="47.56789" lon="-3.0237">
        <ele>3.8</ele>
        <time>2024-05-07T14:20:55Z</time>
      </trkpt>
      <trkpt lat="47.56788" lon="-3.0237">
        <ele>3.8</ele>
        <time>2024-05-07T14:20:56Z</time>
      </trkpt>
      <trkpt lat="47.56787" lon="-3.02369">
        <ele>3.8</ele>
        <time>2024-05-07T14:20:57Z</time>
      </trkpt>
      <trkpt lat="47.56786" lon="-3.02368">
        <ele>3.8</ele>
        <time>2024-05-07T14:20:58Z</time>
      </trkpt>
      <trkpt lat="47.56784" lon="-3.02367">
        <ele>4</ele>
        <time>2024-05-07T14:20:59Z</time>
      </trkpt>
      <trkpt lat="47.56783" lon="-3.02367">
        <ele>4</ele>
        <time>2024-05-07T14:21:00Z</time>
      </trkpt>
      <trkpt lat="47.56782" lon="-3.02366">
        <ele>4</ele>
        <time>2024-05-07T14:21:01Z</time>
      </trkpt>
      <trkpt lat="47.56781" lon="-3.02364">
        <ele>4</ele>
        <time>2024-05-07T14:21:02Z</time>
      </trkpt>
      <trkpt lat="47.56781" lon="-3.02363">
        <ele>4</ele>
        <time>2024-05-07T14:21:03Z</time>
      </trkpt>
      <trkpt lat="47.5678" lon="-3.02362">
        <ele>4</ele>
        <time>2024-05-07T14:21:04Z</time>
      </trkpt>
      <trkpt lat="47.56779" lon="-3.02361">
        <ele>4</ele>
        <time>2024-05-07T14:21:05Z</time>
      </trkpt>
      <trkpt lat="47.56779" lon="-3.0236">
        <ele>4</ele>
        <time>2024-05-07T14:21:06Z</time>
      </trkpt>
      <trkpt lat="47.56778" lon="-3.02358">
        <ele>4</ele>
        <time>2024-05-07T14:21:07Z</time>
      </trkpt>
      <trkpt lat="47.56778" lon="-3.02356">
        <ele>4</ele>
        <time>2024-05-07T14:21:08Z</time>
      </trkpt>
      <trkpt lat="47.56777" lon="-3.02355">
        <ele>4</ele>
        <time>2024-05-07T14:21:09Z</time>
      </trkpt>
      <trkpt lat="47.56777" lon="-3.02354">
        <ele>4</ele>
        <time>2024-05-07T14:21:10Z</time>
      </trkpt>
      <trkpt lat="47.56776" lon="-3.02353">
        <ele>4</ele>
        <time>2024-05-07T14:21:11Z</time>
      </trkpt>
      <trkpt lat="47.56775" lon="-3.02352">
        <ele>4</ele>
        <time>2024-05-07T14:21:12Z</time>
      </trkpt>
      <trkpt lat="47.56774" lon="-3.0235">
        <ele>4</ele>
        <time>2024-05-07T14:21:13Z</time>
      </trkpt>
      <trkpt lat="47.56773" lon="-3.02349">
        <ele>4</ele>
        <time>2024-05-07T14:21:14Z</time>
      </trkpt>
      <trkpt lat="47.56772" lon="-3.02347">
        <ele>4.2</ele>
        <time>2024-05-07T14:21:15Z</time>
      </trkpt>
      <trkpt lat="47.56771" lon="-3.02346">
        <ele>4.2</ele>
        <time>2024-05-07T14:21:16Z</time>
      </trkpt>
      <trkpt lat="47.5677" lon="-3.02345">
        <ele>4.2</ele>
        <time>2024-05-07T14:21:17Z</time>
      </trkpt>
      <trkpt lat="47.56769" lon="-3.02344">
        <ele>4.2</ele>
        <time>2024-05-07T14:21:18Z</time>
      </trkpt>
      <trkpt lat="47.56768" lon="-3.02342">
        <ele>4.2</ele>
        <time>2024-05-07T14:21:19Z</time>
      </trkpt>
      <trkpt lat="47.56767" lon="-3.02341">
        <ele>4.2</ele>
        <time>2024-05-07T14:21:20Z</time>
      </trkpt>
      <trkpt lat="47.56766" lon="-3.02339">
        <ele>4.2</ele>
        <time>2024-05-07T14:21:21Z</time>
      </trkpt>
      <trkpt lat="47.56765" lon="-3.02337">
        <ele>4.2</ele>
        <time>2024-05-07T14:21:22Z</time>
      </trkpt>
      <trkpt lat="47.56765" lon="-3.02335">
        <ele>4.2</ele>
        <time>2024-05-07T14:21:23Z</time>
      </trkpt>
      <trkpt lat="47.56765" lon="-3.02333">
        <ele>4.2</ele>
        <time>2024-05-07T14:21:24Z</time>
      </trkpt>
      <trkpt lat="47.56764" lon="-3.02331">
        <ele>4.2</ele>
        <time>2024-05-07T14:21:25Z</time>
      </trkpt>
      <trkpt lat="47.56764" lon="-3.0233">
        <ele>4.2</ele>
        <time>2024-05-07T14:21:26Z</time>
      </trkpt>
      <trkpt lat="47.56763" lon="-3.02328">
        <ele>4.2</ele>
        <time>2024-05-07T14:21:27Z</time>
      </trkpt>
      <trkpt lat="47.56762" lon="-3.02327">
        <ele>4.2</ele>
        <time>2024-05-07T14:21:28Z</time>
      </trkpt>
      <trkpt lat="47.56761" lon="-3.02326">
        <ele>4.2</ele>
        <time>2024-05-07T14:21:29Z</time>
      </trkpt>
      <trkpt lat="47.5676" lon="-3.02325">
        <ele>4.2</ele>
        <time>2024-05-07T14:21:30Z</time>
      </trkpt>
      <trkpt lat="47.5676" lon="-3.02323">
        <ele>4.2</ele>
        <time>2024-05-07T14:21:31Z</time>
      </trkpt>
      <trkpt lat="47.5676" lon="-3.02322">
        <ele>4.2</ele>
        <time>2024-05-07T14:21:32Z</time>
      </trkpt>
      <trkpt lat="47.5676" lon="-3.0232">
        <ele>4.2</ele>
        <time>2024-05-07T14:21:33Z</time>
      </trkpt>
      <trkpt lat="47.56759" lon="-3.02318">
        <ele>4.2</ele>
        <time>2024-05-07T14:21:34Z</time>
      </trkpt>
      <trkpt lat="47.56758" lon="-3.02316">
        <ele>4.2</ele>
        <time>2024-05-07T14:21:35Z</time>
      </trkpt>
      <trkpt lat="47.56758" lon="-3.02315">
        <ele>4.2</ele>
        <time>2024-05-07T14:21:36Z</time>
      </trkpt>
      <trkpt lat="47.56759" lon="-3.02312">
        <ele>4.2</ele>
        <time>2024-05-07T14:21:37Z</time>
      </trkpt>
      <trkpt lat="47.56759" lon="-3.0231">
        <ele>4.2</ele>
        <time>2024-05-07T14:21:38Z</time>
      </trkpt>
      <trkpt lat="47.5676" lon="-3.02308">
        <ele>4.2</ele>
        <time>2024-05-07T14:21:39Z</time>
      </trkpt>
      <trkpt lat="47.5676" lon="-3.02307">
        <ele>4.2</ele>
        <time>2024-05-07T14:21:40Z</time>
      </trkpt>
      <trkpt lat="47.5676" lon="-3.02306">
        <ele>4.2</ele>
        <time>2024-05-07T14:21:41Z</time>
      </trkpt>
      <trkpt lat="47.56761" lon="-3.02305">
        <ele>4.2</ele>
        <time>2024-05-07T14:21:42Z</time>
      </trkpt>
      <trkpt lat="47.56761" lon="-3.02304">
        <ele>4.2</ele>
        <time>2024-05-07T14:21:43Z</time>
      </trkpt>
      <trkpt lat="47.56761" lon="-3.02302">
        <ele>4.2</ele>
        <time>2024-05-07T14:21:44Z</time>
      </trkpt>
      <trkpt lat="47.56762" lon="-3.02301">
        <ele>4.2</ele>
        <time>2024-05-07T14:21:45Z</time>
      </trkpt>
      <trkpt lat="47.56763" lon="-3.02299">
        <ele>4.2</ele>
        <time>2024-05-07T14:21:46Z</time>
      </trkpt>
      <trkpt lat="47.56764" lon="-3.02297">
        <ele>4.2</ele>
        <time>2024-05-07T14:21:47Z</time>
      </trkpt>
      <trkpt lat="47.56765" lon="-3.02295">
        <ele>4.2</ele>
        <time>2024-05-07T14:21:48Z</time>
      </trkpt>
      <trkpt lat="47.56765" lon="-3.02294">
        <ele>4.2</ele>
        <time>2024-05-07T14:21:49Z</time>
      </trkpt>
      <trkpt lat="47.56766" lon="-3.02292">
        <ele>4.2</ele>
        <time>2024-05-07T14:21:50Z</time>
      </trkpt>
      <trkpt lat="47.56767" lon="-3.02291">
        <ele>4.2</ele>
        <time>2024-05-07T14:21:51Z</time>
      </trkpt>
      <trkpt lat="47.56768" lon="-3.02289">
        <ele>4.2</ele>
        <time>2024-05-07T14:21:52Z</time>
      </trkpt>
      <trkpt lat="47.56769" lon="-3.02288">
        <ele>4.4</ele>
        <time>2024-05-07T14:21:53Z</time>
      </trkpt>
      <trkpt lat="47.5677" lon="-3.02287">
        <ele>4.4</ele>
        <time>2024-05-07T14:21:54Z</time>
      </trkpt>
      <trkpt lat="47.56771" lon="-3.02287">
        <ele>4.4</ele>
        <time>2024-05-07T14:21:55Z</time>
      </trkpt>
      <trkpt lat="47.56772" lon="-3.02286">
        <ele>4.4</ele>
        <time>2024-05-07T14:21:56Z</time>
      </trkpt>
      <trkpt lat="47.56772" lon="-3.02284">
        <ele>4.4</ele>
        <time>2024-05-07T14:21:57Z</time>
      </trkpt>
      <trkpt lat="47.56773" lon="-3.02283">
        <ele>4.6</ele>
        <time>2024-05-07T14:21:58Z</time>
      </trkpt>
      <trkpt lat="47.56773" lon="-3.02281">
        <ele>4.6</ele>
        <time>2024-05-07T14:21:59Z</time>
      </trkpt>
      <trkpt lat="47.56774" lon="-3.02279">
        <ele>4.8</ele>
        <time>2024-05-07T14:22:00Z</time>
      </trkpt>
      <trkpt lat="47.56774" lon="-3.02278">
        <ele>4.8</ele>
        <time>2024-05-07T14:22:01Z</time>
      </trkpt>
      <trkpt lat="47.56775" lon="-3.02276">
        <ele>5</ele>
        <time>2024-05-07T14:22:02Z</time>
      </trkpt>
      <trkpt lat="47.56776" lon="-3.02274">
        <ele>5</ele>
        <time>2024-05-07T14:22:03Z</time>
      </trkpt>
      <trkpt lat="47.56777" lon="-3.02273">
        <ele>5.2</ele>
        <time>2024-05-07T14:22:04Z</time>
      </trkpt>
      <trkpt lat="47.56777" lon="-3.02272">
        <ele>5.4</ele>
        <time>2024-05-07T14:22:05Z</time>
      </trkpt>
      <trkpt lat="47.56778" lon="-3.0227">
        <ele>5.4</ele>
        <time>2024-05-07T14:22:06Z</time>
      </trkpt>
      <trkpt lat="47.56779" lon="-3.02269">
        <ele>5.4</ele>
        <time>2024-05-07T14:22:07Z</time>
      </trkpt>
      <trkpt lat="47.5678" lon="-3.02268">
        <ele>5.4</ele>
        <time>2024-05-07T14:22:08Z</time>
      </trkpt>
      <trkpt lat="47.56781" lon="-3.02266">
        <ele>5.4</ele>
        <time>2024-05-07T14:22:09Z</time>
      </trkpt>
      <trkpt lat="47.56782" lon="-3.02264">
        <ele>5.4</ele>
        <time>2024-05-07T14:22:10Z</time>
      </trkpt>
      <trkpt lat="47.56783" lon="-3.02263">
        <ele>5.4</ele>
        <time>2024-05-07T14:22:11Z</time>
      </trkpt>
      <trkpt lat="47.56784" lon="-3.02261">
        <ele>5.6</ele>
        <time>2024-05-07T14:22:12Z</time>
      </trkpt>
      <trkpt lat="47.56786" lon="-3.0226">
        <ele>5.6</ele>
        <time>2024-05-07T14:22:13Z</time>
      </trkpt>
      <trkpt lat="47.56787" lon="-3.02259">
        <ele>5.6</ele>
        <time>2024-05-07T14:22:14Z</time>
      </trkpt>
      <trkpt lat="47.56787" lon="-3.02257">
        <ele>5.6</ele>
        <time>2024-05-07T14:22:15Z</time>
      </trkpt>
      <trkpt lat="47.56787" lon="-3.02256">
        <ele>5.6</ele>
        <time>2024-05-07T14:22:16Z</time>
      </trkpt>
      <trkpt lat="47.56787" lon="-3.02255">
        <ele>5.6</ele>
        <time>2024-05-07T14:22:17Z</time>
      </trkpt>
      <trkpt lat="47.56787" lon="-3.02253">
        <ele>5.6</ele>
        <time>2024-05-07T14:22:18Z</time>
      </trkpt>
      <trkpt lat="47.56788" lon="-3.02252">
        <ele>5.6</ele>
        <time>2024-05-07T14:22:19Z</time>
      </trkpt>
      <trkpt lat="47.56789" lon="-3.0225">
        <ele>5.6</ele>
        <time>2024-05-07T14:22:20Z</time>
      </trkpt>
      <trkpt lat="47.5679" lon="-3.02249">
        <ele>5.6</ele>
        <time>2024-05-07T14:22:21Z</time>
      </trkpt>
      <trkpt lat="47.56791" lon="-3.02247">
        <ele>5.4</ele>
        <time>2024-05-07T14:22:22Z</time>
      </trkpt>
      <trkpt lat="47.56791" lon="-3.02247">
        <ele>5.2</ele>
        <time>2024-05-07T14:22:23Z</time>
      </trkpt>
      <trkpt lat="47.56793" lon="-3.02245">
        <ele>5</ele>
        <time>2024-05-07T14:22:24Z</time>
      </trkpt>
      <trkpt lat="47.56793" lon="-3.02243">
        <ele>5</ele>
        <time>2024-05-07T14:22:25Z</time>
      </trkpt>
      <trkpt lat="47.56794" lon="-3.02242">
        <ele>4.8</ele>
        <time>2024-05-07T14:22:26Z</time>
      </trkpt>
      <trkpt lat="47.56795" lon="-3.0224">
        <ele>4.8</ele>
        <time>2024-05-07T14:22:27Z</time>
      </trkpt>
      <trkpt lat="47.56796" lon="-3.02238">
        <ele>4.8</ele>
        <time>2024-05-07T14:22:28Z</time>
      </trkpt>
      <trkpt lat="47.56797" lon="-3.02236">
        <ele>4.8</ele>
        <time>2024-05-07T14:22:29Z</time>
      </trkpt>
      <trkpt lat="47.56797" lon="-3.02235">
        <ele>4.6</ele>
        <time>2024-05-07T14:22:30Z</time>
      </trkpt>
      <trkpt lat="47.56797" lon="-3.02234">
        <ele>4.6</ele>
        <time>2024-05-07T14:22:31Z</time>
      </trkpt>
      <trkpt lat="47.56797" lon="-3.02232">
        <ele>4.6</ele>
        <time>2024-05-07T14:22:32Z</time>
      </trkpt>
      <trkpt lat="47.56798" lon="-3.0223">
        <ele>4.6</ele>
        <time>2024-05-07T14:22:33Z</time>
      </trkpt>
      <trkpt lat="47.56799" lon="-3.02228">
        <ele>4.8</ele>
        <time>2024-05-07T14:22:34Z</time>
      </trkpt>
      <trkpt lat="47.568" lon="-3.02226">
        <ele>4.8</ele>
        <time>2024-05-07T14:22:35Z</time>
      </trkpt>
      <trkpt lat="47.56801" lon="-3.02224">
        <ele>4.8</ele>
        <time>2024-05-07T14:22:36Z</time>
      </trkpt>
      <trkpt lat="47.56802" lon="-3.02222">
        <ele>5</ele>
        <time>2024-05-07T14:22:37Z</time>
      </trkpt>
      <trkpt lat="47.56803" lon="-3.0222">
        <ele>5.2</ele>
        <time>2024-05-07T14:22:38Z</time>
      </trkpt>
      <trkpt lat="47.56804" lon="-3.02218">
        <ele>5.2</ele>
        <time>2024-05-07T14:22:39Z</time>
      </trkpt>
      <trkpt lat="47.56805" lon="-3.02216">
        <ele>5.2</ele>
        <time>2024-05-07T14:22:40Z</time>
      </trkpt>
      <trkpt lat="47.56807" lon="-3.02214">
        <ele>5.2</ele>
        <time>2024-05-07T14:22:41Z</time>
      </trkpt>
      <trkpt lat="47.56807" lon="-3.02213">
        <ele>5.2</ele>
        <time>2024-05-07T14:22:42Z</time>
      </trkpt>
      <trkpt lat="47.56807" lon="-3.02212">
        <ele>5.2</ele>
        <time>2024-05-07T14:22:43Z</time>
      </trkpt>
      <trkpt lat="47.56808" lon="-3.0221">
        <ele>5.2</ele>
        <time>2024-05-07T14:22:44Z</time>
      </trkpt>
      <trkpt lat="47.56809" lon="-3.02208">
        <ele>5.2</ele>
        <time>2024-05-07T14:22:45Z</time>
      </trkpt>
      <trkpt lat="47.56809" lon="-3.02206">
        <ele>5.2</ele>
        <time>2024-05-07T14:22:46Z</time>
      </trkpt>
      <trkpt lat="47.56809" lon="-3.02205">
        <ele>5.2</ele>
        <time>2024-05-07T14:22:47Z</time>
      </trkpt>
      <trkpt lat="47.56809" lon="-3.02204">
        <ele>5.2</ele>
        <time>2024-05-07T14:22:48Z</time>
      </trkpt>
      <trkpt lat="47.5681" lon="-3.02203">
        <ele>5.2</ele>
        <time>2024-05-07T14:22:49Z</time>
      </trkpt>
      <trkpt lat="47.5681" lon="-3.02202">
        <ele>5</ele>
        <time>2024-05-07T14:22:50Z</time>
      </trkpt>
      <trkpt lat="47.5681" lon="-3.02201">
        <ele>5</ele>
        <time>2024-05-07T14:22:51Z</time>
      </trkpt>
      <trkpt lat="47.5681" lon="-3.022">
        <ele>5</ele>
        <time>2024-05-07T14:22:52Z</time>
      </trkpt>
      <trkpt lat="47.5681" lon="-3.022">
        <ele>5</ele>
        <time>2024-05-07T14:22:53Z</time>
      </trkpt>
      <trkpt lat="47.5681" lon="-3.02199">
        <ele>5</ele>
        <time>2024-05-07T14:22:54Z</time>
      </trkpt>
      <trkpt lat="47.56811" lon="-3.02198">
        <ele>5</ele>
        <time>2024-05-07T14:22:55Z</time>
      </trkpt>
      <trkpt lat="47.56812" lon="-3.02197">
        <ele>5</ele>
        <time>2024-05-07T14:22:56Z</time>
      </trkpt>
      <trkpt lat="47.56814" lon="-3.02196">
        <ele>5.2</ele>
        <time>2024-05-07T14:22:57Z</time>
      </trkpt>
      <trkpt lat="47.56816" lon="-3.02194">
        <ele>5.2</ele>
        <time>2024-05-07T14:22:58Z</time>
      </trkpt>
      <trkpt lat="47.56817" lon="-3.02193">
        <ele>5.2</ele>
        <time>2024-05-07T14:22:59Z</time>
      </trkpt>
      <trkpt lat="47.56817" lon="-3.02191">
        <ele>5.2</ele>
        <time>2024-05-07T14:23:00Z</time>
      </trkpt>
      <trkpt lat="47.56817" lon="-3.02189">
        <ele>5.2</ele>
        <time>2024-05-07T14:23:01Z</time>
      </trkpt>
      <trkpt lat="47.56818" lon="-3.02188">
        <ele>5.2</ele>
        <time>2024-05-07T14:23:02Z</time>
      </trkpt>
      <trkpt lat="47.56818" lon="-3.02186">
        <ele>5.2</ele>
        <time>2024-05-07T14:23:03Z</time>
      </trkpt>
      <trkpt lat="47.56819" lon="-3.02185">
        <ele>5.2</ele>
        <time>2024-05-07T14:23:04Z</time>
      </trkpt>
      <trkpt lat="47.5682" lon="-3.02183">
        <ele>5</ele>
        <time>2024-05-07T14:23:05Z</time>
      </trkpt>
      <trkpt lat="47.56818" lon="-3.02183">
        <ele>5</ele>
        <time>2024-05-07T14:23:06Z</time>
      </trkpt>
      <trkpt lat="47.56818" lon="-3.02181">
        <ele>5</ele>
        <time>2024-05-07T14:23:07Z</time>
      </trkpt>
      <trkpt lat="47.56817" lon="-3.0218">
        <ele>5</ele>
        <time>2024-05-07T14:23:08Z</time>
      </trkpt>
      <trkpt lat="47.56818" lon="-3.02177">
        <ele>4.8</ele>
        <time>2024-05-07T14:23:09Z</time>
      </trkpt>
      <trkpt lat="47.5682" lon="-3.02175">
        <ele>4.8</ele>
        <time>2024-05-07T14:23:10Z</time>
      </trkpt>
      <trkpt lat="47.5682" lon="-3.02172">
        <ele>4.6</ele>
        <time>2024-05-07T14:23:11Z</time>
      </trkpt>
      <trkpt lat="47.56819" lon="-3.0217">
        <ele>4.6</ele>
        <time>2024-05-07T14:23:12Z</time>
      </trkpt>
      <trkpt lat="47.56819" lon="-3.02168">
        <ele>4.6</ele>
        <time>2024-05-07T14:23:13Z</time>
      </trkpt>
      <trkpt lat="47.56819" lon="-3.02166">
        <ele>4.6</ele>
        <time>2024-05-07T14:23:14Z</time>
      </trkpt>
      <trkpt lat="47.5682" lon="-3.02164">
        <ele>4.6</ele>
        <time>2024-05-07T14:23:15Z</time>
      </trkpt>
      <trkpt lat="47.5682" lon="-3.02162">
        <ele>4.4</ele>
        <time>2024-05-07T14:23:16Z</time>
      </trkpt>
      <trkpt lat="47.56821" lon="-3.02158">
        <ele>4.4</ele>
        <time>2024-05-07T14:23:17Z</time>
      </trkpt>
      <trkpt lat="47.56822" lon="-3.02156">
        <ele>4.6</ele>
        <time>2024-05-07T14:23:18Z</time>
      </trkpt>
      <trkpt lat="47.56822" lon="-3.02154">
        <ele>4.6</ele>
        <time>2024-05-07T14:23:19Z</time>
      </trkpt>
      <trkpt lat="47.56822" lon="-3.02153">
        <ele>4.4</ele>
        <time>2024-05-07T14:23:20Z</time>
      </trkpt>
      <trkpt lat="47.56822" lon="-3.02152">
        <ele>4.4</ele>
        <time>2024-05-07T14:23:21Z</time>
      </trkpt>
      <trkpt lat="47.56823" lon="-3.0215">
        <ele>4.4</ele>
        <time>2024-05-07T14:23:22Z</time>
      </trkpt>
      <trkpt lat="47.56823" lon="-3.02147">
        <ele>4.4</ele>
        <time>2024-05-07T14:23:23Z</time>
      </trkpt>
      <trkpt lat="47.56823" lon="-3.02145">
        <ele>4.4</ele>
        <time>2024-05-07T14:23:24Z</time>
      </trkpt>
      <trkpt lat="47.56823" lon="-3.02143">
        <ele>4.4</ele>
        <time>2024-05-07T14:23:25Z</time>
      </trkpt>
      <trkpt lat="47.56823" lon="-3.02141">
        <ele>4.4</ele>
        <time>2024-05-07T14:23:26Z</time>
      </trkpt>
      <trkpt lat="47.56824" lon="-3.02139">
        <ele>4.6</ele>
        <time>2024-05-07T14:23:27Z</time>
      </trkpt>
      <trkpt lat="47.56824" lon="-3.02137">
        <ele>4.6</ele>
        <time>2024-05-07T14:23:28Z</time>
      </trkpt>
      <trkpt lat="47.56824" lon="-3.02135">
        <ele>4.6</ele>
        <time>2024-05-07T14:23:29Z</time>
      </trkpt>
      <trkpt lat="47.56824" lon="-3.02133">
        <ele>4.6</ele>
        <time>2024-05-07T14:23:30Z</time>
      </trkpt>
      <trkpt lat="47.56824" lon="-3.02131">
        <ele>4.6</ele>
        <time>2024-05-07T14:23:31Z</time>
      </trkpt>
      <trkpt lat="47.56825" lon="-3.02129">
        <ele>4.6</ele>
        <time>2024-05-07T14:23:32Z</time>
      </trkpt>
      <trkpt lat="47.56826" lon="-3.02126">
        <ele>4.8</ele>
        <time>2024-05-07T14:23:33Z</time>
      </trkpt>
      <trkpt lat="47.56826" lon="-3.02125">
        <ele>4.8</ele>
        <time>2024-05-07T14:23:34Z</time>
      </trkpt>
      <trkpt lat="47.56826" lon="-3.02123">
        <ele>4.8</ele>
        <time>2024-05-07T14:23:35Z</time>
      </trkpt>
      <trkpt lat="47.56826" lon="-3.02121">
        <ele>4.8</ele>
        <time>2024-05-07T14:23:36Z</time>
      </trkpt>
      <trkpt lat="47.56826" lon="-3.02119">
        <ele>4.8</ele>
        <time>2024-05-07T14:23:37Z</time>
      </trkpt>
      <trkpt lat="47.56825" lon="-3.02117">
        <ele>4.8</ele>
        <time>2024-05-07T14:23:38Z</time>
      </trkpt>
      <trkpt lat="47.56822" lon="-3.02113">
        <ele>4.8</ele>
        <time>2024-05-07T14:23:39Z</time>
      </trkpt>
      <trkpt lat="47.56822" lon="-3.02111">
        <ele>4.8</ele>
        <time>2024-05-07T14:23:40Z</time>
      </trkpt>
      <trkpt lat="47.56821" lon="-3.02109">
        <ele>4.8</ele>
        <time>2024-05-07T14:23:41Z</time>
      </trkpt>
      <trkpt lat="47.56821" lon="-3.02107">
        <ele>4.8</ele>
        <time>2024-05-07T14:23:42Z</time>
      </trkpt>
      <trkpt lat="47.5682" lon="-3.02105">
        <ele>4.8</ele>
        <time>2024-05-07T14:23:43Z</time>
      </trkpt>
      <trkpt lat="47.56819" lon="-3.02103">
        <ele>4.8</ele>
        <time>2024-05-07T14:23:44Z</time>
      </trkpt>
      <trkpt lat="47.56818" lon="-3.02101">
        <ele>4.6</ele>
        <time>2024-05-07T14:23:45Z</time>
      </trkpt>
      <trkpt lat="47.56817" lon="-3.02099">
        <ele>4.6</ele>
        <time>2024-05-07T14:23:46Z</time>
      </trkpt>
      <trkpt lat="47.56816" lon="-3.02098">
        <ele>4.6</ele>
        <time>2024-05-07T14:23:47Z</time>
      </trkpt>
      <trkpt lat="47.56815" lon="-3.02096">
        <ele>4.4</ele>
        <time>2024-05-07T14:23:48Z</time>
      </trkpt>
      <trkpt lat="47.56814" lon="-3.02094">
        <ele>4.2</ele>
        <time>2024-05-07T14:23:49Z</time>
      </trkpt>
      <trkpt lat="47.56813" lon="-3.02093">
        <ele>4.2</ele>
        <time>2024-05-07T14:23:50Z</time>
      </trkpt>
      <trkpt lat="47.56812" lon="-3.02092">
        <ele>4.2</ele>
        <time>2024-05-07T14:23:51Z</time>
      </trkpt>
      <trkpt lat="47.56811" lon="-3.0209">
        <ele>4.2</ele>
        <time>2024-05-07T14:23:52Z</time>
      </trkpt>
      <trkpt lat="47.56811" lon="-3.02088">
        <ele>4.2</ele>
        <time>2024-05-07T14:23:53Z</time>
      </trkpt>
      <trkpt lat="47.5681" lon="-3.02087">
        <ele>4.2</ele>
        <time>2024-05-07T14:23:54Z</time>
      </trkpt>
      <trkpt lat="47.5681" lon="-3.02084">
        <ele>4.2</ele>
        <time>2024-05-07T14:23:55Z</time>
      </trkpt>
      <trkpt lat="47.5681" lon="-3.02083">
        <ele>4.2</ele>
        <time>2024-05-07T14:23:56Z</time>
      </trkpt>
      <trkpt lat="47.56809" lon="-3.02082">
        <ele>4.2</ele>
        <time>2024-05-07T14:23:57Z</time>
      </trkpt>
      <trkpt lat="47.56809" lon="-3.0208">
        <ele>4.2</ele>
        <time>2024-05-07T14:23:58Z</time>
      </trkpt>
      <trkpt lat="47.56808" lon="-3.02078">
        <ele>4.2</ele>
        <time>2024-05-07T14:23:59Z</time>
      </trkpt>
      <trkpt lat="47.56808" lon="-3.02077">
        <ele>4.2</ele>
        <time>2024-05-07T14:24:00Z</time>
      </trkpt>
      <trkpt lat="47.56808" lon="-3.02076">
        <ele>4.4</ele>
        <time>2024-05-07T14:24:01Z</time>
      </trkpt>
      <trkpt lat="47.56807" lon="-3.02075">
        <ele>4.4</ele>
        <time>2024-05-07T14:24:02Z</time>
      </trkpt>
      <trkpt lat="47.56807" lon="-3.02073">
        <ele>4.4</ele>
        <time>2024-05-07T14:24:03Z</time>
      </trkpt>
      <trkpt lat="47.56807" lon="-3.02071">
        <ele>4.6</ele>
        <time>2024-05-07T14:24:04Z</time>
      </trkpt>
      <trkpt lat="47.56807" lon="-3.02069">
        <ele>4.6</ele>
        <time>2024-05-07T14:24:05Z</time>
      </trkpt>
      <trkpt lat="47.56806" lon="-3.02067">
        <ele>4.8</ele>
        <time>2024-05-07T14:24:06Z</time>
      </trkpt>
      <trkpt lat="47.56806" lon="-3.02066">
        <ele>4.8</ele>
        <time>2024-05-07T14:24:07Z</time>
      </trkpt>
      <trkpt lat="47.56806" lon="-3.02064">
        <ele>5</ele>
        <time>2024-05-07T14:24:08Z</time>
      </trkpt>
      <trkpt lat="47.56807" lon="-3.02062">
        <ele>5</ele>
        <time>2024-05-07T14:24:09Z</time>
      </trkpt>
      <trkpt lat="47.56806" lon="-3.02061">
        <ele>5</ele>
        <time>2024-05-07T14:24:10Z</time>
      </trkpt>
      <trkpt lat="47.56806" lon="-3.02059">
        <ele>5</ele>
        <time>2024-05-07T14:24:11Z</time>
      </trkpt>
      <trkpt lat="47.56806" lon="-3.02057">
        <ele>5.2</ele>
        <time>2024-05-07T14:24:12Z</time>
      </trkpt>
      <trkpt lat="47.56806" lon="-3.02055">
        <ele>5.2</ele>
        <time>2024-05-07T14:24:13Z</time>
      </trkpt>
      <trkpt lat="47.56806" lon="-3.02054">
        <ele>5.2</ele>
        <time>2024-05-07T14:24:14Z</time>
      </trkpt>
      <trkpt lat="47.56806" lon="-3.02052">
        <ele>5.4</ele>
        <time>2024-05-07T14:24:15Z</time>
      </trkpt>
      <trkpt lat="47.56805" lon="-3.0205">
        <ele>5.4</ele>
        <time>2024-05-07T14:24:16Z</time>
      </trkpt>
      <trkpt lat="47.56805" lon="-3.02048">
        <ele>5.4</ele>
        <time>2024-05-07T14:24:17Z</time>
      </trkpt>
      <trkpt lat="47.56806" lon="-3.02046">
        <ele>5.6</ele>
        <time>2024-05-07T14:24:18Z</time>
      </trkpt>
      <trkpt lat="47.56805" lon="-3.02044">
        <ele>5.6</ele>
        <time>2024-05-07T14:24:19Z</time>
      </trkpt>
      <trkpt lat="47.56804" lon="-3.02043">
        <ele>5.8</ele>
        <time>2024-05-07T14:24:20Z</time>
      </trkpt>
      <trkpt lat="47.56803" lon="-3.02041">
        <ele>5.8</ele>
        <time>2024-05-07T14:24:21Z</time>
      </trkpt>
      <trkpt lat="47.56803" lon="-3.02039">
        <ele>5.8</ele>
        <time>2024-05-07T14:24:22Z</time>
      </trkpt>
      <trkpt lat="47.56803" lon="-3.02037">
        <ele>5.8</ele>
        <time>2024-05-07T14:24:23Z</time>
      </trkpt>
      <trkpt lat="47.56803" lon="-3.02035">
        <ele>6</ele>
        <time>2024-05-07T14:24:24Z</time>
      </trkpt>
      <trkpt lat="47.56804" lon="-3.02034">
        <ele>6</ele>
        <time>2024-05-07T14:24:25Z</time>
      </trkpt>
      <trkpt lat="47.56804" lon="-3.02033">
        <ele>6</ele>
        <time>2024-05-07T14:24:26Z</time>
      </trkpt>
      <trkpt lat="47.56804" lon="-3.02033">
        <ele>6.2</ele>
        <time>2024-05-07T14:24:27Z</time>
      </trkpt>
      <trkpt lat="47.56803" lon="-3.02032">
        <ele>6.2</ele>
        <time>2024-05-07T14:24:28Z</time>
      </trkpt>
      <trkpt lat="47.56803" lon="-3.0203">
        <ele>6.2</ele>
        <time>2024-05-07T14:24:29Z</time>
      </trkpt>
      <trkpt lat="47.56803" lon="-3.02028">
        <ele>6.2</ele>
        <time>2024-05-07T14:24:30Z</time>
      </trkpt>
      <trkpt lat="47.56802" lon="-3.02027">
        <ele>6.2</ele>
        <time>2024-05-07T14:24:31Z</time>
      </trkpt>
      <trkpt lat="47.56801" lon="-3.02025">
        <ele>6.2</ele>
        <time>2024-05-07T14:24:32Z</time>
      </trkpt>
      <trkpt lat="47.568" lon="-3.02024">
        <ele>6.2</ele>
        <time>2024-05-07T14:24:33Z</time>
      </trkpt>
      <trkpt lat="47.56799" lon="-3.02022">
        <ele>6.2</ele>
        <time>2024-05-07T14:24:34Z</time>
      </trkpt>
      <trkpt lat="47.56799" lon="-3.02021">
        <ele>6</ele>
        <time>2024-05-07T14:24:35Z</time>
      </trkpt>
      <trkpt lat="47.56798" lon="-3.02019">
        <ele>5.8</ele>
        <time>2024-05-07T14:24:36Z</time>
      </trkpt>
      <trkpt lat="47.56797" lon="-3.02018">
        <ele>5.6</ele>
        <time>2024-05-07T14:24:37Z</time>
      </trkpt>
      <trkpt lat="47.56797" lon="-3.02017">
        <ele>5.6</ele>
        <time>2024-05-07T14:24:38Z</time>
      </trkpt>
      <trkpt lat="47.56796" lon="-3.02015">
        <ele>5.4</ele>
        <time>2024-05-07T14:24:39Z</time>
      </trkpt>
      <trkpt lat="47.56795" lon="-3.02014">
        <ele>5.2</ele>
        <time>2024-05-07T14:24:40Z</time>
      </trkpt>
      <trkpt lat="47.56795" lon="-3.02012">
        <ele>5.2</ele>
        <time>2024-05-07T14:24:41Z</time>
      </trkpt>
      <trkpt lat="47.56794" lon="-3.02011">
        <ele>5.2</ele>
        <time>2024-05-07T14:24:42Z</time>
      </trkpt>
      <trkpt lat="47.56793" lon="-3.0201">
        <ele>5</ele>
        <time>2024-05-07T14:24:43Z</time>
      </trkpt>
      <trkpt lat="47.56792" lon="-3.02008">
        <ele>5</ele>
        <time>2024-05-07T14:24:44Z</time>
      </trkpt>
      <trkpt lat="47.56792" lon="-3.02007">
        <ele>5</ele>
        <time>2024-05-07T14:24:45Z</time>
      </trkpt>
      <trkpt lat="47.56792" lon="-3.02005">
        <ele>5</ele>
        <time>2024-05-07T14:24:46Z</time>
      </trkpt>
      <trkpt lat="47.56792" lon="-3.02004">
        <ele>5</ele>
        <time>2024-05-07T14:24:47Z</time>
      </trkpt>
      <trkpt lat="47.56792" lon="-3.02003">
        <ele>5</ele>
        <time>2024-05-07T14:24:48Z</time>
      </trkpt>
      <trkpt lat="47.56792" lon="-3.02001">
        <ele>5</ele>
        <time>2024-05-07T14:24:49Z</time>
      </trkpt>
      <trkpt lat="47.56792" lon="-3.02">
        <ele>5</ele>
        <time>2024-05-07T14:24:50Z</time>
      </trkpt>
      <trkpt lat="47.56792" lon="-3.01999">
        <ele>5</ele>
        <time>2024-05-07T14:24:51Z</time>
      </trkpt>
      <trkpt lat="47.56791" lon="-3.01997">
        <ele>5</ele>
        <time>2024-05-07T14:24:52Z</time>
      </trkpt>
      <trkpt lat="47.5679" lon="-3.01995">
        <ele>5</ele>
        <time>2024-05-07T14:24:53Z</time>
      </trkpt>
      <trkpt lat="47.56789" lon="-3.01994">
        <ele>5</ele>
        <time>2024-05-07T14:24:54Z</time>
      </trkpt>
      <trkpt lat="47.56789" lon="-3.01993">
        <ele>5</ele>
        <time>2024-05-07T14:24:55Z</time>
      </trkpt>
      <trkpt lat="47.56789" lon="-3.01992">
        <ele>5</ele>
        <time>2024-05-07T14:24:56Z</time>
      </trkpt>
      <trkpt lat="47.56788" lon="-3.01991">
        <ele>5</ele>
        <time>2024-05-07T14:24:57Z</time>
      </trkpt>
      <trkpt lat="47.56788" lon="-3.01991">
        <ele>5</ele>
        <time>2024-05-07T14:24:58Z</time>
      </trkpt>
      <trkpt lat="47.56788" lon="-3.01991">
        <ele>5</ele>
        <time>2024-05-07T14:24:59Z</time>
      </trkpt>
      <trkpt lat="47.56788" lon="-3.01991">
        <ele>5</ele>
        <time>2024-05-07T14:25:00Z</time>
      </trkpt>
      <trkpt lat="47.56788" lon="-3.01991">
        <ele>4.8</ele>
        <time>2024-05-07T14:25:01Z</time>
      </trkpt>
      <trkpt lat="47.56788" lon="-3.01991">
        <ele>4.8</ele>
        <time>2024-05-07T14:25:02Z</time>
      </trkpt>
      <trkpt lat="47.56788" lon="-3.01991">
        <ele>4.8</ele>
        <time>2024-05-07T14:25:03Z</time>
      </trkpt>
      <trkpt lat="47.56787" lon="-3.01992">
        <ele>4.8</ele>
        <time>2024-05-07T14:25:04Z</time>
      </trkpt>
      <trkpt lat="47.56787" lon="-3.01992">
        <ele>4.8</ele>
        <time>2024-05-07T14:25:05Z</time>
      </trkpt>
      <trkpt lat="47.56787" lon="-3.01992">
        <ele>4.8</ele>
        <time>2024-05-07T14:25:06Z</time>
      </trkpt>
      <trkpt lat="47.56787" lon="-3.01992">
        <ele>4.8</ele>
        <time>2024-05-07T14:25:07Z</time>
      </trkpt>
      <trkpt lat="47.56787" lon="-3.01992">
        <ele>5</ele>
        <time>2024-05-07T14:25:08Z</time>
      </trkpt>
      <trkpt lat="47.56787" lon="-3.01992">
        <ele>5</ele>
        <time>2024-05-07T14:25:09Z</time>
      </trkpt>
      <trkpt lat="47.56787" lon="-3.01992">
        <ele>5</ele>
        <time>2024-05-07T14:25:10Z</time>
      </trkpt>
      <trkpt lat="47.56787" lon="-3.01992">
        <ele>5</ele>
        <time>2024-05-07T14:25:11Z</time>
      </trkpt>
      <trkpt lat="47.56787" lon="-3.01992">
        <ele>5</ele>
        <time>2024-05-07T14:25:12Z</time>
      </trkpt>
      <trkpt lat="47.56787" lon="-3.01992">
        <ele>5</ele>
        <time>2024-05-07T14:25:13Z</time>
      </trkpt>
      <trkpt lat="47.56787" lon="-3.01992">
        <ele>5</ele>
        <time>2024-05-07T14:25:14Z</time>
      </trkpt>
      <trkpt lat="47.56787" lon="-3.01992">
        <ele>5</ele>
        <time>2024-05-07T14:25:15Z</time>
      </trkpt>
      <trkpt lat="47.56787" lon="-3.01992">
        <ele>5</ele>
        <time>2024-05-07T14:25:16Z</time>
      </trkpt>
      <trkpt lat="47.56787" lon="-3.01992">
        <ele>5</ele>
        <time>2024-05-07T14:25:17Z</time>
      </trkpt>
      <trkpt lat="47.56787" lon="-3.01992">
        <ele>5</ele>
        <time>2024-05-07T14:25:18Z</time>
      </trkpt>
      <trkpt lat="47.56787" lon="-3.01992">
        <ele>5</ele>
        <time>2024-05-07T14:25:19Z</time>
      </trkpt>
      <trkpt lat="47.56787" lon="-3.01992">
        <ele>5</ele>
        <time>2024-05-07T14:25:20Z</time>
      </trkpt>
      <trkpt lat="47.56787" lon="-3.01992">
        <ele>5</ele>
        <time>2024-05-07T14:25:21Z</time>
      </trkpt>
      <trkpt lat="47.56787" lon="-3.01992">
        <ele>4.8</ele>
        <time>2024-05-07T14:25:22Z</time>
      </trkpt>
      <trkpt lat="47.56787" lon="-3.01992">
        <ele>4.8</ele>
        <time>2024-05-07T14:25:23Z</time>
      </trkpt>
      <trkpt lat="47.56787" lon="-3.01992">
        <ele>4.8</ele>
        <time>2024-05-07T14:25:24Z</time>
      </trkpt>
      <trkpt lat="47.56787" lon="-3.01992">
        <ele>4.8</ele>
        <time>2024-05-07T14:25:25Z</time>
      </trkpt>
      <trkpt lat="47.56787" lon="-3.01992">
        <ele>4.8</ele>
        <time>2024-05-07T14:25:26Z</time>
      </trkpt>
      <trkpt lat="47.56787" lon="-3.01992">
        <ele>4.8</ele>
        <time>2024-05-07T14:25:27Z</time>
      </trkpt>
      <trkpt lat="47.56787" lon="-3.01992">
        <ele>4.8</ele>
        <time>2024-05-07T14:25:28Z</time>
      </trkpt>
      <trkpt lat="47.56787" lon="-3.01991">
        <ele>4.8</ele>
        <time>2024-05-07T14:25:29Z</time>
      </trkpt>
      <trkpt lat="47.56787" lon="-3.01991">
        <ele>4.8</ele>
        <time>2024-05-07T14:25:30Z</time>
      </trkpt>
      <trkpt lat="47.56787" lon="-3.01991">
        <ele>4.8</ele>
        <time>2024-05-07T14:25:31Z</time>
      </trkpt>
      <trkpt lat="47.56787" lon="-3.01991">
        <ele>4.8</ele>
        <time>2024-05-07T14:25:32Z</time>
      </trkpt>
      <trkpt lat="47.56787" lon="-3.01991">
        <ele>4.8</ele>
        <time>2024-05-07T14:25:33Z</time>
      </trkpt>
      <trkpt lat="47.56787" lon="-3.01991">
        <ele>4.8</ele>
        <time>2024-05-07T14:25:34Z</time>
      </trkpt>
      <trkpt lat="47.56787" lon="-3.01991">
        <ele>4.8</ele>
        <time>2024-05-07T14:25:35Z</time>
      </trkpt>
      <trkpt lat="47.56787" lon="-3.01991">
        <ele>4.8</ele>
        <time>2024-05-07T14:25:36Z</time>
      </trkpt>
      <trkpt lat="47.56787" lon="-3.01991">
        <ele>4.8</ele>
        <time>2024-05-07T14:25:37Z</time>
      </trkpt>
      <trkpt lat="47.56787" lon="-3.01991">
        <ele>4.8</ele>
        <time>2024-05-07T14:25:38Z</time>
      </trkpt>
      <trkpt lat="47.56787" lon="-3.01991">
        <ele>4.8</ele>
        <time>2024-05-07T14:25:39Z</time>
      </trkpt>
      <trkpt lat="47.56787" lon="-3.01991">
        <ele>4.8</ele>
        <time>2024-05-07T14:25:40Z</time>
      </trkpt>
      <trkpt lat="47.56787" lon="-3.01991">
        <ele>4.8</ele>
        <time>2024-05-07T14:25:41Z</time>
      </trkpt>
      <trkpt lat="47.56787" lon="-3.01991">
        <ele>4.8</ele>
        <time>2024-05-07T14:25:42Z</time>
      </trkpt>
      <trkpt lat="47.56787" lon="-3.01991">
        <ele>4.8</ele>
        <time>2024-05-07T14:25:43Z</time>
      </trkpt>
      <trkpt lat="47.56787" lon="-3.01991">
        <ele>4.8</ele>
        <time>2024-05-07T14:25:44Z</time>
      </trkpt>
      <trkpt lat="47.56787" lon="-3.01991">
        <ele>4.8</ele>
        <time>2024-05-07T14:25:45Z</time>
      </trkpt>
      <trkpt lat="47.56787" lon="-3.01991">
        <ele>4.8</ele>
        <time>2024-05-07T14:25:46Z</time>
      </trkpt>
      <trkpt lat="47.56787" lon="-3.01991">
        <ele>4.6</ele>
        <time>2024-05-07T14:25:47Z</time>
      </trkpt>
      <trkpt lat="47.56787" lon="-3.0199">
        <ele>4.6</ele>
        <time>2024-05-07T14:25:48Z</time>
      </trkpt>
      <trkpt lat="47.56787" lon="-3.0199">
        <ele>4.6</ele>
        <time>2024-05-07T14:25:49Z</time>
      </trkpt>
      <trkpt lat="47.56787" lon="-3.0199">
        <ele>4.6</ele>
        <time>2024-05-07T14:25:50Z</time>
      </trkpt>
      <trkpt lat="47.56787" lon="-3.0199">
        <ele>4.6</ele>
        <time>2024-05-07T14:25:51Z</time>
      </trkpt>
      <trkpt lat="47.56787" lon="-3.0199">
        <ele>4.6</ele>
        <time>2024-05-07T14:25:52Z</time>
      </trkpt>
      <trkpt lat="47.56787" lon="-3.0199">
        <ele>4.4</ele>
        <time>2024-05-07T14:25:53Z</time>
      </trkpt>
      <trkpt lat="47.56787" lon="-3.0199">
        <ele>4.4</ele>
        <time>2024-05-07T14:25:54Z</time>
      </trkpt>
      <trkpt lat="47.56786" lon="-3.0199">
        <ele>4.4</ele>
        <time>2024-05-07T14:25:55Z</time>
      </trkpt>
      <trkpt lat="47.56786" lon="-3.0199">
        <ele>4.4</ele>
        <time>2024-05-07T14:25:56Z</time>
      </trkpt>
      <trkpt lat="47.56786" lon="-3.0199">
        <ele>4.4</ele>
        <time>2024-05-07T14:25:57Z</time>
      </trkpt>
      <trkpt lat="47.56786" lon="-3.0199">
        <ele>4.4</ele>
        <time>2024-05-07T14:25:58Z</time>
      </trkpt>
      <trkpt lat="47.56786" lon="-3.0199">
        <ele>4.4</ele>
        <time>2024-05-07T14:25:59Z</time>
      </trkpt>
      <trkpt lat="47.56786" lon="-3.0199">
        <ele>4.6</ele>
        <time>2024-05-07T14:26:00Z</time>
      </trkpt>
      <trkpt lat="47.56786" lon="-3.0199">
        <ele>4.6</ele>
        <time>2024-05-07T14:26:01Z</time>
      </trkpt>
      <trkpt lat="47.56786" lon="-3.0199">
        <ele>4.6</ele>
        <time>2024-05-07T14:26:02Z</time>
      </trkpt>
      <trkpt lat="47.56786" lon="-3.0199">
        <ele>4.6</ele>
        <time>2024-05-07T14:26:03Z</time>
      </trkpt>
      <trkpt lat="47.56786" lon="-3.01989">
        <ele>4.6</ele>
        <time>2024-05-07T14:26:04Z</time>
      </trkpt>
      <trkpt lat="47.56786" lon="-3.01988">
        <ele>4.6</ele>
        <time>2024-05-07T14:26:05Z</time>
      </trkpt>
      <trkpt lat="47.56786" lon="-3.01986">
        <ele>4.6</ele>
        <time>2024-05-07T14:26:06Z</time>
      </trkpt>
      <trkpt lat="47.56786" lon="-3.01984">
        <ele>4.6</ele>
        <time>2024-05-07T14:26:07Z</time>
      </trkpt>
      <trkpt lat="47.56786" lon="-3.01983">
        <ele>4.6</ele>
        <time>2024-05-07T14:26:08Z</time>
      </trkpt>
      <trkpt lat="47.56786" lon="-3.0198">
        <ele>4.6</ele>
        <time>2024-05-07T14:26:09Z</time>
      </trkpt>
      <trkpt lat="47.56786" lon="-3.01978">
        <ele>4.6</ele>
        <time>2024-05-07T14:26:10Z</time>
      </trkpt>
      <trkpt lat="47.56786" lon="-3.01975">
        <ele>4.6</ele>
        <time>2024-05-07T14:26:11Z</time>
      </trkpt>
      <trkpt lat="47.56786" lon="-3.01973">
        <ele>4.6</ele>
        <time>2024-05-07T14:26:12Z</time>
      </trkpt>
      <trkpt lat="47.56787" lon="-3.01971">
        <ele>4.6</ele>
        <time>2024-05-07T14:26:13Z</time>
      </trkpt>
      <trkpt lat="47.56787" lon="-3.0197">
        <ele>4.6</ele>
        <time>2024-05-07T14:26:14Z</time>
      </trkpt>
      <trkpt lat="47.56787" lon="-3.01969">
        <ele>4.6</ele>
        <time>2024-05-07T14:26:15Z</time>
      </trkpt>
      <trkpt lat="47.56787" lon="-3.01968">
        <ele>4.6</ele>
        <time>2024-05-07T14:26:16Z</time>
      </trkpt>
      <trkpt lat="47.56787" lon="-3.01966">
        <ele>4.4</ele>
        <time>2024-05-07T14:26:17Z</time>
      </trkpt>
      <trkpt lat="47.56787" lon="-3.01964">
        <ele>4.4</ele>
        <time>2024-05-07T14:26:18Z</time>
      </trkpt>
      <trkpt lat="47.56787" lon="-3.01962">
        <ele>4.4</ele>
        <time>2024-05-07T14:26:19Z</time>
      </trkpt>
      <trkpt lat="47.56787" lon="-3.0196">
        <ele>4.4</ele>
        <time>2024-05-07T14:26:20Z</time>
      </trkpt>
      <trkpt lat="47.56787" lon="-3.01958">
        <ele>4.4</ele>
        <time>2024-05-07T14:26:21Z</time>
      </trkpt>
      <trkpt lat="47.56788" lon="-3.01956">
        <ele>4.4</ele>
        <time>2024-05-07T14:26:22Z</time>
      </trkpt>
      <trkpt lat="47.56788" lon="-3.01954">
        <ele>4.4</ele>
        <time>2024-05-07T14:26:23Z</time>
      </trkpt>
      <trkpt lat="47.56788" lon="-3.01953">
        <ele>4.4</ele>
        <time>2024-05-07T14:26:24Z</time>
      </trkpt>
      <trkpt lat="47.56789" lon="-3.01952">
        <ele>4.4</ele>
        <time>2024-05-07T14:26:25Z</time>
      </trkpt>
      <trkpt lat="47.5679" lon="-3.01952">
        <ele>4.4</ele>
        <time>2024-05-07T14:26:26Z</time>
      </trkpt>
      <trkpt lat="47.56791" lon="-3.01951">
        <ele>4.4</ele>
        <time>2024-05-07T14:26:27Z</time>
      </trkpt>
      <trkpt lat="47.56791" lon="-3.0195">
        <ele>4.4</ele>
        <time>2024-05-07T14:26:28Z</time>
      </trkpt>
      <trkpt lat="47.56792" lon="-3.01949">
        <ele>4.6</ele>
        <time>2024-05-07T14:26:29Z</time>
      </trkpt>
      <trkpt lat="47.56793" lon="-3.01948">
        <ele>4.8</ele>
        <time>2024-05-07T14:26:30Z</time>
      </trkpt>
      <trkpt lat="47.56794" lon="-3.01947">
        <ele>5</ele>
        <time>2024-05-07T14:26:31Z</time>
      </trkpt>
      <trkpt lat="47.56795" lon="-3.01947">
        <ele>5</ele>
        <time>2024-05-07T14:26:32Z</time>
      </trkpt>
      <trkpt lat="47.56797" lon="-3.01947">
        <ele>5</ele>
        <time>2024-05-07T14:26:33Z</time>
      </trkpt>
      <trkpt lat="47.56798" lon="-3.01947">
        <ele>5</ele>
        <time>2024-05-07T14:26:34Z</time>
      </trkpt>
      <trkpt lat="47.56799" lon="-3.01946">
        <ele>5.2</ele>
        <time>2024-05-07T14:26:35Z</time>
      </trkpt>
      <trkpt lat="47.568" lon="-3.01945">
        <ele>5.2</ele>
        <time>2024-05-07T14:26:36Z</time>
      </trkpt>
      <trkpt lat="47.568" lon="-3.01944">
        <ele>5.2</ele>
        <time>2024-05-07T14:26:37Z</time>
      </trkpt>
      <trkpt lat="47.56801" lon="-3.01944">
        <ele>5.2</ele>
        <time>2024-05-07T14:26:38Z</time>
      </trkpt>
      <trkpt lat="47.56803" lon="-3.01943">
        <ele>5.2</ele>
        <time>2024-05-07T14:26:39Z</time>
      </trkpt>
      <trkpt lat="47.56804" lon="-3.01942">
        <ele>5.2</ele>
        <time>2024-05-07T14:26:40Z</time>
      </trkpt>
      <trkpt lat="47.56806" lon="-3.01943">
        <ele>5.2</ele>
        <time>2024-05-07T14:26:41Z</time>
      </trkpt>
      <trkpt lat="47.56807" lon="-3.01943">
        <ele>5.2</ele>
        <time>2024-05-07T14:26:42Z</time>
      </trkpt>
      <trkpt lat="47.56808" lon="-3.01943">
        <ele>5.2</ele>
        <time>2024-05-07T14:26:43Z</time>
      </trkpt>
      <trkpt lat="47.56809" lon="-3.01944">
        <ele>5.2</ele>
        <time>2024-05-07T14:26:44Z</time>
      </trkpt>
      <trkpt lat="47.5681" lon="-3.01944">
        <ele>5</ele>
        <time>2024-05-07T14:26:45Z</time>
      </trkpt>
      <trkpt lat="47.56812" lon="-3.01945">
        <ele>5</ele>
        <time>2024-05-07T14:26:46Z</time>
      </trkpt>
      <trkpt lat="47.56813" lon="-3.01946">
        <ele>5</ele>
        <time>2024-05-07T14:26:47Z</time>
      </trkpt>
      <trkpt lat="47.56814" lon="-3.01948">
        <ele>5</ele>
        <time>2024-05-07T14:26:48Z</time>
      </trkpt>
      <trkpt lat="47.56814" lon="-3.01949">
        <ele>5</ele>
        <time>2024-05-07T14:26:49Z</time>
      </trkpt>
      <trkpt lat="47.56815" lon="-3.01951">
        <ele>5</ele>
        <time>2024-05-07T14:26:50Z</time>
      </trkpt>
      <trkpt lat="47.56816" lon="-3.01952">
        <ele>5</ele>
        <time>2024-05-07T14:26:51Z</time>
      </trkpt>
      <trkpt lat="47.56817" lon="-3.01953">
        <ele>5.2</ele>
        <time>2024-05-07T14:26:52Z</time>
      </trkpt>
      <trkpt lat="47.56818" lon="-3.01953">
        <ele>5.2</ele>
        <time>2024-05-07T14:26:53Z</time>
      </trkpt>
      <trkpt lat="47.56819" lon="-3.01953">
        <ele>5.2</ele>
        <time>2024-05-07T14:26:54Z</time>
      </trkpt>
      <trkpt lat="47.5682" lon="-3.01953">
        <ele>5.2</ele>
        <time>2024-05-07T14:26:55Z</time>
      </trkpt>
      <trkpt lat="47.56821" lon="-3.01953">
        <ele>5.2</ele>
        <time>2024-05-07T14:26:56Z</time>
      </trkpt>
      <trkpt lat="47.56822" lon="-3.01952">
        <ele>5.2</ele>
        <time>2024-05-07T14:26:57Z</time>
      </trkpt>
      <trkpt lat="47.56824" lon="-3.01952">
        <ele>5.2</ele>
        <time>2024-05-07T14:26:58Z</time>
      </trkpt>
      <trkpt lat="47.56825" lon="-3.01952">
        <ele>5.2</ele>
        <time>2024-05-07T14:26:59Z</time>
      </trkpt>
      <trkpt lat="47.56827" lon="-3.01951">
        <ele>5.4</ele>
        <time>2024-05-07T14:27:00Z</time>
      </trkpt>
      <trkpt lat="47.56828" lon="-3.01951">
        <ele>5.6</ele>
        <time>2024-05-07T14:27:01Z</time>
      </trkpt>
      <trkpt lat="47.56829" lon="-3.01949">
        <ele>5.4</ele>
        <time>2024-05-07T14:27:02Z</time>
      </trkpt>
      <trkpt lat="47.5683" lon="-3.01948">
        <ele>5.4</ele>
        <time>2024-05-07T14:27:03Z</time>
      </trkpt>
      <trkpt lat="47.56831" lon="-3.01947">
        <ele>5.4</ele>
        <time>2024-05-07T14:27:04Z</time>
      </trkpt>
      <trkpt lat="47.56831" lon="-3.01945">
        <ele>5.4</ele>
        <time>2024-05-07T14:27:05Z</time>
      </trkpt>
      <trkpt lat="47.56832" lon="-3.01944">
        <ele>5.4</ele>
        <time>2024-05-07T14:27:06Z</time>
      </trkpt>
      <trkpt lat="47.56833" lon="-3.01943">
        <ele>5.4</ele>
        <time>2024-05-07T14:27:07Z</time>
      </trkpt>
      <trkpt lat="47.56834" lon="-3.01942">
        <ele>5.2</ele>
        <time>2024-05-07T14:27:08Z</time>
      </trkpt>
      <trkpt lat="47.56835" lon="-3.01941">
        <ele>5.2</ele>
        <time>2024-05-07T14:27:09Z</time>
      </trkpt>
      <trkpt lat="47.56836" lon="-3.0194">
        <ele>5.2</ele>
        <time>2024-05-07T14:27:10Z</time>
      </trkpt>
      <trkpt lat="47.56836" lon="-3.01939">
        <ele>5</ele>
        <time>2024-05-07T14:27:11Z</time>
      </trkpt>
      <trkpt lat="47.56837" lon="-3.01938">
        <ele>4.8</ele>
        <time>2024-05-07T14:27:12Z</time>
      </trkpt>
      <trkpt lat="47.56838" lon="-3.01937">
        <ele>4.8</ele>
        <time>2024-05-07T14:27:13Z</time>
      </trkpt>
      <trkpt lat="47.56839" lon="-3.01937">
        <ele>4.6</ele>
        <time>2024-05-07T14:27:14Z</time>
      </trkpt>
      <trkpt lat="47.56839" lon="-3.01936">
        <ele>4.6</ele>
        <time>2024-05-07T14:27:15Z</time>
      </trkpt>
      <trkpt lat="47.5684" lon="-3.01934">
        <ele>4.6</ele>
        <time>2024-05-07T14:27:16Z</time>
      </trkpt>
      <trkpt lat="47.56841" lon="-3.01933">
        <ele>4.6</ele>
        <time>2024-05-07T14:27:17Z</time>
      </trkpt>
      <trkpt lat="47.56842" lon="-3.01932">
        <ele>4.8</ele>
        <time>2024-05-07T14:27:18Z</time>
      </trkpt>
      <trkpt lat="47.56842" lon="-3.01931">
        <ele>5.2</ele>
        <time>2024-05-07T14:27:19Z</time>
      </trkpt>
      <trkpt lat="47.56842" lon="-3.0193">
        <ele>5.4</ele>
        <time>2024-05-07T14:27:20Z</time>
      </trkpt>
      <trkpt lat="47.56842" lon="-3.01929">
        <ele>5.4</ele>
        <time>2024-05-07T14:27:21Z</time>
      </trkpt>
      <trkpt lat="47.56843" lon="-3.01928">
        <ele>5.6</ele>
        <time>2024-05-07T14:27:22Z</time>
      </trkpt>
      <trkpt lat="47.56844" lon="-3.01927">
        <ele>5.6</ele>
        <time>2024-05-07T14:27:23Z</time>
      </trkpt>
      <trkpt lat="47.56845" lon="-3.01926">
        <ele>5.6</ele>
        <time>2024-05-07T14:27:24Z</time>
      </trkpt>
      <trkpt lat="47.56846" lon="-3.01926">
        <ele>5.6</ele>
        <time>2024-05-07T14:27:25Z</time>
      </trkpt>
      <trkpt lat="47.56847" lon="-3.01925">
        <ele>5.4</ele>
        <time>2024-05-07T14:27:26Z</time>
      </trkpt>
      <trkpt lat="47.56848" lon="-3.01924">
        <ele>5.4</ele>
        <time>2024-05-07T14:27:27Z</time>
      </trkpt>
      <trkpt lat="47.56849" lon="-3.01923">
        <ele>5.2</ele>
        <time>2024-05-07T14:27:28Z</time>
      </trkpt>
      <trkpt lat="47.5685" lon="-3.01922">
        <ele>5</ele>
        <time>2024-05-07T14:27:29Z</time>
      </trkpt>
      <trkpt lat="47.56851" lon="-3.01921">
        <ele>5</ele>
        <time>2024-05-07T14:27:30Z</time>
      </trkpt>
      <trkpt lat="47.56852" lon="-3.0192">
        <ele>4.8</ele>
        <time>2024-05-07T14:27:31Z</time>
      </trkpt>
      <trkpt lat="47.56853" lon="-3.01919">
        <ele>4.8</ele>
        <time>2024-05-07T14:27:32Z</time>
      </trkpt>
      <trkpt lat="47.56853" lon="-3.01918">
        <ele>4.8</ele>
        <time>2024-05-07T14:27:33Z</time>
      </trkpt>
      <trkpt lat="47.56854" lon="-3.01916">
        <ele>4.8</ele>
        <time>2024-05-07T14:27:34Z</time>
      </trkpt>
      <trkpt lat="47.56855" lon="-3.01915">
        <ele>4.8</ele>
        <time>2024-05-07T14:27:35Z</time>
      </trkpt>
      <trkpt lat="47.56855" lon="-3.01914">
        <ele>4.8</ele>
        <time>2024-05-07T14:27:36Z</time>
      </trkpt>
      <trkpt lat="47.56855" lon="-3.01914">
        <ele>5</ele>
        <time>2024-05-07T14:27:37Z</time>
      </trkpt>
      <trkpt lat="47.56856" lon="-3.01913">
        <ele>5</ele>
        <time>2024-05-07T14:27:38Z</time>
      </trkpt>
      <trkpt lat="47.56857" lon="-3.01912">
        <ele>5.2</ele>
        <time>2024-05-07T14:27:39Z</time>
      </trkpt>
      <trkpt lat="47.56859" lon="-3.01912">
        <ele>5.4</ele>
        <time>2024-05-07T14:27:40Z</time>
      </trkpt>
      <trkpt lat="47.5686" lon="-3.01911">
        <ele>5.6</ele>
        <time>2024-05-07T14:27:41Z</time>
      </trkpt>
      <trkpt lat="47.56862" lon="-3.0191">
        <ele>5.8</ele>
        <time>2024-05-07T14:27:42Z</time>
      </trkpt>
      <trkpt lat="47.56864" lon="-3.01908">
        <ele>5.8</ele>
        <time>2024-05-07T14:27:43Z</time>
      </trkpt>
      <trkpt lat="47.56866" lon="-3.01907">
        <ele>6</ele>
        <time>2024-05-07T14:27:44Z</time>
      </trkpt>
      <trkpt lat="47.56868" lon="-3.01906">
        <ele>6</ele>
        <time>2024-05-07T14:27:45Z</time>
      </trkpt>
      <trkpt lat="47.56869" lon="-3.01906">
        <ele>6</ele>
        <time>2024-05-07T14:27:46Z</time>
      </trkpt>
      <trkpt lat="47.56869" lon="-3.01905">
        <ele>6</ele>
        <time>2024-05-07T14:27:47Z</time>
      </trkpt>
      <trkpt lat="47.5687" lon="-3.01905">
        <ele>6.2</ele>
        <time>2024-05-07T14:27:48Z</time>
      </trkpt>
      <trkpt lat="47.56872" lon="-3.01905">
        <ele>6</ele>
        <time>2024-05-07T14:27:49Z</time>
      </trkpt>
      <trkpt lat="47.56872" lon="-3.01905">
        <ele>6.2</ele>
        <time>2024-05-07T14:27:50Z</time>
      </trkpt>
      <trkpt lat="47.56873" lon="-3.01905">
        <ele>6</ele>
        <time>2024-05-07T14:27:51Z</time>
      </trkpt>
      <trkpt lat="47.56874" lon="-3.01906">
        <ele>6</ele>
        <time>2024-05-07T14:27:52Z</time>
      </trkpt>
      <trkpt lat="47.56875" lon="-3.01906">
        <ele>6</ele>
        <time>2024-05-07T14:27:53Z</time>
      </trkpt>
      <trkpt lat="47.56877" lon="-3.01905">
        <ele>6</ele>
        <time>2024-05-07T14:27:54Z</time>
      </trkpt>
      <trkpt lat="47.56878" lon="-3.01905">
        <ele>6.2</ele>
        <time>2024-05-07T14:27:55Z</time>
      </trkpt>
      <trkpt lat="47.5688" lon="-3.01905">
        <ele>6.4</ele>
        <time>2024-05-07T14:27:56Z</time>
      </trkpt>
      <trkpt lat="47.56881" lon="-3.01905">
        <ele>6.4</ele>
        <time>2024-05-07T14:27:57Z</time>
      </trkpt>
      <trkpt lat="47.56882" lon="-3.01905">
        <ele>6.4</ele>
        <time>2024-05-07T14:27:58Z</time>
      </trkpt>
      <trkpt lat="47.56883" lon="-3.01905">
        <ele>6.4</ele>
        <time>2024-05-07T14:27:59Z</time>
      </trkpt>
      <trkpt lat="47.56884" lon="-3.01905">
        <ele>6.6</ele>
        <time>2024-05-07T14:28:00Z</time>
      </trkpt>
      <trkpt lat="47.56885" lon="-3.01905">
        <ele>6.6</ele>
        <time>2024-05-07T14:28:01Z</time>
      </trkpt>
      <trkpt lat="47.56886" lon="-3.01906">
        <ele>6.6</ele>
        <time>2024-05-07T14:28:02Z</time>
      </trkpt>
      <trkpt lat="47.56887" lon="-3.01907">
        <ele>6.6</ele>
        <time>2024-05-07T14:28:03Z</time>
      </trkpt>
      <trkpt lat="47.56888" lon="-3.01907">
        <ele>6.6</ele>
        <time>2024-05-07T14:28:04Z</time>
      </trkpt>
      <trkpt lat="47.56889" lon="-3.01908">
        <ele>6.6</ele>
        <time>2024-05-07T14:28:05Z</time>
      </trkpt>
      <trkpt lat="47.5689" lon="-3.01909">
        <ele>6.6</ele>
        <time>2024-05-07T14:28:06Z</time>
      </trkpt>
      <trkpt lat="47.56891" lon="-3.01909">
        <ele>6.6</ele>
        <time>2024-05-07T14:28:07Z</time>
      </trkpt>
      <trkpt lat="47.56893" lon="-3.01909">
        <ele>6.6</ele>
        <time>2024-05-07T14:28:08Z</time>
      </trkpt>
      <trkpt lat="47.56894" lon="-3.0191">
        <ele>6.4</ele>
        <time>2024-05-07T14:28:09Z</time>
      </trkpt>
      <trkpt lat="47.56895" lon="-3.0191">
        <ele>6.2</ele>
        <time>2024-05-07T14:28:10Z</time>
      </trkpt>
      <trkpt lat="47.56896" lon="-3.01911">
        <ele>6</ele>
        <time>2024-05-07T14:28:11Z</time>
      </trkpt>
      <trkpt lat="47.56897" lon="-3.01913">
        <ele>6</ele>
        <time>2024-05-07T14:28:12Z</time>
      </trkpt>
      <trkpt lat="47.56897" lon="-3.01914">
        <ele>6</ele>
        <time>2024-05-07T14:28:13Z</time>
      </trkpt>
      <trkpt lat="47.56898" lon="-3.01916">
        <ele>6</ele>
        <time>2024-05-07T14:28:14Z</time>
      </trkpt>
      <trkpt lat="47.56899" lon="-3.01917">
        <ele>6</ele>
        <time>2024-05-07T14:28:15Z</time>
      </trkpt>
      <trkpt lat="47.569" lon="-3.01918">
        <ele>6.2</ele>
        <time>2024-05-07T14:28:16Z</time>
      </trkpt>
      <trkpt lat="47.56901" lon="-3.01919">
        <ele>6.2</ele>
        <time>2024-05-07T14:28:17Z</time>
      </trkpt>
      <trkpt lat="47.56901" lon="-3.01919">
        <ele>6.2</ele>
        <time>2024-05-07T14:28:18Z</time>
      </trkpt>
      <trkpt lat="47.56901" lon="-3.01919">
        <ele>6.2</ele>
        <time>2024-05-07T14:28:19Z</time>
      </trkpt>
      <trkpt lat="47.56902" lon="-3.01919">
        <ele>6</ele>
        <time>2024-05-07T14:28:20Z</time>
      </trkpt>
      <trkpt lat="47.56903" lon="-3.0192">
        <ele>6</ele>
        <time>2024-05-07T14:28:21Z</time>
      </trkpt>
      <trkpt lat="47.56903" lon="-3.01921">
        <ele>6</ele>
        <time>2024-05-07T14:28:22Z</time>
      </trkpt>
      <trkpt lat="47.56904" lon="-3.01922">
        <ele>6</ele>
        <time>2024-05-07T14:28:23Z</time>
      </trkpt>
      <trkpt lat="47.56905" lon="-3.01923">
        <ele>6</ele>
        <time>2024-05-07T14:28:24Z</time>
      </trkpt>
      <trkpt lat="47.56905" lon="-3.01925">
        <ele>6</ele>
        <time>2024-05-07T14:28:25Z</time>
      </trkpt>
      <trkpt lat="47.56907" lon="-3.01926">
        <ele>5.8</ele>
        <time>2024-05-07T14:28:26Z</time>
      </trkpt>
      <trkpt lat="47.56908" lon="-3.01927">
        <ele>5.8</ele>
        <time>2024-05-07T14:28:27Z</time>
      </trkpt>
      <trkpt lat="47.56909" lon="-3.01927">
        <ele>5.8</ele>
        <time>2024-05-07T14:28:28Z</time>
      </trkpt>
      <trkpt lat="47.5691" lon="-3.01927">
        <ele>5.8</ele>
        <time>2024-05-07T14:28:29Z</time>
      </trkpt>
      <trkpt lat="47.56912" lon="-3.01927">
        <ele>5.8</ele>
        <time>2024-05-07T14:28:30Z</time>
      </trkpt>
      <trkpt lat="47.56913" lon="-3.01928">
        <ele>5.8</ele>
        <time>2024-05-07T14:28:31Z</time>
      </trkpt>
      <trkpt lat="47.56915" lon="-3.01928">
        <ele>5.8</ele>
        <time>2024-05-07T14:28:32Z</time>
      </trkpt>
      <trkpt lat="47.56915" lon="-3.01928">
        <ele>5.8</ele>
        <time>2024-05-07T14:28:33Z</time>
      </trkpt>
      <trkpt lat="47.56916" lon="-3.01929">
        <ele>5.6</ele>
        <time>2024-05-07T14:28:34Z</time>
      </trkpt>
      <trkpt lat="47.56916" lon="-3.01929">
        <ele>5.6</ele>
        <time>2024-05-07T14:28:35Z</time>
      </trkpt>
      <trkpt lat="47.56917" lon="-3.0193">
        <ele>5.6</ele>
        <time>2024-05-07T14:28:36Z</time>
      </trkpt>
      <trkpt lat="47.56917" lon="-3.01931">
        <ele>5.6</ele>
        <time>2024-05-07T14:28:37Z</time>
      </trkpt>
      <trkpt lat="47.56918" lon="-3.01932">
        <ele>5.6</ele>
        <time>2024-05-07T14:28:38Z</time>
      </trkpt>
      <trkpt lat="47.56919" lon="-3.01933">
        <ele>5.6</ele>
        <time>2024-05-07T14:28:39Z</time>
      </trkpt>
      <trkpt lat="47.5692" lon="-3.01935">
        <ele>5.6</ele>
        <time>2024-05-07T14:28:40Z</time>
      </trkpt>
      <trkpt lat="47.56921" lon="-3.01936">
        <ele>5.6</ele>
        <time>2024-05-07T14:28:41Z</time>
      </trkpt>
      <trkpt lat="47.56922" lon="-3.01937">
        <ele>5.6</ele>
        <time>2024-05-07T14:28:42Z</time>
      </trkpt>
      <trkpt lat="47.56924" lon="-3.01938">
        <ele>5.6</ele>
        <time>2024-05-07T14:28:43Z</time>
      </trkpt>
      <trkpt lat="47.56925" lon="-3.01938">
        <ele>5.6</ele>
        <time>2024-05-07T14:28:44Z</time>
      </trkpt>
      <trkpt lat="47.56926" lon="-3.01939">
        <ele>5.6</ele>
        <time>2024-05-07T14:28:45Z</time>
      </trkpt>
      <trkpt lat="47.56926" lon="-3.0194">
        <ele>5.6</ele>
        <time>2024-05-07T14:28:46Z</time>
      </trkpt>
      <trkpt lat="47.56927" lon="-3.01941">
        <ele>5.6</ele>
        <time>2024-05-07T14:28:47Z</time>
      </trkpt>
      <trkpt lat="47.56929" lon="-3.01942">
        <ele>5.6</ele>
        <time>2024-05-07T14:28:48Z</time>
      </trkpt>
      <trkpt lat="47.5693" lon="-3.01942">
        <ele>5.6</ele>
        <time>2024-05-07T14:28:49Z</time>
      </trkpt>
      <trkpt lat="47.56931" lon="-3.01942">
        <ele>5.6</ele>
        <time>2024-05-07T14:28:50Z</time>
      </trkpt>
      <trkpt lat="47.56933" lon="-3.01942">
        <ele>5.6</ele>
        <time>2024-05-07T14:28:51Z</time>
      </trkpt>
      <trkpt lat="47.56934" lon="-3.01942">
        <ele>5.6</ele>
        <time>2024-05-07T14:28:52Z</time>
      </trkpt>
      <trkpt lat="47.56935" lon="-3.01942">
        <ele>5.6</ele>
        <time>2024-05-07T14:28:53Z</time>
      </trkpt>
      <trkpt lat="47.56935" lon="-3.01942">
        <ele>5.6</ele>
        <time>2024-05-07T14:28:54Z</time>
      </trkpt>
      <trkpt lat="47.56936" lon="-3.01943">
        <ele>5.6</ele>
        <time>2024-05-07T14:28:55Z</time>
      </trkpt>
      <trkpt lat="47.56936" lon="-3.01943">
        <ele>5.6</ele>
        <time>2024-05-07T14:28:56Z</time>
      </trkpt>
      <trkpt lat="47.56936" lon="-3.01943">
        <ele>5.6</ele>
        <time>2024-05-07T14:28:57Z</time>
      </trkpt>
      <trkpt lat="47.56936" lon="-3.01942">
        <ele>5.6</ele>
        <time>2024-05-07T14:28:58Z</time>
      </trkpt>
      <trkpt lat="47.56936" lon="-3.01942">
        <ele>5.6</ele>
        <time>2024-05-07T14:28:59Z</time>
      </trkpt>
      <trkpt lat="47.56936" lon="-3.01942">
        <ele>5.6</ele>
        <time>2024-05-07T14:29:00Z</time>
      </trkpt>
      <trkpt lat="47.56935" lon="-3.01942">
        <ele>5.4</ele>
        <time>2024-05-07T14:29:01Z</time>
      </trkpt>
      <trkpt lat="47.56935" lon="-3.01943">
        <ele>5.4</ele>
        <time>2024-05-07T14:29:02Z</time>
      </trkpt>
      <trkpt lat="47.56935" lon="-3.01943">
        <ele>5.4</ele>
        <time>2024-05-07T14:29:03Z</time>
      </trkpt>
      <trkpt lat="47.56935" lon="-3.01943">
        <ele>5.4</ele>
        <time>2024-05-07T14:29:04Z</time>
      </trkpt>
      <trkpt lat="47.56935" lon="-3.01944">
        <ele>5.4</ele>
        <time>2024-05-07T14:29:05Z</time>
      </trkpt>
      <trkpt lat="47.56935" lon="-3.01944">
        <ele>5.4</ele>
        <time>2024-05-07T14:29:06Z</time>
      </trkpt>
      <trkpt lat="47.56935" lon="-3.01944">
        <ele>5.4</ele>
        <time>2024-05-07T14:29:07Z</time>
      </trkpt>
      <trkpt lat="47.56935" lon="-3.01944">
        <ele>5.4</ele>
        <time>2024-05-07T14:29:08Z</time>
      </trkpt>
      <trkpt lat="47.56935" lon="-3.01944">
        <ele>5.4</ele>
        <time>2024-05-07T14:29:09Z</time>
      </trkpt>
      <trkpt lat="47.56935" lon="-3.01944">
        <ele>5.4</ele>
        <time>2024-05-07T14:29:10Z</time>
      </trkpt>
      <trkpt lat="47.56935" lon="-3.01944">
        <ele>5.4</ele>
        <time>2024-05-07T14:29:11Z</time>
      </trkpt>
      <trkpt lat="47.56935" lon="-3.01944">
        <ele>5.4</ele>
        <time>2024-05-07T14:29:12Z</time>
      </trkpt>
      <trkpt lat="47.56935" lon="-3.01943">
        <ele>5.4</ele>
        <time>2024-05-07T14:29:13Z</time>
      </trkpt>
      <trkpt lat="47.56936" lon="-3.01943">
        <ele>5.4</ele>
        <time>2024-05-07T14:29:14Z</time>
      </trkpt>
      <trkpt lat="47.56937" lon="-3.01943">
        <ele>5.4</ele>
        <time>2024-05-07T14:29:15Z</time>
      </trkpt>
      <trkpt lat="47.56939" lon="-3.01943">
        <ele>5.4</ele>
        <time>2024-05-07T14:29:16Z</time>
      </trkpt>
      <trkpt lat="47.56941" lon="-3.01943">
        <ele>5.4</ele>
        <time>2024-05-07T14:29:17Z</time>
      </trkpt>
      <trkpt lat="47.56943" lon="-3.01943">
        <ele>5.4</ele>
        <time>2024-05-07T14:29:18Z</time>
      </trkpt>
      <trkpt lat="47.56946" lon="-3.01944">
        <ele>5.4</ele>
        <time>2024-05-07T14:29:19Z</time>
      </trkpt>
      <trkpt lat="47.56947" lon="-3.01944">
        <ele>5.4</ele>
        <time>2024-05-07T14:29:20Z</time>
      </trkpt>
      <trkpt lat="47.56947" lon="-3.01944">
        <ele>5.4</ele>
        <time>2024-05-07T14:29:21Z</time>
      </trkpt>
      <trkpt lat="47.56949" lon="-3.01944">
        <ele>5.4</ele>
        <time>2024-05-07T14:29:22Z</time>
      </trkpt>
      <trkpt lat="47.56949" lon="-3.01944">
        <ele>5.4</ele>
        <time>2024-05-07T14:29:23Z</time>
      </trkpt>
      <trkpt lat="47.56952" lon="-3.01944">
        <ele>5.4</ele>
        <time>2024-05-07T14:29:24Z</time>
      </trkpt>
      <trkpt lat="47.56954" lon="-3.01944">
        <ele>5.4</ele>
        <time>2024-05-07T14:29:25Z</time>
      </trkpt>
      <trkpt lat="47.56955" lon="-3.01944">
        <ele>5.4</ele>
        <time>2024-05-07T14:29:26Z</time>
      </trkpt>
      <trkpt lat="47.56956" lon="-3.01944">
        <ele>5.4</ele>
        <time>2024-05-07T14:29:27Z</time>
      </trkpt>
      <trkpt lat="47.56957" lon="-3.01944">
        <ele>5.2</ele>
        <time>2024-05-07T14:29:28Z</time>
      </trkpt>
      <trkpt lat="47.56958" lon="-3.01944">
        <ele>5.2</ele>
        <time>2024-05-07T14:29:29Z</time>
      </trkpt>
      <trkpt lat="47.56959" lon="-3.01944">
        <ele>5.2</ele>
        <time>2024-05-07T14:29:30Z</time>
      </trkpt>
      <trkpt lat="47.5696" lon="-3.01944">
        <ele>5.2</ele>
        <time>2024-05-07T14:29:31Z</time>
      </trkpt>
      <trkpt lat="47.56961" lon="-3.01944">
        <ele>5</ele>
        <time>2024-05-07T14:29:32Z</time>
      </trkpt>
      <trkpt lat="47.56963" lon="-3.01943">
        <ele>5</ele>
        <time>2024-05-07T14:29:33Z</time>
      </trkpt>
      <trkpt lat="47.56964" lon="-3.01943">
        <ele>4.8</ele>
        <time>2024-05-07T14:29:34Z</time>
      </trkpt>
      <trkpt lat="47.56965" lon="-3.01943">
        <ele>4.8</ele>
        <time>2024-05-07T14:29:35Z</time>
      </trkpt>
      <trkpt lat="47.56966" lon="-3.01942">
        <ele>4.8</ele>
        <time>2024-05-07T14:29:36Z</time>
      </trkpt>
      <trkpt lat="47.56968" lon="-3.01943">
        <ele>4.8</ele>
        <time>2024-05-07T14:29:37Z</time>
      </trkpt>
      <trkpt lat="47.5697" lon="-3.01943">
        <ele>4.8</ele>
        <time>2024-05-07T14:29:38Z</time>
      </trkpt>
      <trkpt lat="47.5697" lon="-3.01943">
        <ele>4.8</ele>
        <time>2024-05-07T14:29:39Z</time>
      </trkpt>
      <trkpt lat="47.56972" lon="-3.01944">
        <ele>4.8</ele>
        <time>2024-05-07T14:29:40Z</time>
      </trkpt>
      <trkpt lat="47.56973" lon="-3.01945">
        <ele>4.8</ele>
        <time>2024-05-07T14:29:41Z</time>
      </trkpt>
      <trkpt lat="47.56975" lon="-3.01945">
        <ele>4.8</ele>
        <time>2024-05-07T14:29:42Z</time>
      </trkpt>
      <trkpt lat="47.56976" lon="-3.01945">
        <ele>5</ele>
        <time>2024-05-07T14:29:43Z</time>
      </trkpt>
      <trkpt lat="47.56978" lon="-3.01945">
        <ele>5</ele>
        <time>2024-05-07T14:29:44Z</time>
      </trkpt>
      <trkpt lat="47.56979" lon="-3.01945">
        <ele>5</ele>
        <time>2024-05-07T14:29:45Z</time>
      </trkpt>
      <trkpt lat="47.5698" lon="-3.01946">
        <ele>5.4</ele>
        <time>2024-05-07T14:29:46Z</time>
      </trkpt>
      <trkpt lat="47.56981" lon="-3.01946">
        <ele>5.6</ele>
        <time>2024-05-07T14:29:47Z</time>
      </trkpt>
      <trkpt lat="47.56983" lon="-3.01947">
        <ele>5.6</ele>
        <time>2024-05-07T14:29:48Z</time>
      </trkpt>
      <trkpt lat="47.56984" lon="-3.01947">
        <ele>5.8</ele>
        <time>2024-05-07T14:29:49Z</time>
      </trkpt>
      <trkpt lat="47.56985" lon="-3.01947">
        <ele>5.8</ele>
        <time>2024-05-07T14:29:50Z</time>
      </trkpt>
      <trkpt lat="47.56986" lon="-3.01948">
        <ele>5.8</ele>
        <time>2024-05-07T14:29:51Z</time>
      </trkpt>
      <trkpt lat="47.56987" lon="-3.01948">
        <ele>5.8</ele>
        <time>2024-05-07T14:29:52Z</time>
      </trkpt>
      <trkpt lat="47.56989" lon="-3.01948">
        <ele>6</ele>
        <time>2024-05-07T14:29:53Z</time>
      </trkpt>
      <trkpt lat="47.56989" lon="-3.01948">
        <ele>6</ele>
        <time>2024-05-07T14:29:54Z</time>
      </trkpt>
      <trkpt lat="47.56992" lon="-3.0195">
        <ele>5.8</ele>
        <time>2024-05-07T14:29:55Z</time>
      </trkpt>
      <trkpt lat="47.56993" lon="-3.01951">
        <ele>5.8</ele>
        <time>2024-05-07T14:29:56Z</time>
      </trkpt>
      <trkpt lat="47.56994" lon="-3.01952">
        <ele>5.8</ele>
        <time>2024-05-07T14:29:57Z</time>
      </trkpt>
      <trkpt lat="47.56995" lon="-3.01952">
        <ele>5.6</ele>
        <time>2024-05-07T14:29:58Z</time>
      </trkpt>
      <trkpt lat="47.56996" lon="-3.01954">
        <ele>5.6</ele>
        <time>2024-05-07T14:29:59Z</time>
      </trkpt>
      <trkpt lat="47.56997" lon="-3.01956">
        <ele>5.6</ele>
        <time>2024-05-07T14:30:00Z</time>
      </trkpt>
      <trkpt lat="47.56998" lon="-3.01957">
        <ele>5.4</ele>
        <time>2024-05-07T14:30:01Z</time>
      </trkpt>
      <trkpt lat="47.56999" lon="-3.01958">
        <ele>5.4</ele>
        <time>2024-05-07T14:30:02Z</time>
      </trkpt>
      <trkpt lat="47.57001" lon="-3.01959">
        <ele>5.4</ele>
        <time>2024-05-07T14:30:03Z</time>
      </trkpt>
      <trkpt lat="47.57002" lon="-3.0196">
        <ele>5.4</ele>
        <time>2024-05-07T14:30:04Z</time>
      </trkpt>
      <trkpt lat="47.57003" lon="-3.01962">
        <ele>5.4</ele>
        <time>2024-05-07T14:30:05Z</time>
      </trkpt>
      <trkpt lat="47.57004" lon="-3.01963">
        <ele>5.4</ele>
        <time>2024-05-07T14:30:06Z</time>
      </trkpt>
      <trkpt lat="47.57005" lon="-3.01963">
        <ele>5.4</ele>
        <time>2024-05-07T14:30:07Z</time>
      </trkpt>
      <trkpt lat="47.57006" lon="-3.01964">
        <ele>5.4</ele>
        <time>2024-05-07T14:30:08Z</time>
      </trkpt>
      <trkpt lat="47.57007" lon="-3.01965">
        <ele>5.4</ele>
        <time>2024-05-07T14:30:09Z</time>
      </trkpt>
      <trkpt lat="47.57008" lon="-3.01966">
        <ele>5.4</ele>
        <time>2024-05-07T14:30:10Z</time>
      </trkpt>
      <trkpt lat="47.57008" lon="-3.01967">
        <ele>5.4</ele>
        <time>2024-05-07T14:30:11Z</time>
      </trkpt>
      <trkpt lat="47.57009" lon="-3.01968">
        <ele>5.4</ele>
        <time>2024-05-07T14:30:12Z</time>
      </trkpt>
      <trkpt lat="47.57009" lon="-3.01969">
        <ele>5.4</ele>
        <time>2024-05-07T14:30:13Z</time>
      </trkpt>
      <trkpt lat="47.5701" lon="-3.0197">
        <ele>5.4</ele>
        <time>2024-05-07T14:30:14Z</time>
      </trkpt>
      <trkpt lat="47.57011" lon="-3.01971">
        <ele>5.6</ele>
        <time>2024-05-07T14:30:15Z</time>
      </trkpt>
      <trkpt lat="47.57012" lon="-3.01971">
        <ele>5.6</ele>
        <time>2024-05-07T14:30:16Z</time>
      </trkpt>
      <trkpt lat="47.57014" lon="-3.01971">
        <ele>5.6</ele>
        <time>2024-05-07T14:30:17Z</time>
      </trkpt>
      <trkpt lat="47.57014" lon="-3.01971">
        <ele>5.8</ele>
        <time>2024-05-07T14:30:18Z</time>
      </trkpt>
      <trkpt lat="47.57015" lon="-3.0197">
        <ele>5.8</ele>
        <time>2024-05-07T14:30:19Z</time>
      </trkpt>
      <trkpt lat="47.57017" lon="-3.0197">
        <ele>5.8</ele>
        <time>2024-05-07T14:30:20Z</time>
      </trkpt>
      <trkpt lat="47.57018" lon="-3.0197">
        <ele>5.6</ele>
        <time>2024-05-07T14:30:21Z</time>
      </trkpt>
      <trkpt lat="47.57019" lon="-3.0197">
        <ele>5.8</ele>
        <time>2024-05-07T14:30:22Z</time>
      </trkpt>
      <trkpt lat="47.5702" lon="-3.0197">
        <ele>5.8</ele>
        <time>2024-05-07T14:30:23Z</time>
      </trkpt>
      <trkpt lat="47.57021" lon="-3.0197">
        <ele>5.8</ele>
        <time>2024-05-07T14:30:24Z</time>
      </trkpt>
      <trkpt lat="47.57023" lon="-3.01971">
        <ele>5.8</ele>
        <time>2024-05-07T14:30:25Z</time>
      </trkpt>
      <trkpt lat="47.57024" lon="-3.01971">
        <ele>5.8</ele>
        <time>2024-05-07T14:30:26Z</time>
      </trkpt>
      <trkpt lat="47.57025" lon="-3.01972">
        <ele>5.6</ele>
        <time>2024-05-07T14:30:27Z</time>
      </trkpt>
      <trkpt lat="47.57026" lon="-3.01972">
        <ele>5.6</ele>
        <time>2024-05-07T14:30:28Z</time>
      </trkpt>
      <trkpt lat="47.57027" lon="-3.01972">
        <ele>5.6</ele>
        <time>2024-05-07T14:30:29Z</time>
      </trkpt>
      <trkpt lat="47.57028" lon="-3.01973">
        <ele>5.6</ele>
        <time>2024-05-07T14:30:30Z</time>
      </trkpt>
      <trkpt lat="47.57029" lon="-3.01974">
        <ele>5.6</ele>
        <time>2024-05-07T14:30:31Z</time>
      </trkpt>
      <trkpt lat="47.5703" lon="-3.01975">
        <ele>5.6</ele>
        <time>2024-05-07T14:30:32Z</time>
      </trkpt>
      <trkpt lat="47.57031" lon="-3.01977">
        <ele>5.6</ele>
        <time>2024-05-07T14:30:33Z</time>
      </trkpt>
      <trkpt lat="47.57031" lon="-3.01979">
        <ele>5.4</ele>
        <time>2024-05-07T14:30:34Z</time>
      </trkpt>
      <trkpt lat="47.57031" lon="-3.0198">
        <ele>5.4</ele>
        <time>2024-05-07T14:30:35Z</time>
      </trkpt>
      <trkpt lat="47.57032" lon="-3.01981">
        <ele>5.4</ele>
        <time>2024-05-07T14:30:36Z</time>
      </trkpt>
      <trkpt lat="47.57033" lon="-3.01981">
        <ele>5.4</ele>
        <time>2024-05-07T14:30:37Z</time>
      </trkpt>
      <trkpt lat="47.57034" lon="-3.01982">
        <ele>5.4</ele>
        <time>2024-05-07T14:30:38Z</time>
      </trkpt>
      <trkpt lat="47.57035" lon="-3.01983">
        <ele>5.4</ele>
        <time>2024-05-07T14:30:39Z</time>
      </trkpt>
      <trkpt lat="47.57036" lon="-3.01984">
        <ele>5.4</ele>
        <time>2024-05-07T14:30:40Z</time>
      </trkpt>
      <trkpt lat="47.57037" lon="-3.01985">
        <ele>5.8</ele>
        <time>2024-05-07T14:30:41Z</time>
      </trkpt>
      <trkpt lat="47.57038" lon="-3.01985">
        <ele>5.8</ele>
        <time>2024-05-07T14:30:42Z</time>
      </trkpt>
      <trkpt lat="47.57039" lon="-3.01986">
        <ele>5.8</ele>
        <time>2024-05-07T14:30:43Z</time>
      </trkpt>
      <trkpt lat="47.5704" lon="-3.01987">
        <ele>5.8</ele>
        <time>2024-05-07T14:30:44Z</time>
      </trkpt>
      <trkpt lat="47.57041" lon="-3.01988">
        <ele>5.8</ele>
        <time>2024-05-07T14:30:45Z</time>
      </trkpt>
      <trkpt lat="47.57042" lon="-3.01989">
        <ele>5.8</ele>
        <time>2024-05-07T14:30:46Z</time>
      </trkpt>
      <trkpt lat="47.57043" lon="-3.0199">
        <ele>6</ele>
        <time>2024-05-07T14:30:47Z</time>
      </trkpt>
      <trkpt lat="47.57044" lon="-3.01991">
        <ele>6</ele>
        <time>2024-05-07T14:30:48Z</time>
      </trkpt>
      <trkpt lat="47.57045" lon="-3.01992">
        <ele>6</ele>
        <time>2024-05-07T14:30:49Z</time>
      </trkpt>
      <trkpt lat="47.57046" lon="-3.01993">
        <ele>6</ele>
        <time>2024-05-07T14:30:50Z</time>
      </trkpt>
      <trkpt lat="47.57046" lon="-3.01993">
        <ele>6</ele>
        <time>2024-05-07T14:30:51Z</time>
      </trkpt>
      <trkpt lat="47.57048" lon="-3.01995">
        <ele>6</ele>
        <time>2024-05-07T14:30:52Z</time>
      </trkpt>
      <trkpt lat="47.57049" lon="-3.01996">
        <ele>6.2</ele>
        <time>2024-05-07T14:30:53Z</time>
      </trkpt>
      <trkpt lat="47.5705" lon="-3.01996">
        <ele>6.2</ele>
        <time>2024-05-07T14:30:54Z</time>
      </trkpt>
      <trkpt lat="47.57051" lon="-3.01997">
        <ele>6.2</ele>
        <time>2024-05-07T14:30:55Z</time>
      </trkpt>
      <trkpt lat="47.57052" lon="-3.01998">
        <ele>6.2</ele>
        <time>2024-05-07T14:30:56Z</time>
      </trkpt>
      <trkpt lat="47.57053" lon="-3.01999">
        <ele>6.2</ele>
        <time>2024-05-07T14:30:57Z</time>
      </trkpt>
      <trkpt lat="47.57055" lon="-3.02">
        <ele>6.2</ele>
        <time>2024-05-07T14:30:58Z</time>
      </trkpt>
      <trkpt lat="47.57056" lon="-3.02001">
        <ele>6.2</ele>
        <time>2024-05-07T14:30:59Z</time>
      </trkpt>
      <trkpt lat="47.57057" lon="-3.02001">
        <ele>6.2</ele>
        <time>2024-05-07T14:31:00Z</time>
      </trkpt>
      <trkpt lat="47.57058" lon="-3.02002">
        <ele>6.2</ele>
        <time>2024-05-07T14:31:01Z</time>
      </trkpt>
      <trkpt lat="47.57059" lon="-3.02003">
        <ele>6.2</ele>
        <time>2024-05-07T14:31:02Z</time>
      </trkpt>
      <trkpt lat="47.57059" lon="-3.02004">
        <ele>6.2</ele>
        <time>2024-05-07T14:31:03Z</time>
      </trkpt>
      <trkpt lat="47.5706" lon="-3.02005">
        <ele>6.2</ele>
        <time>2024-05-07T14:31:04Z</time>
      </trkpt>
      <trkpt lat="47.57061" lon="-3.02006">
        <ele>6</ele>
        <time>2024-05-07T14:31:05Z</time>
      </trkpt>
      <trkpt lat="47.57063" lon="-3.02007">
        <ele>6</ele>
        <time>2024-05-07T14:31:06Z</time>
      </trkpt>
      <trkpt lat="47.57064" lon="-3.02008">
        <ele>6</ele>
        <time>2024-05-07T14:31:07Z</time>
      </trkpt>
      <trkpt lat="47.57065" lon="-3.02009">
        <ele>6</ele>
        <time>2024-05-07T14:31:08Z</time>
      </trkpt>
      <trkpt lat="47.57066" lon="-3.0201">
        <ele>6</ele>
        <time>2024-05-07T14:31:09Z</time>
      </trkpt>
      <trkpt lat="47.57068" lon="-3.02011">
        <ele>6</ele>
        <time>2024-05-07T14:31:10Z</time>
      </trkpt>
      <trkpt lat="47.57069" lon="-3.02011">
        <ele>5.8</ele>
        <time>2024-05-07T14:31:11Z</time>
      </trkpt>
      <trkpt lat="47.5707" lon="-3.02011">
        <ele>5.8</ele>
        <time>2024-05-07T14:31:12Z</time>
      </trkpt>
      <trkpt lat="47.57071" lon="-3.02012">
        <ele>5.8</ele>
        <time>2024-05-07T14:31:13Z</time>
      </trkpt>
      <trkpt lat="47.57073" lon="-3.02012">
        <ele>5.8</ele>
        <time>2024-05-07T14:31:14Z</time>
      </trkpt>
      <trkpt lat="47.57073" lon="-3.02013">
        <ele>5.8</ele>
        <time>2024-05-07T14:31:15Z</time>
      </trkpt>
      <trkpt lat="47.57075" lon="-3.02013">
        <ele>5.8</ele>
        <time>2024-05-07T14:31:16Z</time>
      </trkpt>
      <trkpt lat="47.57076" lon="-3.02014">
        <ele>5.6</ele>
        <time>2024-05-07T14:31:17Z</time>
      </trkpt>
      <trkpt lat="47.57077" lon="-3.02015">
        <ele>5.6</ele>
        <time>2024-05-07T14:31:18Z</time>
      </trkpt>
      <trkpt lat="47.57079" lon="-3.02016">
        <ele>5.6</ele>
        <time>2024-05-07T14:31:19Z</time>
      </trkpt>
      <trkpt lat="47.5708" lon="-3.02017">
        <ele>5.6</ele>
        <time>2024-05-07T14:31:20Z</time>
      </trkpt>
      <trkpt lat="47.5708" lon="-3.02018">
        <ele>5.6</ele>
        <time>2024-05-07T14:31:21Z</time>
      </trkpt>
      <trkpt lat="47.57081" lon="-3.0202">
        <ele>5.6</ele>
        <time>2024-05-07T14:31:22Z</time>
      </trkpt>
      <trkpt lat="47.57083" lon="-3.02021">
        <ele>5.4</ele>
        <time>2024-05-07T14:31:23Z</time>
      </trkpt>
      <trkpt lat="47.57084" lon="-3.02022">
        <ele>5.4</ele>
        <time>2024-05-07T14:31:24Z</time>
      </trkpt>
      <trkpt lat="47.57085" lon="-3.02023">
        <ele>5.2</ele>
        <time>2024-05-07T14:31:25Z</time>
      </trkpt>
      <trkpt lat="47.57087" lon="-3.02024">
        <ele>5.2</ele>
        <time>2024-05-07T14:31:26Z</time>
      </trkpt>
      <trkpt lat="47.57088" lon="-3.02025">
        <ele>5.2</ele>
        <time>2024-05-07T14:31:27Z</time>
      </trkpt>
      <trkpt lat="47.5709" lon="-3.02026">
        <ele>5</ele>
        <time>2024-05-07T14:31:28Z</time>
      </trkpt>
      <trkpt lat="47.57091" lon="-3.02026">
        <ele>5</ele>
        <time>2024-05-07T14:31:29Z</time>
      </trkpt>
      <trkpt lat="47.57093" lon="-3.02027">
        <ele>5</ele>
        <time>2024-05-07T14:31:30Z</time>
      </trkpt>
      <trkpt lat="47.57094" lon="-3.02028">
        <ele>5</ele>
        <time>2024-05-07T14:31:31Z</time>
      </trkpt>
      <trkpt lat="47.57096" lon="-3.02029">
        <ele>5</ele>
        <time>2024-05-07T14:31:32Z</time>
      </trkpt>
      <trkpt lat="47.57097" lon="-3.02029">
        <ele>5</ele>
        <time>2024-05-07T14:31:33Z</time>
      </trkpt>
      <trkpt lat="47.57099" lon="-3.02029">
        <ele>5</ele>
        <time>2024-05-07T14:31:34Z</time>
      </trkpt>
      <trkpt lat="47.571" lon="-3.02031">
        <ele>5</ele>
        <time>2024-05-07T14:31:35Z</time>
      </trkpt>
      <trkpt lat="47.571" lon="-3.02031">
        <ele>5.2</ele>
        <time>2024-05-07T14:31:36Z</time>
      </trkpt>
      <trkpt lat="47.57101" lon="-3.02032">
        <ele>5</ele>
        <time>2024-05-07T14:31:37Z</time>
      </trkpt>
      <trkpt lat="47.57103" lon="-3.02033">
        <ele>4.8</ele>
        <time>2024-05-07T14:31:38Z</time>
      </trkpt>
      <trkpt lat="47.57104" lon="-3.02033">
        <ele>4.8</ele>
        <time>2024-05-07T14:31:39Z</time>
      </trkpt>
      <trkpt lat="47.57105" lon="-3.02034">
        <ele>4.8</ele>
        <time>2024-05-07T14:31:40Z</time>
      </trkpt>
      <trkpt lat="47.57105" lon="-3.02035">
        <ele>4.8</ele>
        <time>2024-05-07T14:31:41Z</time>
      </trkpt>
      <trkpt lat="47.57107" lon="-3.02037">
        <ele>4.8</ele>
        <time>2024-05-07T14:31:42Z</time>
      </trkpt>
      <trkpt lat="47.57107" lon="-3.02038">
        <ele>5</ele>
        <time>2024-05-07T14:31:43Z</time>
      </trkpt>
      <trkpt lat="47.57108" lon="-3.02039">
        <ele>5.2</ele>
        <time>2024-05-07T14:31:44Z</time>
      </trkpt>
      <trkpt lat="47.57109" lon="-3.0204">
        <ele>5.2</ele>
        <time>2024-05-07T14:31:45Z</time>
      </trkpt>
      <trkpt lat="47.5711" lon="-3.02041">
        <ele>5.4</ele>
        <time>2024-05-07T14:31:46Z</time>
      </trkpt>
      <trkpt lat="47.57111" lon="-3.02042">
        <ele>5.4</ele>
        <time>2024-05-07T14:31:47Z</time>
      </trkpt>
      <trkpt lat="47.57112" lon="-3.02043">
        <ele>5.4</ele>
        <time>2024-05-07T14:31:48Z</time>
      </trkpt>
      <trkpt lat="47.57113" lon="-3.02044">
        <ele>5.6</ele>
        <time>2024-05-07T14:31:49Z</time>
      </trkpt>
      <trkpt lat="47.57113" lon="-3.02046">
        <ele>5.6</ele>
        <time>2024-05-07T14:31:50Z</time>
      </trkpt>
      <trkpt lat="47.57114" lon="-3.02047">
        <ele>5.8</ele>
        <time>2024-05-07T14:31:51Z</time>
      </trkpt>
      <trkpt lat="47.57115" lon="-3.02049">
        <ele>5.8</ele>
        <time>2024-05-07T14:31:52Z</time>
      </trkpt>
      <trkpt lat="47.57116" lon="-3.02052">
        <ele>5.8</ele>
        <time>2024-05-07T14:31:53Z</time>
      </trkpt>
      <trkpt lat="47.57116" lon="-3.02054">
        <ele>5.8</ele>
        <time>2024-05-07T14:31:54Z</time>
      </trkpt>
      <trkpt lat="47.57117" lon="-3.02056">
        <ele>5.6</ele>
        <time>2024-05-07T14:31:55Z</time>
      </trkpt>
      <trkpt lat="47.57117" lon="-3.02059">
        <ele>5.6</ele>
        <time>2024-05-07T14:31:56Z</time>
      </trkpt>
      <trkpt lat="47.57117" lon="-3.02061">
        <ele>5.6</ele>
        <time>2024-05-07T14:31:57Z</time>
      </trkpt>
      <trkpt lat="47.57117" lon="-3.02063">
        <ele>5.6</ele>
        <time>2024-05-07T14:31:58Z</time>
      </trkpt>
      <trkpt lat="47.57118" lon="-3.02064">
        <ele>5.6</ele>
        <time>2024-05-07T14:31:59Z</time>
      </trkpt>
      <trkpt lat="47.57119" lon="-3.02065">
        <ele>5.6</ele>
        <time>2024-05-07T14:32:00Z</time>
      </trkpt>
      <trkpt lat="47.57121" lon="-3.02066">
        <ele>5.6</ele>
        <time>2024-05-07T14:32:01Z</time>
      </trkpt>
      <trkpt lat="47.57122" lon="-3.02067">
        <ele>5.6</ele>
        <time>2024-05-07T14:32:02Z</time>
      </trkpt>
      <trkpt lat="47.57123" lon="-3.02069">
        <ele>5.6</ele>
        <time>2024-05-07T14:32:03Z</time>
      </trkpt>
      <trkpt lat="47.57123" lon="-3.02071">
        <ele>5.6</ele>
        <time>2024-05-07T14:32:04Z</time>
      </trkpt>
      <trkpt lat="47.57124" lon="-3.02073">
        <ele>5.6</ele>
        <time>2024-05-07T14:32:05Z</time>
      </trkpt>
      <trkpt lat="47.57125" lon="-3.02075">
        <ele>5.6</ele>
        <time>2024-05-07T14:32:06Z</time>
      </trkpt>
      <trkpt lat="47.57125" lon="-3.02077">
        <ele>5.6</ele>
        <time>2024-05-07T14:32:07Z</time>
      </trkpt>
      <trkpt lat="47.57126" lon="-3.02079">
        <ele>5.6</ele>
        <time>2024-05-07T14:32:08Z</time>
      </trkpt>
      <trkpt lat="47.57127" lon="-3.0208">
        <ele>5.6</ele>
        <time>2024-05-07T14:32:09Z</time>
      </trkpt>
      <trkpt lat="47.57128" lon="-3.02081">
        <ele>5.6</ele>
        <time>2024-05-07T14:32:10Z</time>
      </trkpt>
      <trkpt lat="47.57129" lon="-3.02084">
        <ele>5.6</ele>
        <time>2024-05-07T14:32:11Z</time>
      </trkpt>
      <trkpt lat="47.57129" lon="-3.02085">
        <ele>5.4</ele>
        <time>2024-05-07T14:32:12Z</time>
      </trkpt>
      <trkpt lat="47.5713" lon="-3.02087">
        <ele>5.4</ele>
        <time>2024-05-07T14:32:13Z</time>
      </trkpt>
      <trkpt lat="47.5713" lon="-3.02089">
        <ele>5.4</ele>
        <time>2024-05-07T14:32:14Z</time>
      </trkpt>
      <trkpt lat="47.57131" lon="-3.02091">
        <ele>5.2</ele>
        <time>2024-05-07T14:32:15Z</time>
      </trkpt>
      <trkpt lat="47.57132" lon="-3.02092">
        <ele>5.2</ele>
        <time>2024-05-07T14:32:16Z</time>
      </trkpt>
      <trkpt lat="47.57133" lon="-3.02093">
        <ele>5.2</ele>
        <time>2024-05-07T14:32:17Z</time>
      </trkpt>
      <trkpt lat="47.57134" lon="-3.02094">
        <ele>5.2</ele>
        <time>2024-05-07T14:32:18Z</time>
      </trkpt>
      <trkpt lat="47.57135" lon="-3.02096">
        <ele>5.2</ele>
        <time>2024-05-07T14:32:19Z</time>
      </trkpt>
      <trkpt lat="47.57135" lon="-3.02098">
        <ele>5.2</ele>
        <time>2024-05-07T14:32:20Z</time>
      </trkpt>
      <trkpt lat="47.57136" lon="-3.021">
        <ele>5.2</ele>
        <time>2024-05-07T14:32:21Z</time>
      </trkpt>
      <trkpt lat="47.57136" lon="-3.02102">
        <ele>5.2</ele>
        <time>2024-05-07T14:32:22Z</time>
      </trkpt>
      <trkpt lat="47.57136" lon="-3.02104">
        <ele>5.2</ele>
        <time>2024-05-07T14:32:23Z</time>
      </trkpt>
      <trkpt lat="47.57136" lon="-3.02105">
        <ele>5.2</ele>
        <time>2024-05-07T14:32:24Z</time>
      </trkpt>
      <trkpt lat="47.57136" lon="-3.02107">
        <ele>5.2</ele>
        <time>2024-05-07T14:32:25Z</time>
      </trkpt>
      <trkpt lat="47.57137" lon="-3.02109">
        <ele>5.2</ele>
        <time>2024-05-07T14:32:26Z</time>
      </trkpt>
      <trkpt lat="47.57138" lon="-3.0211">
        <ele>5.2</ele>
        <time>2024-05-07T14:32:27Z</time>
      </trkpt>
      <trkpt lat="47.57139" lon="-3.02112">
        <ele>5.2</ele>
        <time>2024-05-07T14:32:28Z</time>
      </trkpt>
      <trkpt lat="47.5714" lon="-3.02113">
        <ele>5.2</ele>
        <time>2024-05-07T14:32:29Z</time>
      </trkpt>
      <trkpt lat="47.57142" lon="-3.02115">
        <ele>5.2</ele>
        <time>2024-05-07T14:32:30Z</time>
      </trkpt>
      <trkpt lat="47.57143" lon="-3.02116">
        <ele>5.2</ele>
        <time>2024-05-07T14:32:31Z</time>
      </trkpt>
      <trkpt lat="47.57144" lon="-3.02117">
        <ele>5.2</ele>
        <time>2024-05-07T14:32:32Z</time>
      </trkpt>
      <trkpt lat="47.57145" lon="-3.02118">
        <ele>5.2</ele>
        <time>2024-05-07T14:32:33Z</time>
      </trkpt>
      <trkpt lat="47.57146" lon="-3.0212">
        <ele>5.2</ele>
        <time>2024-05-07T14:32:34Z</time>
      </trkpt>
      <trkpt lat="47.57147" lon="-3.02122">
        <ele>5.2</ele>
        <time>2024-05-07T14:32:35Z</time>
      </trkpt>
      <trkpt lat="47.57147" lon="-3.02124">
        <ele>5.2</ele>
        <time>2024-05-07T14:32:36Z</time>
      </trkpt>
      <trkpt lat="47.57147" lon="-3.02126">
        <ele>5.2</ele>
        <time>2024-05-07T14:32:37Z</time>
      </trkpt>
      <trkpt lat="47.57147" lon="-3.02128">
        <ele>5</ele>
        <time>2024-05-07T14:32:38Z</time>
      </trkpt>
      <trkpt lat="47.57147" lon="-3.0213">
        <ele>5</ele>
        <time>2024-05-07T14:32:39Z</time>
      </trkpt>
      <trkpt lat="47.57148" lon="-3.02131">
        <ele>5</ele>
        <time>2024-05-07T14:32:40Z</time>
      </trkpt>
      <trkpt lat="47.57148" lon="-3.02133">
        <ele>5</ele>
        <time>2024-05-07T14:32:41Z</time>
      </trkpt>
      <trkpt lat="47.57148" lon="-3.02134">
        <ele>5</ele>
        <time>2024-05-07T14:32:42Z</time>
      </trkpt>
      <trkpt lat="47.57149" lon="-3.02134">
        <ele>5</ele>
        <time>2024-05-07T14:32:43Z</time>
      </trkpt>
      <trkpt lat="47.57149" lon="-3.02135">
        <ele>5</ele>
        <time>2024-05-07T14:32:44Z</time>
      </trkpt>
      <trkpt lat="47.5715" lon="-3.02135">
        <ele>5</ele>
        <time>2024-05-07T14:32:45Z</time>
      </trkpt>
      <trkpt lat="47.57151" lon="-3.02137">
        <ele>5</ele>
        <time>2024-05-07T14:32:46Z</time>
      </trkpt>
      <trkpt lat="47.57152" lon="-3.02138">
        <ele>5</ele>
        <time>2024-05-07T14:32:47Z</time>
      </trkpt>
      <trkpt lat="47.57153" lon="-3.02139">
        <ele>5</ele>
        <time>2024-05-07T14:32:48Z</time>
      </trkpt>
      <trkpt lat="47.57154" lon="-3.0214">
        <ele>4.8</ele>
        <time>2024-05-07T14:32:49Z</time>
      </trkpt>
      <trkpt lat="47.57155" lon="-3.02142">
        <ele>4.8</ele>
        <time>2024-05-07T14:32:50Z</time>
      </trkpt>
      <trkpt lat="47.57156" lon="-3.02144">
        <ele>4.8</ele>
        <time>2024-05-07T14:32:51Z</time>
      </trkpt>
      <trkpt lat="47.57156" lon="-3.02146">
        <ele>4.8</ele>
        <time>2024-05-07T14:32:52Z</time>
      </trkpt>
      <trkpt lat="47.57157" lon="-3.02148">
        <ele>4.8</ele>
        <time>2024-05-07T14:32:53Z</time>
      </trkpt>
      <trkpt lat="47.57158" lon="-3.02149">
        <ele>4.6</ele>
        <time>2024-05-07T14:32:54Z</time>
      </trkpt>
      <trkpt lat="47.57158" lon="-3.02151">
        <ele>4.4</ele>
        <time>2024-05-07T14:32:55Z</time>
      </trkpt>
      <trkpt lat="47.57159" lon="-3.02153">
        <ele>4.2</ele>
        <time>2024-05-07T14:32:56Z</time>
      </trkpt>
      <trkpt lat="47.57159" lon="-3.02154">
        <ele>4.2</ele>
        <time>2024-05-07T14:32:57Z</time>
      </trkpt>
      <trkpt lat="47.5716" lon="-3.02156">
        <ele>4.4</ele>
        <time>2024-05-07T14:32:58Z</time>
      </trkpt>
      <trkpt lat="47.5716" lon="-3.02157">
        <ele>4.2</ele>
        <time>2024-05-07T14:32:59Z</time>
      </trkpt>
      <trkpt lat="47.57161" lon="-3.02158">
        <ele>4</ele>
        <time>2024-05-07T14:33:00Z</time>
      </trkpt>
      <trkpt lat="47.57162" lon="-3.02159">
        <ele>4</ele>
        <time>2024-05-07T14:33:01Z</time>
      </trkpt>
      <trkpt lat="47.57163" lon="-3.0216">
        <ele>4</ele>
        <time>2024-05-07T14:33:02Z</time>
      </trkpt>
      <trkpt lat="47.57164" lon="-3.02161">
        <ele>4</ele>
        <time>2024-05-07T14:33:03Z</time>
      </trkpt>
      <trkpt lat="47.57165" lon="-3.02162">
        <ele>4</ele>
        <time>2024-05-07T14:33:04Z</time>
      </trkpt>
      <trkpt lat="47.57166" lon="-3.02165">
        <ele>4</ele>
        <time>2024-05-07T14:33:05Z</time>
      </trkpt>
      <trkpt lat="47.57167" lon="-3.02167">
        <ele>4</ele>
        <time>2024-05-07T14:33:06Z</time>
      </trkpt>
      <trkpt lat="47.57168" lon="-3.02169">
        <ele>4</ele>
        <time>2024-05-07T14:33:07Z</time>
      </trkpt>
      <trkpt lat="47.57168" lon="-3.0217">
        <ele>4</ele>
        <time>2024-05-07T14:33:08Z</time>
      </trkpt>
      <trkpt lat="47.57168" lon="-3.02171">
        <ele>4</ele>
        <time>2024-05-07T14:33:09Z</time>
      </trkpt>
      <trkpt lat="47.57168" lon="-3.02173">
        <ele>4.2</ele>
        <time>2024-05-07T14:33:10Z</time>
      </trkpt>
      <trkpt lat="47.57169" lon="-3.02174">
        <ele>4.2</ele>
        <time>2024-05-07T14:33:11Z</time>
      </trkpt>
      <trkpt lat="47.5717" lon="-3.02175">
        <ele>4.2</ele>
        <time>2024-05-07T14:33:12Z</time>
      </trkpt>
      <trkpt lat="47.57171" lon="-3.02176">
        <ele>4.4</ele>
        <time>2024-05-07T14:33:13Z</time>
      </trkpt>
      <trkpt lat="47.57172" lon="-3.02176">
        <ele>4.4</ele>
        <time>2024-05-07T14:33:14Z</time>
      </trkpt>
      <trkpt lat="47.57173" lon="-3.02178">
        <ele>4.4</ele>
        <time>2024-05-07T14:33:15Z</time>
      </trkpt>
      <trkpt lat="47.57174" lon="-3.0218">
        <ele>4.6</ele>
        <time>2024-05-07T14:33:16Z</time>
      </trkpt>
      <trkpt lat="47.57174" lon="-3.02181">
        <ele>4.6</ele>
        <time>2024-05-07T14:33:17Z</time>
      </trkpt>
      <trkpt lat="47.57175" lon="-3.02183">
        <ele>4.6</ele>
        <time>2024-05-07T14:33:18Z</time>
      </trkpt>
      <trkpt lat="47.57175" lon="-3.02185">
        <ele>4.6</ele>
        <time>2024-05-07T14:33:19Z</time>
      </trkpt>
      <trkpt lat="47.57176" lon="-3.02186">
        <ele>4.6</ele>
        <time>2024-05-07T14:33:20Z</time>
      </trkpt>
      <trkpt lat="47.57177" lon="-3.02188">
        <ele>4.6</ele>
        <time>2024-05-07T14:33:21Z</time>
      </trkpt>
      <trkpt lat="47.57178" lon="-3.02189">
        <ele>4.6</ele>
        <time>2024-05-07T14:33:22Z</time>
      </trkpt>
      <trkpt lat="47.57178" lon="-3.02191">
        <ele>4.4</ele>
        <time>2024-05-07T14:33:23Z</time>
      </trkpt>
      <trkpt lat="47.5718" lon="-3.02192">
        <ele>4.4</ele>
        <time>2024-05-07T14:33:24Z</time>
      </trkpt>
      <trkpt lat="47.5718" lon="-3.02194">
        <ele>4.4</ele>
        <time>2024-05-07T14:33:25Z</time>
      </trkpt>
      <trkpt lat="47.5718" lon="-3.02196">
        <ele>4.4</ele>
        <time>2024-05-07T14:33:26Z</time>
      </trkpt>
      <trkpt lat="47.57182" lon="-3.02197">
        <ele>4.4</ele>
        <time>2024-05-07T14:33:27Z</time>
      </trkpt>
      <trkpt lat="47.57183" lon="-3.02198">
        <ele>4.4</ele>
        <time>2024-05-07T14:33:28Z</time>
      </trkpt>
      <trkpt lat="47.57184" lon="-3.02199">
        <ele>4.4</ele>
        <time>2024-05-07T14:33:29Z</time>
      </trkpt>
      <trkpt lat="47.57185" lon="-3.022">
        <ele>4.4</ele>
        <time>2024-05-07T14:33:30Z</time>
      </trkpt>
      <trkpt lat="47.57186" lon="-3.02201">
        <ele>4.4</ele>
        <time>2024-05-07T14:33:31Z</time>
      </trkpt>
      <trkpt lat="47.57187" lon="-3.02201">
        <ele>4.4</ele>
        <time>2024-05-07T14:33:32Z</time>
      </trkpt>
      <trkpt lat="47.57188" lon="-3.02201">
        <ele>4.4</ele>
        <time>2024-05-07T14:33:33Z</time>
      </trkpt>
      <trkpt lat="47.5719" lon="-3.02201">
        <ele>4.4</ele>
        <time>2024-05-07T14:33:34Z</time>
      </trkpt>
      <trkpt lat="47.57191" lon="-3.02201">
        <ele>4.6</ele>
        <time>2024-05-07T14:33:35Z</time>
      </trkpt>
      <trkpt lat="47.57192" lon="-3.02202">
        <ele>4.6</ele>
        <time>2024-05-07T14:33:36Z</time>
      </trkpt>
      <trkpt lat="47.57194" lon="-3.02203">
        <ele>4.6</ele>
        <time>2024-05-07T14:33:37Z</time>
      </trkpt>
      <trkpt lat="47.57196" lon="-3.02204">
        <ele>4.6</ele>
        <time>2024-05-07T14:33:38Z</time>
      </trkpt>
      <trkpt lat="47.57197" lon="-3.02205">
        <ele>4.8</ele>
        <time>2024-05-07T14:33:39Z</time>
      </trkpt>
      <trkpt lat="47.57198" lon="-3.02206">
        <ele>4.8</ele>
        <time>2024-05-07T14:33:40Z</time>
      </trkpt>
      <trkpt lat="47.57199" lon="-3.02207">
        <ele>4.8</ele>
        <time>2024-05-07T14:33:41Z</time>
      </trkpt>
      <trkpt lat="47.572" lon="-3.02207">
        <ele>4.8</ele>
        <time>2024-05-07T14:33:42Z</time>
      </trkpt>
      <trkpt lat="47.57202" lon="-3.02207">
        <ele>4.8</ele>
        <time>2024-05-07T14:33:43Z</time>
      </trkpt>
      <trkpt lat="47.57203" lon="-3.02208">
        <ele>4.8</ele>
        <time>2024-05-07T14:33:44Z</time>
      </trkpt>
      <trkpt lat="47.57204" lon="-3.02209">
        <ele>4.8</ele>
        <time>2024-05-07T14:33:45Z</time>
      </trkpt>
      <trkpt lat="47.57205" lon="-3.0221">
        <ele>5</ele>
        <time>2024-05-07T14:33:46Z</time>
      </trkpt>
      <trkpt lat="47.57206" lon="-3.02211">
        <ele>5</ele>
        <time>2024-05-07T14:33:47Z</time>
      </trkpt>
      <trkpt lat="47.57206" lon="-3.02211">
        <ele>5</ele>
        <time>2024-05-07T14:33:48Z</time>
      </trkpt>
      <trkpt lat="47.57206" lon="-3.02212">
        <ele>5</ele>
        <time>2024-05-07T14:33:49Z</time>
      </trkpt>
      <trkpt lat="47.57208" lon="-3.02212">
        <ele>5</ele>
        <time>2024-05-07T14:33:50Z</time>
      </trkpt>
      <trkpt lat="47.57209" lon="-3.02212">
        <ele>5</ele>
        <time>2024-05-07T14:33:51Z</time>
      </trkpt>
      <trkpt lat="47.57211" lon="-3.02213">
        <ele>5</ele>
        <time>2024-05-07T14:33:52Z</time>
      </trkpt>
      <trkpt lat="47.57212" lon="-3.02212">
        <ele>5</ele>
        <time>2024-05-07T14:33:53Z</time>
      </trkpt>
      <trkpt lat="47.57213" lon="-3.02213">
        <ele>5</ele>
        <time>2024-05-07T14:33:54Z</time>
      </trkpt>
      <trkpt lat="47.57214" lon="-3.02213">
        <ele>5.2</ele>
        <time>2024-05-07T14:33:55Z</time>
      </trkpt>
      <trkpt lat="47.57215" lon="-3.02214">
        <ele>5.2</ele>
        <time>2024-05-07T14:33:56Z</time>
      </trkpt>
      <trkpt lat="47.57216" lon="-3.02214">
        <ele>5.2</ele>
        <time>2024-05-07T14:33:57Z</time>
      </trkpt>
      <trkpt lat="47.57217" lon="-3.02215">
        <ele>5.4</ele>
        <time>2024-05-07T14:33:58Z</time>
      </trkpt>
      <trkpt lat="47.57218" lon="-3.02215">
        <ele>5.4</ele>
        <time>2024-05-07T14:33:59Z</time>
      </trkpt>
      <trkpt lat="47.57219" lon="-3.02216">
        <ele>5.6</ele>
        <time>2024-05-07T14:34:00Z</time>
      </trkpt>
      <trkpt lat="47.5722" lon="-3.02216">
        <ele>5.6</ele>
        <time>2024-05-07T14:34:01Z</time>
      </trkpt>
      <trkpt lat="47.57221" lon="-3.02217">
        <ele>5.6</ele>
        <time>2024-05-07T14:34:02Z</time>
      </trkpt>
      <trkpt lat="47.57222" lon="-3.02217">
        <ele>5.6</ele>
        <time>2024-05-07T14:34:03Z</time>
      </trkpt>
      <trkpt lat="47.57223" lon="-3.02218">
        <ele>5.6</ele>
        <time>2024-05-07T14:34:04Z</time>
      </trkpt>
      <trkpt lat="47.57225" lon="-3.0222">
        <ele>5.6</ele>
        <time>2024-05-07T14:34:05Z</time>
      </trkpt>
      <trkpt lat="47.57226" lon="-3.0222">
        <ele>5.6</ele>
        <time>2024-05-07T14:34:06Z</time>
      </trkpt>
      <trkpt lat="47.57228" lon="-3.02221">
        <ele>5.6</ele>
        <time>2024-05-07T14:34:07Z</time>
      </trkpt>
      <trkpt lat="47.5723" lon="-3.02221">
        <ele>5.6</ele>
        <time>2024-05-07T14:34:08Z</time>
      </trkpt>
      <trkpt lat="47.57231" lon="-3.02222">
        <ele>5.6</ele>
        <time>2024-05-07T14:34:09Z</time>
      </trkpt>
      <trkpt lat="47.57232" lon="-3.02222">
        <ele>5.6</ele>
        <time>2024-05-07T14:34:10Z</time>
      </trkpt>
      <trkpt lat="47.57232" lon="-3.02223">
        <ele>5.6</ele>
        <time>2024-05-07T14:34:11Z</time>
      </trkpt>
      <trkpt lat="47.57233" lon="-3.02223">
        <ele>5.6</ele>
        <time>2024-05-07T14:34:12Z</time>
      </trkpt>
      <trkpt lat="47.57233" lon="-3.02222">
        <ele>5.6</ele>
        <time>2024-05-07T14:34:13Z</time>
      </trkpt>
      <trkpt lat="47.57234" lon="-3.02223">
        <ele>5.6</ele>
        <time>2024-05-07T14:34:14Z</time>
      </trkpt>
      <trkpt lat="47.57235" lon="-3.02223">
        <ele>5.6</ele>
        <time>2024-05-07T14:34:15Z</time>
      </trkpt>
      <trkpt lat="47.57236" lon="-3.02224">
        <ele>5.6</ele>
        <time>2024-05-07T14:34:16Z</time>
      </trkpt>
      <trkpt lat="47.57238" lon="-3.02225">
        <ele>5.8</ele>
        <time>2024-05-07T14:34:17Z</time>
      </trkpt>
      <trkpt lat="47.57239" lon="-3.02226">
        <ele>5.8</ele>
        <time>2024-05-07T14:34:18Z</time>
      </trkpt>
      <trkpt lat="47.5724" lon="-3.02226">
        <ele>6</ele>
        <time>2024-05-07T14:34:19Z</time>
      </trkpt>
      <trkpt lat="47.57241" lon="-3.02227">
        <ele>6</ele>
        <time>2024-05-07T14:34:20Z</time>
      </trkpt>
      <trkpt lat="47.57242" lon="-3.02227">
        <ele>6</ele>
        <time>2024-05-07T14:34:21Z</time>
      </trkpt>
      <trkpt lat="47.57243" lon="-3.02228">
        <ele>6.2</ele>
        <time>2024-05-07T14:34:22Z</time>
      </trkpt>
      <trkpt lat="47.57244" lon="-3.02229">
        <ele>6.2</ele>
        <time>2024-05-07T14:34:23Z</time>
      </trkpt>
      <trkpt lat="47.57246" lon="-3.0223">
        <ele>6.2</ele>
        <time>2024-05-07T14:34:24Z</time>
      </trkpt>
      <trkpt lat="47.57247" lon="-3.0223">
        <ele>6.2</ele>
        <time>2024-05-07T14:34:25Z</time>
      </trkpt>
      <trkpt lat="47.57248" lon="-3.02231">
        <ele>6.2</ele>
        <time>2024-05-07T14:34:26Z</time>
      </trkpt>
      <trkpt lat="47.5725" lon="-3.02232">
        <ele>6.2</ele>
        <time>2024-05-07T14:34:27Z</time>
      </trkpt>
      <trkpt lat="47.57251" lon="-3.02232">
        <ele>6.2</ele>
        <time>2024-05-07T14:34:28Z</time>
      </trkpt>
      <trkpt lat="47.57252" lon="-3.02232">
        <ele>6.2</ele>
        <time>2024-05-07T14:34:29Z</time>
      </trkpt>
      <trkpt lat="47.57254" lon="-3.02232">
        <ele>6</ele>
        <time>2024-05-07T14:34:30Z</time>
      </trkpt>
      <trkpt lat="47.57255" lon="-3.02233">
        <ele>6</ele>
        <time>2024-05-07T14:34:31Z</time>
      </trkpt>
      <trkpt lat="47.57256" lon="-3.02234">
        <ele>5.8</ele>
        <time>2024-05-07T14:34:32Z</time>
      </trkpt>
      <trkpt lat="47.57256" lon="-3.02235">
        <ele>5.6</ele>
        <time>2024-05-07T14:34:33Z</time>
      </trkpt>
      <trkpt lat="47.57258" lon="-3.02236">
        <ele>5.6</ele>
        <time>2024-05-07T14:34:34Z</time>
      </trkpt>
      <trkpt lat="47.57259" lon="-3.02237">
        <ele>5.4</ele>
        <time>2024-05-07T14:34:35Z</time>
      </trkpt>
      <trkpt lat="47.57259" lon="-3.02239">
        <ele>5.4</ele>
        <time>2024-05-07T14:34:36Z</time>
      </trkpt>
      <trkpt lat="47.57258" lon="-3.0224">
        <ele>5.2</ele>
        <time>2024-05-07T14:34:37Z</time>
      </trkpt>
      <trkpt lat="47.57258" lon="-3.02242">
        <ele>5.2</ele>
        <time>2024-05-07T14:34:38Z</time>
      </trkpt>
      <trkpt lat="47.57258" lon="-3.02244">
        <ele>5.2</ele>
        <time>2024-05-07T14:34:39Z</time>
      </trkpt>
      <trkpt lat="47.57257" lon="-3.02246">
        <ele>5</ele>
        <time>2024-05-07T14:34:40Z</time>
      </trkpt>
      <trkpt lat="47.57257" lon="-3.02248">
        <ele>4.8</ele>
        <time>2024-05-07T14:34:41Z</time>
      </trkpt>
      <trkpt lat="47.57257" lon="-3.02249">
        <ele>4.8</ele>
        <time>2024-05-07T14:34:42Z</time>
      </trkpt>
      <trkpt lat="47.57256" lon="-3.02251">
        <ele>4.8</ele>
        <time>2024-05-07T14:34:43Z</time>
      </trkpt>
      <trkpt lat="47.57256" lon="-3.02253">
        <ele>4.8</ele>
        <time>2024-05-07T14:34:44Z</time>
      </trkpt>
      <trkpt lat="47.57255" lon="-3.02255">
        <ele>4.8</ele>
        <time>2024-05-07T14:34:45Z</time>
      </trkpt>
      <trkpt lat="47.57254" lon="-3.02257">
        <ele>4.8</ele>
        <time>2024-05-07T14:34:46Z</time>
      </trkpt>
      <trkpt lat="47.57253" lon="-3.02258">
        <ele>4.6</ele>
        <time>2024-05-07T14:34:47Z</time>
      </trkpt>
      <trkpt lat="47.57252" lon="-3.02259">
        <ele>4.6</ele>
        <time>2024-05-07T14:34:48Z</time>
      </trkpt>
      <trkpt lat="47.57251" lon="-3.02259">
        <ele>4.6</ele>
        <time>2024-05-07T14:34:49Z</time>
      </trkpt>
      <trkpt lat="47.57251" lon="-3.0226">
        <ele>4.6</ele>
        <time>2024-05-07T14:34:50Z</time>
      </trkpt>
      <trkpt lat="47.5725" lon="-3.02261">
        <ele>4.6</ele>
        <time>2024-05-07T14:34:51Z</time>
      </trkpt>
      <trkpt lat="47.57248" lon="-3.02261">
        <ele>4.6</ele>
        <time>2024-05-07T14:34:52Z</time>
      </trkpt>
      <trkpt lat="47.57246" lon="-3.02261">
        <ele>4.6</ele>
        <time>2024-05-07T14:34:53Z</time>
      </trkpt>
      <trkpt lat="47.57245" lon="-3.0226">
        <ele>4.6</ele>
        <time>2024-05-07T14:34:54Z</time>
      </trkpt>
      <trkpt lat="47.57244" lon="-3.0226">
        <ele>4.6</ele>
        <time>2024-05-07T14:34:55Z</time>
      </trkpt>
      <trkpt lat="47.57243" lon="-3.0226">
        <ele>4.6</ele>
        <time>2024-05-07T14:34:56Z</time>
      </trkpt>
      <trkpt lat="47.57242" lon="-3.0226">
        <ele>4.6</ele>
        <time>2024-05-07T14:34:57Z</time>
      </trkpt>
      <trkpt lat="47.57241" lon="-3.0226">
        <ele>4.8</ele>
        <time>2024-05-07T14:34:58Z</time>
      </trkpt>
      <trkpt lat="47.57239" lon="-3.02261">
        <ele>4.8</ele>
        <time>2024-05-07T14:34:59Z</time>
      </trkpt>
      <trkpt lat="47.57237" lon="-3.02262">
        <ele>5</ele>
        <time>2024-05-07T14:35:00Z</time>
      </trkpt>
      <trkpt lat="47.57236" lon="-3.02261">
        <ele>5</ele>
        <time>2024-05-07T14:35:01Z</time>
      </trkpt>
      <trkpt lat="47.57235" lon="-3.0226">
        <ele>5</ele>
        <time>2024-05-07T14:35:02Z</time>
      </trkpt>
      <trkpt lat="47.57234" lon="-3.02261">
        <ele>5.2</ele>
        <time>2024-05-07T14:35:03Z</time>
      </trkpt>
      <trkpt lat="47.57233" lon="-3.02262">
        <ele>5.2</ele>
        <time>2024-05-07T14:35:04Z</time>
      </trkpt>
      <trkpt lat="47.57231" lon="-3.02262">
        <ele>5.2</ele>
        <time>2024-05-07T14:35:05Z</time>
      </trkpt>
      <trkpt lat="47.5723" lon="-3.02261">
        <ele>5.2</ele>
        <time>2024-05-07T14:35:06Z</time>
      </trkpt>
      <trkpt lat="47.57229" lon="-3.02262">
        <ele>5.4</ele>
        <time>2024-05-07T14:35:07Z</time>
      </trkpt>
      <trkpt lat="47.57228" lon="-3.02262">
        <ele>5.4</ele>
        <time>2024-05-07T14:35:08Z</time>
      </trkpt>
      <trkpt lat="47.57228" lon="-3.02262">
        <ele>5.6</ele>
        <time>2024-05-07T14:35:09Z</time>
      </trkpt>
      <trkpt lat="47.57229" lon="-3.02262">
        <ele>5.6</ele>
        <time>2024-05-07T14:35:10Z</time>
      </trkpt>
      <trkpt lat="47.5723" lon="-3.02263">
        <ele>5.6</ele>
        <time>2024-05-07T14:35:11Z</time>
      </trkpt>
      <trkpt lat="47.57231" lon="-3.02264">
        <ele>5.6</ele>
        <time>2024-05-07T14:35:12Z</time>
      </trkpt>
      <trkpt lat="47.57232" lon="-3.02265">
        <ele>5.6</ele>
        <time>2024-05-07T14:35:13Z</time>
      </trkpt>
      <trkpt lat="47.57233" lon="-3.02266">
        <ele>5.8</ele>
        <time>2024-05-07T14:35:14Z</time>
      </trkpt>
      <trkpt lat="47.57235" lon="-3.02267">
        <ele>5.8</ele>
        <time>2024-05-07T14:35:15Z</time>
      </trkpt>
      <trkpt lat="47.57237" lon="-3.02269">
        <ele>5.8</ele>
        <time>2024-05-07T14:35:16Z</time>
      </trkpt>
      <trkpt lat="47.57238" lon="-3.0227">
        <ele>5.8</ele>
        <time>2024-05-07T14:35:17Z</time>
      </trkpt>
      <trkpt lat="47.57239" lon="-3.02272">
        <ele>5.8</ele>
        <time>2024-05-07T14:35:18Z</time>
      </trkpt>
      <trkpt lat="47.5724" lon="-3.02274">
        <ele>5.8</ele>
        <time>2024-05-07T14:35:19Z</time>
      </trkpt>
      <trkpt lat="47.57241" lon="-3.02276">
        <ele>5.8</ele>
        <time>2024-05-07T14:35:20Z</time>
      </trkpt>
      <trkpt lat="47.57243" lon="-3.02277">
        <ele>5.8</ele>
        <time>2024-05-07T14:35:21Z</time>
      </trkpt>
      <trkpt lat="47.57244" lon="-3.02278">
        <ele>6</ele>
        <time>2024-05-07T14:35:22Z</time>
      </trkpt>
      <trkpt lat="47.57244" lon="-3.02281">
        <ele>6</ele>
        <time>2024-05-07T14:35:23Z</time>
      </trkpt>
      <trkpt lat="47.57245" lon="-3.02282">
        <ele>6</ele>
        <time>2024-05-07T14:35:24Z</time>
      </trkpt>
      <trkpt lat="47.57247" lon="-3.02283">
        <ele>6</ele>
        <time>2024-05-07T14:35:25Z</time>
      </trkpt>
      <trkpt lat="47.57248" lon="-3.02284">
        <ele>6</ele>
        <time>2024-05-07T14:35:26Z</time>
      </trkpt>
      <trkpt lat="47.57248" lon="-3.02285">
        <ele>5.8</ele>
        <time>2024-05-07T14:35:27Z</time>
      </trkpt>
      <trkpt lat="47.57249" lon="-3.02286">
        <ele>5.8</ele>
        <time>2024-05-07T14:35:28Z</time>
      </trkpt>
      <trkpt lat="47.57251" lon="-3.02285">
        <ele>5.8</ele>
        <time>2024-05-07T14:35:29Z</time>
      </trkpt>
      <trkpt lat="47.57252" lon="-3.02286">
        <ele>5.6</ele>
        <time>2024-05-07T14:35:30Z</time>
      </trkpt>
      <trkpt lat="47.57254" lon="-3.02287">
        <ele>5.4</ele>
        <time>2024-05-07T14:35:31Z</time>
      </trkpt>
      <trkpt lat="47.57255" lon="-3.02289">
        <ele>5.4</ele>
        <time>2024-05-07T14:35:32Z</time>
      </trkpt>
      <trkpt lat="47.57256" lon="-3.02292">
        <ele>5.2</ele>
        <time>2024-05-07T14:35:33Z</time>
      </trkpt>
      <trkpt lat="47.57257" lon="-3.02294">
        <ele>5.2</ele>
        <time>2024-05-07T14:35:34Z</time>
      </trkpt>
      <trkpt lat="47.57257" lon="-3.02297">
        <ele>5.2</ele>
        <time>2024-05-07T14:35:35Z</time>
      </trkpt>
      <trkpt lat="47.57258" lon="-3.02299">
        <ele>5.2</ele>
        <time>2024-05-07T14:35:36Z</time>
      </trkpt>
      <trkpt lat="47.57259" lon="-3.02299">
        <ele>5.2</ele>
        <time>2024-05-07T14:35:37Z</time>
      </trkpt>
      <trkpt lat="47.57259" lon="-3.023">
        <ele>5</ele>
        <time>2024-05-07T14:35:38Z</time>
      </trkpt>
      <trkpt lat="47.57259" lon="-3.023">
        <ele>5</ele>
        <time>2024-05-07T14:35:39Z</time>
      </trkpt>
      <trkpt lat="47.5726" lon="-3.023">
        <ele>5</ele>
        <time>2024-05-07T14:35:40Z</time>
      </trkpt>
      <trkpt lat="47.57262" lon="-3.023">
        <ele>5</ele>
        <time>2024-05-07T14:35:41Z</time>
      </trkpt>
      <trkpt lat="47.57263" lon="-3.02301">
        <ele>5</ele>
        <time>2024-05-07T14:35:42Z</time>
      </trkpt>
      <trkpt lat="47.57264" lon="-3.02302">
        <ele>5</ele>
        <time>2024-05-07T14:35:43Z</time>
      </trkpt>
      <trkpt lat="47.57265" lon="-3.02303">
        <ele>5</ele>
        <time>2024-05-07T14:35:44Z</time>
      </trkpt>
      <trkpt lat="47.57265" lon="-3.02304">
        <ele>5</ele>
        <time>2024-05-07T14:35:45Z</time>
      </trkpt>
      <trkpt lat="47.57265" lon="-3.02308">
        <ele>5</ele>
        <time>2024-05-07T14:35:46Z</time>
      </trkpt>
      <trkpt lat="47.57266" lon="-3.02308">
        <ele>5</ele>
        <time>2024-05-07T14:35:47Z</time>
      </trkpt>
      <trkpt lat="47.57266" lon="-3.0231">
        <ele>5</ele>
        <time>2024-05-07T14:35:48Z</time>
      </trkpt>
      <trkpt lat="47.57267" lon="-3.02312">
        <ele>5</ele>
        <time>2024-05-07T14:35:49Z</time>
      </trkpt>
      <trkpt lat="47.57268" lon="-3.02312">
        <ele>5</ele>
        <time>2024-05-07T14:35:50Z</time>
      </trkpt>
      <trkpt lat="47.5727" lon="-3.02313">
        <ele>5</ele>
        <time>2024-05-07T14:35:51Z</time>
      </trkpt>
      <trkpt lat="47.57272" lon="-3.02314">
        <ele>4.8</ele>
        <time>2024-05-07T14:35:52Z</time>
      </trkpt>
      <trkpt lat="47.57274" lon="-3.02315">
        <ele>4.8</ele>
        <time>2024-05-07T14:35:53Z</time>
      </trkpt>
      <trkpt lat="47.57276" lon="-3.02316">
        <ele>4.8</ele>
        <time>2024-05-07T14:35:54Z</time>
      </trkpt>
      <trkpt lat="47.57276" lon="-3.02318">
        <ele>4.6</ele>
        <time>2024-05-07T14:35:55Z</time>
      </trkpt>
      <trkpt lat="47.57278" lon="-3.0232">
        <ele>4.6</ele>
        <time>2024-05-07T14:35:56Z</time>
      </trkpt>
      <trkpt lat="47.57279" lon="-3.02321">
        <ele>4.6</ele>
        <time>2024-05-07T14:35:57Z</time>
      </trkpt>
      <trkpt lat="47.5728" lon="-3.02322">
        <ele>4.4</ele>
        <time>2024-05-07T14:35:58Z</time>
      </trkpt>
      <trkpt lat="47.5728" lon="-3.02324">
        <ele>4.4</ele>
        <time>2024-05-07T14:35:59Z</time>
      </trkpt>
      <trkpt lat="47.57281" lon="-3.02325">
        <ele>4.2</ele>
        <time>2024-05-07T14:36:00Z</time>
      </trkpt>
      <trkpt lat="47.57281" lon="-3.02326">
        <ele>4.2</ele>
        <time>2024-05-07T14:36:01Z</time>
      </trkpt>
      <trkpt lat="47.57282" lon="-3.02327">
        <ele>4.2</ele>
        <time>2024-05-07T14:36:02Z</time>
      </trkpt>
      <trkpt lat="47.57283" lon="-3.02328">
        <ele>4.2</ele>
        <time>2024-05-07T14:36:03Z</time>
      </trkpt>
      <trkpt lat="47.57284" lon="-3.0233">
        <ele>4</ele>
        <time>2024-05-07T14:36:04Z</time>
      </trkpt>
      <trkpt lat="47.57284" lon="-3.02331">
        <ele>4</ele>
        <time>2024-05-07T14:36:05Z</time>
      </trkpt>
      <trkpt lat="47.57285" lon="-3.02332">
        <ele>4</ele>
        <time>2024-05-07T14:36:06Z</time>
      </trkpt>
      <trkpt lat="47.57286" lon="-3.02333">
        <ele>3.8</ele>
        <time>2024-05-07T14:36:07Z</time>
      </trkpt>
      <trkpt lat="47.57288" lon="-3.02336">
        <ele>3.8</ele>
        <time>2024-05-07T14:36:08Z</time>
      </trkpt>
      <trkpt lat="47.57288" lon="-3.02338">
        <ele>3.8</ele>
        <time>2024-05-07T14:36:09Z</time>
      </trkpt>
      <trkpt lat="47.57289" lon="-3.02339">
        <ele>3.8</ele>
        <time>2024-05-07T14:36:10Z</time>
      </trkpt>
      <trkpt lat="47.57291" lon="-3.0234">
        <ele>3.8</ele>
        <time>2024-05-07T14:36:11Z</time>
      </trkpt>
      <trkpt lat="47.57293" lon="-3.02341">
        <ele>3.8</ele>
        <time>2024-05-07T14:36:12Z</time>
      </trkpt>
      <trkpt lat="47.57294" lon="-3.02342">
        <ele>3.6</ele>
        <time>2024-05-07T14:36:13Z</time>
      </trkpt>
      <trkpt lat="47.57295" lon="-3.02343">
        <ele>3.6</ele>
        <time>2024-05-07T14:36:14Z</time>
      </trkpt>
      <trkpt lat="47.57295" lon="-3.02344">
        <ele>3.6</ele>
        <time>2024-05-07T14:36:15Z</time>
      </trkpt>
      <trkpt lat="47.57295" lon="-3.02346">
        <ele>3.6</ele>
        <time>2024-05-07T14:36:16Z</time>
      </trkpt>
      <trkpt lat="47.57295" lon="-3.02346">
        <ele>3.6</ele>
        <time>2024-05-07T14:36:17Z</time>
      </trkpt>
      <trkpt lat="47.57296" lon="-3.02347">
        <ele>3.6</ele>
        <time>2024-05-07T14:36:18Z</time>
      </trkpt>
      <trkpt lat="47.57297" lon="-3.02348">
        <ele>3.6</ele>
        <time>2024-05-07T14:36:19Z</time>
      </trkpt>
      <trkpt lat="47.57297" lon="-3.02348">
        <ele>3.6</ele>
        <time>2024-05-07T14:36:20Z</time>
      </trkpt>
      <trkpt lat="47.57299" lon="-3.02349">
        <ele>3.6</ele>
        <time>2024-05-07T14:36:21Z</time>
      </trkpt>
      <trkpt lat="47.573" lon="-3.02349">
        <ele>3.6</ele>
        <time>2024-05-07T14:36:22Z</time>
      </trkpt>
      <trkpt lat="47.57302" lon="-3.02349">
        <ele>3.8</ele>
        <time>2024-05-07T14:36:23Z</time>
      </trkpt>
      <trkpt lat="47.57304" lon="-3.0235">
        <ele>3.6</ele>
        <time>2024-05-07T14:36:24Z</time>
      </trkpt>
      <trkpt lat="47.57305" lon="-3.0235">
        <ele>3.6</ele>
        <time>2024-05-07T14:36:25Z</time>
      </trkpt>
      <trkpt lat="47.57306" lon="-3.0235">
        <ele>3.6</ele>
        <time>2024-05-07T14:36:26Z</time>
      </trkpt>
      <trkpt lat="47.57307" lon="-3.02351">
        <ele>3.8</ele>
        <time>2024-05-07T14:36:27Z</time>
      </trkpt>
      <trkpt lat="47.57308" lon="-3.02351">
        <ele>3.8</ele>
        <time>2024-05-07T14:36:28Z</time>
      </trkpt>
      <trkpt lat="47.57308" lon="-3.0235">
        <ele>3.8</ele>
        <time>2024-05-07T14:36:29Z</time>
      </trkpt>
      <trkpt lat="47.57309" lon="-3.0235">
        <ele>3.8</ele>
        <time>2024-05-07T14:36:30Z</time>
      </trkpt>
      <trkpt lat="47.57309" lon="-3.0235">
        <ele>3.6</ele>
        <time>2024-05-07T14:36:31Z</time>
      </trkpt>
      <trkpt lat="47.5731" lon="-3.02349">
        <ele>3.6</ele>
        <time>2024-05-07T14:36:32Z</time>
      </trkpt>
      <trkpt lat="47.5731" lon="-3.02349">
        <ele>3.6</ele>
        <time>2024-05-07T14:36:33Z</time>
      </trkpt>
      <trkpt lat="47.57311" lon="-3.02349">
        <ele>3.6</ele>
        <time>2024-05-07T14:36:34Z</time>
      </trkpt>
      <trkpt lat="47.57311" lon="-3.02348">
        <ele>3.6</ele>
        <time>2024-05-07T14:36:35Z</time>
      </trkpt>
      <trkpt lat="47.57311" lon="-3.02348">
        <ele>3.4</ele>
        <time>2024-05-07T14:36:36Z</time>
      </trkpt>
      <trkpt lat="47.57311" lon="-3.02348">
        <ele>3.4</ele>
        <time>2024-05-07T14:36:37Z</time>
      </trkpt>
      <trkpt lat="47.57311" lon="-3.02348">
        <ele>3.2</ele>
        <time>2024-05-07T14:36:38Z</time>
      </trkpt>
      <trkpt lat="47.57311" lon="-3.02349">
        <ele>3.2</ele>
        <time>2024-05-07T14:36:39Z</time>
      </trkpt>
      <trkpt lat="47.57311" lon="-3.02349">
        <ele>3</ele>
        <time>2024-05-07T14:36:40Z</time>
      </trkpt>
      <trkpt lat="47.57311" lon="-3.02349">
        <ele>3</ele>
        <time>2024-05-07T14:36:41Z</time>
      </trkpt>
      <trkpt lat="47.57312" lon="-3.02349">
        <ele>3</ele>
        <time>2024-05-07T14:36:42Z</time>
      </trkpt>
      <trkpt lat="47.57312" lon="-3.02349">
        <ele>2.8</ele>
        <time>2024-05-07T14:36:43Z</time>
      </trkpt>
      <trkpt lat="47.57312" lon="-3.02349">
        <ele>2.8</ele>
        <time>2024-05-07T14:36:44Z</time>
      </trkpt>
      <trkpt lat="47.57312" lon="-3.02349">
        <ele>2.8</ele>
        <time>2024-05-07T14:36:45Z</time>
      </trkpt>
      <trkpt lat="47.57312" lon="-3.02349">
        <ele>3</ele>
        <time>2024-05-07T14:36:46Z</time>
      </trkpt>
      <trkpt lat="47.57312" lon="-3.02349">
        <ele>3</ele>
        <time>2024-05-07T14:36:47Z</time>
      </trkpt>
      <trkpt lat="47.57312" lon="-3.02349">
        <ele>3</ele>
        <time>2024-05-07T14:36:48Z</time>
      </trkpt>
      <trkpt lat="47.57312" lon="-3.02349">
        <ele>3</ele>
        <time>2024-05-07T14:36:49Z</time>
      </trkpt>
      <trkpt lat="47.57312" lon="-3.02351">
        <ele>3.2</ele>
        <time>2024-05-07T14:36:50Z</time>
      </trkpt>
      <trkpt lat="47.57314" lon="-3.02352">
        <ele>3.2</ele>
        <time>2024-05-07T14:36:51Z</time>
      </trkpt>
      <trkpt lat="47.57315" lon="-3.02353">
        <ele>3.2</ele>
        <time>2024-05-07T14:36:52Z</time>
      </trkpt>
      <trkpt lat="47.57316" lon="-3.02354">
        <ele>3.4</ele>
        <time>2024-05-07T14:36:53Z</time>
      </trkpt>
      <trkpt lat="47.57317" lon="-3.02355">
        <ele>3.4</ele>
        <time>2024-05-07T14:36:54Z</time>
      </trkpt>
      <trkpt lat="47.57319" lon="-3.02356">
        <ele>3.4</ele>
        <time>2024-05-07T14:36:55Z</time>
      </trkpt>
      <trkpt lat="47.5732" lon="-3.02357">
        <ele>3.4</ele>
        <time>2024-05-07T14:36:56Z</time>
      </trkpt>
      <trkpt lat="47.57321" lon="-3.02358">
        <ele>3.4</ele>
        <time>2024-05-07T14:36:57Z</time>
      </trkpt>
      <trkpt lat="47.57323" lon="-3.02358">
        <ele>3.4</ele>
        <time>2024-05-07T14:36:58Z</time>
      </trkpt>
      <trkpt lat="47.57324" lon="-3.02359">
        <ele>3.6</ele>
        <time>2024-05-07T14:36:59Z</time>
      </trkpt>
      <trkpt lat="47.57326" lon="-3.02359">
        <ele>3.6</ele>
        <time>2024-05-07T14:37:00Z</time>
      </trkpt>
      <trkpt lat="47.57327" lon="-3.02359">
        <ele>3.6</ele>
        <time>2024-05-07T14:37:01Z</time>
      </trkpt>
      <trkpt lat="47.57329" lon="-3.02359">
        <ele>3.8</ele>
        <time>2024-05-07T14:37:02Z</time>
      </trkpt>
      <trkpt lat="47.5733" lon="-3.02359">
        <ele>3.8</ele>
        <time>2024-05-07T14:37:03Z</time>
      </trkpt>
      <trkpt lat="47.57331" lon="-3.0236">
        <ele>3.8</ele>
        <time>2024-05-07T14:37:04Z</time>
      </trkpt>
      <trkpt lat="47.57331" lon="-3.02361">
        <ele>3.8</ele>
        <time>2024-05-07T14:37:05Z</time>
      </trkpt>
      <trkpt lat="47.57332" lon="-3.02361">
        <ele>4</ele>
        <time>2024-05-07T14:37:06Z</time>
      </trkpt>
      <trkpt lat="47.57333" lon="-3.02361">
        <ele>4</ele>
        <time>2024-05-07T14:37:07Z</time>
      </trkpt>
      <trkpt lat="47.57335" lon="-3.02361">
        <ele>4</ele>
        <time>2024-05-07T14:37:08Z</time>
      </trkpt>
      <trkpt lat="47.57337" lon="-3.02361">
        <ele>4</ele>
        <time>2024-05-07T14:37:09Z</time>
      </trkpt>
      <trkpt lat="47.57338" lon="-3.02361">
        <ele>4</ele>
        <time>2024-05-07T14:37:10Z</time>
      </trkpt>
      <trkpt lat="47.57339" lon="-3.02361">
        <ele>4</ele>
        <time>2024-05-07T14:37:11Z</time>
      </trkpt>
      <trkpt lat="47.5734" lon="-3.02361">
        <ele>4</ele>
        <time>2024-05-07T14:37:12Z</time>
      </trkpt>
      <trkpt lat="47.57341" lon="-3.02361">
        <ele>4</ele>
        <time>2024-05-07T14:37:13Z</time>
      </trkpt>
      <trkpt lat="47.57343" lon="-3.02361">
        <ele>3.8</ele>
        <time>2024-05-07T14:37:14Z</time>
      </trkpt>
      <trkpt lat="47.57344" lon="-3.02361">
        <ele>3.8</ele>
        <time>2024-05-07T14:37:15Z</time>
      </trkpt>
      <trkpt lat="47.57346" lon="-3.02361">
        <ele>3.8</ele>
        <time>2024-05-07T14:37:16Z</time>
      </trkpt>
      <trkpt lat="47.57347" lon="-3.02361">
        <ele>3.8</ele>
        <time>2024-05-07T14:37:17Z</time>
      </trkpt>
      <trkpt lat="47.57348" lon="-3.0236">
        <ele>3.8</ele>
        <time>2024-05-07T14:37:18Z</time>
      </trkpt>
      <trkpt lat="47.57349" lon="-3.02358">
        <ele>3.8</ele>
        <time>2024-05-07T14:37:19Z</time>
      </trkpt>
      <trkpt lat="47.57349" lon="-3.02357">
        <ele>3.8</ele>
        <time>2024-05-07T14:37:20Z</time>
      </trkpt>
      <trkpt lat="47.5735" lon="-3.02356">
        <ele>3.8</ele>
        <time>2024-05-07T14:37:21Z</time>
      </trkpt>
      <trkpt lat="47.57352" lon="-3.02355">
        <ele>4</ele>
        <time>2024-05-07T14:37:22Z</time>
      </trkpt>
      <trkpt lat="47.57354" lon="-3.02355">
        <ele>4</ele>
        <time>2024-05-07T14:37:23Z</time>
      </trkpt>
      <trkpt lat="47.57355" lon="-3.02354">
        <ele>4.2</ele>
        <time>2024-05-07T14:37:24Z</time>
      </trkpt>
      <trkpt lat="47.57356" lon="-3.02353">
        <ele>4.2</ele>
        <time>2024-05-07T14:37:25Z</time>
      </trkpt>
      <trkpt lat="47.57357" lon="-3.02352">
        <ele>4.2</ele>
        <time>2024-05-07T14:37:26Z</time>
      </trkpt>
      <trkpt lat="47.57358" lon="-3.0235">
        <ele>4.4</ele>
        <time>2024-05-07T14:37:27Z</time>
      </trkpt>
      <trkpt lat="47.57359" lon="-3.0235">
        <ele>4.4</ele>
        <time>2024-05-07T14:37:28Z</time>
      </trkpt>
      <trkpt lat="47.5736" lon="-3.02349">
        <ele>4.6</ele>
        <time>2024-05-07T14:37:29Z</time>
      </trkpt>
      <trkpt lat="47.57362" lon="-3.02349">
        <ele>4.6</ele>
        <time>2024-05-07T14:37:30Z</time>
      </trkpt>
      <trkpt lat="47.57363" lon="-3.02347">
        <ele>4.8</ele>
        <time>2024-05-07T14:37:31Z</time>
      </trkpt>
      <trkpt lat="47.57364" lon="-3.02347">
        <ele>4.8</ele>
        <time>2024-05-07T14:37:32Z</time>
      </trkpt>
      <trkpt lat="47.57365" lon="-3.02347">
        <ele>4.8</ele>
        <time>2024-05-07T14:37:33Z</time>
      </trkpt>
      <trkpt lat="47.57366" lon="-3.02346">
        <ele>4.8</ele>
        <time>2024-05-07T14:37:34Z</time>
      </trkpt>
      <trkpt lat="47.57368" lon="-3.02345">
        <ele>4.8</ele>
        <time>2024-05-07T14:37:35Z</time>
      </trkpt>
      <trkpt lat="47.57369" lon="-3.02345">
        <ele>4.8</ele>
        <time>2024-05-07T14:37:36Z</time>
      </trkpt>
      <trkpt lat="47.57371" lon="-3.02344">
        <ele>4.8</ele>
        <time>2024-05-07T14:37:37Z</time>
      </trkpt>
      <trkpt lat="47.57373" lon="-3.02342">
        <ele>4.6</ele>
        <time>2024-05-07T14:37:38Z</time>
      </trkpt>
      <trkpt lat="47.57375" lon="-3.02341">
        <ele>4.6</ele>
        <time>2024-05-07T14:37:39Z</time>
      </trkpt>
      <trkpt lat="47.57376" lon="-3.02341">
        <ele>4.4</ele>
        <time>2024-05-07T14:37:40Z</time>
      </trkpt>
      <trkpt lat="47.57378" lon="-3.02341">
        <ele>4.2</ele>
        <time>2024-05-07T14:37:41Z</time>
      </trkpt>
      <trkpt lat="47.57379" lon="-3.0234">
        <ele>4.2</ele>
        <time>2024-05-07T14:37:42Z</time>
      </trkpt>
      <trkpt lat="47.5738" lon="-3.02339">
        <ele>4.2</ele>
        <time>2024-05-07T14:37:43Z</time>
      </trkpt>
      <trkpt lat="47.57381" lon="-3.02339">
        <ele>4.2</ele>
        <time>2024-05-07T14:37:44Z</time>
      </trkpt>
      <trkpt lat="47.57382" lon="-3.02338">
        <ele>4</ele>
        <time>2024-05-07T14:37:45Z</time>
      </trkpt>
      <trkpt lat="47.57382" lon="-3.02337">
        <ele>4</ele>
        <time>2024-05-07T14:37:46Z</time>
      </trkpt>
      <trkpt lat="47.57383" lon="-3.02336">
        <ele>4</ele>
        <time>2024-05-07T14:37:47Z</time>
      </trkpt>
      <trkpt lat="47.57384" lon="-3.02335">
        <ele>4</ele>
        <time>2024-05-07T14:37:48Z</time>
      </trkpt>
      <trkpt lat="47.57386" lon="-3.02335">
        <ele>4</ele>
        <time>2024-05-07T14:37:49Z</time>
      </trkpt>
      <trkpt lat="47.57387" lon="-3.02335">
        <ele>4</ele>
        <time>2024-05-07T14:37:50Z</time>
      </trkpt>
      <trkpt lat="47.57388" lon="-3.02335">
        <ele>4</ele>
        <time>2024-05-07T14:37:51Z</time>
      </trkpt>
      <trkpt lat="47.57389" lon="-3.02334">
        <ele>4</ele>
        <time>2024-05-07T14:37:52Z</time>
      </trkpt>
      <trkpt lat="47.5739" lon="-3.02334">
        <ele>4</ele>
        <time>2024-05-07T14:37:53Z</time>
      </trkpt>
      <trkpt lat="47.57391" lon="-3.02333">
        <ele>4</ele>
        <time>2024-05-07T14:37:54Z</time>
      </trkpt>
      <trkpt lat="47.57391" lon="-3.02334">
        <ele>4</ele>
        <time>2024-05-07T14:37:55Z</time>
      </trkpt>
      <trkpt lat="47.57392" lon="-3.02335">
        <ele>4</ele>
        <time>2024-05-07T14:37:56Z</time>
      </trkpt>
      <trkpt lat="47.57393" lon="-3.02335">
        <ele>4</ele>
        <time>2024-05-07T14:37:57Z</time>
      </trkpt>
      <trkpt lat="47.57394" lon="-3.02334">
        <ele>4</ele>
        <time>2024-05-07T14:37:58Z</time>
      </trkpt>
      <trkpt lat="47.57395" lon="-3.02334">
        <ele>4</ele>
        <time>2024-05-07T14:37:59Z</time>
      </trkpt>
      <trkpt lat="47.57397" lon="-3.02334">
        <ele>4</ele>
        <time>2024-05-07T14:38:00Z</time>
      </trkpt>
      <trkpt lat="47.57398" lon="-3.02333">
        <ele>4</ele>
        <time>2024-05-07T14:38:01Z</time>
      </trkpt>
      <trkpt lat="47.574" lon="-3.02333">
        <ele>4</ele>
        <time>2024-05-07T14:38:02Z</time>
      </trkpt>
      <trkpt lat="47.57402" lon="-3.02332">
        <ele>4</ele>
        <time>2024-05-07T14:38:03Z</time>
      </trkpt>
      <trkpt lat="47.57404" lon="-3.02332">
        <ele>4</ele>
        <time>2024-05-07T14:38:04Z</time>
      </trkpt>
      <trkpt lat="47.57405" lon="-3.02331">
        <ele>4</ele>
        <time>2024-05-07T14:38:05Z</time>
      </trkpt>
      <trkpt lat="47.57406" lon="-3.02332">
        <ele>4.2</ele>
        <time>2024-05-07T14:38:06Z</time>
      </trkpt>
      <trkpt lat="47.57408" lon="-3.02332">
        <ele>4.2</ele>
        <time>2024-05-07T14:38:07Z</time>
      </trkpt>
      <trkpt lat="47.57409" lon="-3.02332">
        <ele>4.2</ele>
        <time>2024-05-07T14:38:08Z</time>
      </trkpt>
      <trkpt lat="47.57411" lon="-3.02331">
        <ele>4.2</ele>
        <time>2024-05-07T14:38:09Z</time>
      </trkpt>
      <trkpt lat="47.57412" lon="-3.0233">
        <ele>4.2</ele>
        <time>2024-05-07T14:38:10Z</time>
      </trkpt>
      <trkpt lat="47.57414" lon="-3.02329">
        <ele>4.2</ele>
        <time>2024-05-07T14:38:11Z</time>
      </trkpt>
      <trkpt lat="47.57415" lon="-3.02327">
        <ele>4.2</ele>
        <time>2024-05-07T14:38:12Z</time>
      </trkpt>
      <trkpt lat="47.57416" lon="-3.02326">
        <ele>4.2</ele>
        <time>2024-05-07T14:38:13Z</time>
      </trkpt>
      <trkpt lat="47.57417" lon="-3.02325">
        <ele>4.2</ele>
        <time>2024-05-07T14:38:14Z</time>
      </trkpt>
      <trkpt lat="47.57418" lon="-3.02325">
        <ele>4.2</ele>
        <time>2024-05-07T14:38:15Z</time>
      </trkpt>
      <trkpt lat="47.57419" lon="-3.02323">
        <ele>4.2</ele>
        <time>2024-05-07T14:38:16Z</time>
      </trkpt>
      <trkpt lat="47.5742" lon="-3.02322">
        <ele>4.2</ele>
        <time>2024-05-07T14:38:17Z</time>
      </trkpt>
      <trkpt lat="47.57422" lon="-3.02321">
        <ele>4</ele>
        <time>2024-05-07T14:38:18Z</time>
      </trkpt>
      <trkpt lat="47.57424" lon="-3.0232">
        <ele>4</ele>
        <time>2024-05-07T14:38:19Z</time>
      </trkpt>
      <trkpt lat="47.57425" lon="-3.02319">
        <ele>4</ele>
        <time>2024-05-07T14:38:20Z</time>
      </trkpt>
      <trkpt lat="47.57426" lon="-3.02318">
        <ele>4</ele>
        <time>2024-05-07T14:38:21Z</time>
      </trkpt>
      <trkpt lat="47.57427" lon="-3.02317">
        <ele>4</ele>
        <time>2024-05-07T14:38:22Z</time>
      </trkpt>
      <trkpt lat="47.57428" lon="-3.02316">
        <ele>4</ele>
        <time>2024-05-07T14:38:23Z</time>
      </trkpt>
      <trkpt lat="47.57429" lon="-3.02315">
        <ele>3.8</ele>
        <time>2024-05-07T14:38:24Z</time>
      </trkpt>
      <trkpt lat="47.5743" lon="-3.02314">
        <ele>3.8</ele>
        <time>2024-05-07T14:38:25Z</time>
      </trkpt>
      <trkpt lat="47.57432" lon="-3.02313">
        <ele>3.8</ele>
        <time>2024-05-07T14:38:26Z</time>
      </trkpt>
      <trkpt lat="47.57433" lon="-3.02312">
        <ele>3.8</ele>
        <time>2024-05-07T14:38:27Z</time>
      </trkpt>
      <trkpt lat="47.57435" lon="-3.02311">
        <ele>3.8</ele>
        <time>2024-05-07T14:38:28Z</time>
      </trkpt>
      <trkpt lat="47.57436" lon="-3.0231">
        <ele>3.8</ele>
        <time>2024-05-07T14:38:29Z</time>
      </trkpt>
      <trkpt lat="47.57437" lon="-3.02308">
        <ele>3.8</ele>
        <time>2024-05-07T14:38:30Z</time>
      </trkpt>
      <trkpt lat="47.57438" lon="-3.02308">
        <ele>3.8</ele>
        <time>2024-05-07T14:38:31Z</time>
      </trkpt>
      <trkpt lat="47.57439" lon="-3.02307">
        <ele>4</ele>
        <time>2024-05-07T14:38:32Z</time>
      </trkpt>
      <trkpt lat="47.5744" lon="-3.02306">
        <ele>4</ele>
        <time>2024-05-07T14:38:33Z</time>
      </trkpt>
      <trkpt lat="47.57441" lon="-3.02305">
        <ele>4</ele>
        <time>2024-05-07T14:38:34Z</time>
      </trkpt>
      <trkpt lat="47.57442" lon="-3.02305">
        <ele>4</ele>
        <time>2024-05-07T14:38:35Z</time>
      </trkpt>
      <trkpt lat="47.57443" lon="-3.02305">
        <ele>4</ele>
        <time>2024-05-07T14:38:36Z</time>
      </trkpt>
      <trkpt lat="47.57443" lon="-3.02304">
        <ele>4</ele>
        <time>2024-05-07T14:38:37Z</time>
      </trkpt>
      <trkpt lat="47.57444" lon="-3.02303">
        <ele>4.2</ele>
        <time>2024-05-07T14:38:38Z</time>
      </trkpt>
      <trkpt lat="47.57445" lon="-3.02301">
        <ele>4.2</ele>
        <time>2024-05-07T14:38:39Z</time>
      </trkpt>
      <trkpt lat="47.57446" lon="-3.023">
        <ele>4.2</ele>
        <time>2024-05-07T14:38:40Z</time>
      </trkpt>
      <trkpt lat="47.57447" lon="-3.02299">
        <ele>4</ele>
        <time>2024-05-07T14:38:41Z</time>
      </trkpt>
      <trkpt lat="47.57448" lon="-3.02298">
        <ele>4</ele>
        <time>2024-05-07T14:38:42Z</time>
      </trkpt>
      <trkpt lat="47.57449" lon="-3.02297">
        <ele>3.8</ele>
        <time>2024-05-07T14:38:43Z</time>
      </trkpt>
      <trkpt lat="47.5745" lon="-3.02295">
        <ele>3.8</ele>
        <time>2024-05-07T14:38:44Z</time>
      </trkpt>
      <trkpt lat="47.57451" lon="-3.02294">
        <ele>3.8</ele>
        <time>2024-05-07T14:38:45Z</time>
      </trkpt>
      <trkpt lat="47.57452" lon="-3.02293">
        <ele>3.8</ele>
        <time>2024-05-07T14:38:46Z</time>
      </trkpt>
      <trkpt lat="47.57453" lon="-3.02292">
        <ele>3.8</ele>
        <time>2024-05-07T14:38:47Z</time>
      </trkpt>
      <trkpt lat="47.57454" lon="-3.02291">
        <ele>3.8</ele>
        <time>2024-05-07T14:38:48Z</time>
      </trkpt>
      <trkpt lat="47.57455" lon="-3.02289">
        <ele>3.8</ele>
        <time>2024-05-07T14:38:49Z</time>
      </trkpt>
      <trkpt lat="47.57456" lon="-3.02288">
        <ele>3.8</ele>
        <time>2024-05-07T14:38:50Z</time>
      </trkpt>
      <trkpt lat="47.57457" lon="-3.02287">
        <ele>3.8</ele>
        <time>2024-05-07T14:38:51Z</time>
      </trkpt>
      <trkpt lat="47.57459" lon="-3.02286">
        <ele>3.8</ele>
        <time>2024-05-07T14:38:52Z</time>
      </trkpt>
      <trkpt lat="47.5746" lon="-3.02285">
        <ele>3.8</ele>
        <time>2024-05-07T14:38:53Z</time>
      </trkpt>
      <trkpt lat="47.5746" lon="-3.02285">
        <ele>3.8</ele>
        <time>2024-05-07T14:38:54Z</time>
      </trkpt>
      <trkpt lat="47.57461" lon="-3.02284">
        <ele>4</ele>
        <time>2024-05-07T14:38:55Z</time>
      </trkpt>
      <trkpt lat="47.57461" lon="-3.02282">
        <ele>4</ele>
        <time>2024-05-07T14:38:56Z</time>
      </trkpt>
      <trkpt lat="47.57462" lon="-3.0228">
        <ele>4.2</ele>
        <time>2024-05-07T14:38:57Z</time>
      </trkpt>
      <trkpt lat="47.57463" lon="-3.02278">
        <ele>4.2</ele>
        <time>2024-05-07T14:38:58Z</time>
      </trkpt>
      <trkpt lat="47.57464" lon="-3.02277">
        <ele>4.2</ele>
        <time>2024-05-07T14:38:59Z</time>
      </trkpt>
      <trkpt lat="47.57465" lon="-3.02277">
        <ele>4.2</ele>
        <time>2024-05-07T14:39:00Z</time>
      </trkpt>
      <trkpt lat="47.57467" lon="-3.02276">
        <ele>4.4</ele>
        <time>2024-05-07T14:39:01Z</time>
      </trkpt>
      <trkpt lat="47.57468" lon="-3.02276">
        <ele>4.4</ele>
        <time>2024-05-07T14:39:02Z</time>
      </trkpt>
      <trkpt lat="47.57469" lon="-3.02276">
        <ele>4.4</ele>
        <time>2024-05-07T14:39:03Z</time>
      </trkpt>
      <trkpt lat="47.57471" lon="-3.02275">
        <ele>4.4</ele>
        <time>2024-05-07T14:39:04Z</time>
      </trkpt>
      <trkpt lat="47.57472" lon="-3.02274">
        <ele>4.4</ele>
        <time>2024-05-07T14:39:05Z</time>
      </trkpt>
      <trkpt lat="47.57473" lon="-3.02273">
        <ele>4.4</ele>
        <time>2024-05-07T14:39:06Z</time>
      </trkpt>
      <trkpt lat="47.57473" lon="-3.02272">
        <ele>4.4</ele>
        <time>2024-05-07T14:39:07Z</time>
      </trkpt>
      <trkpt lat="47.57474" lon="-3.02271">
        <ele>4.4</ele>
        <time>2024-05-07T14:39:08Z</time>
      </trkpt>
      <trkpt lat="47.57476" lon="-3.02269">
        <ele>4.4</ele>
        <time>2024-05-07T14:39:09Z</time>
      </trkpt>
      <trkpt lat="47.57477" lon="-3.02267">
        <ele>4.6</ele>
        <time>2024-05-07T14:39:10Z</time>
      </trkpt>
      <trkpt lat="47.57478" lon="-3.02267">
        <ele>4.6</ele>
        <time>2024-05-07T14:39:11Z</time>
      </trkpt>
      <trkpt lat="47.57479" lon="-3.02266">
        <ele>4.6</ele>
        <time>2024-05-07T14:39:12Z</time>
      </trkpt>
      <trkpt lat="47.5748" lon="-3.02264">
        <ele>4.6</ele>
        <time>2024-05-07T14:39:13Z</time>
      </trkpt>
      <trkpt lat="47.57481" lon="-3.02263">
        <ele>4.6</ele>
        <time>2024-05-07T14:39:14Z</time>
      </trkpt>
      <trkpt lat="47.57482" lon="-3.02263">
        <ele>4.6</ele>
        <time>2024-05-07T14:39:15Z</time>
      </trkpt>
      <trkpt lat="47.57483" lon="-3.02262">
        <ele>4.6</ele>
        <time>2024-05-07T14:39:16Z</time>
      </trkpt>
      <trkpt lat="47.57484" lon="-3.02261">
        <ele>4.6</ele>
        <time>2024-05-07T14:39:17Z</time>
      </trkpt>
      <trkpt lat="47.57485" lon="-3.02261">
        <ele>4.6</ele>
        <time>2024-05-07T14:39:18Z</time>
      </trkpt>
      <trkpt lat="47.57486" lon="-3.0226">
        <ele>4.6</ele>
        <time>2024-05-07T14:39:19Z</time>
      </trkpt>
      <trkpt lat="47.57487" lon="-3.02259">
        <ele>4.6</ele>
        <time>2024-05-07T14:39:20Z</time>
      </trkpt>
      <trkpt lat="47.57488" lon="-3.02259">
        <ele>4.6</ele>
        <time>2024-05-07T14:39:21Z</time>
      </trkpt>
      <trkpt lat="47.57489" lon="-3.0226">
        <ele>4.6</ele>
        <time>2024-05-07T14:39:22Z</time>
      </trkpt>
      <trkpt lat="47.5749" lon="-3.0226">
        <ele>4.6</ele>
        <time>2024-05-07T14:39:23Z</time>
      </trkpt>
      <trkpt lat="47.5749" lon="-3.02259">
        <ele>4.6</ele>
        <time>2024-05-07T14:39:24Z</time>
      </trkpt>
      <trkpt lat="47.57491" lon="-3.02258">
        <ele>4.6</ele>
        <time>2024-05-07T14:39:25Z</time>
      </trkpt>
      <trkpt lat="47.57492" lon="-3.02258">
        <ele>4.6</ele>
        <time>2024-05-07T14:39:26Z</time>
      </trkpt>
      <trkpt lat="47.57494" lon="-3.02258">
        <ele>4.6</ele>
        <time>2024-05-07T14:39:27Z</time>
      </trkpt>
      <trkpt lat="47.57495" lon="-3.02258">
        <ele>4.6</ele>
        <time>2024-05-07T14:39:28Z</time>
      </trkpt>
      <trkpt lat="47.57497" lon="-3.02258">
        <ele>4.6</ele>
        <time>2024-05-07T14:39:29Z</time>
      </trkpt>
      <trkpt lat="47.57499" lon="-3.02257">
        <ele>4.8</ele>
        <time>2024-05-07T14:39:30Z</time>
      </trkpt>
      <trkpt lat="47.57499" lon="-3.02256">
        <ele>4.8</ele>
        <time>2024-05-07T14:39:31Z</time>
      </trkpt>
      <trkpt lat="47.57499" lon="-3.02256">
        <ele>4.8</ele>
        <time>2024-05-07T14:39:32Z</time>
      </trkpt>
      <trkpt lat="47.575" lon="-3.02257">
        <ele>4.8</ele>
        <time>2024-05-07T14:39:33Z</time>
      </trkpt>
      <trkpt lat="47.57501" lon="-3.02258">
        <ele>4.8</ele>
        <time>2024-05-07T14:39:34Z</time>
      </trkpt>
      <trkpt lat="47.57502" lon="-3.02259">
        <ele>4.8</ele>
        <time>2024-05-07T14:39:35Z</time>
      </trkpt>
      <trkpt lat="47.57503" lon="-3.02259">
        <ele>4.8</ele>
        <time>2024-05-07T14:39:36Z</time>
      </trkpt>
      <trkpt lat="47.57504" lon="-3.02259">
        <ele>4.8</ele>
        <time>2024-05-07T14:39:37Z</time>
      </trkpt>
      <trkpt lat="47.57504" lon="-3.02259">
        <ele>4.8</ele>
        <time>2024-05-07T14:39:38Z</time>
      </trkpt>
      <trkpt lat="47.57505" lon="-3.0226">
        <ele>4.8</ele>
        <time>2024-05-07T14:39:39Z</time>
      </trkpt>
      <trkpt lat="47.57506" lon="-3.0226">
        <ele>4.8</ele>
        <time>2024-05-07T14:39:40Z</time>
      </trkpt>
      <trkpt lat="47.57507" lon="-3.0226">
        <ele>4.8</ele>
        <time>2024-05-07T14:39:41Z</time>
      </trkpt>
      <trkpt lat="47.57508" lon="-3.0226">
        <ele>4.8</ele>
        <time>2024-05-07T14:39:42Z</time>
      </trkpt>
      <trkpt lat="47.57509" lon="-3.0226">
        <ele>4.8</ele>
        <time>2024-05-07T14:39:43Z</time>
      </trkpt>
      <trkpt lat="47.5751" lon="-3.0226">
        <ele>4.8</ele>
        <time>2024-05-07T14:39:44Z</time>
      </trkpt>
      <trkpt lat="47.57511" lon="-3.0226">
        <ele>4.8</ele>
        <time>2024-05-07T14:39:45Z</time>
      </trkpt>
      <trkpt lat="47.57513" lon="-3.0226">
        <ele>4.8</ele>
        <time>2024-05-07T14:39:46Z</time>
      </trkpt>
      <trkpt lat="47.57514" lon="-3.0226">
        <ele>5</ele>
        <time>2024-05-07T14:39:47Z</time>
      </trkpt>
      <trkpt lat="47.57516" lon="-3.02261">
        <ele>5</ele>
        <time>2024-05-07T14:39:48Z</time>
      </trkpt>
      <trkpt lat="47.57517" lon="-3.02262">
        <ele>5</ele>
        <time>2024-05-07T14:39:49Z</time>
      </trkpt>
      <trkpt lat="47.57517" lon="-3.02262">
        <ele>5</ele>
        <time>2024-05-07T14:39:50Z</time>
      </trkpt>
      <trkpt lat="47.57519" lon="-3.02262">
        <ele>5</ele>
        <time>2024-05-07T14:39:51Z</time>
      </trkpt>
      <trkpt lat="47.5752" lon="-3.02262">
        <ele>5.2</ele>
        <time>2024-05-07T14:39:52Z</time>
      </trkpt>
      <trkpt lat="47.57522" lon="-3.02263">
        <ele>5.2</ele>
        <time>2024-05-07T14:39:53Z</time>
      </trkpt>
      <trkpt lat="47.57524" lon="-3.02263">
        <ele>5.2</ele>
        <time>2024-05-07T14:39:54Z</time>
      </trkpt>
      <trkpt lat="47.57525" lon="-3.02263">
        <ele>5.2</ele>
        <time>2024-05-07T14:39:55Z</time>
      </trkpt>
      <trkpt lat="47.57527" lon="-3.02264">
        <ele>5.2</ele>
        <time>2024-05-07T14:39:56Z</time>
      </trkpt>
      <trkpt lat="47.57528" lon="-3.02264">
        <ele>5.2</ele>
        <time>2024-05-07T14:39:57Z</time>
      </trkpt>
      <trkpt lat="47.57529" lon="-3.02264">
        <ele>5.2</ele>
        <time>2024-05-07T14:39:58Z</time>
      </trkpt>
      <trkpt lat="47.5753" lon="-3.02263">
        <ele>5.2</ele>
        <time>2024-05-07T14:39:59Z</time>
      </trkpt>
      <trkpt lat="47.57531" lon="-3.02263">
        <ele>5.2</ele>
        <time>2024-05-07T14:40:00Z</time>
      </trkpt>
      <trkpt lat="47.57532" lon="-3.02263">
        <ele>5.2</ele>
        <time>2024-05-07T14:40:01Z</time>
      </trkpt>
      <trkpt lat="47.57533" lon="-3.02264">
        <ele>5.2</ele>
        <time>2024-05-07T14:40:02Z</time>
      </trkpt>
      <trkpt lat="47.57535" lon="-3.02264">
        <ele>5.2</ele>
        <time>2024-05-07T14:40:03Z</time>
      </trkpt>
      <trkpt lat="47.57536" lon="-3.02263">
        <ele>5.2</ele>
        <time>2024-05-07T14:40:04Z</time>
      </trkpt>
      <trkpt lat="47.57537" lon="-3.02263">
        <ele>5.2</ele>
        <time>2024-05-07T14:40:05Z</time>
      </trkpt>
      <trkpt lat="47.57539" lon="-3.02262">
        <ele>5.2</ele>
        <time>2024-05-07T14:40:06Z</time>
      </trkpt>
      <trkpt lat="47.5754" lon="-3.02261">
        <ele>5</ele>
        <time>2024-05-07T14:40:07Z</time>
      </trkpt>
      <trkpt lat="47.57541" lon="-3.02261">
        <ele>5.2</ele>
        <time>2024-05-07T14:40:08Z</time>
      </trkpt>
      <trkpt lat="47.57542" lon="-3.02261">
        <ele>5</ele>
        <time>2024-05-07T14:40:09Z</time>
      </trkpt>
      <trkpt lat="47.57544" lon="-3.0226">
        <ele>4.8</ele>
        <time>2024-05-07T14:40:10Z</time>
      </trkpt>
      <trkpt lat="47.57545" lon="-3.0226">
        <ele>4.8</ele>
        <time>2024-05-07T14:40:11Z</time>
      </trkpt>
      <trkpt lat="47.57547" lon="-3.0226">
        <ele>4.6</ele>
        <time>2024-05-07T14:40:12Z</time>
      </trkpt>
      <trkpt lat="47.57547" lon="-3.02261">
        <ele>4.6</ele>
        <time>2024-05-07T14:40:13Z</time>
      </trkpt>
      <trkpt lat="47.57548" lon="-3.02263">
        <ele>4.4</ele>
        <time>2024-05-07T14:40:14Z</time>
      </trkpt>
      <trkpt lat="47.57549" lon="-3.02264">
        <ele>4.4</ele>
        <time>2024-05-07T14:40:15Z</time>
      </trkpt>
      <trkpt lat="47.5755" lon="-3.02265">
        <ele>4.2</ele>
        <time>2024-05-07T14:40:16Z</time>
      </trkpt>
      <trkpt lat="47.57552" lon="-3.02266">
        <ele>4.2</ele>
        <time>2024-05-07T14:40:17Z</time>
      </trkpt>
      <trkpt lat="47.57553" lon="-3.02267">
        <ele>4</ele>
        <time>2024-05-07T14:40:18Z</time>
      </trkpt>
      <trkpt lat="47.57554" lon="-3.02268">
        <ele>3.8</ele>
        <time>2024-05-07T14:40:19Z</time>
      </trkpt>
      <trkpt lat="47.57555" lon="-3.02269">
        <ele>3.4</ele>
        <time>2024-05-07T14:40:20Z</time>
      </trkpt>
      <trkpt lat="47.57556" lon="-3.02271">
        <ele>3.4</ele>
        <time>2024-05-07T14:40:21Z</time>
      </trkpt>
      <trkpt lat="47.57557" lon="-3.02272">
        <ele>3</ele>
        <time>2024-05-07T14:40:22Z</time>
      </trkpt>
      <trkpt lat="47.57558" lon="-3.02273">
        <ele>3</ele>
        <time>2024-05-07T14:40:23Z</time>
      </trkpt>
      <trkpt lat="47.57559" lon="-3.02275">
        <ele>3</ele>
        <time>2024-05-07T14:40:24Z</time>
      </trkpt>
      <trkpt lat="47.5756" lon="-3.02277">
        <ele>2.8</ele>
        <time>2024-05-07T14:40:25Z</time>
      </trkpt>
      <trkpt lat="47.57561" lon="-3.02278">
        <ele>2.8</ele>
        <time>2024-05-07T14:40:26Z</time>
      </trkpt>
      <trkpt lat="47.57562" lon="-3.0228">
        <ele>2.6</ele>
        <time>2024-05-07T14:40:27Z</time>
      </trkpt>
      <trkpt lat="47.57563" lon="-3.0228">
        <ele>2.6</ele>
        <time>2024-05-07T14:40:28Z</time>
      </trkpt>
      <trkpt lat="47.57564" lon="-3.02281">
        <ele>2.6</ele>
        <time>2024-05-07T14:40:29Z</time>
      </trkpt>
      <trkpt lat="47.57564" lon="-3.02282">
        <ele>2.6</ele>
        <time>2024-05-07T14:40:30Z</time>
      </trkpt>
      <trkpt lat="47.57565" lon="-3.02283">
        <ele>2.6</ele>
        <time>2024-05-07T14:40:31Z</time>
      </trkpt>
      <trkpt lat="47.57566" lon="-3.02284">
        <ele>2.6</ele>
        <time>2024-05-07T14:40:32Z</time>
      </trkpt>
      <trkpt lat="47.57567" lon="-3.02286">
        <ele>2.6</ele>
        <time>2024-05-07T14:40:33Z</time>
      </trkpt>
      <trkpt lat="47.57567" lon="-3.02287">
        <ele>2.6</ele>
        <time>2024-05-07T14:40:34Z</time>
      </trkpt>
      <trkpt lat="47.57567" lon="-3.02288">
        <ele>2.6</ele>
        <time>2024-05-07T14:40:35Z</time>
      </trkpt>
      <trkpt lat="47.57567" lon="-3.02289">
        <ele>2.6</ele>
        <time>2024-05-07T14:40:36Z</time>
      </trkpt>
      <trkpt lat="47.57567" lon="-3.02291">
        <ele>2.6</ele>
        <time>2024-05-07T14:40:37Z</time>
      </trkpt>
      <trkpt lat="47.57567" lon="-3.02292">
        <ele>2.6</ele>
        <time>2024-05-07T14:40:38Z</time>
      </trkpt>
      <trkpt lat="47.57567" lon="-3.02294">
        <ele>2.6</ele>
        <time>2024-05-07T14:40:39Z</time>
      </trkpt>
      <trkpt lat="47.57567" lon="-3.02295">
        <ele>2.6</ele>
        <time>2024-05-07T14:40:40Z</time>
      </trkpt>
      <trkpt lat="47.57567" lon="-3.02297">
        <ele>2.6</ele>
        <time>2024-05-07T14:40:41Z</time>
      </trkpt>
      <trkpt lat="47.57568" lon="-3.02298">
        <ele>2.6</ele>
        <time>2024-05-07T14:40:42Z</time>
      </trkpt>
      <trkpt lat="47.57569" lon="-3.023">
        <ele>2.6</ele>
        <time>2024-05-07T14:40:43Z</time>
      </trkpt>
      <trkpt lat="47.5757" lon="-3.02302">
        <ele>2.6</ele>
        <time>2024-05-07T14:40:44Z</time>
      </trkpt>
      <trkpt lat="47.5757" lon="-3.02305">
        <ele>2.6</ele>
        <time>2024-05-07T14:40:45Z</time>
      </trkpt>
      <trkpt lat="47.57571" lon="-3.02307">
        <ele>2.8</ele>
        <time>2024-05-07T14:40:46Z</time>
      </trkpt>
      <trkpt lat="47.57572" lon="-3.02307">
        <ele>3</ele>
        <time>2024-05-07T14:40:47Z</time>
      </trkpt>
      <trkpt lat="47.57573" lon="-3.02309">
        <ele>3</ele>
        <time>2024-05-07T14:40:48Z</time>
      </trkpt>
      <trkpt lat="47.57574" lon="-3.0231">
        <ele>3.2</ele>
        <time>2024-05-07T14:40:49Z</time>
      </trkpt>
      <trkpt lat="47.57575" lon="-3.02311">
        <ele>3.2</ele>
        <time>2024-05-07T14:40:50Z</time>
      </trkpt>
      <trkpt lat="47.57576" lon="-3.02311">
        <ele>3.2</ele>
        <time>2024-05-07T14:40:51Z</time>
      </trkpt>
      <trkpt lat="47.57577" lon="-3.02311">
        <ele>3.4</ele>
        <time>2024-05-07T14:40:52Z</time>
      </trkpt>
      <trkpt lat="47.57578" lon="-3.02312">
        <ele>3.4</ele>
        <time>2024-05-07T14:40:53Z</time>
      </trkpt>
      <trkpt lat="47.5758" lon="-3.02314">
        <ele>3.4</ele>
        <time>2024-05-07T14:40:54Z</time>
      </trkpt>
      <trkpt lat="47.57581" lon="-3.02314">
        <ele>3.6</ele>
        <time>2024-05-07T14:40:55Z</time>
      </trkpt>
      <trkpt lat="47.57582" lon="-3.02313">
        <ele>3.6</ele>
        <time>2024-05-07T14:40:56Z</time>
      </trkpt>
      <trkpt lat="47.57583" lon="-3.02313">
        <ele>3.8</ele>
        <time>2024-05-07T14:40:57Z</time>
      </trkpt>
      <trkpt lat="47.57584" lon="-3.02313">
        <ele>4</ele>
        <time>2024-05-07T14:40:58Z</time>
      </trkpt>
      <trkpt lat="47.57584" lon="-3.02312">
        <ele>4</ele>
        <time>2024-05-07T14:40:59Z</time>
      </trkpt>
      <trkpt lat="47.57584" lon="-3.02311">
        <ele>4.2</ele>
        <time>2024-05-07T14:41:00Z</time>
      </trkpt>
      <trkpt lat="47.57585" lon="-3.02309">
        <ele>4.2</ele>
        <time>2024-05-07T14:41:01Z</time>
      </trkpt>
      <trkpt lat="47.57585" lon="-3.02307">
        <ele>4.2</ele>
        <time>2024-05-07T14:41:02Z</time>
      </trkpt>
      <trkpt lat="47.57588" lon="-3.02308">
        <ele>4.4</ele>
        <time>2024-05-07T14:41:03Z</time>
      </trkpt>
      <trkpt lat="47.57589" lon="-3.02308">
        <ele>4.4</ele>
        <time>2024-05-07T14:41:04Z</time>
      </trkpt>
      <trkpt lat="47.5759" lon="-3.02308">
        <ele>4.4</ele>
        <time>2024-05-07T14:41:05Z</time>
      </trkpt>
      <trkpt lat="47.5759" lon="-3.02309">
        <ele>4.6</ele>
        <time>2024-05-07T14:41:06Z</time>
      </trkpt>
      <trkpt lat="47.5759" lon="-3.02309">
        <ele>4.8</ele>
        <time>2024-05-07T14:41:07Z</time>
      </trkpt>
      <trkpt lat="47.5759" lon="-3.02309">
        <ele>4.8</ele>
        <time>2024-05-07T14:41:08Z</time>
      </trkpt>
      <trkpt lat="47.57591" lon="-3.0231">
        <ele>5</ele>
        <time>2024-05-07T14:41:09Z</time>
      </trkpt>
      <trkpt lat="47.57592" lon="-3.02311">
        <ele>5</ele>
        <time>2024-05-07T14:41:10Z</time>
      </trkpt>
      <trkpt lat="47.57593" lon="-3.02311">
        <ele>5.2</ele>
        <time>2024-05-07T14:41:11Z</time>
      </trkpt>
      <trkpt lat="47.57594" lon="-3.02311">
        <ele>5.2</ele>
        <time>2024-05-07T14:41:12Z</time>
      </trkpt>
      <trkpt lat="47.57596" lon="-3.0231">
        <ele>5.4</ele>
        <time>2024-05-07T14:41:13Z</time>
      </trkpt>
      <trkpt lat="47.57596" lon="-3.02309">
        <ele>5.4</ele>
        <time>2024-05-07T14:41:14Z</time>
      </trkpt>
      <trkpt lat="47.57596" lon="-3.02309">
        <ele>5.4</ele>
        <time>2024-05-07T14:41:15Z</time>
      </trkpt>
      <trkpt lat="47.57597" lon="-3.0231">
        <ele>5.4</ele>
        <time>2024-05-07T14:41:16Z</time>
      </trkpt>
      <trkpt lat="47.57598" lon="-3.02311">
        <ele>5.6</ele>
        <time>2024-05-07T14:41:17Z</time>
      </trkpt>
      <trkpt lat="47.57599" lon="-3.02312">
        <ele>5.8</ele>
        <time>2024-05-07T14:41:18Z</time>
      </trkpt>
      <trkpt lat="47.57601" lon="-3.02312">
        <ele>5.8</ele>
        <time>2024-05-07T14:41:19Z</time>
      </trkpt>
      <trkpt lat="47.57603" lon="-3.02311">
        <ele>5.8</ele>
        <time>2024-05-07T14:41:20Z</time>
      </trkpt>
      <trkpt lat="47.57604" lon="-3.02311">
        <ele>6</ele>
        <time>2024-05-07T14:41:21Z</time>
      </trkpt>
      <trkpt lat="47.57605" lon="-3.02311">
        <ele>6.2</ele>
        <time>2024-05-07T14:41:22Z</time>
      </trkpt>
      <trkpt lat="47.57607" lon="-3.02311">
        <ele>6.4</ele>
        <time>2024-05-07T14:41:23Z</time>
      </trkpt>
      <trkpt lat="47.57608" lon="-3.02311">
        <ele>6.4</ele>
        <time>2024-05-07T14:41:24Z</time>
      </trkpt>
      <trkpt lat="47.5761" lon="-3.0231">
        <ele>6.4</ele>
        <time>2024-05-07T14:41:25Z</time>
      </trkpt>
      <trkpt lat="47.5761" lon="-3.0231">
        <ele>6.6</ele>
        <time>2024-05-07T14:41:26Z</time>
      </trkpt>
      <trkpt lat="47.57611" lon="-3.0231">
        <ele>6.8</ele>
        <time>2024-05-07T14:41:27Z</time>
      </trkpt>
      <trkpt lat="47.57611" lon="-3.0231">
        <ele>6.8</ele>
        <time>2024-05-07T14:41:28Z</time>
      </trkpt>
      <trkpt lat="47.57613" lon="-3.0231">
        <ele>6.8</ele>
        <time>2024-05-07T14:41:29Z</time>
      </trkpt>
      <trkpt lat="47.57614" lon="-3.0231">
        <ele>6.8</ele>
        <time>2024-05-07T14:41:30Z</time>
      </trkpt>
      <trkpt lat="47.57615" lon="-3.0231">
        <ele>6.8</ele>
        <time>2024-05-07T14:41:31Z</time>
      </trkpt>
      <trkpt lat="47.57617" lon="-3.0231">
        <ele>6.8</ele>
        <time>2024-05-07T14:41:32Z</time>
      </trkpt>
      <trkpt lat="47.57618" lon="-3.02312">
        <ele>6.8</ele>
        <time>2024-05-07T14:41:33Z</time>
      </trkpt>
      <trkpt lat="47.57619" lon="-3.02313">
        <ele>7</ele>
        <time>2024-05-07T14:41:34Z</time>
      </trkpt>
      <trkpt lat="47.5762" lon="-3.02315">
        <ele>7.2</ele>
        <time>2024-05-07T14:41:35Z</time>
      </trkpt>
      <trkpt lat="47.57621" lon="-3.02315">
        <ele>7.2</ele>
        <time>2024-05-07T14:41:36Z</time>
      </trkpt>
      <trkpt lat="47.57622" lon="-3.02314">
        <ele>7.4</ele>
        <time>2024-05-07T14:41:37Z</time>
      </trkpt>
      <trkpt lat="47.57623" lon="-3.02314">
        <ele>7.4</ele>
        <time>2024-05-07T14:41:38Z</time>
      </trkpt>
      <trkpt lat="47.57624" lon="-3.02314">
        <ele>7.4</ele>
        <time>2024-05-07T14:41:39Z</time>
      </trkpt>
      <trkpt lat="47.57624" lon="-3.02315">
        <ele>7.4</ele>
        <time>2024-05-07T14:41:40Z</time>
      </trkpt>
      <trkpt lat="47.57624" lon="-3.02315">
        <ele>7.6</ele>
        <time>2024-05-07T14:41:41Z</time>
      </trkpt>
      <trkpt lat="47.57624" lon="-3.02317">
        <ele>7.8</ele>
        <time>2024-05-07T14:41:42Z</time>
      </trkpt>
      <trkpt lat="47.57625" lon="-3.02317">
        <ele>7.8</ele>
        <time>2024-05-07T14:41:43Z</time>
      </trkpt>
      <trkpt lat="47.57625" lon="-3.02318">
        <ele>7.8</ele>
        <time>2024-05-07T14:41:44Z</time>
      </trkpt>
      <trkpt lat="47.57626" lon="-3.02318">
        <ele>8</ele>
        <time>2024-05-07T14:41:45Z</time>
      </trkpt>
      <trkpt lat="47.57627" lon="-3.02319">
        <ele>8</ele>
        <time>2024-05-07T14:41:46Z</time>
      </trkpt>
      <trkpt lat="47.57629" lon="-3.02319">
        <ele>8.2</ele>
        <time>2024-05-07T14:41:47Z</time>
      </trkpt>
      <trkpt lat="47.5763" lon="-3.02319">
        <ele>8.2</ele>
        <time>2024-05-07T14:41:48Z</time>
      </trkpt>
      <trkpt lat="47.57631" lon="-3.02319">
        <ele>8.4</ele>
        <time>2024-05-07T14:41:49Z</time>
      </trkpt>
      <trkpt lat="47.57633" lon="-3.02319">
        <ele>8.4</ele>
        <time>2024-05-07T14:41:50Z</time>
      </trkpt>
      <trkpt lat="47.57634" lon="-3.02318">
        <ele>8.4</ele>
        <time>2024-05-07T14:41:51Z</time>
      </trkpt>
      <trkpt lat="47.57636" lon="-3.02318">
        <ele>8.4</ele>
        <time>2024-05-07T14:41:52Z</time>
      </trkpt>
      <trkpt lat="47.57637" lon="-3.02319">
        <ele>8.6</ele>
        <time>2024-05-07T14:41:53Z</time>
      </trkpt>
      <trkpt lat="47.57639" lon="-3.02319">
        <ele>8.6</ele>
        <time>2024-05-07T14:41:54Z</time>
      </trkpt>
      <trkpt lat="47.5764" lon="-3.02319">
        <ele>8.6</ele>
        <time>2024-05-07T14:41:55Z</time>
      </trkpt>
      <trkpt lat="47.57642" lon="-3.0232">
        <ele>8.6</ele>
        <time>2024-05-07T14:41:56Z</time>
      </trkpt>
      <trkpt lat="47.57644" lon="-3.02321">
        <ele>8.6</ele>
        <time>2024-05-07T14:41:57Z</time>
      </trkpt>
      <trkpt lat="47.57646" lon="-3.02321">
        <ele>8.6</ele>
        <time>2024-05-07T14:41:58Z</time>
      </trkpt>
      <trkpt lat="47.57647" lon="-3.02321">
        <ele>8.6</ele>
        <time>2024-05-07T14:41:59Z</time>
      </trkpt>
      <trkpt lat="47.57648" lon="-3.02321">
        <ele>8.6</ele>
        <time>2024-05-07T14:42:00Z</time>
      </trkpt>
      <trkpt lat="47.57648" lon="-3.02321">
        <ele>8.6</ele>
        <time>2024-05-07T14:42:01Z</time>
      </trkpt>
      <trkpt lat="47.57649" lon="-3.02321">
        <ele>8.6</ele>
        <time>2024-05-07T14:42:02Z</time>
      </trkpt>
      <trkpt lat="47.57651" lon="-3.02321">
        <ele>8.6</ele>
        <time>2024-05-07T14:42:03Z</time>
      </trkpt>
      <trkpt lat="47.57651" lon="-3.02321">
        <ele>8.6</ele>
        <time>2024-05-07T14:42:04Z</time>
      </trkpt>
      <trkpt lat="47.57652" lon="-3.02321">
        <ele>8.6</ele>
        <time>2024-05-07T14:42:05Z</time>
      </trkpt>
      <trkpt lat="47.57653" lon="-3.02321">
        <ele>8.6</ele>
        <time>2024-05-07T14:42:06Z</time>
      </trkpt>
      <trkpt lat="47.57654" lon="-3.02321">
        <ele>8.6</ele>
        <time>2024-05-07T14:42:07Z</time>
      </trkpt>
      <trkpt lat="47.57655" lon="-3.02322">
        <ele>8.6</ele>
        <time>2024-05-07T14:42:08Z</time>
      </trkpt>
      <trkpt lat="47.57656" lon="-3.02323">
        <ele>8.6</ele>
        <time>2024-05-07T14:42:09Z</time>
      </trkpt>
      <trkpt lat="47.57656" lon="-3.02323">
        <ele>8.6</ele>
        <time>2024-05-07T14:42:10Z</time>
      </trkpt>
      <trkpt lat="47.57656" lon="-3.02323">
        <ele>8.4</ele>
        <time>2024-05-07T14:42:11Z</time>
      </trkpt>
      <trkpt lat="47.57657" lon="-3.02323">
        <ele>8.4</ele>
        <time>2024-05-07T14:42:12Z</time>
      </trkpt>
      <trkpt lat="47.57659" lon="-3.02324">
        <ele>8.4</ele>
        <time>2024-05-07T14:42:13Z</time>
      </trkpt>
      <trkpt lat="47.5766" lon="-3.02325">
        <ele>8.4</ele>
        <time>2024-05-07T14:42:14Z</time>
      </trkpt>
      <trkpt lat="47.57661" lon="-3.02324">
        <ele>8.4</ele>
        <time>2024-05-07T14:42:15Z</time>
      </trkpt>
      <trkpt lat="47.57661" lon="-3.02324">
        <ele>8.4</ele>
        <time>2024-05-07T14:42:16Z</time>
      </trkpt>
      <trkpt lat="47.57662" lon="-3.02324">
        <ele>8.4</ele>
        <time>2024-05-07T14:42:17Z</time>
      </trkpt>
      <trkpt lat="47.57663" lon="-3.02325">
        <ele>8.4</ele>
        <time>2024-05-07T14:42:18Z</time>
      </trkpt>
      <trkpt lat="47.57663" lon="-3.02324">
        <ele>8.4</ele>
        <time>2024-05-07T14:42:19Z</time>
      </trkpt>
      <trkpt lat="47.57663" lon="-3.02325">
        <ele>8.4</ele>
        <time>2024-05-07T14:42:20Z</time>
      </trkpt>
      <trkpt lat="47.57664" lon="-3.02325">
        <ele>8.4</ele>
        <time>2024-05-07T14:42:21Z</time>
      </trkpt>
      <trkpt lat="47.57666" lon="-3.02327">
        <ele>8.4</ele>
        <time>2024-05-07T14:42:22Z</time>
      </trkpt>
      <trkpt lat="47.57668" lon="-3.02328">
        <ele>8.4</ele>
        <time>2024-05-07T14:42:23Z</time>
      </trkpt>
      <trkpt lat="47.57669" lon="-3.02329">
        <ele>8.4</ele>
        <time>2024-05-07T14:42:24Z</time>
      </trkpt>
      <trkpt lat="47.57672" lon="-3.02331">
        <ele>8.4</ele>
        <time>2024-05-07T14:42:25Z</time>
      </trkpt>
      <trkpt lat="47.57675" lon="-3.02331">
        <ele>8.4</ele>
        <time>2024-05-07T14:42:26Z</time>
      </trkpt>
      <trkpt lat="47.57676" lon="-3.02331">
        <ele>8.4</ele>
        <time>2024-05-07T14:42:27Z</time>
      </trkpt>
      <trkpt lat="47.57678" lon="-3.02332">
        <ele>8.6</ele>
        <time>2024-05-07T14:42:28Z</time>
      </trkpt>
      <trkpt lat="47.57679" lon="-3.02332">
        <ele>8.6</ele>
        <time>2024-05-07T14:42:29Z</time>
      </trkpt>
      <trkpt lat="47.57679" lon="-3.02333">
        <ele>8.6</ele>
        <time>2024-05-07T14:42:30Z</time>
      </trkpt>
      <trkpt lat="47.5768" lon="-3.02333">
        <ele>8.6</ele>
        <time>2024-05-07T14:42:31Z</time>
      </trkpt>
      <trkpt lat="47.5768" lon="-3.02333">
        <ele>8.6</ele>
        <time>2024-05-07T14:42:32Z</time>
      </trkpt>
      <trkpt lat="47.57681" lon="-3.02332">
        <ele>8.6</ele>
        <time>2024-05-07T14:42:33Z</time>
      </trkpt>
      <trkpt lat="47.57681" lon="-3.02332">
        <ele>8.6</ele>
        <time>2024-05-07T14:42:34Z</time>
      </trkpt>
      <trkpt lat="47.57682" lon="-3.02331">
        <ele>8.6</ele>
        <time>2024-05-07T14:42:35Z</time>
      </trkpt>
      <trkpt lat="47.57684" lon="-3.0233">
        <ele>8.6</ele>
        <time>2024-05-07T14:42:36Z</time>
      </trkpt>
      <trkpt lat="47.57685" lon="-3.0233">
        <ele>8.6</ele>
        <time>2024-05-07T14:42:37Z</time>
      </trkpt>
      <trkpt lat="47.57687" lon="-3.02328">
        <ele>8.6</ele>
        <time>2024-05-07T14:42:38Z</time>
      </trkpt>
      <trkpt lat="47.57688" lon="-3.02328">
        <ele>8.6</ele>
        <time>2024-05-07T14:42:39Z</time>
      </trkpt>
      <trkpt lat="47.57689" lon="-3.02327">
        <ele>8.6</ele>
        <time>2024-05-07T14:42:40Z</time>
      </trkpt>
      <trkpt lat="47.5769" lon="-3.02327">
        <ele>8.4</ele>
        <time>2024-05-07T14:42:41Z</time>
      </trkpt>
      <trkpt lat="47.57691" lon="-3.02327">
        <ele>8.2</ele>
        <time>2024-05-07T14:42:42Z</time>
      </trkpt>
      <trkpt lat="47.57692" lon="-3.02328">
        <ele>8.2</ele>
        <time>2024-05-07T14:42:43Z</time>
      </trkpt>
      <trkpt lat="47.57693" lon="-3.02328">
        <ele>8.2</ele>
        <time>2024-05-07T14:42:44Z</time>
      </trkpt>
      <trkpt lat="47.57694" lon="-3.02329">
        <ele>8</ele>
        <time>2024-05-07T14:42:45Z</time>
      </trkpt>
      <trkpt lat="47.57694" lon="-3.0233">
        <ele>8</ele>
        <time>2024-05-07T14:42:46Z</time>
      </trkpt>
      <trkpt lat="47.57696" lon="-3.0233">
        <ele>7.8</ele>
        <time>2024-05-07T14:42:47Z</time>
      </trkpt>
      <trkpt lat="47.57697" lon="-3.02331">
        <ele>7.6</ele>
        <time>2024-05-07T14:42:48Z</time>
      </trkpt>
      <trkpt lat="47.57699" lon="-3.02331">
        <ele>7.6</ele>
        <time>2024-05-07T14:42:49Z</time>
      </trkpt>
      <trkpt lat="47.57701" lon="-3.02331">
        <ele>7.4</ele>
        <time>2024-05-07T14:42:50Z</time>
      </trkpt>
      <trkpt lat="47.57702" lon="-3.02331">
        <ele>7.4</ele>
        <time>2024-05-07T14:42:51Z</time>
      </trkpt>
      <trkpt lat="47.57702" lon="-3.02331">
        <ele>7.2</ele>
        <time>2024-05-07T14:42:52Z</time>
      </trkpt>
      <trkpt lat="47.57703" lon="-3.02332">
        <ele>7</ele>
        <time>2024-05-07T14:42:53Z</time>
      </trkpt>
      <trkpt lat="47.57703" lon="-3.02332">
        <ele>7</ele>
        <time>2024-05-07T14:42:54Z</time>
      </trkpt>
      <trkpt lat="47.57703" lon="-3.02332">
        <ele>6.8</ele>
        <time>2024-05-07T14:42:55Z</time>
      </trkpt>
      <trkpt lat="47.57705" lon="-3.02332">
        <ele>6.8</ele>
        <time>2024-05-07T14:42:56Z</time>
      </trkpt>
      <trkpt lat="47.57706" lon="-3.02332">
        <ele>6.6</ele>
        <time>2024-05-07T14:42:57Z</time>
      </trkpt>
      <trkpt lat="47.57707" lon="-3.02332">
        <ele>6.4</ele>
        <time>2024-05-07T14:42:58Z</time>
      </trkpt>
      <trkpt lat="47.57708" lon="-3.02332">
        <ele>6.4</ele>
        <time>2024-05-07T14:42:59Z</time>
      </trkpt>
      <trkpt lat="47.57708" lon="-3.02332">
        <ele>6.2</ele>
        <time>2024-05-07T14:43:00Z</time>
      </trkpt>
      <trkpt lat="47.57709" lon="-3.02331">
        <ele>6.2</ele>
        <time>2024-05-07T14:43:01Z</time>
      </trkpt>
      <trkpt lat="47.5771" lon="-3.0233">
        <ele>6.2</ele>
        <time>2024-05-07T14:43:02Z</time>
      </trkpt>
      <trkpt lat="47.57712" lon="-3.0233">
        <ele>6.2</ele>
        <time>2024-05-07T14:43:03Z</time>
      </trkpt>
      <trkpt lat="47.57714" lon="-3.0233">
        <ele>5.8</ele>
        <time>2024-05-07T14:43:04Z</time>
      </trkpt>
      <trkpt lat="47.57715" lon="-3.0233">
        <ele>5.8</ele>
        <time>2024-05-07T14:43:05Z</time>
      </trkpt>
      <trkpt lat="47.57716" lon="-3.0233">
        <ele>5.6</ele>
        <time>2024-05-07T14:43:06Z</time>
      </trkpt>
      <trkpt lat="47.57718" lon="-3.0233">
        <ele>5.4</ele>
        <time>2024-05-07T14:43:07Z</time>
      </trkpt>
      <trkpt lat="47.57719" lon="-3.02329">
        <ele>5.2</ele>
        <time>2024-05-07T14:43:08Z</time>
      </trkpt>
      <trkpt lat="47.57721" lon="-3.02328">
        <ele>5</ele>
        <time>2024-05-07T14:43:09Z</time>
      </trkpt>
      <trkpt lat="47.57723" lon="-3.02327">
        <ele>5</ele>
        <time>2024-05-07T14:43:10Z</time>
      </trkpt>
      <trkpt lat="47.57724" lon="-3.02326">
        <ele>4.8</ele>
        <time>2024-05-07T14:43:11Z</time>
      </trkpt>
      <trkpt lat="47.57725" lon="-3.02326">
        <ele>4.8</ele>
        <time>2024-05-07T14:43:12Z</time>
      </trkpt>
      <trkpt lat="47.57727" lon="-3.02326">
        <ele>4.8</ele>
        <time>2024-05-07T14:43:13Z</time>
      </trkpt>
      <trkpt lat="47.57728" lon="-3.02327">
        <ele>4.6</ele>
        <time>2024-05-07T14:43:14Z</time>
      </trkpt>
      <trkpt lat="47.5773" lon="-3.02327">
        <ele>4.6</ele>
        <time>2024-05-07T14:43:15Z</time>
      </trkpt>
      <trkpt lat="47.57732" lon="-3.02327">
        <ele>4.6</ele>
        <time>2024-05-07T14:43:16Z</time>
      </trkpt>
      <trkpt lat="47.57732" lon="-3.02328">
        <ele>4.6</ele>
        <time>2024-05-07T14:43:17Z</time>
      </trkpt>
      <trkpt lat="47.57733" lon="-3.02329">
        <ele>4.4</ele>
        <time>2024-05-07T14:43:18Z</time>
      </trkpt>
      <trkpt lat="47.57734" lon="-3.0233">
        <ele>4.4</ele>
        <time>2024-05-07T14:43:19Z</time>
      </trkpt>
      <trkpt lat="47.57736" lon="-3.02331">
        <ele>4.4</ele>
        <time>2024-05-07T14:43:20Z</time>
      </trkpt>
      <trkpt lat="47.57737" lon="-3.02332">
        <ele>4.4</ele>
        <time>2024-05-07T14:43:21Z</time>
      </trkpt>
      <trkpt lat="47.57738" lon="-3.02333">
        <ele>4.4</ele>
        <time>2024-05-07T14:43:22Z</time>
      </trkpt>
      <trkpt lat="47.5774" lon="-3.02334">
        <ele>4.4</ele>
        <time>2024-05-07T14:43:23Z</time>
      </trkpt>
      <trkpt lat="47.57741" lon="-3.02335">
        <ele>4.4</ele>
        <time>2024-05-07T14:43:24Z</time>
      </trkpt>
      <trkpt lat="47.57743" lon="-3.02336">
        <ele>4.4</ele>
        <time>2024-05-07T14:43:25Z</time>
      </trkpt>
      <trkpt lat="47.57745" lon="-3.02337">
        <ele>4.4</ele>
        <time>2024-05-07T14:43:26Z</time>
      </trkpt>
      <trkpt lat="47.57746" lon="-3.02337">
        <ele>4.4</ele>
        <time>2024-05-07T14:43:27Z</time>
      </trkpt>
      <trkpt lat="47.57748" lon="-3.02337">
        <ele>4.4</ele>
        <time>2024-05-07T14:43:28Z</time>
      </trkpt>
      <trkpt lat="47.5775" lon="-3.02337">
        <ele>4.4</ele>
        <time>2024-05-07T14:43:29Z</time>
      </trkpt>
      <trkpt lat="47.5775" lon="-3.02337">
        <ele>4.4</ele>
        <time>2024-05-07T14:43:30Z</time>
      </trkpt>
      <trkpt lat="47.57751" lon="-3.02336">
        <ele>4.4</ele>
        <time>2024-05-07T14:43:31Z</time>
      </trkpt>
      <trkpt lat="47.57752" lon="-3.02337">
        <ele>4.6</ele>
        <time>2024-05-07T14:43:32Z</time>
      </trkpt>
      <trkpt lat="47.57752" lon="-3.02337">
        <ele>4.6</ele>
        <time>2024-05-07T14:43:33Z</time>
      </trkpt>
      <trkpt lat="47.57753" lon="-3.02337">
        <ele>4.6</ele>
        <time>2024-05-07T14:43:34Z</time>
      </trkpt>
      <trkpt lat="47.57754" lon="-3.02336">
        <ele>4.8</ele>
        <time>2024-05-07T14:43:35Z</time>
      </trkpt>
      <trkpt lat="47.57755" lon="-3.02335">
        <ele>5</ele>
        <time>2024-05-07T14:43:36Z</time>
      </trkpt>
      <trkpt lat="47.57756" lon="-3.02334">
        <ele>5</ele>
        <time>2024-05-07T14:43:37Z</time>
      </trkpt>
      <trkpt lat="47.57757" lon="-3.02334">
        <ele>5</ele>
        <time>2024-05-07T14:43:38Z</time>
      </trkpt>
      <trkpt lat="47.57758" lon="-3.02333">
        <ele>5</ele>
        <time>2024-05-07T14:43:39Z</time>
      </trkpt>
      <trkpt lat="47.57759" lon="-3.02333">
        <ele>5.2</ele>
        <time>2024-05-07T14:43:40Z</time>
      </trkpt>
      <trkpt lat="47.5776" lon="-3.02333">
        <ele>5.2</ele>
        <time>2024-05-07T14:43:41Z</time>
      </trkpt>
      <trkpt lat="47.57761" lon="-3.02332">
        <ele>5</ele>
        <time>2024-05-07T14:43:42Z</time>
      </trkpt>
      <trkpt lat="47.57762" lon="-3.02332">
        <ele>5</ele>
        <time>2024-05-07T14:43:43Z</time>
      </trkpt>
      <trkpt lat="47.57763" lon="-3.02332">
        <ele>5.2</ele>
        <time>2024-05-07T14:43:44Z</time>
      </trkpt>
      <trkpt lat="47.57765" lon="-3.02332">
        <ele>5.2</ele>
        <time>2024-05-07T14:43:45Z</time>
      </trkpt>
      <trkpt lat="47.57766" lon="-3.02331">
        <ele>5</ele>
        <time>2024-05-07T14:43:46Z</time>
      </trkpt>
      <trkpt lat="47.57768" lon="-3.0233">
        <ele>5</ele>
        <time>2024-05-07T14:43:47Z</time>
      </trkpt>
      <trkpt lat="47.5777" lon="-3.02329">
        <ele>5</ele>
        <time>2024-05-07T14:43:48Z</time>
      </trkpt>
      <trkpt lat="47.57771" lon="-3.02329">
        <ele>5.2</ele>
        <time>2024-05-07T14:43:49Z</time>
      </trkpt>
      <trkpt lat="47.57772" lon="-3.02329">
        <ele>5.2</ele>
        <time>2024-05-07T14:43:50Z</time>
      </trkpt>
      <trkpt lat="47.57772" lon="-3.02329">
        <ele>5.2</ele>
        <time>2024-05-07T14:43:51Z</time>
      </trkpt>
      <trkpt lat="47.57773" lon="-3.02329">
        <ele>5.2</ele>
        <time>2024-05-07T14:43:52Z</time>
      </trkpt>
      <trkpt lat="47.57773" lon="-3.02329">
        <ele>5.4</ele>
        <time>2024-05-07T14:43:53Z</time>
      </trkpt>
      <trkpt lat="47.57775" lon="-3.0233">
        <ele>5.6</ele>
        <time>2024-05-07T14:43:54Z</time>
      </trkpt>
      <trkpt lat="47.57776" lon="-3.0233">
        <ele>5.8</ele>
        <time>2024-05-07T14:43:55Z</time>
      </trkpt>
      <trkpt lat="47.57779" lon="-3.02331">
        <ele>5.8</ele>
        <time>2024-05-07T14:43:56Z</time>
      </trkpt>
      <trkpt lat="47.5778" lon="-3.02332">
        <ele>6</ele>
        <time>2024-05-07T14:43:57Z</time>
      </trkpt>
      <trkpt lat="47.57781" lon="-3.02332">
        <ele>6</ele>
        <time>2024-05-07T14:43:58Z</time>
      </trkpt>
      <trkpt lat="47.57782" lon="-3.02332">
        <ele>6</ele>
        <time>2024-05-07T14:43:59Z</time>
      </trkpt>
      <trkpt lat="47.57782" lon="-3.02332">
        <ele>6</ele>
        <time>2024-05-07T14:44:00Z</time>
      </trkpt>
      <trkpt lat="47.57783" lon="-3.02332">
        <ele>6</ele>
        <time>2024-05-07T14:44:01Z</time>
      </trkpt>
      <trkpt lat="47.57784" lon="-3.02332">
        <ele>6.2</ele>
        <time>2024-05-07T14:44:02Z</time>
      </trkpt>
      <trkpt lat="47.57785" lon="-3.02331">
        <ele>6.2</ele>
        <time>2024-05-07T14:44:03Z</time>
      </trkpt>
      <trkpt lat="47.57787" lon="-3.02329">
        <ele>6.4</ele>
        <time>2024-05-07T14:44:04Z</time>
      </trkpt>
      <trkpt lat="47.57788" lon="-3.02329">
        <ele>6.6</ele>
        <time>2024-05-07T14:44:05Z</time>
      </trkpt>
      <trkpt lat="47.57789" lon="-3.02328">
        <ele>6.8</ele>
        <time>2024-05-07T14:44:06Z</time>
      </trkpt>
      <trkpt lat="47.5779" lon="-3.02329">
        <ele>6.8</ele>
        <time>2024-05-07T14:44:07Z</time>
      </trkpt>
      <trkpt lat="47.57792" lon="-3.02328">
        <ele>6.8</ele>
        <time>2024-05-07T14:44:08Z</time>
      </trkpt>
      <trkpt lat="47.57793" lon="-3.02329">
        <ele>7</ele>
        <time>2024-05-07T14:44:09Z</time>
      </trkpt>
      <trkpt lat="47.57794" lon="-3.02328">
        <ele>7</ele>
        <time>2024-05-07T14:44:10Z</time>
      </trkpt>
      <trkpt lat="47.57796" lon="-3.02328">
        <ele>7</ele>
        <time>2024-05-07T14:44:11Z</time>
      </trkpt>
      <trkpt lat="47.57797" lon="-3.02327">
        <ele>7.2</ele>
        <time>2024-05-07T14:44:12Z</time>
      </trkpt>
      <trkpt lat="47.57798" lon="-3.02326">
        <ele>7.2</ele>
        <time>2024-05-07T14:44:13Z</time>
      </trkpt>
      <trkpt lat="47.57798" lon="-3.02325">
        <ele>7.2</ele>
        <time>2024-05-07T14:44:14Z</time>
      </trkpt>
      <trkpt lat="47.57799" lon="-3.02323">
        <ele>7.2</ele>
        <time>2024-05-07T14:44:15Z</time>
      </trkpt>
      <trkpt lat="47.578" lon="-3.02323">
        <ele>7.2</ele>
        <time>2024-05-07T14:44:16Z</time>
      </trkpt>
      <trkpt lat="47.57801" lon="-3.02323">
        <ele>7.2</ele>
        <time>2024-05-07T14:44:17Z</time>
      </trkpt>
      <trkpt lat="47.57803" lon="-3.02323">
        <ele>7.2</ele>
        <time>2024-05-07T14:44:18Z</time>
      </trkpt>
      <trkpt lat="47.57804" lon="-3.02322">
        <ele>7.2</ele>
        <time>2024-05-07T14:44:19Z</time>
      </trkpt>
      <trkpt lat="47.57805" lon="-3.0232">
        <ele>7.2</ele>
        <time>2024-05-07T14:44:20Z</time>
      </trkpt>
      <trkpt lat="47.57806" lon="-3.02319">
        <ele>7.2</ele>
        <time>2024-05-07T14:44:21Z</time>
      </trkpt>
      <trkpt lat="47.57807" lon="-3.02318">
        <ele>7.2</ele>
        <time>2024-05-07T14:44:22Z</time>
      </trkpt>
      <trkpt lat="47.57808" lon="-3.02317">
        <ele>7.2</ele>
        <time>2024-05-07T14:44:23Z</time>
      </trkpt>
      <trkpt lat="47.57809" lon="-3.02317">
        <ele>7.2</ele>
        <time>2024-05-07T14:44:24Z</time>
      </trkpt>
      <trkpt lat="47.5781" lon="-3.02316">
        <ele>7.2</ele>
        <time>2024-05-07T14:44:25Z</time>
      </trkpt>
      <trkpt lat="47.57811" lon="-3.02316">
        <ele>7.2</ele>
        <time>2024-05-07T14:44:26Z</time>
      </trkpt>
      <trkpt lat="47.57811" lon="-3.02315">
        <ele>7.2</ele>
        <time>2024-05-07T14:44:27Z</time>
      </trkpt>
      <trkpt lat="47.57813" lon="-3.02314">
        <ele>7</ele>
        <time>2024-05-07T14:44:28Z</time>
      </trkpt>
      <trkpt lat="47.57815" lon="-3.02313">
        <ele>7</ele>
        <time>2024-05-07T14:44:29Z</time>
      </trkpt>
      <trkpt lat="47.57816" lon="-3.02312">
        <ele>7</ele>
        <time>2024-05-07T14:44:30Z</time>
      </trkpt>
      <trkpt lat="47.57817" lon="-3.02311">
        <ele>7</ele>
        <time>2024-05-07T14:44:31Z</time>
      </trkpt>
      <trkpt lat="47.57818" lon="-3.0231">
        <ele>7</ele>
        <time>2024-05-07T14:44:32Z</time>
      </trkpt>
      <trkpt lat="47.57819" lon="-3.02307">
        <ele>7</ele>
        <time>2024-05-07T14:44:33Z</time>
      </trkpt>
      <trkpt lat="47.57819" lon="-3.02307">
        <ele>6.8</ele>
        <time>2024-05-07T14:44:34Z</time>
      </trkpt>
      <trkpt lat="47.57819" lon="-3.02308">
        <ele>6.8</ele>
        <time>2024-05-07T14:44:35Z</time>
      </trkpt>
      <trkpt lat="47.5782" lon="-3.02307">
        <ele>6.6</ele>
        <time>2024-05-07T14:44:36Z</time>
      </trkpt>
      <trkpt lat="47.5782" lon="-3.02307">
        <ele>6.6</ele>
        <time>2024-05-07T14:44:37Z</time>
      </trkpt>
      <trkpt lat="47.5782" lon="-3.02307">
        <ele>6.4</ele>
        <time>2024-05-07T14:44:38Z</time>
      </trkpt>
      <trkpt lat="47.57821" lon="-3.02307">
        <ele>6.4</ele>
        <time>2024-05-07T14:44:39Z</time>
      </trkpt>
      <trkpt lat="47.57822" lon="-3.02308">
        <ele>6.4</ele>
        <time>2024-05-07T14:44:40Z</time>
      </trkpt>
      <trkpt lat="47.57824" lon="-3.02309">
        <ele>6.4</ele>
        <time>2024-05-07T14:44:41Z</time>
      </trkpt>
      <trkpt lat="47.57825" lon="-3.0231">
        <ele>6.2</ele>
        <time>2024-05-07T14:44:42Z</time>
      </trkpt>
      <trkpt lat="47.57826" lon="-3.0231">
        <ele>6.2</ele>
        <time>2024-05-07T14:44:43Z</time>
      </trkpt>
      <trkpt lat="47.57827" lon="-3.0231">
        <ele>6.2</ele>
        <time>2024-05-07T14:44:44Z</time>
      </trkpt>
      <trkpt lat="47.57829" lon="-3.02308">
        <ele>6.2</ele>
        <time>2024-05-07T14:44:45Z</time>
      </trkpt>
      <trkpt lat="47.5783" lon="-3.02307">
        <ele>6.2</ele>
        <time>2024-05-07T14:44:46Z</time>
      </trkpt>
      <trkpt lat="47.57832" lon="-3.02307">
        <ele>6.2</ele>
        <time>2024-05-07T14:44:47Z</time>
      </trkpt>
      <trkpt lat="47.57833" lon="-3.02306">
        <ele>6.2</ele>
        <time>2024-05-07T14:44:48Z</time>
      </trkpt>
      <trkpt lat="47.57834" lon="-3.02304">
        <ele>6</ele>
        <time>2024-05-07T14:44:49Z</time>
      </trkpt>
      <trkpt lat="47.57837" lon="-3.02301">
        <ele>6</ele>
        <time>2024-05-07T14:44:50Z</time>
      </trkpt>
      <trkpt lat="47.57838" lon="-3.02298">
        <ele>5.8</ele>
        <time>2024-05-07T14:44:51Z</time>
      </trkpt>
      <trkpt lat="47.57839" lon="-3.02296">
        <ele>5.8</ele>
        <time>2024-05-07T14:44:52Z</time>
      </trkpt>
      <trkpt lat="47.57841" lon="-3.02294">
        <ele>5.6</ele>
        <time>2024-05-07T14:44:53Z</time>
      </trkpt>
      <trkpt lat="47.57843" lon="-3.02292">
        <ele>5.6</ele>
        <time>2024-05-07T14:44:54Z</time>
      </trkpt>
      <trkpt lat="47.57844" lon="-3.02289">
        <ele>5.4</ele>
        <time>2024-05-07T14:44:55Z</time>
      </trkpt>
      <trkpt lat="47.57844" lon="-3.02287">
        <ele>5.4</ele>
        <time>2024-05-07T14:44:56Z</time>
      </trkpt>
      <trkpt lat="47.57846" lon="-3.02284">
        <ele>5.4</ele>
        <time>2024-05-07T14:44:57Z</time>
      </trkpt>
      <trkpt lat="47.57847" lon="-3.02282">
        <ele>5.2</ele>
        <time>2024-05-07T14:44:58Z</time>
      </trkpt>
      <trkpt lat="47.57849" lon="-3.02281">
        <ele>5.2</ele>
        <time>2024-05-07T14:44:59Z</time>
      </trkpt>
      <trkpt lat="47.57851" lon="-3.02279">
        <ele>5</ele>
        <time>2024-05-07T14:45:00Z</time>
      </trkpt>
      <trkpt lat="47.57852" lon="-3.02277">
        <ele>5</ele>
        <time>2024-05-07T14:45:01Z</time>
      </trkpt>
      <trkpt lat="47.57853" lon="-3.02276">
        <ele>5</ele>
        <time>2024-05-07T14:45:02Z</time>
      </trkpt>
      <trkpt lat="47.57853" lon="-3.02274">
        <ele>4.8</ele>
        <time>2024-05-07T14:45:03Z</time>
      </trkpt>
      <trkpt lat="47.57855" lon="-3.02273">
        <ele>4.8</ele>
        <time>2024-05-07T14:45:04Z</time>
      </trkpt>
      <trkpt lat="47.57856" lon="-3.02271">
        <ele>4.8</ele>
        <time>2024-05-07T14:45:05Z</time>
      </trkpt>
      <trkpt lat="47.57856" lon="-3.02271">
        <ele>4.8</ele>
        <time>2024-05-07T14:45:06Z</time>
      </trkpt>
      <trkpt lat="47.57857" lon="-3.02271">
        <ele>4.8</ele>
        <time>2024-05-07T14:45:07Z</time>
      </trkpt>
      <trkpt lat="47.57859" lon="-3.02271">
        <ele>4.6</ele>
        <time>2024-05-07T14:45:08Z</time>
      </trkpt>
      <trkpt lat="47.5786" lon="-3.0227">
        <ele>4.6</ele>
        <time>2024-05-07T14:45:09Z</time>
      </trkpt>
      <trkpt lat="47.5786" lon="-3.02269">
        <ele>4.4</ele>
        <time>2024-05-07T14:45:10Z</time>
      </trkpt>
      <trkpt lat="47.57862" lon="-3.02268">
        <ele>4.4</ele>
        <time>2024-05-07T14:45:11Z</time>
      </trkpt>
      <trkpt lat="47.57863" lon="-3.02267">
        <ele>4.2</ele>
        <time>2024-05-07T14:45:12Z</time>
      </trkpt>
      <trkpt lat="47.57865" lon="-3.02265">
        <ele>4.2</ele>
        <time>2024-05-07T14:45:13Z</time>
      </trkpt>
      <trkpt lat="47.57865" lon="-3.02265">
        <ele>4.4</ele>
        <time>2024-05-07T14:45:14Z</time>
      </trkpt>
      <trkpt lat="47.57866" lon="-3.02264">
        <ele>4.2</ele>
        <time>2024-05-07T14:45:15Z</time>
      </trkpt>
      <trkpt lat="47.57867" lon="-3.02262">
        <ele>4.2</ele>
        <time>2024-05-07T14:45:16Z</time>
      </trkpt>
      <trkpt lat="47.57868" lon="-3.02262">
        <ele>4.2</ele>
        <time>2024-05-07T14:45:17Z</time>
      </trkpt>
      <trkpt lat="47.57869" lon="-3.02261">
        <ele>4.2</ele>
        <time>2024-05-07T14:45:18Z</time>
      </trkpt>
      <trkpt lat="47.5787" lon="-3.0226">
        <ele>4.2</ele>
        <time>2024-05-07T14:45:19Z</time>
      </trkpt>
      <trkpt lat="47.57871" lon="-3.02258">
        <ele>4.2</ele>
        <time>2024-05-07T14:45:20Z</time>
      </trkpt>
      <trkpt lat="47.57872" lon="-3.02256">
        <ele>4.2</ele>
        <time>2024-05-07T14:45:21Z</time>
      </trkpt>
      <trkpt lat="47.57873" lon="-3.02254">
        <ele>4.2</ele>
        <time>2024-05-07T14:45:22Z</time>
      </trkpt>
      <trkpt lat="47.57873" lon="-3.02253">
        <ele>4.2</ele>
        <time>2024-05-07T14:45:23Z</time>
      </trkpt>
      <trkpt lat="47.57874" lon="-3.02252">
        <ele>4.2</ele>
        <time>2024-05-07T14:45:24Z</time>
      </trkpt>
      <trkpt lat="47.57875" lon="-3.0225">
        <ele>4.2</ele>
        <time>2024-05-07T14:45:25Z</time>
      </trkpt>
      <trkpt lat="47.57876" lon="-3.02248">
        <ele>4.2</ele>
        <time>2024-05-07T14:45:26Z</time>
      </trkpt>
      <trkpt lat="47.57876" lon="-3.02247">
        <ele>4.2</ele>
        <time>2024-05-07T14:45:27Z</time>
      </trkpt>
      <trkpt lat="47.57877" lon="-3.02246">
        <ele>4.2</ele>
        <time>2024-05-07T14:45:28Z</time>
      </trkpt>
      <trkpt lat="47.57878" lon="-3.02246">
        <ele>4.2</ele>
        <time>2024-05-07T14:45:29Z</time>
      </trkpt>
      <trkpt lat="47.57879" lon="-3.02246">
        <ele>4.2</ele>
        <time>2024-05-07T14:45:30Z</time>
      </trkpt>
      <trkpt lat="47.5788" lon="-3.02244">
        <ele>4.2</ele>
        <time>2024-05-07T14:45:31Z</time>
      </trkpt>
      <trkpt lat="47.57881" lon="-3.02243">
        <ele>4</ele>
        <time>2024-05-07T14:45:32Z</time>
      </trkpt>
      <trkpt lat="47.57882" lon="-3.02242">
        <ele>4</ele>
        <time>2024-05-07T14:45:33Z</time>
      </trkpt>
      <trkpt lat="47.57883" lon="-3.02242">
        <ele>4</ele>
        <time>2024-05-07T14:45:34Z</time>
      </trkpt>
      <trkpt lat="47.57884" lon="-3.02241">
        <ele>4</ele>
        <time>2024-05-07T14:45:35Z</time>
      </trkpt>
      <trkpt lat="47.57885" lon="-3.0224">
        <ele>4</ele>
        <time>2024-05-07T14:45:36Z</time>
      </trkpt>
      <trkpt lat="47.57885" lon="-3.02239">
        <ele>4</ele>
        <time>2024-05-07T14:45:37Z</time>
      </trkpt>
      <trkpt lat="47.57886" lon="-3.02237">
        <ele>4</ele>
        <time>2024-05-07T14:45:38Z</time>
      </trkpt>
      <trkpt lat="47.57886" lon="-3.02236">
        <ele>4</ele>
        <time>2024-05-07T14:45:39Z</time>
      </trkpt>
      <trkpt lat="47.57886" lon="-3.02234">
        <ele>4</ele>
        <time>2024-05-07T14:45:40Z</time>
      </trkpt>
      <trkpt lat="47.57886" lon="-3.02232">
        <ele>4</ele>
        <time>2024-05-07T14:45:41Z</time>
      </trkpt>
      <trkpt lat="47.57887" lon="-3.0223">
        <ele>3.8</ele>
        <time>2024-05-07T14:45:42Z</time>
      </trkpt>
      <trkpt lat="47.57888" lon="-3.02229">
        <ele>3.8</ele>
        <time>2024-05-07T14:45:43Z</time>
      </trkpt>
      <trkpt lat="47.5789" lon="-3.0223">
        <ele>3.8</ele>
        <time>2024-05-07T14:45:44Z</time>
      </trkpt>
      <trkpt lat="47.57892" lon="-3.0223">
        <ele>3.8</ele>
        <time>2024-05-07T14:45:45Z</time>
      </trkpt>
      <trkpt lat="47.57893" lon="-3.0223">
        <ele>3.8</ele>
        <time>2024-05-07T14:45:46Z</time>
      </trkpt>
      <trkpt lat="47.57894" lon="-3.02229">
        <ele>3.8</ele>
        <time>2024-05-07T14:45:47Z</time>
      </trkpt>
      <trkpt lat="47.57894" lon="-3.02229">
        <ele>3.8</ele>
        <time>2024-05-07T14:45:48Z</time>
      </trkpt>
      <trkpt lat="47.57895" lon="-3.02229">
        <ele>3.8</ele>
        <time>2024-05-07T14:45:49Z</time>
      </trkpt>
      <trkpt lat="47.57896" lon="-3.0223">
        <ele>3.8</ele>
        <time>2024-05-07T14:45:50Z</time>
      </trkpt>
      <trkpt lat="47.57897" lon="-3.0223">
        <ele>3.8</ele>
        <time>2024-05-07T14:45:51Z</time>
      </trkpt>
      <trkpt lat="47.57897" lon="-3.0223">
        <ele>3.8</ele>
        <time>2024-05-07T14:45:52Z</time>
      </trkpt>
      <trkpt lat="47.57898" lon="-3.0223">
        <ele>3.8</ele>
        <time>2024-05-07T14:45:53Z</time>
      </trkpt>
      <trkpt lat="47.579" lon="-3.02229">
        <ele>3.8</ele>
        <time>2024-05-07T14:45:54Z</time>
      </trkpt>
      <trkpt lat="47.57901" lon="-3.02228">
        <ele>3.8</ele>
        <time>2024-05-07T14:45:55Z</time>
      </trkpt>
      <trkpt lat="47.57903" lon="-3.02228">
        <ele>4</ele>
        <time>2024-05-07T14:45:56Z</time>
      </trkpt>
      <trkpt lat="47.57905" lon="-3.02228">
        <ele>4</ele>
        <time>2024-05-07T14:45:57Z</time>
      </trkpt>
      <trkpt lat="47.57907" lon="-3.02228">
        <ele>4</ele>
        <time>2024-05-07T14:45:58Z</time>
      </trkpt>
      <trkpt lat="47.57908" lon="-3.02228">
        <ele>4.2</ele>
        <time>2024-05-07T14:45:59Z</time>
      </trkpt>
      <trkpt lat="47.5791" lon="-3.02227">
        <ele>4.2</ele>
        <time>2024-05-07T14:46:00Z</time>
      </trkpt>
      <trkpt lat="47.57912" lon="-3.02227">
        <ele>4.2</ele>
        <time>2024-05-07T14:46:01Z</time>
      </trkpt>
      <trkpt lat="47.57913" lon="-3.02227">
        <ele>4.4</ele>
        <time>2024-05-07T14:46:02Z</time>
      </trkpt>
      <trkpt lat="47.57914" lon="-3.02227">
        <ele>4.4</ele>
        <time>2024-05-07T14:46:03Z</time>
      </trkpt>
      <trkpt lat="47.57916" lon="-3.02228">
        <ele>4.4</ele>
        <time>2024-05-07T14:46:04Z</time>
      </trkpt>
      <trkpt lat="47.57917" lon="-3.02228">
        <ele>4.4</ele>
        <time>2024-05-07T14:46:05Z</time>
      </trkpt>
      <trkpt lat="47.57919" lon="-3.02228">
        <ele>4.4</ele>
        <time>2024-05-07T14:46:06Z</time>
      </trkpt>
      <trkpt lat="47.5792" lon="-3.02229">
        <ele>4.6</ele>
        <time>2024-05-07T14:46:07Z</time>
      </trkpt>
      <trkpt lat="47.57921" lon="-3.02229">
        <ele>4.6</ele>
        <time>2024-05-07T14:46:08Z</time>
      </trkpt>
      <trkpt lat="47.57922" lon="-3.0223">
        <ele>4.6</ele>
        <time>2024-05-07T14:46:09Z</time>
      </trkpt>
      <trkpt lat="47.57924" lon="-3.02231">
        <ele>4.8</ele>
        <time>2024-05-07T14:46:10Z</time>
      </trkpt>
      <trkpt lat="47.57925" lon="-3.02231">
        <ele>4.8</ele>
        <time>2024-05-07T14:46:11Z</time>
      </trkpt>
      <trkpt lat="47.57926" lon="-3.02232">
        <ele>4.8</ele>
        <time>2024-05-07T14:46:12Z</time>
      </trkpt>
      <trkpt lat="47.57927" lon="-3.02232">
        <ele>4.8</ele>
        <time>2024-05-07T14:46:13Z</time>
      </trkpt>
      <trkpt lat="47.57929" lon="-3.02231">
        <ele>4.8</ele>
        <time>2024-05-07T14:46:14Z</time>
      </trkpt>
      <trkpt lat="47.57929" lon="-3.02231">
        <ele>4.8</ele>
        <time>2024-05-07T14:46:15Z</time>
      </trkpt>
      <trkpt lat="47.57931" lon="-3.02231">
        <ele>4.8</ele>
        <time>2024-05-07T14:46:16Z</time>
      </trkpt>
      <trkpt lat="47.57932" lon="-3.02232">
        <ele>4.8</ele>
        <time>2024-05-07T14:46:17Z</time>
      </trkpt>
      <trkpt lat="47.57934" lon="-3.02232">
        <ele>4.8</ele>
        <time>2024-05-07T14:46:18Z</time>
      </trkpt>
      <trkpt lat="47.57935" lon="-3.02233">
        <ele>4.8</ele>
        <time>2024-05-07T14:46:19Z</time>
      </trkpt>
      <trkpt lat="47.57936" lon="-3.02234">
        <ele>4.8</ele>
        <time>2024-05-07T14:46:20Z</time>
      </trkpt>
      <trkpt lat="47.57937" lon="-3.02234">
        <ele>4.8</ele>
        <time>2024-05-07T14:46:21Z</time>
      </trkpt>
      <trkpt lat="47.57938" lon="-3.02235">
        <ele>4.8</ele>
        <time>2024-05-07T14:46:22Z</time>
      </trkpt>
      <trkpt lat="47.57939" lon="-3.02236">
        <ele>4.8</ele>
        <time>2024-05-07T14:46:23Z</time>
      </trkpt>
      <trkpt lat="47.5794" lon="-3.02238">
        <ele>4.8</ele>
        <time>2024-05-07T14:46:24Z</time>
      </trkpt>
      <trkpt lat="47.5794" lon="-3.02239">
        <ele>4.8</ele>
        <time>2024-05-07T14:46:25Z</time>
      </trkpt>
      <trkpt lat="47.57942" lon="-3.02239">
        <ele>4.8</ele>
        <time>2024-05-07T14:46:26Z</time>
      </trkpt>
      <trkpt lat="47.57943" lon="-3.02241">
        <ele>4.8</ele>
        <time>2024-05-07T14:46:27Z</time>
      </trkpt>
      <trkpt lat="47.57944" lon="-3.02242">
        <ele>4.8</ele>
        <time>2024-05-07T14:46:28Z</time>
      </trkpt>
      <trkpt lat="47.57944" lon="-3.02244">
        <ele>4.6</ele>
        <time>2024-05-07T14:46:29Z</time>
      </trkpt>
      <trkpt lat="47.57945" lon="-3.02246">
        <ele>4.6</ele>
        <time>2024-05-07T14:46:30Z</time>
      </trkpt>
      <trkpt lat="47.57946" lon="-3.02247">
        <ele>4.6</ele>
        <time>2024-05-07T14:46:31Z</time>
      </trkpt>
      <trkpt lat="47.57946" lon="-3.02248">
        <ele>4.6</ele>
        <time>2024-05-07T14:46:32Z</time>
      </trkpt>
      <trkpt lat="47.57946" lon="-3.0225">
        <ele>4.2</ele>
        <time>2024-05-07T14:46:33Z</time>
      </trkpt>
      <trkpt lat="47.57947" lon="-3.02252">
        <ele>4.2</ele>
        <time>2024-05-07T14:46:34Z</time>
      </trkpt>
      <trkpt lat="47.57947" lon="-3.02253">
        <ele>3.8</ele>
        <time>2024-05-07T14:46:35Z</time>
      </trkpt>
      <trkpt lat="47.57947" lon="-3.02253">
        <ele>3.6</ele>
        <time>2024-05-07T14:46:36Z</time>
      </trkpt>
      <trkpt lat="47.57948" lon="-3.02252">
        <ele>3.6</ele>
        <time>2024-05-07T14:46:37Z</time>
      </trkpt>
      <trkpt lat="47.57948" lon="-3.02253">
        <ele>3.2</ele>
        <time>2024-05-07T14:46:38Z</time>
      </trkpt>
      <trkpt lat="47.57948" lon="-3.02253">
        <ele>3.2</ele>
        <time>2024-05-07T14:46:39Z</time>
      </trkpt>
      <trkpt lat="47.57948" lon="-3.02254">
        <ele>3</ele>
        <time>2024-05-07T14:46:40Z</time>
      </trkpt>
      <trkpt lat="47.57948" lon="-3.02255">
        <ele>3</ele>
        <time>2024-05-07T14:46:41Z</time>
      </trkpt>
      <trkpt lat="47.57948" lon="-3.02256">
        <ele>2.8</ele>
        <time>2024-05-07T14:46:42Z</time>
      </trkpt>
      <trkpt lat="47.57948" lon="-3.02257">
        <ele>2.6</ele>
        <time>2024-05-07T14:46:43Z</time>
      </trkpt>
      <trkpt lat="47.57949" lon="-3.02259">
        <ele>2.4</ele>
        <time>2024-05-07T14:46:44Z</time>
      </trkpt>
      <trkpt lat="47.57949" lon="-3.0226">
        <ele>2.2</ele>
        <time>2024-05-07T14:46:45Z</time>
      </trkpt>
      <trkpt lat="47.5795" lon="-3.02261">
        <ele>2.2</ele>
        <time>2024-05-07T14:46:46Z</time>
      </trkpt>
      <trkpt lat="47.57951" lon="-3.02262">
        <ele>2.2</ele>
        <time>2024-05-07T14:46:47Z</time>
      </trkpt>
      <trkpt lat="47.57951" lon="-3.02263">
        <ele>2.2</ele>
        <time>2024-05-07T14:46:48Z</time>
      </trkpt>
      <trkpt lat="47.57951" lon="-3.02265">
        <ele>2.2</ele>
        <time>2024-05-07T14:46:49Z</time>
      </trkpt>
      <trkpt lat="47.57951" lon="-3.02266">
        <ele>2.2</ele>
        <time>2024-05-07T14:46:50Z</time>
      </trkpt>
      <trkpt lat="47.57951" lon="-3.02266">
        <ele>2.2</ele>
        <time>2024-05-07T14:46:51Z</time>
      </trkpt>
      <trkpt lat="47.57951" lon="-3.02267">
        <ele>2.2</ele>
        <time>2024-05-07T14:46:52Z</time>
      </trkpt>
      <trkpt lat="47.57951" lon="-3.02269">
        <ele>2.2</ele>
        <time>2024-05-07T14:46:53Z</time>
      </trkpt>
      <trkpt lat="47.57952" lon="-3.0227">
        <ele>2.2</ele>
        <time>2024-05-07T14:46:54Z</time>
      </trkpt>
      <trkpt lat="47.57952" lon="-3.02271">
        <ele>2.2</ele>
        <time>2024-05-07T14:46:55Z</time>
      </trkpt>
      <trkpt lat="47.57953" lon="-3.02272">
        <ele>2.2</ele>
        <time>2024-05-07T14:46:56Z</time>
      </trkpt>
      <trkpt lat="47.57953" lon="-3.02272">
        <ele>2.2</ele>
        <time>2024-05-07T14:46:57Z</time>
      </trkpt>
      <trkpt lat="47.57953" lon="-3.02272">
        <ele>2</ele>
        <time>2024-05-07T14:46:58Z</time>
      </trkpt>
      <trkpt lat="47.57953" lon="-3.02272">
        <ele>2</ele>
        <time>2024-05-07T14:46:59Z</time>
      </trkpt>
      <trkpt lat="47.57952" lon="-3.02273">
        <ele>2</ele>
        <time>2024-05-07T14:47:00Z</time>
      </trkpt>
      <trkpt lat="47.57952" lon="-3.02272">
        <ele>2</ele>
        <time>2024-05-07T14:47:01Z</time>
      </trkpt>
      <trkpt lat="47.57952" lon="-3.02272">
        <ele>2</ele>
        <time>2024-05-07T14:47:02Z</time>
      </trkpt>
      <trkpt lat="47.57953" lon="-3.02272">
        <ele>2.2</ele>
        <time>2024-05-07T14:47:03Z</time>
      </trkpt>
      <trkpt lat="47.57953" lon="-3.02273">
        <ele>2.4</ele>
        <time>2024-05-07T14:47:04Z</time>
      </trkpt>
      <trkpt lat="47.57953" lon="-3.02274">
        <ele>2.4</ele>
        <time>2024-05-07T14:47:05Z</time>
      </trkpt>
      <trkpt lat="47.57954" lon="-3.02275">
        <ele>2.4</ele>
        <time>2024-05-07T14:47:06Z</time>
      </trkpt>
      <trkpt lat="47.57954" lon="-3.02277">
        <ele>2.4</ele>
        <time>2024-05-07T14:47:07Z</time>
      </trkpt>
      <trkpt lat="47.57955" lon="-3.02278">
        <ele>2.4</ele>
        <time>2024-05-07T14:47:08Z</time>
      </trkpt>
      <trkpt lat="47.57956" lon="-3.02279">
        <ele>2.4</ele>
        <time>2024-05-07T14:47:09Z</time>
      </trkpt>
      <trkpt lat="47.57957" lon="-3.0228">
        <ele>2.4</ele>
        <time>2024-05-07T14:47:10Z</time>
      </trkpt>
      <trkpt lat="47.57958" lon="-3.02282">
        <ele>2.4</ele>
        <time>2024-05-07T14:47:11Z</time>
      </trkpt>
      <trkpt lat="47.57958" lon="-3.02283">
        <ele>2.6</ele>
        <time>2024-05-07T14:47:12Z</time>
      </trkpt>
      <trkpt lat="47.57958" lon="-3.02285">
        <ele>2.6</ele>
        <time>2024-05-07T14:47:13Z</time>
      </trkpt>
      <trkpt lat="47.57959" lon="-3.02286">
        <ele>2.6</ele>
        <time>2024-05-07T14:47:14Z</time>
      </trkpt>
      <trkpt lat="47.57959" lon="-3.02287">
        <ele>2.6</ele>
        <time>2024-05-07T14:47:15Z</time>
      </trkpt>
      <trkpt lat="47.5796" lon="-3.02288">
        <ele>2.6</ele>
        <time>2024-05-07T14:47:16Z</time>
      </trkpt>
      <trkpt lat="47.5796" lon="-3.0229">
        <ele>2.6</ele>
        <time>2024-05-07T14:47:17Z</time>
      </trkpt>
      <trkpt lat="47.57961" lon="-3.02291">
        <ele>2.6</ele>
        <time>2024-05-07T14:47:18Z</time>
      </trkpt>
      <trkpt lat="47.57962" lon="-3.02293">
        <ele>2.6</ele>
        <time>2024-05-07T14:47:19Z</time>
      </trkpt>
      <trkpt lat="47.57962" lon="-3.02295">
        <ele>2.6</ele>
        <time>2024-05-07T14:47:20Z</time>
      </trkpt>
      <trkpt lat="47.57963" lon="-3.02298">
        <ele>2.6</ele>
        <time>2024-05-07T14:47:21Z</time>
      </trkpt>
      <trkpt lat="47.57964" lon="-3.023">
        <ele>2.6</ele>
        <time>2024-05-07T14:47:22Z</time>
      </trkpt>
      <trkpt lat="47.57965" lon="-3.02303">
        <ele>2.6</ele>
        <time>2024-05-07T14:47:23Z</time>
      </trkpt>
      <trkpt lat="47.57965" lon="-3.02305">
        <ele>2.6</ele>
        <time>2024-05-07T14:47:24Z</time>
      </trkpt>
      <trkpt lat="47.57966" lon="-3.02306">
        <ele>2.6</ele>
        <time>2024-05-07T14:47:25Z</time>
      </trkpt>
      <trkpt lat="47.57967" lon="-3.02308">
        <ele>2.6</ele>
        <time>2024-05-07T14:47:26Z</time>
      </trkpt>
      <trkpt lat="47.57967" lon="-3.02309">
        <ele>2.6</ele>
        <time>2024-05-07T14:47:27Z</time>
      </trkpt>
      <trkpt lat="47.57968" lon="-3.02311">
        <ele>2.6</ele>
        <time>2024-05-07T14:47:28Z</time>
      </trkpt>
      <trkpt lat="47.57969" lon="-3.02312">
        <ele>2.6</ele>
        <time>2024-05-07T14:47:29Z</time>
      </trkpt>
      <trkpt lat="47.5797" lon="-3.02314">
        <ele>2.6</ele>
        <time>2024-05-07T14:47:30Z</time>
      </trkpt>
      <trkpt lat="47.57971" lon="-3.02315">
        <ele>2.6</ele>
        <time>2024-05-07T14:47:31Z</time>
      </trkpt>
      <trkpt lat="47.57971" lon="-3.02316">
        <ele>2.6</ele>
        <time>2024-05-07T14:47:32Z</time>
      </trkpt>
      <trkpt lat="47.57972" lon="-3.02318">
        <ele>2.4</ele>
        <time>2024-05-07T14:47:33Z</time>
      </trkpt>
      <trkpt lat="47.57973" lon="-3.02319">
        <ele>2.4</ele>
        <time>2024-05-07T14:47:34Z</time>
      </trkpt>
      <trkpt lat="47.57974" lon="-3.02321">
        <ele>2.4</ele>
        <time>2024-05-07T14:47:35Z</time>
      </trkpt>
      <trkpt lat="47.57974" lon="-3.02323">
        <ele>2.2</ele>
        <time>2024-05-07T14:47:36Z</time>
      </trkpt>
      <trkpt lat="47.57975" lon="-3.02325">
        <ele>2.2</ele>
        <time>2024-05-07T14:47:37Z</time>
      </trkpt>
      <trkpt lat="47.57976" lon="-3.02326">
        <ele>2</ele>
        <time>2024-05-07T14:47:38Z</time>
      </trkpt>
      <trkpt lat="47.57977" lon="-3.02328">
        <ele>2</ele>
        <time>2024-05-07T14:47:39Z</time>
      </trkpt>
      <trkpt lat="47.57977" lon="-3.02329">
        <ele>2</ele>
        <time>2024-05-07T14:47:40Z</time>
      </trkpt>
      <trkpt lat="47.57978" lon="-3.02331">
        <ele>2</ele>
        <time>2024-05-07T14:47:41Z</time>
      </trkpt>
      <trkpt lat="47.57979" lon="-3.02332">
        <ele>2</ele>
        <time>2024-05-07T14:47:42Z</time>
      </trkpt>
      <trkpt lat="47.57979" lon="-3.02334">
        <ele>2</ele>
        <time>2024-05-07T14:47:43Z</time>
      </trkpt>
      <trkpt lat="47.57978" lon="-3.02336">
        <ele>2</ele>
        <time>2024-05-07T14:47:44Z</time>
      </trkpt>
      <trkpt lat="47.57979" lon="-3.02337">
        <ele>2</ele>
        <time>2024-05-07T14:47:45Z</time>
      </trkpt>
      <trkpt lat="47.5798" lon="-3.02339">
        <ele>2</ele>
        <time>2024-05-07T14:47:46Z</time>
      </trkpt>
      <trkpt lat="47.5798" lon="-3.0234">
        <ele>2</ele>
        <time>2024-05-07T14:47:47Z</time>
      </trkpt>
      <trkpt lat="47.57981" lon="-3.02342">
        <ele>2.2</ele>
        <time>2024-05-07T14:47:48Z</time>
      </trkpt>
      <trkpt lat="47.57982" lon="-3.02345">
        <ele>2.2</ele>
        <time>2024-05-07T14:47:49Z</time>
      </trkpt>
      <trkpt lat="47.57983" lon="-3.02347">
        <ele>2.2</ele>
        <time>2024-05-07T14:47:50Z</time>
      </trkpt>
      <trkpt lat="47.57984" lon="-3.02349">
        <ele>2.2</ele>
        <time>2024-05-07T14:47:51Z</time>
      </trkpt>
      <trkpt lat="47.57985" lon="-3.0235">
        <ele>2.2</ele>
        <time>2024-05-07T14:47:52Z</time>
      </trkpt>
      <trkpt lat="47.57986" lon="-3.02352">
        <ele>2.2</ele>
        <time>2024-05-07T14:47:53Z</time>
      </trkpt>
      <trkpt lat="47.57987" lon="-3.02354">
        <ele>2.2</ele>
        <time>2024-05-07T14:47:54Z</time>
      </trkpt>
      <trkpt lat="47.57987" lon="-3.02356">
        <ele>2.2</ele>
        <time>2024-05-07T14:47:55Z</time>
      </trkpt>
      <trkpt lat="47.57987" lon="-3.02357">
        <ele>2.2</ele>
        <time>2024-05-07T14:47:56Z</time>
      </trkpt>
      <trkpt lat="47.57988" lon="-3.02358">
        <ele>2.4</ele>
        <time>2024-05-07T14:47:57Z</time>
      </trkpt>
      <trkpt lat="47.57989" lon="-3.02359">
        <ele>2.4</ele>
        <time>2024-05-07T14:47:58Z</time>
      </trkpt>
      <trkpt lat="47.57989" lon="-3.0236">
        <ele>2.4</ele>
        <time>2024-05-07T14:47:59Z</time>
      </trkpt>
      <trkpt lat="47.57991" lon="-3.02361">
        <ele>2.4</ele>
        <time>2024-05-07T14:48:00Z</time>
      </trkpt>
      <trkpt lat="47.57992" lon="-3.02363">
        <ele>2.4</ele>
        <time>2024-05-07T14:48:01Z</time>
      </trkpt>
      <trkpt lat="47.57993" lon="-3.02365">
        <ele>2.4</ele>
        <time>2024-05-07T14:48:02Z</time>
      </trkpt>
      <trkpt lat="47.57993" lon="-3.02368">
        <ele>2.4</ele>
        <time>2024-05-07T14:48:03Z</time>
      </trkpt>
      <trkpt lat="47.57993" lon="-3.0237">
        <ele>2.4</ele>
        <time>2024-05-07T14:48:04Z</time>
      </trkpt>
      <trkpt lat="47.57994" lon="-3.02371">
        <ele>2.4</ele>
        <time>2024-05-07T14:48:05Z</time>
      </trkpt>
      <trkpt lat="47.57994" lon="-3.02372">
        <ele>2.6</ele>
        <time>2024-05-07T14:48:06Z</time>
      </trkpt>
      <trkpt lat="47.57994" lon="-3.02373">
        <ele>2.6</ele>
        <time>2024-05-07T14:48:07Z</time>
      </trkpt>
      <trkpt lat="47.57995" lon="-3.02374">
        <ele>2.6</ele>
        <time>2024-05-07T14:48:08Z</time>
      </trkpt>
      <trkpt lat="47.57995" lon="-3.02375">
        <ele>2.6</ele>
        <time>2024-05-07T14:48:09Z</time>
      </trkpt>
      <trkpt lat="47.57995" lon="-3.02377">
        <ele>2.6</ele>
        <time>2024-05-07T14:48:10Z</time>
      </trkpt>
      <trkpt lat="47.57995" lon="-3.02378">
        <ele>2.6</ele>
        <time>2024-05-07T14:48:11Z</time>
      </trkpt>
      <trkpt lat="47.57996" lon="-3.0238">
        <ele>2.4</ele>
        <time>2024-05-07T14:48:12Z</time>
      </trkpt>
      <trkpt lat="47.57996" lon="-3.02382">
        <ele>2.6</ele>
        <time>2024-05-07T14:48:13Z</time>
      </trkpt>
      <trkpt lat="47.57997" lon="-3.02384">
        <ele>2.6</ele>
        <time>2024-05-07T14:48:14Z</time>
      </trkpt>
      <trkpt lat="47.57997" lon="-3.02385">
        <ele>2.6</ele>
        <time>2024-05-07T14:48:15Z</time>
      </trkpt>
      <trkpt lat="47.57998" lon="-3.02387">
        <ele>2.6</ele>
        <time>2024-05-07T14:48:16Z</time>
      </trkpt>
      <trkpt lat="47.57998" lon="-3.02389">
        <ele>2.8</ele>
        <time>2024-05-07T14:48:17Z</time>
      </trkpt>
      <trkpt lat="47.57999" lon="-3.0239">
        <ele>2.8</ele>
        <time>2024-05-07T14:48:18Z</time>
      </trkpt>
      <trkpt lat="47.58001" lon="-3.02393">
        <ele>2.8</ele>
        <time>2024-05-07T14:48:19Z</time>
      </trkpt>
      <trkpt lat="47.58002" lon="-3.02396">
        <ele>3</ele>
        <time>2024-05-07T14:48:20Z</time>
      </trkpt>
      <trkpt lat="47.58003" lon="-3.02398">
        <ele>3</ele>
        <time>2024-05-07T14:48:21Z</time>
      </trkpt>
      <trkpt lat="47.58004" lon="-3.02399">
        <ele>3</ele>
        <time>2024-05-07T14:48:22Z</time>
      </trkpt>
      <trkpt lat="47.58005" lon="-3.024">
        <ele>3</ele>
        <time>2024-05-07T14:48:23Z</time>
      </trkpt>
      <trkpt lat="47.58006" lon="-3.02401">
        <ele>3</ele>
        <time>2024-05-07T14:48:24Z</time>
      </trkpt>
      <trkpt lat="47.58007" lon="-3.02403">
        <ele>3</ele>
        <time>2024-05-07T14:48:25Z</time>
      </trkpt>
      <trkpt lat="47.58008" lon="-3.02404">
        <ele>3</ele>
        <time>2024-05-07T14:48:26Z</time>
      </trkpt>
      <trkpt lat="47.58009" lon="-3.02407">
        <ele>3</ele>
        <time>2024-05-07T14:48:27Z</time>
      </trkpt>
      <trkpt lat="47.5801" lon="-3.02409">
        <ele>3</ele>
        <time>2024-05-07T14:48:28Z</time>
      </trkpt>
      <trkpt lat="47.5801" lon="-3.02411">
        <ele>3</ele>
        <time>2024-05-07T14:48:29Z</time>
      </trkpt>
      <trkpt lat="47.58011" lon="-3.02413">
        <ele>2.8</ele>
        <time>2024-05-07T14:48:30Z</time>
      </trkpt>
      <trkpt lat="47.58012" lon="-3.02415">
        <ele>2.8</ele>
        <time>2024-05-07T14:48:31Z</time>
      </trkpt>
      <trkpt lat="47.58012" lon="-3.02416">
        <ele>2.8</ele>
        <time>2024-05-07T14:48:32Z</time>
      </trkpt>
      <trkpt lat="47.58012" lon="-3.02418">
        <ele>2.8</ele>
        <time>2024-05-07T14:48:33Z</time>
      </trkpt>
      <trkpt lat="47.58013" lon="-3.02419">
        <ele>2.8</ele>
        <time>2024-05-07T14:48:34Z</time>
      </trkpt>
      <trkpt lat="47.58013" lon="-3.0242">
        <ele>2.8</ele>
        <time>2024-05-07T14:48:35Z</time>
      </trkpt>
      <trkpt lat="47.58013" lon="-3.02421">
        <ele>3</ele>
        <time>2024-05-07T14:48:36Z</time>
      </trkpt>
      <trkpt lat="47.58013" lon="-3.02424">
        <ele>3</ele>
        <time>2024-05-07T14:48:37Z</time>
      </trkpt>
      <trkpt lat="47.58014" lon="-3.02427">
        <ele>3</ele>
        <time>2024-05-07T14:48:38Z</time>
      </trkpt>
      <trkpt lat="47.58014" lon="-3.02429">
        <ele>3</ele>
        <time>2024-05-07T14:48:39Z</time>
      </trkpt>
      <trkpt lat="47.58015" lon="-3.02431">
        <ele>3.2</ele>
        <time>2024-05-07T14:48:40Z</time>
      </trkpt>
      <trkpt lat="47.58016" lon="-3.02432">
        <ele>3.2</ele>
        <time>2024-05-07T14:48:41Z</time>
      </trkpt>
      <trkpt lat="47.58016" lon="-3.02434">
        <ele>3.4</ele>
        <time>2024-05-07T14:48:42Z</time>
      </trkpt>
      <trkpt lat="47.58016" lon="-3.02435">
        <ele>3.4</ele>
        <time>2024-05-07T14:48:43Z</time>
      </trkpt>
      <trkpt lat="47.58017" lon="-3.02437">
        <ele>3.4</ele>
        <time>2024-05-07T14:48:44Z</time>
      </trkpt>
      <trkpt lat="47.58017" lon="-3.02438">
        <ele>3.4</ele>
        <time>2024-05-07T14:48:45Z</time>
      </trkpt>
      <trkpt lat="47.58018" lon="-3.02439">
        <ele>3.4</ele>
        <time>2024-05-07T14:48:46Z</time>
      </trkpt>
      <trkpt lat="47.58018" lon="-3.0244">
        <ele>3.4</ele>
        <time>2024-05-07T14:48:47Z</time>
      </trkpt>
      <trkpt lat="47.58019" lon="-3.02441">
        <ele>3.2</ele>
        <time>2024-05-07T14:48:48Z</time>
      </trkpt>
      <trkpt lat="47.5802" lon="-3.02443">
        <ele>3.2</ele>
        <time>2024-05-07T14:48:49Z</time>
      </trkpt>
      <trkpt lat="47.58021" lon="-3.02444">
        <ele>3.2</ele>
        <time>2024-05-07T14:48:50Z</time>
      </trkpt>
      <trkpt lat="47.58021" lon="-3.02447">
        <ele>3.2</ele>
        <time>2024-05-07T14:48:51Z</time>
      </trkpt>
      <trkpt lat="47.58022" lon="-3.02448">
        <ele>3</ele>
        <time>2024-05-07T14:48:52Z</time>
      </trkpt>
      <trkpt lat="47.58024" lon="-3.0245">
        <ele>3</ele>
        <time>2024-05-07T14:48:53Z</time>
      </trkpt>
      <trkpt lat="47.58025" lon="-3.02452">
        <ele>3</ele>
        <time>2024-05-07T14:48:54Z</time>
      </trkpt>
      <trkpt lat="47.58026" lon="-3.02453">
        <ele>3</ele>
        <time>2024-05-07T14:48:55Z</time>
      </trkpt>
      <trkpt lat="47.58027" lon="-3.02455">
        <ele>2.8</ele>
        <time>2024-05-07T14:48:56Z</time>
      </trkpt>
      <trkpt lat="47.58028" lon="-3.02456">
        <ele>2.8</ele>
        <time>2024-05-07T14:48:57Z</time>
      </trkpt>
      <trkpt lat="47.5803" lon="-3.02457">
        <ele>2.8</ele>
        <time>2024-05-07T14:48:58Z</time>
      </trkpt>
      <trkpt lat="47.58031" lon="-3.02459">
        <ele>2.8</ele>
        <time>2024-05-07T14:48:59Z</time>
      </trkpt>
      <trkpt lat="47.58031" lon="-3.0246">
        <ele>2.8</ele>
        <time>2024-05-07T14:49:00Z</time>
      </trkpt>
      <trkpt lat="47.58032" lon="-3.02461">
        <ele>2.8</ele>
        <time>2024-05-07T14:49:01Z</time>
      </trkpt>
      <trkpt lat="47.58033" lon="-3.02462">
        <ele>2.8</ele>
        <time>2024-05-07T14:49:02Z</time>
      </trkpt>
      <trkpt lat="47.58034" lon="-3.02463">
        <ele>2.8</ele>
        <time>2024-05-07T14:49:03Z</time>
      </trkpt>
      <trkpt lat="47.58034" lon="-3.02466">
        <ele>2.8</ele>
        <time>2024-05-07T14:49:04Z</time>
      </trkpt>
      <trkpt lat="47.58035" lon="-3.02469">
        <ele>2.8</ele>
        <time>2024-05-07T14:49:05Z</time>
      </trkpt>
      <trkpt lat="47.58035" lon="-3.0247">
        <ele>2.8</ele>
        <time>2024-05-07T14:49:06Z</time>
      </trkpt>
      <trkpt lat="47.58036" lon="-3.02472">
        <ele>2.8</ele>
        <time>2024-05-07T14:49:07Z</time>
      </trkpt>
      <trkpt lat="47.58038" lon="-3.02474">
        <ele>2.8</ele>
        <time>2024-05-07T14:49:08Z</time>
      </trkpt>
      <trkpt lat="47.58039" lon="-3.02475">
        <ele>2.8</ele>
        <time>2024-05-07T14:49:09Z</time>
      </trkpt>
      <trkpt lat="47.5804" lon="-3.02476">
        <ele>2.8</ele>
        <time>2024-05-07T14:49:10Z</time>
      </trkpt>
      <trkpt lat="47.58042" lon="-3.02477">
        <ele>2.6</ele>
        <time>2024-05-07T14:49:11Z</time>
      </trkpt>
      <trkpt lat="47.58043" lon="-3.02478">
        <ele>2.4</ele>
        <time>2024-05-07T14:49:12Z</time>
      </trkpt>
      <trkpt lat="47.58044" lon="-3.0248">
        <ele>2.4</ele>
        <time>2024-05-07T14:49:13Z</time>
      </trkpt>
      <trkpt lat="47.58044" lon="-3.02482">
        <ele>2.4</ele>
        <time>2024-05-07T14:49:14Z</time>
      </trkpt>
      <trkpt lat="47.58045" lon="-3.02483">
        <ele>2.4</ele>
        <time>2024-05-07T14:49:15Z</time>
      </trkpt>
      <trkpt lat="47.58045" lon="-3.02484">
        <ele>2.4</ele>
        <time>2024-05-07T14:49:16Z</time>
      </trkpt>
      <trkpt lat="47.58046" lon="-3.02486">
        <ele>2.4</ele>
        <time>2024-05-07T14:49:17Z</time>
      </trkpt>
      <trkpt lat="47.58047" lon="-3.02487">
        <ele>2.4</ele>
        <time>2024-05-07T14:49:18Z</time>
      </trkpt>
      <trkpt lat="47.58047" lon="-3.02489">
        <ele>2.4</ele>
        <time>2024-05-07T14:49:19Z</time>
      </trkpt>
      <trkpt lat="47.58048" lon="-3.02491">
        <ele>2.6</ele>
        <time>2024-05-07T14:49:20Z</time>
      </trkpt>
      <trkpt lat="47.58049" lon="-3.02492">
        <ele>2.6</ele>
        <time>2024-05-07T14:49:21Z</time>
      </trkpt>
      <trkpt lat="47.58051" lon="-3.02493">
        <ele>2.8</ele>
        <time>2024-05-07T14:49:22Z</time>
      </trkpt>
      <trkpt lat="47.58052" lon="-3.02494">
        <ele>2.8</ele>
        <time>2024-05-07T14:49:23Z</time>
      </trkpt>
      <trkpt lat="47.58053" lon="-3.02496">
        <ele>2.8</ele>
        <time>2024-05-07T14:49:24Z</time>
      </trkpt>
      <trkpt lat="47.58054" lon="-3.02497">
        <ele>3</ele>
        <time>2024-05-07T14:49:25Z</time>
      </trkpt>
      <trkpt lat="47.58054" lon="-3.02499">
        <ele>3</ele>
        <time>2024-05-07T14:49:26Z</time>
      </trkpt>
      <trkpt lat="47.58055" lon="-3.025">
        <ele>3</ele>
        <time>2024-05-07T14:49:27Z</time>
      </trkpt>
      <trkpt lat="47.58056" lon="-3.02501">
        <ele>3</ele>
        <time>2024-05-07T14:49:28Z</time>
      </trkpt>
      <trkpt lat="47.58057" lon="-3.02502">
        <ele>3</ele>
        <time>2024-05-07T14:49:29Z</time>
      </trkpt>
      <trkpt lat="47.58058" lon="-3.02504">
        <ele>3</ele>
        <time>2024-05-07T14:49:30Z</time>
      </trkpt>
      <trkpt lat="47.58059" lon="-3.02506">
        <ele>3</ele>
        <time>2024-05-07T14:49:31Z</time>
      </trkpt>
      <trkpt lat="47.5806" lon="-3.02508">
        <ele>3</ele>
        <time>2024-05-07T14:49:32Z</time>
      </trkpt>
      <trkpt lat="47.58061" lon="-3.02509">
        <ele>3</ele>
        <time>2024-05-07T14:49:33Z</time>
      </trkpt>
      <trkpt lat="47.58062" lon="-3.02511">
        <ele>2.8</ele>
        <time>2024-05-07T14:49:34Z</time>
      </trkpt>
      <trkpt lat="47.58063" lon="-3.02512">
        <ele>2.8</ele>
        <time>2024-05-07T14:49:35Z</time>
      </trkpt>
      <trkpt lat="47.58064" lon="-3.02513">
        <ele>2.8</ele>
        <time>2024-05-07T14:49:36Z</time>
      </trkpt>
      <trkpt lat="47.58066" lon="-3.02515">
        <ele>2.8</ele>
        <time>2024-05-07T14:49:37Z</time>
      </trkpt>
      <trkpt lat="47.58067" lon="-3.02516">
        <ele>2.8</ele>
        <time>2024-05-07T14:49:38Z</time>
      </trkpt>
      <trkpt lat="47.58067" lon="-3.02517">
        <ele>2.8</ele>
        <time>2024-05-07T14:49:39Z</time>
      </trkpt>
      <trkpt lat="47.58068" lon="-3.02518">
        <ele>2.8</ele>
        <time>2024-05-07T14:49:40Z</time>
      </trkpt>
      <trkpt lat="47.58068" lon="-3.02519">
        <ele>2.8</ele>
        <time>2024-05-07T14:49:41Z</time>
      </trkpt>
      <trkpt lat="47.58069" lon="-3.02521">
        <ele>2.8</ele>
        <time>2024-05-07T14:49:42Z</time>
      </trkpt>
      <trkpt lat="47.58071" lon="-3.02522">
        <ele>2.8</ele>
        <time>2024-05-07T14:49:43Z</time>
      </trkpt>
      <trkpt lat="47.58071" lon="-3.02524">
        <ele>3</ele>
        <time>2024-05-07T14:49:44Z</time>
      </trkpt>
      <trkpt lat="47.58071" lon="-3.02526">
        <ele>3</ele>
        <time>2024-05-07T14:49:45Z</time>
      </trkpt>
      <trkpt lat="47.58071" lon="-3.02527">
        <ele>3</ele>
        <time>2024-05-07T14:49:46Z</time>
      </trkpt>
      <trkpt lat="47.58071" lon="-3.02529">
        <ele>2.8</ele>
        <time>2024-05-07T14:49:47Z</time>
      </trkpt>
      <trkpt lat="47.58072" lon="-3.0253">
        <ele>2.8</ele>
        <time>2024-05-07T14:49:48Z</time>
      </trkpt>
      <trkpt lat="47.58073" lon="-3.02531">
        <ele>2.8</ele>
        <time>2024-05-07T14:49:49Z</time>
      </trkpt>
      <trkpt lat="47.58075" lon="-3.02531">
        <ele>2.8</ele>
        <time>2024-05-07T14:49:50Z</time>
      </trkpt>
      <trkpt lat="47.58076" lon="-3.02532">
        <ele>2.8</ele>
        <time>2024-05-07T14:49:51Z</time>
      </trkpt>
      <trkpt lat="47.58077" lon="-3.02534">
        <ele>2.8</ele>
        <time>2024-05-07T14:49:52Z</time>
      </trkpt>
      <trkpt lat="47.58078" lon="-3.02535">
        <ele>2.8</ele>
        <time>2024-05-07T14:49:53Z</time>
      </trkpt>
      <trkpt lat="47.58078" lon="-3.02536">
        <ele>2.6</ele>
        <time>2024-05-07T14:49:54Z</time>
      </trkpt>
      <trkpt lat="47.58079" lon="-3.02537">
        <ele>2.6</ele>
        <time>2024-05-07T14:49:55Z</time>
      </trkpt>
      <trkpt lat="47.58079" lon="-3.02539">
        <ele>2.6</ele>
        <time>2024-05-07T14:49:56Z</time>
      </trkpt>
      <trkpt lat="47.58079" lon="-3.0254">
        <ele>2.4</ele>
        <time>2024-05-07T14:49:57Z</time>
      </trkpt>
      <trkpt lat="47.58079" lon="-3.02541">
        <ele>2.4</ele>
        <time>2024-05-07T14:49:58Z</time>
      </trkpt>
      <trkpt lat="47.58079" lon="-3.02543">
        <ele>2.2</ele>
        <time>2024-05-07T14:49:59Z</time>
      </trkpt>
      <trkpt lat="47.58079" lon="-3.02545">
        <ele>2.2</ele>
        <time>2024-05-07T14:50:00Z</time>
      </trkpt>
      <trkpt lat="47.5808" lon="-3.02547">
        <ele>2</ele>
        <time>2024-05-07T14:50:01Z</time>
      </trkpt>
      <trkpt lat="47.5808" lon="-3.02549">
        <ele>2</ele>
        <time>2024-05-07T14:50:02Z</time>
      </trkpt>
      <trkpt lat="47.5808" lon="-3.0255">
        <ele>2</ele>
        <time>2024-05-07T14:50:03Z</time>
      </trkpt>
      <trkpt lat="47.58081" lon="-3.02551">
        <ele>1.8</ele>
        <time>2024-05-07T14:50:04Z</time>
      </trkpt>
      <trkpt lat="47.58081" lon="-3.02552">
        <ele>1.6</ele>
        <time>2024-05-07T14:50:05Z</time>
      </trkpt>
      <trkpt lat="47.58081" lon="-3.02553">
        <ele>1.6</ele>
        <time>2024-05-07T14:50:06Z</time>
      </trkpt>
      <trkpt lat="47.5808" lon="-3.02554">
        <ele>1.6</ele>
        <time>2024-05-07T14:50:07Z</time>
      </trkpt>
      <trkpt lat="47.5808" lon="-3.02556">
        <ele>1.6</ele>
        <time>2024-05-07T14:50:08Z</time>
      </trkpt>
      <trkpt lat="47.58079" lon="-3.02558">
        <ele>1.6</ele>
        <time>2024-05-07T14:50:09Z</time>
      </trkpt>
      <trkpt lat="47.58078" lon="-3.02559">
        <ele>1.6</ele>
        <time>2024-05-07T14:50:10Z</time>
      </trkpt>
      <trkpt lat="47.58077" lon="-3.0256">
        <ele>1.8</ele>
        <time>2024-05-07T14:50:11Z</time>
      </trkpt>
      <trkpt lat="47.58077" lon="-3.02561">
        <ele>2</ele>
        <time>2024-05-07T14:50:12Z</time>
      </trkpt>
      <trkpt lat="47.58077" lon="-3.02562">
        <ele>2.4</ele>
        <time>2024-05-07T14:50:13Z</time>
      </trkpt>
      <trkpt lat="47.58078" lon="-3.02564">
        <ele>2.6</ele>
        <time>2024-05-07T14:50:14Z</time>
      </trkpt>
      <trkpt lat="47.58078" lon="-3.02566">
        <ele>3.2</ele>
        <time>2024-05-07T14:50:15Z</time>
      </trkpt>
      <trkpt lat="47.58079" lon="-3.02568">
        <ele>3.6</ele>
        <time>2024-05-07T14:50:16Z</time>
      </trkpt>
      <trkpt lat="47.5808" lon="-3.0257">
        <ele>3.8</ele>
        <time>2024-05-07T14:50:17Z</time>
      </trkpt>
      <trkpt lat="47.58081" lon="-3.0257">
        <ele>4.2</ele>
        <time>2024-05-07T14:50:18Z</time>
      </trkpt>
      <trkpt lat="47.58082" lon="-3.02571">
        <ele>4.4</ele>
        <time>2024-05-07T14:50:19Z</time>
      </trkpt>
      <trkpt lat="47.58083" lon="-3.02572">
        <ele>4.4</ele>
        <time>2024-05-07T14:50:20Z</time>
      </trkpt>
      <trkpt lat="47.58084" lon="-3.02574">
        <ele>4.4</ele>
        <time>2024-05-07T14:50:21Z</time>
      </trkpt>
      <trkpt lat="47.58084" lon="-3.02575">
        <ele>4.6</ele>
        <time>2024-05-07T14:50:22Z</time>
      </trkpt>
      <trkpt lat="47.58085" lon="-3.02577">
        <ele>4.6</ele>
        <time>2024-05-07T14:50:23Z</time>
      </trkpt>
      <trkpt lat="47.58086" lon="-3.02578">
        <ele>4.8</ele>
        <time>2024-05-07T14:50:24Z</time>
      </trkpt>
      <trkpt lat="47.58087" lon="-3.02579">
        <ele>4.8</ele>
        <time>2024-05-07T14:50:25Z</time>
      </trkpt>
      <trkpt lat="47.58088" lon="-3.0258">
        <ele>4.8</ele>
        <time>2024-05-07T14:50:26Z</time>
      </trkpt>
      <trkpt lat="47.58089" lon="-3.02581">
        <ele>5</ele>
        <time>2024-05-07T14:50:27Z</time>
      </trkpt>
      <trkpt lat="47.5809" lon="-3.02582">
        <ele>5.2</ele>
        <time>2024-05-07T14:50:28Z</time>
      </trkpt>
      <trkpt lat="47.58091" lon="-3.02583">
        <ele>5.4</ele>
        <time>2024-05-07T14:50:29Z</time>
      </trkpt>
      <trkpt lat="47.58091" lon="-3.02584">
        <ele>5.4</ele>
        <time>2024-05-07T14:50:30Z</time>
      </trkpt>
      <trkpt lat="47.58092" lon="-3.02586">
        <ele>5.6</ele>
        <time>2024-05-07T14:50:31Z</time>
      </trkpt>
      <trkpt lat="47.58092" lon="-3.02588">
        <ele>5.8</ele>
        <time>2024-05-07T14:50:32Z</time>
      </trkpt>
      <trkpt lat="47.58093" lon="-3.0259">
        <ele>5.8</ele>
        <time>2024-05-07T14:50:33Z</time>
      </trkpt>
      <trkpt lat="47.58094" lon="-3.02591">
        <ele>6</ele>
        <time>2024-05-07T14:50:34Z</time>
      </trkpt>
      <trkpt lat="47.58095" lon="-3.02593">
        <ele>6</ele>
        <time>2024-05-07T14:50:35Z</time>
      </trkpt>
      <trkpt lat="47.58096" lon="-3.02594">
        <ele>6.2</ele>
        <time>2024-05-07T14:50:36Z</time>
      </trkpt>
      <trkpt lat="47.58097" lon="-3.02596">
        <ele>6.2</ele>
        <time>2024-05-07T14:50:37Z</time>
      </trkpt>
      <trkpt lat="47.58097" lon="-3.02597">
        <ele>6.4</ele>
        <time>2024-05-07T14:50:38Z</time>
      </trkpt>
      <trkpt lat="47.58097" lon="-3.02599">
        <ele>6.4</ele>
        <time>2024-05-07T14:50:39Z</time>
      </trkpt>
      <trkpt lat="47.58098" lon="-3.02601">
        <ele>6.4</ele>
        <time>2024-05-07T14:50:40Z</time>
      </trkpt>
      <trkpt lat="47.58098" lon="-3.02603">
        <ele>6.4</ele>
        <time>2024-05-07T14:50:41Z</time>
      </trkpt>
      <trkpt lat="47.58099" lon="-3.02605">
        <ele>6.4</ele>
        <time>2024-05-07T14:50:42Z</time>
      </trkpt>
      <trkpt lat="47.581" lon="-3.02606">
        <ele>6.4</ele>
        <time>2024-05-07T14:50:43Z</time>
      </trkpt>
      <trkpt lat="47.58101" lon="-3.02608">
        <ele>6.4</ele>
        <time>2024-05-07T14:50:44Z</time>
      </trkpt>
      <trkpt lat="47.58102" lon="-3.02609">
        <ele>6.4</ele>
        <time>2024-05-07T14:50:45Z</time>
      </trkpt>
      <trkpt lat="47.58103" lon="-3.02611">
        <ele>6.4</ele>
        <time>2024-05-07T14:50:46Z</time>
      </trkpt>
      <trkpt lat="47.58104" lon="-3.02612">
        <ele>6.6</ele>
        <time>2024-05-07T14:50:47Z</time>
      </trkpt>
      <trkpt lat="47.58105" lon="-3.02613">
        <ele>6.6</ele>
        <time>2024-05-07T14:50:48Z</time>
      </trkpt>
      <trkpt lat="47.58107" lon="-3.02614">
        <ele>6.6</ele>
        <time>2024-05-07T14:50:49Z</time>
      </trkpt>
      <trkpt lat="47.58108" lon="-3.02616">
        <ele>6.6</ele>
        <time>2024-05-07T14:50:50Z</time>
      </trkpt>
      <trkpt lat="47.58108" lon="-3.02617">
        <ele>6.6</ele>
        <time>2024-05-07T14:50:51Z</time>
      </trkpt>
      <trkpt lat="47.58109" lon="-3.02618">
        <ele>6.6</ele>
        <time>2024-05-07T14:50:52Z</time>
      </trkpt>
      <trkpt lat="47.5811" lon="-3.02619">
        <ele>6.6</ele>
        <time>2024-05-07T14:50:53Z</time>
      </trkpt>
      <trkpt lat="47.58111" lon="-3.02619">
        <ele>6.6</ele>
        <time>2024-05-07T14:50:54Z</time>
      </trkpt>
      <trkpt lat="47.58112" lon="-3.0262">
        <ele>6.6</ele>
        <time>2024-05-07T14:50:55Z</time>
      </trkpt>
      <trkpt lat="47.58113" lon="-3.02622">
        <ele>6.6</ele>
        <time>2024-05-07T14:50:56Z</time>
      </trkpt>
      <trkpt lat="47.58114" lon="-3.02624">
        <ele>6.6</ele>
        <time>2024-05-07T14:50:57Z</time>
      </trkpt>
      <trkpt lat="47.58115" lon="-3.02626">
        <ele>6.6</ele>
        <time>2024-05-07T14:50:58Z</time>
      </trkpt>
      <trkpt lat="47.58116" lon="-3.02627">
        <ele>6.6</ele>
        <time>2024-05-07T14:50:59Z</time>
      </trkpt>
      <trkpt lat="47.58117" lon="-3.02628">
        <ele>6.6</ele>
        <time>2024-05-07T14:51:00Z</time>
      </trkpt>
      <trkpt lat="47.58118" lon="-3.0263">
        <ele>6.6</ele>
        <time>2024-05-07T14:51:01Z</time>
      </trkpt>
      <trkpt lat="47.58119" lon="-3.02631">
        <ele>6.4</ele>
        <time>2024-05-07T14:51:02Z</time>
      </trkpt>
      <trkpt lat="47.5812" lon="-3.02632">
        <ele>6.4</ele>
        <time>2024-05-07T14:51:03Z</time>
      </trkpt>
      <trkpt lat="47.58121" lon="-3.02633">
        <ele>6.4</ele>
        <time>2024-05-07T14:51:04Z</time>
      </trkpt>
      <trkpt lat="47.58123" lon="-3.02634">
        <ele>6.4</ele>
        <time>2024-05-07T14:51:05Z</time>
      </trkpt>
      <trkpt lat="47.58124" lon="-3.02634">
        <ele>6.2</ele>
        <time>2024-05-07T14:51:06Z</time>
      </trkpt>
      <trkpt lat="47.58125" lon="-3.02634">
        <ele>6.2</ele>
        <time>2024-05-07T14:51:07Z</time>
      </trkpt>
      <trkpt lat="47.58126" lon="-3.02635">
        <ele>6.2</ele>
        <time>2024-05-07T14:51:08Z</time>
      </trkpt>
      <trkpt lat="47.58128" lon="-3.02635">
        <ele>6.2</ele>
        <time>2024-05-07T14:51:09Z</time>
      </trkpt>
      <trkpt lat="47.5813" lon="-3.02635">
        <ele>6</ele>
        <time>2024-05-07T14:51:10Z</time>
      </trkpt>
      <trkpt lat="47.58131" lon="-3.02635">
        <ele>6</ele>
        <time>2024-05-07T14:51:11Z</time>
      </trkpt>
      <trkpt lat="47.58132" lon="-3.02636">
        <ele>6</ele>
        <time>2024-05-07T14:51:12Z</time>
      </trkpt>
      <trkpt lat="47.58133" lon="-3.02636">
        <ele>5.8</ele>
        <time>2024-05-07T14:51:13Z</time>
      </trkpt>
      <trkpt lat="47.58133" lon="-3.02636">
        <ele>5.8</ele>
        <time>2024-05-07T14:51:14Z</time>
      </trkpt>
      <trkpt lat="47.58134" lon="-3.02637">
        <ele>5.8</ele>
        <time>2024-05-07T14:51:15Z</time>
      </trkpt>
      <trkpt lat="47.58135" lon="-3.02639">
        <ele>5.8</ele>
        <time>2024-05-07T14:51:16Z</time>
      </trkpt>
      <trkpt lat="47.58136" lon="-3.0264">
        <ele>5.8</ele>
        <time>2024-05-07T14:51:17Z</time>
      </trkpt>
      <trkpt lat="47.58137" lon="-3.02641">
        <ele>5.8</ele>
        <time>2024-05-07T14:51:18Z</time>
      </trkpt>
      <trkpt lat="47.58139" lon="-3.02642">
        <ele>5.6</ele>
        <time>2024-05-07T14:51:19Z</time>
      </trkpt>
      <trkpt lat="47.5814" lon="-3.02642">
        <ele>5.6</ele>
        <time>2024-05-07T14:51:20Z</time>
      </trkpt>
      <trkpt lat="47.58142" lon="-3.02641">
        <ele>5.8</ele>
        <time>2024-05-07T14:51:21Z</time>
      </trkpt>
      <trkpt lat="47.58144" lon="-3.02641">
        <ele>5.8</ele>
        <time>2024-05-07T14:51:22Z</time>
      </trkpt>
      <trkpt lat="47.58145" lon="-3.02641">
        <ele>5.8</ele>
        <time>2024-05-07T14:51:23Z</time>
      </trkpt>
      <trkpt lat="47.58146" lon="-3.02641">
        <ele>5.8</ele>
        <time>2024-05-07T14:51:24Z</time>
      </trkpt>
      <trkpt lat="47.58147" lon="-3.02641">
        <ele>5.8</ele>
        <time>2024-05-07T14:51:25Z</time>
      </trkpt>
      <trkpt lat="47.58148" lon="-3.02642">
        <ele>6</ele>
        <time>2024-05-07T14:51:26Z</time>
      </trkpt>
      <trkpt lat="47.58149" lon="-3.02642">
        <ele>6</ele>
        <time>2024-05-07T14:51:27Z</time>
      </trkpt>
      <trkpt lat="47.5815" lon="-3.02643">
        <ele>6</ele>
        <time>2024-05-07T14:51:28Z</time>
      </trkpt>
      <trkpt lat="47.58152" lon="-3.02644">
        <ele>6</ele>
        <time>2024-05-07T14:51:29Z</time>
      </trkpt>
      <trkpt lat="47.58153" lon="-3.02644">
        <ele>6</ele>
        <time>2024-05-07T14:51:30Z</time>
      </trkpt>
      <trkpt lat="47.58154" lon="-3.02645">
        <ele>6</ele>
        <time>2024-05-07T14:51:31Z</time>
      </trkpt>
      <trkpt lat="47.58155" lon="-3.02645">
        <ele>6</ele>
        <time>2024-05-07T14:51:32Z</time>
      </trkpt>
      <trkpt lat="47.58156" lon="-3.02646">
        <ele>6</ele>
        <time>2024-05-07T14:51:33Z</time>
      </trkpt>
      <trkpt lat="47.58157" lon="-3.02646">
        <ele>6</ele>
        <time>2024-05-07T14:51:34Z</time>
      </trkpt>
      <trkpt lat="47.58158" lon="-3.02646">
        <ele>6</ele>
        <time>2024-05-07T14:51:35Z</time>
      </trkpt>
      <trkpt lat="47.5816" lon="-3.02646">
        <ele>6.2</ele>
        <time>2024-05-07T14:51:36Z</time>
      </trkpt>
      <trkpt lat="47.58161" lon="-3.02646">
        <ele>6.2</ele>
        <time>2024-05-07T14:51:37Z</time>
      </trkpt>
      <trkpt lat="47.58163" lon="-3.02647">
        <ele>6.2</ele>
        <time>2024-05-07T14:51:38Z</time>
      </trkpt>
      <trkpt lat="47.58165" lon="-3.02647">
        <ele>6.2</ele>
        <time>2024-05-07T14:51:39Z</time>
      </trkpt>
      <trkpt lat="47.58165" lon="-3.02647">
        <ele>6.2</ele>
        <time>2024-05-07T14:51:40Z</time>
      </trkpt>
      <trkpt lat="47.58166" lon="-3.02648">
        <ele>6.2</ele>
        <time>2024-05-07T14:51:41Z</time>
      </trkpt>
      <trkpt lat="47.58167" lon="-3.02649">
        <ele>6.2</ele>
        <time>2024-05-07T14:51:42Z</time>
      </trkpt>
      <trkpt lat="47.58169" lon="-3.02649">
        <ele>6.2</ele>
        <time>2024-05-07T14:51:43Z</time>
      </trkpt>
      <trkpt lat="47.58171" lon="-3.0265">
        <ele>6.2</ele>
        <time>2024-05-07T14:51:44Z</time>
      </trkpt>
      <trkpt lat="47.58172" lon="-3.02651">
        <ele>6.2</ele>
        <time>2024-05-07T14:51:45Z</time>
      </trkpt>
      <trkpt lat="47.58173" lon="-3.02652">
        <ele>6.2</ele>
        <time>2024-05-07T14:51:46Z</time>
      </trkpt>
      <trkpt lat="47.58174" lon="-3.02653">
        <ele>6.2</ele>
        <time>2024-05-07T14:51:47Z</time>
      </trkpt>
      <trkpt lat="47.58175" lon="-3.02654">
        <ele>6.2</ele>
        <time>2024-05-07T14:51:48Z</time>
      </trkpt>
      <trkpt lat="47.58176" lon="-3.02655">
        <ele>6.2</ele>
        <time>2024-05-07T14:51:49Z</time>
      </trkpt>
      <trkpt lat="47.58177" lon="-3.02656">
        <ele>6.2</ele>
        <time>2024-05-07T14:51:50Z</time>
      </trkpt>
      <trkpt lat="47.58178" lon="-3.02658">
        <ele>6.2</ele>
        <time>2024-05-07T14:51:51Z</time>
      </trkpt>
      <trkpt lat="47.58178" lon="-3.0266">
        <ele>6.2</ele>
        <time>2024-05-07T14:51:52Z</time>
      </trkpt>
      <trkpt lat="47.58179" lon="-3.02661">
        <ele>6.2</ele>
        <time>2024-05-07T14:51:53Z</time>
      </trkpt>
      <trkpt lat="47.58181" lon="-3.02661">
        <ele>6.2</ele>
        <time>2024-05-07T14:51:54Z</time>
      </trkpt>
      <trkpt lat="47.58183" lon="-3.02661">
        <ele>6.4</ele>
        <time>2024-05-07T14:51:55Z</time>
      </trkpt>
      <trkpt lat="47.58183" lon="-3.02663">
        <ele>6.4</ele>
        <time>2024-05-07T14:51:56Z</time>
      </trkpt>
      <trkpt lat="47.58184" lon="-3.02664">
        <ele>6.4</ele>
        <time>2024-05-07T14:51:57Z</time>
      </trkpt>
      <trkpt lat="47.58185" lon="-3.02665">
        <ele>6.4</ele>
        <time>2024-05-07T14:51:58Z</time>
      </trkpt>
      <trkpt lat="47.58186" lon="-3.02667">
        <ele>6.4</ele>
        <time>2024-05-07T14:51:59Z</time>
      </trkpt>
      <trkpt lat="47.58186" lon="-3.02668">
        <ele>6.4</ele>
        <time>2024-05-07T14:52:00Z</time>
      </trkpt>
      <trkpt lat="47.58187" lon="-3.02669">
        <ele>6.6</ele>
        <time>2024-05-07T14:52:01Z</time>
      </trkpt>
      <trkpt lat="47.58187" lon="-3.0267">
        <ele>6.6</ele>
        <time>2024-05-07T14:52:02Z</time>
      </trkpt>
      <trkpt lat="47.58188" lon="-3.02671">
        <ele>6.6</ele>
        <time>2024-05-07T14:52:03Z</time>
      </trkpt>
      <trkpt lat="47.58189" lon="-3.02672">
        <ele>6.6</ele>
        <time>2024-05-07T14:52:04Z</time>
      </trkpt>
      <trkpt lat="47.5819" lon="-3.02673">
        <ele>6.8</ele>
        <time>2024-05-07T14:52:05Z</time>
      </trkpt>
      <trkpt lat="47.58191" lon="-3.02674">
        <ele>7</ele>
        <time>2024-05-07T14:52:06Z</time>
      </trkpt>
      <trkpt lat="47.58192" lon="-3.02674">
        <ele>7</ele>
        <time>2024-05-07T14:52:07Z</time>
      </trkpt>
      <trkpt lat="47.58193" lon="-3.02675">
        <ele>7</ele>
        <time>2024-05-07T14:52:08Z</time>
      </trkpt>
      <trkpt lat="47.58193" lon="-3.02676">
        <ele>7</ele>
        <time>2024-05-07T14:52:09Z</time>
      </trkpt>
      <trkpt lat="47.58194" lon="-3.02676">
        <ele>7.2</ele>
        <time>2024-05-07T14:52:10Z</time>
      </trkpt>
      <trkpt lat="47.58195" lon="-3.02677">
        <ele>7.4</ele>
        <time>2024-05-07T14:52:11Z</time>
      </trkpt>
      <trkpt lat="47.58196" lon="-3.02679">
        <ele>7.6</ele>
        <time>2024-05-07T14:52:12Z</time>
      </trkpt>
      <trkpt lat="47.58197" lon="-3.0268">
        <ele>7.6</ele>
        <time>2024-05-07T14:52:13Z</time>
      </trkpt>
      <trkpt lat="47.58198" lon="-3.02681">
        <ele>7.6</ele>
        <time>2024-05-07T14:52:14Z</time>
      </trkpt>
      <trkpt lat="47.58199" lon="-3.02682">
        <ele>7.8</ele>
        <time>2024-05-07T14:52:15Z</time>
      </trkpt>
      <trkpt lat="47.58199" lon="-3.02684">
        <ele>8</ele>
        <time>2024-05-07T14:52:16Z</time>
      </trkpt>
      <trkpt lat="47.582" lon="-3.02685">
        <ele>8</ele>
        <time>2024-05-07T14:52:17Z</time>
      </trkpt>
      <trkpt lat="47.58201" lon="-3.02686">
        <ele>8</ele>
        <time>2024-05-07T14:52:18Z</time>
      </trkpt>
      <trkpt lat="47.58202" lon="-3.02687">
        <ele>8.2</ele>
        <time>2024-05-07T14:52:19Z</time>
      </trkpt>
      <trkpt lat="47.58202" lon="-3.02688">
        <ele>8.2</ele>
        <time>2024-05-07T14:52:20Z</time>
      </trkpt>
      <trkpt lat="47.58203" lon="-3.02689">
        <ele>8.2</ele>
        <time>2024-05-07T14:52:21Z</time>
      </trkpt>
      <trkpt lat="47.58204" lon="-3.02689">
        <ele>8.2</ele>
        <time>2024-05-07T14:52:22Z</time>
      </trkpt>
      <trkpt lat="47.58205" lon="-3.02689">
        <ele>8.2</ele>
        <time>2024-05-07T14:52:23Z</time>
      </trkpt>
      <trkpt lat="47.58206" lon="-3.0269">
        <ele>8.2</ele>
        <time>2024-05-07T14:52:24Z</time>
      </trkpt>
      <trkpt lat="47.58207" lon="-3.0269">
        <ele>8.2</ele>
        <time>2024-05-07T14:52:25Z</time>
      </trkpt>
      <trkpt lat="47.58209" lon="-3.0269">
        <ele>8.2</ele>
        <time>2024-05-07T14:52:26Z</time>
      </trkpt>
      <trkpt lat="47.58211" lon="-3.02688">
        <ele>8.2</ele>
        <time>2024-05-07T14:52:27Z</time>
      </trkpt>
      <trkpt lat="47.58212" lon="-3.02688">
        <ele>8.2</ele>
        <time>2024-05-07T14:52:28Z</time>
      </trkpt>
      <trkpt lat="47.58214" lon="-3.02688">
        <ele>8</ele>
        <time>2024-05-07T14:52:29Z</time>
      </trkpt>
      <trkpt lat="47.58216" lon="-3.02689">
        <ele>8</ele>
        <time>2024-05-07T14:52:30Z</time>
      </trkpt>
      <trkpt lat="47.58217" lon="-3.0269">
        <ele>8</ele>
        <time>2024-05-07T14:52:31Z</time>
      </trkpt>
      <trkpt lat="47.58218" lon="-3.02692">
        <ele>7.8</ele>
        <time>2024-05-07T14:52:32Z</time>
      </trkpt>
      <trkpt lat="47.58219" lon="-3.02693">
        <ele>7.8</ele>
        <time>2024-05-07T14:52:33Z</time>
      </trkpt>
      <trkpt lat="47.5822" lon="-3.02693">
        <ele>7.8</ele>
        <time>2024-05-07T14:52:34Z</time>
      </trkpt>
      <trkpt lat="47.58221" lon="-3.02693">
        <ele>7.8</ele>
        <time>2024-05-07T14:52:35Z</time>
      </trkpt>
      <trkpt lat="47.58223" lon="-3.02693">
        <ele>7.8</ele>
        <time>2024-05-07T14:52:36Z</time>
      </trkpt>
      <trkpt lat="47.58225" lon="-3.02693">
        <ele>7.6</ele>
        <time>2024-05-07T14:52:37Z</time>
      </trkpt>
      <trkpt lat="47.58227" lon="-3.02691">
        <ele>7.6</ele>
        <time>2024-05-07T14:52:38Z</time>
      </trkpt>
      <trkpt lat="47.58228" lon="-3.02689">
        <ele>7.6</ele>
        <time>2024-05-07T14:52:39Z</time>
      </trkpt>
      <trkpt lat="47.58229" lon="-3.0269">
        <ele>7.4</ele>
        <time>2024-05-07T14:52:40Z</time>
      </trkpt>
      <trkpt lat="47.5823" lon="-3.02691">
        <ele>7.4</ele>
        <time>2024-05-07T14:52:41Z</time>
      </trkpt>
      <trkpt lat="47.58231" lon="-3.02692">
        <ele>7.4</ele>
        <time>2024-05-07T14:52:42Z</time>
      </trkpt>
      <trkpt lat="47.58232" lon="-3.02693">
        <ele>7.2</ele>
        <time>2024-05-07T14:52:43Z</time>
      </trkpt>
      <trkpt lat="47.58232" lon="-3.02693">
        <ele>7</ele>
        <time>2024-05-07T14:52:44Z</time>
      </trkpt>
      <trkpt lat="47.58233" lon="-3.02693">
        <ele>7</ele>
        <time>2024-05-07T14:52:45Z</time>
      </trkpt>
      <trkpt lat="47.58234" lon="-3.02693">
        <ele>7</ele>
        <time>2024-05-07T14:52:46Z</time>
      </trkpt>
      <trkpt lat="47.58235" lon="-3.02694">
        <ele>7</ele>
        <time>2024-05-07T14:52:47Z</time>
      </trkpt>
      <trkpt lat="47.58236" lon="-3.02694">
        <ele>7</ele>
        <time>2024-05-07T14:52:48Z</time>
      </trkpt>
      <trkpt lat="47.58238" lon="-3.02694">
        <ele>7</ele>
        <time>2024-05-07T14:52:49Z</time>
      </trkpt>
      <trkpt lat="47.58239" lon="-3.02695">
        <ele>6.8</ele>
        <time>2024-05-07T14:52:50Z</time>
      </trkpt>
      <trkpt lat="47.5824" lon="-3.02695">
        <ele>6.8</ele>
        <time>2024-05-07T14:52:51Z</time>
      </trkpt>
      <trkpt lat="47.58241" lon="-3.02696">
        <ele>6.6</ele>
        <time>2024-05-07T14:52:52Z</time>
      </trkpt>
      <trkpt lat="47.58242" lon="-3.02697">
        <ele>6.6</ele>
        <time>2024-05-07T14:52:53Z</time>
      </trkpt>
      <trkpt lat="47.58243" lon="-3.02698">
        <ele>6.4</ele>
        <time>2024-05-07T14:52:54Z</time>
      </trkpt>
      <trkpt lat="47.58244" lon="-3.02699">
        <ele>6.4</ele>
        <time>2024-05-07T14:52:55Z</time>
      </trkpt>
      <trkpt lat="47.58245" lon="-3.02701">
        <ele>6.4</ele>
        <time>2024-05-07T14:52:56Z</time>
      </trkpt>
      <trkpt lat="47.58246" lon="-3.02702">
        <ele>6.4</ele>
        <time>2024-05-07T14:52:57Z</time>
      </trkpt>
      <trkpt lat="47.58247" lon="-3.02703">
        <ele>6.2</ele>
        <time>2024-05-07T14:52:58Z</time>
      </trkpt>
      <trkpt lat="47.58248" lon="-3.02703">
        <ele>6.2</ele>
        <time>2024-05-07T14:52:59Z</time>
      </trkpt>
      <trkpt lat="47.5825" lon="-3.02702">
        <ele>6.2</ele>
        <time>2024-05-07T14:53:00Z</time>
      </trkpt>
      <trkpt lat="47.58251" lon="-3.02702">
        <ele>6.2</ele>
        <time>2024-05-07T14:53:01Z</time>
      </trkpt>
      <trkpt lat="47.58252" lon="-3.02701">
        <ele>6</ele>
        <time>2024-05-07T14:53:02Z</time>
      </trkpt>
      <trkpt lat="47.58253" lon="-3.02701">
        <ele>6</ele>
        <time>2024-05-07T14:53:03Z</time>
      </trkpt>
      <trkpt lat="47.58255" lon="-3.02701">
        <ele>6</ele>
        <time>2024-05-07T14:53:04Z</time>
      </trkpt>
      <trkpt lat="47.58256" lon="-3.02701">
        <ele>6</ele>
        <time>2024-05-07T14:53:05Z</time>
      </trkpt>
      <trkpt lat="47.58257" lon="-3.02701">
        <ele>5.8</ele>
        <time>2024-05-07T14:53:06Z</time>
      </trkpt>
      <trkpt lat="47.58258" lon="-3.027">
        <ele>5.8</ele>
        <time>2024-05-07T14:53:07Z</time>
      </trkpt>
      <trkpt lat="47.5826" lon="-3.02701">
        <ele>5.6</ele>
        <time>2024-05-07T14:53:08Z</time>
      </trkpt>
      <trkpt lat="47.58261" lon="-3.02701">
        <ele>5.6</ele>
        <time>2024-05-07T14:53:09Z</time>
      </trkpt>
      <trkpt lat="47.58262" lon="-3.02701">
        <ele>5.6</ele>
        <time>2024-05-07T14:53:10Z</time>
      </trkpt>
      <trkpt lat="47.58264" lon="-3.027">
        <ele>5.4</ele>
        <time>2024-05-07T14:53:11Z</time>
      </trkpt>
      <trkpt lat="47.58266" lon="-3.027">
        <ele>5.4</ele>
        <time>2024-05-07T14:53:12Z</time>
      </trkpt>
      <trkpt lat="47.58266" lon="-3.027">
        <ele>5.6</ele>
        <time>2024-05-07T14:53:13Z</time>
      </trkpt>
      <trkpt lat="47.58267" lon="-3.027">
        <ele>5.6</ele>
        <time>2024-05-07T14:53:14Z</time>
      </trkpt>
      <trkpt lat="47.58268" lon="-3.02699">
        <ele>5.6</ele>
        <time>2024-05-07T14:53:15Z</time>
      </trkpt>
      <trkpt lat="47.5827" lon="-3.02698">
        <ele>5.6</ele>
        <time>2024-05-07T14:53:16Z</time>
      </trkpt>
      <trkpt lat="47.58272" lon="-3.02697">
        <ele>5.6</ele>
        <time>2024-05-07T14:53:17Z</time>
      </trkpt>
      <trkpt lat="47.58273" lon="-3.02697">
        <ele>5.6</ele>
        <time>2024-05-07T14:53:18Z</time>
      </trkpt>
      <trkpt lat="47.58274" lon="-3.02697">
        <ele>5.6</ele>
        <time>2024-05-07T14:53:19Z</time>
      </trkpt>
      <trkpt lat="47.58275" lon="-3.02697">
        <ele>5.8</ele>
        <time>2024-05-07T14:53:20Z</time>
      </trkpt>
      <trkpt lat="47.58276" lon="-3.02697">
        <ele>5.8</ele>
        <time>2024-05-07T14:53:21Z</time>
      </trkpt>
      <trkpt lat="47.58277" lon="-3.02697">
        <ele>5.8</ele>
        <time>2024-05-07T14:53:22Z</time>
      </trkpt>
      <trkpt lat="47.58278" lon="-3.02697">
        <ele>6</ele>
        <time>2024-05-07T14:53:23Z</time>
      </trkpt>
      <trkpt lat="47.58279" lon="-3.02697">
        <ele>6</ele>
        <time>2024-05-07T14:53:24Z</time>
      </trkpt>
      <trkpt lat="47.5828" lon="-3.02697">
        <ele>6</ele>
        <time>2024-05-07T14:53:25Z</time>
      </trkpt>
      <trkpt lat="47.58281" lon="-3.02697">
        <ele>6</ele>
        <time>2024-05-07T14:53:26Z</time>
      </trkpt>
      <trkpt lat="47.58282" lon="-3.02697">
        <ele>6.2</ele>
        <time>2024-05-07T14:53:27Z</time>
      </trkpt>
      <trkpt lat="47.58283" lon="-3.02697">
        <ele>6.2</ele>
        <time>2024-05-07T14:53:28Z</time>
      </trkpt>
      <trkpt lat="47.58284" lon="-3.02697">
        <ele>6.2</ele>
        <time>2024-05-07T14:53:29Z</time>
      </trkpt>
      <trkpt lat="47.58286" lon="-3.02697">
        <ele>6.2</ele>
        <time>2024-05-07T14:53:30Z</time>
      </trkpt>
      <trkpt lat="47.58287" lon="-3.02697">
        <ele>6.2</ele>
        <time>2024-05-07T14:53:31Z</time>
      </trkpt>
      <trkpt lat="47.58289" lon="-3.02697">
        <ele>6.2</ele>
        <time>2024-05-07T14:53:32Z</time>
      </trkpt>
      <trkpt lat="47.5829" lon="-3.02698">
        <ele>6.2</ele>
        <time>2024-05-07T14:53:33Z</time>
      </trkpt>
      <trkpt lat="47.58291" lon="-3.02698">
        <ele>6</ele>
        <time>2024-05-07T14:53:34Z</time>
      </trkpt>
      <trkpt lat="47.58293" lon="-3.02698">
        <ele>6</ele>
        <time>2024-05-07T14:53:35Z</time>
      </trkpt>
      <trkpt lat="47.58294" lon="-3.02698">
        <ele>6</ele>
        <time>2024-05-07T14:53:36Z</time>
      </trkpt>
      <trkpt lat="47.58295" lon="-3.02698">
        <ele>6</ele>
        <time>2024-05-07T14:53:37Z</time>
      </trkpt>
      <trkpt lat="47.58297" lon="-3.02698">
        <ele>6</ele>
        <time>2024-05-07T14:53:38Z</time>
      </trkpt>
      <trkpt lat="47.58298" lon="-3.02698">
        <ele>6</ele>
        <time>2024-05-07T14:53:39Z</time>
      </trkpt>
      <trkpt lat="47.58299" lon="-3.02699">
        <ele>6</ele>
        <time>2024-05-07T14:53:40Z</time>
      </trkpt>
      <trkpt lat="47.58301" lon="-3.02698">
        <ele>6</ele>
        <time>2024-05-07T14:53:41Z</time>
      </trkpt>
      <trkpt lat="47.58302" lon="-3.02698">
        <ele>6</ele>
        <time>2024-05-07T14:53:42Z</time>
      </trkpt>
      <trkpt lat="47.58303" lon="-3.02699">
        <ele>6</ele>
        <time>2024-05-07T14:53:43Z</time>
      </trkpt>
      <trkpt lat="47.58304" lon="-3.02699">
        <ele>6</ele>
        <time>2024-05-07T14:53:44Z</time>
      </trkpt>
      <trkpt lat="47.58305" lon="-3.02698">
        <ele>6</ele>
        <time>2024-05-07T14:53:45Z</time>
      </trkpt>
      <trkpt lat="47.58307" lon="-3.02697">
        <ele>6</ele>
        <time>2024-05-07T14:53:46Z</time>
      </trkpt>
      <trkpt lat="47.58308" lon="-3.02697">
        <ele>6</ele>
        <time>2024-05-07T14:53:47Z</time>
      </trkpt>
      <trkpt lat="47.5831" lon="-3.02697">
        <ele>6</ele>
        <time>2024-05-07T14:53:48Z</time>
      </trkpt>
      <trkpt lat="47.58312" lon="-3.02697">
        <ele>6</ele>
        <time>2024-05-07T14:53:49Z</time>
      </trkpt>
      <trkpt lat="47.58313" lon="-3.02697">
        <ele>6</ele>
        <time>2024-05-07T14:53:50Z</time>
      </trkpt>
      <trkpt lat="47.58314" lon="-3.02697">
        <ele>6</ele>
        <time>2024-05-07T14:53:51Z</time>
      </trkpt>
      <trkpt lat="47.58315" lon="-3.02697">
        <ele>6</ele>
        <time>2024-05-07T14:53:52Z</time>
      </trkpt>
      <trkpt lat="47.58317" lon="-3.02697">
        <ele>6</ele>
        <time>2024-05-07T14:53:53Z</time>
      </trkpt>
      <trkpt lat="47.58319" lon="-3.02697">
        <ele>6</ele>
        <time>2024-05-07T14:53:54Z</time>
      </trkpt>
      <trkpt lat="47.5832" lon="-3.02697">
        <ele>6</ele>
        <time>2024-05-07T14:53:55Z</time>
      </trkpt>
      <trkpt lat="47.58321" lon="-3.02696">
        <ele>6</ele>
        <time>2024-05-07T14:53:56Z</time>
      </trkpt>
      <trkpt lat="47.58322" lon="-3.02695">
        <ele>6</ele>
        <time>2024-05-07T14:53:57Z</time>
      </trkpt>
      <trkpt lat="47.58323" lon="-3.02693">
        <ele>5.8</ele>
        <time>2024-05-07T14:53:58Z</time>
      </trkpt>
      <trkpt lat="47.58324" lon="-3.02691">
        <ele>5.8</ele>
        <time>2024-05-07T14:53:59Z</time>
      </trkpt>
      <trkpt lat="47.58325" lon="-3.0269">
        <ele>5.8</ele>
        <time>2024-05-07T14:54:00Z</time>
      </trkpt>
      <trkpt lat="47.58326" lon="-3.02689">
        <ele>5.8</ele>
        <time>2024-05-07T14:54:01Z</time>
      </trkpt>
      <trkpt lat="47.58327" lon="-3.02688">
        <ele>5.8</ele>
        <time>2024-05-07T14:54:02Z</time>
      </trkpt>
      <trkpt lat="47.58327" lon="-3.02686">
        <ele>5.8</ele>
        <time>2024-05-07T14:54:03Z</time>
      </trkpt>
      <trkpt lat="47.58327" lon="-3.02685">
        <ele>5.8</ele>
        <time>2024-05-07T14:54:04Z</time>
      </trkpt>
      <trkpt lat="47.58328" lon="-3.02684">
        <ele>5.8</ele>
        <time>2024-05-07T14:54:05Z</time>
      </trkpt>
      <trkpt lat="47.58329" lon="-3.02683">
        <ele>5.8</ele>
        <time>2024-05-07T14:54:06Z</time>
      </trkpt>
      <trkpt lat="47.5833" lon="-3.02683">
        <ele>6</ele>
        <time>2024-05-07T14:54:07Z</time>
      </trkpt>
      <trkpt lat="47.58332" lon="-3.02682">
        <ele>6</ele>
        <time>2024-05-07T14:54:08Z</time>
      </trkpt>
      <trkpt lat="47.58334" lon="-3.02682">
        <ele>6</ele>
        <time>2024-05-07T14:54:09Z</time>
      </trkpt>
      <trkpt lat="47.58335" lon="-3.02683">
        <ele>6</ele>
        <time>2024-05-07T14:54:10Z</time>
      </trkpt>
      <trkpt lat="47.58336" lon="-3.02684">
        <ele>6</ele>
        <time>2024-05-07T14:54:11Z</time>
      </trkpt>
      <trkpt lat="47.58337" lon="-3.02685">
        <ele>6.2</ele>
        <time>2024-05-07T14:54:12Z</time>
      </trkpt>
      <trkpt lat="47.58338" lon="-3.02686">
        <ele>6.2</ele>
        <time>2024-05-07T14:54:13Z</time>
      </trkpt>
      <trkpt lat="47.58339" lon="-3.02686">
        <ele>6.2</ele>
        <time>2024-05-07T14:54:14Z</time>
      </trkpt>
      <trkpt lat="47.5834" lon="-3.02687">
        <ele>6.4</ele>
        <time>2024-05-07T14:54:15Z</time>
      </trkpt>
      <trkpt lat="47.58341" lon="-3.02687">
        <ele>6.4</ele>
        <time>2024-05-07T14:54:16Z</time>
      </trkpt>
      <trkpt lat="47.58342" lon="-3.02687">
        <ele>6.4</ele>
        <time>2024-05-07T14:54:17Z</time>
      </trkpt>
      <trkpt lat="47.58343" lon="-3.02687">
        <ele>6.4</ele>
        <time>2024-05-07T14:54:18Z</time>
      </trkpt>
      <trkpt lat="47.58345" lon="-3.02687">
        <ele>6.6</ele>
        <time>2024-05-07T14:54:19Z</time>
      </trkpt>
      <trkpt lat="47.58347" lon="-3.02686">
        <ele>6.6</ele>
        <time>2024-05-07T14:54:20Z</time>
      </trkpt>
      <trkpt lat="47.58349" lon="-3.02686">
        <ele>6.6</ele>
        <time>2024-05-07T14:54:21Z</time>
      </trkpt>
      <trkpt lat="47.5835" lon="-3.02685">
        <ele>6.6</ele>
        <time>2024-05-07T14:54:22Z</time>
      </trkpt>
      <trkpt lat="47.58351" lon="-3.02685">
        <ele>6.6</ele>
        <time>2024-05-07T14:54:23Z</time>
      </trkpt>
      <trkpt lat="47.58352" lon="-3.02686">
        <ele>6.6</ele>
        <time>2024-05-07T14:54:24Z</time>
      </trkpt>
      <trkpt lat="47.58353" lon="-3.02688">
        <ele>6.8</ele>
        <time>2024-05-07T14:54:25Z</time>
      </trkpt>
      <trkpt lat="47.58354" lon="-3.02689">
        <ele>6.8</ele>
        <time>2024-05-07T14:54:26Z</time>
      </trkpt>
      <trkpt lat="47.58355" lon="-3.0269">
        <ele>6.8</ele>
        <time>2024-05-07T14:54:27Z</time>
      </trkpt>
      <trkpt lat="47.58355" lon="-3.02691">
        <ele>6.8</ele>
        <time>2024-05-07T14:54:28Z</time>
      </trkpt>
      <trkpt lat="47.58356" lon="-3.02692">
        <ele>6.8</ele>
        <time>2024-05-07T14:54:29Z</time>
      </trkpt>
      <trkpt lat="47.58357" lon="-3.02692">
        <ele>6.8</ele>
        <time>2024-05-07T14:54:30Z</time>
      </trkpt>
      <trkpt lat="47.58357" lon="-3.02692">
        <ele>6.8</ele>
        <time>2024-05-07T14:54:31Z</time>
      </trkpt>
      <trkpt lat="47.58357" lon="-3.02693">
        <ele>6.8</ele>
        <time>2024-05-07T14:54:32Z</time>
      </trkpt>
      <trkpt lat="47.58357" lon="-3.02695">
        <ele>6.8</ele>
        <time>2024-05-07T14:54:33Z</time>
      </trkpt>
      <trkpt lat="47.58358" lon="-3.02696">
        <ele>6.8</ele>
        <time>2024-05-07T14:54:34Z</time>
      </trkpt>
      <trkpt lat="47.58359" lon="-3.02696">
        <ele>6.8</ele>
        <time>2024-05-07T14:54:35Z</time>
      </trkpt>
      <trkpt lat="47.58359" lon="-3.02697">
        <ele>6.8</ele>
        <time>2024-05-07T14:54:36Z</time>
      </trkpt>
      <trkpt lat="47.5836" lon="-3.02697">
        <ele>6.8</ele>
        <time>2024-05-07T14:54:37Z</time>
      </trkpt>
      <trkpt lat="47.58361" lon="-3.02697">
        <ele>6.8</ele>
        <time>2024-05-07T14:54:38Z</time>
      </trkpt>
      <trkpt lat="47.58362" lon="-3.02697">
        <ele>6.8</ele>
        <time>2024-05-07T14:54:39Z</time>
      </trkpt>
      <trkpt lat="47.58364" lon="-3.02697">
        <ele>7</ele>
        <time>2024-05-07T14:54:40Z</time>
      </trkpt>
      <trkpt lat="47.58365" lon="-3.02696">
        <ele>7</ele>
        <time>2024-05-07T14:54:41Z</time>
      </trkpt>
      <trkpt lat="47.58366" lon="-3.02696">
        <ele>7.2</ele>
        <time>2024-05-07T14:54:42Z</time>
      </trkpt>
      <trkpt lat="47.58367" lon="-3.02696">
        <ele>7.2</ele>
        <time>2024-05-07T14:54:43Z</time>
      </trkpt>
      <trkpt lat="47.58368" lon="-3.02694">
        <ele>7.4</ele>
        <time>2024-05-07T14:54:44Z</time>
      </trkpt>
      <trkpt lat="47.58369" lon="-3.02694">
        <ele>7.6</ele>
        <time>2024-05-07T14:54:45Z</time>
      </trkpt>
      <trkpt lat="47.5837" lon="-3.02693">
        <ele>7.8</ele>
        <time>2024-05-07T14:54:46Z</time>
      </trkpt>
      <trkpt lat="47.5837" lon="-3.02694">
        <ele>8</ele>
        <time>2024-05-07T14:54:47Z</time>
      </trkpt>
      <trkpt lat="47.58372" lon="-3.02694">
        <ele>8.2</ele>
        <time>2024-05-07T14:54:48Z</time>
      </trkpt>
      <trkpt lat="47.58373" lon="-3.02693">
        <ele>8.2</ele>
        <time>2024-05-07T14:54:49Z</time>
      </trkpt>
      <trkpt lat="47.58374" lon="-3.02693">
        <ele>8.4</ele>
        <time>2024-05-07T14:54:50Z</time>
      </trkpt>
      <trkpt lat="47.58375" lon="-3.02693">
        <ele>8.4</ele>
        <time>2024-05-07T14:54:51Z</time>
      </trkpt>
      <trkpt lat="47.58376" lon="-3.02693">
        <ele>8.4</ele>
        <time>2024-05-07T14:54:52Z</time>
      </trkpt>
      <trkpt lat="47.58377" lon="-3.02693">
        <ele>8.6</ele>
        <time>2024-05-07T14:54:53Z</time>
      </trkpt>
      <trkpt lat="47.58378" lon="-3.02693">
        <ele>8.6</ele>
        <time>2024-05-07T14:54:54Z</time>
      </trkpt>
      <trkpt lat="47.58379" lon="-3.02693">
        <ele>8.6</ele>
        <time>2024-05-07T14:54:55Z</time>
      </trkpt>
      <trkpt lat="47.58381" lon="-3.02693">
        <ele>8.6</ele>
        <time>2024-05-07T14:54:56Z</time>
      </trkpt>
      <trkpt lat="47.58382" lon="-3.02693">
        <ele>8.6</ele>
        <time>2024-05-07T14:54:57Z</time>
      </trkpt>
      <trkpt lat="47.58383" lon="-3.02693">
        <ele>8.6</ele>
        <time>2024-05-07T14:54:58Z</time>
      </trkpt>
      <trkpt lat="47.58384" lon="-3.02693">
        <ele>8.6</ele>
        <time>2024-05-07T14:54:59Z</time>
      </trkpt>
      <trkpt lat="47.58386" lon="-3.02693">
        <ele>8.6</ele>
        <time>2024-05-07T14:55:00Z</time>
      </trkpt>
      <trkpt lat="47.58386" lon="-3.02693">
        <ele>8.6</ele>
        <time>2024-05-07T14:55:01Z</time>
      </trkpt>
      <trkpt lat="47.58387" lon="-3.02693">
        <ele>8.4</ele>
        <time>2024-05-07T14:55:02Z</time>
      </trkpt>
      <trkpt lat="47.58388" lon="-3.02694">
        <ele>8.4</ele>
        <time>2024-05-07T14:55:03Z</time>
      </trkpt>
      <trkpt lat="47.58389" lon="-3.02694">
        <ele>8.2</ele>
        <time>2024-05-07T14:55:04Z</time>
      </trkpt>
      <trkpt lat="47.5839" lon="-3.02694">
        <ele>8.2</ele>
        <time>2024-05-07T14:55:05Z</time>
      </trkpt>
      <trkpt lat="47.58392" lon="-3.02693">
        <ele>8.2</ele>
        <time>2024-05-07T14:55:06Z</time>
      </trkpt>
      <trkpt lat="47.58393" lon="-3.02693">
        <ele>8</ele>
        <time>2024-05-07T14:55:07Z</time>
      </trkpt>
      <trkpt lat="47.58394" lon="-3.02693">
        <ele>8</ele>
        <time>2024-05-07T14:55:08Z</time>
      </trkpt>
      <trkpt lat="47.58396" lon="-3.02693">
        <ele>8</ele>
        <time>2024-05-07T14:55:09Z</time>
      </trkpt>
      <trkpt lat="47.58397" lon="-3.02693">
        <ele>8</ele>
        <time>2024-05-07T14:55:10Z</time>
      </trkpt>
      <trkpt lat="47.58398" lon="-3.02693">
        <ele>8</ele>
        <time>2024-05-07T14:55:11Z</time>
      </trkpt>
      <trkpt lat="47.58399" lon="-3.02692">
        <ele>7.8</ele>
        <time>2024-05-07T14:55:12Z</time>
      </trkpt>
      <trkpt lat="47.584" lon="-3.02692">
        <ele>7.8</ele>
        <time>2024-05-07T14:55:13Z</time>
      </trkpt>
      <trkpt lat="47.58401" lon="-3.02692">
        <ele>7.6</ele>
        <time>2024-05-07T14:55:14Z</time>
      </trkpt>
      <trkpt lat="47.58403" lon="-3.02692">
        <ele>7.6</ele>
        <time>2024-05-07T14:55:15Z</time>
      </trkpt>
      <trkpt lat="47.58404" lon="-3.02692">
        <ele>7.4</ele>
        <time>2024-05-07T14:55:16Z</time>
      </trkpt>
      <trkpt lat="47.58405" lon="-3.02692">
        <ele>7.4</ele>
        <time>2024-05-07T14:55:17Z</time>
      </trkpt>
      <trkpt lat="47.58406" lon="-3.02691">
        <ele>7.2</ele>
        <time>2024-05-07T14:55:18Z</time>
      </trkpt>
      <trkpt lat="47.58407" lon="-3.02691">
        <ele>7.2</ele>
        <time>2024-05-07T14:55:19Z</time>
      </trkpt>
      <trkpt lat="47.58408" lon="-3.0269">
        <ele>7.2</ele>
        <time>2024-05-07T14:55:20Z</time>
      </trkpt>
      <trkpt lat="47.5841" lon="-3.02689">
        <ele>6.8</ele>
        <time>2024-05-07T14:55:21Z</time>
      </trkpt>
      <trkpt lat="47.58411" lon="-3.02689">
        <ele>6.8</ele>
        <time>2024-05-07T14:55:22Z</time>
      </trkpt>
      <trkpt lat="47.58412" lon="-3.02688">
        <ele>6.6</ele>
        <time>2024-05-07T14:55:23Z</time>
      </trkpt>
      <trkpt lat="47.58414" lon="-3.02688">
        <ele>6.4</ele>
        <time>2024-05-07T14:55:24Z</time>
      </trkpt>
      <trkpt lat="47.58415" lon="-3.02687">
        <ele>6.2</ele>
        <time>2024-05-07T14:55:25Z</time>
      </trkpt>
      <trkpt lat="47.58416" lon="-3.02687">
        <ele>5.8</ele>
        <time>2024-05-07T14:55:26Z</time>
      </trkpt>
      <trkpt lat="47.58418" lon="-3.02687">
        <ele>5.6</ele>
        <time>2024-05-07T14:55:27Z</time>
      </trkpt>
      <trkpt lat="47.58419" lon="-3.02687">
        <ele>5</ele>
        <time>2024-05-07T14:55:28Z</time>
      </trkpt>
      <trkpt lat="47.5842" lon="-3.02687">
        <ele>4.8</ele>
        <time>2024-05-07T14:55:29Z</time>
      </trkpt>
      <trkpt lat="47.58422" lon="-3.02686">
        <ele>4.6</ele>
        <time>2024-05-07T14:55:30Z</time>
      </trkpt>
      <trkpt lat="47.58423" lon="-3.02685">
        <ele>4.4</ele>
        <time>2024-05-07T14:55:31Z</time>
      </trkpt>
      <trkpt lat="47.58425" lon="-3.02685">
        <ele>4.4</ele>
        <time>2024-05-07T14:55:32Z</time>
      </trkpt>
      <trkpt lat="47.58426" lon="-3.02684">
        <ele>4.2</ele>
        <time>2024-05-07T14:55:33Z</time>
      </trkpt>
      <trkpt lat="47.58427" lon="-3.02684">
        <ele>4.2</ele>
        <time>2024-05-07T14:55:34Z</time>
      </trkpt>
      <trkpt lat="47.58428" lon="-3.02684">
        <ele>4.2</ele>
        <time>2024-05-07T14:55:35Z</time>
      </trkpt>
      <trkpt lat="47.5843" lon="-3.02685">
        <ele>4.2</ele>
        <time>2024-05-07T14:55:36Z</time>
      </trkpt>
      <trkpt lat="47.58432" lon="-3.02685">
        <ele>4</ele>
        <time>2024-05-07T14:55:37Z</time>
      </trkpt>
      <trkpt lat="47.58433" lon="-3.02685">
        <ele>3.8</ele>
        <time>2024-05-07T14:55:38Z</time>
      </trkpt>
      <trkpt lat="47.58434" lon="-3.02685">
        <ele>3.4</ele>
        <time>2024-05-07T14:55:39Z</time>
      </trkpt>
      <trkpt lat="47.58435" lon="-3.02685">
        <ele>3.2</ele>
        <time>2024-05-07T14:55:40Z</time>
      </trkpt>
      <trkpt lat="47.58436" lon="-3.02685">
        <ele>3</ele>
        <time>2024-05-07T14:55:41Z</time>
      </trkpt>
      <trkpt lat="47.58437" lon="-3.02685">
        <ele>3</ele>
        <time>2024-05-07T14:55:42Z</time>
      </trkpt>
      <trkpt lat="47.58438" lon="-3.02685">
        <ele>3</ele>
        <time>2024-05-07T14:55:43Z</time>
      </trkpt>
      <trkpt lat="47.58439" lon="-3.02685">
        <ele>2.8</ele>
        <time>2024-05-07T14:55:44Z</time>
      </trkpt>
      <trkpt lat="47.58441" lon="-3.02684">
        <ele>2.8</ele>
        <time>2024-05-07T14:55:45Z</time>
      </trkpt>
      <trkpt lat="47.58442" lon="-3.02683">
        <ele>2.6</ele>
        <time>2024-05-07T14:55:46Z</time>
      </trkpt>
      <trkpt lat="47.58443" lon="-3.02683">
        <ele>2.6</ele>
        <time>2024-05-07T14:55:47Z</time>
      </trkpt>
      <trkpt lat="47.58444" lon="-3.02682">
        <ele>2.6</ele>
        <time>2024-05-07T14:55:48Z</time>
      </trkpt>
      <trkpt lat="47.58445" lon="-3.02682">
        <ele>2.6</ele>
        <time>2024-05-07T14:55:49Z</time>
      </trkpt>
      <trkpt lat="47.58447" lon="-3.02681">
        <ele>2.6</ele>
        <time>2024-05-07T14:55:50Z</time>
      </trkpt>
      <trkpt lat="47.58448" lon="-3.02681">
        <ele>2.6</ele>
        <time>2024-05-07T14:55:51Z</time>
      </trkpt>
      <trkpt lat="47.58449" lon="-3.02681">
        <ele>2.6</ele>
        <time>2024-05-07T14:55:52Z</time>
      </trkpt>
      <trkpt lat="47.5845" lon="-3.02681">
        <ele>2.6</ele>
        <time>2024-05-07T14:55:53Z</time>
      </trkpt>
      <trkpt lat="47.58452" lon="-3.0268">
        <ele>2.6</ele>
        <time>2024-05-07T14:55:54Z</time>
      </trkpt>
      <trkpt lat="47.58453" lon="-3.0268">
        <ele>2.6</ele>
        <time>2024-05-07T14:55:55Z</time>
      </trkpt>
      <trkpt lat="47.58454" lon="-3.02679">
        <ele>2.6</ele>
        <time>2024-05-07T14:55:56Z</time>
      </trkpt>
      <trkpt lat="47.58456" lon="-3.0268">
        <ele>2.6</ele>
        <time>2024-05-07T14:55:57Z</time>
      </trkpt>
      <trkpt lat="47.58457" lon="-3.02679">
        <ele>2.6</ele>
        <time>2024-05-07T14:55:58Z</time>
      </trkpt>
      <trkpt lat="47.58458" lon="-3.02678">
        <ele>2.6</ele>
        <time>2024-05-07T14:55:59Z</time>
      </trkpt>
      <trkpt lat="47.5846" lon="-3.02678">
        <ele>2.8</ele>
        <time>2024-05-07T14:56:00Z</time>
      </trkpt>
      <trkpt lat="47.58461" lon="-3.02677">
        <ele>2.8</ele>
        <time>2024-05-07T14:56:01Z</time>
      </trkpt>
      <trkpt lat="47.58462" lon="-3.02677">
        <ele>2.8</ele>
        <time>2024-05-07T14:56:02Z</time>
      </trkpt>
      <trkpt lat="47.58463" lon="-3.02676">
        <ele>2.8</ele>
        <time>2024-05-07T14:56:03Z</time>
      </trkpt>
      <trkpt lat="47.58465" lon="-3.02677">
        <ele>2.8</ele>
        <time>2024-05-07T14:56:04Z</time>
      </trkpt>
      <trkpt lat="47.58466" lon="-3.02677">
        <ele>3</ele>
        <time>2024-05-07T14:56:05Z</time>
      </trkpt>
      <trkpt lat="47.58467" lon="-3.02677">
        <ele>3</ele>
        <time>2024-05-07T14:56:06Z</time>
      </trkpt>
      <trkpt lat="47.58468" lon="-3.02677">
        <ele>3</ele>
        <time>2024-05-07T14:56:07Z</time>
      </trkpt>
      <trkpt lat="47.58469" lon="-3.02677">
        <ele>3</ele>
        <time>2024-05-07T14:56:08Z</time>
      </trkpt>
      <trkpt lat="47.58471" lon="-3.02676">
        <ele>3</ele>
        <time>2024-05-07T14:56:09Z</time>
      </trkpt>
      <trkpt lat="47.58472" lon="-3.02676">
        <ele>3</ele>
        <time>2024-05-07T14:56:10Z</time>
      </trkpt>
      <trkpt lat="47.58473" lon="-3.02676">
        <ele>3</ele>
        <time>2024-05-07T14:56:11Z</time>
      </trkpt>
      <trkpt lat="47.58474" lon="-3.02676">
        <ele>3</ele>
        <time>2024-05-07T14:56:12Z</time>
      </trkpt>
      <trkpt lat="47.58475" lon="-3.02676">
        <ele>3</ele>
        <time>2024-05-07T14:56:13Z</time>
      </trkpt>
      <trkpt lat="47.58477" lon="-3.02675">
        <ele>3</ele>
        <time>2024-05-07T14:56:14Z</time>
      </trkpt>
      <trkpt lat="47.58478" lon="-3.02675">
        <ele>3</ele>
        <time>2024-05-07T14:56:15Z</time>
      </trkpt>
      <trkpt lat="47.58479" lon="-3.02675">
        <ele>3</ele>
        <time>2024-05-07T14:56:16Z</time>
      </trkpt>
      <trkpt lat="47.5848" lon="-3.02674">
        <ele>3</ele>
        <time>2024-05-07T14:56:17Z</time>
      </trkpt>
      <trkpt lat="47.58481" lon="-3.02675">
        <ele>3</ele>
        <time>2024-05-07T14:56:18Z</time>
      </trkpt>
      <trkpt lat="47.58482" lon="-3.02675">
        <ele>3</ele>
        <time>2024-05-07T14:56:19Z</time>
      </trkpt>
      <trkpt lat="47.58483" lon="-3.02675">
        <ele>3</ele>
        <time>2024-05-07T14:56:20Z</time>
      </trkpt>
      <trkpt lat="47.58485" lon="-3.02675">
        <ele>3.2</ele>
        <time>2024-05-07T14:56:21Z</time>
      </trkpt>
      <trkpt lat="47.58486" lon="-3.02674">
        <ele>3.2</ele>
        <time>2024-05-07T14:56:22Z</time>
      </trkpt>
      <trkpt lat="47.58487" lon="-3.02673">
        <ele>3.2</ele>
        <time>2024-05-07T14:56:23Z</time>
      </trkpt>
      <trkpt lat="47.58489" lon="-3.02673">
        <ele>3.2</ele>
        <time>2024-05-07T14:56:24Z</time>
      </trkpt>
      <trkpt lat="47.5849" lon="-3.02674">
        <ele>3.2</ele>
        <time>2024-05-07T14:56:25Z</time>
      </trkpt>
      <trkpt lat="47.58491" lon="-3.02673">
        <ele>3.2</ele>
        <time>2024-05-07T14:56:26Z</time>
      </trkpt>
      <trkpt lat="47.58493" lon="-3.02672">
        <ele>3.2</ele>
        <time>2024-05-07T14:56:27Z</time>
      </trkpt>
      <trkpt lat="47.58494" lon="-3.02672">
        <ele>3.2</ele>
        <time>2024-05-07T14:56:28Z</time>
      </trkpt>
      <trkpt lat="47.58496" lon="-3.02672">
        <ele>3.2</ele>
        <time>2024-05-07T14:56:29Z</time>
      </trkpt>
      <trkpt lat="47.58496" lon="-3.02672">
        <ele>3.2</ele>
        <time>2024-05-07T14:56:30Z</time>
      </trkpt>
      <trkpt lat="47.58497" lon="-3.02671">
        <ele>3</ele>
        <time>2024-05-07T14:56:31Z</time>
      </trkpt>
      <trkpt lat="47.58498" lon="-3.02671">
        <ele>3</ele>
        <time>2024-05-07T14:56:32Z</time>
      </trkpt>
      <trkpt lat="47.58499" lon="-3.02671">
        <ele>3</ele>
        <time>2024-05-07T14:56:33Z</time>
      </trkpt>
      <trkpt lat="47.585" lon="-3.0267">
        <ele>3</ele>
        <time>2024-05-07T14:56:34Z</time>
      </trkpt>
      <trkpt lat="47.58501" lon="-3.0267">
        <ele>3</ele>
        <time>2024-05-07T14:56:35Z</time>
      </trkpt>
      <trkpt lat="47.58503" lon="-3.0267">
        <ele>2.8</ele>
        <time>2024-05-07T14:56:36Z</time>
      </trkpt>
      <trkpt lat="47.58504" lon="-3.0267">
        <ele>2.8</ele>
        <time>2024-05-07T14:56:37Z</time>
      </trkpt>
      <trkpt lat="47.58505" lon="-3.02669">
        <ele>2.8</ele>
        <time>2024-05-07T14:56:38Z</time>
      </trkpt>
      <trkpt lat="47.58507" lon="-3.02669">
        <ele>2.8</ele>
        <time>2024-05-07T14:56:39Z</time>
      </trkpt>
      <trkpt lat="47.58508" lon="-3.02669">
        <ele>2.8</ele>
        <time>2024-05-07T14:56:40Z</time>
      </trkpt>
      <trkpt lat="47.58509" lon="-3.02669">
        <ele>2.8</ele>
        <time>2024-05-07T14:56:41Z</time>
      </trkpt>
      <trkpt lat="47.5851" lon="-3.02668">
        <ele>2.8</ele>
        <time>2024-05-07T14:56:42Z</time>
      </trkpt>
      <trkpt lat="47.58511" lon="-3.02667">
        <ele>2.8</ele>
        <time>2024-05-07T14:56:43Z</time>
      </trkpt>
      <trkpt lat="47.58512" lon="-3.02667">
        <ele>2.8</ele>
        <time>2024-05-07T14:56:44Z</time>
      </trkpt>
      <trkpt lat="47.58514" lon="-3.02666">
        <ele>2.8</ele>
        <time>2024-05-07T14:56:45Z</time>
      </trkpt>
      <trkpt lat="47.58515" lon="-3.02666">
        <ele>2.8</ele>
        <time>2024-05-07T14:56:46Z</time>
      </trkpt>
      <trkpt lat="47.58516" lon="-3.02666">
        <ele>2.8</ele>
        <time>2024-05-07T14:56:47Z</time>
      </trkpt>
      <trkpt lat="47.58518" lon="-3.02666">
        <ele>2.8</ele>
        <time>2024-05-07T14:56:48Z</time>
      </trkpt>
      <trkpt lat="47.58519" lon="-3.02666">
        <ele>2.8</ele>
        <time>2024-05-07T14:56:49Z</time>
      </trkpt>
      <trkpt lat="47.5852" lon="-3.02666">
        <ele>2.8</ele>
        <time>2024-05-07T14:56:50Z</time>
      </trkpt>
      <trkpt lat="47.58521" lon="-3.02666">
        <ele>2.8</ele>
        <time>2024-05-07T14:56:51Z</time>
      </trkpt>
      <trkpt lat="47.58523" lon="-3.02665">
        <ele>2.8</ele>
        <time>2024-05-07T14:56:52Z</time>
      </trkpt>
      <trkpt lat="47.58524" lon="-3.02665">
        <ele>2.8</ele>
        <time>2024-05-07T14:56:53Z</time>
      </trkpt>
      <trkpt lat="47.58527" lon="-3.02664">
        <ele>2.8</ele>
        <time>2024-05-07T14:56:54Z</time>
      </trkpt>
      <trkpt lat="47.58529" lon="-3.02663">
        <ele>2.8</ele>
        <time>2024-05-07T14:56:55Z</time>
      </trkpt>
      <trkpt lat="47.5853" lon="-3.02662">
        <ele>2.6</ele>
        <time>2024-05-07T14:56:56Z</time>
      </trkpt>
      <trkpt lat="47.58532" lon="-3.02661">
        <ele>2.6</ele>
        <time>2024-05-07T14:56:57Z</time>
      </trkpt>
      <trkpt lat="47.58533" lon="-3.02661">
        <ele>2.6</ele>
        <time>2024-05-07T14:56:58Z</time>
      </trkpt>
      <trkpt lat="47.58533" lon="-3.0266">
        <ele>2.4</ele>
        <time>2024-05-07T14:56:59Z</time>
      </trkpt>
      <trkpt lat="47.58534" lon="-3.0266">
        <ele>2.4</ele>
        <time>2024-05-07T14:57:00Z</time>
      </trkpt>
      <trkpt lat="47.58536" lon="-3.02659">
        <ele>2.2</ele>
        <time>2024-05-07T14:57:01Z</time>
      </trkpt>
      <trkpt lat="47.58537" lon="-3.02658">
        <ele>2.2</ele>
        <time>2024-05-07T14:57:02Z</time>
      </trkpt>
      <trkpt lat="47.58538" lon="-3.02658">
        <ele>2</ele>
        <time>2024-05-07T14:57:03Z</time>
      </trkpt>
      <trkpt lat="47.58539" lon="-3.02657">
        <ele>2</ele>
        <time>2024-05-07T14:57:04Z</time>
      </trkpt>
      <trkpt lat="47.5854" lon="-3.02656">
        <ele>1.8</ele>
        <time>2024-05-07T14:57:05Z</time>
      </trkpt>
      <trkpt lat="47.58541" lon="-3.02655">
        <ele>1.8</ele>
        <time>2024-05-07T14:57:06Z</time>
      </trkpt>
      <trkpt lat="47.58543" lon="-3.02655">
        <ele>1.8</ele>
        <time>2024-05-07T14:57:07Z</time>
      </trkpt>
      <trkpt lat="47.58545" lon="-3.02655">
        <ele>2.2</ele>
        <time>2024-05-07T14:57:08Z</time>
      </trkpt>
      <trkpt lat="47.58546" lon="-3.02655">
        <ele>2</ele>
        <time>2024-05-07T14:57:09Z</time>
      </trkpt>
      <trkpt lat="47.58547" lon="-3.02656">
        <ele>2.2</ele>
        <time>2024-05-07T14:57:10Z</time>
      </trkpt>
      <trkpt lat="47.58548" lon="-3.02656">
        <ele>2.2</ele>
        <time>2024-05-07T14:57:11Z</time>
      </trkpt>
      <trkpt lat="47.58549" lon="-3.02656">
        <ele>2.4</ele>
        <time>2024-05-07T14:57:12Z</time>
      </trkpt>
      <trkpt lat="47.5855" lon="-3.02656">
        <ele>2.4</ele>
        <time>2024-05-07T14:57:13Z</time>
      </trkpt>
      <trkpt lat="47.58552" lon="-3.02655">
        <ele>2.4</ele>
        <time>2024-05-07T14:57:14Z</time>
      </trkpt>
      <trkpt lat="47.58553" lon="-3.02655">
        <ele>2.4</ele>
        <time>2024-05-07T14:57:15Z</time>
      </trkpt>
      <trkpt lat="47.58555" lon="-3.02655">
        <ele>2.4</ele>
        <time>2024-05-07T14:57:16Z</time>
      </trkpt>
      <trkpt lat="47.58556" lon="-3.02655">
        <ele>2.4</ele>
        <time>2024-05-07T14:57:17Z</time>
      </trkpt>
      <trkpt lat="47.58557" lon="-3.02656">
        <ele>2.4</ele>
        <time>2024-05-07T14:57:18Z</time>
      </trkpt>
      <trkpt lat="47.58558" lon="-3.02656">
        <ele>2.6</ele>
        <time>2024-05-07T14:57:19Z</time>
      </trkpt>
      <trkpt lat="47.58559" lon="-3.02656">
        <ele>2.6</ele>
        <time>2024-05-07T14:57:20Z</time>
      </trkpt>
      <trkpt lat="47.5856" lon="-3.02656">
        <ele>2.4</ele>
        <time>2024-05-07T14:57:21Z</time>
      </trkpt>
      <trkpt lat="47.58561" lon="-3.02657">
        <ele>2.4</ele>
        <time>2024-05-07T14:57:22Z</time>
      </trkpt>
      <trkpt lat="47.58562" lon="-3.02658">
        <ele>2.4</ele>
        <time>2024-05-07T14:57:23Z</time>
      </trkpt>
      <trkpt lat="47.58563" lon="-3.02659">
        <ele>2.4</ele>
        <time>2024-05-07T14:57:24Z</time>
      </trkpt>
      <trkpt lat="47.58564" lon="-3.02659">
        <ele>2.4</ele>
        <time>2024-05-07T14:57:25Z</time>
      </trkpt>
      <trkpt lat="47.58565" lon="-3.0266">
        <ele>2.6</ele>
        <time>2024-05-07T14:57:26Z</time>
      </trkpt>
      <trkpt lat="47.58565" lon="-3.0266">
        <ele>2.6</ele>
        <time>2024-05-07T14:57:27Z</time>
      </trkpt>
      <trkpt lat="47.58566" lon="-3.02661">
        <ele>2.8</ele>
        <time>2024-05-07T14:57:28Z</time>
      </trkpt>
      <trkpt lat="47.58567" lon="-3.02661">
        <ele>2.8</ele>
        <time>2024-05-07T14:57:29Z</time>
      </trkpt>
      <trkpt lat="47.58568" lon="-3.02662">
        <ele>2.8</ele>
        <time>2024-05-07T14:57:30Z</time>
      </trkpt>
      <trkpt lat="47.5857" lon="-3.02662">
        <ele>2.8</ele>
        <time>2024-05-07T14:57:31Z</time>
      </trkpt>
      <trkpt lat="47.58571" lon="-3.02662">
        <ele>2.8</ele>
        <time>2024-05-07T14:57:32Z</time>
      </trkpt>
      <trkpt lat="47.58572" lon="-3.02663">
        <ele>2.8</ele>
        <time>2024-05-07T14:57:33Z</time>
      </trkpt>
      <trkpt lat="47.58573" lon="-3.02663">
        <ele>2.8</ele>
        <time>2024-05-07T14:57:34Z</time>
      </trkpt>
      <trkpt lat="47.58575" lon="-3.02664">
        <ele>2.8</ele>
        <time>2024-05-07T14:57:35Z</time>
      </trkpt>
      <trkpt lat="47.58576" lon="-3.02665">
        <ele>2.8</ele>
        <time>2024-05-07T14:57:36Z</time>
      </trkpt>
      <trkpt lat="47.58577" lon="-3.02666">
        <ele>2.8</ele>
        <time>2024-05-07T14:57:37Z</time>
      </trkpt>
      <trkpt lat="47.58578" lon="-3.02666">
        <ele>2.8</ele>
        <time>2024-05-07T14:57:38Z</time>
      </trkpt>
      <trkpt lat="47.5858" lon="-3.02667">
        <ele>2.8</ele>
        <time>2024-05-07T14:57:39Z</time>
      </trkpt>
      <trkpt lat="47.5858" lon="-3.02668">
        <ele>2.8</ele>
        <time>2024-05-07T14:57:40Z</time>
      </trkpt>
      <trkpt lat="47.58581" lon="-3.02668">
        <ele>2.8</ele>
        <time>2024-05-07T14:57:41Z</time>
      </trkpt>
      <trkpt lat="47.58582" lon="-3.02669">
        <ele>2.6</ele>
        <time>2024-05-07T14:57:42Z</time>
      </trkpt>
      <trkpt lat="47.58583" lon="-3.0267">
        <ele>2.6</ele>
        <time>2024-05-07T14:57:43Z</time>
      </trkpt>
      <trkpt lat="47.58585" lon="-3.02671">
        <ele>2.6</ele>
        <time>2024-05-07T14:57:44Z</time>
      </trkpt>
      <trkpt lat="47.58586" lon="-3.02671">
        <ele>2.4</ele>
        <time>2024-05-07T14:57:45Z</time>
      </trkpt>
      <trkpt lat="47.58588" lon="-3.02672">
        <ele>2.4</ele>
        <time>2024-05-07T14:57:46Z</time>
      </trkpt>
      <trkpt lat="47.58589" lon="-3.02672">
        <ele>2.4</ele>
        <time>2024-05-07T14:57:47Z</time>
      </trkpt>
      <trkpt lat="47.5859" lon="-3.02672">
        <ele>2.4</ele>
        <time>2024-05-07T14:57:48Z</time>
      </trkpt>
      <trkpt lat="47.58591" lon="-3.02673">
        <ele>2.4</ele>
        <time>2024-05-07T14:57:49Z</time>
      </trkpt>
      <trkpt lat="47.58592" lon="-3.02673">
        <ele>2.4</ele>
        <time>2024-05-07T14:57:50Z</time>
      </trkpt>
      <trkpt lat="47.58594" lon="-3.02674">
        <ele>2.4</ele>
        <time>2024-05-07T14:57:51Z</time>
      </trkpt>
      <trkpt lat="47.58595" lon="-3.02675">
        <ele>2.4</ele>
        <time>2024-05-07T14:57:52Z</time>
      </trkpt>
      <trkpt lat="47.58595" lon="-3.02676">
        <ele>2.4</ele>
        <time>2024-05-07T14:57:53Z</time>
      </trkpt>
      <trkpt lat="47.58596" lon="-3.02676">
        <ele>2.4</ele>
        <time>2024-05-07T14:57:54Z</time>
      </trkpt>
      <trkpt lat="47.58596" lon="-3.02677">
        <ele>2.4</ele>
        <time>2024-05-07T14:57:55Z</time>
      </trkpt>
      <trkpt lat="47.58597" lon="-3.02678">
        <ele>2.6</ele>
        <time>2024-05-07T14:57:56Z</time>
      </trkpt>
      <trkpt lat="47.58599" lon="-3.02679">
        <ele>2.6</ele>
        <time>2024-05-07T14:57:57Z</time>
      </trkpt>
      <trkpt lat="47.586" lon="-3.02679">
        <ele>2.6</ele>
        <time>2024-05-07T14:57:58Z</time>
      </trkpt>
      <trkpt lat="47.586" lon="-3.02679">
        <ele>2.6</ele>
        <time>2024-05-07T14:57:59Z</time>
      </trkpt>
      <trkpt lat="47.58601" lon="-3.0268">
        <ele>2.6</ele>
        <time>2024-05-07T14:58:00Z</time>
      </trkpt>
      <trkpt lat="47.58603" lon="-3.02681">
        <ele>2.8</ele>
        <time>2024-05-07T14:58:01Z</time>
      </trkpt>
      <trkpt lat="47.58604" lon="-3.02681">
        <ele>2.8</ele>
        <time>2024-05-07T14:58:02Z</time>
      </trkpt>
      <trkpt lat="47.58606" lon="-3.02681">
        <ele>2.8</ele>
        <time>2024-05-07T14:58:03Z</time>
      </trkpt>
      <trkpt lat="47.58607" lon="-3.02682">
        <ele>2.8</ele>
        <time>2024-05-07T14:58:04Z</time>
      </trkpt>
      <trkpt lat="47.58608" lon="-3.02682">
        <ele>2.8</ele>
        <time>2024-05-07T14:58:05Z</time>
      </trkpt>
      <trkpt lat="47.5861" lon="-3.02682">
        <ele>2.8</ele>
        <time>2024-05-07T14:58:06Z</time>
      </trkpt>
      <trkpt lat="47.58611" lon="-3.02683">
        <ele>2.8</ele>
        <time>2024-05-07T14:58:07Z</time>
      </trkpt>
      <trkpt lat="47.58612" lon="-3.02684">
        <ele>2.8</ele>
        <time>2024-05-07T14:58:08Z</time>
      </trkpt>
      <trkpt lat="47.58613" lon="-3.02684">
        <ele>2.8</ele>
        <time>2024-05-07T14:58:09Z</time>
      </trkpt>
      <trkpt lat="47.58615" lon="-3.02685">
        <ele>2.8</ele>
        <time>2024-05-07T14:58:10Z</time>
      </trkpt>
      <trkpt lat="47.58616" lon="-3.02686">
        <ele>2.6</ele>
        <time>2024-05-07T14:58:11Z</time>
      </trkpt>
      <trkpt lat="47.58617" lon="-3.02687">
        <ele>2.6</ele>
        <time>2024-05-07T14:58:12Z</time>
      </trkpt>
      <trkpt lat="47.58618" lon="-3.02687">
        <ele>2.6</ele>
        <time>2024-05-07T14:58:13Z</time>
      </trkpt>
      <trkpt lat="47.5862" lon="-3.02687">
        <ele>2.6</ele>
        <time>2024-05-07T14:58:14Z</time>
      </trkpt>
      <trkpt lat="47.58621" lon="-3.02688">
        <ele>2.4</ele>
        <time>2024-05-07T14:58:15Z</time>
      </trkpt>
      <trkpt lat="47.58622" lon="-3.02689">
        <ele>2.4</ele>
        <time>2024-05-07T14:58:16Z</time>
      </trkpt>
      <trkpt lat="47.58624" lon="-3.02689">
        <ele>2.6</ele>
        <time>2024-05-07T14:58:17Z</time>
      </trkpt>
      <trkpt lat="47.58625" lon="-3.02689">
        <ele>2.4</ele>
        <time>2024-05-07T14:58:18Z</time>
      </trkpt>
      <trkpt lat="47.58626" lon="-3.02689">
        <ele>2.4</ele>
        <time>2024-05-07T14:58:19Z</time>
      </trkpt>
      <trkpt lat="47.58627" lon="-3.0269">
        <ele>2.4</ele>
        <time>2024-05-07T14:58:20Z</time>
      </trkpt>
      <trkpt lat="47.58628" lon="-3.0269">
        <ele>2.4</ele>
        <time>2024-05-07T14:58:21Z</time>
      </trkpt>
      <trkpt lat="47.58629" lon="-3.02691">
        <ele>2.4</ele>
        <time>2024-05-07T14:58:22Z</time>
      </trkpt>
      <trkpt lat="47.58631" lon="-3.02692">
        <ele>2.4</ele>
        <time>2024-05-07T14:58:23Z</time>
      </trkpt>
      <trkpt lat="47.58632" lon="-3.02692">
        <ele>2.6</ele>
        <time>2024-05-07T14:58:24Z</time>
      </trkpt>
      <trkpt lat="47.58633" lon="-3.02693">
        <ele>2.2</ele>
        <time>2024-05-07T14:58:25Z</time>
      </trkpt>
      <trkpt lat="47.58635" lon="-3.02695">
        <ele>2.4</ele>
        <time>2024-05-07T14:58:26Z</time>
      </trkpt>
      <trkpt lat="47.58636" lon="-3.02695">
        <ele>2.4</ele>
        <time>2024-05-07T14:58:27Z</time>
      </trkpt>
      <trkpt lat="47.58638" lon="-3.02695">
        <ele>2.4</ele>
        <time>2024-05-07T14:58:28Z</time>
      </trkpt>
      <trkpt lat="47.58639" lon="-3.02696">
        <ele>2.6</ele>
        <time>2024-05-07T14:58:29Z</time>
      </trkpt>
      <trkpt lat="47.5864" lon="-3.02695">
        <ele>2.6</ele>
        <time>2024-05-07T14:58:30Z</time>
      </trkpt>
      <trkpt lat="47.58641" lon="-3.02696">
        <ele>2.6</ele>
        <time>2024-05-07T14:58:31Z</time>
      </trkpt>
      <trkpt lat="47.58643" lon="-3.02696">
        <ele>2.8</ele>
        <time>2024-05-07T14:58:32Z</time>
      </trkpt>
      <trkpt lat="47.58644" lon="-3.02697">
        <ele>2.8</ele>
        <time>2024-05-07T14:58:33Z</time>
      </trkpt>
      <trkpt lat="47.58645" lon="-3.02697">
        <ele>2.8</ele>
        <time>2024-05-07T14:58:34Z</time>
      </trkpt>
      <trkpt lat="47.58646" lon="-3.02697">
        <ele>3</ele>
        <time>2024-05-07T14:58:35Z</time>
      </trkpt>
      <trkpt lat="47.58647" lon="-3.02698">
        <ele>3</ele>
        <time>2024-05-07T14:58:36Z</time>
      </trkpt>
      <trkpt lat="47.58648" lon="-3.02698">
        <ele>3</ele>
        <time>2024-05-07T14:58:37Z</time>
      </trkpt>
      <trkpt lat="47.5865" lon="-3.02699">
        <ele>3</ele>
        <time>2024-05-07T14:58:38Z</time>
      </trkpt>
      <trkpt lat="47.58651" lon="-3.02699">
        <ele>3</ele>
        <time>2024-05-07T14:58:39Z</time>
      </trkpt>
      <trkpt lat="47.58652" lon="-3.027">
        <ele>3</ele>
        <time>2024-05-07T14:58:40Z</time>
      </trkpt>
      <trkpt lat="47.58653" lon="-3.027">
        <ele>3</ele>
        <time>2024-05-07T14:58:41Z</time>
      </trkpt>
      <trkpt lat="47.58654" lon="-3.02701">
        <ele>3</ele>
        <time>2024-05-07T14:58:42Z</time>
      </trkpt>
      <trkpt lat="47.58655" lon="-3.02701">
        <ele>2.8</ele>
        <time>2024-05-07T14:58:43Z</time>
      </trkpt>
      <trkpt lat="47.58656" lon="-3.02701">
        <ele>2.8</ele>
        <time>2024-05-07T14:58:44Z</time>
      </trkpt>
      <trkpt lat="47.58658" lon="-3.02702">
        <ele>2.6</ele>
        <time>2024-05-07T14:58:45Z</time>
      </trkpt>
      <trkpt lat="47.58659" lon="-3.02702">
        <ele>2.6</ele>
        <time>2024-05-07T14:58:46Z</time>
      </trkpt>
      <trkpt lat="47.5866" lon="-3.02703">
        <ele>2.6</ele>
        <time>2024-05-07T14:58:47Z</time>
      </trkpt>
      <trkpt lat="47.58661" lon="-3.02704">
        <ele>2.6</ele>
        <time>2024-05-07T14:58:48Z</time>
      </trkpt>
      <trkpt lat="47.58662" lon="-3.02703">
        <ele>2.6</ele>
        <time>2024-05-07T14:58:49Z</time>
      </trkpt>
      <trkpt lat="47.58663" lon="-3.02703">
        <ele>2.4</ele>
        <time>2024-05-07T14:58:50Z</time>
      </trkpt>
      <trkpt lat="47.58665" lon="-3.02704">
        <ele>2.4</ele>
        <time>2024-05-07T14:58:51Z</time>
      </trkpt>
      <trkpt lat="47.58666" lon="-3.02704">
        <ele>2.4</ele>
        <time>2024-05-07T14:58:52Z</time>
      </trkpt>
      <trkpt lat="47.58667" lon="-3.02704">
        <ele>2.4</ele>
        <time>2024-05-07T14:58:53Z</time>
      </trkpt>
      <trkpt lat="47.58668" lon="-3.02704">
        <ele>2.4</ele>
        <time>2024-05-07T14:58:54Z</time>
      </trkpt>
      <trkpt lat="47.58669" lon="-3.02704">
        <ele>2.2</ele>
        <time>2024-05-07T14:58:55Z</time>
      </trkpt>
      <trkpt lat="47.58671" lon="-3.02704">
        <ele>2.2</ele>
        <time>2024-05-07T14:58:56Z</time>
      </trkpt>
      <trkpt lat="47.58672" lon="-3.02705">
        <ele>2.2</ele>
        <time>2024-05-07T14:58:57Z</time>
      </trkpt>
      <trkpt lat="47.58674" lon="-3.02705">
        <ele>2.2</ele>
        <time>2024-05-07T14:58:58Z</time>
      </trkpt>
      <trkpt lat="47.58675" lon="-3.02706">
        <ele>2.2</ele>
        <time>2024-05-07T14:58:59Z</time>
      </trkpt>
      <trkpt lat="47.58676" lon="-3.02707">
        <ele>2.2</ele>
        <time>2024-05-07T14:59:00Z</time>
      </trkpt>
      <trkpt lat="47.58677" lon="-3.02707">
        <ele>2.2</ele>
        <time>2024-05-07T14:59:01Z</time>
      </trkpt>
      <trkpt lat="47.58678" lon="-3.02707">
        <ele>2.2</ele>
        <time>2024-05-07T14:59:02Z</time>
      </trkpt>
      <trkpt lat="47.58679" lon="-3.02708">
        <ele>2.2</ele>
        <time>2024-05-07T14:59:03Z</time>
      </trkpt>
      <trkpt lat="47.58681" lon="-3.02708">
        <ele>2.2</ele>
        <time>2024-05-07T14:59:04Z</time>
      </trkpt>
      <trkpt lat="47.58682" lon="-3.02709">
        <ele>2.2</ele>
        <time>2024-05-07T14:59:05Z</time>
      </trkpt>
      <trkpt lat="47.58683" lon="-3.0271">
        <ele>2.2</ele>
        <time>2024-05-07T14:59:06Z</time>
      </trkpt>
      <trkpt lat="47.58683" lon="-3.0271">
        <ele>2.2</ele>
        <time>2024-05-07T14:59:07Z</time>
      </trkpt>
      <trkpt lat="47.58684" lon="-3.0271">
        <ele>2.2</ele>
        <time>2024-05-07T14:59:08Z</time>
      </trkpt>
      <trkpt lat="47.58685" lon="-3.02711">
        <ele>2.4</ele>
        <time>2024-05-07T14:59:09Z</time>
      </trkpt>
      <trkpt lat="47.58687" lon="-3.02712">
        <ele>2.4</ele>
        <time>2024-05-07T14:59:10Z</time>
      </trkpt>
      <trkpt lat="47.58688" lon="-3.02713">
        <ele>2.4</ele>
        <time>2024-05-07T14:59:11Z</time>
      </trkpt>
      <trkpt lat="47.58689" lon="-3.02713">
        <ele>2.4</ele>
        <time>2024-05-07T14:59:12Z</time>
      </trkpt>
      <trkpt lat="47.5869" lon="-3.02714">
        <ele>2.4</ele>
        <time>2024-05-07T14:59:13Z</time>
      </trkpt>
      <trkpt lat="47.58691" lon="-3.02714">
        <ele>2.4</ele>
        <time>2024-05-07T14:59:14Z</time>
      </trkpt>
      <trkpt lat="47.58692" lon="-3.02714">
        <ele>2.2</ele>
        <time>2024-05-07T14:59:15Z</time>
      </trkpt>
      <trkpt lat="47.58693" lon="-3.02715">
        <ele>2</ele>
        <time>2024-05-07T14:59:16Z</time>
      </trkpt>
      <trkpt lat="47.58694" lon="-3.02716">
        <ele>2</ele>
        <time>2024-05-07T14:59:17Z</time>
      </trkpt>
      <trkpt lat="47.58695" lon="-3.02717">
        <ele>2</ele>
        <time>2024-05-07T14:59:18Z</time>
      </trkpt>
      <trkpt lat="47.58697" lon="-3.02717">
        <ele>2</ele>
        <time>2024-05-07T14:59:19Z</time>
      </trkpt>
      <trkpt lat="47.58698" lon="-3.02718">
        <ele>2</ele>
        <time>2024-05-07T14:59:20Z</time>
      </trkpt>
      <trkpt lat="47.58699" lon="-3.02718">
        <ele>2</ele>
        <time>2024-05-07T14:59:21Z</time>
      </trkpt>
      <trkpt lat="47.587" lon="-3.02718">
        <ele>1.8</ele>
        <time>2024-05-07T14:59:22Z</time>
      </trkpt>
      <trkpt lat="47.58701" lon="-3.02718">
        <ele>2</ele>
        <time>2024-05-07T14:59:23Z</time>
      </trkpt>
      <trkpt lat="47.58702" lon="-3.02719">
        <ele>2</ele>
        <time>2024-05-07T14:59:24Z</time>
      </trkpt>
      <trkpt lat="47.58703" lon="-3.02719">
        <ele>2</ele>
        <time>2024-05-07T14:59:25Z</time>
      </trkpt>
      <trkpt lat="47.58703" lon="-3.0272">
        <ele>2</ele>
        <time>2024-05-07T14:59:26Z</time>
      </trkpt>
      <trkpt lat="47.58704" lon="-3.02721">
        <ele>2</ele>
        <time>2024-05-07T14:59:27Z</time>
      </trkpt>
      <trkpt lat="47.58704" lon="-3.02722">
        <ele>2</ele>
        <time>2024-05-07T14:59:28Z</time>
      </trkpt>
      <trkpt lat="47.58704" lon="-3.02723">
        <ele>2</ele>
        <time>2024-05-07T14:59:29Z</time>
      </trkpt>
      <trkpt lat="47.58705" lon="-3.02724">
        <ele>2</ele>
        <time>2024-05-07T14:59:30Z</time>
      </trkpt>
      <trkpt lat="47.58705" lon="-3.02725">
        <ele>1.8</ele>
        <time>2024-05-07T14:59:31Z</time>
      </trkpt>
      <trkpt lat="47.58705" lon="-3.02725">
        <ele>1.8</ele>
        <time>2024-05-07T14:59:32Z</time>
      </trkpt>
      <trkpt lat="47.58706" lon="-3.02725">
        <ele>1.8</ele>
        <time>2024-05-07T14:59:33Z</time>
      </trkpt>
      <trkpt lat="47.58707" lon="-3.02725">
        <ele>1.8</ele>
        <time>2024-05-07T14:59:34Z</time>
      </trkpt>
      <trkpt lat="47.58708" lon="-3.02725">
        <ele>1.8</ele>
        <time>2024-05-07T14:59:35Z</time>
      </trkpt>
      <trkpt lat="47.58709" lon="-3.02725">
        <ele>1.8</ele>
        <time>2024-05-07T14:59:36Z</time>
      </trkpt>
      <trkpt lat="47.5871" lon="-3.02725">
        <ele>1.8</ele>
        <time>2024-05-07T14:59:37Z</time>
      </trkpt>
      <trkpt lat="47.58711" lon="-3.02726">
        <ele>1.8</ele>
        <time>2024-05-07T14:59:38Z</time>
      </trkpt>
      <trkpt lat="47.58711" lon="-3.02726">
        <ele>1.8</ele>
        <time>2024-05-07T14:59:39Z</time>
      </trkpt>
      <trkpt lat="47.58711" lon="-3.02726">
        <ele>1.8</ele>
        <time>2024-05-07T14:59:40Z</time>
      </trkpt>
      <trkpt lat="47.58711" lon="-3.02726">
        <ele>1.8</ele>
        <time>2024-05-07T14:59:41Z</time>
      </trkpt>
      <trkpt lat="47.58711" lon="-3.02726">
        <ele>1.8</ele>
        <time>2024-05-07T14:59:42Z</time>
      </trkpt>
      <trkpt lat="47.58711" lon="-3.02727">
        <ele>1.8</ele>
        <time>2024-05-07T14:59:43Z</time>
      </trkpt>
      <trkpt lat="47.58712" lon="-3.02727">
        <ele>1.8</ele>
        <time>2024-05-07T14:59:44Z</time>
      </trkpt>
      <trkpt lat="47.58713" lon="-3.02727">
        <ele>1.8</ele>
        <time>2024-05-07T14:59:45Z</time>
      </trkpt>
      <trkpt lat="47.58714" lon="-3.02727">
        <ele>1.8</ele>
        <time>2024-05-07T14:59:46Z</time>
      </trkpt>
      <trkpt lat="47.58716" lon="-3.02727">
        <ele>1.8</ele>
        <time>2024-05-07T14:59:47Z</time>
      </trkpt>
      <trkpt lat="47.58717" lon="-3.02727">
        <ele>1.8</ele>
        <time>2024-05-07T14:59:48Z</time>
      </trkpt>
      <trkpt lat="47.58718" lon="-3.02728">
        <ele>1.8</ele>
        <time>2024-05-07T14:59:49Z</time>
      </trkpt>
      <trkpt lat="47.5872" lon="-3.02728">
        <ele>1.8</ele>
        <time>2024-05-07T14:59:50Z</time>
      </trkpt>
      <trkpt lat="47.5872" lon="-3.02729">
        <ele>1.8</ele>
        <time>2024-05-07T14:59:51Z</time>
      </trkpt>
      <trkpt lat="47.58722" lon="-3.0273">
        <ele>1.8</ele>
        <time>2024-05-07T14:59:52Z</time>
      </trkpt>
      <trkpt lat="47.58723" lon="-3.0273">
        <ele>1.8</ele>
        <time>2024-05-07T14:59:53Z</time>
      </trkpt>
      <trkpt lat="47.58724" lon="-3.0273">
        <ele>1.8</ele>
        <time>2024-05-07T14:59:54Z</time>
      </trkpt>
      <trkpt lat="47.58726" lon="-3.0273">
        <ele>1.8</ele>
        <time>2024-05-07T14:59:55Z</time>
      </trkpt>
      <trkpt lat="47.58728" lon="-3.02731">
        <ele>1.8</ele>
        <time>2024-05-07T14:59:56Z</time>
      </trkpt>
      <trkpt lat="47.58729" lon="-3.02731">
        <ele>1.8</ele>
        <time>2024-05-07T14:59:57Z</time>
      </trkpt>
      <trkpt lat="47.58731" lon="-3.02731">
        <ele>1.8</ele>
        <time>2024-05-07T14:59:58Z</time>
      </trkpt>
      <trkpt lat="47.58732" lon="-3.02731">
        <ele>2</ele>
        <time>2024-05-07T14:59:59Z</time>
      </trkpt>
      <trkpt lat="47.58733" lon="-3.02732">
        <ele>2.2</ele>
        <time>2024-05-07T15:00:00Z</time>
      </trkpt>
      <trkpt lat="47.58734" lon="-3.02733">
        <ele>2.2</ele>
        <time>2024-05-07T15:00:01Z</time>
      </trkpt>
      <trkpt lat="47.58736" lon="-3.02733">
        <ele>2.2</ele>
        <time>2024-05-07T15:00:02Z</time>
      </trkpt>
      <trkpt lat="47.58737" lon="-3.02733">
        <ele>2.2</ele>
        <time>2024-05-07T15:00:03Z</time>
      </trkpt>
      <trkpt lat="47.58739" lon="-3.02733">
        <ele>2.2</ele>
        <time>2024-05-07T15:00:04Z</time>
      </trkpt>
      <trkpt lat="47.58739" lon="-3.02733">
        <ele>2.2</ele>
        <time>2024-05-07T15:00:05Z</time>
      </trkpt>
      <trkpt lat="47.58741" lon="-3.02734">
        <ele>2.2</ele>
        <time>2024-05-07T15:00:06Z</time>
      </trkpt>
      <trkpt lat="47.58742" lon="-3.02734">
        <ele>2.2</ele>
        <time>2024-05-07T15:00:07Z</time>
      </trkpt>
      <trkpt lat="47.58743" lon="-3.02734">
        <ele>2.2</ele>
        <time>2024-05-07T15:00:08Z</time>
      </trkpt>
      <trkpt lat="47.58744" lon="-3.02734">
        <ele>2</ele>
        <time>2024-05-07T15:00:09Z</time>
      </trkpt>
      <trkpt lat="47.58745" lon="-3.02735">
        <ele>2</ele>
        <time>2024-05-07T15:00:10Z</time>
      </trkpt>
      <trkpt lat="47.58746" lon="-3.02736">
        <ele>2</ele>
        <time>2024-05-07T15:00:11Z</time>
      </trkpt>
      <trkpt lat="47.58746" lon="-3.02736">
        <ele>2</ele>
        <time>2024-05-07T15:00:12Z</time>
      </trkpt>
      <trkpt lat="47.58746" lon="-3.02737">
        <ele>2</ele>
        <time>2024-05-07T15:00:13Z</time>
      </trkpt>
      <trkpt lat="47.58746" lon="-3.02739">
        <ele>2</ele>
        <time>2024-05-07T15:00:14Z</time>
      </trkpt>
      <trkpt lat="47.58745" lon="-3.0274">
        <ele>2</ele>
        <time>2024-05-07T15:00:15Z</time>
      </trkpt>
      <trkpt lat="47.58745" lon="-3.02741">
        <ele>2</ele>
        <time>2024-05-07T15:00:16Z</time>
      </trkpt>
      <trkpt lat="47.58744" lon="-3.02742">
        <ele>2.2</ele>
        <time>2024-05-07T15:00:17Z</time>
      </trkpt>
      <trkpt lat="47.58744" lon="-3.02744">
        <ele>2.2</ele>
        <time>2024-05-07T15:00:18Z</time>
      </trkpt>
      <trkpt lat="47.58743" lon="-3.02746">
        <ele>2.2</ele>
        <time>2024-05-07T15:00:19Z</time>
      </trkpt>
      <trkpt lat="47.58743" lon="-3.02747">
        <ele>2.2</ele>
        <time>2024-05-07T15:00:20Z</time>
      </trkpt>
      <trkpt lat="47.58742" lon="-3.02749">
        <ele>2.2</ele>
        <time>2024-05-07T15:00:21Z</time>
      </trkpt>
      <trkpt lat="47.58742" lon="-3.0275">
        <ele>2.2</ele>
        <time>2024-05-07T15:00:22Z</time>
      </trkpt>
      <trkpt lat="47.58742" lon="-3.02751">
        <ele>2.2</ele>
        <time>2024-05-07T15:00:23Z</time>
      </trkpt>
      <trkpt lat="47.58741" lon="-3.02752">
        <ele>2.2</ele>
        <time>2024-05-07T15:00:24Z</time>
      </trkpt>
      <trkpt lat="47.5874" lon="-3.02753">
        <ele>2.2</ele>
        <time>2024-05-07T15:00:25Z</time>
      </trkpt>
      <trkpt lat="47.5874" lon="-3.02753">
        <ele>2.2</ele>
        <time>2024-05-07T15:00:26Z</time>
      </trkpt>
      <trkpt lat="47.5874" lon="-3.02753">
        <ele>2.2</ele>
        <time>2024-05-07T15:00:27Z</time>
      </trkpt>
      <trkpt lat="47.5874" lon="-3.02753">
        <ele>2</ele>
        <time>2024-05-07T15:00:28Z</time>
      </trkpt>
      <trkpt lat="47.5874" lon="-3.02753">
        <ele>2</ele>
        <time>2024-05-07T15:00:29Z</time>
      </trkpt>
      <trkpt lat="47.5874" lon="-3.02753">
        <ele>2</ele>
        <time>2024-05-07T15:00:30Z</time>
      </trkpt>
      <trkpt lat="47.5874" lon="-3.02753">
        <ele>1.8</ele>
        <time>2024-05-07T15:00:31Z</time>
      </trkpt>
      <trkpt lat="47.5874" lon="-3.02753">
        <ele>1.8</ele>
        <time>2024-05-07T15:00:32Z</time>
      </trkpt>
      <trkpt lat="47.5874" lon="-3.02753">
        <ele>1.8</ele>
        <time>2024-05-07T15:00:33Z</time>
      </trkpt>
      <trkpt lat="47.5874" lon="-3.02753">
        <ele>1.8</ele>
        <time>2024-05-07T15:00:34Z</time>
      </trkpt>
      <trkpt lat="47.58741" lon="-3.02752">
        <ele>1.8</ele>
        <time>2024-05-07T15:00:35Z</time>
      </trkpt>
      <trkpt lat="47.58741" lon="-3.02752">
        <ele>1.6</ele>
        <time>2024-05-07T15:00:36Z</time>
      </trkpt>
      <trkpt lat="47.58741" lon="-3.02753">
        <ele>1.6</ele>
        <time>2024-05-07T15:00:37Z</time>
      </trkpt>
      <trkpt lat="47.5874" lon="-3.02753">
        <ele>1.6</ele>
        <time>2024-05-07T15:00:38Z</time>
      </trkpt>
      <trkpt lat="47.5874" lon="-3.02753">
        <ele>1.6</ele>
        <time>2024-05-07T15:00:39Z</time>
      </trkpt>
      <trkpt lat="47.5874" lon="-3.02753">
        <ele>1.6</ele>
        <time>2024-05-07T15:00:40Z</time>
      </trkpt>
      <trkpt lat="47.5874" lon="-3.02753">
        <ele>1.6</ele>
        <time>2024-05-07T15:00:41Z</time>
      </trkpt>
      <trkpt lat="47.5874" lon="-3.02753">
        <ele>1.6</ele>
        <time>2024-05-07T15:00:42Z</time>
      </trkpt>
      <trkpt lat="47.5874" lon="-3.02753">
        <ele>1.6</ele>
        <time>2024-05-07T15:00:43Z</time>
      </trkpt>
      <trkpt lat="47.5874" lon="-3.02753">
        <ele>1.8</ele>
        <time>2024-05-07T15:00:44Z</time>
      </trkpt>
      <trkpt lat="47.5874" lon="-3.02753">
        <ele>1.8</ele>
        <time>2024-05-07T15:00:45Z</time>
      </trkpt>
      <trkpt lat="47.5874" lon="-3.02753">
        <ele>1.8</ele>
        <time>2024-05-07T15:00:46Z</time>
      </trkpt>
      <trkpt lat="47.5874" lon="-3.02753">
        <ele>1.8</ele>
        <time>2024-05-07T15:00:47Z</time>
      </trkpt>
      <trkpt lat="47.5874" lon="-3.02754">
        <ele>1.8</ele>
        <time>2024-05-07T15:00:48Z</time>
      </trkpt>
      <trkpt lat="47.5874" lon="-3.02754">
        <ele>1.8</ele>
        <time>2024-05-07T15:00:49Z</time>
      </trkpt>
      <trkpt lat="47.5874" lon="-3.02755">
        <ele>1.8</ele>
        <time>2024-05-07T15:00:50Z</time>
      </trkpt>
      <trkpt lat="47.5874" lon="-3.02756">
        <ele>1.8</ele>
        <time>2024-05-07T15:00:51Z</time>
      </trkpt>
      <trkpt lat="47.58741" lon="-3.02756">
        <ele>1.8</ele>
        <time>2024-05-07T15:00:52Z</time>
      </trkpt>
      <trkpt lat="47.58742" lon="-3.02757">
        <ele>1.6</ele>
        <time>2024-05-07T15:00:53Z</time>
      </trkpt>
      <trkpt lat="47.58742" lon="-3.02757">
        <ele>1.6</ele>
        <time>2024-05-07T15:00:54Z</time>
      </trkpt>
      <trkpt lat="47.58743" lon="-3.02758">
        <ele>1.6</ele>
        <time>2024-05-07T15:00:55Z</time>
      </trkpt>
      <trkpt lat="47.58744" lon="-3.02758">
        <ele>1.6</ele>
        <time>2024-05-07T15:00:56Z</time>
      </trkpt>
      <trkpt lat="47.58746" lon="-3.02759">
        <ele>1.6</ele>
        <time>2024-05-07T15:00:57Z</time>
      </trkpt>
      <trkpt lat="47.58747" lon="-3.0276">
        <ele>1.6</ele>
        <time>2024-05-07T15:00:58Z</time>
      </trkpt>
      <trkpt lat="47.58747" lon="-3.0276">
        <ele>1.6</ele>
        <time>2024-05-07T15:00:59Z</time>
      </trkpt>
      <trkpt lat="47.58748" lon="-3.02761">
        <ele>1.6</ele>
        <time>2024-05-07T15:01:00Z</time>
      </trkpt>
      <trkpt lat="47.58748" lon="-3.02762">
        <ele>1.6</ele>
        <time>2024-05-07T15:01:01Z</time>
      </trkpt>
      <trkpt lat="47.58749" lon="-3.02763">
        <ele>1.6</ele>
        <time>2024-05-07T15:01:02Z</time>
      </trkpt>
      <trkpt lat="47.5875" lon="-3.02764">
        <ele>1.8</ele>
        <time>2024-05-07T15:01:03Z</time>
      </trkpt>
      <trkpt lat="47.58751" lon="-3.02765">
        <ele>1.8</ele>
        <time>2024-05-07T15:01:04Z</time>
      </trkpt>
      <trkpt lat="47.58751" lon="-3.02766">
        <ele>1.8</ele>
        <time>2024-05-07T15:01:05Z</time>
      </trkpt>
      <trkpt lat="47.58753" lon="-3.02766">
        <ele>1.8</ele>
        <time>2024-05-07T15:01:06Z</time>
      </trkpt>
      <trkpt lat="47.58753" lon="-3.02767">
        <ele>2</ele>
        <time>2024-05-07T15:01:07Z</time>
      </trkpt>
      <trkpt lat="47.58754" lon="-3.02768">
        <ele>2</ele>
        <time>2024-05-07T15:01:08Z</time>
      </trkpt>
      <trkpt lat="47.58755" lon="-3.02769">
        <ele>2</ele>
        <time>2024-05-07T15:01:09Z</time>
      </trkpt>
      <trkpt lat="47.58756" lon="-3.0277">
        <ele>2.2</ele>
        <time>2024-05-07T15:01:10Z</time>
      </trkpt>
      <trkpt lat="47.58757" lon="-3.02771">
        <ele>2.2</ele>
        <time>2024-05-07T15:01:11Z</time>
      </trkpt>
      <trkpt lat="47.58757" lon="-3.02772">
        <ele>2.2</ele>
        <time>2024-05-07T15:01:12Z</time>
      </trkpt>
      <trkpt lat="47.58758" lon="-3.02773">
        <ele>2.2</ele>
        <time>2024-05-07T15:01:13Z</time>
      </trkpt>
      <trkpt lat="47.58759" lon="-3.02774">
        <ele>2</ele>
        <time>2024-05-07T15:01:14Z</time>
      </trkpt>
      <trkpt lat="47.5876" lon="-3.02776">
        <ele>2</ele>
        <time>2024-05-07T15:01:15Z</time>
      </trkpt>
      <trkpt lat="47.58761" lon="-3.02777">
        <ele>2</ele>
        <time>2024-05-07T15:01:16Z</time>
      </trkpt>
      <trkpt lat="47.58762" lon="-3.02778">
        <ele>2</ele>
        <time>2024-05-07T15:01:17Z</time>
      </trkpt>
      <trkpt lat="47.58763" lon="-3.02779">
        <ele>2</ele>
        <time>2024-05-07T15:01:18Z</time>
      </trkpt>
      <trkpt lat="47.58763" lon="-3.0278">
        <ele>2</ele>
        <time>2024-05-07T15:01:19Z</time>
      </trkpt>
      <trkpt lat="47.58764" lon="-3.02781">
        <ele>1.8</ele>
        <time>2024-05-07T15:01:20Z</time>
      </trkpt>
      <trkpt lat="47.58765" lon="-3.02782">
        <ele>1.8</ele>
        <time>2024-05-07T15:01:21Z</time>
      </trkpt>
      <trkpt lat="47.58766" lon="-3.02784">
        <ele>1.8</ele>
        <time>2024-05-07T15:01:22Z</time>
      </trkpt>
      <trkpt lat="47.58767" lon="-3.02784">
        <ele>1.8</ele>
        <time>2024-05-07T15:01:23Z</time>
      </trkpt>
      <trkpt lat="47.58767" lon="-3.02786">
        <ele>1.8</ele>
        <time>2024-05-07T15:01:24Z</time>
      </trkpt>
      <trkpt lat="47.58767" lon="-3.02787">
        <ele>1.8</ele>
        <time>2024-05-07T15:01:25Z</time>
      </trkpt>
      <trkpt lat="47.58767" lon="-3.02788">
        <ele>1.8</ele>
        <time>2024-05-07T15:01:26Z</time>
      </trkpt>
      <trkpt lat="47.58768" lon="-3.02789">
        <ele>1.8</ele>
        <time>2024-05-07T15:01:27Z</time>
      </trkpt>
      <trkpt lat="47.58768" lon="-3.0279">
        <ele>1.8</ele>
        <time>2024-05-07T15:01:28Z</time>
      </trkpt>
      <trkpt lat="47.58768" lon="-3.02792">
        <ele>1.8</ele>
        <time>2024-05-07T15:01:29Z</time>
      </trkpt>
      <trkpt lat="47.58769" lon="-3.02793">
        <ele>1.8</ele>
        <time>2024-05-07T15:01:30Z</time>
      </trkpt>
      <trkpt lat="47.5877" lon="-3.02795">
        <ele>1.8</ele>
        <time>2024-05-07T15:01:31Z</time>
      </trkpt>
      <trkpt lat="47.58771" lon="-3.02797">
        <ele>1.8</ele>
        <time>2024-05-07T15:01:32Z</time>
      </trkpt>
      <trkpt lat="47.58772" lon="-3.02798">
        <ele>1.8</ele>
        <time>2024-05-07T15:01:33Z</time>
      </trkpt>
      <trkpt lat="47.58773" lon="-3.02799">
        <ele>1.8</ele>
        <time>2024-05-07T15:01:34Z</time>
      </trkpt>
      <trkpt lat="47.58774" lon="-3.028">
        <ele>1.8</ele>
        <time>2024-05-07T15:01:35Z</time>
      </trkpt>
      <trkpt lat="47.58775" lon="-3.02801">
        <ele>1.8</ele>
        <time>2024-05-07T15:01:36Z</time>
      </trkpt>
      <trkpt lat="47.58775" lon="-3.02802">
        <ele>2</ele>
        <time>2024-05-07T15:01:37Z</time>
      </trkpt>
      <trkpt lat="47.58776" lon="-3.02802">
        <ele>2</ele>
        <time>2024-05-07T15:01:38Z</time>
      </trkpt>
      <trkpt lat="47.58776" lon="-3.02803">
        <ele>1.8</ele>
        <time>2024-05-07T15:01:39Z</time>
      </trkpt>
      <trkpt lat="47.58777" lon="-3.02804">
        <ele>1.8</ele>
        <time>2024-05-07T15:01:40Z</time>
      </trkpt>
      <trkpt lat="47.58777" lon="-3.02804">
        <ele>1.8</ele>
        <time>2024-05-07T15:01:41Z</time>
      </trkpt>
      <trkpt lat="47.58777" lon="-3.02804">
        <ele>1.8</ele>
        <time>2024-05-07T15:01:42Z</time>
      </trkpt>
      <trkpt lat="47.58776" lon="-3.02806">
        <ele>1.8</ele>
        <time>2024-05-07T15:01:43Z</time>
      </trkpt>
      <trkpt lat="47.58776" lon="-3.02807">
        <ele>1.8</ele>
        <time>2024-05-07T15:01:44Z</time>
      </trkpt>
      <trkpt lat="47.58775" lon="-3.0281">
        <ele>1.8</ele>
        <time>2024-05-07T15:01:45Z</time>
      </trkpt>
      <trkpt lat="47.58775" lon="-3.02812">
        <ele>1.8</ele>
        <time>2024-05-07T15:01:46Z</time>
      </trkpt>
      <trkpt lat="47.58775" lon="-3.02815">
        <ele>1.8</ele>
        <time>2024-05-07T15:01:47Z</time>
      </trkpt>
      <trkpt lat="47.58774" lon="-3.02817">
        <ele>1.8</ele>
        <time>2024-05-07T15:01:48Z</time>
      </trkpt>
      <trkpt lat="47.58774" lon="-3.02818">
        <ele>1.6</ele>
        <time>2024-05-07T15:01:49Z</time>
      </trkpt>
      <trkpt lat="47.58774" lon="-3.02819">
        <ele>1.6</ele>
        <time>2024-05-07T15:01:50Z</time>
      </trkpt>
      <trkpt lat="47.58774" lon="-3.0282">
        <ele>1.6</ele>
        <time>2024-05-07T15:01:51Z</time>
      </trkpt>
      <trkpt lat="47.58774" lon="-3.02822">
        <ele>1.6</ele>
        <time>2024-05-07T15:01:52Z</time>
      </trkpt>
      <trkpt lat="47.58773" lon="-3.02824">
        <ele>1.6</ele>
        <time>2024-05-07T15:01:53Z</time>
      </trkpt>
      <trkpt lat="47.58773" lon="-3.02825">
        <ele>1.6</ele>
        <time>2024-05-07T15:01:54Z</time>
      </trkpt>
      <trkpt lat="47.58773" lon="-3.02825">
        <ele>1.6</ele>
        <time>2024-05-07T15:01:55Z</time>
      </trkpt>
      <trkpt lat="47.58772" lon="-3.02826">
        <ele>1.6</ele>
        <time>2024-05-07T15:01:56Z</time>
      </trkpt>
      <trkpt lat="47.58772" lon="-3.02827">
        <ele>1.6</ele>
        <time>2024-05-07T15:01:57Z</time>
      </trkpt>
      <trkpt lat="47.58772" lon="-3.02828">
        <ele>1.8</ele>
        <time>2024-05-07T15:01:58Z</time>
      </trkpt>
      <trkpt lat="47.58772" lon="-3.02828">
        <ele>1.8</ele>
        <time>2024-05-07T15:01:59Z</time>
      </trkpt>
      <trkpt lat="47.58772" lon="-3.02829">
        <ele>1.8</ele>
        <time>2024-05-07T15:02:00Z</time>
      </trkpt>
      <trkpt lat="47.58772" lon="-3.02829">
        <ele>2</ele>
        <time>2024-05-07T15:02:01Z</time>
      </trkpt>
      <trkpt lat="47.58772" lon="-3.02829">
        <ele>2</ele>
        <time>2024-05-07T15:02:02Z</time>
      </trkpt>
      <trkpt lat="47.58772" lon="-3.02828">
        <ele>2</ele>
        <time>2024-05-07T15:02:03Z</time>
      </trkpt>
      <trkpt lat="47.58772" lon="-3.02828">
        <ele>2</ele>
        <time>2024-05-07T15:02:04Z</time>
      </trkpt>
      <trkpt lat="47.58771" lon="-3.02828">
        <ele>2</ele>
        <time>2024-05-07T15:02:05Z</time>
      </trkpt>
      <trkpt lat="47.5877" lon="-3.02829">
        <ele>1.8</ele>
        <time>2024-05-07T15:02:06Z</time>
      </trkpt>
      <trkpt lat="47.58769" lon="-3.0283">
        <ele>1.8</ele>
        <time>2024-05-07T15:02:07Z</time>
      </trkpt>
      <trkpt lat="47.58768" lon="-3.02831">
        <ele>1.8</ele>
        <time>2024-05-07T15:02:08Z</time>
      </trkpt>
      <trkpt lat="47.58767" lon="-3.02831">
        <ele>1.8</ele>
        <time>2024-05-07T15:02:09Z</time>
      </trkpt>
      <trkpt lat="47.58766" lon="-3.02832">
        <ele>1.8</ele>
        <time>2024-05-07T15:02:10Z</time>
      </trkpt>
      <trkpt lat="47.58766" lon="-3.02834">
        <ele>1.8</ele>
        <time>2024-05-07T15:02:11Z</time>
      </trkpt>
      <trkpt lat="47.58765" lon="-3.02835">
        <ele>1.6</ele>
        <time>2024-05-07T15:02:12Z</time>
      </trkpt>
      <trkpt lat="47.58766" lon="-3.02838">
        <ele>1.6</ele>
        <time>2024-05-07T15:02:13Z</time>
      </trkpt>
      <trkpt lat="47.58766" lon="-3.0284">
        <ele>1.6</ele>
        <time>2024-05-07T15:02:14Z</time>
      </trkpt>
      <trkpt lat="47.58765" lon="-3.02842">
        <ele>1.6</ele>
        <time>2024-05-07T15:02:15Z</time>
      </trkpt>
      <trkpt lat="47.58764" lon="-3.02841">
        <ele>1.6</ele>
        <time>2024-05-07T15:02:16Z</time>
      </trkpt>
      <trkpt lat="47.58763" lon="-3.02841">
        <ele>1.6</ele>
        <time>2024-05-07T15:02:17Z</time>
      </trkpt>
      <trkpt lat="47.58762" lon="-3.02842">
        <ele>1.8</ele>
        <time>2024-05-07T15:02:18Z</time>
      </trkpt>
      <trkpt lat="47.58761" lon="-3.02844">
        <ele>1.8</ele>
        <time>2024-05-07T15:02:19Z</time>
      </trkpt>
      <trkpt lat="47.5876" lon="-3.02845">
        <ele>1.8</ele>
        <time>2024-05-07T15:02:20Z</time>
      </trkpt>
      <trkpt lat="47.58759" lon="-3.02846">
        <ele>1.8</ele>
        <time>2024-05-07T15:02:21Z</time>
      </trkpt>
      <trkpt lat="47.58759" lon="-3.02846">
        <ele>1.8</ele>
        <time>2024-05-07T15:02:22Z</time>
      </trkpt>
      <trkpt lat="47.58758" lon="-3.02846">
        <ele>1.8</ele>
        <time>2024-05-07T15:02:23Z</time>
      </trkpt>
      <trkpt lat="47.58758" lon="-3.02847">
        <ele>1.8</ele>
        <time>2024-05-07T15:02:24Z</time>
      </trkpt>
      <trkpt lat="47.58758" lon="-3.02848">
        <ele>1.8</ele>
        <time>2024-05-07T15:02:25Z</time>
      </trkpt>
      <trkpt lat="47.58757" lon="-3.0285">
        <ele>1.8</ele>
        <time>2024-05-07T15:02:26Z</time>
      </trkpt>
      <trkpt lat="47.58758" lon="-3.02854">
        <ele>1.8</ele>
        <time>2024-05-07T15:02:27Z</time>
      </trkpt>
      <trkpt lat="47.58757" lon="-3.02856">
        <ele>1.8</ele>
        <time>2024-05-07T15:02:28Z</time>
      </trkpt>
      <trkpt lat="47.58756" lon="-3.02858">
        <ele>1.8</ele>
        <time>2024-05-07T15:02:29Z</time>
      </trkpt>
      <trkpt lat="47.58756" lon="-3.02859">
        <ele>1.6</ele>
        <time>2024-05-07T15:02:30Z</time>
      </trkpt>
      <trkpt lat="47.58755" lon="-3.02861">
        <ele>1.6</ele>
        <time>2024-05-07T15:02:31Z</time>
      </trkpt>
      <trkpt lat="47.58754" lon="-3.02861">
        <ele>1.6</ele>
        <time>2024-05-07T15:02:32Z</time>
      </trkpt>
      <trkpt lat="47.58751" lon="-3.02863">
        <ele>1.4</ele>
        <time>2024-05-07T15:02:33Z</time>
      </trkpt>
      <trkpt lat="47.5875" lon="-3.02866">
        <ele>1.4</ele>
        <time>2024-05-07T15:02:34Z</time>
      </trkpt>
      <trkpt lat="47.58749" lon="-3.02869">
        <ele>1.4</ele>
        <time>2024-05-07T15:02:35Z</time>
      </trkpt>
      <trkpt lat="47.58749" lon="-3.0287">
        <ele>1.4</ele>
        <time>2024-05-07T15:02:36Z</time>
      </trkpt>
      <trkpt lat="47.58748" lon="-3.02872">
        <ele>1.4</ele>
        <time>2024-05-07T15:02:37Z</time>
      </trkpt>
      <trkpt lat="47.58747" lon="-3.02873">
        <ele>1.4</ele>
        <time>2024-05-07T15:02:38Z</time>
      </trkpt>
      <trkpt lat="47.58746" lon="-3.02875">
        <ele>1.4</ele>
        <time>2024-05-07T15:02:39Z</time>
      </trkpt>
      <trkpt lat="47.58745" lon="-3.02876">
        <ele>1.4</ele>
        <time>2024-05-07T15:02:40Z</time>
      </trkpt>
      <trkpt lat="47.58744" lon="-3.02877">
        <ele>1.4</ele>
        <time>2024-05-07T15:02:41Z</time>
      </trkpt>
      <trkpt lat="47.58743" lon="-3.02878">
        <ele>1</ele>
        <time>2024-05-07T15:02:42Z</time>
      </trkpt>
      <trkpt lat="47.58742" lon="-3.02879">
        <ele>1</ele>
        <time>2024-05-07T15:02:43Z</time>
      </trkpt>
      <trkpt lat="47.58741" lon="-3.0288">
        <ele>1</ele>
        <time>2024-05-07T15:02:44Z</time>
      </trkpt>
      <trkpt lat="47.5874" lon="-3.02881">
        <ele>1</ele>
        <time>2024-05-07T15:02:45Z</time>
      </trkpt>
      <trkpt lat="47.5874" lon="-3.02881">
        <ele>1</ele>
        <time>2024-05-07T15:02:46Z</time>
      </trkpt>
      <trkpt lat="47.58739" lon="-3.02882">
        <ele>1</ele>
        <time>2024-05-07T15:02:47Z</time>
      </trkpt>
      <trkpt lat="47.58739" lon="-3.02883">
        <ele>1</ele>
        <time>2024-05-07T15:02:48Z</time>
      </trkpt>
      <trkpt lat="47.58738" lon="-3.02883">
        <ele>1</ele>
        <time>2024-05-07T15:02:49Z</time>
      </trkpt>
      <trkpt lat="47.58737" lon="-3.02883">
        <ele>1</ele>
        <time>2024-05-07T15:02:50Z</time>
      </trkpt>
      <trkpt lat="47.58736" lon="-3.02884">
        <ele>1</ele>
        <time>2024-05-07T15:02:51Z</time>
      </trkpt>
      <trkpt lat="47.58735" lon="-3.02885">
        <ele>1</ele>
        <time>2024-05-07T15:02:52Z</time>
      </trkpt>
      <trkpt lat="47.58734" lon="-3.02885">
        <ele>0.8</ele>
        <time>2024-05-07T15:02:53Z</time>
      </trkpt>
      <trkpt lat="47.58733" lon="-3.02886">
        <ele>0.8</ele>
        <time>2024-05-07T15:02:54Z</time>
      </trkpt>
      <trkpt lat="47.58732" lon="-3.02888">
        <ele>0.8</ele>
        <time>2024-05-07T15:02:55Z</time>
      </trkpt>
      <trkpt lat="47.5873" lon="-3.0289">
        <ele>0.8</ele>
        <time>2024-05-07T15:02:56Z</time>
      </trkpt>
      <trkpt lat="47.58728" lon="-3.02891">
        <ele>0.8</ele>
        <time>2024-05-07T15:02:57Z</time>
      </trkpt>
      <trkpt lat="47.58728" lon="-3.02893">
        <ele>0.8</ele>
        <time>2024-05-07T15:02:58Z</time>
      </trkpt>
      <trkpt lat="47.58728" lon="-3.02895">
        <ele>0.8</ele>
        <time>2024-05-07T15:02:59Z</time>
      </trkpt>
      <trkpt lat="47.58727" lon="-3.02897">
        <ele>0.8</ele>
        <time>2024-05-07T15:03:00Z</time>
      </trkpt>
      <trkpt lat="47.58726" lon="-3.02902">
        <ele>0.6</ele>
        <time>2024-05-07T15:03:01Z</time>
      </trkpt>
      <trkpt lat="47.58726" lon="-3.02907">
        <ele>0.6</ele>
        <time>2024-05-07T15:03:02Z</time>
      </trkpt>
      <trkpt lat="47.58726" lon="-3.02911">
        <ele>0.6</ele>
        <time>2024-05-07T15:03:03Z</time>
      </trkpt>
      <trkpt lat="47.58725" lon="-3.02915">
        <ele>0.6</ele>
        <time>2024-05-07T15:03:04Z</time>
      </trkpt>
      <trkpt lat="47.58725" lon="-3.02918">
        <ele>0.6</ele>
        <time>2024-05-07T15:03:05Z</time>
      </trkpt>
      <trkpt lat="47.58723" lon="-3.02917">
        <ele>0.6</ele>
        <time>2024-05-07T15:03:06Z</time>
      </trkpt>
      <trkpt lat="47.58723" lon="-3.02917">
        <ele>0.6</ele>
        <time>2024-05-07T15:03:07Z</time>
      </trkpt>
      <trkpt lat="47.58719" lon="-3.02916">
        <ele>0.8</ele>
        <time>2024-05-07T15:03:08Z</time>
      </trkpt>
      <trkpt lat="47.58718" lon="-3.02916">
        <ele>0.8</ele>
        <time>2024-05-07T15:03:09Z</time>
      </trkpt>
      <trkpt lat="47.58717" lon="-3.02917">
        <ele>0.8</ele>
        <time>2024-05-07T15:03:10Z</time>
      </trkpt>
      <trkpt lat="47.58715" lon="-3.02918">
        <ele>0.8</ele>
        <time>2024-05-07T15:03:11Z</time>
      </trkpt>
      <trkpt lat="47.58714" lon="-3.02919">
        <ele>0.8</ele>
        <time>2024-05-07T15:03:12Z</time>
      </trkpt>
      <trkpt lat="47.58712" lon="-3.0292">
        <ele>0.8</ele>
        <time>2024-05-07T15:03:13Z</time>
      </trkpt>
      <trkpt lat="47.58711" lon="-3.02921">
        <ele>0.8</ele>
        <time>2024-05-07T15:03:14Z</time>
      </trkpt>
      <trkpt lat="47.5871" lon="-3.02921">
        <ele>1</ele>
        <time>2024-05-07T15:03:15Z</time>
      </trkpt>
      <trkpt lat="47.5871" lon="-3.02921">
        <ele>1</ele>
        <time>2024-05-07T15:03:16Z</time>
      </trkpt>
      <trkpt lat="47.58709" lon="-3.02921">
        <ele>1</ele>
        <time>2024-05-07T15:03:17Z</time>
      </trkpt>
      <trkpt lat="47.58709" lon="-3.02921">
        <ele>1.2</ele>
        <time>2024-05-07T15:03:18Z</time>
      </trkpt>
      <trkpt lat="47.58707" lon="-3.02922">
        <ele>1.2</ele>
        <time>2024-05-07T15:03:19Z</time>
      </trkpt>
      <trkpt lat="47.58707" lon="-3.02921">
        <ele>1.2</ele>
        <time>2024-05-07T15:03:20Z</time>
      </trkpt>
      <trkpt lat="47.58706" lon="-3.02921">
        <ele>1.4</ele>
        <time>2024-05-07T15:03:21Z</time>
      </trkpt>
      <trkpt lat="47.58705" lon="-3.0292">
        <ele>1.4</ele>
        <time>2024-05-07T15:03:22Z</time>
      </trkpt>
      <trkpt lat="47.58705" lon="-3.02919">
        <ele>1.4</ele>
        <time>2024-05-07T15:03:23Z</time>
      </trkpt>
      <trkpt lat="47.58704" lon="-3.02918">
        <ele>1.4</ele>
        <time>2024-05-07T15:03:24Z</time>
      </trkpt>
      <trkpt lat="47.58703" lon="-3.02918">
        <ele>1.6</ele>
        <time>2024-05-07T15:03:25Z</time>
      </trkpt>
      <trkpt lat="47.58703" lon="-3.02917">
        <ele>1.8</ele>
        <time>2024-05-07T15:03:26Z</time>
      </trkpt>
      <trkpt lat="47.58703" lon="-3.02916">
        <ele>2</ele>
        <time>2024-05-07T15:03:27Z</time>
      </trkpt>
      <trkpt lat="47.58703" lon="-3.02915">
        <ele>2.2</ele>
        <time>2024-05-07T15:03:28Z</time>
      </trkpt>
      <trkpt lat="47.58702" lon="-3.02914">
        <ele>2.4</ele>
        <time>2024-05-07T15:03:29Z</time>
      </trkpt>
      <trkpt lat="47.58702" lon="-3.02914">
        <ele>2.8</ele>
        <time>2024-05-07T15:03:30Z</time>
      </trkpt>
      <trkpt lat="47.58702" lon="-3.02913">
        <ele>3</ele>
        <time>2024-05-07T15:03:31Z</time>
      </trkpt>
      <trkpt lat="47.58703" lon="-3.02912">
        <ele>3.2</ele>
        <time>2024-05-07T15:03:32Z</time>
      </trkpt>
      <trkpt lat="47.58703" lon="-3.02911">
        <ele>3.4</ele>
        <time>2024-05-07T15:03:33Z</time>
      </trkpt>
      <trkpt lat="47.58704" lon="-3.02911">
        <ele>3.4</ele>
        <time>2024-05-07T15:03:34Z</time>
      </trkpt>
      <trkpt lat="47.58704" lon="-3.0291">
        <ele>3.6</ele>
        <time>2024-05-07T15:03:35Z</time>
      </trkpt>
      <trkpt lat="47.58703" lon="-3.0291">
        <ele>3.6</ele>
        <time>2024-05-07T15:03:36Z</time>
      </trkpt>
      <trkpt lat="47.58704" lon="-3.0291">
        <ele>3.6</ele>
        <time>2024-05-07T15:03:37Z</time>
      </trkpt>
      <trkpt lat="47.58704" lon="-3.0291">
        <ele>3.8</ele>
        <time>2024-05-07T15:03:38Z</time>
      </trkpt>
      <trkpt lat="47.58704" lon="-3.0291">
        <ele>3.8</ele>
        <time>2024-05-07T15:03:39Z</time>
      </trkpt>
      <trkpt lat="47.58704" lon="-3.0291">
        <ele>3.8</ele>
        <time>2024-05-07T15:03:40Z</time>
      </trkpt>
      <trkpt lat="47.58704" lon="-3.02909">
        <ele>3.8</ele>
        <time>2024-05-07T15:03:41Z</time>
      </trkpt>
      <trkpt lat="47.58704" lon="-3.02909">
        <ele>3.8</ele>
        <time>2024-05-07T15:03:42Z</time>
      </trkpt>
      <trkpt lat="47.58704" lon="-3.02908">
        <ele>3.8</ele>
        <time>2024-05-07T15:03:43Z</time>
      </trkpt>
      <trkpt lat="47.58704" lon="-3.02908">
        <ele>3.8</ele>
        <time>2024-05-07T15:03:44Z</time>
      </trkpt>
      <trkpt lat="47.58704" lon="-3.02908">
        <ele>3.8</ele>
        <time>2024-05-07T15:03:45Z</time>
      </trkpt>
      <trkpt lat="47.58704" lon="-3.02908">
        <ele>3.8</ele>
        <time>2024-05-07T15:03:46Z</time>
      </trkpt>
      <trkpt lat="47.58704" lon="-3.02908">
        <ele>3.4</ele>
        <time>2024-05-07T15:03:47Z</time>
      </trkpt>
      <trkpt lat="47.58702" lon="-3.0291">
        <ele>3.4</ele>
        <time>2024-05-07T15:03:48Z</time>
      </trkpt>
      <trkpt lat="47.58701" lon="-3.02912">
        <ele>3.2</ele>
        <time>2024-05-07T15:03:49Z</time>
      </trkpt>
      <trkpt lat="47.587" lon="-3.02912">
        <ele>3.4</ele>
        <time>2024-05-07T15:03:50Z</time>
      </trkpt>
      <trkpt lat="47.587" lon="-3.02912">
        <ele>3.4</ele>
        <time>2024-05-07T15:03:51Z</time>
      </trkpt>
      <trkpt lat="47.58701" lon="-3.02907">
        <ele>3.2</ele>
        <time>2024-05-07T15:03:52Z</time>
      </trkpt>
      <trkpt lat="47.58702" lon="-3.02902">
        <ele>3.2</ele>
        <time>2024-05-07T15:03:53Z</time>
      </trkpt>
      <trkpt lat="47.58702" lon="-3.029">
        <ele>3.2</ele>
        <time>2024-05-07T15:03:54Z</time>
      </trkpt>
      <trkpt lat="47.58701" lon="-3.02897">
        <ele>3.2</ele>
        <time>2024-05-07T15:03:55Z</time>
      </trkpt>
      <trkpt lat="47.58702" lon="-3.02897">
        <ele>3.2</ele>
        <time>2024-05-07T15:03:56Z</time>
      </trkpt>
      <trkpt lat="47.58702" lon="-3.02895">
        <ele>3.2</ele>
        <time>2024-05-07T15:03:57Z</time>
      </trkpt>
      <trkpt lat="47.58699" lon="-3.02895">
        <ele>3.2</ele>
        <time>2024-05-07T15:03:58Z</time>
      </trkpt>
      <trkpt lat="47.58698" lon="-3.02895">
        <ele>3.2</ele>
        <time>2024-05-07T15:03:59Z</time>
      </trkpt>
      <trkpt lat="47.58699" lon="-3.02895">
        <ele>3.2</ele>
        <time>2024-05-07T15:04:00Z</time>
      </trkpt>
      <trkpt lat="47.58699" lon="-3.02894">
        <ele>3.2</ele>
        <time>2024-05-07T15:04:01Z</time>
      </trkpt>
      <trkpt lat="47.58699" lon="-3.02895">
        <ele>3.2</ele>
        <time>2024-05-07T15:04:02Z</time>
      </trkpt>
      <trkpt lat="47.58698" lon="-3.02897">
        <ele>3.2</ele>
        <time>2024-05-07T15:04:03Z</time>
      </trkpt>
      <trkpt lat="47.58698" lon="-3.02897">
        <ele>3.2</ele>
        <time>2024-05-07T15:04:04Z</time>
      </trkpt>
      <trkpt lat="47.58698" lon="-3.02898">
        <ele>3.2</ele>
        <time>2024-05-07T15:04:05Z</time>
      </trkpt>
      <trkpt lat="47.58698" lon="-3.02898">
        <ele>3.2</ele>
        <time>2024-05-07T15:04:06Z</time>
      </trkpt>
      <trkpt lat="47.58696" lon="-3.02901">
        <ele>3.4</ele>
        <time>2024-05-07T15:04:07Z</time>
      </trkpt>
      <trkpt lat="47.58696" lon="-3.02904">
        <ele>3.4</ele>
        <time>2024-05-07T15:04:08Z</time>
      </trkpt>
      <trkpt lat="47.58697" lon="-3.02905">
        <ele>3.4</ele>
        <time>2024-05-07T15:04:09Z</time>
      </trkpt>
      <trkpt lat="47.58697" lon="-3.02907">
        <ele>3.4</ele>
        <time>2024-05-07T15:04:10Z</time>
      </trkpt>
      <trkpt lat="47.58697" lon="-3.02907">
        <ele>3.4</ele>
        <time>2024-05-07T15:04:11Z</time>
      </trkpt>
      <trkpt lat="47.58698" lon="-3.02909">
        <ele>3.4</ele>
        <time>2024-05-07T15:04:12Z</time>
      </trkpt>
      <trkpt lat="47.58698" lon="-3.02908">
        <ele>3.4</ele>
        <time>2024-05-07T15:04:13Z</time>
      </trkpt>
      <trkpt lat="47.58698" lon="-3.02908">
        <ele>3.2</ele>
        <time>2024-05-07T15:04:14Z</time>
      </trkpt>
      <trkpt lat="47.58698" lon="-3.02908">
        <ele>3.2</ele>
        <time>2024-05-07T15:04:15Z</time>
      </trkpt>
      <trkpt lat="47.58698" lon="-3.02908">
        <ele>3.2</ele>
        <time>2024-05-07T15:04:16Z</time>
      </trkpt>
      <trkpt lat="47.58698" lon="-3.02908">
        <ele>3.2</ele>
        <time>2024-05-07T15:04:17Z</time>
      </trkpt>
      <trkpt lat="47.58698" lon="-3.02908">
        <ele>3.2</ele>
        <time>2024-05-07T15:04:18Z</time>
      </trkpt>
      <trkpt lat="47.58698" lon="-3.02908">
        <ele>3.2</ele>
        <time>2024-05-07T15:04:19Z</time>
      </trkpt>
      <trkpt lat="47.58698" lon="-3.02908">
        <ele>3.2</ele>
        <time>2024-05-07T15:04:20Z</time>
      </trkpt>
      <trkpt lat="47.58699" lon="-3.02908">
        <ele>3.2</ele>
        <time>2024-05-07T15:04:21Z</time>
      </trkpt>
      <trkpt lat="47.58699" lon="-3.02907">
        <ele>3.2</ele>
        <time>2024-05-07T15:04:22Z</time>
      </trkpt>
      <trkpt lat="47.58699" lon="-3.02907">
        <ele>3.2</ele>
        <time>2024-05-07T15:04:23Z</time>
      </trkpt>
      <trkpt lat="47.58698" lon="-3.02907">
        <ele>3.4</ele>
        <time>2024-05-07T15:04:24Z</time>
      </trkpt>
      <trkpt lat="47.58698" lon="-3.02907">
        <ele>3.4</ele>
        <time>2024-05-07T15:04:25Z</time>
      </trkpt>
      <trkpt lat="47.58698" lon="-3.02907">
        <ele>3.4</ele>
        <time>2024-05-07T15:04:26Z</time>
      </trkpt>
      <trkpt lat="47.58698" lon="-3.02907">
        <ele>3.4</ele>
        <time>2024-05-07T15:04:27Z</time>
      </trkpt>
      <trkpt lat="47.58698" lon="-3.02907">
        <ele>3.6</ele>
        <time>2024-05-07T15:04:28Z</time>
      </trkpt>
      <trkpt lat="47.58698" lon="-3.02907">
        <ele>3.6</ele>
        <time>2024-05-07T15:04:29Z</time>
      </trkpt>
      <trkpt lat="47.58698" lon="-3.02907">
        <ele>3.6</ele>
        <time>2024-05-07T15:04:30Z</time>
      </trkpt>
      <trkpt lat="47.58698" lon="-3.02907">
        <ele>3.6</ele>
        <time>2024-05-07T15:04:31Z</time>
      </trkpt>
      <trkpt lat="47.58698" lon="-3.02907">
        <ele>3.6</ele>
        <time>2024-05-07T15:04:32Z</time>
      </trkpt>
      <trkpt lat="47.58698" lon="-3.02908">
        <ele>3.6</ele>
        <time>2024-05-07T15:04:33Z</time>
      </trkpt>
      <trkpt lat="47.58697" lon="-3.02909">
        <ele>3.6</ele>
        <time>2024-05-07T15:04:34Z</time>
      </trkpt>
      <trkpt lat="47.58696" lon="-3.02911">
        <ele>3.6</ele>
        <time>2024-05-07T15:04:35Z</time>
      </trkpt>
      <trkpt lat="47.58695" lon="-3.02913">
        <ele>3.6</ele>
        <time>2024-05-07T15:04:36Z</time>
      </trkpt>
      <trkpt lat="47.58694" lon="-3.02914">
        <ele>3.6</ele>
        <time>2024-05-07T15:04:37Z</time>
      </trkpt>
      <trkpt lat="47.58694" lon="-3.02915">
        <ele>3.6</ele>
        <time>2024-05-07T15:04:38Z</time>
      </trkpt>
      <trkpt lat="47.58693" lon="-3.02915">
        <ele>3.6</ele>
        <time>2024-05-07T15:04:39Z</time>
      </trkpt>
      <trkpt lat="47.58693" lon="-3.02916">
        <ele>3.6</ele>
        <time>2024-05-07T15:04:40Z</time>
      </trkpt>
      <trkpt lat="47.58692" lon="-3.02918">
        <ele>3.6</ele>
        <time>2024-05-07T15:04:41Z</time>
      </trkpt>
      <trkpt lat="47.58691" lon="-3.02919">
        <ele>3.6</ele>
        <time>2024-05-07T15:04:42Z</time>
      </trkpt>
      <trkpt lat="47.5869" lon="-3.0292">
        <ele>3.6</ele>
        <time>2024-05-07T15:04:43Z</time>
      </trkpt>
      <trkpt lat="47.5869" lon="-3.02921">
        <ele>3.6</ele>
        <time>2024-05-07T15:04:44Z</time>
      </trkpt>
      <trkpt lat="47.5869" lon="-3.02921">
        <ele>4</ele>
        <time>2024-05-07T15:04:45Z</time>
      </trkpt>
      <trkpt lat="47.5869" lon="-3.02922">
        <ele>4.2</ele>
        <time>2024-05-07T15:04:46Z</time>
      </trkpt>
      <trkpt lat="47.58689" lon="-3.02923">
        <ele>4</ele>
        <time>2024-05-07T15:04:47Z</time>
      </trkpt>
      <trkpt lat="47.58689" lon="-3.02923">
        <ele>4</ele>
        <time>2024-05-07T15:04:48Z</time>
      </trkpt>
      <trkpt lat="47.58689" lon="-3.02923">
        <ele>3.8</ele>
        <time>2024-05-07T15:04:49Z</time>
      </trkpt>
      <trkpt lat="47.58689" lon="-3.02923">
        <ele>3.8</ele>
        <time>2024-05-07T15:04:50Z</time>
      </trkpt>
      <trkpt lat="47.58689" lon="-3.02922">
        <ele>3.6</ele>
        <time>2024-05-07T15:04:51Z</time>
      </trkpt>
      <trkpt lat="47.58689" lon="-3.02922">
        <ele>3.6</ele>
        <time>2024-05-07T15:04:52Z</time>
      </trkpt>
      <trkpt lat="47.58689" lon="-3.02922">
        <ele>3.4</ele>
        <time>2024-05-07T15:04:53Z</time>
      </trkpt>
      <trkpt lat="47.58689" lon="-3.02922">
        <ele>3.4</ele>
        <time>2024-05-07T15:04:54Z</time>
      </trkpt>
      <trkpt lat="47.58689" lon="-3.02922">
        <ele>3.4</ele>
        <time>2024-05-07T15:04:55Z</time>
      </trkpt>
      <trkpt lat="47.58689" lon="-3.02922">
        <ele>3.4</ele>
        <time>2024-05-07T15:04:56Z</time>
      </trkpt>
      <trkpt lat="47.58689" lon="-3.02922">
        <ele>3.2</ele>
        <time>2024-05-07T15:04:57Z</time>
      </trkpt>
      <trkpt lat="47.58689" lon="-3.02922">
        <ele>3.2</ele>
        <time>2024-05-07T15:04:58Z</time>
      </trkpt>
      <trkpt lat="47.58689" lon="-3.02922">
        <ele>3</ele>
        <time>2024-05-07T15:04:59Z</time>
      </trkpt>
      <trkpt lat="47.58689" lon="-3.02922">
        <ele>3</ele>
        <time>2024-05-07T15:05:00Z</time>
      </trkpt>
      <trkpt lat="47.58689" lon="-3.02922">
        <ele>3</ele>
        <time>2024-05-07T15:05:01Z</time>
      </trkpt>
      <trkpt lat="47.58689" lon="-3.02922">
        <ele>3</ele>
        <time>2024-05-07T15:05:02Z</time>
      </trkpt>
      <trkpt lat="47.58689" lon="-3.02922">
        <ele>3</ele>
        <time>2024-05-07T15:05:03Z</time>
      </trkpt>
      <trkpt lat="47.58689" lon="-3.02922">
        <ele>3.2</ele>
        <time>2024-05-07T15:05:04Z</time>
      </trkpt>
      <trkpt lat="47.58689" lon="-3.02922">
        <ele>3.6</ele>
        <time>2024-05-07T15:05:05Z</time>
      </trkpt>
      <trkpt lat="47.58689" lon="-3.02922">
        <ele>3.8</ele>
        <time>2024-05-07T15:05:06Z</time>
      </trkpt>
      <trkpt lat="47.58689" lon="-3.02922">
        <ele>3.8</ele>
        <time>2024-05-07T15:05:07Z</time>
      </trkpt>
      <trkpt lat="47.58689" lon="-3.02922">
        <ele>3.8</ele>
        <time>2024-05-07T15:05:08Z</time>
      </trkpt>
      <trkpt lat="47.58689" lon="-3.02922">
        <ele>3.4</ele>
        <time>2024-05-07T15:05:09Z</time>
      </trkpt>
      <trkpt lat="47.58689" lon="-3.02922">
        <ele>3.2</ele>
        <time>2024-05-07T15:05:10Z</time>
      </trkpt>
      <trkpt lat="47.58689" lon="-3.02922">
        <ele>3</ele>
        <time>2024-05-07T15:05:11Z</time>
      </trkpt>
      <trkpt lat="47.58689" lon="-3.02922">
        <ele>3.2</ele>
        <time>2024-05-07T15:05:12Z</time>
      </trkpt>
      <trkpt lat="47.58689" lon="-3.02922">
        <ele>3.2</ele>
        <time>2024-05-07T15:05:13Z</time>
      </trkpt>
      <trkpt lat="47.58689" lon="-3.02922">
        <ele>3</ele>
        <time>2024-05-07T15:05:14Z</time>
      </trkpt>
      <trkpt lat="47.58689" lon="-3.02922">
        <ele>2.2</ele>
        <time>2024-05-07T15:05:15Z</time>
      </trkpt>
      <trkpt lat="47.58689" lon="-3.02922">
        <ele>2</ele>
        <time>2024-05-07T15:05:16Z</time>
      </trkpt>
      <trkpt lat="47.58689" lon="-3.02922">
        <ele>2.2</ele>
        <time>2024-05-07T15:05:17Z</time>
      </trkpt>
      <trkpt lat="47.58689" lon="-3.02922">
        <ele>2.4</ele>
        <time>2024-05-07T15:05:18Z</time>
      </trkpt>
      <trkpt lat="47.58689" lon="-3.02922">
        <ele>1.8</ele>
        <time>2024-05-07T15:05:19Z</time>
      </trkpt>
      <trkpt lat="47.58689" lon="-3.02922">
        <ele>1.4</ele>
        <time>2024-05-07T15:05:20Z</time>
      </trkpt>
      <trkpt lat="47.58689" lon="-3.02922">
        <ele>1.2</ele>
        <time>2024-05-07T15:05:21Z</time>
      </trkpt>
      <trkpt lat="47.58689" lon="-3.02922">
        <ele>2.6</ele>
        <time>2024-05-07T15:05:22Z</time>
      </trkpt>
      <trkpt lat="47.58689" lon="-3.02922">
        <ele>2</ele>
        <time>2024-05-07T15:05:23Z</time>
      </trkpt>
      <trkpt lat="47.58689" lon="-3.02922">
        <ele>2.2</ele>
        <time>2024-05-07T15:05:24Z</time>
      </trkpt>
      <trkpt lat="47.58689" lon="-3.02922">
        <ele>2.8</ele>
        <time>2024-05-07T15:05:25Z</time>
      </trkpt>
      <trkpt lat="47.58689" lon="-3.02922">
        <ele>4.2</ele>
        <time>2024-05-07T15:05:26Z</time>
      </trkpt>
      <trkpt lat="47.58689" lon="-3.02922">
        <ele>4.6</ele>
        <time>2024-05-07T15:05:27Z</time>
      </trkpt>
      <trkpt lat="47.58689" lon="-3.02922">
        <ele>4.2</ele>
        <time>2024-05-07T15:05:28Z</time>
      </trkpt>
      <trkpt lat="47.58689" lon="-3.02922">
        <ele>3.8</ele>
        <time>2024-05-07T15:05:29Z</time>
      </trkpt>
      <trkpt lat="47.58689" lon="-3.02922">
        <ele>3.6</ele>
        <time>2024-05-07T15:05:30Z</time>
      </trkpt>
      <trkpt lat="47.58689" lon="-3.02922">
        <ele>3.6</ele>
        <time>2024-05-07T15:05:31Z</time>
      </trkpt>
      <trkpt lat="47.58689" lon="-3.02922">
        <ele>3.4</ele>
        <time>2024-05-07T15:05:32Z</time>
      </trkpt>
      <trkpt lat="47.58689" lon="-3.02922">
        <ele>3.2</ele>
        <time>2024-05-07T15:05:33Z</time>
      </trkpt>
      <trkpt lat="47.58689" lon="-3.02922">
        <ele>3</ele>
        <time>2024-05-07T15:05:34Z</time>
      </trkpt>
      <trkpt lat="47.58689" lon="-3.02922">
        <ele>3</ele>
        <time>2024-05-07T15:05:35Z</time>
      </trkpt>
      <trkpt lat="47.58689" lon="-3.02922">
        <ele>3</ele>
        <time>2024-05-07T15:05:36Z</time>
      </trkpt>
      <trkpt lat="47.58689" lon="-3.02922">
        <ele>3</ele>
        <time>2024-05-07T15:05:37Z</time>
      </trkpt>
      <trkpt lat="47.58689" lon="-3.02922">
        <ele>3</ele>
        <time>2024-05-07T15:05:38Z</time>
      </trkpt>
      <trkpt lat="47.58689" lon="-3.02922">
        <ele>3</ele>
        <time>2024-05-07T15:05:39Z</time>
      </trkpt>
      <trkpt lat="47.58689" lon="-3.02922">
        <ele>3</ele>
        <time>2024-05-07T15:05:40Z</time>
      </trkpt>
      <trkpt lat="47.58689" lon="-3.02922">
        <ele>3</ele>
        <time>2024-05-07T15:05:41Z</time>
      </trkpt>
      <trkpt lat="47.58689" lon="-3.02922">
        <ele>2.8</ele>
        <time>2024-05-07T15:05:42Z</time>
      </trkpt>
      <trkpt lat="47.58689" lon="-3.02922">
        <ele>2.6</ele>
        <time>2024-05-07T15:05:43Z</time>
      </trkpt>
      <trkpt lat="47.58689" lon="-3.02922">
        <ele>2.6</ele>
        <time>2024-05-07T15:05:44Z</time>
      </trkpt>
      <trkpt lat="47.58689" lon="-3.02922">
        <ele>2.6</ele>
        <time>2024-05-07T15:05:45Z</time>
      </trkpt>
      <trkpt lat="47.58689" lon="-3.02922">
        <ele>2.6</ele>
        <time>2024-05-07T15:05:46Z</time>
      </trkpt>
      <trkpt lat="47.58689" lon="-3.02922">
        <ele>2.4</ele>
        <time>2024-05-07T15:05:47Z</time>
      </trkpt>
      <trkpt lat="47.58689" lon="-3.02922">
        <ele>2.4</ele>
        <time>2024-05-07T15:05:48Z</time>
      </trkpt>
      <trkpt lat="47.58689" lon="-3.02921">
        <ele>2.2</ele>
        <time>2024-05-07T15:05:49Z</time>
      </trkpt>
      <trkpt lat="47.58689" lon="-3.02921">
        <ele>2.2</ele>
        <time>2024-05-07T15:05:50Z</time>
      </trkpt>
      <trkpt lat="47.58689" lon="-3.02921">
        <ele>2</ele>
        <time>2024-05-07T15:05:51Z</time>
      </trkpt>
      <trkpt lat="47.58689" lon="-3.02921">
        <ele>2</ele>
        <time>2024-05-07T15:05:52Z</time>
      </trkpt>
      <trkpt lat="47.58689" lon="-3.02921">
        <ele>2</ele>
        <time>2024-05-07T15:05:53Z</time>
      </trkpt>
      <trkpt lat="47.58689" lon="-3.02921">
        <ele>2</ele>
        <time>2024-05-07T15:05:54Z</time>
      </trkpt>
      <trkpt lat="47.58689" lon="-3.02921">
        <ele>2</ele>
        <time>2024-05-07T15:05:55Z</time>
      </trkpt>
      <trkpt lat="47.58689" lon="-3.02921">
        <ele>2</ele>
        <time>2024-05-07T15:05:56Z</time>
      </trkpt>
      <trkpt lat="47.58689" lon="-3.02921">
        <ele>2</ele>
        <time>2024-05-07T15:05:57Z</time>
      </trkpt>
      <trkpt lat="47.58689" lon="-3.02921">
        <ele>2.2</ele>
        <time>2024-05-07T15:05:58Z</time>
      </trkpt>
      <trkpt lat="47.58689" lon="-3.02921">
        <ele>2.2</ele>
        <time>2024-05-07T15:05:59Z</time>
      </trkpt>
      <trkpt lat="47.5869" lon="-3.02921">
        <ele>2.4</ele>
        <time>2024-05-07T15:06:00Z</time>
      </trkpt>
      <trkpt lat="47.5869" lon="-3.02921">
        <ele>2.4</ele>
        <time>2024-05-07T15:06:01Z</time>
      </trkpt>
      <trkpt lat="47.5869" lon="-3.02921">
        <ele>2.4</ele>
        <time>2024-05-07T15:06:02Z</time>
      </trkpt>
      <trkpt lat="47.5869" lon="-3.02921">
        <ele>2.4</ele>
        <time>2024-05-07T15:06:03Z</time>
      </trkpt>
      <trkpt lat="47.5869" lon="-3.02921">
        <ele>2.4</ele>
        <time>2024-05-07T15:06:04Z</time>
      </trkpt>
      <trkpt lat="47.5869" lon="-3.02921">
        <ele>2.4</ele>
        <time>2024-05-07T15:06:05Z</time>
      </trkpt>
      <trkpt lat="47.5869" lon="-3.02921">
        <ele>2.4</ele>
        <time>2024-05-07T15:06:06Z</time>
      </trkpt>
      <trkpt lat="47.5869" lon="-3.02921">
        <ele>2.4</ele>
        <time>2024-05-07T15:06:07Z</time>
      </trkpt>
      <trkpt lat="47.5869" lon="-3.02921">
        <ele>2.4</ele>
        <time>2024-05-07T15:06:08Z</time>
      </trkpt>
      <trkpt lat="47.5869" lon="-3.02921">
        <ele>2.4</ele>
        <time>2024-05-07T15:06:09Z</time>
      </trkpt>
      <trkpt lat="47.5869" lon="-3.02921">
        <ele>2.4</ele>
        <time>2024-05-07T15:06:10Z</time>
      </trkpt>
      <trkpt lat="47.5869" lon="-3.02921">
        <ele>2.4</ele>
        <time>2024-05-07T15:06:11Z</time>
      </trkpt>
      <trkpt lat="47.5869" lon="-3.02921">
        <ele>2.4</ele>
        <time>2024-05-07T15:06:12Z</time>
      </trkpt>
      <trkpt lat="47.5869" lon="-3.02921">
        <ele>2.6</ele>
        <time>2024-05-07T15:06:13Z</time>
      </trkpt>
      <trkpt lat="47.5869" lon="-3.02921">
        <ele>2.6</ele>
        <time>2024-05-07T15:06:14Z</time>
      </trkpt>
      <trkpt lat="47.5869" lon="-3.02921">
        <ele>2.6</ele>
        <time>2024-05-07T15:06:15Z</time>
      </trkpt>
      <trkpt lat="47.5869" lon="-3.02921">
        <ele>2.6</ele>
        <time>2024-05-07T15:06:16Z</time>
      </trkpt>
      <trkpt lat="47.5869" lon="-3.02921">
        <ele>2.6</ele>
        <time>2024-05-07T15:06:17Z</time>
      </trkpt>
      <trkpt lat="47.5869" lon="-3.02921">
        <ele>2.6</ele>
        <time>2024-05-07T15:06:18Z</time>
      </trkpt>
      <trkpt lat="47.5869" lon="-3.02921">
        <ele>2.6</ele>
        <time>2024-05-07T15:06:19Z</time>
      </trkpt>
      <trkpt lat="47.5869" lon="-3.02921">
        <ele>2.8</ele>
        <time>2024-05-07T15:06:20Z</time>
      </trkpt>
      <trkpt lat="47.5869" lon="-3.02921">
        <ele>2.8</ele>
        <time>2024-05-07T15:06:21Z</time>
      </trkpt>
      <trkpt lat="47.5869" lon="-3.02921">
        <ele>2.8</ele>
        <time>2024-05-07T15:06:22Z</time>
      </trkpt>
      <trkpt lat="47.5869" lon="-3.02921">
        <ele>2.8</ele>
        <time>2024-05-07T15:06:23Z</time>
      </trkpt>
      <trkpt lat="47.5869" lon="-3.02921">
        <ele>2.8</ele>
        <time>2024-05-07T15:06:24Z</time>
      </trkpt>
      <trkpt lat="47.5869" lon="-3.02921">
        <ele>2.8</ele>
        <time>2024-05-07T15:06:25Z</time>
      </trkpt>
      <trkpt lat="47.5869" lon="-3.02921">
        <ele>2.8</ele>
        <time>2024-05-07T15:06:26Z</time>
      </trkpt>
      <trkpt lat="47.5869" lon="-3.02921">
        <ele>2.8</ele>
        <time>2024-05-07T15:06:27Z</time>
      </trkpt>
      <trkpt lat="47.5869" lon="-3.02921">
        <ele>2.8</ele>
        <time>2024-05-07T15:06:28Z</time>
      </trkpt>
      <trkpt lat="47.5869" lon="-3.02921">
        <ele>2.8</ele>
        <time>2024-05-07T15:06:29Z</time>
      </trkpt>
      <trkpt lat="47.58691" lon="-3.02921">
        <ele>2.8</ele>
        <time>2024-05-07T15:06:30Z</time>
      </trkpt>
      <trkpt lat="47.58691" lon="-3.02921">
        <ele>2.8</ele>
        <time>2024-05-07T15:06:31Z</time>
      </trkpt>
      <trkpt lat="47.58691" lon="-3.02921">
        <ele>2.8</ele>
        <time>2024-05-07T15:06:32Z</time>
      </trkpt>
      <trkpt lat="47.58691" lon="-3.02921">
        <ele>2.8</ele>
        <time>2024-05-07T15:06:33Z</time>
      </trkpt>
      <trkpt lat="47.58691" lon="-3.02921">
        <ele>2.8</ele>
        <time>2024-05-07T15:06:34Z</time>
      </trkpt>
      <trkpt lat="47.58691" lon="-3.02921">
        <ele>2.8</ele>
        <time>2024-05-07T15:06:35Z</time>
      </trkpt>
      <trkpt lat="47.58691" lon="-3.02921">
        <ele>2.8</ele>
        <time>2024-05-07T15:06:36Z</time>
      </trkpt>
      <trkpt lat="47.58691" lon="-3.02921">
        <ele>2.8</ele>
        <time>2024-05-07T15:06:37Z</time>
      </trkpt>
      <trkpt lat="47.58691" lon="-3.02921">
        <ele>2.8</ele>
        <time>2024-05-07T15:06:38Z</time>
      </trkpt>
      <trkpt lat="47.58691" lon="-3.02921">
        <ele>2.8</ele>
        <time>2024-05-07T15:06:39Z</time>
      </trkpt>
      <trkpt lat="47.58691" lon="-3.02921">
        <ele>2.8</ele>
        <time>2024-05-07T15:06:40Z</time>
      </trkpt>
      <trkpt lat="47.58691" lon="-3.02921">
        <ele>2.8</ele>
        <time>2024-05-07T15:06:41Z</time>
      </trkpt>
      <trkpt lat="47.58691" lon="-3.02921">
        <ele>3</ele>
        <time>2024-05-07T15:06:42Z</time>
      </trkpt>
      <trkpt lat="47.58691" lon="-3.02921">
        <ele>3</ele>
        <time>2024-05-07T15:06:43Z</time>
      </trkpt>
      <trkpt lat="47.58691" lon="-3.02921">
        <ele>3</ele>
        <time>2024-05-07T15:06:44Z</time>
      </trkpt>
      <trkpt lat="47.58691" lon="-3.02921">
        <ele>3</ele>
        <time>2024-05-07T15:06:45Z</time>
      </trkpt>
      <trkpt lat="47.58691" lon="-3.0292">
        <ele>3</ele>
        <time>2024-05-07T15:06:46Z</time>
      </trkpt>
      <trkpt lat="47.58691" lon="-3.0292">
        <ele>3</ele>
        <time>2024-05-07T15:06:47Z</time>
      </trkpt>
      <trkpt lat="47.58691" lon="-3.0292">
        <ele>3</ele>
        <time>2024-05-07T15:06:48Z</time>
      </trkpt>
      <trkpt lat="47.58691" lon="-3.0292">
        <ele>3</ele>
        <time>2024-05-07T15:06:49Z</time>
      </trkpt>
      <trkpt lat="47.58691" lon="-3.0292">
        <ele>2.8</ele>
        <time>2024-05-07T15:06:50Z</time>
      </trkpt>
      <trkpt lat="47.58691" lon="-3.0292">
        <ele>2.8</ele>
        <time>2024-05-07T15:06:51Z</time>
      </trkpt>
      <trkpt lat="47.58691" lon="-3.0292">
        <ele>2.8</ele>
        <time>2024-05-07T15:06:52Z</time>
      </trkpt>
      <trkpt lat="47.58691" lon="-3.0292">
        <ele>2.8</ele>
        <time>2024-05-07T15:06:53Z</time>
      </trkpt>
      <trkpt lat="47.58691" lon="-3.0292">
        <ele>2.8</ele>
        <time>2024-05-07T15:06:54Z</time>
      </trkpt>
      <trkpt lat="47.58691" lon="-3.0292">
        <ele>2.8</ele>
        <time>2024-05-07T15:06:55Z</time>
      </trkpt>
      <trkpt lat="47.58691" lon="-3.0292">
        <ele>2.8</ele>
        <time>2024-05-07T15:06:56Z</time>
      </trkpt>
      <trkpt lat="47.58691" lon="-3.0292">
        <ele>2.8</ele>
        <time>2024-05-07T15:06:57Z</time>
      </trkpt>
      <trkpt lat="47.58691" lon="-3.0292">
        <ele>2.8</ele>
        <time>2024-05-07T15:06:58Z</time>
      </trkpt>
      <trkpt lat="47.58691" lon="-3.0292">
        <ele>2.6</ele>
        <time>2024-05-07T15:06:59Z</time>
      </trkpt>
      <trkpt lat="47.58691" lon="-3.0292">
        <ele>2.6</ele>
        <time>2024-05-07T15:07:00Z</time>
      </trkpt>
      <trkpt lat="47.58691" lon="-3.0292">
        <ele>2.8</ele>
        <time>2024-05-07T15:07:01Z</time>
      </trkpt>
      <trkpt lat="47.58691" lon="-3.0292">
        <ele>2.8</ele>
        <time>2024-05-07T15:07:02Z</time>
      </trkpt>
      <trkpt lat="47.58692" lon="-3.0292">
        <ele>2.8</ele>
        <time>2024-05-07T15:07:03Z</time>
      </trkpt>
      <trkpt lat="47.58692" lon="-3.0292">
        <ele>2.8</ele>
        <time>2024-05-07T15:07:04Z</time>
      </trkpt>
      <trkpt lat="47.58692" lon="-3.0292">
        <ele>2.8</ele>
        <time>2024-05-07T15:07:05Z</time>
      </trkpt>
      <trkpt lat="47.58692" lon="-3.02919">
        <ele>2.8</ele>
        <time>2024-05-07T15:07:06Z</time>
      </trkpt>
      <trkpt lat="47.58692" lon="-3.02919">
        <ele>2.8</ele>
        <time>2024-05-07T15:07:07Z</time>
      </trkpt>
      <trkpt lat="47.58692" lon="-3.02919">
        <ele>2.8</ele>
        <time>2024-05-07T15:07:08Z</time>
      </trkpt>
      <trkpt lat="47.58692" lon="-3.02919">
        <ele>2.8</ele>
        <time>2024-05-07T15:07:09Z</time>
      </trkpt>
      <trkpt lat="47.58692" lon="-3.02919">
        <ele>2.8</ele>
        <time>2024-05-07T15:07:10Z</time>
      </trkpt>
      <trkpt lat="47.58692" lon="-3.02919">
        <ele>2.8</ele>
        <time>2024-05-07T15:07:11Z</time>
      </trkpt>
      <trkpt lat="47.58692" lon="-3.02919">
        <ele>2.8</ele>
        <time>2024-05-07T15:07:12Z</time>
      </trkpt>
      <trkpt lat="47.58692" lon="-3.02919">
        <ele>2.8</ele>
        <time>2024-05-07T15:07:13Z</time>
      </trkpt>
      <trkpt lat="47.58692" lon="-3.02919">
        <ele>2.6</ele>
        <time>2024-05-07T15:07:14Z</time>
      </trkpt>
      <trkpt lat="47.58692" lon="-3.02919">
        <ele>2.6</ele>
        <time>2024-05-07T15:07:15Z</time>
      </trkpt>
      <trkpt lat="47.58692" lon="-3.02919">
        <ele>2.6</ele>
        <time>2024-05-07T15:07:16Z</time>
      </trkpt>
      <trkpt lat="47.58692" lon="-3.02919">
        <ele>2.6</ele>
        <time>2024-05-07T15:07:17Z</time>
      </trkpt>
      <trkpt lat="47.58692" lon="-3.02919">
        <ele>2.6</ele>
        <time>2024-05-07T15:07:18Z</time>
      </trkpt>
      <trkpt lat="47.58692" lon="-3.02919">
        <ele>2.6</ele>
        <time>2024-05-07T15:07:19Z</time>
      </trkpt>
      <trkpt lat="47.58692" lon="-3.02919">
        <ele>2.6</ele>
        <time>2024-05-07T15:07:20Z</time>
      </trkpt>
      <trkpt lat="47.58692" lon="-3.02919">
        <ele>2.6</ele>
        <time>2024-05-07T15:07:21Z</time>
      </trkpt>
      <trkpt lat="47.58692" lon="-3.02919">
        <ele>2.6</ele>
        <time>2024-05-07T15:07:22Z</time>
      </trkpt>
      <trkpt lat="47.58692" lon="-3.02919">
        <ele>2.6</ele>
        <time>2024-05-07T15:07:23Z</time>
      </trkpt>
      <trkpt lat="47.58692" lon="-3.02919">
        <ele>2.8</ele>
        <time>2024-05-07T15:07:24Z</time>
      </trkpt>
      <trkpt lat="47.58692" lon="-3.02919">
        <ele>2.8</ele>
        <time>2024-05-07T15:07:25Z</time>
      </trkpt>
      <trkpt lat="47.58692" lon="-3.02919">
        <ele>3</ele>
        <time>2024-05-07T15:07:26Z</time>
      </trkpt>
      <trkpt lat="47.58692" lon="-3.02919">
        <ele>3</ele>
        <time>2024-05-07T15:07:27Z</time>
      </trkpt>
      <trkpt lat="47.58692" lon="-3.02919">
        <ele>3.2</ele>
        <time>2024-05-07T15:07:28Z</time>
      </trkpt>
      <trkpt lat="47.58692" lon="-3.02919">
        <ele>3.2</ele>
        <time>2024-05-07T15:07:29Z</time>
      </trkpt>
      <trkpt lat="47.58692" lon="-3.02919">
        <ele>3.2</ele>
        <time>2024-05-07T15:07:30Z</time>
      </trkpt>
      <trkpt lat="47.58692" lon="-3.02919">
        <ele>3.4</ele>
        <time>2024-05-07T15:07:31Z</time>
      </trkpt>
      <trkpt lat="47.58692" lon="-3.02919">
        <ele>3.4</ele>
        <time>2024-05-07T15:07:32Z</time>
      </trkpt>
      <trkpt lat="47.58692" lon="-3.02919">
        <ele>3.4</ele>
        <time>2024-05-07T15:07:33Z</time>
      </trkpt>
      <trkpt lat="47.58692" lon="-3.02919">
        <ele>3.4</ele>
        <time>2024-05-07T15:07:34Z</time>
      </trkpt>
      <trkpt lat="47.58692" lon="-3.02919">
        <ele>3.6</ele>
        <time>2024-05-07T15:07:35Z</time>
      </trkpt>
      <trkpt lat="47.58692" lon="-3.02919">
        <ele>3.6</ele>
        <time>2024-05-07T15:07:36Z</time>
      </trkpt>
      <trkpt lat="47.58692" lon="-3.02919">
        <ele>3.6</ele>
        <time>2024-05-07T15:07:37Z</time>
      </trkpt>
      <trkpt lat="47.58692" lon="-3.02919">
        <ele>3.6</ele>
        <time>2024-05-07T15:07:38Z</time>
      </trkpt>
      <trkpt lat="47.58692" lon="-3.02919">
        <ele>3.4</ele>
        <time>2024-05-07T15:07:39Z</time>
      </trkpt>
      <trkpt lat="47.58692" lon="-3.02919">
        <ele>3.4</ele>
        <time>2024-05-07T15:07:40Z</time>
      </trkpt>
      <trkpt lat="47.58692" lon="-3.02919">
        <ele>3.6</ele>
        <time>2024-05-07T15:07:41Z</time>
      </trkpt>
      <trkpt lat="47.58692" lon="-3.02919">
        <ele>3.6</ele>
        <time>2024-05-07T15:07:42Z</time>
      </trkpt>
      <trkpt lat="47.58692" lon="-3.02919">
        <ele>3.8</ele>
        <time>2024-05-07T15:07:43Z</time>
      </trkpt>
      <trkpt lat="47.58692" lon="-3.02919">
        <ele>3.8</ele>
        <time>2024-05-07T15:07:44Z</time>
      </trkpt>
      <trkpt lat="47.58692" lon="-3.02919">
        <ele>3.8</ele>
        <time>2024-05-07T15:07:45Z</time>
      </trkpt>
      <trkpt lat="47.58692" lon="-3.02919">
        <ele>3.8</ele>
        <time>2024-05-07T15:07:46Z</time>
      </trkpt>
      <trkpt lat="47.58692" lon="-3.02919">
        <ele>3.8</ele>
        <time>2024-05-07T15:07:47Z</time>
      </trkpt>
      <trkpt lat="47.58692" lon="-3.02919">
        <ele>3.8</ele>
        <time>2024-05-07T15:07:48Z</time>
      </trkpt>
      <trkpt lat="47.58692" lon="-3.02918">
        <ele>3.6</ele>
        <time>2024-05-07T15:07:49Z</time>
      </trkpt>
      <trkpt lat="47.58694" lon="-3.02918">
        <ele>3.6</ele>
        <time>2024-05-07T15:07:50Z</time>
      </trkpt>
      <trkpt lat="47.58695" lon="-3.02918">
        <ele>3.6</ele>
        <time>2024-05-07T15:07:51Z</time>
      </trkpt>
      <trkpt lat="47.58697" lon="-3.02918">
        <ele>3.6</ele>
        <time>2024-05-07T15:07:52Z</time>
      </trkpt>
      <trkpt lat="47.58698" lon="-3.02917">
        <ele>3.6</ele>
        <time>2024-05-07T15:07:53Z</time>
      </trkpt>
      <trkpt lat="47.58699" lon="-3.02916">
        <ele>3.6</ele>
        <time>2024-05-07T15:07:54Z</time>
      </trkpt>
      <trkpt lat="47.587" lon="-3.02915">
        <ele>3.6</ele>
        <time>2024-05-07T15:07:55Z</time>
      </trkpt>
      <trkpt lat="47.58701" lon="-3.02914">
        <ele>3.4</ele>
        <time>2024-05-07T15:07:56Z</time>
      </trkpt>
      <trkpt lat="47.58701" lon="-3.02913">
        <ele>3.4</ele>
        <time>2024-05-07T15:07:57Z</time>
      </trkpt>
      <trkpt lat="47.58702" lon="-3.02913">
        <ele>3.4</ele>
        <time>2024-05-07T15:07:58Z</time>
      </trkpt>
      <trkpt lat="47.58701" lon="-3.02914">
        <ele>3.4</ele>
        <time>2024-05-07T15:07:59Z</time>
      </trkpt>
      <trkpt lat="47.587" lon="-3.02914">
        <ele>3.2</ele>
        <time>2024-05-07T15:08:00Z</time>
      </trkpt>
      <trkpt lat="47.587" lon="-3.02915">
        <ele>3.2</ele>
        <time>2024-05-07T15:08:01Z</time>
      </trkpt>
      <trkpt lat="47.587" lon="-3.02916">
        <ele>3.2</ele>
        <time>2024-05-07T15:08:02Z</time>
      </trkpt>
      <trkpt lat="47.58701" lon="-3.02917">
        <ele>3</ele>
        <time>2024-05-07T15:08:03Z</time>
      </trkpt>
      <trkpt lat="47.58701" lon="-3.02917">
        <ele>3</ele>
        <time>2024-05-07T15:08:04Z</time>
      </trkpt>
      <trkpt lat="47.58701" lon="-3.02917">
        <ele>3</ele>
        <time>2024-05-07T15:08:05Z</time>
      </trkpt>
      <trkpt lat="47.58702" lon="-3.02917">
        <ele>3</ele>
        <time>2024-05-07T15:08:06Z</time>
      </trkpt>
      <trkpt lat="47.58702" lon="-3.02917">
        <ele>3</ele>
        <time>2024-05-07T15:08:07Z</time>
      </trkpt>
      <trkpt lat="47.58703" lon="-3.02917">
        <ele>3</ele>
        <time>2024-05-07T15:08:08Z</time>
      </trkpt>
      <trkpt lat="47.58704" lon="-3.02917">
        <ele>3</ele>
        <time>2024-05-07T15:08:09Z</time>
      </trkpt>
      <trkpt lat="47.58704" lon="-3.02917">
        <ele>3</ele>
        <time>2024-05-07T15:08:10Z</time>
      </trkpt>
      <trkpt lat="47.58705" lon="-3.02918">
        <ele>3</ele>
        <time>2024-05-07T15:08:11Z</time>
      </trkpt>
      <trkpt lat="47.58705" lon="-3.02918">
        <ele>3</ele>
        <time>2024-05-07T15:08:12Z</time>
      </trkpt>
      <trkpt lat="47.58705" lon="-3.02919">
        <ele>3</ele>
        <time>2024-05-07T15:08:13Z</time>
      </trkpt>
      <trkpt lat="47.58704" lon="-3.0292">
        <ele>2.4</ele>
        <time>2024-05-07T15:08:14Z</time>
      </trkpt>
      <trkpt lat="47.58704" lon="-3.02921">
        <ele>2.4</ele>
        <time>2024-05-07T15:08:15Z</time>
      </trkpt>
      <trkpt lat="47.58703" lon="-3.02923">
        <ele>2.2</ele>
        <time>2024-05-07T15:08:16Z</time>
      </trkpt>
      <trkpt lat="47.58702" lon="-3.02925">
        <ele>2</ele>
        <time>2024-05-07T15:08:17Z</time>
      </trkpt>
      <trkpt lat="47.58701" lon="-3.02927">
        <ele>2</ele>
        <time>2024-05-07T15:08:18Z</time>
      </trkpt>
      <trkpt lat="47.587" lon="-3.02928">
        <ele>2</ele>
        <time>2024-05-07T15:08:19Z</time>
      </trkpt>
      <trkpt lat="47.58699" lon="-3.02928">
        <ele>2</ele>
        <time>2024-05-07T15:08:20Z</time>
      </trkpt>
      <trkpt lat="47.58698" lon="-3.02929">
        <ele>2</ele>
        <time>2024-05-07T15:08:21Z</time>
      </trkpt>
      <trkpt lat="47.58697" lon="-3.0293">
        <ele>2</ele>
        <time>2024-05-07T15:08:22Z</time>
      </trkpt>
      <trkpt lat="47.58696" lon="-3.02931">
        <ele>2</ele>
        <time>2024-05-07T15:08:23Z</time>
      </trkpt>
      <trkpt lat="47.58695" lon="-3.02932">
        <ele>2</ele>
        <time>2024-05-07T15:08:24Z</time>
      </trkpt>
      <trkpt lat="47.58695" lon="-3.02934">
        <ele>2</ele>
        <time>2024-05-07T15:08:25Z</time>
      </trkpt>
      <trkpt lat="47.58694" lon="-3.02934">
        <ele>2.2</ele>
        <time>2024-05-07T15:08:26Z</time>
      </trkpt>
      <trkpt lat="47.58693" lon="-3.02935">
        <ele>2.2</ele>
        <time>2024-05-07T15:08:27Z</time>
      </trkpt>
      <trkpt lat="47.58693" lon="-3.02936">
        <ele>2.4</ele>
        <time>2024-05-07T15:08:28Z</time>
      </trkpt>
      <trkpt lat="47.58692" lon="-3.02937">
        <ele>2.4</ele>
        <time>2024-05-07T15:08:29Z</time>
      </trkpt>
      <trkpt lat="47.58691" lon="-3.02939">
        <ele>2.6</ele>
        <time>2024-05-07T15:08:30Z</time>
      </trkpt>
      <trkpt lat="47.58689" lon="-3.0294">
        <ele>2.6</ele>
        <time>2024-05-07T15:08:31Z</time>
      </trkpt>
      <trkpt lat="47.58688" lon="-3.02941">
        <ele>2.8</ele>
        <time>2024-05-07T15:08:32Z</time>
      </trkpt>
      <trkpt lat="47.58686" lon="-3.02941">
        <ele>3</ele>
        <time>2024-05-07T15:08:33Z</time>
      </trkpt>
      <trkpt lat="47.58685" lon="-3.02942">
        <ele>3</ele>
        <time>2024-05-07T15:08:34Z</time>
      </trkpt>
      <trkpt lat="47.58684" lon="-3.02943">
        <ele>3.2</ele>
        <time>2024-05-07T15:08:35Z</time>
      </trkpt>
      <trkpt lat="47.58683" lon="-3.02944">
        <ele>3.2</ele>
        <time>2024-05-07T15:08:36Z</time>
      </trkpt>
      <trkpt lat="47.58683" lon="-3.02945">
        <ele>3.4</ele>
        <time>2024-05-07T15:08:37Z</time>
      </trkpt>
      <trkpt lat="47.58682" lon="-3.02946">
        <ele>3.4</ele>
        <time>2024-05-07T15:08:38Z</time>
      </trkpt>
      <trkpt lat="47.58682" lon="-3.02947">
        <ele>3.6</ele>
        <time>2024-05-07T15:08:39Z</time>
      </trkpt>
      <trkpt lat="47.58681" lon="-3.02947">
        <ele>3.6</ele>
        <time>2024-05-07T15:08:40Z</time>
      </trkpt>
      <trkpt lat="47.5868" lon="-3.02948">
        <ele>3.6</ele>
        <time>2024-05-07T15:08:41Z</time>
      </trkpt>
      <trkpt lat="47.58679" lon="-3.02948">
        <ele>3.8</ele>
        <time>2024-05-07T15:08:42Z</time>
      </trkpt>
      <trkpt lat="47.58677" lon="-3.02948">
        <ele>3.8</ele>
        <time>2024-05-07T15:08:43Z</time>
      </trkpt>
      <trkpt lat="47.58676" lon="-3.02949">
        <ele>4</ele>
        <time>2024-05-07T15:08:44Z</time>
      </trkpt>
      <trkpt lat="47.58676" lon="-3.0295">
        <ele>4.2</ele>
        <time>2024-05-07T15:08:45Z</time>
      </trkpt>
      <trkpt lat="47.58676" lon="-3.0295">
        <ele>4.2</ele>
        <time>2024-05-07T15:08:46Z</time>
      </trkpt>
      <trkpt lat="47.58675" lon="-3.02951">
        <ele>4.4</ele>
        <time>2024-05-07T15:08:47Z</time>
      </trkpt>
      <trkpt lat="47.58674" lon="-3.02952">
        <ele>4.4</ele>
        <time>2024-05-07T15:08:48Z</time>
      </trkpt>
      <trkpt lat="47.58672" lon="-3.02954">
        <ele>4.6</ele>
        <time>2024-05-07T15:08:49Z</time>
      </trkpt>
      <trkpt lat="47.5867" lon="-3.02955">
        <ele>4.6</ele>
        <time>2024-05-07T15:08:50Z</time>
      </trkpt>
      <trkpt lat="47.58668" lon="-3.02957">
        <ele>4.6</ele>
        <time>2024-05-07T15:08:51Z</time>
      </trkpt>
      <trkpt lat="47.58667" lon="-3.02959">
        <ele>4.6</ele>
        <time>2024-05-07T15:08:52Z</time>
      </trkpt>
      <trkpt lat="47.58666" lon="-3.0296">
        <ele>4.6</ele>
        <time>2024-05-07T15:08:53Z</time>
      </trkpt>
      <trkpt lat="47.58665" lon="-3.0296">
        <ele>4.8</ele>
        <time>2024-05-07T15:08:54Z</time>
      </trkpt>
      <trkpt lat="47.58664" lon="-3.02962">
        <ele>4.8</ele>
        <time>2024-05-07T15:08:55Z</time>
      </trkpt>
      <trkpt lat="47.58664" lon="-3.02963">
        <ele>5</ele>
        <time>2024-05-07T15:08:56Z</time>
      </trkpt>
      <trkpt lat="47.58664" lon="-3.02964">
        <ele>5.2</ele>
        <time>2024-05-07T15:08:57Z</time>
      </trkpt>
      <trkpt lat="47.58664" lon="-3.02965">
        <ele>5.2</ele>
        <time>2024-05-07T15:08:58Z</time>
      </trkpt>
      <trkpt lat="47.58663" lon="-3.02966">
        <ele>5.4</ele>
        <time>2024-05-07T15:08:59Z</time>
      </trkpt>
      <trkpt lat="47.58661" lon="-3.02968">
        <ele>5.4</ele>
        <time>2024-05-07T15:09:00Z</time>
      </trkpt>
      <trkpt lat="47.58659" lon="-3.0297">
        <ele>5.4</ele>
        <time>2024-05-07T15:09:01Z</time>
      </trkpt>
      <trkpt lat="47.58657" lon="-3.02971">
        <ele>5.6</ele>
        <time>2024-05-07T15:09:02Z</time>
      </trkpt>
      <trkpt lat="47.58655" lon="-3.02972">
        <ele>5.6</ele>
        <time>2024-05-07T15:09:03Z</time>
      </trkpt>
      <trkpt lat="47.58655" lon="-3.02974">
        <ele>5.6</ele>
        <time>2024-05-07T15:09:04Z</time>
      </trkpt>
      <trkpt lat="47.58654" lon="-3.02975">
        <ele>5.8</ele>
        <time>2024-05-07T15:09:05Z</time>
      </trkpt>
      <trkpt lat="47.58653" lon="-3.02977">
        <ele>5.8</ele>
        <time>2024-05-07T15:09:06Z</time>
      </trkpt>
      <trkpt lat="47.58652" lon="-3.02977">
        <ele>5.8</ele>
        <time>2024-05-07T15:09:07Z</time>
      </trkpt>
      <trkpt lat="47.58651" lon="-3.02978">
        <ele>6</ele>
        <time>2024-05-07T15:09:08Z</time>
      </trkpt>
      <trkpt lat="47.5865" lon="-3.0298">
        <ele>6</ele>
        <time>2024-05-07T15:09:09Z</time>
      </trkpt>
      <trkpt lat="47.58649" lon="-3.02981">
        <ele>6.2</ele>
        <time>2024-05-07T15:09:10Z</time>
      </trkpt>
      <trkpt lat="47.58648" lon="-3.02982">
        <ele>6.4</ele>
        <time>2024-05-07T15:09:11Z</time>
      </trkpt>
      <trkpt lat="47.58646" lon="-3.02982">
        <ele>6.4</ele>
        <time>2024-05-07T15:09:12Z</time>
      </trkpt>
      <trkpt lat="47.58645" lon="-3.02983">
        <ele>6.6</ele>
        <time>2024-05-07T15:09:13Z</time>
      </trkpt>
      <trkpt lat="47.58644" lon="-3.02984">
        <ele>6.6</ele>
        <time>2024-05-07T15:09:14Z</time>
      </trkpt>
      <trkpt lat="47.58644" lon="-3.02986">
        <ele>6.8</ele>
        <time>2024-05-07T15:09:15Z</time>
      </trkpt>
      <trkpt lat="47.58643" lon="-3.02987">
        <ele>6.8</ele>
        <time>2024-05-07T15:09:16Z</time>
      </trkpt>
      <trkpt lat="47.58641" lon="-3.02988">
        <ele>7</ele>
        <time>2024-05-07T15:09:17Z</time>
      </trkpt>
      <trkpt lat="47.5864" lon="-3.02989">
        <ele>7.2</ele>
        <time>2024-05-07T15:09:18Z</time>
      </trkpt>
      <trkpt lat="47.58639" lon="-3.02989">
        <ele>7.2</ele>
        <time>2024-05-07T15:09:19Z</time>
      </trkpt>
      <trkpt lat="47.58638" lon="-3.02989">
        <ele>7.2</ele>
        <time>2024-05-07T15:09:20Z</time>
      </trkpt>
      <trkpt lat="47.58637" lon="-3.02989">
        <ele>7.4</ele>
        <time>2024-05-07T15:09:21Z</time>
      </trkpt>
      <trkpt lat="47.58636" lon="-3.02989">
        <ele>7.4</ele>
        <time>2024-05-07T15:09:22Z</time>
      </trkpt>
      <trkpt lat="47.58634" lon="-3.0299">
        <ele>7.6</ele>
        <time>2024-05-07T15:09:23Z</time>
      </trkpt>
      <trkpt lat="47.58632" lon="-3.02991">
        <ele>7.6</ele>
        <time>2024-05-07T15:09:24Z</time>
      </trkpt>
      <trkpt lat="47.5863" lon="-3.02992">
        <ele>7.8</ele>
        <time>2024-05-07T15:09:25Z</time>
      </trkpt>
      <trkpt lat="47.58628" lon="-3.02993">
        <ele>7.8</ele>
        <time>2024-05-07T15:09:26Z</time>
      </trkpt>
      <trkpt lat="47.58627" lon="-3.02994">
        <ele>8</ele>
        <time>2024-05-07T15:09:27Z</time>
      </trkpt>
      <trkpt lat="47.58626" lon="-3.02995">
        <ele>8</ele>
        <time>2024-05-07T15:09:28Z</time>
      </trkpt>
      <trkpt lat="47.58626" lon="-3.02995">
        <ele>8.2</ele>
        <time>2024-05-07T15:09:29Z</time>
      </trkpt>
      <trkpt lat="47.58625" lon="-3.02996">
        <ele>8.2</ele>
        <time>2024-05-07T15:09:30Z</time>
      </trkpt>
      <trkpt lat="47.58624" lon="-3.02996">
        <ele>8.4</ele>
        <time>2024-05-07T15:09:31Z</time>
      </trkpt>
      <trkpt lat="47.58623" lon="-3.02997">
        <ele>8.6</ele>
        <time>2024-05-07T15:09:32Z</time>
      </trkpt>
      <trkpt lat="47.58622" lon="-3.02997">
        <ele>8.6</ele>
        <time>2024-05-07T15:09:33Z</time>
      </trkpt>
      <trkpt lat="47.58622" lon="-3.02998">
        <ele>8.8</ele>
        <time>2024-05-07T15:09:34Z</time>
      </trkpt>
      <trkpt lat="47.58621" lon="-3.02998">
        <ele>8.8</ele>
        <time>2024-05-07T15:09:35Z</time>
      </trkpt>
      <trkpt lat="47.5862" lon="-3.02998">
        <ele>9.2</ele>
        <time>2024-05-07T15:09:36Z</time>
      </trkpt>
      <trkpt lat="47.58618" lon="-3.02998">
        <ele>9.2</ele>
        <time>2024-05-07T15:09:37Z</time>
      </trkpt>
      <trkpt lat="47.58617" lon="-3.02998">
        <ele>9.4</ele>
        <time>2024-05-07T15:09:38Z</time>
      </trkpt>
      <trkpt lat="47.58616" lon="-3.02998">
        <ele>9.6</ele>
        <time>2024-05-07T15:09:39Z</time>
      </trkpt>
      <trkpt lat="47.58614" lon="-3.02997">
        <ele>9.6</ele>
        <time>2024-05-07T15:09:40Z</time>
      </trkpt>
      <trkpt lat="47.58613" lon="-3.02996">
        <ele>9.8</ele>
        <time>2024-05-07T15:09:41Z</time>
      </trkpt>
      <trkpt lat="47.58611" lon="-3.02995">
        <ele>9.8</ele>
        <time>2024-05-07T15:09:42Z</time>
      </trkpt>
      <trkpt lat="47.5861" lon="-3.02995">
        <ele>9.8</ele>
        <time>2024-05-07T15:09:43Z</time>
      </trkpt>
      <trkpt lat="47.58609" lon="-3.02994">
        <ele>10</ele>
        <time>2024-05-07T15:09:44Z</time>
      </trkpt>
      <trkpt lat="47.58608" lon="-3.02993">
        <ele>10</ele>
        <time>2024-05-07T15:09:45Z</time>
      </trkpt>
      <trkpt lat="47.58607" lon="-3.02993">
        <ele>10.2</ele>
        <time>2024-05-07T15:09:46Z</time>
      </trkpt>
      <trkpt lat="47.58606" lon="-3.02992">
        <ele>10.2</ele>
        <time>2024-05-07T15:09:47Z</time>
      </trkpt>
      <trkpt lat="47.58605" lon="-3.02992">
        <ele>10.4</ele>
        <time>2024-05-07T15:09:48Z</time>
      </trkpt>
      <trkpt lat="47.58605" lon="-3.02991">
        <ele>10.4</ele>
        <time>2024-05-07T15:09:49Z</time>
      </trkpt>
      <trkpt lat="47.58605" lon="-3.02991">
        <ele>10.4</ele>
        <time>2024-05-07T15:09:50Z</time>
      </trkpt>
      <trkpt lat="47.58604" lon="-3.0299">
        <ele>10.4</ele>
        <time>2024-05-07T15:09:51Z</time>
      </trkpt>
      <trkpt lat="47.58603" lon="-3.0299">
        <ele>10.6</ele>
        <time>2024-05-07T15:09:52Z</time>
      </trkpt>
      <trkpt lat="47.58603" lon="-3.02989">
        <ele>10.6</ele>
        <time>2024-05-07T15:09:53Z</time>
      </trkpt>
      <trkpt lat="47.58602" lon="-3.02988">
        <ele>10.8</ele>
        <time>2024-05-07T15:09:54Z</time>
      </trkpt>
      <trkpt lat="47.58601" lon="-3.02988">
        <ele>10.8</ele>
        <time>2024-05-07T15:09:55Z</time>
      </trkpt>
      <trkpt lat="47.586" lon="-3.02987">
        <ele>11</ele>
        <time>2024-05-07T15:09:56Z</time>
      </trkpt>
      <trkpt lat="47.58599" lon="-3.02986">
        <ele>11.2</ele>
        <time>2024-05-07T15:09:57Z</time>
      </trkpt>
      <trkpt lat="47.58597" lon="-3.02985">
        <ele>11.2</ele>
        <time>2024-05-07T15:09:58Z</time>
      </trkpt>
      <trkpt lat="47.58596" lon="-3.02984">
        <ele>11.4</ele>
        <time>2024-05-07T15:09:59Z</time>
      </trkpt>
      <trkpt lat="47.58595" lon="-3.02983">
        <ele>11.6</ele>
        <time>2024-05-07T15:10:00Z</time>
      </trkpt>
      <trkpt lat="47.58594" lon="-3.02983">
        <ele>11.6</ele>
        <time>2024-05-07T15:10:01Z</time>
      </trkpt>
      <trkpt lat="47.58593" lon="-3.02982">
        <ele>11.8</ele>
        <time>2024-05-07T15:10:02Z</time>
      </trkpt>
      <trkpt lat="47.58592" lon="-3.02982">
        <ele>12</ele>
        <time>2024-05-07T15:10:03Z</time>
      </trkpt>
      <trkpt lat="47.58591" lon="-3.02982">
        <ele>12.4</ele>
        <time>2024-05-07T15:10:04Z</time>
      </trkpt>
      <trkpt lat="47.5859" lon="-3.02983">
        <ele>12.6</ele>
        <time>2024-05-07T15:10:05Z</time>
      </trkpt>
      <trkpt lat="47.5859" lon="-3.02984">
        <ele>12.8</ele>
        <time>2024-05-07T15:10:06Z</time>
      </trkpt>
      <trkpt lat="47.58589" lon="-3.02985">
        <ele>12.8</ele>
        <time>2024-05-07T15:10:07Z</time>
      </trkpt>
      <trkpt lat="47.58589" lon="-3.02986">
        <ele>12.8</ele>
        <time>2024-05-07T15:10:08Z</time>
      </trkpt>
      <trkpt lat="47.58588" lon="-3.02986">
        <ele>13</ele>
        <time>2024-05-07T15:10:09Z</time>
      </trkpt>
      <trkpt lat="47.58587" lon="-3.02987">
        <ele>13.2</ele>
        <time>2024-05-07T15:10:10Z</time>
      </trkpt>
      <trkpt lat="47.58586" lon="-3.02988">
        <ele>13.4</ele>
        <time>2024-05-07T15:10:11Z</time>
      </trkpt>
      <trkpt lat="47.58586" lon="-3.02989">
        <ele>13.4</ele>
        <time>2024-05-07T15:10:12Z</time>
      </trkpt>
      <trkpt lat="47.58586" lon="-3.0299">
        <ele>13.6</ele>
        <time>2024-05-07T15:10:13Z</time>
      </trkpt>
      <trkpt lat="47.58586" lon="-3.02992">
        <ele>13.8</ele>
        <time>2024-05-07T15:10:14Z</time>
      </trkpt>
      <trkpt lat="47.58585" lon="-3.02993">
        <ele>13.8</ele>
        <time>2024-05-07T15:10:15Z</time>
      </trkpt>
      <trkpt lat="47.58585" lon="-3.02995">
        <ele>14</ele>
        <time>2024-05-07T15:10:16Z</time>
      </trkpt>
      <trkpt lat="47.58586" lon="-3.02996">
        <ele>14.2</ele>
        <time>2024-05-07T15:10:17Z</time>
      </trkpt>
      <trkpt lat="47.58587" lon="-3.02997">
        <ele>14.4</ele>
        <time>2024-05-07T15:10:18Z</time>
      </trkpt>
      <trkpt lat="47.58586" lon="-3.02998">
        <ele>14.4</ele>
        <time>2024-05-07T15:10:19Z</time>
      </trkpt>
      <trkpt lat="47.58586" lon="-3.02999">
        <ele>14.4</ele>
        <time>2024-05-07T15:10:20Z</time>
      </trkpt>
      <trkpt lat="47.58586" lon="-3.03001">
        <ele>14.6</ele>
        <time>2024-05-07T15:10:21Z</time>
      </trkpt>
      <trkpt lat="47.58586" lon="-3.03002">
        <ele>14.6</ele>
        <time>2024-05-07T15:10:22Z</time>
      </trkpt>
      <trkpt lat="47.58586" lon="-3.03005">
        <ele>14.8</ele>
        <time>2024-05-07T15:10:23Z</time>
      </trkpt>
      <trkpt lat="47.58586" lon="-3.03008">
        <ele>14.8</ele>
        <time>2024-05-07T15:10:24Z</time>
      </trkpt>
      <trkpt lat="47.58586" lon="-3.03011">
        <ele>14.8</ele>
        <time>2024-05-07T15:10:25Z</time>
      </trkpt>
      <trkpt lat="47.58586" lon="-3.03013">
        <ele>15</ele>
        <time>2024-05-07T15:10:26Z</time>
      </trkpt>
      <trkpt lat="47.58586" lon="-3.03014">
        <ele>15</ele>
        <time>2024-05-07T15:10:27Z</time>
      </trkpt>
      <trkpt lat="47.58586" lon="-3.03016">
        <ele>15</ele>
        <time>2024-05-07T15:10:28Z</time>
      </trkpt>
      <trkpt lat="47.58587" lon="-3.03018">
        <ele>15</ele>
        <time>2024-05-07T15:10:29Z</time>
      </trkpt>
      <trkpt lat="47.58587" lon="-3.03019">
        <ele>15</ele>
        <time>2024-05-07T15:10:30Z</time>
      </trkpt>
      <trkpt lat="47.58587" lon="-3.03021">
        <ele>15</ele>
        <time>2024-05-07T15:10:31Z</time>
      </trkpt>
      <trkpt lat="47.58588" lon="-3.03024">
        <ele>15</ele>
        <time>2024-05-07T15:10:32Z</time>
      </trkpt>
      <trkpt lat="47.58588" lon="-3.03026">
        <ele>15.2</ele>
        <time>2024-05-07T15:10:33Z</time>
      </trkpt>
      <trkpt lat="47.58589" lon="-3.03028">
        <ele>15.2</ele>
        <time>2024-05-07T15:10:34Z</time>
      </trkpt>
      <trkpt lat="47.58589" lon="-3.03029">
        <ele>15.2</ele>
        <time>2024-05-07T15:10:35Z</time>
      </trkpt>
      <trkpt lat="47.58589" lon="-3.03032">
        <ele>15.2</ele>
        <time>2024-05-07T15:10:36Z</time>
      </trkpt>
      <trkpt lat="47.58588" lon="-3.03034">
        <ele>15.4</ele>
        <time>2024-05-07T15:10:37Z</time>
      </trkpt>
      <trkpt lat="47.58587" lon="-3.03036">
        <ele>15.4</ele>
        <time>2024-05-07T15:10:38Z</time>
      </trkpt>
      <trkpt lat="47.58587" lon="-3.03039">
        <ele>15.4</ele>
        <time>2024-05-07T15:10:39Z</time>
      </trkpt>
      <trkpt lat="47.58587" lon="-3.0304">
        <ele>15.6</ele>
        <time>2024-05-07T15:10:40Z</time>
      </trkpt>
      <trkpt lat="47.58587" lon="-3.0304">
        <ele>15.8</ele>
        <time>2024-05-07T15:10:41Z</time>
      </trkpt>
      <trkpt lat="47.58586" lon="-3.0304">
        <ele>15.8</ele>
        <time>2024-05-07T15:10:42Z</time>
      </trkpt>
      <trkpt lat="47.58585" lon="-3.0304">
        <ele>16</ele>
        <time>2024-05-07T15:10:43Z</time>
      </trkpt>
      <trkpt lat="47.58584" lon="-3.0304">
        <ele>16.2</ele>
        <time>2024-05-07T15:10:44Z</time>
      </trkpt>
      <trkpt lat="47.58582" lon="-3.03041">
        <ele>16.2</ele>
        <time>2024-05-07T15:10:45Z</time>
      </trkpt>
      <trkpt lat="47.5858" lon="-3.0304">
        <ele>16.4</ele>
        <time>2024-05-07T15:10:46Z</time>
      </trkpt>
      <trkpt lat="47.58579" lon="-3.0304">
        <ele>16.6</ele>
        <time>2024-05-07T15:10:47Z</time>
      </trkpt>
      <trkpt lat="47.58577" lon="-3.03039">
        <ele>16.8</ele>
        <time>2024-05-07T15:10:48Z</time>
      </trkpt>
      <trkpt lat="47.58576" lon="-3.03038">
        <ele>17</ele>
        <time>2024-05-07T15:10:49Z</time>
      </trkpt>
      <trkpt lat="47.58575" lon="-3.03036">
        <ele>17</ele>
        <time>2024-05-07T15:10:50Z</time>
      </trkpt>
      <trkpt lat="47.58574" lon="-3.03034">
        <ele>17.2</ele>
        <time>2024-05-07T15:10:51Z</time>
      </trkpt>
      <trkpt lat="47.58573" lon="-3.03033">
        <ele>17.2</ele>
        <time>2024-05-07T15:10:52Z</time>
      </trkpt>
      <trkpt lat="47.58572" lon="-3.03031">
        <ele>17.4</ele>
        <time>2024-05-07T15:10:53Z</time>
      </trkpt>
      <trkpt lat="47.5857" lon="-3.03029">
        <ele>17.6</ele>
        <time>2024-05-07T15:10:54Z</time>
      </trkpt>
      <trkpt lat="47.58568" lon="-3.03028">
        <ele>17.6</ele>
        <time>2024-05-07T15:10:55Z</time>
      </trkpt>
      <trkpt lat="47.58567" lon="-3.03026">
        <ele>17.6</ele>
        <time>2024-05-07T15:10:56Z</time>
      </trkpt>
      <trkpt lat="47.58566" lon="-3.03024">
        <ele>17.6</ele>
        <time>2024-05-07T15:10:57Z</time>
      </trkpt>
      <trkpt lat="47.58565" lon="-3.03023">
        <ele>17.6</ele>
        <time>2024-05-07T15:10:58Z</time>
      </trkpt>
      <trkpt lat="47.58564" lon="-3.03022">
        <ele>17.6</ele>
        <time>2024-05-07T15:10:59Z</time>
      </trkpt>
      <trkpt lat="47.58562" lon="-3.03021">
        <ele>17.6</ele>
        <time>2024-05-07T15:11:00Z</time>
      </trkpt>
      <trkpt lat="47.58561" lon="-3.0302">
        <ele>17.8</ele>
        <time>2024-05-07T15:11:01Z</time>
      </trkpt>
      <trkpt lat="47.58561" lon="-3.03019">
        <ele>17.8</ele>
        <time>2024-05-07T15:11:02Z</time>
      </trkpt>
      <trkpt lat="47.5856" lon="-3.03017">
        <ele>18</ele>
        <time>2024-05-07T15:11:03Z</time>
      </trkpt>
      <trkpt lat="47.5856" lon="-3.03015">
        <ele>18</ele>
        <time>2024-05-07T15:11:04Z</time>
      </trkpt>
      <trkpt lat="47.5856" lon="-3.03013">
        <ele>18.2</ele>
        <time>2024-05-07T15:11:05Z</time>
      </trkpt>
      <trkpt lat="47.58559" lon="-3.03012">
        <ele>18.2</ele>
        <time>2024-05-07T15:11:06Z</time>
      </trkpt>
      <trkpt lat="47.58558" lon="-3.0301">
        <ele>18.2</ele>
        <time>2024-05-07T15:11:07Z</time>
      </trkpt>
      <trkpt lat="47.58557" lon="-3.03008">
        <ele>18.4</ele>
        <time>2024-05-07T15:11:08Z</time>
      </trkpt>
      <trkpt lat="47.58556" lon="-3.03006">
        <ele>18.4</ele>
        <time>2024-05-07T15:11:09Z</time>
      </trkpt>
      <trkpt lat="47.58556" lon="-3.03004">
        <ele>18.4</ele>
        <time>2024-05-07T15:11:10Z</time>
      </trkpt>
      <trkpt lat="47.58556" lon="-3.03003">
        <ele>18.6</ele>
        <time>2024-05-07T15:11:11Z</time>
      </trkpt>
      <trkpt lat="47.58556" lon="-3.03002">
        <ele>18.6</ele>
        <time>2024-05-07T15:11:12Z</time>
      </trkpt>
      <trkpt lat="47.58557" lon="-3.03">
        <ele>18.6</ele>
        <time>2024-05-07T15:11:13Z</time>
      </trkpt>
      <trkpt lat="47.58556" lon="-3.02999">
        <ele>18.6</ele>
        <time>2024-05-07T15:11:14Z</time>
      </trkpt>
      <trkpt lat="47.58556" lon="-3.02997">
        <ele>18.6</ele>
        <time>2024-05-07T15:11:15Z</time>
      </trkpt>
      <trkpt lat="47.58555" lon="-3.02995">
        <ele>18.6</ele>
        <time>2024-05-07T15:11:16Z</time>
      </trkpt>
      <trkpt lat="47.58555" lon="-3.02993">
        <ele>18.6</ele>
        <time>2024-05-07T15:11:17Z</time>
      </trkpt>
      <trkpt lat="47.58555" lon="-3.02991">
        <ele>18.6</ele>
        <time>2024-05-07T15:11:18Z</time>
      </trkpt>
      <trkpt lat="47.58554" lon="-3.0299">
        <ele>18.6</ele>
        <time>2024-05-07T15:11:19Z</time>
      </trkpt>
      <trkpt lat="47.58554" lon="-3.02988">
        <ele>18.6</ele>
        <time>2024-05-07T15:11:20Z</time>
      </trkpt>
      <trkpt lat="47.58553" lon="-3.02987">
        <ele>18.6</ele>
        <time>2024-05-07T15:11:21Z</time>
      </trkpt>
      <trkpt lat="47.58552" lon="-3.02986">
        <ele>18.8</ele>
        <time>2024-05-07T15:11:22Z</time>
      </trkpt>
      <trkpt lat="47.58551" lon="-3.02984">
        <ele>18.8</ele>
        <time>2024-05-07T15:11:23Z</time>
      </trkpt>
      <trkpt lat="47.5855" lon="-3.02983">
        <ele>18.8</ele>
        <time>2024-05-07T15:11:24Z</time>
      </trkpt>
      <trkpt lat="47.58549" lon="-3.02982">
        <ele>18.8</ele>
        <time>2024-05-07T15:11:25Z</time>
      </trkpt>
      <trkpt lat="47.58549" lon="-3.0298">
        <ele>19</ele>
        <time>2024-05-07T15:11:26Z</time>
      </trkpt>
      <trkpt lat="47.58548" lon="-3.02978">
        <ele>19.2</ele>
        <time>2024-05-07T15:11:27Z</time>
      </trkpt>
      <trkpt lat="47.58547" lon="-3.02976">
        <ele>19.2</ele>
        <time>2024-05-07T15:11:28Z</time>
      </trkpt>
      <trkpt lat="47.58545" lon="-3.02975">
        <ele>19.2</ele>
        <time>2024-05-07T15:11:29Z</time>
      </trkpt>
      <trkpt lat="47.58545" lon="-3.02974">
        <ele>19.2</ele>
        <time>2024-05-07T15:11:30Z</time>
      </trkpt>
      <trkpt lat="47.58544" lon="-3.02972">
        <ele>19.2</ele>
        <time>2024-05-07T15:11:31Z</time>
      </trkpt>
      <trkpt lat="47.58544" lon="-3.02971">
        <ele>19.4</ele>
        <time>2024-05-07T15:11:32Z</time>
      </trkpt>
      <trkpt lat="47.58544" lon="-3.02969">
        <ele>19.4</ele>
        <time>2024-05-07T15:11:33Z</time>
      </trkpt>
      <trkpt lat="47.58544" lon="-3.02967">
        <ele>19.6</ele>
        <time>2024-05-07T15:11:34Z</time>
      </trkpt>
      <trkpt lat="47.58544" lon="-3.02965">
        <ele>19.6</ele>
        <time>2024-05-07T15:11:35Z</time>
      </trkpt>
      <trkpt lat="47.58543" lon="-3.02963">
        <ele>19.6</ele>
        <time>2024-05-07T15:11:36Z</time>
      </trkpt>
      <trkpt lat="47.58542" lon="-3.02961">
        <ele>19.6</ele>
        <time>2024-05-07T15:11:37Z</time>
      </trkpt>
      <trkpt lat="47.5854" lon="-3.0296">
        <ele>19.6</ele>
        <time>2024-05-07T15:11:38Z</time>
      </trkpt>
      <trkpt lat="47.58539" lon="-3.02958">
        <ele>19.6</ele>
        <time>2024-05-07T15:11:39Z</time>
      </trkpt>
      <trkpt lat="47.58539" lon="-3.02957">
        <ele>19.8</ele>
        <time>2024-05-07T15:11:40Z</time>
      </trkpt>
      <trkpt lat="47.58537" lon="-3.02955">
        <ele>20</ele>
        <time>2024-05-07T15:11:41Z</time>
      </trkpt>
      <trkpt lat="47.58536" lon="-3.02954">
        <ele>20</ele>
        <time>2024-05-07T15:11:42Z</time>
      </trkpt>
      <trkpt lat="47.58535" lon="-3.02954">
        <ele>20</ele>
        <time>2024-05-07T15:11:43Z</time>
      </trkpt>
      <trkpt lat="47.58534" lon="-3.02953">
        <ele>20</ele>
        <time>2024-05-07T15:11:44Z</time>
      </trkpt>
      <trkpt lat="47.58532" lon="-3.02952">
        <ele>20</ele>
        <time>2024-05-07T15:11:45Z</time>
      </trkpt>
      <trkpt lat="47.58531" lon="-3.02951">
        <ele>20.2</ele>
        <time>2024-05-07T15:11:46Z</time>
      </trkpt>
      <trkpt lat="47.5853" lon="-3.0295">
        <ele>20.2</ele>
        <time>2024-05-07T15:11:47Z</time>
      </trkpt>
      <trkpt lat="47.58529" lon="-3.0295">
        <ele>20.2</ele>
        <time>2024-05-07T15:11:48Z</time>
      </trkpt>
      <trkpt lat="47.58529" lon="-3.02949">
        <ele>20.2</ele>
        <time>2024-05-07T15:11:49Z</time>
      </trkpt>
      <trkpt lat="47.58529" lon="-3.02948">
        <ele>20.2</ele>
        <time>2024-05-07T15:11:50Z</time>
      </trkpt>
      <trkpt lat="47.58529" lon="-3.02946">
        <ele>20.2</ele>
        <time>2024-05-07T15:11:51Z</time>
      </trkpt>
      <trkpt lat="47.58529" lon="-3.02945">
        <ele>20.2</ele>
        <time>2024-05-07T15:11:52Z</time>
      </trkpt>
      <trkpt lat="47.58529" lon="-3.02944">
        <ele>20.2</ele>
        <time>2024-05-07T15:11:53Z</time>
      </trkpt>
      <trkpt lat="47.58528" lon="-3.02943">
        <ele>20.2</ele>
        <time>2024-05-07T15:11:54Z</time>
      </trkpt>
      <trkpt lat="47.58527" lon="-3.02941">
        <ele>20</ele>
        <time>2024-05-07T15:11:55Z</time>
      </trkpt>
      <trkpt lat="47.58527" lon="-3.0294">
        <ele>20</ele>
        <time>2024-05-07T15:11:56Z</time>
      </trkpt>
      <trkpt lat="47.58526" lon="-3.02938">
        <ele>20</ele>
        <time>2024-05-07T15:11:57Z</time>
      </trkpt>
      <trkpt lat="47.58525" lon="-3.02937">
        <ele>20</ele>
        <time>2024-05-07T15:11:58Z</time>
      </trkpt>
      <trkpt lat="47.58524" lon="-3.02935">
        <ele>20</ele>
        <time>2024-05-07T15:11:59Z</time>
      </trkpt>
      <trkpt lat="47.58524" lon="-3.02935">
        <ele>20</ele>
        <time>2024-05-07T15:12:00Z</time>
      </trkpt>
      <trkpt lat="47.58524" lon="-3.02935">
        <ele>20</ele>
        <time>2024-05-07T15:12:01Z</time>
      </trkpt>
      <trkpt lat="47.58523" lon="-3.02934">
        <ele>20</ele>
        <time>2024-05-07T15:12:02Z</time>
      </trkpt>
      <trkpt lat="47.58523" lon="-3.02934">
        <ele>20</ele>
        <time>2024-05-07T15:12:03Z</time>
      </trkpt>
      <trkpt lat="47.58522" lon="-3.02932">
        <ele>20</ele>
        <time>2024-05-07T15:12:04Z</time>
      </trkpt>
      <trkpt lat="47.58522" lon="-3.02931">
        <ele>20</ele>
        <time>2024-05-07T15:12:05Z</time>
      </trkpt>
      <trkpt lat="47.5852" lon="-3.0293">
        <ele>20</ele>
        <time>2024-05-07T15:12:06Z</time>
      </trkpt>
      <trkpt lat="47.58519" lon="-3.02928">
        <ele>20</ele>
        <time>2024-05-07T15:12:07Z</time>
      </trkpt>
      <trkpt lat="47.58518" lon="-3.02928">
        <ele>20</ele>
        <time>2024-05-07T15:12:08Z</time>
      </trkpt>
      <trkpt lat="47.58516" lon="-3.02928">
        <ele>20</ele>
        <time>2024-05-07T15:12:09Z</time>
      </trkpt>
      <trkpt lat="47.58515" lon="-3.02926">
        <ele>20</ele>
        <time>2024-05-07T15:12:10Z</time>
      </trkpt>
      <trkpt lat="47.58514" lon="-3.02925">
        <ele>20</ele>
        <time>2024-05-07T15:12:11Z</time>
      </trkpt>
      <trkpt lat="47.58513" lon="-3.02924">
        <ele>20</ele>
        <time>2024-05-07T15:12:12Z</time>
      </trkpt>
      <trkpt lat="47.58512" lon="-3.02922">
        <ele>20</ele>
        <time>2024-05-07T15:12:13Z</time>
      </trkpt>
      <trkpt lat="47.58511" lon="-3.02921">
        <ele>20</ele>
        <time>2024-05-07T15:12:14Z</time>
      </trkpt>
      <trkpt lat="47.5851" lon="-3.0292">
        <ele>20</ele>
        <time>2024-05-07T15:12:15Z</time>
      </trkpt>
      <trkpt lat="47.58509" lon="-3.02919">
        <ele>20</ele>
        <time>2024-05-07T15:12:16Z</time>
      </trkpt>
      <trkpt lat="47.58508" lon="-3.02918">
        <ele>20</ele>
        <time>2024-05-07T15:12:17Z</time>
      </trkpt>
      <trkpt lat="47.58506" lon="-3.02918">
        <ele>20</ele>
        <time>2024-05-07T15:12:18Z</time>
      </trkpt>
      <trkpt lat="47.58505" lon="-3.02918">
        <ele>20</ele>
        <time>2024-05-07T15:12:19Z</time>
      </trkpt>
      <trkpt lat="47.58504" lon="-3.02915">
        <ele>20</ele>
        <time>2024-05-07T15:12:20Z</time>
      </trkpt>
      <trkpt lat="47.58503" lon="-3.02913">
        <ele>20</ele>
        <time>2024-05-07T15:12:21Z</time>
      </trkpt>
      <trkpt lat="47.58502" lon="-3.02912">
        <ele>20</ele>
        <time>2024-05-07T15:12:22Z</time>
      </trkpt>
      <trkpt lat="47.58501" lon="-3.02912">
        <ele>20</ele>
        <time>2024-05-07T15:12:23Z</time>
      </trkpt>
      <trkpt lat="47.585" lon="-3.02911">
        <ele>20</ele>
        <time>2024-05-07T15:12:24Z</time>
      </trkpt>
      <trkpt lat="47.58499" lon="-3.02911">
        <ele>20</ele>
        <time>2024-05-07T15:12:25Z</time>
      </trkpt>
      <trkpt lat="47.58498" lon="-3.02909">
        <ele>20</ele>
        <time>2024-05-07T15:12:26Z</time>
      </trkpt>
      <trkpt lat="47.58496" lon="-3.02908">
        <ele>20.2</ele>
        <time>2024-05-07T15:12:27Z</time>
      </trkpt>
      <trkpt lat="47.58494" lon="-3.02907">
        <ele>20.2</ele>
        <time>2024-05-07T15:12:28Z</time>
      </trkpt>
      <trkpt lat="47.58493" lon="-3.02906">
        <ele>20.2</ele>
        <time>2024-05-07T15:12:29Z</time>
      </trkpt>
      <trkpt lat="47.58492" lon="-3.02906">
        <ele>20.2</ele>
        <time>2024-05-07T15:12:30Z</time>
      </trkpt>
      <trkpt lat="47.58492" lon="-3.02908">
        <ele>20.2</ele>
        <time>2024-05-07T15:12:31Z</time>
      </trkpt>
      <trkpt lat="47.58492" lon="-3.02909">
        <ele>20.2</ele>
        <time>2024-05-07T15:12:32Z</time>
      </trkpt>
      <trkpt lat="47.58491" lon="-3.02911">
        <ele>20.2</ele>
        <time>2024-05-07T15:12:33Z</time>
      </trkpt>
      <trkpt lat="47.58491" lon="-3.02912">
        <ele>20.2</ele>
        <time>2024-05-07T15:12:34Z</time>
      </trkpt>
      <trkpt lat="47.5849" lon="-3.02914">
        <ele>20.2</ele>
        <time>2024-05-07T15:12:35Z</time>
      </trkpt>
      <trkpt lat="47.5849" lon="-3.02915">
        <ele>20.2</ele>
        <time>2024-05-07T15:12:36Z</time>
      </trkpt>
      <trkpt lat="47.5849" lon="-3.02916">
        <ele>20.2</ele>
        <time>2024-05-07T15:12:37Z</time>
      </trkpt>
      <trkpt lat="47.5849" lon="-3.02918">
        <ele>20.2</ele>
        <time>2024-05-07T15:12:38Z</time>
      </trkpt>
      <trkpt lat="47.58489" lon="-3.02919">
        <ele>20.2</ele>
        <time>2024-05-07T15:12:39Z</time>
      </trkpt>
      <trkpt lat="47.58489" lon="-3.02921">
        <ele>20.2</ele>
        <time>2024-05-07T15:12:40Z</time>
      </trkpt>
      <trkpt lat="47.58488" lon="-3.02922">
        <ele>20.4</ele>
        <time>2024-05-07T15:12:41Z</time>
      </trkpt>
      <trkpt lat="47.58487" lon="-3.02924">
        <ele>20.4</ele>
        <time>2024-05-07T15:12:42Z</time>
      </trkpt>
      <trkpt lat="47.58487" lon="-3.02925">
        <ele>20.4</ele>
        <time>2024-05-07T15:12:43Z</time>
      </trkpt>
      <trkpt lat="47.58487" lon="-3.02926">
        <ele>20.6</ele>
        <time>2024-05-07T15:12:44Z</time>
      </trkpt>
      <trkpt lat="47.58487" lon="-3.02927">
        <ele>20.6</ele>
        <time>2024-05-07T15:12:45Z</time>
      </trkpt>
      <trkpt lat="47.58486" lon="-3.02929">
        <ele>20.6</ele>
        <time>2024-05-07T15:12:46Z</time>
      </trkpt>
      <trkpt lat="47.58485" lon="-3.0293">
        <ele>20.6</ele>
        <time>2024-05-07T15:12:47Z</time>
      </trkpt>
      <trkpt lat="47.58484" lon="-3.02931">
        <ele>20.6</ele>
        <time>2024-05-07T15:12:48Z</time>
      </trkpt>
      <trkpt lat="47.58484" lon="-3.02932">
        <ele>20.8</ele>
        <time>2024-05-07T15:12:49Z</time>
      </trkpt>
      <trkpt lat="47.58483" lon="-3.02933">
        <ele>21</ele>
        <time>2024-05-07T15:12:50Z</time>
      </trkpt>
      <trkpt lat="47.58483" lon="-3.02935">
        <ele>21</ele>
        <time>2024-05-07T15:12:51Z</time>
      </trkpt>
      <trkpt lat="47.58482" lon="-3.02937">
        <ele>21</ele>
        <time>2024-05-07T15:12:52Z</time>
      </trkpt>
      <trkpt lat="47.58481" lon="-3.02938">
        <ele>21.2</ele>
        <time>2024-05-07T15:12:53Z</time>
      </trkpt>
      <trkpt lat="47.5848" lon="-3.0294">
        <ele>21.4</ele>
        <time>2024-05-07T15:12:54Z</time>
      </trkpt>
      <trkpt lat="47.5848" lon="-3.02942">
        <ele>21.6</ele>
        <time>2024-05-07T15:12:55Z</time>
      </trkpt>
      <trkpt lat="47.58479" lon="-3.02943">
        <ele>21.6</ele>
        <time>2024-05-07T15:12:56Z</time>
      </trkpt>
      <trkpt lat="47.58479" lon="-3.02945">
        <ele>21.8</ele>
        <time>2024-05-07T15:12:57Z</time>
      </trkpt>
      <trkpt lat="47.58478" lon="-3.02947">
        <ele>22</ele>
        <time>2024-05-07T15:12:58Z</time>
      </trkpt>
      <trkpt lat="47.58478" lon="-3.02949">
        <ele>22</ele>
        <time>2024-05-07T15:12:59Z</time>
      </trkpt>
      <trkpt lat="47.58477" lon="-3.0295">
        <ele>22.2</ele>
        <time>2024-05-07T15:13:00Z</time>
      </trkpt>
      <trkpt lat="47.58477" lon="-3.02952">
        <ele>22.2</ele>
        <time>2024-05-07T15:13:01Z</time>
      </trkpt>
      <trkpt lat="47.58476" lon="-3.02954">
        <ele>22.2</ele>
        <time>2024-05-07T15:13:02Z</time>
      </trkpt>
      <trkpt lat="47.58475" lon="-3.02955">
        <ele>22.2</ele>
        <time>2024-05-07T15:13:03Z</time>
      </trkpt>
      <trkpt lat="47.58475" lon="-3.02957">
        <ele>22.4</ele>
        <time>2024-05-07T15:13:04Z</time>
      </trkpt>
      <trkpt lat="47.58473" lon="-3.02958">
        <ele>22.4</ele>
        <time>2024-05-07T15:13:05Z</time>
      </trkpt>
      <trkpt lat="47.58473" lon="-3.02959">
        <ele>22.4</ele>
        <time>2024-05-07T15:13:06Z</time>
      </trkpt>
      <trkpt lat="47.58473" lon="-3.02961">
        <ele>22.6</ele>
        <time>2024-05-07T15:13:07Z</time>
      </trkpt>
      <trkpt lat="47.58472" lon="-3.02962">
        <ele>22.6</ele>
        <time>2024-05-07T15:13:08Z</time>
      </trkpt>
      <trkpt lat="47.58472" lon="-3.02964">
        <ele>22.8</ele>
        <time>2024-05-07T15:13:09Z</time>
      </trkpt>
      <trkpt lat="47.58471" lon="-3.02966">
        <ele>23</ele>
        <time>2024-05-07T15:13:10Z</time>
      </trkpt>
      <trkpt lat="47.58471" lon="-3.02967">
        <ele>23.2</ele>
        <time>2024-05-07T15:13:11Z</time>
      </trkpt>
      <trkpt lat="47.58471" lon="-3.02968">
        <ele>23.2</ele>
        <time>2024-05-07T15:13:12Z</time>
      </trkpt>
      <trkpt lat="47.58471" lon="-3.0297">
        <ele>23.2</ele>
        <time>2024-05-07T15:13:13Z</time>
      </trkpt>
      <trkpt lat="47.58471" lon="-3.02972">
        <ele>23.4</ele>
        <time>2024-05-07T15:13:14Z</time>
      </trkpt>
      <trkpt lat="47.58471" lon="-3.02973">
        <ele>23.4</ele>
        <time>2024-05-07T15:13:15Z</time>
      </trkpt>
      <trkpt lat="47.5847" lon="-3.02974">
        <ele>23.4</ele>
        <time>2024-05-07T15:13:16Z</time>
      </trkpt>
      <trkpt lat="47.58467" lon="-3.02975">
        <ele>23.4</ele>
        <time>2024-05-07T15:13:17Z</time>
      </trkpt>
      <trkpt lat="47.58465" lon="-3.02974">
        <ele>23.6</ele>
        <time>2024-05-07T15:13:18Z</time>
      </trkpt>
      <trkpt lat="47.58463" lon="-3.02973">
        <ele>23.6</ele>
        <time>2024-05-07T15:13:19Z</time>
      </trkpt>
      <trkpt lat="47.58463" lon="-3.02972">
        <ele>23.6</ele>
        <time>2024-05-07T15:13:20Z</time>
      </trkpt>
      <trkpt lat="47.58464" lon="-3.02971">
        <ele>23.6</ele>
        <time>2024-05-07T15:13:21Z</time>
      </trkpt>
      <trkpt lat="47.58466" lon="-3.02969">
        <ele>23.8</ele>
        <time>2024-05-07T15:13:22Z</time>
      </trkpt>
      <trkpt lat="47.58467" lon="-3.02967">
        <ele>23.8</ele>
        <time>2024-05-07T15:13:23Z</time>
      </trkpt>
      <trkpt lat="47.58467" lon="-3.02966">
        <ele>23.8</ele>
        <time>2024-05-07T15:13:24Z</time>
      </trkpt>
      <trkpt lat="47.58466" lon="-3.02964">
        <ele>23.8</ele>
        <time>2024-05-07T15:13:25Z</time>
      </trkpt>
      <trkpt lat="47.58466" lon="-3.02963">
        <ele>23.8</ele>
        <time>2024-05-07T15:13:26Z</time>
      </trkpt>
      <trkpt lat="47.58465" lon="-3.02962">
        <ele>23.8</ele>
        <time>2024-05-07T15:13:27Z</time>
      </trkpt>
      <trkpt lat="47.58465" lon="-3.02963">
        <ele>23.8</ele>
        <time>2024-05-07T15:13:28Z</time>
      </trkpt>
      <trkpt lat="47.58464" lon="-3.02963">
        <ele>23.6</ele>
        <time>2024-05-07T15:13:29Z</time>
      </trkpt>
      <trkpt lat="47.58463" lon="-3.02963">
        <ele>23.6</ele>
        <time>2024-05-07T15:13:30Z</time>
      </trkpt>
      <trkpt lat="47.58463" lon="-3.02964">
        <ele>23.6</ele>
        <time>2024-05-07T15:13:31Z</time>
      </trkpt>
      <trkpt lat="47.58462" lon="-3.02964">
        <ele>23.4</ele>
        <time>2024-05-07T15:13:32Z</time>
      </trkpt>
      <trkpt lat="47.58462" lon="-3.02962">
        <ele>23.4</ele>
        <time>2024-05-07T15:13:33Z</time>
      </trkpt>
      <trkpt lat="47.58461" lon="-3.02962">
        <ele>23.4</ele>
        <time>2024-05-07T15:13:34Z</time>
      </trkpt>
      <trkpt lat="47.5846" lon="-3.02963">
        <ele>23.6</ele>
        <time>2024-05-07T15:13:35Z</time>
      </trkpt>
      <trkpt lat="47.58458" lon="-3.02962">
        <ele>23.6</ele>
        <time>2024-05-07T15:13:36Z</time>
      </trkpt>
      <trkpt lat="47.58457" lon="-3.02962">
        <ele>23.6</ele>
        <time>2024-05-07T15:13:37Z</time>
      </trkpt>
      <trkpt lat="47.58456" lon="-3.02961">
        <ele>23.8</ele>
        <time>2024-05-07T15:13:38Z</time>
      </trkpt>
      <trkpt lat="47.58455" lon="-3.02961">
        <ele>23.8</ele>
        <time>2024-05-07T15:13:39Z</time>
      </trkpt>
      <trkpt lat="47.58454" lon="-3.0296">
        <ele>24</ele>
        <time>2024-05-07T15:13:40Z</time>
      </trkpt>
      <trkpt lat="47.58453" lon="-3.0296">
        <ele>24</ele>
        <time>2024-05-07T15:13:41Z</time>
      </trkpt>
      <trkpt lat="47.58452" lon="-3.0296">
        <ele>24</ele>
        <time>2024-05-07T15:13:42Z</time>
      </trkpt>
      <trkpt lat="47.58451" lon="-3.02961">
        <ele>24</ele>
        <time>2024-05-07T15:13:43Z</time>
      </trkpt>
      <trkpt lat="47.5845" lon="-3.0296">
        <ele>24</ele>
        <time>2024-05-07T15:13:44Z</time>
      </trkpt>
      <trkpt lat="47.58449" lon="-3.02961">
        <ele>24.2</ele>
        <time>2024-05-07T15:13:45Z</time>
      </trkpt>
      <trkpt lat="47.58447" lon="-3.02961">
        <ele>24.2</ele>
        <time>2024-05-07T15:13:46Z</time>
      </trkpt>
      <trkpt lat="47.58446" lon="-3.02962">
        <ele>24.2</ele>
        <time>2024-05-07T15:13:47Z</time>
      </trkpt>
      <trkpt lat="47.58445" lon="-3.02963">
        <ele>24.2</ele>
        <time>2024-05-07T15:13:48Z</time>
      </trkpt>
      <trkpt lat="47.58444" lon="-3.02963">
        <ele>24.2</ele>
        <time>2024-05-07T15:13:49Z</time>
      </trkpt>
      <trkpt lat="47.58443" lon="-3.02963">
        <ele>24.2</ele>
        <time>2024-05-07T15:13:50Z</time>
      </trkpt>
      <trkpt lat="47.58442" lon="-3.02962">
        <ele>24.2</ele>
        <time>2024-05-07T15:13:51Z</time>
      </trkpt>
      <trkpt lat="47.58441" lon="-3.02961">
        <ele>24.4</ele>
        <time>2024-05-07T15:13:52Z</time>
      </trkpt>
      <trkpt lat="47.5844" lon="-3.0296">
        <ele>24.4</ele>
        <time>2024-05-07T15:13:53Z</time>
      </trkpt>
      <trkpt lat="47.58439" lon="-3.0296">
        <ele>24.4</ele>
        <time>2024-05-07T15:13:54Z</time>
      </trkpt>
      <trkpt lat="47.58438" lon="-3.02959">
        <ele>24.4</ele>
        <time>2024-05-07T15:13:55Z</time>
      </trkpt>
      <trkpt lat="47.58436" lon="-3.02959">
        <ele>24.4</ele>
        <time>2024-05-07T15:13:56Z</time>
      </trkpt>
      <trkpt lat="47.58435" lon="-3.02959">
        <ele>24.4</ele>
        <time>2024-05-07T15:13:57Z</time>
      </trkpt>
      <trkpt lat="47.58434" lon="-3.02959">
        <ele>24.4</ele>
        <time>2024-05-07T15:13:58Z</time>
      </trkpt>
      <trkpt lat="47.58433" lon="-3.0296">
        <ele>24.4</ele>
        <time>2024-05-07T15:13:59Z</time>
      </trkpt>
      <trkpt lat="47.58432" lon="-3.02959">
        <ele>24.4</ele>
        <time>2024-05-07T15:14:00Z</time>
      </trkpt>
      <trkpt lat="47.58431" lon="-3.02959">
        <ele>24.4</ele>
        <time>2024-05-07T15:14:01Z</time>
      </trkpt>
      <trkpt lat="47.58429" lon="-3.02959">
        <ele>24.2</ele>
        <time>2024-05-07T15:14:02Z</time>
      </trkpt>
      <trkpt lat="47.58428" lon="-3.0296">
        <ele>24.2</ele>
        <time>2024-05-07T15:14:03Z</time>
      </trkpt>
      <trkpt lat="47.58426" lon="-3.0296">
        <ele>24.2</ele>
        <time>2024-05-07T15:14:04Z</time>
      </trkpt>
      <trkpt lat="47.58424" lon="-3.02961">
        <ele>24.2</ele>
        <time>2024-05-07T15:14:05Z</time>
      </trkpt>
      <trkpt lat="47.58421" lon="-3.02961">
        <ele>24.2</ele>
        <time>2024-05-07T15:14:06Z</time>
      </trkpt>
      <trkpt lat="47.5842" lon="-3.02961">
        <ele>24.2</ele>
        <time>2024-05-07T15:14:07Z</time>
      </trkpt>
      <trkpt lat="47.58419" lon="-3.0296">
        <ele>24.2</ele>
        <time>2024-05-07T15:14:08Z</time>
      </trkpt>
      <trkpt lat="47.58418" lon="-3.02959">
        <ele>24.2</ele>
        <time>2024-05-07T15:14:09Z</time>
      </trkpt>
      <trkpt lat="47.58416" lon="-3.02959">
        <ele>24.2</ele>
        <time>2024-05-07T15:14:10Z</time>
      </trkpt>
      <trkpt lat="47.58415" lon="-3.02959">
        <ele>24.2</ele>
        <time>2024-05-07T15:14:11Z</time>
      </trkpt>
      <trkpt lat="47.58413" lon="-3.02959">
        <ele>24.2</ele>
        <time>2024-05-07T15:14:12Z</time>
      </trkpt>
      <trkpt lat="47.58412" lon="-3.02959">
        <ele>24.2</ele>
        <time>2024-05-07T15:14:13Z</time>
      </trkpt>
      <trkpt lat="47.58411" lon="-3.02959">
        <ele>24</ele>
        <time>2024-05-07T15:14:14Z</time>
      </trkpt>
      <trkpt lat="47.5841" lon="-3.0296">
        <ele>24</ele>
        <time>2024-05-07T15:14:15Z</time>
      </trkpt>
      <trkpt lat="47.5841" lon="-3.02961">
        <ele>23.8</ele>
        <time>2024-05-07T15:14:16Z</time>
      </trkpt>
      <trkpt lat="47.58409" lon="-3.02962">
        <ele>23.8</ele>
        <time>2024-05-07T15:14:17Z</time>
      </trkpt>
      <trkpt lat="47.58408" lon="-3.02964">
        <ele>23.8</ele>
        <time>2024-05-07T15:14:18Z</time>
      </trkpt>
      <trkpt lat="47.58408" lon="-3.02965">
        <ele>23.6</ele>
        <time>2024-05-07T15:14:19Z</time>
      </trkpt>
      <trkpt lat="47.58407" lon="-3.02967">
        <ele>23.6</ele>
        <time>2024-05-07T15:14:20Z</time>
      </trkpt>
      <trkpt lat="47.58406" lon="-3.02969">
        <ele>23.6</ele>
        <time>2024-05-07T15:14:21Z</time>
      </trkpt>
      <trkpt lat="47.58405" lon="-3.02969">
        <ele>23.6</ele>
        <time>2024-05-07T15:14:22Z</time>
      </trkpt>
      <trkpt lat="47.58404" lon="-3.02969">
        <ele>23.6</ele>
        <time>2024-05-07T15:14:23Z</time>
      </trkpt>
      <trkpt lat="47.58404" lon="-3.02971">
        <ele>23.6</ele>
        <time>2024-05-07T15:14:24Z</time>
      </trkpt>
      <trkpt lat="47.58403" lon="-3.02974">
        <ele>23.6</ele>
        <time>2024-05-07T15:14:25Z</time>
      </trkpt>
      <trkpt lat="47.58403" lon="-3.02976">
        <ele>23.4</ele>
        <time>2024-05-07T15:14:26Z</time>
      </trkpt>
      <trkpt lat="47.58403" lon="-3.02978">
        <ele>23.4</ele>
        <time>2024-05-07T15:14:27Z</time>
      </trkpt>
      <trkpt lat="47.58403" lon="-3.0298">
        <ele>23.4</ele>
        <time>2024-05-07T15:14:28Z</time>
      </trkpt>
      <trkpt lat="47.58403" lon="-3.02982">
        <ele>23.6</ele>
        <time>2024-05-07T15:14:29Z</time>
      </trkpt>
      <trkpt lat="47.58404" lon="-3.02984">
        <ele>23.6</ele>
        <time>2024-05-07T15:14:30Z</time>
      </trkpt>
      <trkpt lat="47.58403" lon="-3.02986">
        <ele>23.6</ele>
        <time>2024-05-07T15:14:31Z</time>
      </trkpt>
      <trkpt lat="47.58402" lon="-3.02988">
        <ele>23.6</ele>
        <time>2024-05-07T15:14:32Z</time>
      </trkpt>
      <trkpt lat="47.58402" lon="-3.02991">
        <ele>23.6</ele>
        <time>2024-05-07T15:14:33Z</time>
      </trkpt>
      <trkpt lat="47.58402" lon="-3.02993">
        <ele>23.6</ele>
        <time>2024-05-07T15:14:34Z</time>
      </trkpt>
      <trkpt lat="47.58402" lon="-3.02996">
        <ele>23.6</ele>
        <time>2024-05-07T15:14:35Z</time>
      </trkpt>
      <trkpt lat="47.58402" lon="-3.02998">
        <ele>23.6</ele>
        <time>2024-05-07T15:14:36Z</time>
      </trkpt>
      <trkpt lat="47.58403" lon="-3.03">
        <ele>23.6</ele>
        <time>2024-05-07T15:14:37Z</time>
      </trkpt>
      <trkpt lat="47.58404" lon="-3.03002">
        <ele>23.6</ele>
        <time>2024-05-07T15:14:38Z</time>
      </trkpt>
      <trkpt lat="47.58405" lon="-3.03003">
        <ele>23.6</ele>
        <time>2024-05-07T15:14:39Z</time>
      </trkpt>
      <trkpt lat="47.58405" lon="-3.03004">
        <ele>23.6</ele>
        <time>2024-05-07T15:14:40Z</time>
      </trkpt>
      <trkpt lat="47.58404" lon="-3.03007">
        <ele>23.6</ele>
        <time>2024-05-07T15:14:41Z</time>
      </trkpt>
      <trkpt lat="47.58403" lon="-3.03009">
        <ele>23.6</ele>
        <time>2024-05-07T15:14:42Z</time>
      </trkpt>
      <trkpt lat="47.58403" lon="-3.03011">
        <ele>23.6</ele>
        <time>2024-05-07T15:14:43Z</time>
      </trkpt>
      <trkpt lat="47.58403" lon="-3.03013">
        <ele>23.6</ele>
        <time>2024-05-07T15:14:44Z</time>
      </trkpt>
      <trkpt lat="47.58403" lon="-3.03015">
        <ele>23.6</ele>
        <time>2024-05-07T15:14:45Z</time>
      </trkpt>
      <trkpt lat="47.58403" lon="-3.03017">
        <ele>23.6</ele>
        <time>2024-05-07T15:14:46Z</time>
      </trkpt>
      <trkpt lat="47.58404" lon="-3.03019">
        <ele>23.8</ele>
        <time>2024-05-07T15:14:47Z</time>
      </trkpt>
      <trkpt lat="47.58404" lon="-3.03021">
        <ele>23.8</ele>
        <time>2024-05-07T15:14:48Z</time>
      </trkpt>
      <trkpt lat="47.58403" lon="-3.03022">
        <ele>23.8</ele>
        <time>2024-05-07T15:14:49Z</time>
      </trkpt>
      <trkpt lat="47.58403" lon="-3.03024">
        <ele>23.8</ele>
        <time>2024-05-07T15:14:50Z</time>
      </trkpt>
      <trkpt lat="47.58403" lon="-3.03025">
        <ele>23.8</ele>
        <time>2024-05-07T15:14:51Z</time>
      </trkpt>
      <trkpt lat="47.58403" lon="-3.03026">
        <ele>23.8</ele>
        <time>2024-05-07T15:14:52Z</time>
      </trkpt>
      <trkpt lat="47.58403" lon="-3.03026">
        <ele>23.8</ele>
        <time>2024-05-07T15:14:53Z</time>
      </trkpt>
      <trkpt lat="47.58403" lon="-3.03027">
        <ele>23.8</ele>
        <time>2024-05-07T15:14:54Z</time>
      </trkpt>
      <trkpt lat="47.58403" lon="-3.03027">
        <ele>23.8</ele>
        <time>2024-05-07T15:14:55Z</time>
      </trkpt>
      <trkpt lat="47.58403" lon="-3.03027">
        <ele>23.8</ele>
        <time>2024-05-07T15:14:56Z</time>
      </trkpt>
      <trkpt lat="47.58403" lon="-3.03027">
        <ele>23.6</ele>
        <time>2024-05-07T15:14:57Z</time>
      </trkpt>
      <trkpt lat="47.58403" lon="-3.03027">
        <ele>23.6</ele>
        <time>2024-05-07T15:14:58Z</time>
      </trkpt>
      <trkpt lat="47.58402" lon="-3.03028">
        <ele>23.6</ele>
        <time>2024-05-07T15:14:59Z</time>
      </trkpt>
      <trkpt lat="47.58402" lon="-3.03029">
        <ele>23.6</ele>
        <time>2024-05-07T15:15:00Z</time>
      </trkpt>
      <trkpt lat="47.58402" lon="-3.03029">
        <ele>23.6</ele>
        <time>2024-05-07T15:15:01Z</time>
      </trkpt>
      <trkpt lat="47.58402" lon="-3.03029">
        <ele>23.6</ele>
        <time>2024-05-07T15:15:02Z</time>
      </trkpt>
      <trkpt lat="47.58401" lon="-3.0303">
        <ele>23.6</ele>
        <time>2024-05-07T15:15:03Z</time>
      </trkpt>
      <trkpt lat="47.584" lon="-3.0303">
        <ele>23.6</ele>
        <time>2024-05-07T15:15:04Z</time>
      </trkpt>
      <trkpt lat="47.584" lon="-3.03029">
        <ele>23.6</ele>
        <time>2024-05-07T15:15:05Z</time>
      </trkpt>
      <trkpt lat="47.58399" lon="-3.03029">
        <ele>23.4</ele>
        <time>2024-05-07T15:15:06Z</time>
      </trkpt>
      <trkpt lat="47.58397" lon="-3.03028">
        <ele>23.4</ele>
        <time>2024-05-07T15:15:07Z</time>
      </trkpt>
      <trkpt lat="47.58396" lon="-3.03028">
        <ele>23.4</ele>
        <time>2024-05-07T15:15:08Z</time>
      </trkpt>
      <trkpt lat="47.58395" lon="-3.03027">
        <ele>23.4</ele>
        <time>2024-05-07T15:15:09Z</time>
      </trkpt>
      <trkpt lat="47.58394" lon="-3.03027">
        <ele>23.4</ele>
        <time>2024-05-07T15:15:10Z</time>
      </trkpt>
      <trkpt lat="47.58392" lon="-3.03027">
        <ele>23.4</ele>
        <time>2024-05-07T15:15:11Z</time>
      </trkpt>
      <trkpt lat="47.58391" lon="-3.03026">
        <ele>23.4</ele>
        <time>2024-05-07T15:15:12Z</time>
      </trkpt>
      <trkpt lat="47.58391" lon="-3.03025">
        <ele>23.4</ele>
        <time>2024-05-07T15:15:13Z</time>
      </trkpt>
      <trkpt lat="47.5839" lon="-3.03023">
        <ele>23.4</ele>
        <time>2024-05-07T15:15:14Z</time>
      </trkpt>
      <trkpt lat="47.58389" lon="-3.03023">
        <ele>23.4</ele>
        <time>2024-05-07T15:15:15Z</time>
      </trkpt>
      <trkpt lat="47.58388" lon="-3.03023">
        <ele>23.4</ele>
        <time>2024-05-07T15:15:16Z</time>
      </trkpt>
      <trkpt lat="47.58386" lon="-3.03022">
        <ele>23.4</ele>
        <time>2024-05-07T15:15:17Z</time>
      </trkpt>
      <trkpt lat="47.58384" lon="-3.03022">
        <ele>23.4</ele>
        <time>2024-05-07T15:15:18Z</time>
      </trkpt>
      <trkpt lat="47.58383" lon="-3.03021">
        <ele>23.4</ele>
        <time>2024-05-07T15:15:19Z</time>
      </trkpt>
      <trkpt lat="47.58381" lon="-3.0302">
        <ele>23.2</ele>
        <time>2024-05-07T15:15:20Z</time>
      </trkpt>
      <trkpt lat="47.5838" lon="-3.03019">
        <ele>23.2</ele>
        <time>2024-05-07T15:15:21Z</time>
      </trkpt>
      <trkpt lat="47.58379" lon="-3.03018">
        <ele>23.4</ele>
        <time>2024-05-07T15:15:22Z</time>
      </trkpt>
      <trkpt lat="47.58378" lon="-3.03018">
        <ele>23.4</ele>
        <time>2024-05-07T15:15:23Z</time>
      </trkpt>
      <trkpt lat="47.58377" lon="-3.03017">
        <ele>23.4</ele>
        <time>2024-05-07T15:15:24Z</time>
      </trkpt>
      <trkpt lat="47.58376" lon="-3.03016">
        <ele>23.4</ele>
        <time>2024-05-07T15:15:25Z</time>
      </trkpt>
      <trkpt lat="47.58375" lon="-3.03014">
        <ele>23.4</ele>
        <time>2024-05-07T15:15:26Z</time>
      </trkpt>
      <trkpt lat="47.58374" lon="-3.03011">
        <ele>23.4</ele>
        <time>2024-05-07T15:15:27Z</time>
      </trkpt>
      <trkpt lat="47.58374" lon="-3.03009">
        <ele>23.4</ele>
        <time>2024-05-07T15:15:28Z</time>
      </trkpt>
      <trkpt lat="47.58373" lon="-3.03008">
        <ele>23.4</ele>
        <time>2024-05-07T15:15:29Z</time>
      </trkpt>
      <trkpt lat="47.58372" lon="-3.03007">
        <ele>23.4</ele>
        <time>2024-05-07T15:15:30Z</time>
      </trkpt>
      <trkpt lat="47.5837" lon="-3.03006">
        <ele>23.4</ele>
        <time>2024-05-07T15:15:31Z</time>
      </trkpt>
      <trkpt lat="47.58368" lon="-3.03007">
        <ele>23.4</ele>
        <time>2024-05-07T15:15:32Z</time>
      </trkpt>
      <trkpt lat="47.58367" lon="-3.03007">
        <ele>23.4</ele>
        <time>2024-05-07T15:15:33Z</time>
      </trkpt>
      <trkpt lat="47.58365" lon="-3.03006">
        <ele>23.4</ele>
        <time>2024-05-07T15:15:34Z</time>
      </trkpt>
      <trkpt lat="47.58363" lon="-3.03005">
        <ele>23.4</ele>
        <time>2024-05-07T15:15:35Z</time>
      </trkpt>
      <trkpt lat="47.58362" lon="-3.03006">
        <ele>23.2</ele>
        <time>2024-05-07T15:15:36Z</time>
      </trkpt>
      <trkpt lat="47.5836" lon="-3.03005">
        <ele>23.2</ele>
        <time>2024-05-07T15:15:37Z</time>
      </trkpt>
      <trkpt lat="47.58359" lon="-3.03004">
        <ele>23.2</ele>
        <time>2024-05-07T15:15:38Z</time>
      </trkpt>
      <trkpt lat="47.58358" lon="-3.03003">
        <ele>23.2</ele>
        <time>2024-05-07T15:15:39Z</time>
      </trkpt>
      <trkpt lat="47.58358" lon="-3.03001">
        <ele>23</ele>
        <time>2024-05-07T15:15:40Z</time>
      </trkpt>
      <trkpt lat="47.58357" lon="-3.02999">
        <ele>23</ele>
        <time>2024-05-07T15:15:41Z</time>
      </trkpt>
      <trkpt lat="47.58356" lon="-3.02998">
        <ele>23</ele>
        <time>2024-05-07T15:15:42Z</time>
      </trkpt>
      <trkpt lat="47.58355" lon="-3.02997">
        <ele>23</ele>
        <time>2024-05-07T15:15:43Z</time>
      </trkpt>
      <trkpt lat="47.58354" lon="-3.02995">
        <ele>22.8</ele>
        <time>2024-05-07T15:15:44Z</time>
      </trkpt>
      <trkpt lat="47.58352" lon="-3.02993">
        <ele>22.8</ele>
        <time>2024-05-07T15:15:45Z</time>
      </trkpt>
      <trkpt lat="47.58351" lon="-3.02991">
        <ele>22.8</ele>
        <time>2024-05-07T15:15:46Z</time>
      </trkpt>
      <trkpt lat="47.5835" lon="-3.0299">
        <ele>22.6</ele>
        <time>2024-05-07T15:15:47Z</time>
      </trkpt>
      <trkpt lat="47.58349" lon="-3.02989">
        <ele>22.6</ele>
        <time>2024-05-07T15:15:48Z</time>
      </trkpt>
      <trkpt lat="47.58347" lon="-3.02988">
        <ele>22.6</ele>
        <time>2024-05-07T15:15:49Z</time>
      </trkpt>
      <trkpt lat="47.58346" lon="-3.02986">
        <ele>22.6</ele>
        <time>2024-05-07T15:15:50Z</time>
      </trkpt>
      <trkpt lat="47.58345" lon="-3.02986">
        <ele>22.6</ele>
        <time>2024-05-07T15:15:51Z</time>
      </trkpt>
      <trkpt lat="47.58344" lon="-3.02985">
        <ele>22.6</ele>
        <time>2024-05-07T15:15:52Z</time>
      </trkpt>
      <trkpt lat="47.58343" lon="-3.02984">
        <ele>22.4</ele>
        <time>2024-05-07T15:15:53Z</time>
      </trkpt>
      <trkpt lat="47.58341" lon="-3.02983">
        <ele>22.4</ele>
        <time>2024-05-07T15:15:54Z</time>
      </trkpt>
      <trkpt lat="47.58341" lon="-3.02982">
        <ele>22.4</ele>
        <time>2024-05-07T15:15:55Z</time>
      </trkpt>
      <trkpt lat="47.5834" lon="-3.02981">
        <ele>22.4</ele>
        <time>2024-05-07T15:15:56Z</time>
      </trkpt>
      <trkpt lat="47.58339" lon="-3.0298">
        <ele>22.4</ele>
        <time>2024-05-07T15:15:57Z</time>
      </trkpt>
      <trkpt lat="47.58338" lon="-3.02978">
        <ele>22.2</ele>
        <time>2024-05-07T15:15:58Z</time>
      </trkpt>
      <trkpt lat="47.58337" lon="-3.02977">
        <ele>22.2</ele>
        <time>2024-05-07T15:15:59Z</time>
      </trkpt>
      <trkpt lat="47.58336" lon="-3.02976">
        <ele>22.2</ele>
        <time>2024-05-07T15:16:00Z</time>
      </trkpt>
      <trkpt lat="47.58334" lon="-3.02975">
        <ele>22.2</ele>
        <time>2024-05-07T15:16:01Z</time>
      </trkpt>
      <trkpt lat="47.58333" lon="-3.02975">
        <ele>22.2</ele>
        <time>2024-05-07T15:16:02Z</time>
      </trkpt>
      <trkpt lat="47.58332" lon="-3.02974">
        <ele>22</ele>
        <time>2024-05-07T15:16:03Z</time>
      </trkpt>
      <trkpt lat="47.5833" lon="-3.02973">
        <ele>22</ele>
        <time>2024-05-07T15:16:04Z</time>
      </trkpt>
      <trkpt lat="47.58329" lon="-3.02972">
        <ele>21.8</ele>
        <time>2024-05-07T15:16:05Z</time>
      </trkpt>
      <trkpt lat="47.58327" lon="-3.0297">
        <ele>21.8</ele>
        <time>2024-05-07T15:16:06Z</time>
      </trkpt>
      <trkpt lat="47.58325" lon="-3.02969">
        <ele>21.8</ele>
        <time>2024-05-07T15:16:07Z</time>
      </trkpt>
      <trkpt lat="47.58324" lon="-3.02969">
        <ele>21.8</ele>
        <time>2024-05-07T15:16:08Z</time>
      </trkpt>
      <trkpt lat="47.58322" lon="-3.02969">
        <ele>21.8</ele>
        <time>2024-05-07T15:16:09Z</time>
      </trkpt>
      <trkpt lat="47.58321" lon="-3.02968">
        <ele>21.8</ele>
        <time>2024-05-07T15:16:10Z</time>
      </trkpt>
      <trkpt lat="47.5832" lon="-3.02966">
        <ele>21.8</ele>
        <time>2024-05-07T15:16:11Z</time>
      </trkpt>
      <trkpt lat="47.58319" lon="-3.02965">
        <ele>21.8</ele>
        <time>2024-05-07T15:16:12Z</time>
      </trkpt>
      <trkpt lat="47.58318" lon="-3.02963">
        <ele>21.8</ele>
        <time>2024-05-07T15:16:13Z</time>
      </trkpt>
      <trkpt lat="47.58318" lon="-3.02962">
        <ele>22</ele>
        <time>2024-05-07T15:16:14Z</time>
      </trkpt>
      <trkpt lat="47.58317" lon="-3.0296">
        <ele>22</ele>
        <time>2024-05-07T15:16:15Z</time>
      </trkpt>
      <trkpt lat="47.58316" lon="-3.02959">
        <ele>22</ele>
        <time>2024-05-07T15:16:16Z</time>
      </trkpt>
      <trkpt lat="47.58315" lon="-3.02959">
        <ele>22</ele>
        <time>2024-05-07T15:16:17Z</time>
      </trkpt>
      <trkpt lat="47.58314" lon="-3.02958">
        <ele>22</ele>
        <time>2024-05-07T15:16:18Z</time>
      </trkpt>
      <trkpt lat="47.58312" lon="-3.02957">
        <ele>21.8</ele>
        <time>2024-05-07T15:16:19Z</time>
      </trkpt>
      <trkpt lat="47.58311" lon="-3.02956">
        <ele>21.8</ele>
        <time>2024-05-07T15:16:20Z</time>
      </trkpt>
      <trkpt lat="47.5831" lon="-3.02954">
        <ele>21.8</ele>
        <time>2024-05-07T15:16:21Z</time>
      </trkpt>
      <trkpt lat="47.58309" lon="-3.02953">
        <ele>21.8</ele>
        <time>2024-05-07T15:16:22Z</time>
      </trkpt>
      <trkpt lat="47.58308" lon="-3.02952">
        <ele>21.6</ele>
        <time>2024-05-07T15:16:23Z</time>
      </trkpt>
      <trkpt lat="47.58307" lon="-3.02951">
        <ele>21.6</ele>
        <time>2024-05-07T15:16:24Z</time>
      </trkpt>
      <trkpt lat="47.58306" lon="-3.0295">
        <ele>21.4</ele>
        <time>2024-05-07T15:16:25Z</time>
      </trkpt>
      <trkpt lat="47.58305" lon="-3.02949">
        <ele>21.4</ele>
        <time>2024-05-07T15:16:26Z</time>
      </trkpt>
      <trkpt lat="47.58304" lon="-3.02948">
        <ele>21.4</ele>
        <time>2024-05-07T15:16:27Z</time>
      </trkpt>
      <trkpt lat="47.58303" lon="-3.02947">
        <ele>21.2</ele>
        <time>2024-05-07T15:16:28Z</time>
      </trkpt>
      <trkpt lat="47.58303" lon="-3.02946">
        <ele>21.2</ele>
        <time>2024-05-07T15:16:29Z</time>
      </trkpt>
      <trkpt lat="47.58301" lon="-3.02946">
        <ele>21.2</ele>
        <time>2024-05-07T15:16:30Z</time>
      </trkpt>
      <trkpt lat="47.583" lon="-3.02945">
        <ele>21</ele>
        <time>2024-05-07T15:16:31Z</time>
      </trkpt>
      <trkpt lat="47.58299" lon="-3.02945">
        <ele>21</ele>
        <time>2024-05-07T15:16:32Z</time>
      </trkpt>
      <trkpt lat="47.58297" lon="-3.02945">
        <ele>20.8</ele>
        <time>2024-05-07T15:16:33Z</time>
      </trkpt>
      <trkpt lat="47.58296" lon="-3.02945">
        <ele>20.8</ele>
        <time>2024-05-07T15:16:34Z</time>
      </trkpt>
      <trkpt lat="47.58295" lon="-3.02945">
        <ele>20.6</ele>
        <time>2024-05-07T15:16:35Z</time>
      </trkpt>
      <trkpt lat="47.58294" lon="-3.02945">
        <ele>20.6</ele>
        <time>2024-05-07T15:16:36Z</time>
      </trkpt>
      <trkpt lat="47.58293" lon="-3.02945">
        <ele>20.6</ele>
        <time>2024-05-07T15:16:37Z</time>
      </trkpt>
      <trkpt lat="47.58292" lon="-3.02945">
        <ele>20.4</ele>
        <time>2024-05-07T15:16:38Z</time>
      </trkpt>
      <trkpt lat="47.58291" lon="-3.02945">
        <ele>20.4</ele>
        <time>2024-05-07T15:16:39Z</time>
      </trkpt>
      <trkpt lat="47.5829" lon="-3.02944">
        <ele>20.4</ele>
        <time>2024-05-07T15:16:40Z</time>
      </trkpt>
      <trkpt lat="47.58289" lon="-3.02944">
        <ele>20.4</ele>
        <time>2024-05-07T15:16:41Z</time>
      </trkpt>
      <trkpt lat="47.58288" lon="-3.02944">
        <ele>20.2</ele>
        <time>2024-05-07T15:16:42Z</time>
      </trkpt>
      <trkpt lat="47.58286" lon="-3.02944">
        <ele>20.2</ele>
        <time>2024-05-07T15:16:43Z</time>
      </trkpt>
      <trkpt lat="47.58285" lon="-3.02944">
        <ele>20.2</ele>
        <time>2024-05-07T15:16:44Z</time>
      </trkpt>
      <trkpt lat="47.58284" lon="-3.02944">
        <ele>20</ele>
        <time>2024-05-07T15:16:45Z</time>
      </trkpt>
      <trkpt lat="47.58282" lon="-3.02944">
        <ele>20</ele>
        <time>2024-05-07T15:16:46Z</time>
      </trkpt>
      <trkpt lat="47.58281" lon="-3.02945">
        <ele>19.8</ele>
        <time>2024-05-07T15:16:47Z</time>
      </trkpt>
      <trkpt lat="47.5828" lon="-3.02945">
        <ele>19.8</ele>
        <time>2024-05-07T15:16:48Z</time>
      </trkpt>
      <trkpt lat="47.58279" lon="-3.02945">
        <ele>19.8</ele>
        <time>2024-05-07T15:16:49Z</time>
      </trkpt>
      <trkpt lat="47.58277" lon="-3.02945">
        <ele>19.6</ele>
        <time>2024-05-07T15:16:50Z</time>
      </trkpt>
      <trkpt lat="47.58275" lon="-3.02945">
        <ele>19.6</ele>
        <time>2024-05-07T15:16:51Z</time>
      </trkpt>
      <trkpt lat="47.58274" lon="-3.02945">
        <ele>19.4</ele>
        <time>2024-05-07T15:16:52Z</time>
      </trkpt>
      <trkpt lat="47.58272" lon="-3.02945">
        <ele>19.4</ele>
        <time>2024-05-07T15:16:53Z</time>
      </trkpt>
      <trkpt lat="47.58271" lon="-3.02945">
        <ele>19.4</ele>
        <time>2024-05-07T15:16:54Z</time>
      </trkpt>
      <trkpt lat="47.5827" lon="-3.02946">
        <ele>19.4</ele>
        <time>2024-05-07T15:16:55Z</time>
      </trkpt>
      <trkpt lat="47.58269" lon="-3.02948">
        <ele>19.2</ele>
        <time>2024-05-07T15:16:56Z</time>
      </trkpt>
      <trkpt lat="47.58268" lon="-3.0295">
        <ele>19.2</ele>
        <time>2024-05-07T15:16:57Z</time>
      </trkpt>
      <trkpt lat="47.58268" lon="-3.02951">
        <ele>19.2</ele>
        <time>2024-05-07T15:16:58Z</time>
      </trkpt>
      <trkpt lat="47.58267" lon="-3.02951">
        <ele>19</ele>
        <time>2024-05-07T15:16:59Z</time>
      </trkpt>
      <trkpt lat="47.58266" lon="-3.02952">
        <ele>19</ele>
        <time>2024-05-07T15:17:00Z</time>
      </trkpt>
      <trkpt lat="47.58264" lon="-3.02954">
        <ele>18.8</ele>
        <time>2024-05-07T15:17:01Z</time>
      </trkpt>
      <trkpt lat="47.58264" lon="-3.02956">
        <ele>18.8</ele>
        <time>2024-05-07T15:17:02Z</time>
      </trkpt>
      <trkpt lat="47.58262" lon="-3.02958">
        <ele>18.6</ele>
        <time>2024-05-07T15:17:03Z</time>
      </trkpt>
      <trkpt lat="47.58261" lon="-3.02959">
        <ele>18.6</ele>
        <time>2024-05-07T15:17:04Z</time>
      </trkpt>
      <trkpt lat="47.58259" lon="-3.02961">
        <ele>18.6</ele>
        <time>2024-05-07T15:17:05Z</time>
      </trkpt>
      <trkpt lat="47.58258" lon="-3.02964">
        <ele>18.4</ele>
        <time>2024-05-07T15:17:06Z</time>
      </trkpt>
      <trkpt lat="47.58256" lon="-3.02966">
        <ele>18.4</ele>
        <time>2024-05-07T15:17:07Z</time>
      </trkpt>
      <trkpt lat="47.58255" lon="-3.02967">
        <ele>18.4</ele>
        <time>2024-05-07T15:17:08Z</time>
      </trkpt>
      <trkpt lat="47.58253" lon="-3.02968">
        <ele>18.4</ele>
        <time>2024-05-07T15:17:09Z</time>
      </trkpt>
      <trkpt lat="47.58252" lon="-3.02968">
        <ele>18.4</ele>
        <time>2024-05-07T15:17:10Z</time>
      </trkpt>
      <trkpt lat="47.58252" lon="-3.02969">
        <ele>18.2</ele>
        <time>2024-05-07T15:17:11Z</time>
      </trkpt>
      <trkpt lat="47.58251" lon="-3.0297">
        <ele>18.2</ele>
        <time>2024-05-07T15:17:12Z</time>
      </trkpt>
      <trkpt lat="47.58251" lon="-3.02971">
        <ele>18.2</ele>
        <time>2024-05-07T15:17:13Z</time>
      </trkpt>
      <trkpt lat="47.58251" lon="-3.02972">
        <ele>18.2</ele>
        <time>2024-05-07T15:17:14Z</time>
      </trkpt>
      <trkpt lat="47.58251" lon="-3.02973">
        <ele>18</ele>
        <time>2024-05-07T15:17:15Z</time>
      </trkpt>
      <trkpt lat="47.5825" lon="-3.02974">
        <ele>17.8</ele>
        <time>2024-05-07T15:17:16Z</time>
      </trkpt>
      <trkpt lat="47.58249" lon="-3.02975">
        <ele>17.8</ele>
        <time>2024-05-07T15:17:17Z</time>
      </trkpt>
      <trkpt lat="47.58248" lon="-3.02977">
        <ele>17.8</ele>
        <time>2024-05-07T15:17:18Z</time>
      </trkpt>
      <trkpt lat="47.58247" lon="-3.02978">
        <ele>17.6</ele>
        <time>2024-05-07T15:17:19Z</time>
      </trkpt>
      <trkpt lat="47.58246" lon="-3.02981">
        <ele>17.6</ele>
        <time>2024-05-07T15:17:20Z</time>
      </trkpt>
      <trkpt lat="47.58245" lon="-3.02983">
        <ele>17.6</ele>
        <time>2024-05-07T15:17:21Z</time>
      </trkpt>
      <trkpt lat="47.58244" lon="-3.02986">
        <ele>17.4</ele>
        <time>2024-05-07T15:17:22Z</time>
      </trkpt>
      <trkpt lat="47.58243" lon="-3.02988">
        <ele>17.4</ele>
        <time>2024-05-07T15:17:23Z</time>
      </trkpt>
      <trkpt lat="47.58242" lon="-3.02991">
        <ele>17.4</ele>
        <time>2024-05-07T15:17:24Z</time>
      </trkpt>
      <trkpt lat="47.58241" lon="-3.02994">
        <ele>17.4</ele>
        <time>2024-05-07T15:17:25Z</time>
      </trkpt>
      <trkpt lat="47.5824" lon="-3.02997">
        <ele>17.4</ele>
        <time>2024-05-07T15:17:26Z</time>
      </trkpt>
      <trkpt lat="47.5824" lon="-3.02999">
        <ele>17.4</ele>
        <time>2024-05-07T15:17:27Z</time>
      </trkpt>
      <trkpt lat="47.58239" lon="-3.03">
        <ele>17.2</ele>
        <time>2024-05-07T15:17:28Z</time>
      </trkpt>
      <trkpt lat="47.58238" lon="-3.03001">
        <ele>17.4</ele>
        <time>2024-05-07T15:17:29Z</time>
      </trkpt>
      <trkpt lat="47.58237" lon="-3.03002">
        <ele>17.4</ele>
        <time>2024-05-07T15:17:30Z</time>
      </trkpt>
      <trkpt lat="47.58236" lon="-3.03003">
        <ele>17.2</ele>
        <time>2024-05-07T15:17:31Z</time>
      </trkpt>
      <trkpt lat="47.58235" lon="-3.03003">
        <ele>17</ele>
        <time>2024-05-07T15:17:32Z</time>
      </trkpt>
      <trkpt lat="47.58234" lon="-3.03004">
        <ele>17</ele>
        <time>2024-05-07T15:17:33Z</time>
      </trkpt>
      <trkpt lat="47.58233" lon="-3.03004">
        <ele>17</ele>
        <time>2024-05-07T15:17:34Z</time>
      </trkpt>
      <trkpt lat="47.58233" lon="-3.03005">
        <ele>16.8</ele>
        <time>2024-05-07T15:17:35Z</time>
      </trkpt>
      <trkpt lat="47.58233" lon="-3.03006">
        <ele>16.8</ele>
        <time>2024-05-07T15:17:36Z</time>
      </trkpt>
      <trkpt lat="47.58232" lon="-3.03009">
        <ele>16.8</ele>
        <time>2024-05-07T15:17:37Z</time>
      </trkpt>
      <trkpt lat="47.58231" lon="-3.03011">
        <ele>16.8</ele>
        <time>2024-05-07T15:17:38Z</time>
      </trkpt>
      <trkpt lat="47.5823" lon="-3.03013">
        <ele>16.4</ele>
        <time>2024-05-07T15:17:39Z</time>
      </trkpt>
      <trkpt lat="47.58229" lon="-3.03015">
        <ele>16.6</ele>
        <time>2024-05-07T15:17:40Z</time>
      </trkpt>
      <trkpt lat="47.58228" lon="-3.03017">
        <ele>16.2</ele>
        <time>2024-05-07T15:17:41Z</time>
      </trkpt>
      <trkpt lat="47.58227" lon="-3.03019">
        <ele>16.4</ele>
        <time>2024-05-07T15:17:42Z</time>
      </trkpt>
      <trkpt lat="47.58226" lon="-3.0302">
        <ele>16.2</ele>
        <time>2024-05-07T15:17:43Z</time>
      </trkpt>
      <trkpt lat="47.58225" lon="-3.03022">
        <ele>16.2</ele>
        <time>2024-05-07T15:17:44Z</time>
      </trkpt>
      <trkpt lat="47.58224" lon="-3.03023">
        <ele>16.2</ele>
        <time>2024-05-07T15:17:45Z</time>
      </trkpt>
      <trkpt lat="47.58223" lon="-3.03025">
        <ele>16.2</ele>
        <time>2024-05-07T15:17:46Z</time>
      </trkpt>
      <trkpt lat="47.58223" lon="-3.03027">
        <ele>16.2</ele>
        <time>2024-05-07T15:17:47Z</time>
      </trkpt>
      <trkpt lat="47.58222" lon="-3.03028">
        <ele>16.2</ele>
        <time>2024-05-07T15:17:48Z</time>
      </trkpt>
      <trkpt lat="47.58221" lon="-3.03029">
        <ele>16.2</ele>
        <time>2024-05-07T15:17:49Z</time>
      </trkpt>
      <trkpt lat="47.5822" lon="-3.03031">
        <ele>16</ele>
        <time>2024-05-07T15:17:50Z</time>
      </trkpt>
      <trkpt lat="47.58219" lon="-3.03032">
        <ele>16</ele>
        <time>2024-05-07T15:17:51Z</time>
      </trkpt>
      <trkpt lat="47.58218" lon="-3.03034">
        <ele>16</ele>
        <time>2024-05-07T15:17:52Z</time>
      </trkpt>
      <trkpt lat="47.58217" lon="-3.03035">
        <ele>16</ele>
        <time>2024-05-07T15:17:53Z</time>
      </trkpt>
      <trkpt lat="47.58216" lon="-3.03036">
        <ele>16</ele>
        <time>2024-05-07T15:17:54Z</time>
      </trkpt>
      <trkpt lat="47.58215" lon="-3.03038">
        <ele>16</ele>
        <time>2024-05-07T15:17:55Z</time>
      </trkpt>
      <trkpt lat="47.58214" lon="-3.03039">
        <ele>16</ele>
        <time>2024-05-07T15:17:56Z</time>
      </trkpt>
      <trkpt lat="47.58213" lon="-3.03041">
        <ele>16</ele>
        <time>2024-05-07T15:17:57Z</time>
      </trkpt>
      <trkpt lat="47.58211" lon="-3.03043">
        <ele>16</ele>
        <time>2024-05-07T15:17:58Z</time>
      </trkpt>
      <trkpt lat="47.5821" lon="-3.03046">
        <ele>16</ele>
        <time>2024-05-07T15:17:59Z</time>
      </trkpt>
      <trkpt lat="47.5821" lon="-3.03048">
        <ele>16</ele>
        <time>2024-05-07T15:18:00Z</time>
      </trkpt>
      <trkpt lat="47.58209" lon="-3.0305">
        <ele>16</ele>
        <time>2024-05-07T15:18:01Z</time>
      </trkpt>
      <trkpt lat="47.58207" lon="-3.03052">
        <ele>16</ele>
        <time>2024-05-07T15:18:02Z</time>
      </trkpt>
      <trkpt lat="47.58206" lon="-3.03053">
        <ele>16</ele>
        <time>2024-05-07T15:18:03Z</time>
      </trkpt>
      <trkpt lat="47.58206" lon="-3.03055">
        <ele>16</ele>
        <time>2024-05-07T15:18:04Z</time>
      </trkpt>
      <trkpt lat="47.58205" lon="-3.03057">
        <ele>15.8</ele>
        <time>2024-05-07T15:18:05Z</time>
      </trkpt>
      <trkpt lat="47.58204" lon="-3.03058">
        <ele>15.8</ele>
        <time>2024-05-07T15:18:06Z</time>
      </trkpt>
      <trkpt lat="47.58204" lon="-3.0306">
        <ele>16</ele>
        <time>2024-05-07T15:18:07Z</time>
      </trkpt>
      <trkpt lat="47.58203" lon="-3.03061">
        <ele>16.2</ele>
        <time>2024-05-07T15:18:08Z</time>
      </trkpt>
      <trkpt lat="47.58202" lon="-3.03063">
        <ele>16</ele>
        <time>2024-05-07T15:18:09Z</time>
      </trkpt>
      <trkpt lat="47.58202" lon="-3.03064">
        <ele>16</ele>
        <time>2024-05-07T15:18:10Z</time>
      </trkpt>
      <trkpt lat="47.58201" lon="-3.03066">
        <ele>16</ele>
        <time>2024-05-07T15:18:11Z</time>
      </trkpt>
      <trkpt lat="47.582" lon="-3.03067">
        <ele>16</ele>
        <time>2024-05-07T15:18:12Z</time>
      </trkpt>
      <trkpt lat="47.58199" lon="-3.03068">
        <ele>16</ele>
        <time>2024-05-07T15:18:13Z</time>
      </trkpt>
      <trkpt lat="47.58199" lon="-3.0307">
        <ele>16</ele>
        <time>2024-05-07T15:18:14Z</time>
      </trkpt>
      <trkpt lat="47.58198" lon="-3.03071">
        <ele>16</ele>
        <time>2024-05-07T15:18:15Z</time>
      </trkpt>
      <trkpt lat="47.58197" lon="-3.03073">
        <ele>16</ele>
        <time>2024-05-07T15:18:16Z</time>
      </trkpt>
      <trkpt lat="47.58196" lon="-3.03075">
        <ele>16</ele>
        <time>2024-05-07T15:18:17Z</time>
      </trkpt>
      <trkpt lat="47.58195" lon="-3.03077">
        <ele>16</ele>
        <time>2024-05-07T15:18:18Z</time>
      </trkpt>
      <trkpt lat="47.58194" lon="-3.03079">
        <ele>16</ele>
        <time>2024-05-07T15:18:19Z</time>
      </trkpt>
      <trkpt lat="47.58193" lon="-3.03081">
        <ele>16</ele>
        <time>2024-05-07T15:18:20Z</time>
      </trkpt>
      <trkpt lat="47.58192" lon="-3.03082">
        <ele>16</ele>
        <time>2024-05-07T15:18:21Z</time>
      </trkpt>
      <trkpt lat="47.58191" lon="-3.03083">
        <ele>16</ele>
        <time>2024-05-07T15:18:22Z</time>
      </trkpt>
      <trkpt lat="47.58191" lon="-3.03084">
        <ele>16</ele>
        <time>2024-05-07T15:18:23Z</time>
      </trkpt>
      <trkpt lat="47.5819" lon="-3.03086">
        <ele>16</ele>
        <time>2024-05-07T15:18:24Z</time>
      </trkpt>
      <trkpt lat="47.58189" lon="-3.03087">
        <ele>16</ele>
        <time>2024-05-07T15:18:25Z</time>
      </trkpt>
      <trkpt lat="47.58188" lon="-3.03088">
        <ele>16</ele>
        <time>2024-05-07T15:18:26Z</time>
      </trkpt>
      <trkpt lat="47.58187" lon="-3.03089">
        <ele>16</ele>
        <time>2024-05-07T15:18:27Z</time>
      </trkpt>
      <trkpt lat="47.58186" lon="-3.0309">
        <ele>16</ele>
        <time>2024-05-07T15:18:28Z</time>
      </trkpt>
      <trkpt lat="47.58185" lon="-3.03092">
        <ele>16.2</ele>
        <time>2024-05-07T15:18:29Z</time>
      </trkpt>
      <trkpt lat="47.58184" lon="-3.03093">
        <ele>16.2</ele>
        <time>2024-05-07T15:18:30Z</time>
      </trkpt>
      <trkpt lat="47.58183" lon="-3.03095">
        <ele>16.4</ele>
        <time>2024-05-07T15:18:31Z</time>
      </trkpt>
      <trkpt lat="47.58182" lon="-3.03096">
        <ele>16.4</ele>
        <time>2024-05-07T15:18:32Z</time>
      </trkpt>
      <trkpt lat="47.58181" lon="-3.03096">
        <ele>16.4</ele>
        <time>2024-05-07T15:18:33Z</time>
      </trkpt>
      <trkpt lat="47.5818" lon="-3.03098">
        <ele>16.6</ele>
        <time>2024-05-07T15:18:34Z</time>
      </trkpt>
      <trkpt lat="47.58179" lon="-3.03099">
        <ele>16.6</ele>
        <time>2024-05-07T15:18:35Z</time>
      </trkpt>
      <trkpt lat="47.58178" lon="-3.03101">
        <ele>16.6</ele>
        <time>2024-05-07T15:18:36Z</time>
      </trkpt>
      <trkpt lat="47.58177" lon="-3.03103">
        <ele>16.8</ele>
        <time>2024-05-07T15:18:37Z</time>
      </trkpt>
      <trkpt lat="47.58175" lon="-3.03104">
        <ele>16.8</ele>
        <time>2024-05-07T15:18:38Z</time>
      </trkpt>
      <trkpt lat="47.58174" lon="-3.03104">
        <ele>16.8</ele>
        <time>2024-05-07T15:18:39Z</time>
      </trkpt>
      <trkpt lat="47.58172" lon="-3.03104">
        <ele>17</ele>
        <time>2024-05-07T15:18:40Z</time>
      </trkpt>
      <trkpt lat="47.58171" lon="-3.03106">
        <ele>17</ele>
        <time>2024-05-07T15:18:41Z</time>
      </trkpt>
      <trkpt lat="47.58171" lon="-3.03108">
        <ele>17.2</ele>
        <time>2024-05-07T15:18:42Z</time>
      </trkpt>
      <trkpt lat="47.5817" lon="-3.0311">
        <ele>17.2</ele>
        <time>2024-05-07T15:18:43Z</time>
      </trkpt>
      <trkpt lat="47.58169" lon="-3.03111">
        <ele>17.4</ele>
        <time>2024-05-07T15:18:44Z</time>
      </trkpt>
      <trkpt lat="47.58168" lon="-3.03112">
        <ele>17.4</ele>
        <time>2024-05-07T15:18:45Z</time>
      </trkpt>
      <trkpt lat="47.58167" lon="-3.03114">
        <ele>17.6</ele>
        <time>2024-05-07T15:18:46Z</time>
      </trkpt>
      <trkpt lat="47.58167" lon="-3.03116">
        <ele>17.6</ele>
        <time>2024-05-07T15:18:47Z</time>
      </trkpt>
      <trkpt lat="47.58166" lon="-3.03118">
        <ele>17.8</ele>
        <time>2024-05-07T15:18:48Z</time>
      </trkpt>
      <trkpt lat="47.58165" lon="-3.03119">
        <ele>17.8</ele>
        <time>2024-05-07T15:18:49Z</time>
      </trkpt>
      <trkpt lat="47.58164" lon="-3.03121">
        <ele>17.8</ele>
        <time>2024-05-07T15:18:50Z</time>
      </trkpt>
      <trkpt lat="47.58163" lon="-3.03122">
        <ele>18</ele>
        <time>2024-05-07T15:18:51Z</time>
      </trkpt>
      <trkpt lat="47.58163" lon="-3.03124">
        <ele>18</ele>
        <time>2024-05-07T15:18:52Z</time>
      </trkpt>
      <trkpt lat="47.58162" lon="-3.03125">
        <ele>18</ele>
        <time>2024-05-07T15:18:53Z</time>
      </trkpt>
      <trkpt lat="47.58161" lon="-3.03126">
        <ele>18.2</ele>
        <time>2024-05-07T15:18:54Z</time>
      </trkpt>
      <trkpt lat="47.5816" lon="-3.03125">
        <ele>18.2</ele>
        <time>2024-05-07T15:18:55Z</time>
      </trkpt>
      <trkpt lat="47.58159" lon="-3.03125">
        <ele>18.2</ele>
        <time>2024-05-07T15:18:56Z</time>
      </trkpt>
      <trkpt lat="47.58158" lon="-3.03126">
        <ele>18.2</ele>
        <time>2024-05-07T15:18:57Z</time>
      </trkpt>
      <trkpt lat="47.58157" lon="-3.03126">
        <ele>18.2</ele>
        <time>2024-05-07T15:18:58Z</time>
      </trkpt>
      <trkpt lat="47.58156" lon="-3.03129">
        <ele>18.2</ele>
        <time>2024-05-07T15:18:59Z</time>
      </trkpt>
      <trkpt lat="47.58155" lon="-3.03132">
        <ele>18.4</ele>
        <time>2024-05-07T15:19:00Z</time>
      </trkpt>
      <trkpt lat="47.58155" lon="-3.03134">
        <ele>18.4</ele>
        <time>2024-05-07T15:19:01Z</time>
      </trkpt>
      <trkpt lat="47.58154" lon="-3.03135">
        <ele>18.4</ele>
        <time>2024-05-07T15:19:02Z</time>
      </trkpt>
      <trkpt lat="47.58153" lon="-3.03136">
        <ele>18.4</ele>
        <time>2024-05-07T15:19:03Z</time>
      </trkpt>
      <trkpt lat="47.58152" lon="-3.03138">
        <ele>18.4</ele>
        <time>2024-05-07T15:19:04Z</time>
      </trkpt>
      <trkpt lat="47.58151" lon="-3.03141">
        <ele>18.4</ele>
        <time>2024-05-07T15:19:05Z</time>
      </trkpt>
      <trkpt lat="47.58151" lon="-3.03143">
        <ele>18.4</ele>
        <time>2024-05-07T15:19:06Z</time>
      </trkpt>
      <trkpt lat="47.5815" lon="-3.03145">
        <ele>18.4</ele>
        <time>2024-05-07T15:19:07Z</time>
      </trkpt>
      <trkpt lat="47.5815" lon="-3.03147">
        <ele>18.4</ele>
        <time>2024-05-07T15:19:08Z</time>
      </trkpt>
      <trkpt lat="47.58149" lon="-3.0315">
        <ele>18.4</ele>
        <time>2024-05-07T15:19:09Z</time>
      </trkpt>
      <trkpt lat="47.58147" lon="-3.03152">
        <ele>18.4</ele>
        <time>2024-05-07T15:19:10Z</time>
      </trkpt>
      <trkpt lat="47.58146" lon="-3.03155">
        <ele>18.4</ele>
        <time>2024-05-07T15:19:11Z</time>
      </trkpt>
      <trkpt lat="47.58145" lon="-3.03157">
        <ele>18.4</ele>
        <time>2024-05-07T15:19:12Z</time>
      </trkpt>
      <trkpt lat="47.58144" lon="-3.03158">
        <ele>18.4</ele>
        <time>2024-05-07T15:19:13Z</time>
      </trkpt>
      <trkpt lat="47.58143" lon="-3.0316">
        <ele>18.4</ele>
        <time>2024-05-07T15:19:14Z</time>
      </trkpt>
      <trkpt lat="47.58141" lon="-3.03161">
        <ele>18.4</ele>
        <time>2024-05-07T15:19:15Z</time>
      </trkpt>
      <trkpt lat="47.5814" lon="-3.03163">
        <ele>18.4</ele>
        <time>2024-05-07T15:19:16Z</time>
      </trkpt>
      <trkpt lat="47.5814" lon="-3.03165">
        <ele>18.2</ele>
        <time>2024-05-07T15:19:17Z</time>
      </trkpt>
      <trkpt lat="47.5814" lon="-3.03166">
        <ele>18.2</ele>
        <time>2024-05-07T15:19:18Z</time>
      </trkpt>
      <trkpt lat="47.58139" lon="-3.03167">
        <ele>18</ele>
        <time>2024-05-07T15:19:19Z</time>
      </trkpt>
      <trkpt lat="47.58138" lon="-3.03168">
        <ele>18</ele>
        <time>2024-05-07T15:19:20Z</time>
      </trkpt>
      <trkpt lat="47.58137" lon="-3.03168">
        <ele>17.8</ele>
        <time>2024-05-07T15:19:21Z</time>
      </trkpt>
      <trkpt lat="47.58136" lon="-3.03169">
        <ele>17.8</ele>
        <time>2024-05-07T15:19:22Z</time>
      </trkpt>
      <trkpt lat="47.58136" lon="-3.0317">
        <ele>17.6</ele>
        <time>2024-05-07T15:19:23Z</time>
      </trkpt>
      <trkpt lat="47.58135" lon="-3.03171">
        <ele>17.4</ele>
        <time>2024-05-07T15:19:24Z</time>
      </trkpt>
      <trkpt lat="47.58133" lon="-3.03172">
        <ele>17.4</ele>
        <time>2024-05-07T15:19:25Z</time>
      </trkpt>
      <trkpt lat="47.58132" lon="-3.03173">
        <ele>17.2</ele>
        <time>2024-05-07T15:19:26Z</time>
      </trkpt>
      <trkpt lat="47.5813" lon="-3.03175">
        <ele>17.2</ele>
        <time>2024-05-07T15:19:27Z</time>
      </trkpt>
      <trkpt lat="47.58129" lon="-3.03175">
        <ele>17.2</ele>
        <time>2024-05-07T15:19:28Z</time>
      </trkpt>
      <trkpt lat="47.58127" lon="-3.03175">
        <ele>17</ele>
        <time>2024-05-07T15:19:29Z</time>
      </trkpt>
      <trkpt lat="47.58125" lon="-3.03177">
        <ele>17</ele>
        <time>2024-05-07T15:19:30Z</time>
      </trkpt>
      <trkpt lat="47.58124" lon="-3.03178">
        <ele>17</ele>
        <time>2024-05-07T15:19:31Z</time>
      </trkpt>
      <trkpt lat="47.58122" lon="-3.0318">
        <ele>17</ele>
        <time>2024-05-07T15:19:32Z</time>
      </trkpt>
      <trkpt lat="47.58121" lon="-3.03181">
        <ele>16.8</ele>
        <time>2024-05-07T15:19:33Z</time>
      </trkpt>
      <trkpt lat="47.5812" lon="-3.03182">
        <ele>16.8</ele>
        <time>2024-05-07T15:19:34Z</time>
      </trkpt>
      <trkpt lat="47.58119" lon="-3.03183">
        <ele>16.8</ele>
        <time>2024-05-07T15:19:35Z</time>
      </trkpt>
      <trkpt lat="47.58117" lon="-3.03184">
        <ele>16.8</ele>
        <time>2024-05-07T15:19:36Z</time>
      </trkpt>
      <trkpt lat="47.58116" lon="-3.03186">
        <ele>16.8</ele>
        <time>2024-05-07T15:19:37Z</time>
      </trkpt>
      <trkpt lat="47.58115" lon="-3.03187">
        <ele>16.8</ele>
        <time>2024-05-07T15:19:38Z</time>
      </trkpt>
      <trkpt lat="47.58114" lon="-3.03187">
        <ele>16.8</ele>
        <time>2024-05-07T15:19:39Z</time>
      </trkpt>
      <trkpt lat="47.58113" lon="-3.03188">
        <ele>16.8</ele>
        <time>2024-05-07T15:19:40Z</time>
      </trkpt>
      <trkpt lat="47.58112" lon="-3.03189">
        <ele>16.8</ele>
        <time>2024-05-07T15:19:41Z</time>
      </trkpt>
      <trkpt lat="47.58111" lon="-3.03191">
        <ele>16.8</ele>
        <time>2024-05-07T15:19:42Z</time>
      </trkpt>
      <trkpt lat="47.5811" lon="-3.03192">
        <ele>16.8</ele>
        <time>2024-05-07T15:19:43Z</time>
      </trkpt>
      <trkpt lat="47.58109" lon="-3.03193">
        <ele>16.8</ele>
        <time>2024-05-07T15:19:44Z</time>
      </trkpt>
      <trkpt lat="47.58108" lon="-3.03194">
        <ele>16.8</ele>
        <time>2024-05-07T15:19:45Z</time>
      </trkpt>
      <trkpt lat="47.58107" lon="-3.03196">
        <ele>16.8</ele>
        <time>2024-05-07T15:19:46Z</time>
      </trkpt>
      <trkpt lat="47.58106" lon="-3.03197">
        <ele>16.6</ele>
        <time>2024-05-07T15:19:47Z</time>
      </trkpt>
      <trkpt lat="47.58106" lon="-3.03198">
        <ele>16.6</ele>
        <time>2024-05-07T15:19:48Z</time>
      </trkpt>
      <trkpt lat="47.58105" lon="-3.03199">
        <ele>16.4</ele>
        <time>2024-05-07T15:19:49Z</time>
      </trkpt>
      <trkpt lat="47.58104" lon="-3.03201">
        <ele>16.4</ele>
        <time>2024-05-07T15:19:50Z</time>
      </trkpt>
      <trkpt lat="47.58102" lon="-3.03202">
        <ele>16.2</ele>
        <time>2024-05-07T15:19:51Z</time>
      </trkpt>
      <trkpt lat="47.58101" lon="-3.03203">
        <ele>16.2</ele>
        <time>2024-05-07T15:19:52Z</time>
      </trkpt>
      <trkpt lat="47.58099" lon="-3.03204">
        <ele>16</ele>
        <time>2024-05-07T15:19:53Z</time>
      </trkpt>
      <trkpt lat="47.58098" lon="-3.03205">
        <ele>16</ele>
        <time>2024-05-07T15:19:54Z</time>
      </trkpt>
      <trkpt lat="47.58097" lon="-3.03205">
        <ele>15.8</ele>
        <time>2024-05-07T15:19:55Z</time>
      </trkpt>
      <trkpt lat="47.58096" lon="-3.03206">
        <ele>15.8</ele>
        <time>2024-05-07T15:19:56Z</time>
      </trkpt>
      <trkpt lat="47.58094" lon="-3.03206">
        <ele>15.6</ele>
        <time>2024-05-07T15:19:57Z</time>
      </trkpt>
      <trkpt lat="47.58093" lon="-3.03207">
        <ele>15.6</ele>
        <time>2024-05-07T15:19:58Z</time>
      </trkpt>
      <trkpt lat="47.58092" lon="-3.03208">
        <ele>15.4</ele>
        <time>2024-05-07T15:19:59Z</time>
      </trkpt>
      <trkpt lat="47.5809" lon="-3.03208">
        <ele>15.4</ele>
        <time>2024-05-07T15:20:00Z</time>
      </trkpt>
      <trkpt lat="47.58089" lon="-3.03209">
        <ele>15.2</ele>
        <time>2024-05-07T15:20:01Z</time>
      </trkpt>
      <trkpt lat="47.58086" lon="-3.0321">
        <ele>15.2</ele>
        <time>2024-05-07T15:20:02Z</time>
      </trkpt>
      <trkpt lat="47.58085" lon="-3.03211">
        <ele>15.2</ele>
        <time>2024-05-07T15:20:03Z</time>
      </trkpt>
      <trkpt lat="47.58083" lon="-3.03212">
        <ele>15</ele>
        <time>2024-05-07T15:20:04Z</time>
      </trkpt>
      <trkpt lat="47.58082" lon="-3.03212">
        <ele>15</ele>
        <time>2024-05-07T15:20:05Z</time>
      </trkpt>
      <trkpt lat="47.58081" lon="-3.03213">
        <ele>14.8</ele>
        <time>2024-05-07T15:20:06Z</time>
      </trkpt>
      <trkpt lat="47.5808" lon="-3.03214">
        <ele>14.8</ele>
        <time>2024-05-07T15:20:07Z</time>
      </trkpt>
      <trkpt lat="47.58079" lon="-3.03214">
        <ele>14.8</ele>
        <time>2024-05-07T15:20:08Z</time>
      </trkpt>
      <trkpt lat="47.58077" lon="-3.03215">
        <ele>14.6</ele>
        <time>2024-05-07T15:20:09Z</time>
      </trkpt>
      <trkpt lat="47.58076" lon="-3.03216">
        <ele>14.6</ele>
        <time>2024-05-07T15:20:10Z</time>
      </trkpt>
      <trkpt lat="47.58074" lon="-3.03217">
        <ele>14.6</ele>
        <time>2024-05-07T15:20:11Z</time>
      </trkpt>
      <trkpt lat="47.58073" lon="-3.03217">
        <ele>14.6</ele>
        <time>2024-05-07T15:20:12Z</time>
      </trkpt>
      <trkpt lat="47.58071" lon="-3.03217">
        <ele>14.4</ele>
        <time>2024-05-07T15:20:13Z</time>
      </trkpt>
      <trkpt lat="47.5807" lon="-3.03218">
        <ele>14.4</ele>
        <time>2024-05-07T15:20:14Z</time>
      </trkpt>
      <trkpt lat="47.58069" lon="-3.03218">
        <ele>14.2</ele>
        <time>2024-05-07T15:20:15Z</time>
      </trkpt>
      <trkpt lat="47.58068" lon="-3.03219">
        <ele>14.2</ele>
        <time>2024-05-07T15:20:16Z</time>
      </trkpt>
      <trkpt lat="47.58067" lon="-3.0322">
        <ele>14.2</ele>
        <time>2024-05-07T15:20:17Z</time>
      </trkpt>
      <trkpt lat="47.58066" lon="-3.03221">
        <ele>14</ele>
        <time>2024-05-07T15:20:18Z</time>
      </trkpt>
      <trkpt lat="47.58065" lon="-3.03222">
        <ele>13.8</ele>
        <time>2024-05-07T15:20:19Z</time>
      </trkpt>
      <trkpt lat="47.58063" lon="-3.03223">
        <ele>13.6</ele>
        <time>2024-05-07T15:20:20Z</time>
      </trkpt>
      <trkpt lat="47.58062" lon="-3.03224">
        <ele>13.6</ele>
        <time>2024-05-07T15:20:21Z</time>
      </trkpt>
      <trkpt lat="47.58061" lon="-3.03226">
        <ele>13.6</ele>
        <time>2024-05-07T15:20:22Z</time>
      </trkpt>
      <trkpt lat="47.5806" lon="-3.03228">
        <ele>13.4</ele>
        <time>2024-05-07T15:20:23Z</time>
      </trkpt>
      <trkpt lat="47.58059" lon="-3.03229">
        <ele>13.2</ele>
        <time>2024-05-07T15:20:24Z</time>
      </trkpt>
      <trkpt lat="47.58059" lon="-3.0323">
        <ele>13.2</ele>
        <time>2024-05-07T15:20:25Z</time>
      </trkpt>
      <trkpt lat="47.58058" lon="-3.03231">
        <ele>13</ele>
        <time>2024-05-07T15:20:26Z</time>
      </trkpt>
      <trkpt lat="47.58057" lon="-3.03231">
        <ele>13</ele>
        <time>2024-05-07T15:20:27Z</time>
      </trkpt>
      <trkpt lat="47.58055" lon="-3.03232">
        <ele>12.8</ele>
        <time>2024-05-07T15:20:28Z</time>
      </trkpt>
      <trkpt lat="47.58053" lon="-3.03231">
        <ele>12.6</ele>
        <time>2024-05-07T15:20:29Z</time>
      </trkpt>
      <trkpt lat="47.58052" lon="-3.03232">
        <ele>12.6</ele>
        <time>2024-05-07T15:20:30Z</time>
      </trkpt>
      <trkpt lat="47.5805" lon="-3.03232">
        <ele>12.6</ele>
        <time>2024-05-07T15:20:31Z</time>
      </trkpt>
      <trkpt lat="47.58049" lon="-3.03234">
        <ele>12.6</ele>
        <time>2024-05-07T15:20:32Z</time>
      </trkpt>
      <trkpt lat="47.58047" lon="-3.03236">
        <ele>12.4</ele>
        <time>2024-05-07T15:20:33Z</time>
      </trkpt>
      <trkpt lat="47.58047" lon="-3.03238">
        <ele>12.4</ele>
        <time>2024-05-07T15:20:34Z</time>
      </trkpt>
      <trkpt lat="47.58046" lon="-3.03239">
        <ele>12.2</ele>
        <time>2024-05-07T15:20:35Z</time>
      </trkpt>
      <trkpt lat="47.58045" lon="-3.03239">
        <ele>12.2</ele>
        <time>2024-05-07T15:20:36Z</time>
      </trkpt>
      <trkpt lat="47.58043" lon="-3.03239">
        <ele>12</ele>
        <time>2024-05-07T15:20:37Z</time>
      </trkpt>
      <trkpt lat="47.58042" lon="-3.03239">
        <ele>12</ele>
        <time>2024-05-07T15:20:38Z</time>
      </trkpt>
      <trkpt lat="47.58041" lon="-3.0324">
        <ele>12</ele>
        <time>2024-05-07T15:20:39Z</time>
      </trkpt>
      <trkpt lat="47.5804" lon="-3.0324">
        <ele>12</ele>
        <time>2024-05-07T15:20:40Z</time>
      </trkpt>
      <trkpt lat="47.58038" lon="-3.03241">
        <ele>11.8</ele>
        <time>2024-05-07T15:20:41Z</time>
      </trkpt>
      <trkpt lat="47.58037" lon="-3.03241">
        <ele>11.8</ele>
        <time>2024-05-07T15:20:42Z</time>
      </trkpt>
      <trkpt lat="47.58036" lon="-3.03242">
        <ele>11.6</ele>
        <time>2024-05-07T15:20:43Z</time>
      </trkpt>
      <trkpt lat="47.58034" lon="-3.03243">
        <ele>11.6</ele>
        <time>2024-05-07T15:20:44Z</time>
      </trkpt>
      <trkpt lat="47.58032" lon="-3.03243">
        <ele>11.4</ele>
        <time>2024-05-07T15:20:45Z</time>
      </trkpt>
      <trkpt lat="47.58031" lon="-3.03244">
        <ele>11.4</ele>
        <time>2024-05-07T15:20:46Z</time>
      </trkpt>
      <trkpt lat="47.5803" lon="-3.03245">
        <ele>11.2</ele>
        <time>2024-05-07T15:20:47Z</time>
      </trkpt>
      <trkpt lat="47.58028" lon="-3.03245">
        <ele>11.2</ele>
        <time>2024-05-07T15:20:48Z</time>
      </trkpt>
      <trkpt lat="47.58027" lon="-3.03246">
        <ele>11</ele>
        <time>2024-05-07T15:20:49Z</time>
      </trkpt>
      <trkpt lat="47.58026" lon="-3.03246">
        <ele>11</ele>
        <time>2024-05-07T15:20:50Z</time>
      </trkpt>
      <trkpt lat="47.58024" lon="-3.03247">
        <ele>11</ele>
        <time>2024-05-07T15:20:51Z</time>
      </trkpt>
      <trkpt lat="47.58023" lon="-3.03248">
        <ele>10.8</ele>
        <time>2024-05-07T15:20:52Z</time>
      </trkpt>
      <trkpt lat="47.58023" lon="-3.03249">
        <ele>10.8</ele>
        <time>2024-05-07T15:20:53Z</time>
      </trkpt>
      <trkpt lat="47.58022" lon="-3.0325">
        <ele>10.6</ele>
        <time>2024-05-07T15:20:54Z</time>
      </trkpt>
      <trkpt lat="47.58021" lon="-3.03251">
        <ele>10.4</ele>
        <time>2024-05-07T15:20:55Z</time>
      </trkpt>
      <trkpt lat="47.5802" lon="-3.03252">
        <ele>10.4</ele>
        <time>2024-05-07T15:20:56Z</time>
      </trkpt>
      <trkpt lat="47.58018" lon="-3.03252">
        <ele>10.2</ele>
        <time>2024-05-07T15:20:57Z</time>
      </trkpt>
      <trkpt lat="47.58016" lon="-3.03252">
        <ele>10.2</ele>
        <time>2024-05-07T15:20:58Z</time>
      </trkpt>
      <trkpt lat="47.58015" lon="-3.03253">
        <ele>10.2</ele>
        <time>2024-05-07T15:20:59Z</time>
      </trkpt>
      <trkpt lat="47.58013" lon="-3.03254">
        <ele>10</ele>
        <time>2024-05-07T15:21:00Z</time>
      </trkpt>
      <trkpt lat="47.58013" lon="-3.03255">
        <ele>10</ele>
        <time>2024-05-07T15:21:01Z</time>
      </trkpt>
      <trkpt lat="47.58012" lon="-3.03256">
        <ele>9.8</ele>
        <time>2024-05-07T15:21:02Z</time>
      </trkpt>
      <trkpt lat="47.58011" lon="-3.03257">
        <ele>9.6</ele>
        <time>2024-05-07T15:21:03Z</time>
      </trkpt>
      <trkpt lat="47.5801" lon="-3.03257">
        <ele>9.4</ele>
        <time>2024-05-07T15:21:04Z</time>
      </trkpt>
      <trkpt lat="47.58009" lon="-3.03257">
        <ele>9.4</ele>
        <time>2024-05-07T15:21:05Z</time>
      </trkpt>
      <trkpt lat="47.58007" lon="-3.03258">
        <ele>9.2</ele>
        <time>2024-05-07T15:21:06Z</time>
      </trkpt>
      <trkpt lat="47.58005" lon="-3.03259">
        <ele>9.2</ele>
        <time>2024-05-07T15:21:07Z</time>
      </trkpt>
      <trkpt lat="47.58004" lon="-3.0326">
        <ele>9</ele>
        <time>2024-05-07T15:21:08Z</time>
      </trkpt>
      <trkpt lat="47.58003" lon="-3.0326">
        <ele>9</ele>
        <time>2024-05-07T15:21:09Z</time>
      </trkpt>
      <trkpt lat="47.58002" lon="-3.03262">
        <ele>8.8</ele>
        <time>2024-05-07T15:21:10Z</time>
      </trkpt>
      <trkpt lat="47.58001" lon="-3.03263">
        <ele>8.6</ele>
        <time>2024-05-07T15:21:11Z</time>
      </trkpt>
      <trkpt lat="47.57999" lon="-3.03263">
        <ele>8.6</ele>
        <time>2024-05-07T15:21:12Z</time>
      </trkpt>
      <trkpt lat="47.57998" lon="-3.03262">
        <ele>8.4</ele>
        <time>2024-05-07T15:21:13Z</time>
      </trkpt>
      <trkpt lat="47.57996" lon="-3.03262">
        <ele>8.4</ele>
        <time>2024-05-07T15:21:14Z</time>
      </trkpt>
      <trkpt lat="47.57995" lon="-3.03263">
        <ele>8.2</ele>
        <time>2024-05-07T15:21:15Z</time>
      </trkpt>
      <trkpt lat="47.57994" lon="-3.03264">
        <ele>8.2</ele>
        <time>2024-05-07T15:21:16Z</time>
      </trkpt>
      <trkpt lat="47.57992" lon="-3.03266">
        <ele>8</ele>
        <time>2024-05-07T15:21:17Z</time>
      </trkpt>
      <trkpt lat="47.57991" lon="-3.03267">
        <ele>8</ele>
        <time>2024-05-07T15:21:18Z</time>
      </trkpt>
      <trkpt lat="47.57989" lon="-3.03267">
        <ele>7.8</ele>
        <time>2024-05-07T15:21:19Z</time>
      </trkpt>
      <trkpt lat="47.57988" lon="-3.03269">
        <ele>7.8</ele>
        <time>2024-05-07T15:21:20Z</time>
      </trkpt>
      <trkpt lat="47.57987" lon="-3.0327">
        <ele>7.8</ele>
        <time>2024-05-07T15:21:21Z</time>
      </trkpt>
      <trkpt lat="47.57986" lon="-3.0327">
        <ele>7.4</ele>
        <time>2024-05-07T15:21:22Z</time>
      </trkpt>
      <trkpt lat="47.57985" lon="-3.03271">
        <ele>7.2</ele>
        <time>2024-05-07T15:21:23Z</time>
      </trkpt>
      <trkpt lat="47.57984" lon="-3.03272">
        <ele>7.2</ele>
        <time>2024-05-07T15:21:24Z</time>
      </trkpt>
      <trkpt lat="47.57983" lon="-3.03273">
        <ele>7.2</ele>
        <time>2024-05-07T15:21:25Z</time>
      </trkpt>
      <trkpt lat="47.57981" lon="-3.03274">
        <ele>7.2</ele>
        <time>2024-05-07T15:21:26Z</time>
      </trkpt>
      <trkpt lat="47.57981" lon="-3.03275">
        <ele>7</ele>
        <time>2024-05-07T15:21:27Z</time>
      </trkpt>
      <trkpt lat="47.57979" lon="-3.03275">
        <ele>7</ele>
        <time>2024-05-07T15:21:28Z</time>
      </trkpt>
      <trkpt lat="47.57978" lon="-3.03276">
        <ele>7</ele>
        <time>2024-05-07T15:21:29Z</time>
      </trkpt>
      <trkpt lat="47.57976" lon="-3.03277">
        <ele>6.8</ele>
        <time>2024-05-07T15:21:30Z</time>
      </trkpt>
      <trkpt lat="47.57975" lon="-3.03278">
        <ele>6.8</ele>
        <time>2024-05-07T15:21:31Z</time>
      </trkpt>
      <trkpt lat="47.57974" lon="-3.03278">
        <ele>6.6</ele>
        <time>2024-05-07T15:21:32Z</time>
      </trkpt>
      <trkpt lat="47.57973" lon="-3.03279">
        <ele>6.6</ele>
        <time>2024-05-07T15:21:33Z</time>
      </trkpt>
      <trkpt lat="47.57971" lon="-3.0328">
        <ele>6.4</ele>
        <time>2024-05-07T15:21:34Z</time>
      </trkpt>
      <trkpt lat="47.5797" lon="-3.03281">
        <ele>6.4</ele>
        <time>2024-05-07T15:21:35Z</time>
      </trkpt>
      <trkpt lat="47.57969" lon="-3.03282">
        <ele>6.2</ele>
        <time>2024-05-07T15:21:36Z</time>
      </trkpt>
      <trkpt lat="47.57967" lon="-3.03283">
        <ele>6.2</ele>
        <time>2024-05-07T15:21:37Z</time>
      </trkpt>
      <trkpt lat="47.57966" lon="-3.03284">
        <ele>6</ele>
        <time>2024-05-07T15:21:38Z</time>
      </trkpt>
      <trkpt lat="47.57965" lon="-3.03286">
        <ele>6</ele>
        <time>2024-05-07T15:21:39Z</time>
      </trkpt>
      <trkpt lat="47.57963" lon="-3.03287">
        <ele>5.8</ele>
        <time>2024-05-07T15:21:40Z</time>
      </trkpt>
      <trkpt lat="47.57961" lon="-3.03289">
        <ele>5.8</ele>
        <time>2024-05-07T15:21:41Z</time>
      </trkpt>
      <trkpt lat="47.5796" lon="-3.03289">
        <ele>5.6</ele>
        <time>2024-05-07T15:21:42Z</time>
      </trkpt>
      <trkpt lat="47.57958" lon="-3.0329">
        <ele>5.4</ele>
        <time>2024-05-07T15:21:43Z</time>
      </trkpt>
      <trkpt lat="47.57956" lon="-3.0329">
        <ele>5.4</ele>
        <time>2024-05-07T15:21:44Z</time>
      </trkpt>
      <trkpt lat="47.57955" lon="-3.03291">
        <ele>5.2</ele>
        <time>2024-05-07T15:21:45Z</time>
      </trkpt>
      <trkpt lat="47.57953" lon="-3.03291">
        <ele>5.2</ele>
        <time>2024-05-07T15:21:46Z</time>
      </trkpt>
      <trkpt lat="47.57952" lon="-3.03291">
        <ele>5.2</ele>
        <time>2024-05-07T15:21:47Z</time>
      </trkpt>
      <trkpt lat="47.5795" lon="-3.03293">
        <ele>5</ele>
        <time>2024-05-07T15:21:48Z</time>
      </trkpt>
      <trkpt lat="47.57949" lon="-3.03294">
        <ele>5</ele>
        <time>2024-05-07T15:21:49Z</time>
      </trkpt>
      <trkpt lat="47.57948" lon="-3.03295">
        <ele>5</ele>
        <time>2024-05-07T15:21:50Z</time>
      </trkpt>
      <trkpt lat="47.57947" lon="-3.03296">
        <ele>4.8</ele>
        <time>2024-05-07T15:21:51Z</time>
      </trkpt>
      <trkpt lat="47.57946" lon="-3.03296">
        <ele>4.8</ele>
        <time>2024-05-07T15:21:52Z</time>
      </trkpt>
      <trkpt lat="47.57945" lon="-3.03296">
        <ele>4.8</ele>
        <time>2024-05-07T15:21:53Z</time>
      </trkpt>
      <trkpt lat="47.57944" lon="-3.03297">
        <ele>4.8</ele>
        <time>2024-05-07T15:21:54Z</time>
      </trkpt>
      <trkpt lat="47.57943" lon="-3.03298">
        <ele>4.6</ele>
        <time>2024-05-07T15:21:55Z</time>
      </trkpt>
      <trkpt lat="47.57942" lon="-3.03299">
        <ele>4.6</ele>
        <time>2024-05-07T15:21:56Z</time>
      </trkpt>
      <trkpt lat="47.57941" lon="-3.033">
        <ele>4.6</ele>
        <time>2024-05-07T15:21:57Z</time>
      </trkpt>
      <trkpt lat="47.5794" lon="-3.03301">
        <ele>4.6</ele>
        <time>2024-05-07T15:21:58Z</time>
      </trkpt>
      <trkpt lat="47.57938" lon="-3.03302">
        <ele>4.6</ele>
        <time>2024-05-07T15:21:59Z</time>
      </trkpt>
      <trkpt lat="47.57937" lon="-3.03303">
        <ele>4.6</ele>
        <time>2024-05-07T15:22:00Z</time>
      </trkpt>
      <trkpt lat="47.57935" lon="-3.03303">
        <ele>4.6</ele>
        <time>2024-05-07T15:22:01Z</time>
      </trkpt>
      <trkpt lat="47.57934" lon="-3.03303">
        <ele>4.6</ele>
        <time>2024-05-07T15:22:02Z</time>
      </trkpt>
      <trkpt lat="47.57933" lon="-3.03303">
        <ele>4.6</ele>
        <time>2024-05-07T15:22:03Z</time>
      </trkpt>
      <trkpt lat="47.57932" lon="-3.03303">
        <ele>4.6</ele>
        <time>2024-05-07T15:22:04Z</time>
      </trkpt>
      <trkpt lat="47.57931" lon="-3.03304">
        <ele>4.4</ele>
        <time>2024-05-07T15:22:05Z</time>
      </trkpt>
      <trkpt lat="47.5793" lon="-3.03305">
        <ele>4.4</ele>
        <time>2024-05-07T15:22:06Z</time>
      </trkpt>
      <trkpt lat="47.57928" lon="-3.03306">
        <ele>4.4</ele>
        <time>2024-05-07T15:22:07Z</time>
      </trkpt>
      <trkpt lat="47.57927" lon="-3.03307">
        <ele>4.2</ele>
        <time>2024-05-07T15:22:08Z</time>
      </trkpt>
      <trkpt lat="47.57926" lon="-3.03308">
        <ele>4.2</ele>
        <time>2024-05-07T15:22:09Z</time>
      </trkpt>
      <trkpt lat="47.57924" lon="-3.03309">
        <ele>4.2</ele>
        <time>2024-05-07T15:22:10Z</time>
      </trkpt>
      <trkpt lat="47.57922" lon="-3.0331">
        <ele>4</ele>
        <time>2024-05-07T15:22:11Z</time>
      </trkpt>
      <trkpt lat="47.5792" lon="-3.03311">
        <ele>3.8</ele>
        <time>2024-05-07T15:22:12Z</time>
      </trkpt>
      <trkpt lat="47.57918" lon="-3.03311">
        <ele>3.8</ele>
        <time>2024-05-07T15:22:13Z</time>
      </trkpt>
      <trkpt lat="47.57917" lon="-3.03312">
        <ele>3.8</ele>
        <time>2024-05-07T15:22:14Z</time>
      </trkpt>
      <trkpt lat="47.57916" lon="-3.03312">
        <ele>3.6</ele>
        <time>2024-05-07T15:22:15Z</time>
      </trkpt>
      <trkpt lat="47.57915" lon="-3.03313">
        <ele>3.6</ele>
        <time>2024-05-07T15:22:16Z</time>
      </trkpt>
      <trkpt lat="47.57913" lon="-3.03314">
        <ele>3.6</ele>
        <time>2024-05-07T15:22:17Z</time>
      </trkpt>
      <trkpt lat="47.57912" lon="-3.03316">
        <ele>3.6</ele>
        <time>2024-05-07T15:22:18Z</time>
      </trkpt>
      <trkpt lat="47.5791" lon="-3.03317">
        <ele>3.4</ele>
        <time>2024-05-07T15:22:19Z</time>
      </trkpt>
      <trkpt lat="47.57908" lon="-3.03318">
        <ele>3.4</ele>
        <time>2024-05-07T15:22:20Z</time>
      </trkpt>
      <trkpt lat="47.57907" lon="-3.03319">
        <ele>3.2</ele>
        <time>2024-05-07T15:22:21Z</time>
      </trkpt>
      <trkpt lat="47.57906" lon="-3.03319">
        <ele>3.2</ele>
        <time>2024-05-07T15:22:22Z</time>
      </trkpt>
      <trkpt lat="47.57905" lon="-3.0332">
        <ele>3.2</ele>
        <time>2024-05-07T15:22:23Z</time>
      </trkpt>
      <trkpt lat="47.57904" lon="-3.0332">
        <ele>3.2</ele>
        <time>2024-05-07T15:22:24Z</time>
      </trkpt>
      <trkpt lat="47.57903" lon="-3.03321">
        <ele>3</ele>
        <time>2024-05-07T15:22:25Z</time>
      </trkpt>
      <trkpt lat="47.57901" lon="-3.03322">
        <ele>3</ele>
        <time>2024-05-07T15:22:26Z</time>
      </trkpt>
      <trkpt lat="47.57899" lon="-3.03324">
        <ele>3</ele>
        <time>2024-05-07T15:22:27Z</time>
      </trkpt>
      <trkpt lat="47.57898" lon="-3.03325">
        <ele>3</ele>
        <time>2024-05-07T15:22:28Z</time>
      </trkpt>
      <trkpt lat="47.57898" lon="-3.03326">
        <ele>3</ele>
        <time>2024-05-07T15:22:29Z</time>
      </trkpt>
      <trkpt lat="47.57897" lon="-3.03326">
        <ele>3</ele>
        <time>2024-05-07T15:22:30Z</time>
      </trkpt>
      <trkpt lat="47.57895" lon="-3.03327">
        <ele>2.8</ele>
        <time>2024-05-07T15:22:31Z</time>
      </trkpt>
      <trkpt lat="47.57894" lon="-3.03328">
        <ele>2.8</ele>
        <time>2024-05-07T15:22:32Z</time>
      </trkpt>
      <trkpt lat="47.57892" lon="-3.03328">
        <ele>2.8</ele>
        <time>2024-05-07T15:22:33Z</time>
      </trkpt>
      <trkpt lat="47.57891" lon="-3.03328">
        <ele>2.8</ele>
        <time>2024-05-07T15:22:34Z</time>
      </trkpt>
      <trkpt lat="47.57889" lon="-3.03329">
        <ele>2.6</ele>
        <time>2024-05-07T15:22:35Z</time>
      </trkpt>
      <trkpt lat="47.57888" lon="-3.0333">
        <ele>2.6</ele>
        <time>2024-05-07T15:22:36Z</time>
      </trkpt>
      <trkpt lat="47.57886" lon="-3.03332">
        <ele>2.6</ele>
        <time>2024-05-07T15:22:37Z</time>
      </trkpt>
      <trkpt lat="47.57884" lon="-3.03333">
        <ele>2.6</ele>
        <time>2024-05-07T15:22:38Z</time>
      </trkpt>
      <trkpt lat="47.57883" lon="-3.03333">
        <ele>2.6</ele>
        <time>2024-05-07T15:22:39Z</time>
      </trkpt>
      <trkpt lat="47.57882" lon="-3.03333">
        <ele>2.6</ele>
        <time>2024-05-07T15:22:40Z</time>
      </trkpt>
      <trkpt lat="47.57881" lon="-3.03334">
        <ele>2.6</ele>
        <time>2024-05-07T15:22:41Z</time>
      </trkpt>
      <trkpt lat="47.5788" lon="-3.03335">
        <ele>2.6</ele>
        <time>2024-05-07T15:22:42Z</time>
      </trkpt>
      <trkpt lat="47.57879" lon="-3.03334">
        <ele>2.6</ele>
        <time>2024-05-07T15:22:43Z</time>
      </trkpt>
      <trkpt lat="47.57877" lon="-3.03335">
        <ele>2.6</ele>
        <time>2024-05-07T15:22:44Z</time>
      </trkpt>
      <trkpt lat="47.57875" lon="-3.03336">
        <ele>2.6</ele>
        <time>2024-05-07T15:22:45Z</time>
      </trkpt>
      <trkpt lat="47.57873" lon="-3.03338">
        <ele>2.6</ele>
        <time>2024-05-07T15:22:46Z</time>
      </trkpt>
      <trkpt lat="47.57872" lon="-3.03338">
        <ele>2.4</ele>
        <time>2024-05-07T15:22:47Z</time>
      </trkpt>
      <trkpt lat="47.5787" lon="-3.0334">
        <ele>2.4</ele>
        <time>2024-05-07T15:22:48Z</time>
      </trkpt>
      <trkpt lat="47.57869" lon="-3.03341">
        <ele>2.4</ele>
        <time>2024-05-07T15:22:49Z</time>
      </trkpt>
      <trkpt lat="47.57868" lon="-3.03342">
        <ele>2.4</ele>
        <time>2024-05-07T15:22:50Z</time>
      </trkpt>
      <trkpt lat="47.57866" lon="-3.03343">
        <ele>2.4</ele>
        <time>2024-05-07T15:22:51Z</time>
      </trkpt>
      <trkpt lat="47.57865" lon="-3.03344">
        <ele>2.4</ele>
        <time>2024-05-07T15:22:52Z</time>
      </trkpt>
      <trkpt lat="47.57864" lon="-3.03345">
        <ele>2.2</ele>
        <time>2024-05-07T15:22:53Z</time>
      </trkpt>
      <trkpt lat="47.57863" lon="-3.03347">
        <ele>2.2</ele>
        <time>2024-05-07T15:22:54Z</time>
      </trkpt>
      <trkpt lat="47.57862" lon="-3.03349">
        <ele>2.2</ele>
        <time>2024-05-07T15:22:55Z</time>
      </trkpt>
      <trkpt lat="47.57861" lon="-3.03351">
        <ele>2.2</ele>
        <time>2024-05-07T15:22:56Z</time>
      </trkpt>
      <trkpt lat="47.5786" lon="-3.03353">
        <ele>2.2</ele>
        <time>2024-05-07T15:22:57Z</time>
      </trkpt>
      <trkpt lat="47.5786" lon="-3.03354">
        <ele>2.2</ele>
        <time>2024-05-07T15:22:58Z</time>
      </trkpt>
      <trkpt lat="47.57859" lon="-3.03355">
        <ele>2.2</ele>
        <time>2024-05-07T15:22:59Z</time>
      </trkpt>
      <trkpt lat="47.57857" lon="-3.03355">
        <ele>2.2</ele>
        <time>2024-05-07T15:23:00Z</time>
      </trkpt>
      <trkpt lat="47.57855" lon="-3.03356">
        <ele>2.2</ele>
        <time>2024-05-07T15:23:01Z</time>
      </trkpt>
      <trkpt lat="47.57854" lon="-3.03356">
        <ele>2.2</ele>
        <time>2024-05-07T15:23:02Z</time>
      </trkpt>
      <trkpt lat="47.57853" lon="-3.03357">
        <ele>2.2</ele>
        <time>2024-05-07T15:23:03Z</time>
      </trkpt>
      <trkpt lat="47.57851" lon="-3.03358">
        <ele>2.2</ele>
        <time>2024-05-07T15:23:04Z</time>
      </trkpt>
      <trkpt lat="47.5785" lon="-3.03359">
        <ele>2.2</ele>
        <time>2024-05-07T15:23:05Z</time>
      </trkpt>
      <trkpt lat="47.57848" lon="-3.0336">
        <ele>2.2</ele>
        <time>2024-05-07T15:23:06Z</time>
      </trkpt>
      <trkpt lat="47.57848" lon="-3.03361">
        <ele>2.2</ele>
        <time>2024-05-07T15:23:07Z</time>
      </trkpt>
      <trkpt lat="47.57847" lon="-3.03363">
        <ele>2</ele>
        <time>2024-05-07T15:23:08Z</time>
      </trkpt>
      <trkpt lat="47.57846" lon="-3.03364">
        <ele>2</ele>
        <time>2024-05-07T15:23:09Z</time>
      </trkpt>
      <trkpt lat="47.57845" lon="-3.03366">
        <ele>2</ele>
        <time>2024-05-07T15:23:10Z</time>
      </trkpt>
      <trkpt lat="47.57844" lon="-3.03368">
        <ele>2</ele>
        <time>2024-05-07T15:23:11Z</time>
      </trkpt>
      <trkpt lat="47.57843" lon="-3.03369">
        <ele>2</ele>
        <time>2024-05-07T15:23:12Z</time>
      </trkpt>
      <trkpt lat="47.57842" lon="-3.03371">
        <ele>2</ele>
        <time>2024-05-07T15:23:13Z</time>
      </trkpt>
      <trkpt lat="47.57842" lon="-3.03373">
        <ele>2</ele>
        <time>2024-05-07T15:23:14Z</time>
      </trkpt>
      <trkpt lat="47.5784" lon="-3.03374">
        <ele>1.8</ele>
        <time>2024-05-07T15:23:15Z</time>
      </trkpt>
      <trkpt lat="47.57839" lon="-3.03376">
        <ele>1.8</ele>
        <time>2024-05-07T15:23:16Z</time>
      </trkpt>
      <trkpt lat="47.57838" lon="-3.03377">
        <ele>1.8</ele>
        <time>2024-05-07T15:23:17Z</time>
      </trkpt>
      <trkpt lat="47.57836" lon="-3.03378">
        <ele>1.8</ele>
        <time>2024-05-07T15:23:18Z</time>
      </trkpt>
      <trkpt lat="47.57835" lon="-3.03379">
        <ele>1.8</ele>
        <time>2024-05-07T15:23:19Z</time>
      </trkpt>
      <trkpt lat="47.57835" lon="-3.03381">
        <ele>1.8</ele>
        <time>2024-05-07T15:23:20Z</time>
      </trkpt>
      <trkpt lat="47.57835" lon="-3.03382">
        <ele>1.6</ele>
        <time>2024-05-07T15:23:21Z</time>
      </trkpt>
      <trkpt lat="47.57834" lon="-3.03383">
        <ele>1.6</ele>
        <time>2024-05-07T15:23:22Z</time>
      </trkpt>
      <trkpt lat="47.57833" lon="-3.03383">
        <ele>1.6</ele>
        <time>2024-05-07T15:23:23Z</time>
      </trkpt>
      <trkpt lat="47.57831" lon="-3.03383">
        <ele>1.6</ele>
        <time>2024-05-07T15:23:24Z</time>
      </trkpt>
      <trkpt lat="47.5783" lon="-3.03385">
        <ele>1.6</ele>
        <time>2024-05-07T15:23:25Z</time>
      </trkpt>
      <trkpt lat="47.57829" lon="-3.03388">
        <ele>1.6</ele>
        <time>2024-05-07T15:23:26Z</time>
      </trkpt>
      <trkpt lat="47.57828" lon="-3.03391">
        <ele>1.6</ele>
        <time>2024-05-07T15:23:27Z</time>
      </trkpt>
      <trkpt lat="47.57827" lon="-3.03391">
        <ele>1.6</ele>
        <time>2024-05-07T15:23:28Z</time>
      </trkpt>
      <trkpt lat="47.57826" lon="-3.03392">
        <ele>1.6</ele>
        <time>2024-05-07T15:23:29Z</time>
      </trkpt>
      <trkpt lat="47.57826" lon="-3.03393">
        <ele>1.6</ele>
        <time>2024-05-07T15:23:30Z</time>
      </trkpt>
      <trkpt lat="47.57826" lon="-3.03395">
        <ele>1.6</ele>
        <time>2024-05-07T15:23:31Z</time>
      </trkpt>
      <trkpt lat="47.57825" lon="-3.03397">
        <ele>1.6</ele>
        <time>2024-05-07T15:23:32Z</time>
      </trkpt>
      <trkpt lat="47.57826" lon="-3.034">
        <ele>1.6</ele>
        <time>2024-05-07T15:23:33Z</time>
      </trkpt>
      <trkpt lat="47.57825" lon="-3.03403">
        <ele>1.6</ele>
        <time>2024-05-07T15:23:34Z</time>
      </trkpt>
      <trkpt lat="47.57824" lon="-3.03406">
        <ele>1.6</ele>
        <time>2024-05-07T15:23:35Z</time>
      </trkpt>
      <trkpt lat="47.57822" lon="-3.03409">
        <ele>1.6</ele>
        <time>2024-05-07T15:23:36Z</time>
      </trkpt>
      <trkpt lat="47.57821" lon="-3.0341">
        <ele>1.6</ele>
        <time>2024-05-07T15:23:37Z</time>
      </trkpt>
      <trkpt lat="47.5782" lon="-3.03411">
        <ele>1.6</ele>
        <time>2024-05-07T15:23:38Z</time>
      </trkpt>
      <trkpt lat="47.5782" lon="-3.03411">
        <ele>1.6</ele>
        <time>2024-05-07T15:23:39Z</time>
      </trkpt>
      <trkpt lat="47.5782" lon="-3.03412">
        <ele>1.6</ele>
        <time>2024-05-07T15:23:40Z</time>
      </trkpt>
      <trkpt lat="47.5782" lon="-3.03414">
        <ele>1.6</ele>
        <time>2024-05-07T15:23:41Z</time>
      </trkpt>
      <trkpt lat="47.57819" lon="-3.03415">
        <ele>1.6</ele>
        <time>2024-05-07T15:23:42Z</time>
      </trkpt>
      <trkpt lat="47.57818" lon="-3.03417">
        <ele>1.8</ele>
        <time>2024-05-07T15:23:43Z</time>
      </trkpt>
      <trkpt lat="47.57817" lon="-3.03419">
        <ele>1.8</ele>
        <time>2024-05-07T15:23:44Z</time>
      </trkpt>
      <trkpt lat="47.57816" lon="-3.0342">
        <ele>1.8</ele>
        <time>2024-05-07T15:23:45Z</time>
      </trkpt>
      <trkpt lat="47.57815" lon="-3.03421">
        <ele>1.8</ele>
        <time>2024-05-07T15:23:46Z</time>
      </trkpt>
      <trkpt lat="47.57814" lon="-3.03423">
        <ele>1.8</ele>
        <time>2024-05-07T15:23:47Z</time>
      </trkpt>
      <trkpt lat="47.57813" lon="-3.03424">
        <ele>1.8</ele>
        <time>2024-05-07T15:23:48Z</time>
      </trkpt>
      <trkpt lat="47.57812" lon="-3.03426">
        <ele>1.8</ele>
        <time>2024-05-07T15:23:49Z</time>
      </trkpt>
      <trkpt lat="47.57811" lon="-3.03428">
        <ele>1.8</ele>
        <time>2024-05-07T15:23:50Z</time>
      </trkpt>
      <trkpt lat="47.57811" lon="-3.03431">
        <ele>1.8</ele>
        <time>2024-05-07T15:23:51Z</time>
      </trkpt>
      <trkpt lat="47.57811" lon="-3.03433">
        <ele>1.8</ele>
        <time>2024-05-07T15:23:52Z</time>
      </trkpt>
      <trkpt lat="47.57811" lon="-3.03434">
        <ele>1.8</ele>
        <time>2024-05-07T15:23:53Z</time>
      </trkpt>
      <trkpt lat="47.57812" lon="-3.03436">
        <ele>1.8</ele>
        <time>2024-05-07T15:23:54Z</time>
      </trkpt>
      <trkpt lat="47.57811" lon="-3.03438">
        <ele>1.8</ele>
        <time>2024-05-07T15:23:55Z</time>
      </trkpt>
      <trkpt lat="47.5781" lon="-3.03439">
        <ele>1.8</ele>
        <time>2024-05-07T15:23:56Z</time>
      </trkpt>
      <trkpt lat="47.5781" lon="-3.03441">
        <ele>1.6</ele>
        <time>2024-05-07T15:23:57Z</time>
      </trkpt>
      <trkpt lat="47.57809" lon="-3.03442">
        <ele>1.6</ele>
        <time>2024-05-07T15:23:58Z</time>
      </trkpt>
      <trkpt lat="47.57809" lon="-3.03443">
        <ele>1.6</ele>
        <time>2024-05-07T15:23:59Z</time>
      </trkpt>
      <trkpt lat="47.57808" lon="-3.03445">
        <ele>1.6</ele>
        <time>2024-05-07T15:24:00Z</time>
      </trkpt>
      <trkpt lat="47.57807" lon="-3.03448">
        <ele>1.4</ele>
        <time>2024-05-07T15:24:01Z</time>
      </trkpt>
      <trkpt lat="47.57806" lon="-3.0345">
        <ele>1.4</ele>
        <time>2024-05-07T15:24:02Z</time>
      </trkpt>
      <trkpt lat="47.57806" lon="-3.03452">
        <ele>1.4</ele>
        <time>2024-05-07T15:24:03Z</time>
      </trkpt>
      <trkpt lat="47.57805" lon="-3.03454">
        <ele>1.4</ele>
        <time>2024-05-07T15:24:04Z</time>
      </trkpt>
      <trkpt lat="47.57804" lon="-3.03456">
        <ele>1.4</ele>
        <time>2024-05-07T15:24:05Z</time>
      </trkpt>
      <trkpt lat="47.57804" lon="-3.03458">
        <ele>1.4</ele>
        <time>2024-05-07T15:24:06Z</time>
      </trkpt>
      <trkpt lat="47.57803" lon="-3.0346">
        <ele>1.4</ele>
        <time>2024-05-07T15:24:07Z</time>
      </trkpt>
      <trkpt lat="47.57803" lon="-3.03462">
        <ele>1.4</ele>
        <time>2024-05-07T15:24:08Z</time>
      </trkpt>
      <trkpt lat="47.57802" lon="-3.03465">
        <ele>1.4</ele>
        <time>2024-05-07T15:24:09Z</time>
      </trkpt>
      <trkpt lat="47.57801" lon="-3.03467">
        <ele>1.4</ele>
        <time>2024-05-07T15:24:10Z</time>
      </trkpt>
      <trkpt lat="47.578" lon="-3.03468">
        <ele>1.6</ele>
        <time>2024-05-07T15:24:11Z</time>
      </trkpt>
      <trkpt lat="47.57799" lon="-3.03469">
        <ele>1.6</ele>
        <time>2024-05-07T15:24:12Z</time>
      </trkpt>
      <trkpt lat="47.57799" lon="-3.0347">
        <ele>1.6</ele>
        <time>2024-05-07T15:24:13Z</time>
      </trkpt>
      <trkpt lat="47.57799" lon="-3.03472">
        <ele>1.6</ele>
        <time>2024-05-07T15:24:14Z</time>
      </trkpt>
      <trkpt lat="47.57798" lon="-3.03474">
        <ele>1.6</ele>
        <time>2024-05-07T15:24:15Z</time>
      </trkpt>
      <trkpt lat="47.57798" lon="-3.03476">
        <ele>1.6</ele>
        <time>2024-05-07T15:24:16Z</time>
      </trkpt>
      <trkpt lat="47.57797" lon="-3.03478">
        <ele>1.6</ele>
        <time>2024-05-07T15:24:17Z</time>
      </trkpt>
      <trkpt lat="47.57797" lon="-3.0348">
        <ele>1.8</ele>
        <time>2024-05-07T15:24:18Z</time>
      </trkpt>
      <trkpt lat="47.57797" lon="-3.03482">
        <ele>2</ele>
        <time>2024-05-07T15:24:19Z</time>
      </trkpt>
      <trkpt lat="47.57796" lon="-3.03484">
        <ele>2</ele>
        <time>2024-05-07T15:24:20Z</time>
      </trkpt>
      <trkpt lat="47.57796" lon="-3.03486">
        <ele>2</ele>
        <time>2024-05-07T15:24:21Z</time>
      </trkpt>
      <trkpt lat="47.57796" lon="-3.03488">
        <ele>2</ele>
        <time>2024-05-07T15:24:22Z</time>
      </trkpt>
      <trkpt lat="47.57796" lon="-3.03491">
        <ele>2</ele>
        <time>2024-05-07T15:24:23Z</time>
      </trkpt>
      <trkpt lat="47.57795" lon="-3.03493">
        <ele>2</ele>
        <time>2024-05-07T15:24:24Z</time>
      </trkpt>
      <trkpt lat="47.57795" lon="-3.03495">
        <ele>2</ele>
        <time>2024-05-07T15:24:25Z</time>
      </trkpt>
      <trkpt lat="47.57794" lon="-3.03497">
        <ele>2</ele>
        <time>2024-05-07T15:24:26Z</time>
      </trkpt>
      <trkpt lat="47.57794" lon="-3.03498">
        <ele>2</ele>
        <time>2024-05-07T15:24:27Z</time>
      </trkpt>
      <trkpt lat="47.57793" lon="-3.035">
        <ele>2</ele>
        <time>2024-05-07T15:24:28Z</time>
      </trkpt>
      <trkpt lat="47.57791" lon="-3.03501">
        <ele>2</ele>
        <time>2024-05-07T15:24:29Z</time>
      </trkpt>
      <trkpt lat="47.57791" lon="-3.03503">
        <ele>2</ele>
        <time>2024-05-07T15:24:30Z</time>
      </trkpt>
      <trkpt lat="47.5779" lon="-3.03505">
        <ele>2</ele>
        <time>2024-05-07T15:24:31Z</time>
      </trkpt>
      <trkpt lat="47.5779" lon="-3.03507">
        <ele>2</ele>
        <time>2024-05-07T15:24:32Z</time>
      </trkpt>
      <trkpt lat="47.57789" lon="-3.0351">
        <ele>2</ele>
        <time>2024-05-07T15:24:33Z</time>
      </trkpt>
      <trkpt lat="47.57789" lon="-3.03512">
        <ele>2</ele>
        <time>2024-05-07T15:24:34Z</time>
      </trkpt>
      <trkpt lat="47.5779" lon="-3.03515">
        <ele>2</ele>
        <time>2024-05-07T15:24:35Z</time>
      </trkpt>
      <trkpt lat="47.5779" lon="-3.03517">
        <ele>2</ele>
        <time>2024-05-07T15:24:36Z</time>
      </trkpt>
      <trkpt lat="47.5779" lon="-3.03519">
        <ele>2</ele>
        <time>2024-05-07T15:24:37Z</time>
      </trkpt>
      <trkpt lat="47.5779" lon="-3.03521">
        <ele>2</ele>
        <time>2024-05-07T15:24:38Z</time>
      </trkpt>
      <trkpt lat="47.5779" lon="-3.03523">
        <ele>2</ele>
        <time>2024-05-07T15:24:39Z</time>
      </trkpt>
      <trkpt lat="47.5779" lon="-3.03525">
        <ele>2</ele>
        <time>2024-05-07T15:24:40Z</time>
      </trkpt>
      <trkpt lat="47.5779" lon="-3.03527">
        <ele>2</ele>
        <time>2024-05-07T15:24:41Z</time>
      </trkpt>
      <trkpt lat="47.57789" lon="-3.03528">
        <ele>2</ele>
        <time>2024-05-07T15:24:42Z</time>
      </trkpt>
      <trkpt lat="47.57789" lon="-3.0353">
        <ele>2</ele>
        <time>2024-05-07T15:24:43Z</time>
      </trkpt>
      <trkpt lat="47.57788" lon="-3.03531">
        <ele>1.8</ele>
        <time>2024-05-07T15:24:44Z</time>
      </trkpt>
      <trkpt lat="47.57788" lon="-3.03533">
        <ele>1.8</ele>
        <time>2024-05-07T15:24:45Z</time>
      </trkpt>
      <trkpt lat="47.57788" lon="-3.03535">
        <ele>1.8</ele>
        <time>2024-05-07T15:24:46Z</time>
      </trkpt>
      <trkpt lat="47.57788" lon="-3.03537">
        <ele>1.8</ele>
        <time>2024-05-07T15:24:47Z</time>
      </trkpt>
      <trkpt lat="47.57788" lon="-3.03539">
        <ele>1.8</ele>
        <time>2024-05-07T15:24:48Z</time>
      </trkpt>
      <trkpt lat="47.57787" lon="-3.0354">
        <ele>1.8</ele>
        <time>2024-05-07T15:24:49Z</time>
      </trkpt>
      <trkpt lat="47.57787" lon="-3.03542">
        <ele>1.8</ele>
        <time>2024-05-07T15:24:50Z</time>
      </trkpt>
      <trkpt lat="47.57786" lon="-3.03544">
        <ele>1.8</ele>
        <time>2024-05-07T15:24:51Z</time>
      </trkpt>
      <trkpt lat="47.57786" lon="-3.03547">
        <ele>1.8</ele>
        <time>2024-05-07T15:24:52Z</time>
      </trkpt>
      <trkpt lat="47.57786" lon="-3.0355">
        <ele>1.8</ele>
        <time>2024-05-07T15:24:53Z</time>
      </trkpt>
      <trkpt lat="47.57785" lon="-3.03553">
        <ele>1.8</ele>
        <time>2024-05-07T15:24:54Z</time>
      </trkpt>
      <trkpt lat="47.57784" lon="-3.03556">
        <ele>1.8</ele>
        <time>2024-05-07T15:24:55Z</time>
      </trkpt>
      <trkpt lat="47.57784" lon="-3.03558">
        <ele>1.8</ele>
        <time>2024-05-07T15:24:56Z</time>
      </trkpt>
      <trkpt lat="47.57783" lon="-3.03561">
        <ele>1.8</ele>
        <time>2024-05-07T15:24:57Z</time>
      </trkpt>
      <trkpt lat="47.57784" lon="-3.03564">
        <ele>1.6</ele>
        <time>2024-05-07T15:24:58Z</time>
      </trkpt>
      <trkpt lat="47.57785" lon="-3.03567">
        <ele>1.6</ele>
        <time>2024-05-07T15:24:59Z</time>
      </trkpt>
      <trkpt lat="47.57785" lon="-3.03569">
        <ele>1.6</ele>
        <time>2024-05-07T15:25:00Z</time>
      </trkpt>
      <trkpt lat="47.57785" lon="-3.0357">
        <ele>1.6</ele>
        <time>2024-05-07T15:25:01Z</time>
      </trkpt>
      <trkpt lat="47.57785" lon="-3.03572">
        <ele>1.6</ele>
        <time>2024-05-07T15:25:02Z</time>
      </trkpt>
      <trkpt lat="47.57786" lon="-3.03574">
        <ele>1.6</ele>
        <time>2024-05-07T15:25:03Z</time>
      </trkpt>
      <trkpt lat="47.57786" lon="-3.03576">
        <ele>1.6</ele>
        <time>2024-05-07T15:25:04Z</time>
      </trkpt>
      <trkpt lat="47.57787" lon="-3.03579">
        <ele>1.6</ele>
        <time>2024-05-07T15:25:05Z</time>
      </trkpt>
      <trkpt lat="47.57788" lon="-3.03581">
        <ele>1.6</ele>
        <time>2024-05-07T15:25:06Z</time>
      </trkpt>
      <trkpt lat="47.57788" lon="-3.03583">
        <ele>1.6</ele>
        <time>2024-05-07T15:25:07Z</time>
      </trkpt>
      <trkpt lat="47.57789" lon="-3.03584">
        <ele>1.6</ele>
        <time>2024-05-07T15:25:08Z</time>
      </trkpt>
      <trkpt lat="47.57789" lon="-3.03585">
        <ele>1.6</ele>
        <time>2024-05-07T15:25:09Z</time>
      </trkpt>
      <trkpt lat="47.57787" lon="-3.03587">
        <ele>1.6</ele>
        <time>2024-05-07T15:25:10Z</time>
      </trkpt>
      <trkpt lat="47.57787" lon="-3.0359">
        <ele>1.4</ele>
        <time>2024-05-07T15:25:11Z</time>
      </trkpt>
      <trkpt lat="47.57786" lon="-3.03594">
        <ele>1.4</ele>
        <time>2024-05-07T15:25:12Z</time>
      </trkpt>
      <trkpt lat="47.57785" lon="-3.03596">
        <ele>1.4</ele>
        <time>2024-05-07T15:25:13Z</time>
      </trkpt>
      <trkpt lat="47.57786" lon="-3.03598">
        <ele>1.4</ele>
        <time>2024-05-07T15:25:14Z</time>
      </trkpt>
      <trkpt lat="47.57786" lon="-3.03597">
        <ele>1.4</ele>
        <time>2024-05-07T15:25:15Z</time>
      </trkpt>
      <trkpt lat="47.57786" lon="-3.03599">
        <ele>1.6</ele>
        <time>2024-05-07T15:25:16Z</time>
      </trkpt>
      <trkpt lat="47.57787" lon="-3.036">
        <ele>1.6</ele>
        <time>2024-05-07T15:25:17Z</time>
      </trkpt>
      <trkpt lat="47.57787" lon="-3.03603">
        <ele>1.6</ele>
        <time>2024-05-07T15:25:18Z</time>
      </trkpt>
      <trkpt lat="47.57787" lon="-3.03605">
        <ele>1.6</ele>
        <time>2024-05-07T15:25:19Z</time>
      </trkpt>
      <trkpt lat="47.57787" lon="-3.03606">
        <ele>1.8</ele>
        <time>2024-05-07T15:25:20Z</time>
      </trkpt>
      <trkpt lat="47.57787" lon="-3.03607">
        <ele>1.8</ele>
        <time>2024-05-07T15:25:21Z</time>
      </trkpt>
      <trkpt lat="47.57788" lon="-3.03609">
        <ele>1.8</ele>
        <time>2024-05-07T15:25:22Z</time>
      </trkpt>
      <trkpt lat="47.57788" lon="-3.03611">
        <ele>1.8</ele>
        <time>2024-05-07T15:25:23Z</time>
      </trkpt>
      <trkpt lat="47.57789" lon="-3.03612">
        <ele>1.8</ele>
        <time>2024-05-07T15:25:24Z</time>
      </trkpt>
      <trkpt lat="47.5779" lon="-3.03614">
        <ele>1.8</ele>
        <time>2024-05-07T15:25:25Z</time>
      </trkpt>
      <trkpt lat="47.5779" lon="-3.03617">
        <ele>1.8</ele>
        <time>2024-05-07T15:25:26Z</time>
      </trkpt>
      <trkpt lat="47.57791" lon="-3.03619">
        <ele>1.8</ele>
        <time>2024-05-07T15:25:27Z</time>
      </trkpt>
      <trkpt lat="47.57792" lon="-3.03621">
        <ele>1.8</ele>
        <time>2024-05-07T15:25:28Z</time>
      </trkpt>
      <trkpt lat="47.57792" lon="-3.03623">
        <ele>1.8</ele>
        <time>2024-05-07T15:25:29Z</time>
      </trkpt>
      <trkpt lat="47.57793" lon="-3.03625">
        <ele>1.6</ele>
        <time>2024-05-07T15:25:30Z</time>
      </trkpt>
      <trkpt lat="47.57794" lon="-3.03628">
        <ele>1.6</ele>
        <time>2024-05-07T15:25:31Z</time>
      </trkpt>
      <trkpt lat="47.57794" lon="-3.03629">
        <ele>1.6</ele>
        <time>2024-05-07T15:25:32Z</time>
      </trkpt>
      <trkpt lat="47.57794" lon="-3.03631">
        <ele>1.4</ele>
        <time>2024-05-07T15:25:33Z</time>
      </trkpt>
      <trkpt lat="47.57795" lon="-3.03633">
        <ele>1.4</ele>
        <time>2024-05-07T15:25:34Z</time>
      </trkpt>
      <trkpt lat="47.57795" lon="-3.03636">
        <ele>1.4</ele>
        <time>2024-05-07T15:25:35Z</time>
      </trkpt>
      <trkpt lat="47.57796" lon="-3.03637">
        <ele>1.4</ele>
        <time>2024-05-07T15:25:36Z</time>
      </trkpt>
      <trkpt lat="47.57796" lon="-3.0364">
        <ele>1.4</ele>
        <time>2024-05-07T15:25:37Z</time>
      </trkpt>
      <trkpt lat="47.57797" lon="-3.03641">
        <ele>1.4</ele>
        <time>2024-05-07T15:25:38Z</time>
      </trkpt>
      <trkpt lat="47.57797" lon="-3.03643">
        <ele>1.4</ele>
        <time>2024-05-07T15:25:39Z</time>
      </trkpt>
      <trkpt lat="47.57797" lon="-3.03643">
        <ele>1.4</ele>
        <time>2024-05-07T15:25:40Z</time>
      </trkpt>
      <trkpt lat="47.57798" lon="-3.03645">
        <ele>1.6</ele>
        <time>2024-05-07T15:25:41Z</time>
      </trkpt>
      <trkpt lat="47.57798" lon="-3.03647">
        <ele>1.6</ele>
        <time>2024-05-07T15:25:42Z</time>
      </trkpt>
      <trkpt lat="47.57798" lon="-3.03649">
        <ele>1.6</ele>
        <time>2024-05-07T15:25:43Z</time>
      </trkpt>
      <trkpt lat="47.57799" lon="-3.0365">
        <ele>1.6</ele>
        <time>2024-05-07T15:25:44Z</time>
      </trkpt>
      <trkpt lat="47.57799" lon="-3.03652">
        <ele>1.6</ele>
        <time>2024-05-07T15:25:45Z</time>
      </trkpt>
      <trkpt lat="47.57799" lon="-3.03653">
        <ele>1.8</ele>
        <time>2024-05-07T15:25:46Z</time>
      </trkpt>
      <trkpt lat="47.57799" lon="-3.03654">
        <ele>1.8</ele>
        <time>2024-05-07T15:25:47Z</time>
      </trkpt>
      <trkpt lat="47.57799" lon="-3.03654">
        <ele>1.8</ele>
        <time>2024-05-07T15:25:48Z</time>
      </trkpt>
      <trkpt lat="47.57799" lon="-3.03655">
        <ele>1.8</ele>
        <time>2024-05-07T15:25:49Z</time>
      </trkpt>
      <trkpt lat="47.57799" lon="-3.03655">
        <ele>1.8</ele>
        <time>2024-05-07T15:25:50Z</time>
      </trkpt>
      <trkpt lat="47.57799" lon="-3.03654">
        <ele>1.8</ele>
        <time>2024-05-07T15:25:51Z</time>
      </trkpt>
      <trkpt lat="47.57799" lon="-3.03654">
        <ele>1.8</ele>
        <time>2024-05-07T15:25:52Z</time>
      </trkpt>
      <trkpt lat="47.57799" lon="-3.03655">
        <ele>1.8</ele>
        <time>2024-05-07T15:25:53Z</time>
      </trkpt>
      <trkpt lat="47.57798" lon="-3.03657">
        <ele>1.6</ele>
        <time>2024-05-07T15:25:54Z</time>
      </trkpt>
      <trkpt lat="47.57798" lon="-3.03658">
        <ele>1.6</ele>
        <time>2024-05-07T15:25:55Z</time>
      </trkpt>
      <trkpt lat="47.57797" lon="-3.03658">
        <ele>1.4</ele>
        <time>2024-05-07T15:25:56Z</time>
      </trkpt>
      <trkpt lat="47.57796" lon="-3.03659">
        <ele>1.4</ele>
        <time>2024-05-07T15:25:57Z</time>
      </trkpt>
      <trkpt lat="47.57794" lon="-3.0366">
        <ele>1.4</ele>
        <time>2024-05-07T15:25:58Z</time>
      </trkpt>
      <trkpt lat="47.57793" lon="-3.03659">
        <ele>1.4</ele>
        <time>2024-05-07T15:25:59Z</time>
      </trkpt>
      <trkpt lat="47.57792" lon="-3.03659">
        <ele>1.4</ele>
        <time>2024-05-07T15:26:00Z</time>
      </trkpt>
      <trkpt lat="47.57791" lon="-3.03659">
        <ele>1.4</ele>
        <time>2024-05-07T15:26:01Z</time>
      </trkpt>
      <trkpt lat="47.57791" lon="-3.0366">
        <ele>1.4</ele>
        <time>2024-05-07T15:26:02Z</time>
      </trkpt>
      <trkpt lat="47.57791" lon="-3.0366">
        <ele>1.4</ele>
        <time>2024-05-07T15:26:03Z</time>
      </trkpt>
      <trkpt lat="47.57791" lon="-3.03662">
        <ele>1.4</ele>
        <time>2024-05-07T15:26:04Z</time>
      </trkpt>
      <trkpt lat="47.5779" lon="-3.03663">
        <ele>1.4</ele>
        <time>2024-05-07T15:26:05Z</time>
      </trkpt>
      <trkpt lat="47.57789" lon="-3.03664">
        <ele>1.8</ele>
        <time>2024-05-07T15:26:06Z</time>
      </trkpt>
      <trkpt lat="47.5779" lon="-3.03665">
        <ele>1.4</ele>
        <time>2024-05-07T15:26:07Z</time>
      </trkpt>
      <trkpt lat="47.57791" lon="-3.03665">
        <ele>1.4</ele>
        <time>2024-05-07T15:26:08Z</time>
      </trkpt>
      <trkpt lat="47.57792" lon="-3.03666">
        <ele>1.4</ele>
        <time>2024-05-07T15:26:09Z</time>
      </trkpt>
      <trkpt lat="47.57793" lon="-3.03667">
        <ele>1.6</ele>
        <time>2024-05-07T15:26:10Z</time>
      </trkpt>
      <trkpt lat="47.57793" lon="-3.03669">
        <ele>1.6</ele>
        <time>2024-05-07T15:26:11Z</time>
      </trkpt>
      <trkpt lat="47.57794" lon="-3.0367">
        <ele>1.6</ele>
        <time>2024-05-07T15:26:12Z</time>
      </trkpt>
      <trkpt lat="47.57795" lon="-3.03672">
        <ele>1.6</ele>
        <time>2024-05-07T15:26:13Z</time>
      </trkpt>
      <trkpt lat="47.57796" lon="-3.03673">
        <ele>1.6</ele>
        <time>2024-05-07T15:26:14Z</time>
      </trkpt>
      <trkpt lat="47.57797" lon="-3.03675">
        <ele>1.4</ele>
        <time>2024-05-07T15:26:15Z</time>
      </trkpt>
      <trkpt lat="47.57797" lon="-3.03676">
        <ele>1.4</ele>
        <time>2024-05-07T15:26:16Z</time>
      </trkpt>
      <trkpt lat="47.57798" lon="-3.03678">
        <ele>1.6</ele>
        <time>2024-05-07T15:26:17Z</time>
      </trkpt>
      <trkpt lat="47.57798" lon="-3.0368">
        <ele>1.8</ele>
        <time>2024-05-07T15:26:18Z</time>
      </trkpt>
      <trkpt lat="47.57799" lon="-3.03682">
        <ele>1.8</ele>
        <time>2024-05-07T15:26:19Z</time>
      </trkpt>
      <trkpt lat="47.578" lon="-3.03684">
        <ele>1.6</ele>
        <time>2024-05-07T15:26:20Z</time>
      </trkpt>
      <trkpt lat="47.578" lon="-3.03686">
        <ele>1.8</ele>
        <time>2024-05-07T15:26:21Z</time>
      </trkpt>
      <trkpt lat="47.57801" lon="-3.03688">
        <ele>1.8</ele>
        <time>2024-05-07T15:26:22Z</time>
      </trkpt>
      <trkpt lat="47.57802" lon="-3.0369">
        <ele>1.8</ele>
        <time>2024-05-07T15:26:23Z</time>
      </trkpt>
      <trkpt lat="47.57802" lon="-3.03691">
        <ele>1.8</ele>
        <time>2024-05-07T15:26:24Z</time>
      </trkpt>
      <trkpt lat="47.57802" lon="-3.03693">
        <ele>1.8</ele>
        <time>2024-05-07T15:26:25Z</time>
      </trkpt>
      <trkpt lat="47.57802" lon="-3.03695">
        <ele>1.8</ele>
        <time>2024-05-07T15:26:26Z</time>
      </trkpt>
      <trkpt lat="47.57803" lon="-3.03696">
        <ele>1.8</ele>
        <time>2024-05-07T15:26:27Z</time>
      </trkpt>
      <trkpt lat="47.57803" lon="-3.03697">
        <ele>1.8</ele>
        <time>2024-05-07T15:26:28Z</time>
      </trkpt>
      <trkpt lat="47.57804" lon="-3.03699">
        <ele>1.8</ele>
        <time>2024-05-07T15:26:29Z</time>
      </trkpt>
      <trkpt lat="47.57804" lon="-3.03702">
        <ele>1.8</ele>
        <time>2024-05-07T15:26:30Z</time>
      </trkpt>
      <trkpt lat="47.57805" lon="-3.03705">
        <ele>1.8</ele>
        <time>2024-05-07T15:26:31Z</time>
      </trkpt>
      <trkpt lat="47.57805" lon="-3.03708">
        <ele>1.8</ele>
        <time>2024-05-07T15:26:32Z</time>
      </trkpt>
      <trkpt lat="47.57806" lon="-3.0371">
        <ele>1.6</ele>
        <time>2024-05-07T15:26:33Z</time>
      </trkpt>
      <trkpt lat="47.57807" lon="-3.03712">
        <ele>1.6</ele>
        <time>2024-05-07T15:26:34Z</time>
      </trkpt>
      <trkpt lat="47.57807" lon="-3.03714">
        <ele>1.4</ele>
        <time>2024-05-07T15:26:35Z</time>
      </trkpt>
      <trkpt lat="47.57808" lon="-3.03716">
        <ele>1.4</ele>
        <time>2024-05-07T15:26:36Z</time>
      </trkpt>
      <trkpt lat="47.57808" lon="-3.03718">
        <ele>1.4</ele>
        <time>2024-05-07T15:26:37Z</time>
      </trkpt>
      <trkpt lat="47.5781" lon="-3.03719">
        <ele>1.4</ele>
        <time>2024-05-07T15:26:38Z</time>
      </trkpt>
      <trkpt lat="47.57811" lon="-3.0372">
        <ele>1.4</ele>
        <time>2024-05-07T15:26:39Z</time>
      </trkpt>
      <trkpt lat="47.57811" lon="-3.03723">
        <ele>1.4</ele>
        <time>2024-05-07T15:26:40Z</time>
      </trkpt>
      <trkpt lat="47.57812" lon="-3.03725">
        <ele>1.4</ele>
        <time>2024-05-07T15:26:41Z</time>
      </trkpt>
      <trkpt lat="47.57813" lon="-3.03727">
        <ele>1.6</ele>
        <time>2024-05-07T15:26:42Z</time>
      </trkpt>
      <trkpt lat="47.57814" lon="-3.03729">
        <ele>1.6</ele>
        <time>2024-05-07T15:26:43Z</time>
      </trkpt>
      <trkpt lat="47.57815" lon="-3.03731">
        <ele>1.6</ele>
        <time>2024-05-07T15:26:44Z</time>
      </trkpt>
      <trkpt lat="47.57815" lon="-3.03733">
        <ele>1.6</ele>
        <time>2024-05-07T15:26:45Z</time>
      </trkpt>
      <trkpt lat="47.57816" lon="-3.03735">
        <ele>1.6</ele>
        <time>2024-05-07T15:26:46Z</time>
      </trkpt>
      <trkpt lat="47.57817" lon="-3.03736">
        <ele>1.6</ele>
        <time>2024-05-07T15:26:47Z</time>
      </trkpt>
      <trkpt lat="47.57817" lon="-3.03738">
        <ele>1.6</ele>
        <time>2024-05-07T15:26:48Z</time>
      </trkpt>
      <trkpt lat="47.57818" lon="-3.0374">
        <ele>1.4</ele>
        <time>2024-05-07T15:26:49Z</time>
      </trkpt>
      <trkpt lat="47.57818" lon="-3.03742">
        <ele>1.4</ele>
        <time>2024-05-07T15:26:50Z</time>
      </trkpt>
      <trkpt lat="47.57819" lon="-3.03743">
        <ele>1.4</ele>
        <time>2024-05-07T15:26:51Z</time>
      </trkpt>
      <trkpt lat="47.5782" lon="-3.03745">
        <ele>1.4</ele>
        <time>2024-05-07T15:26:52Z</time>
      </trkpt>
      <trkpt lat="47.57821" lon="-3.03746">
        <ele>1.4</ele>
        <time>2024-05-07T15:26:53Z</time>
      </trkpt>
      <trkpt lat="47.57822" lon="-3.03748">
        <ele>1.4</ele>
        <time>2024-05-07T15:26:54Z</time>
      </trkpt>
      <trkpt lat="47.57823" lon="-3.03749">
        <ele>1.6</ele>
        <time>2024-05-07T15:26:55Z</time>
      </trkpt>
      <trkpt lat="47.57823" lon="-3.03751">
        <ele>1.6</ele>
        <time>2024-05-07T15:26:56Z</time>
      </trkpt>
      <trkpt lat="47.57824" lon="-3.03752">
        <ele>1.4</ele>
        <time>2024-05-07T15:26:57Z</time>
      </trkpt>
      <trkpt lat="47.57824" lon="-3.03754">
        <ele>1.6</ele>
        <time>2024-05-07T15:26:58Z</time>
      </trkpt>
      <trkpt lat="47.57825" lon="-3.03756">
        <ele>1.6</ele>
        <time>2024-05-07T15:26:59Z</time>
      </trkpt>
      <trkpt lat="47.57824" lon="-3.03759">
        <ele>1.6</ele>
        <time>2024-05-07T15:27:00Z</time>
      </trkpt>
      <trkpt lat="47.57824" lon="-3.03761">
        <ele>1.6</ele>
        <time>2024-05-07T15:27:01Z</time>
      </trkpt>
      <trkpt lat="47.57825" lon="-3.03764">
        <ele>1.6</ele>
        <time>2024-05-07T15:27:02Z</time>
      </trkpt>
      <trkpt lat="47.57825" lon="-3.03767">
        <ele>1.6</ele>
        <time>2024-05-07T15:27:03Z</time>
      </trkpt>
      <trkpt lat="47.57827" lon="-3.03769">
        <ele>1.6</ele>
        <time>2024-05-07T15:27:04Z</time>
      </trkpt>
      <trkpt lat="47.57828" lon="-3.03771">
        <ele>1.6</ele>
        <time>2024-05-07T15:27:05Z</time>
      </trkpt>
      <trkpt lat="47.57829" lon="-3.03772">
        <ele>1.6</ele>
        <time>2024-05-07T15:27:06Z</time>
      </trkpt>
      <trkpt lat="47.5783" lon="-3.03774">
        <ele>1.6</ele>
        <time>2024-05-07T15:27:07Z</time>
      </trkpt>
      <trkpt lat="47.57831" lon="-3.03775">
        <ele>1.6</ele>
        <time>2024-05-07T15:27:08Z</time>
      </trkpt>
      <trkpt lat="47.57831" lon="-3.03776">
        <ele>1.6</ele>
        <time>2024-05-07T15:27:09Z</time>
      </trkpt>
      <trkpt lat="47.57831" lon="-3.03778">
        <ele>1.6</ele>
        <time>2024-05-07T15:27:10Z</time>
      </trkpt>
      <trkpt lat="47.57832" lon="-3.03779">
        <ele>1.6</ele>
        <time>2024-05-07T15:27:11Z</time>
      </trkpt>
      <trkpt lat="47.57832" lon="-3.0378">
        <ele>1.6</ele>
        <time>2024-05-07T15:27:12Z</time>
      </trkpt>
      <trkpt lat="47.57832" lon="-3.03782">
        <ele>1.6</ele>
        <time>2024-05-07T15:27:13Z</time>
      </trkpt>
      <trkpt lat="47.57832" lon="-3.03784">
        <ele>1.6</ele>
        <time>2024-05-07T15:27:14Z</time>
      </trkpt>
      <trkpt lat="47.57832" lon="-3.03786">
        <ele>1.6</ele>
        <time>2024-05-07T15:27:15Z</time>
      </trkpt>
      <trkpt lat="47.57832" lon="-3.03786">
        <ele>1.6</ele>
        <time>2024-05-07T15:27:16Z</time>
      </trkpt>
      <trkpt lat="47.57833" lon="-3.03788">
        <ele>1.6</ele>
        <time>2024-05-07T15:27:17Z</time>
      </trkpt>
      <trkpt lat="47.57833" lon="-3.03789">
        <ele>1.6</ele>
        <time>2024-05-07T15:27:18Z</time>
      </trkpt>
      <trkpt lat="47.57833" lon="-3.03791">
        <ele>1.6</ele>
        <time>2024-05-07T15:27:19Z</time>
      </trkpt>
      <trkpt lat="47.57833" lon="-3.03794">
        <ele>1.6</ele>
        <time>2024-05-07T15:27:20Z</time>
      </trkpt>
      <trkpt lat="47.57834" lon="-3.03796">
        <ele>1.6</ele>
        <time>2024-05-07T15:27:21Z</time>
      </trkpt>
      <trkpt lat="47.57835" lon="-3.03798">
        <ele>1.6</ele>
        <time>2024-05-07T15:27:22Z</time>
      </trkpt>
      <trkpt lat="47.57835" lon="-3.03801">
        <ele>1.6</ele>
        <time>2024-05-07T15:27:23Z</time>
      </trkpt>
      <trkpt lat="47.57836" lon="-3.03803">
        <ele>1.6</ele>
        <time>2024-05-07T15:27:24Z</time>
      </trkpt>
      <trkpt lat="47.57835" lon="-3.03806">
        <ele>1.6</ele>
        <time>2024-05-07T15:27:25Z</time>
      </trkpt>
      <trkpt lat="47.57835" lon="-3.03808">
        <ele>1.6</ele>
        <time>2024-05-07T15:27:26Z</time>
      </trkpt>
      <trkpt lat="47.57834" lon="-3.0381">
        <ele>1.6</ele>
        <time>2024-05-07T15:27:27Z</time>
      </trkpt>
      <trkpt lat="47.57835" lon="-3.03811">
        <ele>1.6</ele>
        <time>2024-05-07T15:27:28Z</time>
      </trkpt>
      <trkpt lat="47.57835" lon="-3.03813">
        <ele>1.4</ele>
        <time>2024-05-07T15:27:29Z</time>
      </trkpt>
      <trkpt lat="47.57835" lon="-3.03814">
        <ele>1.4</ele>
        <time>2024-05-07T15:27:30Z</time>
      </trkpt>
      <trkpt lat="47.57836" lon="-3.03816">
        <ele>1.4</ele>
        <time>2024-05-07T15:27:31Z</time>
      </trkpt>
      <trkpt lat="47.57837" lon="-3.03818">
        <ele>1.4</ele>
        <time>2024-05-07T15:27:32Z</time>
      </trkpt>
      <trkpt lat="47.57838" lon="-3.0382">
        <ele>1.4</ele>
        <time>2024-05-07T15:27:33Z</time>
      </trkpt>
      <trkpt lat="47.57838" lon="-3.03821">
        <ele>1.6</ele>
        <time>2024-05-07T15:27:34Z</time>
      </trkpt>
      <trkpt lat="47.57838" lon="-3.03823">
        <ele>1.6</ele>
        <time>2024-05-07T15:27:35Z</time>
      </trkpt>
      <trkpt lat="47.57839" lon="-3.03823">
        <ele>1.8</ele>
        <time>2024-05-07T15:27:36Z</time>
      </trkpt>
      <trkpt lat="47.57839" lon="-3.03825">
        <ele>1.8</ele>
        <time>2024-05-07T15:27:37Z</time>
      </trkpt>
      <trkpt lat="47.5784" lon="-3.03826">
        <ele>1.8</ele>
        <time>2024-05-07T15:27:38Z</time>
      </trkpt>
      <trkpt lat="47.5784" lon="-3.03827">
        <ele>1.8</ele>
        <time>2024-05-07T15:27:39Z</time>
      </trkpt>
      <trkpt lat="47.57841" lon="-3.03829">
        <ele>1.8</ele>
        <time>2024-05-07T15:27:40Z</time>
      </trkpt>
      <trkpt lat="47.57841" lon="-3.0383">
        <ele>1.8</ele>
        <time>2024-05-07T15:27:41Z</time>
      </trkpt>
      <trkpt lat="47.57842" lon="-3.03832">
        <ele>1.8</ele>
        <time>2024-05-07T15:27:42Z</time>
      </trkpt>
      <trkpt lat="47.57842" lon="-3.03833">
        <ele>1.8</ele>
        <time>2024-05-07T15:27:43Z</time>
      </trkpt>
      <trkpt lat="47.57842" lon="-3.03835">
        <ele>1.8</ele>
        <time>2024-05-07T15:27:44Z</time>
      </trkpt>
      <trkpt lat="47.57844" lon="-3.03837">
        <ele>1.8</ele>
        <time>2024-05-07T15:27:45Z</time>
      </trkpt>
      <trkpt lat="47.57845" lon="-3.0384">
        <ele>1.8</ele>
        <time>2024-05-07T15:27:46Z</time>
      </trkpt>
      <trkpt lat="47.57846" lon="-3.03842">
        <ele>1.8</ele>
        <time>2024-05-07T15:27:47Z</time>
      </trkpt>
      <trkpt lat="47.57847" lon="-3.03843">
        <ele>1.8</ele>
        <time>2024-05-07T15:27:48Z</time>
      </trkpt>
      <trkpt lat="47.57847" lon="-3.03843">
        <ele>1.8</ele>
        <time>2024-05-07T15:27:49Z</time>
      </trkpt>
      <trkpt lat="47.57847" lon="-3.03844">
        <ele>1.8</ele>
        <time>2024-05-07T15:27:50Z</time>
      </trkpt>
      <trkpt lat="47.57847" lon="-3.03845">
        <ele>1.8</ele>
        <time>2024-05-07T15:27:51Z</time>
      </trkpt>
      <trkpt lat="47.57847" lon="-3.03847">
        <ele>2</ele>
        <time>2024-05-07T15:27:52Z</time>
      </trkpt>
      <trkpt lat="47.57847" lon="-3.03849">
        <ele>2</ele>
        <time>2024-05-07T15:27:53Z</time>
      </trkpt>
      <trkpt lat="47.57848" lon="-3.0385">
        <ele>2</ele>
        <time>2024-05-07T15:27:54Z</time>
      </trkpt>
      <trkpt lat="47.57849" lon="-3.03851">
        <ele>2</ele>
        <time>2024-05-07T15:27:55Z</time>
      </trkpt>
      <trkpt lat="47.5785" lon="-3.03853">
        <ele>2</ele>
        <time>2024-05-07T15:27:56Z</time>
      </trkpt>
      <trkpt lat="47.57851" lon="-3.03854">
        <ele>2</ele>
        <time>2024-05-07T15:27:57Z</time>
      </trkpt>
      <trkpt lat="47.57853" lon="-3.03855">
        <ele>2</ele>
        <time>2024-05-07T15:27:58Z</time>
      </trkpt>
      <trkpt lat="47.57855" lon="-3.03857">
        <ele>2</ele>
        <time>2024-05-07T15:27:59Z</time>
      </trkpt>
      <trkpt lat="47.57857" lon="-3.03859">
        <ele>2</ele>
        <time>2024-05-07T15:28:00Z</time>
      </trkpt>
      <trkpt lat="47.57859" lon="-3.0386">
        <ele>2</ele>
        <time>2024-05-07T15:28:01Z</time>
      </trkpt>
      <trkpt lat="47.5786" lon="-3.03861">
        <ele>2</ele>
        <time>2024-05-07T15:28:02Z</time>
      </trkpt>
      <trkpt lat="47.57861" lon="-3.03863">
        <ele>2</ele>
        <time>2024-05-07T15:28:03Z</time>
      </trkpt>
      <trkpt lat="47.57862" lon="-3.03865">
        <ele>2</ele>
        <time>2024-05-07T15:28:04Z</time>
      </trkpt>
      <trkpt lat="47.57862" lon="-3.03866">
        <ele>2</ele>
        <time>2024-05-07T15:28:05Z</time>
      </trkpt>
      <trkpt lat="47.57863" lon="-3.03867">
        <ele>2</ele>
        <time>2024-05-07T15:28:06Z</time>
      </trkpt>
      <trkpt lat="47.57863" lon="-3.03868">
        <ele>1.8</ele>
        <time>2024-05-07T15:28:07Z</time>
      </trkpt>
      <trkpt lat="47.57864" lon="-3.0387">
        <ele>1.8</ele>
        <time>2024-05-07T15:28:08Z</time>
      </trkpt>
      <trkpt lat="47.57864" lon="-3.03871">
        <ele>1.8</ele>
        <time>2024-05-07T15:28:09Z</time>
      </trkpt>
      <trkpt lat="47.57865" lon="-3.03873">
        <ele>1.8</ele>
        <time>2024-05-07T15:28:10Z</time>
      </trkpt>
      <trkpt lat="47.57865" lon="-3.03874">
        <ele>1.8</ele>
        <time>2024-05-07T15:28:11Z</time>
      </trkpt>
      <trkpt lat="47.57865" lon="-3.03876">
        <ele>1.8</ele>
        <time>2024-05-07T15:28:12Z</time>
      </trkpt>
      <trkpt lat="47.57866" lon="-3.03878">
        <ele>1.8</ele>
        <time>2024-05-07T15:28:13Z</time>
      </trkpt>
      <trkpt lat="47.57866" lon="-3.0388">
        <ele>1.8</ele>
        <time>2024-05-07T15:28:14Z</time>
      </trkpt>
      <trkpt lat="47.57867" lon="-3.03882">
        <ele>1.6</ele>
        <time>2024-05-07T15:28:15Z</time>
      </trkpt>
      <trkpt lat="47.57867" lon="-3.03884">
        <ele>1.6</ele>
        <time>2024-05-07T15:28:16Z</time>
      </trkpt>
      <trkpt lat="47.57869" lon="-3.03886">
        <ele>1.6</ele>
        <time>2024-05-07T15:28:17Z</time>
      </trkpt>
      <trkpt lat="47.5787" lon="-3.03888">
        <ele>1.6</ele>
        <time>2024-05-07T15:28:18Z</time>
      </trkpt>
      <trkpt lat="47.57871" lon="-3.0389">
        <ele>1.6</ele>
        <time>2024-05-07T15:28:19Z</time>
      </trkpt>
      <trkpt lat="47.57872" lon="-3.03892">
        <ele>1.6</ele>
        <time>2024-05-07T15:28:20Z</time>
      </trkpt>
      <trkpt lat="47.57873" lon="-3.03894">
        <ele>1.6</ele>
        <time>2024-05-07T15:28:21Z</time>
      </trkpt>
      <trkpt lat="47.57873" lon="-3.03896">
        <ele>1.6</ele>
        <time>2024-05-07T15:28:22Z</time>
      </trkpt>
      <trkpt lat="47.57873" lon="-3.03898">
        <ele>1.6</ele>
        <time>2024-05-07T15:28:23Z</time>
      </trkpt>
      <trkpt lat="47.57873" lon="-3.03899">
        <ele>1.6</ele>
        <time>2024-05-07T15:28:24Z</time>
      </trkpt>
      <trkpt lat="47.57874" lon="-3.03901">
        <ele>1.6</ele>
        <time>2024-05-07T15:28:25Z</time>
      </trkpt>
      <trkpt lat="47.57874" lon="-3.03902">
        <ele>1.6</ele>
        <time>2024-05-07T15:28:26Z</time>
      </trkpt>
      <trkpt lat="47.57875" lon="-3.03905">
        <ele>1.6</ele>
        <time>2024-05-07T15:28:27Z</time>
      </trkpt>
      <trkpt lat="47.57876" lon="-3.03907">
        <ele>1.4</ele>
        <time>2024-05-07T15:28:28Z</time>
      </trkpt>
      <trkpt lat="47.57877" lon="-3.03909">
        <ele>1.4</ele>
        <time>2024-05-07T15:28:29Z</time>
      </trkpt>
      <trkpt lat="47.57878" lon="-3.0391">
        <ele>1.4</ele>
        <time>2024-05-07T15:28:30Z</time>
      </trkpt>
      <trkpt lat="47.57878" lon="-3.03913">
        <ele>1.4</ele>
        <time>2024-05-07T15:28:31Z</time>
      </trkpt>
      <trkpt lat="47.57878" lon="-3.03915">
        <ele>1.4</ele>
        <time>2024-05-07T15:28:32Z</time>
      </trkpt>
      <trkpt lat="47.57879" lon="-3.03917">
        <ele>1.4</ele>
        <time>2024-05-07T15:28:33Z</time>
      </trkpt>
      <trkpt lat="47.57879" lon="-3.03918">
        <ele>1.4</ele>
        <time>2024-05-07T15:28:34Z</time>
      </trkpt>
      <trkpt lat="47.5788" lon="-3.03921">
        <ele>1.4</ele>
        <time>2024-05-07T15:28:35Z</time>
      </trkpt>
      <trkpt lat="47.5788" lon="-3.03923">
        <ele>1.4</ele>
        <time>2024-05-07T15:28:36Z</time>
      </trkpt>
      <trkpt lat="47.57881" lon="-3.03925">
        <ele>1.4</ele>
        <time>2024-05-07T15:28:37Z</time>
      </trkpt>
      <trkpt lat="47.57882" lon="-3.03927">
        <ele>1.4</ele>
        <time>2024-05-07T15:28:38Z</time>
      </trkpt>
      <trkpt lat="47.57883" lon="-3.03929">
        <ele>1.4</ele>
        <time>2024-05-07T15:28:39Z</time>
      </trkpt>
      <trkpt lat="47.57883" lon="-3.03931">
        <ele>1.4</ele>
        <time>2024-05-07T15:28:40Z</time>
      </trkpt>
      <trkpt lat="47.57884" lon="-3.03932">
        <ele>1.4</ele>
        <time>2024-05-07T15:28:41Z</time>
      </trkpt>
      <trkpt lat="47.57884" lon="-3.03934">
        <ele>1.4</ele>
        <time>2024-05-07T15:28:42Z</time>
      </trkpt>
      <trkpt lat="47.57885" lon="-3.03936">
        <ele>1.4</ele>
        <time>2024-05-07T15:28:43Z</time>
      </trkpt>
      <trkpt lat="47.57886" lon="-3.03938">
        <ele>1.4</ele>
        <time>2024-05-07T15:28:44Z</time>
      </trkpt>
      <trkpt lat="47.57886" lon="-3.03939">
        <ele>1.4</ele>
        <time>2024-05-07T15:28:45Z</time>
      </trkpt>
      <trkpt lat="47.57886" lon="-3.03941">
        <ele>1.4</ele>
        <time>2024-05-07T15:28:46Z</time>
      </trkpt>
      <trkpt lat="47.57886" lon="-3.03942">
        <ele>1.6</ele>
        <time>2024-05-07T15:28:47Z</time>
      </trkpt>
      <trkpt lat="47.57887" lon="-3.03944">
        <ele>1.6</ele>
        <time>2024-05-07T15:28:48Z</time>
      </trkpt>
      <trkpt lat="47.57887" lon="-3.03945">
        <ele>1.6</ele>
        <time>2024-05-07T15:28:49Z</time>
      </trkpt>
      <trkpt lat="47.57888" lon="-3.03946">
        <ele>1.8</ele>
        <time>2024-05-07T15:28:50Z</time>
      </trkpt>
      <trkpt lat="47.57888" lon="-3.03948">
        <ele>1.8</ele>
        <time>2024-05-07T15:28:51Z</time>
      </trkpt>
      <trkpt lat="47.57889" lon="-3.0395">
        <ele>1.8</ele>
        <time>2024-05-07T15:28:52Z</time>
      </trkpt>
      <trkpt lat="47.5789" lon="-3.03952">
        <ele>1.8</ele>
        <time>2024-05-07T15:28:53Z</time>
      </trkpt>
      <trkpt lat="47.5789" lon="-3.03954">
        <ele>1.8</ele>
        <time>2024-05-07T15:28:54Z</time>
      </trkpt>
      <trkpt lat="47.57891" lon="-3.03956">
        <ele>1.8</ele>
        <time>2024-05-07T15:28:55Z</time>
      </trkpt>
      <trkpt lat="47.57891" lon="-3.03958">
        <ele>1.8</ele>
        <time>2024-05-07T15:28:56Z</time>
      </trkpt>
      <trkpt lat="47.57891" lon="-3.0396">
        <ele>1.8</ele>
        <time>2024-05-07T15:28:57Z</time>
      </trkpt>
      <trkpt lat="47.57892" lon="-3.03961">
        <ele>1.8</ele>
        <time>2024-05-07T15:28:58Z</time>
      </trkpt>
      <trkpt lat="47.57893" lon="-3.03963">
        <ele>1.8</ele>
        <time>2024-05-07T15:28:59Z</time>
      </trkpt>
      <trkpt lat="47.57893" lon="-3.03964">
        <ele>1.8</ele>
        <time>2024-05-07T15:29:00Z</time>
      </trkpt>
      <trkpt lat="47.57894" lon="-3.03966">
        <ele>1.6</ele>
        <time>2024-05-07T15:29:01Z</time>
      </trkpt>
      <trkpt lat="47.57895" lon="-3.03967">
        <ele>1.6</ele>
        <time>2024-05-07T15:29:02Z</time>
      </trkpt>
      <trkpt lat="47.57895" lon="-3.03969">
        <ele>1.6</ele>
        <time>2024-05-07T15:29:03Z</time>
      </trkpt>
      <trkpt lat="47.57895" lon="-3.0397">
        <ele>1.6</ele>
        <time>2024-05-07T15:29:04Z</time>
      </trkpt>
      <trkpt lat="47.57895" lon="-3.03971">
        <ele>1.6</ele>
        <time>2024-05-07T15:29:05Z</time>
      </trkpt>
      <trkpt lat="47.57896" lon="-3.03973">
        <ele>1.6</ele>
        <time>2024-05-07T15:29:06Z</time>
      </trkpt>
      <trkpt lat="47.57897" lon="-3.03975">
        <ele>1.4</ele>
        <time>2024-05-07T15:29:07Z</time>
      </trkpt>
      <trkpt lat="47.57898" lon="-3.03978">
        <ele>1.4</ele>
        <time>2024-05-07T15:29:08Z</time>
      </trkpt>
      <trkpt lat="47.57898" lon="-3.0398">
        <ele>1.4</ele>
        <time>2024-05-07T15:29:09Z</time>
      </trkpt>
      <trkpt lat="47.57899" lon="-3.03982">
        <ele>1.4</ele>
        <time>2024-05-07T15:29:10Z</time>
      </trkpt>
      <trkpt lat="47.579" lon="-3.03984">
        <ele>1.4</ele>
        <time>2024-05-07T15:29:11Z</time>
      </trkpt>
      <trkpt lat="47.57902" lon="-3.03986">
        <ele>1.4</ele>
        <time>2024-05-07T15:29:12Z</time>
      </trkpt>
      <trkpt lat="47.57903" lon="-3.03988">
        <ele>1.4</ele>
        <time>2024-05-07T15:29:13Z</time>
      </trkpt>
      <trkpt lat="47.57904" lon="-3.0399">
        <ele>1.4</ele>
        <time>2024-05-07T15:29:14Z</time>
      </trkpt>
      <trkpt lat="47.57905" lon="-3.03992">
        <ele>1.4</ele>
        <time>2024-05-07T15:29:15Z</time>
      </trkpt>
      <trkpt lat="47.57905" lon="-3.03995">
        <ele>1.4</ele>
        <time>2024-05-07T15:29:16Z</time>
      </trkpt>
      <trkpt lat="47.57906" lon="-3.03997">
        <ele>1.4</ele>
        <time>2024-05-07T15:29:17Z</time>
      </trkpt>
      <trkpt lat="47.57907" lon="-3.03999">
        <ele>1.4</ele>
        <time>2024-05-07T15:29:18Z</time>
      </trkpt>
      <trkpt lat="47.57908" lon="-3.04001">
        <ele>1.4</ele>
        <time>2024-05-07T15:29:19Z</time>
      </trkpt>
      <trkpt lat="47.57908" lon="-3.04003">
        <ele>1.4</ele>
        <time>2024-05-07T15:29:20Z</time>
      </trkpt>
      <trkpt lat="47.57909" lon="-3.04004">
        <ele>1.4</ele>
        <time>2024-05-07T15:29:21Z</time>
      </trkpt>
      <trkpt lat="47.57909" lon="-3.04005">
        <ele>1.2</ele>
        <time>2024-05-07T15:29:22Z</time>
      </trkpt>
      <trkpt lat="47.5791" lon="-3.04007">
        <ele>1.2</ele>
        <time>2024-05-07T15:29:23Z</time>
      </trkpt>
      <trkpt lat="47.57911" lon="-3.04008">
        <ele>1.2</ele>
        <time>2024-05-07T15:29:24Z</time>
      </trkpt>
      <trkpt lat="47.57911" lon="-3.04009">
        <ele>1.2</ele>
        <time>2024-05-07T15:29:25Z</time>
      </trkpt>
      <trkpt lat="47.57912" lon="-3.04011">
        <ele>1.6</ele>
        <time>2024-05-07T15:29:26Z</time>
      </trkpt>
      <trkpt lat="47.57912" lon="-3.04012">
        <ele>1.6</ele>
        <time>2024-05-07T15:29:27Z</time>
      </trkpt>
      <trkpt lat="47.57913" lon="-3.04014">
        <ele>1.6</ele>
        <time>2024-05-07T15:29:28Z</time>
      </trkpt>
      <trkpt lat="47.57913" lon="-3.04016">
        <ele>1.6</ele>
        <time>2024-05-07T15:29:29Z</time>
      </trkpt>
      <trkpt lat="47.57913" lon="-3.04018">
        <ele>1.6</ele>
        <time>2024-05-07T15:29:30Z</time>
      </trkpt>
      <trkpt lat="47.57914" lon="-3.04019">
        <ele>1.6</ele>
        <time>2024-05-07T15:29:31Z</time>
      </trkpt>
      <trkpt lat="47.57914" lon="-3.04021">
        <ele>1.8</ele>
        <time>2024-05-07T15:29:32Z</time>
      </trkpt>
      <trkpt lat="47.57914" lon="-3.04023">
        <ele>2</ele>
        <time>2024-05-07T15:29:33Z</time>
      </trkpt>
      <trkpt lat="47.57915" lon="-3.04025">
        <ele>2</ele>
        <time>2024-05-07T15:29:34Z</time>
      </trkpt>
      <trkpt lat="47.57915" lon="-3.04026">
        <ele>2</ele>
        <time>2024-05-07T15:29:35Z</time>
      </trkpt>
      <trkpt lat="47.57916" lon="-3.04028">
        <ele>2</ele>
        <time>2024-05-07T15:29:36Z</time>
      </trkpt>
      <trkpt lat="47.57916" lon="-3.0403">
        <ele>2</ele>
        <time>2024-05-07T15:29:37Z</time>
      </trkpt>
      <trkpt lat="47.57917" lon="-3.04032">
        <ele>2</ele>
        <time>2024-05-07T15:29:38Z</time>
      </trkpt>
      <trkpt lat="47.57918" lon="-3.04033">
        <ele>2</ele>
        <time>2024-05-07T15:29:39Z</time>
      </trkpt>
      <trkpt lat="47.57918" lon="-3.04035">
        <ele>2</ele>
        <time>2024-05-07T15:29:40Z</time>
      </trkpt>
      <trkpt lat="47.57919" lon="-3.04037">
        <ele>2</ele>
        <time>2024-05-07T15:29:41Z</time>
      </trkpt>
      <trkpt lat="47.5792" lon="-3.04038">
        <ele>2</ele>
        <time>2024-05-07T15:29:42Z</time>
      </trkpt>
      <trkpt lat="47.57921" lon="-3.0404">
        <ele>2</ele>
        <time>2024-05-07T15:29:43Z</time>
      </trkpt>
      <trkpt lat="47.57921" lon="-3.04042">
        <ele>2</ele>
        <time>2024-05-07T15:29:44Z</time>
      </trkpt>
      <trkpt lat="47.57922" lon="-3.04044">
        <ele>1.8</ele>
        <time>2024-05-07T15:29:45Z</time>
      </trkpt>
      <trkpt lat="47.57923" lon="-3.04045">
        <ele>1.8</ele>
        <time>2024-05-07T15:29:46Z</time>
      </trkpt>
      <trkpt lat="47.57924" lon="-3.04048">
        <ele>1.6</ele>
        <time>2024-05-07T15:29:47Z</time>
      </trkpt>
      <trkpt lat="47.57925" lon="-3.0405">
        <ele>1.6</ele>
        <time>2024-05-07T15:29:48Z</time>
      </trkpt>
      <trkpt lat="47.57926" lon="-3.04052">
        <ele>1.4</ele>
        <time>2024-05-07T15:29:49Z</time>
      </trkpt>
      <trkpt lat="47.57926" lon="-3.04054">
        <ele>1.4</ele>
        <time>2024-05-07T15:29:50Z</time>
      </trkpt>
      <trkpt lat="47.57926" lon="-3.04056">
        <ele>1.4</ele>
        <time>2024-05-07T15:29:51Z</time>
      </trkpt>
      <trkpt lat="47.57926" lon="-3.04058">
        <ele>1.4</ele>
        <time>2024-05-07T15:29:52Z</time>
      </trkpt>
      <trkpt lat="47.57927" lon="-3.04059">
        <ele>1.4</ele>
        <time>2024-05-07T15:29:53Z</time>
      </trkpt>
      <trkpt lat="47.57927" lon="-3.04061">
        <ele>1.4</ele>
        <time>2024-05-07T15:29:54Z</time>
      </trkpt>
      <trkpt lat="47.57927" lon="-3.04063">
        <ele>1.4</ele>
        <time>2024-05-07T15:29:55Z</time>
      </trkpt>
      <trkpt lat="47.57928" lon="-3.04065">
        <ele>1.4</ele>
        <time>2024-05-07T15:29:56Z</time>
      </trkpt>
      <trkpt lat="47.57928" lon="-3.04067">
        <ele>1.2</ele>
        <time>2024-05-07T15:29:57Z</time>
      </trkpt>
      <trkpt lat="47.57929" lon="-3.04068">
        <ele>1.2</ele>
        <time>2024-05-07T15:29:58Z</time>
      </trkpt>
      <trkpt lat="47.5793" lon="-3.0407">
        <ele>1.2</ele>
        <time>2024-05-07T15:29:59Z</time>
      </trkpt>
      <trkpt lat="47.5793" lon="-3.04072">
        <ele>1.2</ele>
        <time>2024-05-07T15:30:00Z</time>
      </trkpt>
      <trkpt lat="47.5793" lon="-3.04074">
        <ele>1.4</ele>
        <time>2024-05-07T15:30:01Z</time>
      </trkpt>
      <trkpt lat="47.57931" lon="-3.04075">
        <ele>1.4</ele>
        <time>2024-05-07T15:30:02Z</time>
      </trkpt>
      <trkpt lat="47.57931" lon="-3.04077">
        <ele>1.4</ele>
        <time>2024-05-07T15:30:03Z</time>
      </trkpt>
      <trkpt lat="47.57932" lon="-3.04079">
        <ele>1.4</ele>
        <time>2024-05-07T15:30:04Z</time>
      </trkpt>
      <trkpt lat="47.57932" lon="-3.04081">
        <ele>1.4</ele>
        <time>2024-05-07T15:30:05Z</time>
      </trkpt>
      <trkpt lat="47.57932" lon="-3.04083">
        <ele>1.4</ele>
        <time>2024-05-07T15:30:06Z</time>
      </trkpt>
      <trkpt lat="47.57933" lon="-3.04084">
        <ele>1.4</ele>
        <time>2024-05-07T15:30:07Z</time>
      </trkpt>
      <trkpt lat="47.57933" lon="-3.04086">
        <ele>1.4</ele>
        <time>2024-05-07T15:30:08Z</time>
      </trkpt>
      <trkpt lat="47.57933" lon="-3.04088">
        <ele>1.4</ele>
        <time>2024-05-07T15:30:09Z</time>
      </trkpt>
      <trkpt lat="47.57933" lon="-3.0409">
        <ele>1.4</ele>
        <time>2024-05-07T15:30:10Z</time>
      </trkpt>
      <trkpt lat="47.57933" lon="-3.04092">
        <ele>1.4</ele>
        <time>2024-05-07T15:30:11Z</time>
      </trkpt>
      <trkpt lat="47.57933" lon="-3.04094">
        <ele>1.4</ele>
        <time>2024-05-07T15:30:12Z</time>
      </trkpt>
      <trkpt lat="47.57933" lon="-3.04096">
        <ele>1.4</ele>
        <time>2024-05-07T15:30:13Z</time>
      </trkpt>
      <trkpt lat="47.57934" lon="-3.04098">
        <ele>1.4</ele>
        <time>2024-05-07T15:30:14Z</time>
      </trkpt>
      <trkpt lat="47.57934" lon="-3.041">
        <ele>1.4</ele>
        <time>2024-05-07T15:30:15Z</time>
      </trkpt>
      <trkpt lat="47.57935" lon="-3.04102">
        <ele>1.4</ele>
        <time>2024-05-07T15:30:16Z</time>
      </trkpt>
      <trkpt lat="47.57935" lon="-3.04104">
        <ele>1.4</ele>
        <time>2024-05-07T15:30:17Z</time>
      </trkpt>
      <trkpt lat="47.57935" lon="-3.04105">
        <ele>1.4</ele>
        <time>2024-05-07T15:30:18Z</time>
      </trkpt>
      <trkpt lat="47.57935" lon="-3.04106">
        <ele>1.4</ele>
        <time>2024-05-07T15:30:19Z</time>
      </trkpt>
      <trkpt lat="47.57935" lon="-3.04107">
        <ele>1.4</ele>
        <time>2024-05-07T15:30:20Z</time>
      </trkpt>
      <trkpt lat="47.57935" lon="-3.04108">
        <ele>1.4</ele>
        <time>2024-05-07T15:30:21Z</time>
      </trkpt>
      <trkpt lat="47.57935" lon="-3.04108">
        <ele>1.4</ele>
        <time>2024-05-07T15:30:22Z</time>
      </trkpt>
      <trkpt lat="47.57935" lon="-3.04108">
        <ele>1.4</ele>
        <time>2024-05-07T15:30:23Z</time>
      </trkpt>
      <trkpt lat="47.57935" lon="-3.04108">
        <ele>1.6</ele>
        <time>2024-05-07T15:30:24Z</time>
      </trkpt>
      <trkpt lat="47.57935" lon="-3.04108">
        <ele>1.6</ele>
        <time>2024-05-07T15:30:25Z</time>
      </trkpt>
      <trkpt lat="47.57935" lon="-3.04108">
        <ele>1.6</ele>
        <time>2024-05-07T15:30:26Z</time>
      </trkpt>
      <trkpt lat="47.57936" lon="-3.04107">
        <ele>1.6</ele>
        <time>2024-05-07T15:30:27Z</time>
      </trkpt>
      <trkpt lat="47.57936" lon="-3.04107">
        <ele>1.8</ele>
        <time>2024-05-07T15:30:28Z</time>
      </trkpt>
      <trkpt lat="47.57936" lon="-3.04106">
        <ele>1.8</ele>
        <time>2024-05-07T15:30:29Z</time>
      </trkpt>
      <trkpt lat="47.57936" lon="-3.04106">
        <ele>2</ele>
        <time>2024-05-07T15:30:30Z</time>
      </trkpt>
      <trkpt lat="47.57936" lon="-3.04106">
        <ele>2</ele>
        <time>2024-05-07T15:30:31Z</time>
      </trkpt>
      <trkpt lat="47.57936" lon="-3.04106">
        <ele>2</ele>
        <time>2024-05-07T15:30:32Z</time>
      </trkpt>
      <trkpt lat="47.57936" lon="-3.04106">
        <ele>2.2</ele>
        <time>2024-05-07T15:30:33Z</time>
      </trkpt>
      <trkpt lat="47.57936" lon="-3.04106">
        <ele>2.2</ele>
        <time>2024-05-07T15:30:34Z</time>
      </trkpt>
      <trkpt lat="47.57936" lon="-3.04106">
        <ele>2.6</ele>
        <time>2024-05-07T15:30:35Z</time>
      </trkpt>
      <trkpt lat="47.57936" lon="-3.04106">
        <ele>2.4</ele>
        <time>2024-05-07T15:30:36Z</time>
      </trkpt>
      <trkpt lat="47.57936" lon="-3.04106">
        <ele>2.4</ele>
        <time>2024-05-07T15:30:37Z</time>
      </trkpt>
      <trkpt lat="47.57936" lon="-3.04106">
        <ele>2.4</ele>
        <time>2024-05-07T15:30:38Z</time>
      </trkpt>
      <trkpt lat="47.57936" lon="-3.04106">
        <ele>2.4</ele>
        <time>2024-05-07T15:30:39Z</time>
      </trkpt>
      <trkpt lat="47.57936" lon="-3.04106">
        <ele>2.6</ele>
        <time>2024-05-07T15:30:40Z</time>
      </trkpt>
      <trkpt lat="47.57936" lon="-3.04106">
        <ele>2.6</ele>
        <time>2024-05-07T15:30:41Z</time>
      </trkpt>
      <trkpt lat="47.57936" lon="-3.04106">
        <ele>2.6</ele>
        <time>2024-05-07T15:30:42Z</time>
      </trkpt>
      <trkpt lat="47.57936" lon="-3.04106">
        <ele>2.6</ele>
        <time>2024-05-07T15:30:43Z</time>
      </trkpt>
      <trkpt lat="47.57936" lon="-3.04106">
        <ele>2.6</ele>
        <time>2024-05-07T15:30:44Z</time>
      </trkpt>
      <trkpt lat="47.57936" lon="-3.04106">
        <ele>2.4</ele>
        <time>2024-05-07T15:30:45Z</time>
      </trkpt>
      <trkpt lat="47.57936" lon="-3.04106">
        <ele>2.4</ele>
        <time>2024-05-07T15:30:46Z</time>
      </trkpt>
      <trkpt lat="47.57936" lon="-3.04106">
        <ele>2.4</ele>
        <time>2024-05-07T15:30:47Z</time>
      </trkpt>
      <trkpt lat="47.57936" lon="-3.04106">
        <ele>2.2</ele>
        <time>2024-05-07T15:30:48Z</time>
      </trkpt>
      <trkpt lat="47.57936" lon="-3.04107">
        <ele>2.2</ele>
        <time>2024-05-07T15:30:49Z</time>
      </trkpt>
      <trkpt lat="47.57936" lon="-3.04107">
        <ele>1.8</ele>
        <time>2024-05-07T15:30:50Z</time>
      </trkpt>
      <trkpt lat="47.57936" lon="-3.04107">
        <ele>1.8</ele>
        <time>2024-05-07T15:30:51Z</time>
      </trkpt>
      <trkpt lat="47.57936" lon="-3.04107">
        <ele>1.6</ele>
        <time>2024-05-07T15:30:52Z</time>
      </trkpt>
      <trkpt lat="47.57936" lon="-3.04107">
        <ele>1.6</ele>
        <time>2024-05-07T15:30:53Z</time>
      </trkpt>
      <trkpt lat="47.57936" lon="-3.04107">
        <ele>1.6</ele>
        <time>2024-05-07T15:30:54Z</time>
      </trkpt>
      <trkpt lat="47.57936" lon="-3.04106">
        <ele>1.4</ele>
        <time>2024-05-07T15:30:55Z</time>
      </trkpt>
      <trkpt lat="47.57936" lon="-3.04106">
        <ele>1.4</ele>
        <time>2024-05-07T15:30:56Z</time>
      </trkpt>
      <trkpt lat="47.57936" lon="-3.04106">
        <ele>1.4</ele>
        <time>2024-05-07T15:30:57Z</time>
      </trkpt>
      <trkpt lat="47.57936" lon="-3.04106">
        <ele>1.4</ele>
        <time>2024-05-07T15:30:58Z</time>
      </trkpt>
      <trkpt lat="47.57936" lon="-3.04106">
        <ele>1.4</ele>
        <time>2024-05-07T15:30:59Z</time>
      </trkpt>
      <trkpt lat="47.57936" lon="-3.04106">
        <ele>1.4</ele>
        <time>2024-05-07T15:31:00Z</time>
      </trkpt>
      <trkpt lat="47.57936" lon="-3.04106">
        <ele>1.4</ele>
        <time>2024-05-07T15:31:01Z</time>
      </trkpt>
      <trkpt lat="47.57936" lon="-3.04106">
        <ele>1.4</ele>
        <time>2024-05-07T15:31:02Z</time>
      </trkpt>
      <trkpt lat="47.57936" lon="-3.04106">
        <ele>1.4</ele>
        <time>2024-05-07T15:31:03Z</time>
      </trkpt>
      <trkpt lat="47.57936" lon="-3.04106">
        <ele>1.4</ele>
        <time>2024-05-07T15:31:04Z</time>
      </trkpt>
      <trkpt lat="47.57936" lon="-3.04106">
        <ele>1.4</ele>
        <time>2024-05-07T15:31:05Z</time>
      </trkpt>
      <trkpt lat="47.57936" lon="-3.04106">
        <ele>1.4</ele>
        <time>2024-05-07T15:31:06Z</time>
      </trkpt>
      <trkpt lat="47.57936" lon="-3.04106">
        <ele>1.4</ele>
        <time>2024-05-07T15:31:07Z</time>
      </trkpt>
      <trkpt lat="47.57936" lon="-3.04106">
        <ele>1.4</ele>
        <time>2024-05-07T15:31:08Z</time>
      </trkpt>
      <trkpt lat="47.57936" lon="-3.04106">
        <ele>1.2</ele>
        <time>2024-05-07T15:31:09Z</time>
      </trkpt>
      <trkpt lat="47.57936" lon="-3.04106">
        <ele>1.2</ele>
        <time>2024-05-07T15:31:10Z</time>
      </trkpt>
      <trkpt lat="47.57936" lon="-3.04106">
        <ele>1.2</ele>
        <time>2024-05-07T15:31:11Z</time>
      </trkpt>
      <trkpt lat="47.57936" lon="-3.04106">
        <ele>1</ele>
        <time>2024-05-07T15:31:12Z</time>
      </trkpt>
      <trkpt lat="47.57936" lon="-3.04106">
        <ele>0.8</ele>
        <time>2024-05-07T15:31:13Z</time>
      </trkpt>
      <trkpt lat="47.57936" lon="-3.04106">
        <ele>0.8</ele>
        <time>2024-05-07T15:31:14Z</time>
      </trkpt>
      <trkpt lat="47.57936" lon="-3.04106">
        <ele>0.8</ele>
        <time>2024-05-07T15:31:15Z</time>
      </trkpt>
      <trkpt lat="47.57936" lon="-3.04106">
        <ele>0.8</ele>
        <time>2024-05-07T15:31:16Z</time>
      </trkpt>
      <trkpt lat="47.57937" lon="-3.04106">
        <ele>0.8</ele>
        <time>2024-05-07T15:31:17Z</time>
      </trkpt>
      <trkpt lat="47.57937" lon="-3.04106">
        <ele>0.8</ele>
        <time>2024-05-07T15:31:18Z</time>
      </trkpt>
      <trkpt lat="47.57937" lon="-3.04106">
        <ele>0.8</ele>
        <time>2024-05-07T15:31:19Z</time>
      </trkpt>
      <trkpt lat="47.57937" lon="-3.04106">
        <ele>0.8</ele>
        <time>2024-05-07T15:31:20Z</time>
      </trkpt>
      <trkpt lat="47.57937" lon="-3.04106">
        <ele>0.8</ele>
        <time>2024-05-07T15:31:21Z</time>
      </trkpt>
      <trkpt lat="47.57937" lon="-3.04106">
        <ele>0.8</ele>
        <time>2024-05-07T15:31:22Z</time>
      </trkpt>
      <trkpt lat="47.57937" lon="-3.04106">
        <ele>0.8</ele>
        <time>2024-05-07T15:31:23Z</time>
      </trkpt>
      <trkpt lat="47.57937" lon="-3.04106">
        <ele>0.8</ele>
        <time>2024-05-07T15:31:24Z</time>
      </trkpt>
      <trkpt lat="47.57937" lon="-3.04106">
        <ele>1</ele>
        <time>2024-05-07T15:31:25Z</time>
      </trkpt>
      <trkpt lat="47.57937" lon="-3.04106">
        <ele>1</ele>
        <time>2024-05-07T15:31:26Z</time>
      </trkpt>
      <trkpt lat="47.57937" lon="-3.04106">
        <ele>1</ele>
        <time>2024-05-07T15:31:27Z</time>
      </trkpt>
      <trkpt lat="47.57937" lon="-3.04106">
        <ele>1</ele>
        <time>2024-05-07T15:31:28Z</time>
      </trkpt>
      <trkpt lat="47.57937" lon="-3.04106">
        <ele>1</ele>
        <time>2024-05-07T15:31:29Z</time>
      </trkpt>
      <trkpt lat="47.57937" lon="-3.04106">
        <ele>1</ele>
        <time>2024-05-07T15:31:30Z</time>
      </trkpt>
      <trkpt lat="47.57937" lon="-3.04106">
        <ele>1</ele>
        <time>2024-05-07T15:31:31Z</time>
      </trkpt>
      <trkpt lat="47.57937" lon="-3.04106">
        <ele>1.2</ele>
        <time>2024-05-07T15:31:32Z</time>
      </trkpt>
      <trkpt lat="47.57937" lon="-3.04106">
        <ele>1.2</ele>
        <time>2024-05-07T15:31:33Z</time>
      </trkpt>
      <trkpt lat="47.57937" lon="-3.04106">
        <ele>1.2</ele>
        <time>2024-05-07T15:31:34Z</time>
      </trkpt>
      <trkpt lat="47.57937" lon="-3.04106">
        <ele>1.2</ele>
        <time>2024-05-07T15:31:35Z</time>
      </trkpt>
      <trkpt lat="47.57937" lon="-3.04106">
        <ele>1.2</ele>
        <time>2024-05-07T15:31:36Z</time>
      </trkpt>
      <trkpt lat="47.57937" lon="-3.04106">
        <ele>1.2</ele>
        <time>2024-05-07T15:31:37Z</time>
      </trkpt>
      <trkpt lat="47.57937" lon="-3.04106">
        <ele>1.2</ele>
        <time>2024-05-07T15:31:38Z</time>
      </trkpt>
      <trkpt lat="47.57937" lon="-3.04106">
        <ele>1.2</ele>
        <time>2024-05-07T15:31:39Z</time>
      </trkpt>
      <trkpt lat="47.57937" lon="-3.04106">
        <ele>1.2</ele>
        <time>2024-05-07T15:31:40Z</time>
      </trkpt>
      <trkpt lat="47.57937" lon="-3.04106">
        <ele>1.2</ele>
        <time>2024-05-07T15:31:41Z</time>
      </trkpt>
      <trkpt lat="47.57937" lon="-3.04106">
        <ele>1.2</ele>
        <time>2024-05-07T15:31:42Z</time>
      </trkpt>
      <trkpt lat="47.57937" lon="-3.04106">
        <ele>1.2</ele>
        <time>2024-05-07T15:31:43Z</time>
      </trkpt>
      <trkpt lat="47.57937" lon="-3.04106">
        <ele>1.4</ele>
        <time>2024-05-07T15:31:44Z</time>
      </trkpt>
      <trkpt lat="47.57937" lon="-3.04106">
        <ele>1.4</ele>
        <time>2024-05-07T15:31:45Z</time>
      </trkpt>
      <trkpt lat="47.57937" lon="-3.04106">
        <ele>1.4</ele>
        <time>2024-05-07T15:31:46Z</time>
      </trkpt>
      <trkpt lat="47.57937" lon="-3.04106">
        <ele>1.4</ele>
        <time>2024-05-07T15:31:47Z</time>
      </trkpt>
      <trkpt lat="47.57937" lon="-3.04106">
        <ele>1.6</ele>
        <time>2024-05-07T15:31:48Z</time>
      </trkpt>
      <trkpt lat="47.57937" lon="-3.04106">
        <ele>1.6</ele>
        <time>2024-05-07T15:31:49Z</time>
      </trkpt>
      <trkpt lat="47.57937" lon="-3.04106">
        <ele>1.6</ele>
        <time>2024-05-07T15:31:50Z</time>
      </trkpt>
      <trkpt lat="47.57937" lon="-3.04106">
        <ele>1.6</ele>
        <time>2024-05-07T15:31:51Z</time>
      </trkpt>
      <trkpt lat="47.57937" lon="-3.04106">
        <ele>1.6</ele>
        <time>2024-05-07T15:31:52Z</time>
      </trkpt>
      <trkpt lat="47.57936" lon="-3.04106">
        <ele>1.6</ele>
        <time>2024-05-07T15:31:53Z</time>
      </trkpt>
      <trkpt lat="47.57936" lon="-3.04106">
        <ele>1.6</ele>
        <time>2024-05-07T15:31:54Z</time>
      </trkpt>
      <trkpt lat="47.57936" lon="-3.04106">
        <ele>1.6</ele>
        <time>2024-05-07T15:31:55Z</time>
      </trkpt>
      <trkpt lat="47.57936" lon="-3.04106">
        <ele>1.6</ele>
        <time>2024-05-07T15:31:56Z</time>
      </trkpt>
      <trkpt lat="47.57936" lon="-3.04106">
        <ele>1.6</ele>
        <time>2024-05-07T15:31:57Z</time>
      </trkpt>
      <trkpt lat="47.57936" lon="-3.04106">
        <ele>1.6</ele>
        <time>2024-05-07T15:31:58Z</time>
      </trkpt>
      <trkpt lat="47.57936" lon="-3.04106">
        <ele>1.6</ele>
        <time>2024-05-07T15:31:59Z</time>
      </trkpt>
      <trkpt lat="47.57936" lon="-3.04106">
        <ele>1.6</ele>
        <time>2024-05-07T15:32:00Z</time>
      </trkpt>
      <trkpt lat="47.57936" lon="-3.04106">
        <ele>1.6</ele>
        <time>2024-05-07T15:32:01Z</time>
      </trkpt>
      <trkpt lat="47.57936" lon="-3.04106">
        <ele>1.6</ele>
        <time>2024-05-07T15:32:02Z</time>
      </trkpt>
      <trkpt lat="47.57936" lon="-3.04106">
        <ele>1.6</ele>
        <time>2024-05-07T15:32:03Z</time>
      </trkpt>
      <trkpt lat="47.57936" lon="-3.04106">
        <ele>1.6</ele>
        <time>2024-05-07T15:32:04Z</time>
      </trkpt>
      <trkpt lat="47.57936" lon="-3.04106">
        <ele>1.6</ele>
        <time>2024-05-07T15:32:05Z</time>
      </trkpt>
      <trkpt lat="47.57936" lon="-3.04106">
        <ele>1.6</ele>
        <time>2024-05-07T15:32:06Z</time>
      </trkpt>
      <trkpt lat="47.57936" lon="-3.04106">
        <ele>1.6</ele>
        <time>2024-05-07T15:32:07Z</time>
      </trkpt>
      <trkpt lat="47.57936" lon="-3.04106">
        <ele>1.6</ele>
        <time>2024-05-07T15:32:08Z</time>
      </trkpt>
      <trkpt lat="47.57936" lon="-3.04106">
        <ele>1.6</ele>
        <time>2024-05-07T15:32:09Z</time>
      </trkpt>
      <trkpt lat="47.57936" lon="-3.04106">
        <ele>1.6</ele>
        <time>2024-05-07T15:32:10Z</time>
      </trkpt>
      <trkpt lat="47.57936" lon="-3.04106">
        <ele>1.6</ele>
        <time>2024-05-07T15:32:11Z</time>
      </trkpt>
      <trkpt lat="47.57936" lon="-3.04106">
        <ele>1.6</ele>
        <time>2024-05-07T15:32:12Z</time>
      </trkpt>
      <trkpt lat="47.57937" lon="-3.04106">
        <ele>1.6</ele>
        <time>2024-05-07T15:32:13Z</time>
      </trkpt>
      <trkpt lat="47.57937" lon="-3.04106">
        <ele>1.6</ele>
        <time>2024-05-07T15:32:14Z</time>
      </trkpt>
      <trkpt lat="47.57937" lon="-3.04106">
        <ele>1.6</ele>
        <time>2024-05-07T15:32:15Z</time>
      </trkpt>
      <trkpt lat="47.57937" lon="-3.04106">
        <ele>1.4</ele>
        <time>2024-05-07T15:32:16Z</time>
      </trkpt>
      <trkpt lat="47.57937" lon="-3.04106">
        <ele>1.4</ele>
        <time>2024-05-07T15:32:17Z</time>
      </trkpt>
      <trkpt lat="47.57937" lon="-3.04107">
        <ele>1.4</ele>
        <time>2024-05-07T15:32:18Z</time>
      </trkpt>
      <trkpt lat="47.57938" lon="-3.04107">
        <ele>1.4</ele>
        <time>2024-05-07T15:32:19Z</time>
      </trkpt>
      <trkpt lat="47.57938" lon="-3.04107">
        <ele>1.4</ele>
        <time>2024-05-07T15:32:20Z</time>
      </trkpt>
      <trkpt lat="47.57938" lon="-3.04107">
        <ele>1.2</ele>
        <time>2024-05-07T15:32:21Z</time>
      </trkpt>
      <trkpt lat="47.57938" lon="-3.04107">
        <ele>1.2</ele>
        <time>2024-05-07T15:32:22Z</time>
      </trkpt>
      <trkpt lat="47.57938" lon="-3.04107">
        <ele>1.2</ele>
        <time>2024-05-07T15:32:23Z</time>
      </trkpt>
      <trkpt lat="47.57938" lon="-3.04107">
        <ele>1.2</ele>
        <time>2024-05-07T15:32:24Z</time>
      </trkpt>
      <trkpt lat="47.57938" lon="-3.04107">
        <ele>1.2</ele>
        <time>2024-05-07T15:32:25Z</time>
      </trkpt>
      <trkpt lat="47.57939" lon="-3.04107">
        <ele>1.2</ele>
        <time>2024-05-07T15:32:26Z</time>
      </trkpt>
      <trkpt lat="47.57939" lon="-3.04107">
        <ele>1.2</ele>
        <time>2024-05-07T15:32:27Z</time>
      </trkpt>
      <trkpt lat="47.57939" lon="-3.04107">
        <ele>1.2</ele>
        <time>2024-05-07T15:32:28Z</time>
      </trkpt>
      <trkpt lat="47.57939" lon="-3.04107">
        <ele>1.2</ele>
        <time>2024-05-07T15:32:29Z</time>
      </trkpt>
      <trkpt lat="47.57939" lon="-3.04107">
        <ele>1.4</ele>
        <time>2024-05-07T15:32:30Z</time>
      </trkpt>
      <trkpt lat="47.5794" lon="-3.04107">
        <ele>1.4</ele>
        <time>2024-05-07T15:32:31Z</time>
      </trkpt>
      <trkpt lat="47.5794" lon="-3.04107">
        <ele>1.6</ele>
        <time>2024-05-07T15:32:32Z</time>
      </trkpt>
      <trkpt lat="47.5794" lon="-3.04107">
        <ele>1.8</ele>
        <time>2024-05-07T15:32:33Z</time>
      </trkpt>
      <trkpt lat="47.5794" lon="-3.04107">
        <ele>1.8</ele>
        <time>2024-05-07T15:32:34Z</time>
      </trkpt>
      <trkpt lat="47.5794" lon="-3.04107">
        <ele>1.8</ele>
        <time>2024-05-07T15:32:35Z</time>
      </trkpt>
      <trkpt lat="47.57941" lon="-3.04107">
        <ele>1.8</ele>
        <time>2024-05-07T15:32:36Z</time>
      </trkpt>
      <trkpt lat="47.57941" lon="-3.04107">
        <ele>1.8</ele>
        <time>2024-05-07T15:32:37Z</time>
      </trkpt>
      <trkpt lat="47.57941" lon="-3.04107">
        <ele>1.8</ele>
        <time>2024-05-07T15:32:38Z</time>
      </trkpt>
      <trkpt lat="47.57941" lon="-3.04107">
        <ele>2</ele>
        <time>2024-05-07T15:32:39Z</time>
      </trkpt>
      <trkpt lat="47.57941" lon="-3.04107">
        <ele>2</ele>
        <time>2024-05-07T15:32:40Z</time>
      </trkpt>
      <trkpt lat="47.57942" lon="-3.04107">
        <ele>2</ele>
        <time>2024-05-07T15:32:41Z</time>
      </trkpt>
      <trkpt lat="47.57942" lon="-3.04107">
        <ele>2</ele>
        <time>2024-05-07T15:32:42Z</time>
      </trkpt>
      <trkpt lat="47.57941" lon="-3.0411">
        <ele>1.8</ele>
        <time>2024-05-07T15:32:43Z</time>
      </trkpt>
      <trkpt lat="47.57941" lon="-3.04112">
        <ele>1.8</ele>
        <time>2024-05-07T15:32:44Z</time>
      </trkpt>
      <trkpt lat="47.5794" lon="-3.04114">
        <ele>1.8</ele>
        <time>2024-05-07T15:32:45Z</time>
      </trkpt>
      <trkpt lat="47.5794" lon="-3.04116">
        <ele>1.8</ele>
        <time>2024-05-07T15:32:46Z</time>
      </trkpt>
      <trkpt lat="47.5794" lon="-3.04118">
        <ele>2</ele>
        <time>2024-05-07T15:32:47Z</time>
      </trkpt>
      <trkpt lat="47.5794" lon="-3.0412">
        <ele>2</ele>
        <time>2024-05-07T15:32:48Z</time>
      </trkpt>
      <trkpt lat="47.5794" lon="-3.04122">
        <ele>2</ele>
        <time>2024-05-07T15:32:49Z</time>
      </trkpt>
      <trkpt lat="47.5794" lon="-3.04124">
        <ele>2</ele>
        <time>2024-05-07T15:32:50Z</time>
      </trkpt>
      <trkpt lat="47.5794" lon="-3.04127">
        <ele>2</ele>
        <time>2024-05-07T15:32:51Z</time>
      </trkpt>
      <trkpt lat="47.57941" lon="-3.04129">
        <ele>2</ele>
        <time>2024-05-07T15:32:52Z</time>
      </trkpt>
      <trkpt lat="47.57941" lon="-3.0413">
        <ele>2</ele>
        <time>2024-05-07T15:32:53Z</time>
      </trkpt>
      <trkpt lat="47.57941" lon="-3.04132">
        <ele>2</ele>
        <time>2024-05-07T15:32:54Z</time>
      </trkpt>
      <trkpt lat="47.57942" lon="-3.04133">
        <ele>2</ele>
        <time>2024-05-07T15:32:55Z</time>
      </trkpt>
      <trkpt lat="47.57942" lon="-3.04135">
        <ele>2.2</ele>
        <time>2024-05-07T15:32:56Z</time>
      </trkpt>
      <trkpt lat="47.57942" lon="-3.04137">
        <ele>2.2</ele>
        <time>2024-05-07T15:32:57Z</time>
      </trkpt>
      <trkpt lat="47.57942" lon="-3.04139">
        <ele>2</ele>
        <time>2024-05-07T15:32:58Z</time>
      </trkpt>
      <trkpt lat="47.57942" lon="-3.04141">
        <ele>2</ele>
        <time>2024-05-07T15:32:59Z</time>
      </trkpt>
      <trkpt lat="47.57942" lon="-3.04143">
        <ele>2</ele>
        <time>2024-05-07T15:33:00Z</time>
      </trkpt>
      <trkpt lat="47.57942" lon="-3.04144">
        <ele>1.8</ele>
        <time>2024-05-07T15:33:01Z</time>
      </trkpt>
      <trkpt lat="47.57942" lon="-3.04146">
        <ele>1.8</ele>
        <time>2024-05-07T15:33:02Z</time>
      </trkpt>
      <trkpt lat="47.57942" lon="-3.04148">
        <ele>1.8</ele>
        <time>2024-05-07T15:33:03Z</time>
      </trkpt>
      <trkpt lat="47.57942" lon="-3.0415">
        <ele>1.8</ele>
        <time>2024-05-07T15:33:04Z</time>
      </trkpt>
      <trkpt lat="47.57942" lon="-3.04152">
        <ele>1.8</ele>
        <time>2024-05-07T15:33:05Z</time>
      </trkpt>
      <trkpt lat="47.57942" lon="-3.04154">
        <ele>1.8</ele>
        <time>2024-05-07T15:33:06Z</time>
      </trkpt>
      <trkpt lat="47.57942" lon="-3.04156">
        <ele>1.6</ele>
        <time>2024-05-07T15:33:07Z</time>
      </trkpt>
      <trkpt lat="47.57941" lon="-3.04158">
        <ele>1.4</ele>
        <time>2024-05-07T15:33:08Z</time>
      </trkpt>
      <trkpt lat="47.57941" lon="-3.0416">
        <ele>1.4</ele>
        <time>2024-05-07T15:33:09Z</time>
      </trkpt>
      <trkpt lat="47.57941" lon="-3.04162">
        <ele>1.2</ele>
        <time>2024-05-07T15:33:10Z</time>
      </trkpt>
      <trkpt lat="47.57941" lon="-3.04165">
        <ele>1.2</ele>
        <time>2024-05-07T15:33:11Z</time>
      </trkpt>
      <trkpt lat="47.57941" lon="-3.04167">
        <ele>1.2</ele>
        <time>2024-05-07T15:33:12Z</time>
      </trkpt>
      <trkpt lat="47.57941" lon="-3.04169">
        <ele>1</ele>
        <time>2024-05-07T15:33:13Z</time>
      </trkpt>
      <trkpt lat="47.57941" lon="-3.04171">
        <ele>1</ele>
        <time>2024-05-07T15:33:14Z</time>
      </trkpt>
      <trkpt lat="47.57941" lon="-3.04173">
        <ele>1</ele>
        <time>2024-05-07T15:33:15Z</time>
      </trkpt>
      <trkpt lat="47.57941" lon="-3.04176">
        <ele>1</ele>
        <time>2024-05-07T15:33:16Z</time>
      </trkpt>
      <trkpt lat="47.57941" lon="-3.04178">
        <ele>1</ele>
        <time>2024-05-07T15:33:17Z</time>
      </trkpt>
      <trkpt lat="47.57941" lon="-3.0418">
        <ele>1</ele>
        <time>2024-05-07T15:33:18Z</time>
      </trkpt>
      <trkpt lat="47.57941" lon="-3.04182">
        <ele>1</ele>
        <time>2024-05-07T15:33:19Z</time>
      </trkpt>
      <trkpt lat="47.57941" lon="-3.04184">
        <ele>1</ele>
        <time>2024-05-07T15:33:20Z</time>
      </trkpt>
      <trkpt lat="47.57941" lon="-3.04186">
        <ele>1</ele>
        <time>2024-05-07T15:33:21Z</time>
      </trkpt>
      <trkpt lat="47.57942" lon="-3.04188">
        <ele>1</ele>
        <time>2024-05-07T15:33:22Z</time>
      </trkpt>
      <trkpt lat="47.57942" lon="-3.0419">
        <ele>1</ele>
        <time>2024-05-07T15:33:23Z</time>
      </trkpt>
      <trkpt lat="47.57941" lon="-3.04192">
        <ele>1</ele>
        <time>2024-05-07T15:33:24Z</time>
      </trkpt>
      <trkpt lat="47.57941" lon="-3.04193">
        <ele>1</ele>
        <time>2024-05-07T15:33:25Z</time>
      </trkpt>
      <trkpt lat="47.57941" lon="-3.04195">
        <ele>1.2</ele>
        <time>2024-05-07T15:33:26Z</time>
      </trkpt>
      <trkpt lat="47.5794" lon="-3.04195">
        <ele>1.2</ele>
        <time>2024-05-07T15:33:27Z</time>
      </trkpt>
      <trkpt lat="47.57939" lon="-3.04196">
        <ele>1.2</ele>
        <time>2024-05-07T15:33:28Z</time>
      </trkpt>
      <trkpt lat="47.57939" lon="-3.04197">
        <ele>1.2</ele>
        <time>2024-05-07T15:33:29Z</time>
      </trkpt>
      <trkpt lat="47.57938" lon="-3.04199">
        <ele>1.2</ele>
        <time>2024-05-07T15:33:30Z</time>
      </trkpt>
      <trkpt lat="47.57937" lon="-3.04201">
        <ele>1.2</ele>
        <time>2024-05-07T15:33:31Z</time>
      </trkpt>
      <trkpt lat="47.57937" lon="-3.04204">
        <ele>1.2</ele>
        <time>2024-05-07T15:33:32Z</time>
      </trkpt>
      <trkpt lat="47.57937" lon="-3.04206">
        <ele>1.2</ele>
        <time>2024-05-07T15:33:33Z</time>
      </trkpt>
      <trkpt lat="47.57938" lon="-3.04208">
        <ele>1.2</ele>
        <time>2024-05-07T15:33:34Z</time>
      </trkpt>
      <trkpt lat="47.57938" lon="-3.0421">
        <ele>1.2</ele>
        <time>2024-05-07T15:33:35Z</time>
      </trkpt>
      <trkpt lat="47.57938" lon="-3.04212">
        <ele>1.2</ele>
        <time>2024-05-07T15:33:36Z</time>
      </trkpt>
      <trkpt lat="47.57938" lon="-3.04214">
        <ele>1.2</ele>
        <time>2024-05-07T15:33:37Z</time>
      </trkpt>
      <trkpt lat="47.57937" lon="-3.04216">
        <ele>1.2</ele>
        <time>2024-05-07T15:33:38Z</time>
      </trkpt>
      <trkpt lat="47.57937" lon="-3.04218">
        <ele>1.2</ele>
        <time>2024-05-07T15:33:39Z</time>
      </trkpt>
      <trkpt lat="47.57937" lon="-3.04221">
        <ele>1.4</ele>
        <time>2024-05-07T15:33:40Z</time>
      </trkpt>
      <trkpt lat="47.57937" lon="-3.04223">
        <ele>1.4</ele>
        <time>2024-05-07T15:33:41Z</time>
      </trkpt>
      <trkpt lat="47.57937" lon="-3.04225">
        <ele>1.6</ele>
        <time>2024-05-07T15:33:42Z</time>
      </trkpt>
      <trkpt lat="47.57937" lon="-3.04228">
        <ele>1.6</ele>
        <time>2024-05-07T15:33:43Z</time>
      </trkpt>
      <trkpt lat="47.57937" lon="-3.0423">
        <ele>1.6</ele>
        <time>2024-05-07T15:33:44Z</time>
      </trkpt>
      <trkpt lat="47.57937" lon="-3.04232">
        <ele>1.4</ele>
        <time>2024-05-07T15:33:45Z</time>
      </trkpt>
      <trkpt lat="47.57936" lon="-3.04234">
        <ele>1.4</ele>
        <time>2024-05-07T15:33:46Z</time>
      </trkpt>
      <trkpt lat="47.57936" lon="-3.04235">
        <ele>1.4</ele>
        <time>2024-05-07T15:33:47Z</time>
      </trkpt>
      <trkpt lat="47.57936" lon="-3.04238">
        <ele>1.4</ele>
        <time>2024-05-07T15:33:48Z</time>
      </trkpt>
      <trkpt lat="47.57935" lon="-3.04239">
        <ele>1.4</ele>
        <time>2024-05-07T15:33:49Z</time>
      </trkpt>
      <trkpt lat="47.57935" lon="-3.0424">
        <ele>1.4</ele>
        <time>2024-05-07T15:33:50Z</time>
      </trkpt>
      <trkpt lat="47.57934" lon="-3.04242">
        <ele>1.4</ele>
        <time>2024-05-07T15:33:51Z</time>
      </trkpt>
      <trkpt lat="47.57933" lon="-3.04243">
        <ele>1.2</ele>
        <time>2024-05-07T15:33:52Z</time>
      </trkpt>
      <trkpt lat="47.57933" lon="-3.04245">
        <ele>1.2</ele>
        <time>2024-05-07T15:33:53Z</time>
      </trkpt>
      <trkpt lat="47.57933" lon="-3.04247">
        <ele>1.2</ele>
        <time>2024-05-07T15:33:54Z</time>
      </trkpt>
      <trkpt lat="47.57933" lon="-3.04248">
        <ele>1.2</ele>
        <time>2024-05-07T15:33:55Z</time>
      </trkpt>
      <trkpt lat="47.57933" lon="-3.04251">
        <ele>1.2</ele>
        <time>2024-05-07T15:33:56Z</time>
      </trkpt>
      <trkpt lat="47.57932" lon="-3.04253">
        <ele>1.2</ele>
        <time>2024-05-07T15:33:57Z</time>
      </trkpt>
      <trkpt lat="47.57932" lon="-3.04256">
        <ele>1.2</ele>
        <time>2024-05-07T15:33:58Z</time>
      </trkpt>
      <trkpt lat="47.57932" lon="-3.04258">
        <ele>1</ele>
        <time>2024-05-07T15:33:59Z</time>
      </trkpt>
      <trkpt lat="47.57931" lon="-3.04261">
        <ele>1</ele>
        <time>2024-05-07T15:34:00Z</time>
      </trkpt>
      <trkpt lat="47.5793" lon="-3.04264">
        <ele>1</ele>
        <time>2024-05-07T15:34:01Z</time>
      </trkpt>
      <trkpt lat="47.57929" lon="-3.04266">
        <ele>1</ele>
        <time>2024-05-07T15:34:02Z</time>
      </trkpt>
      <trkpt lat="47.57929" lon="-3.04268">
        <ele>1</ele>
        <time>2024-05-07T15:34:03Z</time>
      </trkpt>
      <trkpt lat="47.57929" lon="-3.04269">
        <ele>1</ele>
        <time>2024-05-07T15:34:04Z</time>
      </trkpt>
      <trkpt lat="47.57928" lon="-3.04271">
        <ele>1</ele>
        <time>2024-05-07T15:34:05Z</time>
      </trkpt>
      <trkpt lat="47.57927" lon="-3.04273">
        <ele>1</ele>
        <time>2024-05-07T15:34:06Z</time>
      </trkpt>
      <trkpt lat="47.57927" lon="-3.04275">
        <ele>1</ele>
        <time>2024-05-07T15:34:07Z</time>
      </trkpt>
      <trkpt lat="47.57926" lon="-3.04276">
        <ele>0.8</ele>
        <time>2024-05-07T15:34:08Z</time>
      </trkpt>
      <trkpt lat="47.57925" lon="-3.04279">
        <ele>0.8</ele>
        <time>2024-05-07T15:34:09Z</time>
      </trkpt>
      <trkpt lat="47.57925" lon="-3.04281">
        <ele>0.8</ele>
        <time>2024-05-07T15:34:10Z</time>
      </trkpt>
      <trkpt lat="47.57925" lon="-3.04283">
        <ele>0.8</ele>
        <time>2024-05-07T15:34:11Z</time>
      </trkpt>
      <trkpt lat="47.57925" lon="-3.04286">
        <ele>0.8</ele>
        <time>2024-05-07T15:34:12Z</time>
      </trkpt>
      <trkpt lat="47.57924" lon="-3.04288">
        <ele>0.6</ele>
        <time>2024-05-07T15:34:13Z</time>
      </trkpt>
      <trkpt lat="47.57924" lon="-3.0429">
        <ele>0.6</ele>
        <time>2024-05-07T15:34:14Z</time>
      </trkpt>
      <trkpt lat="47.57924" lon="-3.04292">
        <ele>0.6</ele>
        <time>2024-05-07T15:34:15Z</time>
      </trkpt>
      <trkpt lat="47.57924" lon="-3.04292">
        <ele>0.6</ele>
        <time>2024-05-07T15:34:16Z</time>
      </trkpt>
      <trkpt lat="47.57924" lon="-3.04293">
        <ele>0.6</ele>
        <time>2024-05-07T15:34:17Z</time>
      </trkpt>
      <trkpt lat="47.57924" lon="-3.04294">
        <ele>0.4</ele>
        <time>2024-05-07T15:34:18Z</time>
      </trkpt>
      <trkpt lat="47.57923" lon="-3.04296">
        <ele>0.4</ele>
        <time>2024-05-07T15:34:19Z</time>
      </trkpt>
      <trkpt lat="47.57923" lon="-3.04298">
        <ele>0.2</ele>
        <time>2024-05-07T15:34:20Z</time>
      </trkpt>
      <trkpt lat="47.57922" lon="-3.043">
        <ele>0.2</ele>
        <time>2024-05-07T15:34:21Z</time>
      </trkpt>
      <trkpt lat="47.57921" lon="-3.04302">
        <ele>0.2</ele>
        <time>2024-05-07T15:34:22Z</time>
      </trkpt>
      <trkpt lat="47.57921" lon="-3.04305">
        <ele>0.2</ele>
        <time>2024-05-07T15:34:23Z</time>
      </trkpt>
      <trkpt lat="47.5792" lon="-3.04307">
        <ele>0.2</ele>
        <time>2024-05-07T15:34:24Z</time>
      </trkpt>
      <trkpt lat="47.5792" lon="-3.0431">
        <ele>0.2</ele>
        <time>2024-05-07T15:34:25Z</time>
      </trkpt>
      <trkpt lat="47.57919" lon="-3.04312">
        <ele>0.2</ele>
        <time>2024-05-07T15:34:26Z</time>
      </trkpt>
      <trkpt lat="47.57919" lon="-3.04314">
        <ele>0.2</ele>
        <time>2024-05-07T15:34:27Z</time>
      </trkpt>
      <trkpt lat="47.57918" lon="-3.04316">
        <ele>0.2</ele>
        <time>2024-05-07T15:34:28Z</time>
      </trkpt>
      <trkpt lat="47.57918" lon="-3.04318">
        <ele>0.2</ele>
        <time>2024-05-07T15:34:29Z</time>
      </trkpt>
      <trkpt lat="47.57917" lon="-3.0432">
        <ele>0.2</ele>
        <time>2024-05-07T15:34:30Z</time>
      </trkpt>
      <trkpt lat="47.57917" lon="-3.04323">
        <ele>0.4</ele>
        <time>2024-05-07T15:34:31Z</time>
      </trkpt>
      <trkpt lat="47.57917" lon="-3.04325">
        <ele>0.4</ele>
        <time>2024-05-07T15:34:32Z</time>
      </trkpt>
      <trkpt lat="47.57917" lon="-3.04327">
        <ele>0.4</ele>
        <time>2024-05-07T15:34:33Z</time>
      </trkpt>
      <trkpt lat="47.57917" lon="-3.04329">
        <ele>0.4</ele>
        <time>2024-05-07T15:34:34Z</time>
      </trkpt>
      <trkpt lat="47.57916" lon="-3.04331">
        <ele>0.4</ele>
        <time>2024-05-07T15:34:35Z</time>
      </trkpt>
      <trkpt lat="47.57916" lon="-3.04333">
        <ele>0.4</ele>
        <time>2024-05-07T15:34:36Z</time>
      </trkpt>
      <trkpt lat="47.57916" lon="-3.04335">
        <ele>0.4</ele>
        <time>2024-05-07T15:34:37Z</time>
      </trkpt>
      <trkpt lat="47.57915" lon="-3.04337">
        <ele>0.4</ele>
        <time>2024-05-07T15:34:38Z</time>
      </trkpt>
      <trkpt lat="47.57915" lon="-3.04339">
        <ele>0.4</ele>
        <time>2024-05-07T15:34:39Z</time>
      </trkpt>
      <trkpt lat="47.57915" lon="-3.0434">
        <ele>0.4</ele>
        <time>2024-05-07T15:34:40Z</time>
      </trkpt>
      <trkpt lat="47.57915" lon="-3.04342">
        <ele>0.4</ele>
        <time>2024-05-07T15:34:41Z</time>
      </trkpt>
      <trkpt lat="47.57914" lon="-3.04344">
        <ele>0.4</ele>
        <time>2024-05-07T15:34:42Z</time>
      </trkpt>
      <trkpt lat="47.57914" lon="-3.04346">
        <ele>0.4</ele>
        <time>2024-05-07T15:34:43Z</time>
      </trkpt>
      <trkpt lat="47.57913" lon="-3.04348">
        <ele>0.4</ele>
        <time>2024-05-07T15:34:44Z</time>
      </trkpt>
      <trkpt lat="47.57913" lon="-3.04349">
        <ele>0.4</ele>
        <time>2024-05-07T15:34:45Z</time>
      </trkpt>
      <trkpt lat="47.57912" lon="-3.04351">
        <ele>0.6</ele>
        <time>2024-05-07T15:34:46Z</time>
      </trkpt>
      <trkpt lat="47.57912" lon="-3.04353">
        <ele>0.6</ele>
        <time>2024-05-07T15:34:47Z</time>
      </trkpt>
      <trkpt lat="47.57911" lon="-3.04355">
        <ele>0.6</ele>
        <time>2024-05-07T15:34:48Z</time>
      </trkpt>
      <trkpt lat="47.57911" lon="-3.04357">
        <ele>0.6</ele>
        <time>2024-05-07T15:34:49Z</time>
      </trkpt>
      <trkpt lat="47.5791" lon="-3.0436">
        <ele>0.6</ele>
        <time>2024-05-07T15:34:50Z</time>
      </trkpt>
      <trkpt lat="47.5791" lon="-3.04362">
        <ele>0.6</ele>
        <time>2024-05-07T15:34:51Z</time>
      </trkpt>
      <trkpt lat="47.57909" lon="-3.04364">
        <ele>0.6</ele>
        <time>2024-05-07T15:34:52Z</time>
      </trkpt>
      <trkpt lat="47.57909" lon="-3.04366">
        <ele>0.6</ele>
        <time>2024-05-07T15:34:53Z</time>
      </trkpt>
      <trkpt lat="47.57908" lon="-3.04368">
        <ele>0.6</ele>
        <time>2024-05-07T15:34:54Z</time>
      </trkpt>
      <trkpt lat="47.57908" lon="-3.04369">
        <ele>0.6</ele>
        <time>2024-05-07T15:34:55Z</time>
      </trkpt>
      <trkpt lat="47.57907" lon="-3.04371">
        <ele>0.6</ele>
        <time>2024-05-07T15:34:56Z</time>
      </trkpt>
      <trkpt lat="47.57907" lon="-3.04372">
        <ele>0.6</ele>
        <time>2024-05-07T15:34:57Z</time>
      </trkpt>
      <trkpt lat="47.57907" lon="-3.04374">
        <ele>0.6</ele>
        <time>2024-05-07T15:34:58Z</time>
      </trkpt>
      <trkpt lat="47.57906" lon="-3.04376">
        <ele>0.6</ele>
        <time>2024-05-07T15:34:59Z</time>
      </trkpt>
      <trkpt lat="47.57905" lon="-3.04377">
        <ele>0.6</ele>
        <time>2024-05-07T15:35:00Z</time>
      </trkpt>
      <trkpt lat="47.57905" lon="-3.04379">
        <ele>0.6</ele>
        <time>2024-05-07T15:35:01Z</time>
      </trkpt>
      <trkpt lat="47.57905" lon="-3.04381">
        <ele>0.6</ele>
        <time>2024-05-07T15:35:02Z</time>
      </trkpt>
      <trkpt lat="47.57905" lon="-3.04383">
        <ele>0.6</ele>
        <time>2024-05-07T15:35:03Z</time>
      </trkpt>
      <trkpt lat="47.57905" lon="-3.04385">
        <ele>0.6</ele>
        <time>2024-05-07T15:35:04Z</time>
      </trkpt>
      <trkpt lat="47.57904" lon="-3.04387">
        <ele>0.6</ele>
        <time>2024-05-07T15:35:05Z</time>
      </trkpt>
      <trkpt lat="47.57904" lon="-3.04389">
        <ele>0.6</ele>
        <time>2024-05-07T15:35:06Z</time>
      </trkpt>
      <trkpt lat="47.57904" lon="-3.04392">
        <ele>0.6</ele>
        <time>2024-05-07T15:35:07Z</time>
      </trkpt>
      <trkpt lat="47.57903" lon="-3.04394">
        <ele>0.6</ele>
        <time>2024-05-07T15:35:08Z</time>
      </trkpt>
      <trkpt lat="47.57902" lon="-3.04396">
        <ele>0.4</ele>
        <time>2024-05-07T15:35:09Z</time>
      </trkpt>
      <trkpt lat="47.57902" lon="-3.04398">
        <ele>0.4</ele>
        <time>2024-05-07T15:35:10Z</time>
      </trkpt>
      <trkpt lat="47.57901" lon="-3.04399">
        <ele>0.4</ele>
        <time>2024-05-07T15:35:11Z</time>
      </trkpt>
      <trkpt lat="47.57901" lon="-3.04401">
        <ele>0.2</ele>
        <time>2024-05-07T15:35:12Z</time>
      </trkpt>
      <trkpt lat="47.57901" lon="-3.04402">
        <ele>0.2</ele>
        <time>2024-05-07T15:35:13Z</time>
      </trkpt>
      <trkpt lat="47.57901" lon="-3.04403">
        <ele>0.2</ele>
        <time>2024-05-07T15:35:14Z</time>
      </trkpt>
      <trkpt lat="47.579" lon="-3.04404">
        <ele>0.2</ele>
        <time>2024-05-07T15:35:15Z</time>
      </trkpt>
      <trkpt lat="47.579" lon="-3.04407">
        <ele>0.4</ele>
        <time>2024-05-07T15:35:16Z</time>
      </trkpt>
      <trkpt lat="47.57899" lon="-3.0441">
        <ele>0.4</ele>
        <time>2024-05-07T15:35:17Z</time>
      </trkpt>
      <trkpt lat="47.57899" lon="-3.04412">
        <ele>0.4</ele>
        <time>2024-05-07T15:35:18Z</time>
      </trkpt>
      <trkpt lat="47.57899" lon="-3.04415">
        <ele>0.6</ele>
        <time>2024-05-07T15:35:19Z</time>
      </trkpt>
      <trkpt lat="47.57899" lon="-3.04416">
        <ele>0.6</ele>
        <time>2024-05-07T15:35:20Z</time>
      </trkpt>
      <trkpt lat="47.57898" lon="-3.04418">
        <ele>0.6</ele>
        <time>2024-05-07T15:35:21Z</time>
      </trkpt>
      <trkpt lat="47.57897" lon="-3.0442">
        <ele>0.6</ele>
        <time>2024-05-07T15:35:22Z</time>
      </trkpt>
      <trkpt lat="47.57897" lon="-3.04422">
        <ele>0.8</ele>
        <time>2024-05-07T15:35:23Z</time>
      </trkpt>
      <trkpt lat="47.57897" lon="-3.04424">
        <ele>0.6</ele>
        <time>2024-05-07T15:35:24Z</time>
      </trkpt>
      <trkpt lat="47.57896" lon="-3.04426">
        <ele>1</ele>
        <time>2024-05-07T15:35:25Z</time>
      </trkpt>
      <trkpt lat="47.57895" lon="-3.04429">
        <ele>1</ele>
        <time>2024-05-07T15:35:26Z</time>
      </trkpt>
      <trkpt lat="47.57895" lon="-3.04432">
        <ele>1</ele>
        <time>2024-05-07T15:35:27Z</time>
      </trkpt>
      <trkpt lat="47.57895" lon="-3.04435">
        <ele>1</ele>
        <time>2024-05-07T15:35:28Z</time>
      </trkpt>
      <trkpt lat="47.57894" lon="-3.04436">
        <ele>1</ele>
        <time>2024-05-07T15:35:29Z</time>
      </trkpt>
      <trkpt lat="47.57894" lon="-3.04438">
        <ele>0.8</ele>
        <time>2024-05-07T15:35:30Z</time>
      </trkpt>
      <trkpt lat="47.57893" lon="-3.04439">
        <ele>0.8</ele>
        <time>2024-05-07T15:35:31Z</time>
      </trkpt>
      <trkpt lat="47.57892" lon="-3.0444">
        <ele>0.8</ele>
        <time>2024-05-07T15:35:32Z</time>
      </trkpt>
      <trkpt lat="47.57891" lon="-3.04442">
        <ele>0.8</ele>
        <time>2024-05-07T15:35:33Z</time>
      </trkpt>
      <trkpt lat="47.57891" lon="-3.04443">
        <ele>0.8</ele>
        <time>2024-05-07T15:35:34Z</time>
      </trkpt>
      <trkpt lat="47.57891" lon="-3.04445">
        <ele>0.8</ele>
        <time>2024-05-07T15:35:35Z</time>
      </trkpt>
      <trkpt lat="47.5789" lon="-3.04447">
        <ele>0.8</ele>
        <time>2024-05-07T15:35:36Z</time>
      </trkpt>
      <trkpt lat="47.5789" lon="-3.04449">
        <ele>0.8</ele>
        <time>2024-05-07T15:35:37Z</time>
      </trkpt>
      <trkpt lat="47.57889" lon="-3.04451">
        <ele>0.8</ele>
        <time>2024-05-07T15:35:38Z</time>
      </trkpt>
      <trkpt lat="47.57888" lon="-3.04452">
        <ele>0.8</ele>
        <time>2024-05-07T15:35:39Z</time>
      </trkpt>
      <trkpt lat="47.57888" lon="-3.04454">
        <ele>0.8</ele>
        <time>2024-05-07T15:35:40Z</time>
      </trkpt>
      <trkpt lat="47.57888" lon="-3.04456">
        <ele>0.8</ele>
        <time>2024-05-07T15:35:41Z</time>
      </trkpt>
      <trkpt lat="47.57887" lon="-3.04458">
        <ele>0.8</ele>
        <time>2024-05-07T15:35:42Z</time>
      </trkpt>
      <trkpt lat="47.57888" lon="-3.0446">
        <ele>0.8</ele>
        <time>2024-05-07T15:35:43Z</time>
      </trkpt>
      <trkpt lat="47.57888" lon="-3.04462">
        <ele>0.8</ele>
        <time>2024-05-07T15:35:44Z</time>
      </trkpt>
      <trkpt lat="47.57887" lon="-3.04463">
        <ele>0.8</ele>
        <time>2024-05-07T15:35:45Z</time>
      </trkpt>
      <trkpt lat="47.57886" lon="-3.04465">
        <ele>0.8</ele>
        <time>2024-05-07T15:35:46Z</time>
      </trkpt>
      <trkpt lat="47.57886" lon="-3.04466">
        <ele>0.8</ele>
        <time>2024-05-07T15:35:47Z</time>
      </trkpt>
      <trkpt lat="47.57885" lon="-3.04468">
        <ele>0.8</ele>
        <time>2024-05-07T15:35:48Z</time>
      </trkpt>
      <trkpt lat="47.57885" lon="-3.04469">
        <ele>0.8</ele>
        <time>2024-05-07T15:35:49Z</time>
      </trkpt>
      <trkpt lat="47.57885" lon="-3.0447">
        <ele>0.8</ele>
        <time>2024-05-07T15:35:50Z</time>
      </trkpt>
      <trkpt lat="47.57884" lon="-3.0447">
        <ele>0.8</ele>
        <time>2024-05-07T15:35:51Z</time>
      </trkpt>
      <trkpt lat="47.57883" lon="-3.04471">
        <ele>0.8</ele>
        <time>2024-05-07T15:35:52Z</time>
      </trkpt>
      <trkpt lat="47.57882" lon="-3.04471">
        <ele>0.8</ele>
        <time>2024-05-07T15:35:53Z</time>
      </trkpt>
      <trkpt lat="47.57881" lon="-3.04471">
        <ele>0.8</ele>
        <time>2024-05-07T15:35:54Z</time>
      </trkpt>
      <trkpt lat="47.57879" lon="-3.04473">
        <ele>0.8</ele>
        <time>2024-05-07T15:35:55Z</time>
      </trkpt>
      <trkpt lat="47.57878" lon="-3.04474">
        <ele>0.8</ele>
        <time>2024-05-07T15:35:56Z</time>
      </trkpt>
      <trkpt lat="47.57876" lon="-3.04475">
        <ele>0.8</ele>
        <time>2024-05-07T15:35:57Z</time>
      </trkpt>
      <trkpt lat="47.57874" lon="-3.04476">
        <ele>0.8</ele>
        <time>2024-05-07T15:35:58Z</time>
      </trkpt>
      <trkpt lat="47.57873" lon="-3.04478">
        <ele>0.6</ele>
        <time>2024-05-07T15:35:59Z</time>
      </trkpt>
      <trkpt lat="47.57872" lon="-3.04479">
        <ele>0.6</ele>
        <time>2024-05-07T15:36:00Z</time>
      </trkpt>
      <trkpt lat="47.57871" lon="-3.0448">
        <ele>0.6</ele>
        <time>2024-05-07T15:36:01Z</time>
      </trkpt>
      <trkpt lat="47.5787" lon="-3.04481">
        <ele>0.6</ele>
        <time>2024-05-07T15:36:02Z</time>
      </trkpt>
      <trkpt lat="47.57868" lon="-3.04482">
        <ele>0.6</ele>
        <time>2024-05-07T15:36:03Z</time>
      </trkpt>
      <trkpt lat="47.57867" lon="-3.04482">
        <ele>0.6</ele>
        <time>2024-05-07T15:36:04Z</time>
      </trkpt>
      <trkpt lat="47.57866" lon="-3.04483">
        <ele>0.6</ele>
        <time>2024-05-07T15:36:05Z</time>
      </trkpt>
      <trkpt lat="47.57865" lon="-3.04484">
        <ele>0.6</ele>
        <time>2024-05-07T15:36:06Z</time>
      </trkpt>
      <trkpt lat="47.57864" lon="-3.04486">
        <ele>0.6</ele>
        <time>2024-05-07T15:36:07Z</time>
      </trkpt>
      <trkpt lat="47.57863" lon="-3.04487">
        <ele>0.6</ele>
        <time>2024-05-07T15:36:08Z</time>
      </trkpt>
      <trkpt lat="47.57862" lon="-3.04489">
        <ele>0.6</ele>
        <time>2024-05-07T15:36:09Z</time>
      </trkpt>
      <trkpt lat="47.57861" lon="-3.0449">
        <ele>0.6</ele>
        <time>2024-05-07T15:36:10Z</time>
      </trkpt>
      <trkpt lat="47.5786" lon="-3.04492">
        <ele>0.6</ele>
        <time>2024-05-07T15:36:11Z</time>
      </trkpt>
      <trkpt lat="47.57858" lon="-3.04494">
        <ele>0.8</ele>
        <time>2024-05-07T15:36:12Z</time>
      </trkpt>
      <trkpt lat="47.57857" lon="-3.04495">
        <ele>0.8</ele>
        <time>2024-05-07T15:36:13Z</time>
      </trkpt>
      <trkpt lat="47.57856" lon="-3.04496">
        <ele>1</ele>
        <time>2024-05-07T15:36:14Z</time>
      </trkpt>
      <trkpt lat="47.57855" lon="-3.04497">
        <ele>1</ele>
        <time>2024-05-07T15:36:15Z</time>
      </trkpt>
      <trkpt lat="47.57855" lon="-3.04498">
        <ele>1</ele>
        <time>2024-05-07T15:36:16Z</time>
      </trkpt>
      <trkpt lat="47.57854" lon="-3.045">
        <ele>1</ele>
        <time>2024-05-07T15:36:17Z</time>
      </trkpt>
      <trkpt lat="47.57854" lon="-3.04501">
        <ele>1</ele>
        <time>2024-05-07T15:36:18Z</time>
      </trkpt>
      <trkpt lat="47.57853" lon="-3.04503">
        <ele>1</ele>
        <time>2024-05-07T15:36:19Z</time>
      </trkpt>
      <trkpt lat="47.57852" lon="-3.04504">
        <ele>1.2</ele>
        <time>2024-05-07T15:36:20Z</time>
      </trkpt>
      <trkpt lat="47.57852" lon="-3.04506">
        <ele>1.2</ele>
        <time>2024-05-07T15:36:21Z</time>
      </trkpt>
      <trkpt lat="47.57851" lon="-3.04508">
        <ele>1.2</ele>
        <time>2024-05-07T15:36:22Z</time>
      </trkpt>
      <trkpt lat="47.57851" lon="-3.0451">
        <ele>1.2</ele>
        <time>2024-05-07T15:36:23Z</time>
      </trkpt>
      <trkpt lat="47.5785" lon="-3.04512">
        <ele>1.4</ele>
        <time>2024-05-07T15:36:24Z</time>
      </trkpt>
      <trkpt lat="47.57849" lon="-3.04514">
        <ele>1.4</ele>
        <time>2024-05-07T15:36:25Z</time>
      </trkpt>
      <trkpt lat="47.57849" lon="-3.04517">
        <ele>1.4</ele>
        <time>2024-05-07T15:36:26Z</time>
      </trkpt>
      <trkpt lat="47.57848" lon="-3.04519">
        <ele>1.4</ele>
        <time>2024-05-07T15:36:27Z</time>
      </trkpt>
      <trkpt lat="47.57848" lon="-3.04521">
        <ele>1.4</ele>
        <time>2024-05-07T15:36:28Z</time>
      </trkpt>
      <trkpt lat="47.57848" lon="-3.04523">
        <ele>1.6</ele>
        <time>2024-05-07T15:36:29Z</time>
      </trkpt>
      <trkpt lat="47.57848" lon="-3.04524">
        <ele>1.6</ele>
        <time>2024-05-07T15:36:30Z</time>
      </trkpt>
      <trkpt lat="47.57848" lon="-3.04526">
        <ele>1.6</ele>
        <time>2024-05-07T15:36:31Z</time>
      </trkpt>
      <trkpt lat="47.57849" lon="-3.04528">
        <ele>1.6</ele>
        <time>2024-05-07T15:36:32Z</time>
      </trkpt>
      <trkpt lat="47.57849" lon="-3.04529">
        <ele>1.8</ele>
        <time>2024-05-07T15:36:33Z</time>
      </trkpt>
      <trkpt lat="47.5785" lon="-3.04532">
        <ele>1.8</ele>
        <time>2024-05-07T15:36:34Z</time>
      </trkpt>
      <trkpt lat="47.5785" lon="-3.04534">
        <ele>1.8</ele>
        <time>2024-05-07T15:36:35Z</time>
      </trkpt>
      <trkpt lat="47.57851" lon="-3.04536">
        <ele>1.8</ele>
        <time>2024-05-07T15:36:36Z</time>
      </trkpt>
      <trkpt lat="47.57851" lon="-3.04538">
        <ele>2</ele>
        <time>2024-05-07T15:36:37Z</time>
      </trkpt>
      <trkpt lat="47.57852" lon="-3.0454">
        <ele>2</ele>
        <time>2024-05-07T15:36:38Z</time>
      </trkpt>
      <trkpt lat="47.57852" lon="-3.04542">
        <ele>2</ele>
        <time>2024-05-07T15:36:39Z</time>
      </trkpt>
      <trkpt lat="47.57853" lon="-3.04544">
        <ele>2</ele>
        <time>2024-05-07T15:36:40Z</time>
      </trkpt>
      <trkpt lat="47.57854" lon="-3.04546">
        <ele>2</ele>
        <time>2024-05-07T15:36:41Z</time>
      </trkpt>
      <trkpt lat="47.57854" lon="-3.04547">
        <ele>2.2</ele>
        <time>2024-05-07T15:36:42Z</time>
      </trkpt>
      <trkpt lat="47.57854" lon="-3.04549">
        <ele>2.2</ele>
        <time>2024-05-07T15:36:43Z</time>
      </trkpt>
      <trkpt lat="47.57854" lon="-3.04551">
        <ele>2.2</ele>
        <time>2024-05-07T15:36:44Z</time>
      </trkpt>
      <trkpt lat="47.57855" lon="-3.04553">
        <ele>2.2</ele>
        <time>2024-05-07T15:36:45Z</time>
      </trkpt>
      <trkpt lat="47.57855" lon="-3.04555">
        <ele>2.2</ele>
        <time>2024-05-07T15:36:46Z</time>
      </trkpt>
      <trkpt lat="47.57855" lon="-3.04557">
        <ele>2.2</ele>
        <time>2024-05-07T15:36:47Z</time>
      </trkpt>
      <trkpt lat="47.57856" lon="-3.04559">
        <ele>2.2</ele>
        <time>2024-05-07T15:36:48Z</time>
      </trkpt>
      <trkpt lat="47.57856" lon="-3.04561">
        <ele>2.2</ele>
        <time>2024-05-07T15:36:49Z</time>
      </trkpt>
      <trkpt lat="47.57856" lon="-3.04564">
        <ele>2.2</ele>
        <time>2024-05-07T15:36:50Z</time>
      </trkpt>
      <trkpt lat="47.57856" lon="-3.04566">
        <ele>2.2</ele>
        <time>2024-05-07T15:36:51Z</time>
      </trkpt>
      <trkpt lat="47.57857" lon="-3.04568">
        <ele>2.2</ele>
        <time>2024-05-07T15:36:52Z</time>
      </trkpt>
      <trkpt lat="47.57857" lon="-3.0457">
        <ele>2.2</ele>
        <time>2024-05-07T15:36:53Z</time>
      </trkpt>
      <trkpt lat="47.57857" lon="-3.04572">
        <ele>2.2</ele>
        <time>2024-05-07T15:36:54Z</time>
      </trkpt>
      <trkpt lat="47.57858" lon="-3.04573">
        <ele>2.2</ele>
        <time>2024-05-07T15:36:55Z</time>
      </trkpt>
      <trkpt lat="47.57858" lon="-3.04575">
        <ele>2.4</ele>
        <time>2024-05-07T15:36:56Z</time>
      </trkpt>
      <trkpt lat="47.57858" lon="-3.04576">
        <ele>2.4</ele>
        <time>2024-05-07T15:36:57Z</time>
      </trkpt>
      <trkpt lat="47.57859" lon="-3.04578">
        <ele>2.4</ele>
        <time>2024-05-07T15:36:58Z</time>
      </trkpt>
      <trkpt lat="47.57859" lon="-3.0458">
        <ele>2.4</ele>
        <time>2024-05-07T15:36:59Z</time>
      </trkpt>
      <trkpt lat="47.57859" lon="-3.04581">
        <ele>2.4</ele>
        <time>2024-05-07T15:37:00Z</time>
      </trkpt>
      <trkpt lat="47.5786" lon="-3.04582">
        <ele>2.4</ele>
        <time>2024-05-07T15:37:01Z</time>
      </trkpt>
      <trkpt lat="47.5786" lon="-3.04584">
        <ele>2.6</ele>
        <time>2024-05-07T15:37:02Z</time>
      </trkpt>
      <trkpt lat="47.5786" lon="-3.04586">
        <ele>2.6</ele>
        <time>2024-05-07T15:37:03Z</time>
      </trkpt>
      <trkpt lat="47.5786" lon="-3.04589">
        <ele>2.6</ele>
        <time>2024-05-07T15:37:04Z</time>
      </trkpt>
      <trkpt lat="47.5786" lon="-3.04591">
        <ele>2.6</ele>
        <time>2024-05-07T15:37:05Z</time>
      </trkpt>
      <trkpt lat="47.5786" lon="-3.04594">
        <ele>2.6</ele>
        <time>2024-05-07T15:37:06Z</time>
      </trkpt>
      <trkpt lat="47.57861" lon="-3.04596">
        <ele>2.6</ele>
        <time>2024-05-07T15:37:07Z</time>
      </trkpt>
      <trkpt lat="47.57861" lon="-3.04598">
        <ele>2.6</ele>
        <time>2024-05-07T15:37:08Z</time>
      </trkpt>
      <trkpt lat="47.57861" lon="-3.046">
        <ele>2.6</ele>
        <time>2024-05-07T15:37:09Z</time>
      </trkpt>
      <trkpt lat="47.57861" lon="-3.04602">
        <ele>2.6</ele>
        <time>2024-05-07T15:37:10Z</time>
      </trkpt>
      <trkpt lat="47.57861" lon="-3.04604">
        <ele>2.6</ele>
        <time>2024-05-07T15:37:11Z</time>
      </trkpt>
      <trkpt lat="47.57861" lon="-3.04606">
        <ele>2.6</ele>
        <time>2024-05-07T15:37:12Z</time>
      </trkpt>
      <trkpt lat="47.57861" lon="-3.04608">
        <ele>2.6</ele>
        <time>2024-05-07T15:37:13Z</time>
      </trkpt>
      <trkpt lat="47.57861" lon="-3.0461">
        <ele>2.8</ele>
        <time>2024-05-07T15:37:14Z</time>
      </trkpt>
      <trkpt lat="47.57861" lon="-3.04611">
        <ele>2.8</ele>
        <time>2024-05-07T15:37:15Z</time>
      </trkpt>
      <trkpt lat="47.57861" lon="-3.04612">
        <ele>2.8</ele>
        <time>2024-05-07T15:37:16Z</time>
      </trkpt>
      <trkpt lat="47.57861" lon="-3.04614">
        <ele>2.8</ele>
        <time>2024-05-07T15:37:17Z</time>
      </trkpt>
      <trkpt lat="47.57861" lon="-3.04616">
        <ele>2.8</ele>
        <time>2024-05-07T15:37:18Z</time>
      </trkpt>
      <trkpt lat="47.57861" lon="-3.04618">
        <ele>2.8</ele>
        <time>2024-05-07T15:37:19Z</time>
      </trkpt>
      <trkpt lat="47.57861" lon="-3.0462">
        <ele>2.8</ele>
        <time>2024-05-07T15:37:20Z</time>
      </trkpt>
      <trkpt lat="47.57861" lon="-3.04622">
        <ele>2.8</ele>
        <time>2024-05-07T15:37:21Z</time>
      </trkpt>
      <trkpt lat="47.57861" lon="-3.04624">
        <ele>2.8</ele>
        <time>2024-05-07T15:37:22Z</time>
      </trkpt>
      <trkpt lat="47.57861" lon="-3.04626">
        <ele>2.8</ele>
        <time>2024-05-07T15:37:23Z</time>
      </trkpt>
      <trkpt lat="47.57861" lon="-3.04628">
        <ele>3</ele>
        <time>2024-05-07T15:37:24Z</time>
      </trkpt>
      <trkpt lat="47.57861" lon="-3.0463">
        <ele>3</ele>
        <time>2024-05-07T15:37:25Z</time>
      </trkpt>
      <trkpt lat="47.57861" lon="-3.04632">
        <ele>3</ele>
        <time>2024-05-07T15:37:26Z</time>
      </trkpt>
      <trkpt lat="47.57862" lon="-3.04635">
        <ele>3</ele>
        <time>2024-05-07T15:37:27Z</time>
      </trkpt>
      <trkpt lat="47.57862" lon="-3.04637">
        <ele>3</ele>
        <time>2024-05-07T15:37:28Z</time>
      </trkpt>
      <trkpt lat="47.57862" lon="-3.0464">
        <ele>3.2</ele>
        <time>2024-05-07T15:37:29Z</time>
      </trkpt>
      <trkpt lat="47.57862" lon="-3.04642">
        <ele>3.2</ele>
        <time>2024-05-07T15:37:30Z</time>
      </trkpt>
      <trkpt lat="47.57862" lon="-3.04644">
        <ele>3.2</ele>
        <time>2024-05-07T15:37:31Z</time>
      </trkpt>
      <trkpt lat="47.57862" lon="-3.04645">
        <ele>3.2</ele>
        <time>2024-05-07T15:37:32Z</time>
      </trkpt>
      <trkpt lat="47.57862" lon="-3.04647">
        <ele>3.2</ele>
        <time>2024-05-07T15:37:33Z</time>
      </trkpt>
      <trkpt lat="47.57863" lon="-3.04648">
        <ele>3.2</ele>
        <time>2024-05-07T15:37:34Z</time>
      </trkpt>
      <trkpt lat="47.57863" lon="-3.0465">
        <ele>3.2</ele>
        <time>2024-05-07T15:37:35Z</time>
      </trkpt>
      <trkpt lat="47.57864" lon="-3.04652">
        <ele>3.2</ele>
        <time>2024-05-07T15:37:36Z</time>
      </trkpt>
      <trkpt lat="47.57865" lon="-3.04654">
        <ele>3.2</ele>
        <time>2024-05-07T15:37:37Z</time>
      </trkpt>
      <trkpt lat="47.57865" lon="-3.04656">
        <ele>3.2</ele>
        <time>2024-05-07T15:37:38Z</time>
      </trkpt>
      <trkpt lat="47.57865" lon="-3.04658">
        <ele>3.2</ele>
        <time>2024-05-07T15:37:39Z</time>
      </trkpt>
      <trkpt lat="47.57865" lon="-3.0466">
        <ele>3.2</ele>
        <time>2024-05-07T15:37:40Z</time>
      </trkpt>
      <trkpt lat="47.57865" lon="-3.04663">
        <ele>3.2</ele>
        <time>2024-05-07T15:37:41Z</time>
      </trkpt>
      <trkpt lat="47.57865" lon="-3.04664">
        <ele>3.2</ele>
        <time>2024-05-07T15:37:42Z</time>
      </trkpt>
      <trkpt lat="47.57865" lon="-3.04666">
        <ele>3.2</ele>
        <time>2024-05-07T15:37:43Z</time>
      </trkpt>
      <trkpt lat="47.57866" lon="-3.04668">
        <ele>3.2</ele>
        <time>2024-05-07T15:37:44Z</time>
      </trkpt>
      <trkpt lat="47.57866" lon="-3.04669">
        <ele>3.2</ele>
        <time>2024-05-07T15:37:45Z</time>
      </trkpt>
      <trkpt lat="47.57867" lon="-3.0467">
        <ele>3.2</ele>
        <time>2024-05-07T15:37:46Z</time>
      </trkpt>
      <trkpt lat="47.57867" lon="-3.04673">
        <ele>3.2</ele>
        <time>2024-05-07T15:37:47Z</time>
      </trkpt>
      <trkpt lat="47.57868" lon="-3.04675">
        <ele>3.4</ele>
        <time>2024-05-07T15:37:48Z</time>
      </trkpt>
      <trkpt lat="47.57868" lon="-3.04678">
        <ele>3.4</ele>
        <time>2024-05-07T15:37:49Z</time>
      </trkpt>
      <trkpt lat="47.57868" lon="-3.0468">
        <ele>3.4</ele>
        <time>2024-05-07T15:37:50Z</time>
      </trkpt>
      <trkpt lat="47.57869" lon="-3.04683">
        <ele>3.4</ele>
        <time>2024-05-07T15:37:51Z</time>
      </trkpt>
      <trkpt lat="47.57869" lon="-3.04685">
        <ele>3.4</ele>
        <time>2024-05-07T15:37:52Z</time>
      </trkpt>
      <trkpt lat="47.5787" lon="-3.04686">
        <ele>3.4</ele>
        <time>2024-05-07T15:37:53Z</time>
      </trkpt>
      <trkpt lat="47.5787" lon="-3.04689">
        <ele>3.4</ele>
        <time>2024-05-07T15:37:54Z</time>
      </trkpt>
      <trkpt lat="47.5787" lon="-3.04691">
        <ele>3.4</ele>
        <time>2024-05-07T15:37:55Z</time>
      </trkpt>
      <trkpt lat="47.5787" lon="-3.04693">
        <ele>3.4</ele>
        <time>2024-05-07T15:37:56Z</time>
      </trkpt>
      <trkpt lat="47.5787" lon="-3.04695">
        <ele>3.6</ele>
        <time>2024-05-07T15:37:57Z</time>
      </trkpt>
      <trkpt lat="47.5787" lon="-3.04696">
        <ele>3.6</ele>
        <time>2024-05-07T15:37:58Z</time>
      </trkpt>
      <trkpt lat="47.5787" lon="-3.04698">
        <ele>3.6</ele>
        <time>2024-05-07T15:37:59Z</time>
      </trkpt>
      <trkpt lat="47.57871" lon="-3.04699">
        <ele>3.6</ele>
        <time>2024-05-07T15:38:00Z</time>
      </trkpt>
      <trkpt lat="47.57871" lon="-3.04701">
        <ele>3.6</ele>
        <time>2024-05-07T15:38:01Z</time>
      </trkpt>
      <trkpt lat="47.57872" lon="-3.04703">
        <ele>3.6</ele>
        <time>2024-05-07T15:38:02Z</time>
      </trkpt>
      <trkpt lat="47.57872" lon="-3.04705">
        <ele>3.6</ele>
        <time>2024-05-07T15:38:03Z</time>
      </trkpt>
      <trkpt lat="47.57872" lon="-3.04707">
        <ele>3.6</ele>
        <time>2024-05-07T15:38:04Z</time>
      </trkpt>
      <trkpt lat="47.57873" lon="-3.04709">
        <ele>3.6</ele>
        <time>2024-05-07T15:38:05Z</time>
      </trkpt>
      <trkpt lat="47.57873" lon="-3.04711">
        <ele>3.4</ele>
        <time>2024-05-07T15:38:06Z</time>
      </trkpt>
      <trkpt lat="47.57873" lon="-3.04713">
        <ele>3.4</ele>
        <time>2024-05-07T15:38:07Z</time>
      </trkpt>
      <trkpt lat="47.57873" lon="-3.04715">
        <ele>3.2</ele>
        <time>2024-05-07T15:38:08Z</time>
      </trkpt>
      <trkpt lat="47.57874" lon="-3.04717">
        <ele>3.2</ele>
        <time>2024-05-07T15:38:09Z</time>
      </trkpt>
      <trkpt lat="47.57874" lon="-3.04719">
        <ele>3.2</ele>
        <time>2024-05-07T15:38:10Z</time>
      </trkpt>
      <trkpt lat="47.57874" lon="-3.04721">
        <ele>3.2</ele>
        <time>2024-05-07T15:38:11Z</time>
      </trkpt>
      <trkpt lat="47.57874" lon="-3.04723">
        <ele>3.2</ele>
        <time>2024-05-07T15:38:12Z</time>
      </trkpt>
      <trkpt lat="47.57875" lon="-3.04725">
        <ele>3.2</ele>
        <time>2024-05-07T15:38:13Z</time>
      </trkpt>
      <trkpt lat="47.57875" lon="-3.04726">
        <ele>3.2</ele>
        <time>2024-05-07T15:38:14Z</time>
      </trkpt>
      <trkpt lat="47.57875" lon="-3.04728">
        <ele>3.2</ele>
        <time>2024-05-07T15:38:15Z</time>
      </trkpt>
      <trkpt lat="47.57875" lon="-3.0473">
        <ele>3.2</ele>
        <time>2024-05-07T15:38:16Z</time>
      </trkpt>
      <trkpt lat="47.57875" lon="-3.04732">
        <ele>3.2</ele>
        <time>2024-05-07T15:38:17Z</time>
      </trkpt>
      <trkpt lat="47.57876" lon="-3.04733">
        <ele>3.2</ele>
        <time>2024-05-07T15:38:18Z</time>
      </trkpt>
      <trkpt lat="47.57876" lon="-3.04735">
        <ele>3.2</ele>
        <time>2024-05-07T15:38:19Z</time>
      </trkpt>
      <trkpt lat="47.57876" lon="-3.04736">
        <ele>3.2</ele>
        <time>2024-05-07T15:38:20Z</time>
      </trkpt>
      <trkpt lat="47.57876" lon="-3.04738">
        <ele>3.2</ele>
        <time>2024-05-07T15:38:21Z</time>
      </trkpt>
      <trkpt lat="47.57876" lon="-3.0474">
        <ele>3.4</ele>
        <time>2024-05-07T15:38:22Z</time>
      </trkpt>
      <trkpt lat="47.57876" lon="-3.04741">
        <ele>3.4</ele>
        <time>2024-05-07T15:38:23Z</time>
      </trkpt>
      <trkpt lat="47.57876" lon="-3.04743">
        <ele>3.4</ele>
        <time>2024-05-07T15:38:24Z</time>
      </trkpt>
      <trkpt lat="47.57876" lon="-3.04745">
        <ele>3.4</ele>
        <time>2024-05-07T15:38:25Z</time>
      </trkpt>
      <trkpt lat="47.57876" lon="-3.04747">
        <ele>3.4</ele>
        <time>2024-05-07T15:38:26Z</time>
      </trkpt>
      <trkpt lat="47.57877" lon="-3.04749">
        <ele>3.4</ele>
        <time>2024-05-07T15:38:27Z</time>
      </trkpt>
      <trkpt lat="47.57877" lon="-3.04752">
        <ele>3.4</ele>
        <time>2024-05-07T15:38:28Z</time>
      </trkpt>
      <trkpt lat="47.57877" lon="-3.04755">
        <ele>3.4</ele>
        <time>2024-05-07T15:38:29Z</time>
      </trkpt>
      <trkpt lat="47.57878" lon="-3.04757">
        <ele>3.6</ele>
        <time>2024-05-07T15:38:30Z</time>
      </trkpt>
      <trkpt lat="47.57878" lon="-3.04759">
        <ele>3.6</ele>
        <time>2024-05-07T15:38:31Z</time>
      </trkpt>
      <trkpt lat="47.57878" lon="-3.04761">
        <ele>3.4</ele>
        <time>2024-05-07T15:38:32Z</time>
      </trkpt>
      <trkpt lat="47.57878" lon="-3.04763">
        <ele>3.4</ele>
        <time>2024-05-07T15:38:33Z</time>
      </trkpt>
      <trkpt lat="47.57879" lon="-3.04764">
        <ele>3.4</ele>
        <time>2024-05-07T15:38:34Z</time>
      </trkpt>
      <trkpt lat="47.57879" lon="-3.04766">
        <ele>3.4</ele>
        <time>2024-05-07T15:38:35Z</time>
      </trkpt>
      <trkpt lat="47.57879" lon="-3.04769">
        <ele>3.2</ele>
        <time>2024-05-07T15:38:36Z</time>
      </trkpt>
      <trkpt lat="47.57879" lon="-3.0477">
        <ele>3.2</ele>
        <time>2024-05-07T15:38:37Z</time>
      </trkpt>
      <trkpt lat="47.5788" lon="-3.04772">
        <ele>3.2</ele>
        <time>2024-05-07T15:38:38Z</time>
      </trkpt>
      <trkpt lat="47.5788" lon="-3.04773">
        <ele>3.2</ele>
        <time>2024-05-07T15:38:39Z</time>
      </trkpt>
      <trkpt lat="47.5788" lon="-3.04775">
        <ele>3.2</ele>
        <time>2024-05-07T15:38:40Z</time>
      </trkpt>
      <trkpt lat="47.5788" lon="-3.04777">
        <ele>3.2</ele>
        <time>2024-05-07T15:38:41Z</time>
      </trkpt>
      <trkpt lat="47.5788" lon="-3.04779">
        <ele>3.2</ele>
        <time>2024-05-07T15:38:42Z</time>
      </trkpt>
      <trkpt lat="47.5788" lon="-3.04781">
        <ele>3.2</ele>
        <time>2024-05-07T15:38:43Z</time>
      </trkpt>
      <trkpt lat="47.5788" lon="-3.04783">
        <ele>3.2</ele>
        <time>2024-05-07T15:38:44Z</time>
      </trkpt>
      <trkpt lat="47.5788" lon="-3.04785">
        <ele>3.2</ele>
        <time>2024-05-07T15:38:45Z</time>
      </trkpt>
      <trkpt lat="47.5788" lon="-3.04786">
        <ele>3.2</ele>
        <time>2024-05-07T15:38:46Z</time>
      </trkpt>
      <trkpt lat="47.5788" lon="-3.04788">
        <ele>3.2</ele>
        <time>2024-05-07T15:38:47Z</time>
      </trkpt>
      <trkpt lat="47.5788" lon="-3.0479">
        <ele>3.2</ele>
        <time>2024-05-07T15:38:48Z</time>
      </trkpt>
      <trkpt lat="47.5788" lon="-3.04792">
        <ele>3.2</ele>
        <time>2024-05-07T15:38:49Z</time>
      </trkpt>
      <trkpt lat="47.57881" lon="-3.04793">
        <ele>3.2</ele>
        <time>2024-05-07T15:38:50Z</time>
      </trkpt>
      <trkpt lat="47.57881" lon="-3.04795">
        <ele>3.2</ele>
        <time>2024-05-07T15:38:51Z</time>
      </trkpt>
      <trkpt lat="47.57882" lon="-3.04797">
        <ele>3.2</ele>
        <time>2024-05-07T15:38:52Z</time>
      </trkpt>
      <trkpt lat="47.57882" lon="-3.04799">
        <ele>3.2</ele>
        <time>2024-05-07T15:38:53Z</time>
      </trkpt>
      <trkpt lat="47.57882" lon="-3.04801">
        <ele>3.2</ele>
        <time>2024-05-07T15:38:54Z</time>
      </trkpt>
      <trkpt lat="47.57882" lon="-3.04803">
        <ele>3.2</ele>
        <time>2024-05-07T15:38:55Z</time>
      </trkpt>
      <trkpt lat="47.57882" lon="-3.04805">
        <ele>3.2</ele>
        <time>2024-05-07T15:38:56Z</time>
      </trkpt>
      <trkpt lat="47.57882" lon="-3.04806">
        <ele>3.2</ele>
        <time>2024-05-07T15:38:57Z</time>
      </trkpt>
      <trkpt lat="47.57882" lon="-3.04807">
        <ele>3.2</ele>
        <time>2024-05-07T15:38:58Z</time>
      </trkpt>
      <trkpt lat="47.57882" lon="-3.04808">
        <ele>3.2</ele>
        <time>2024-05-07T15:38:59Z</time>
      </trkpt>
      <trkpt lat="47.57882" lon="-3.0481">
        <ele>3.2</ele>
        <time>2024-05-07T15:39:00Z</time>
      </trkpt>
      <trkpt lat="47.57882" lon="-3.04812">
        <ele>3.2</ele>
        <time>2024-05-07T15:39:01Z</time>
      </trkpt>
      <trkpt lat="47.57882" lon="-3.04815">
        <ele>3.2</ele>
        <time>2024-05-07T15:39:02Z</time>
      </trkpt>
      <trkpt lat="47.57881" lon="-3.04817">
        <ele>3.2</ele>
        <time>2024-05-07T15:39:03Z</time>
      </trkpt>
      <trkpt lat="47.57881" lon="-3.04819">
        <ele>3.4</ele>
        <time>2024-05-07T15:39:04Z</time>
      </trkpt>
      <trkpt lat="47.57882" lon="-3.0482">
        <ele>3.4</ele>
        <time>2024-05-07T15:39:05Z</time>
      </trkpt>
      <trkpt lat="47.57882" lon="-3.04822">
        <ele>3.4</ele>
        <time>2024-05-07T15:39:06Z</time>
      </trkpt>
      <trkpt lat="47.57883" lon="-3.04824">
        <ele>3.4</ele>
        <time>2024-05-07T15:39:07Z</time>
      </trkpt>
      <trkpt lat="47.57883" lon="-3.04825">
        <ele>3.4</ele>
        <time>2024-05-07T15:39:08Z</time>
      </trkpt>
      <trkpt lat="47.57883" lon="-3.04826">
        <ele>3.4</ele>
        <time>2024-05-07T15:39:09Z</time>
      </trkpt>
      <trkpt lat="47.57884" lon="-3.04828">
        <ele>3.4</ele>
        <time>2024-05-07T15:39:10Z</time>
      </trkpt>
      <trkpt lat="47.57884" lon="-3.0483">
        <ele>3.4</ele>
        <time>2024-05-07T15:39:11Z</time>
      </trkpt>
      <trkpt lat="47.57884" lon="-3.04831">
        <ele>3.6</ele>
        <time>2024-05-07T15:39:12Z</time>
      </trkpt>
      <trkpt lat="47.57884" lon="-3.04833">
        <ele>3.6</ele>
        <time>2024-05-07T15:39:13Z</time>
      </trkpt>
      <trkpt lat="47.57884" lon="-3.04836">
        <ele>3.6</ele>
        <time>2024-05-07T15:39:14Z</time>
      </trkpt>
      <trkpt lat="47.57884" lon="-3.04838">
        <ele>3.6</ele>
        <time>2024-05-07T15:39:15Z</time>
      </trkpt>
      <trkpt lat="47.57884" lon="-3.0484">
        <ele>3.6</ele>
        <time>2024-05-07T15:39:16Z</time>
      </trkpt>
      <trkpt lat="47.57884" lon="-3.04841">
        <ele>3.6</ele>
        <time>2024-05-07T15:39:17Z</time>
      </trkpt>
      <trkpt lat="47.57884" lon="-3.04843">
        <ele>3.6</ele>
        <time>2024-05-07T15:39:18Z</time>
      </trkpt>
      <trkpt lat="47.57884" lon="-3.04845">
        <ele>3.6</ele>
        <time>2024-05-07T15:39:19Z</time>
      </trkpt>
      <trkpt lat="47.57884" lon="-3.04847">
        <ele>3.6</ele>
        <time>2024-05-07T15:39:20Z</time>
      </trkpt>
      <trkpt lat="47.57884" lon="-3.04849">
        <ele>3.6</ele>
        <time>2024-05-07T15:39:21Z</time>
      </trkpt>
      <trkpt lat="47.57885" lon="-3.04851">
        <ele>3.6</ele>
        <time>2024-05-07T15:39:22Z</time>
      </trkpt>
      <trkpt lat="47.57885" lon="-3.04852">
        <ele>3.8</ele>
        <time>2024-05-07T15:39:23Z</time>
      </trkpt>
      <trkpt lat="47.57885" lon="-3.04853">
        <ele>3.8</ele>
        <time>2024-05-07T15:39:24Z</time>
      </trkpt>
      <trkpt lat="47.57885" lon="-3.04854">
        <ele>3.8</ele>
        <time>2024-05-07T15:39:25Z</time>
      </trkpt>
      <trkpt lat="47.57885" lon="-3.04856">
        <ele>3.8</ele>
        <time>2024-05-07T15:39:26Z</time>
      </trkpt>
      <trkpt lat="47.57885" lon="-3.04857">
        <ele>3.8</ele>
        <time>2024-05-07T15:39:27Z</time>
      </trkpt>
      <trkpt lat="47.57884" lon="-3.04858">
        <ele>3.8</ele>
        <time>2024-05-07T15:39:28Z</time>
      </trkpt>
      <trkpt lat="47.57884" lon="-3.04859">
        <ele>3.8</ele>
        <time>2024-05-07T15:39:29Z</time>
      </trkpt>
      <trkpt lat="47.57885" lon="-3.04861">
        <ele>3.8</ele>
        <time>2024-05-07T15:39:30Z</time>
      </trkpt>
      <trkpt lat="47.57885" lon="-3.04862">
        <ele>3.8</ele>
        <time>2024-05-07T15:39:31Z</time>
      </trkpt>
      <trkpt lat="47.57885" lon="-3.04865">
        <ele>3.8</ele>
        <time>2024-05-07T15:39:32Z</time>
      </trkpt>
      <trkpt lat="47.57885" lon="-3.04867">
        <ele>3.8</ele>
        <time>2024-05-07T15:39:33Z</time>
      </trkpt>
      <trkpt lat="47.57884" lon="-3.0487">
        <ele>3.8</ele>
        <time>2024-05-07T15:39:34Z</time>
      </trkpt>
      <trkpt lat="47.57884" lon="-3.04872">
        <ele>3.8</ele>
        <time>2024-05-07T15:39:35Z</time>
      </trkpt>
      <trkpt lat="47.57883" lon="-3.04874">
        <ele>3.8</ele>
        <time>2024-05-07T15:39:36Z</time>
      </trkpt>
      <trkpt lat="47.57883" lon="-3.04875">
        <ele>3.8</ele>
        <time>2024-05-07T15:39:37Z</time>
      </trkpt>
      <trkpt lat="47.57883" lon="-3.04877">
        <ele>3.8</ele>
        <time>2024-05-07T15:39:38Z</time>
      </trkpt>
      <trkpt lat="47.57882" lon="-3.0488">
        <ele>3.8</ele>
        <time>2024-05-07T15:39:39Z</time>
      </trkpt>
      <trkpt lat="47.57882" lon="-3.04882">
        <ele>3.8</ele>
        <time>2024-05-07T15:39:40Z</time>
      </trkpt>
      <trkpt lat="47.57882" lon="-3.04884">
        <ele>3.8</ele>
        <time>2024-05-07T15:39:41Z</time>
      </trkpt>
      <trkpt lat="47.57881" lon="-3.04886">
        <ele>3.8</ele>
        <time>2024-05-07T15:39:42Z</time>
      </trkpt>
      <trkpt lat="47.57881" lon="-3.04888">
        <ele>3.8</ele>
        <time>2024-05-07T15:39:43Z</time>
      </trkpt>
      <trkpt lat="47.57881" lon="-3.0489">
        <ele>3.8</ele>
        <time>2024-05-07T15:39:44Z</time>
      </trkpt>
      <trkpt lat="47.57881" lon="-3.04892">
        <ele>3.8</ele>
        <time>2024-05-07T15:39:45Z</time>
      </trkpt>
      <trkpt lat="47.57881" lon="-3.04894">
        <ele>3.8</ele>
        <time>2024-05-07T15:39:46Z</time>
      </trkpt>
      <trkpt lat="47.57881" lon="-3.04895">
        <ele>3.8</ele>
        <time>2024-05-07T15:39:47Z</time>
      </trkpt>
      <trkpt lat="47.57881" lon="-3.04897">
        <ele>3.8</ele>
        <time>2024-05-07T15:39:48Z</time>
      </trkpt>
      <trkpt lat="47.57881" lon="-3.04898">
        <ele>3.8</ele>
        <time>2024-05-07T15:39:49Z</time>
      </trkpt>
      <trkpt lat="47.57881" lon="-3.04899">
        <ele>3.8</ele>
        <time>2024-05-07T15:39:50Z</time>
      </trkpt>
      <trkpt lat="47.57881" lon="-3.04901">
        <ele>3.8</ele>
        <time>2024-05-07T15:39:51Z</time>
      </trkpt>
      <trkpt lat="47.5788" lon="-3.04904">
        <ele>3.8</ele>
        <time>2024-05-07T15:39:52Z</time>
      </trkpt>
      <trkpt lat="47.5788" lon="-3.04906">
        <ele>3.8</ele>
        <time>2024-05-07T15:39:53Z</time>
      </trkpt>
      <trkpt lat="47.57879" lon="-3.04908">
        <ele>3.8</ele>
        <time>2024-05-07T15:39:54Z</time>
      </trkpt>
      <trkpt lat="47.57879" lon="-3.0491">
        <ele>3.8</ele>
        <time>2024-05-07T15:39:55Z</time>
      </trkpt>
      <trkpt lat="47.57879" lon="-3.04911">
        <ele>3.8</ele>
        <time>2024-05-07T15:39:56Z</time>
      </trkpt>
      <trkpt lat="47.57879" lon="-3.04912">
        <ele>3.8</ele>
        <time>2024-05-07T15:39:57Z</time>
      </trkpt>
      <trkpt lat="47.57879" lon="-3.04914">
        <ele>3.8</ele>
        <time>2024-05-07T15:39:58Z</time>
      </trkpt>
      <trkpt lat="47.57878" lon="-3.04916">
        <ele>3.8</ele>
        <time>2024-05-07T15:39:59Z</time>
      </trkpt>
      <trkpt lat="47.57878" lon="-3.04918">
        <ele>3.8</ele>
        <time>2024-05-07T15:40:00Z</time>
      </trkpt>
      <trkpt lat="47.57879" lon="-3.04919">
        <ele>3.8</ele>
        <time>2024-05-07T15:40:01Z</time>
      </trkpt>
      <trkpt lat="47.57879" lon="-3.04922">
        <ele>3.8</ele>
        <time>2024-05-07T15:40:02Z</time>
      </trkpt>
      <trkpt lat="47.57879" lon="-3.04924">
        <ele>3.6</ele>
        <time>2024-05-07T15:40:03Z</time>
      </trkpt>
      <trkpt lat="47.57879" lon="-3.04927">
        <ele>3.6</ele>
        <time>2024-05-07T15:40:04Z</time>
      </trkpt>
      <trkpt lat="47.57878" lon="-3.04928">
        <ele>3.6</ele>
        <time>2024-05-07T15:40:05Z</time>
      </trkpt>
      <trkpt lat="47.57878" lon="-3.0493">
        <ele>3.6</ele>
        <time>2024-05-07T15:40:06Z</time>
      </trkpt>
      <trkpt lat="47.57878" lon="-3.04932">
        <ele>3.6</ele>
        <time>2024-05-07T15:40:07Z</time>
      </trkpt>
      <trkpt lat="47.57877" lon="-3.04934">
        <ele>3.6</ele>
        <time>2024-05-07T15:40:08Z</time>
      </trkpt>
      <trkpt lat="47.57877" lon="-3.04935">
        <ele>3.6</ele>
        <time>2024-05-07T15:40:09Z</time>
      </trkpt>
      <trkpt lat="47.57877" lon="-3.04937">
        <ele>3.6</ele>
        <time>2024-05-07T15:40:10Z</time>
      </trkpt>
      <trkpt lat="47.57877" lon="-3.04939">
        <ele>3.6</ele>
        <time>2024-05-07T15:40:11Z</time>
      </trkpt>
      <trkpt lat="47.57877" lon="-3.04941">
        <ele>3.6</ele>
        <time>2024-05-07T15:40:12Z</time>
      </trkpt>
      <trkpt lat="47.57877" lon="-3.04943">
        <ele>3.6</ele>
        <time>2024-05-07T15:40:13Z</time>
      </trkpt>
      <trkpt lat="47.57877" lon="-3.04945">
        <ele>3.6</ele>
        <time>2024-05-07T15:40:14Z</time>
      </trkpt>
      <trkpt lat="47.57877" lon="-3.04947">
        <ele>3.6</ele>
        <time>2024-05-07T15:40:15Z</time>
      </trkpt>
      <trkpt lat="47.57877" lon="-3.04949">
        <ele>3.6</ele>
        <time>2024-05-07T15:40:16Z</time>
      </trkpt>
      <trkpt lat="47.57876" lon="-3.04951">
        <ele>3.6</ele>
        <time>2024-05-07T15:40:17Z</time>
      </trkpt>
      <trkpt lat="47.57876" lon="-3.04954">
        <ele>3.6</ele>
        <time>2024-05-07T15:40:18Z</time>
      </trkpt>
      <trkpt lat="47.57875" lon="-3.04956">
        <ele>3.6</ele>
        <time>2024-05-07T15:40:19Z</time>
      </trkpt>
      <trkpt lat="47.57875" lon="-3.04958">
        <ele>3.6</ele>
        <time>2024-05-07T15:40:20Z</time>
      </trkpt>
      <trkpt lat="47.57876" lon="-3.04959">
        <ele>3.6</ele>
        <time>2024-05-07T15:40:21Z</time>
      </trkpt>
      <trkpt lat="47.57876" lon="-3.04961">
        <ele>3.6</ele>
        <time>2024-05-07T15:40:22Z</time>
      </trkpt>
      <trkpt lat="47.57876" lon="-3.04963">
        <ele>3.6</ele>
        <time>2024-05-07T15:40:23Z</time>
      </trkpt>
      <trkpt lat="47.57876" lon="-3.04965">
        <ele>3.6</ele>
        <time>2024-05-07T15:40:24Z</time>
      </trkpt>
      <trkpt lat="47.57876" lon="-3.04967">
        <ele>3.6</ele>
        <time>2024-05-07T15:40:25Z</time>
      </trkpt>
      <trkpt lat="47.57876" lon="-3.04969">
        <ele>3.6</ele>
        <time>2024-05-07T15:40:26Z</time>
      </trkpt>
      <trkpt lat="47.57876" lon="-3.04971">
        <ele>3.6</ele>
        <time>2024-05-07T15:40:27Z</time>
      </trkpt>
      <trkpt lat="47.57875" lon="-3.04973">
        <ele>3.6</ele>
        <time>2024-05-07T15:40:28Z</time>
      </trkpt>
      <trkpt lat="47.57874" lon="-3.04975">
        <ele>3.8</ele>
        <time>2024-05-07T15:40:29Z</time>
      </trkpt>
      <trkpt lat="47.57874" lon="-3.04976">
        <ele>3.8</ele>
        <time>2024-05-07T15:40:30Z</time>
      </trkpt>
      <trkpt lat="47.57874" lon="-3.04978">
        <ele>3.8</ele>
        <time>2024-05-07T15:40:31Z</time>
      </trkpt>
      <trkpt lat="47.57874" lon="-3.0498">
        <ele>3.8</ele>
        <time>2024-05-07T15:40:32Z</time>
      </trkpt>
      <trkpt lat="47.57874" lon="-3.04982">
        <ele>3.8</ele>
        <time>2024-05-07T15:40:33Z</time>
      </trkpt>
      <trkpt lat="47.57875" lon="-3.04984">
        <ele>3.6</ele>
        <time>2024-05-07T15:40:34Z</time>
      </trkpt>
      <trkpt lat="47.57875" lon="-3.04987">
        <ele>3.6</ele>
        <time>2024-05-07T15:40:35Z</time>
      </trkpt>
      <trkpt lat="47.57875" lon="-3.04989">
        <ele>3.6</ele>
        <time>2024-05-07T15:40:36Z</time>
      </trkpt>
      <trkpt lat="47.57875" lon="-3.04991">
        <ele>3.6</ele>
        <time>2024-05-07T15:40:37Z</time>
      </trkpt>
      <trkpt lat="47.57875" lon="-3.04993">
        <ele>3.6</ele>
        <time>2024-05-07T15:40:38Z</time>
      </trkpt>
      <trkpt lat="47.57874" lon="-3.04995">
        <ele>3.6</ele>
        <time>2024-05-07T15:40:39Z</time>
      </trkpt>
      <trkpt lat="47.57874" lon="-3.04996">
        <ele>3.6</ele>
        <time>2024-05-07T15:40:40Z</time>
      </trkpt>
      <trkpt lat="47.57874" lon="-3.04998">
        <ele>3.6</ele>
        <time>2024-05-07T15:40:41Z</time>
      </trkpt>
      <trkpt lat="47.57873" lon="-3.05">
        <ele>3.4</ele>
        <time>2024-05-07T15:40:42Z</time>
      </trkpt>
      <trkpt lat="47.57873" lon="-3.05002">
        <ele>3.4</ele>
        <time>2024-05-07T15:40:43Z</time>
      </trkpt>
      <trkpt lat="47.57872" lon="-3.05004">
        <ele>3.4</ele>
        <time>2024-05-07T15:40:44Z</time>
      </trkpt>
      <trkpt lat="47.57872" lon="-3.05005">
        <ele>3.4</ele>
        <time>2024-05-07T15:40:45Z</time>
      </trkpt>
      <trkpt lat="47.57872" lon="-3.05008">
        <ele>3.4</ele>
        <time>2024-05-07T15:40:46Z</time>
      </trkpt>
      <trkpt lat="47.57871" lon="-3.0501">
        <ele>3.4</ele>
        <time>2024-05-07T15:40:47Z</time>
      </trkpt>
      <trkpt lat="47.57871" lon="-3.05011">
        <ele>3.4</ele>
        <time>2024-05-07T15:40:48Z</time>
      </trkpt>
      <trkpt lat="47.57871" lon="-3.05013">
        <ele>3.4</ele>
        <time>2024-05-07T15:40:49Z</time>
      </trkpt>
      <trkpt lat="47.57871" lon="-3.05015">
        <ele>3.4</ele>
        <time>2024-05-07T15:40:50Z</time>
      </trkpt>
      <trkpt lat="47.57872" lon="-3.05017">
        <ele>3.4</ele>
        <time>2024-05-07T15:40:51Z</time>
      </trkpt>
      <trkpt lat="47.57872" lon="-3.05018">
        <ele>3.4</ele>
        <time>2024-05-07T15:40:52Z</time>
      </trkpt>
      <trkpt lat="47.57872" lon="-3.05021">
        <ele>3.4</ele>
        <time>2024-05-07T15:40:53Z</time>
      </trkpt>
      <trkpt lat="47.57872" lon="-3.05023">
        <ele>3.4</ele>
        <time>2024-05-07T15:40:54Z</time>
      </trkpt>
      <trkpt lat="47.57872" lon="-3.05025">
        <ele>3.4</ele>
        <time>2024-05-07T15:40:55Z</time>
      </trkpt>
      <trkpt lat="47.57873" lon="-3.05027">
        <ele>3.4</ele>
        <time>2024-05-07T15:40:56Z</time>
      </trkpt>
      <trkpt lat="47.57872" lon="-3.05029">
        <ele>3.4</ele>
        <time>2024-05-07T15:40:57Z</time>
      </trkpt>
      <trkpt lat="47.57872" lon="-3.05031">
        <ele>3.4</ele>
        <time>2024-05-07T15:40:58Z</time>
      </trkpt>
      <trkpt lat="47.57871" lon="-3.05032">
        <ele>3.6</ele>
        <time>2024-05-07T15:40:59Z</time>
      </trkpt>
      <trkpt lat="47.57871" lon="-3.05034">
        <ele>3.6</ele>
        <time>2024-05-07T15:41:00Z</time>
      </trkpt>
      <trkpt lat="47.5787" lon="-3.05035">
        <ele>3.6</ele>
        <time>2024-05-07T15:41:01Z</time>
      </trkpt>
      <trkpt lat="47.57869" lon="-3.05035">
        <ele>3.6</ele>
        <time>2024-05-07T15:41:02Z</time>
      </trkpt>
      <trkpt lat="47.57868" lon="-3.05036">
        <ele>3.6</ele>
        <time>2024-05-07T15:41:03Z</time>
      </trkpt>
      <trkpt lat="47.57866" lon="-3.05036">
        <ele>3.8</ele>
        <time>2024-05-07T15:41:04Z</time>
      </trkpt>
      <trkpt lat="47.57864" lon="-3.05037">
        <ele>3.8</ele>
        <time>2024-05-07T15:41:05Z</time>
      </trkpt>
      <trkpt lat="47.57863" lon="-3.05038">
        <ele>3.8</ele>
        <time>2024-05-07T15:41:06Z</time>
      </trkpt>
      <trkpt lat="47.57862" lon="-3.05039">
        <ele>3.8</ele>
        <time>2024-05-07T15:41:07Z</time>
      </trkpt>
      <trkpt lat="47.57861" lon="-3.0504">
        <ele>3.8</ele>
        <time>2024-05-07T15:41:08Z</time>
      </trkpt>
      <trkpt lat="47.5786" lon="-3.05042">
        <ele>4</ele>
        <time>2024-05-07T15:41:09Z</time>
      </trkpt>
      <trkpt lat="47.57859" lon="-3.05043">
        <ele>4</ele>
        <time>2024-05-07T15:41:10Z</time>
      </trkpt>
      <trkpt lat="47.57859" lon="-3.05045">
        <ele>4</ele>
        <time>2024-05-07T15:41:11Z</time>
      </trkpt>
      <trkpt lat="47.57859" lon="-3.05047">
        <ele>4</ele>
        <time>2024-05-07T15:41:12Z</time>
      </trkpt>
      <trkpt lat="47.57859" lon="-3.0505">
        <ele>4.2</ele>
        <time>2024-05-07T15:41:13Z</time>
      </trkpt>
      <trkpt lat="47.57859" lon="-3.05051">
        <ele>4.2</ele>
        <time>2024-05-07T15:41:14Z</time>
      </trkpt>
      <trkpt lat="47.57859" lon="-3.05053">
        <ele>4.2</ele>
        <time>2024-05-07T15:41:15Z</time>
      </trkpt>
      <trkpt lat="47.57859" lon="-3.05055">
        <ele>4.2</ele>
        <time>2024-05-07T15:41:16Z</time>
      </trkpt>
      <trkpt lat="47.57858" lon="-3.05057">
        <ele>4.2</ele>
        <time>2024-05-07T15:41:17Z</time>
      </trkpt>
      <trkpt lat="47.57857" lon="-3.05059">
        <ele>4.2</ele>
        <time>2024-05-07T15:41:18Z</time>
      </trkpt>
      <trkpt lat="47.57856" lon="-3.05061">
        <ele>4.2</ele>
        <time>2024-05-07T15:41:19Z</time>
      </trkpt>
      <trkpt lat="47.57856" lon="-3.05063">
        <ele>4.2</ele>
        <time>2024-05-07T15:41:20Z</time>
      </trkpt>
      <trkpt lat="47.57856" lon="-3.05065">
        <ele>4.2</ele>
        <time>2024-05-07T15:41:21Z</time>
      </trkpt>
      <trkpt lat="47.57855" lon="-3.05067">
        <ele>4.2</ele>
        <time>2024-05-07T15:41:22Z</time>
      </trkpt>
      <trkpt lat="47.57854" lon="-3.05069">
        <ele>4.2</ele>
        <time>2024-05-07T15:41:23Z</time>
      </trkpt>
      <trkpt lat="47.57854" lon="-3.05071">
        <ele>4</ele>
        <time>2024-05-07T15:41:24Z</time>
      </trkpt>
      <trkpt lat="47.57853" lon="-3.05073">
        <ele>4</ele>
        <time>2024-05-07T15:41:25Z</time>
      </trkpt>
      <trkpt lat="47.57853" lon="-3.05075">
        <ele>4</ele>
        <time>2024-05-07T15:41:26Z</time>
      </trkpt>
      <trkpt lat="47.57853" lon="-3.05077">
        <ele>4</ele>
        <time>2024-05-07T15:41:27Z</time>
      </trkpt>
      <trkpt lat="47.57852" lon="-3.05079">
        <ele>4</ele>
        <time>2024-05-07T15:41:28Z</time>
      </trkpt>
      <trkpt lat="47.57851" lon="-3.0508">
        <ele>3.8</ele>
        <time>2024-05-07T15:41:29Z</time>
      </trkpt>
      <trkpt lat="47.57851" lon="-3.05082">
        <ele>3.8</ele>
        <time>2024-05-07T15:41:30Z</time>
      </trkpt>
      <trkpt lat="47.57851" lon="-3.05084">
        <ele>3.8</ele>
        <time>2024-05-07T15:41:31Z</time>
      </trkpt>
      <trkpt lat="47.57851" lon="-3.05086">
        <ele>3.8</ele>
        <time>2024-05-07T15:41:32Z</time>
      </trkpt>
      <trkpt lat="47.57851" lon="-3.05088">
        <ele>3.8</ele>
        <time>2024-05-07T15:41:33Z</time>
      </trkpt>
      <trkpt lat="47.5785" lon="-3.0509">
        <ele>3.8</ele>
        <time>2024-05-07T15:41:34Z</time>
      </trkpt>
      <trkpt lat="47.5785" lon="-3.05092">
        <ele>3.8</ele>
        <time>2024-05-07T15:41:35Z</time>
      </trkpt>
      <trkpt lat="47.5785" lon="-3.05094">
        <ele>3.8</ele>
        <time>2024-05-07T15:41:36Z</time>
      </trkpt>
      <trkpt lat="47.57849" lon="-3.05096">
        <ele>3.8</ele>
        <time>2024-05-07T15:41:37Z</time>
      </trkpt>
      <trkpt lat="47.57848" lon="-3.05098">
        <ele>3.8</ele>
        <time>2024-05-07T15:41:38Z</time>
      </trkpt>
      <trkpt lat="47.57847" lon="-3.051">
        <ele>3.8</ele>
        <time>2024-05-07T15:41:39Z</time>
      </trkpt>
      <trkpt lat="47.57847" lon="-3.05101">
        <ele>3.8</ele>
        <time>2024-05-07T15:41:40Z</time>
      </trkpt>
      <trkpt lat="47.57847" lon="-3.05102">
        <ele>3.8</ele>
        <time>2024-05-07T15:41:41Z</time>
      </trkpt>
      <trkpt lat="47.57847" lon="-3.05103">
        <ele>3.6</ele>
        <time>2024-05-07T15:41:42Z</time>
      </trkpt>
      <trkpt lat="47.57846" lon="-3.05104">
        <ele>3.6</ele>
        <time>2024-05-07T15:41:43Z</time>
      </trkpt>
      <trkpt lat="47.57845" lon="-3.05106">
        <ele>3.6</ele>
        <time>2024-05-07T15:41:44Z</time>
      </trkpt>
      <trkpt lat="47.57844" lon="-3.05107">
        <ele>3.6</ele>
        <time>2024-05-07T15:41:45Z</time>
      </trkpt>
      <trkpt lat="47.57843" lon="-3.05109">
        <ele>3.6</ele>
        <time>2024-05-07T15:41:46Z</time>
      </trkpt>
      <trkpt lat="47.57842" lon="-3.05111">
        <ele>3.6</ele>
        <time>2024-05-07T15:41:47Z</time>
      </trkpt>
      <trkpt lat="47.57842" lon="-3.05113">
        <ele>3.6</ele>
        <time>2024-05-07T15:41:48Z</time>
      </trkpt>
      <trkpt lat="47.57841" lon="-3.05115">
        <ele>3.6</ele>
        <time>2024-05-07T15:41:49Z</time>
      </trkpt>
      <trkpt lat="47.57841" lon="-3.05117">
        <ele>3.6</ele>
        <time>2024-05-07T15:41:50Z</time>
      </trkpt>
      <trkpt lat="47.5784" lon="-3.05118">
        <ele>3.6</ele>
        <time>2024-05-07T15:41:51Z</time>
      </trkpt>
      <trkpt lat="47.5784" lon="-3.0512">
        <ele>3.6</ele>
        <time>2024-05-07T15:41:52Z</time>
      </trkpt>
      <trkpt lat="47.5784" lon="-3.05122">
        <ele>3.6</ele>
        <time>2024-05-07T15:41:53Z</time>
      </trkpt>
      <trkpt lat="47.5784" lon="-3.05124">
        <ele>3.6</ele>
        <time>2024-05-07T15:41:54Z</time>
      </trkpt>
      <trkpt lat="47.5784" lon="-3.05125">
        <ele>3.4</ele>
        <time>2024-05-07T15:41:55Z</time>
      </trkpt>
      <trkpt lat="47.5784" lon="-3.05126">
        <ele>3.4</ele>
        <time>2024-05-07T15:41:56Z</time>
      </trkpt>
      <trkpt lat="47.57839" lon="-3.05128">
        <ele>3.4</ele>
        <time>2024-05-07T15:41:57Z</time>
      </trkpt>
      <trkpt lat="47.57839" lon="-3.0513">
        <ele>3.4</ele>
        <time>2024-05-07T15:41:58Z</time>
      </trkpt>
      <trkpt lat="47.57838" lon="-3.05132">
        <ele>3.2</ele>
        <time>2024-05-07T15:41:59Z</time>
      </trkpt>
      <trkpt lat="47.57838" lon="-3.05135">
        <ele>3.2</ele>
        <time>2024-05-07T15:42:00Z</time>
      </trkpt>
      <trkpt lat="47.57838" lon="-3.05138">
        <ele>3.2</ele>
        <time>2024-05-07T15:42:01Z</time>
      </trkpt>
      <trkpt lat="47.57837" lon="-3.05141">
        <ele>3.2</ele>
        <time>2024-05-07T15:42:02Z</time>
      </trkpt>
      <trkpt lat="47.57836" lon="-3.05144">
        <ele>3.2</ele>
        <time>2024-05-07T15:42:03Z</time>
      </trkpt>
      <trkpt lat="47.57835" lon="-3.05147">
        <ele>3.2</ele>
        <time>2024-05-07T15:42:04Z</time>
      </trkpt>
      <trkpt lat="47.57835" lon="-3.05149">
        <ele>3.2</ele>
        <time>2024-05-07T15:42:05Z</time>
      </trkpt>
      <trkpt lat="47.57835" lon="-3.05151">
        <ele>3.2</ele>
        <time>2024-05-07T15:42:06Z</time>
      </trkpt>
      <trkpt lat="47.57835" lon="-3.05153">
        <ele>3.2</ele>
        <time>2024-05-07T15:42:07Z</time>
      </trkpt>
      <trkpt lat="47.57834" lon="-3.05154">
        <ele>3.2</ele>
        <time>2024-05-07T15:42:08Z</time>
      </trkpt>
      <trkpt lat="47.57834" lon="-3.05156">
        <ele>3.2</ele>
        <time>2024-05-07T15:42:09Z</time>
      </trkpt>
      <trkpt lat="47.57833" lon="-3.05158">
        <ele>3.2</ele>
        <time>2024-05-07T15:42:10Z</time>
      </trkpt>
      <trkpt lat="47.57834" lon="-3.05159">
        <ele>3.2</ele>
        <time>2024-05-07T15:42:11Z</time>
      </trkpt>
      <trkpt lat="47.57833" lon="-3.0516">
        <ele>3.2</ele>
        <time>2024-05-07T15:42:12Z</time>
      </trkpt>
      <trkpt lat="47.57833" lon="-3.05162">
        <ele>3.2</ele>
        <time>2024-05-07T15:42:13Z</time>
      </trkpt>
      <trkpt lat="47.57832" lon="-3.05163">
        <ele>3.2</ele>
        <time>2024-05-07T15:42:14Z</time>
      </trkpt>
      <trkpt lat="47.57832" lon="-3.05165">
        <ele>3.2</ele>
        <time>2024-05-07T15:42:15Z</time>
      </trkpt>
      <trkpt lat="47.57831" lon="-3.05167">
        <ele>3.2</ele>
        <time>2024-05-07T15:42:16Z</time>
      </trkpt>
      <trkpt lat="47.5783" lon="-3.05169">
        <ele>3.2</ele>
        <time>2024-05-07T15:42:17Z</time>
      </trkpt>
      <trkpt lat="47.5783" lon="-3.05171">
        <ele>3.2</ele>
        <time>2024-05-07T15:42:18Z</time>
      </trkpt>
      <trkpt lat="47.57829" lon="-3.05172">
        <ele>3.2</ele>
        <time>2024-05-07T15:42:19Z</time>
      </trkpt>
      <trkpt lat="47.57829" lon="-3.05174">
        <ele>3.2</ele>
        <time>2024-05-07T15:42:20Z</time>
      </trkpt>
      <trkpt lat="47.57829" lon="-3.05175">
        <ele>3.2</ele>
        <time>2024-05-07T15:42:21Z</time>
      </trkpt>
      <trkpt lat="47.57829" lon="-3.05177">
        <ele>3.2</ele>
        <time>2024-05-07T15:42:22Z</time>
      </trkpt>
      <trkpt lat="47.57829" lon="-3.05179">
        <ele>3.2</ele>
        <time>2024-05-07T15:42:23Z</time>
      </trkpt>
      <trkpt lat="47.57828" lon="-3.0518">
        <ele>3.2</ele>
        <time>2024-05-07T15:42:24Z</time>
      </trkpt>
      <trkpt lat="47.57828" lon="-3.05182">
        <ele>3.2</ele>
        <time>2024-05-07T15:42:25Z</time>
      </trkpt>
      <trkpt lat="47.57827" lon="-3.05184">
        <ele>3.2</ele>
        <time>2024-05-07T15:42:26Z</time>
      </trkpt>
      <trkpt lat="47.57826" lon="-3.05185">
        <ele>3</ele>
        <time>2024-05-07T15:42:27Z</time>
      </trkpt>
      <trkpt lat="47.57826" lon="-3.05187">
        <ele>3</ele>
        <time>2024-05-07T15:42:28Z</time>
      </trkpt>
      <trkpt lat="47.57825" lon="-3.05189">
        <ele>3</ele>
        <time>2024-05-07T15:42:29Z</time>
      </trkpt>
      <trkpt lat="47.57825" lon="-3.05192">
        <ele>2.8</ele>
        <time>2024-05-07T15:42:30Z</time>
      </trkpt>
      <trkpt lat="47.57824" lon="-3.05195">
        <ele>2.8</ele>
        <time>2024-05-07T15:42:31Z</time>
      </trkpt>
      <trkpt lat="47.57824" lon="-3.05198">
        <ele>2.8</ele>
        <time>2024-05-07T15:42:32Z</time>
      </trkpt>
      <trkpt lat="47.57823" lon="-3.052">
        <ele>2.8</ele>
        <time>2024-05-07T15:42:33Z</time>
      </trkpt>
      <trkpt lat="47.57823" lon="-3.05202">
        <ele>2.8</ele>
        <time>2024-05-07T15:42:34Z</time>
      </trkpt>
      <trkpt lat="47.57823" lon="-3.05203">
        <ele>2.8</ele>
        <time>2024-05-07T15:42:35Z</time>
      </trkpt>
      <trkpt lat="47.57822" lon="-3.05205">
        <ele>2.8</ele>
        <time>2024-05-07T15:42:36Z</time>
      </trkpt>
      <trkpt lat="47.57822" lon="-3.05207">
        <ele>2.8</ele>
        <time>2024-05-07T15:42:37Z</time>
      </trkpt>
      <trkpt lat="47.57821" lon="-3.05208">
        <ele>2.6</ele>
        <time>2024-05-07T15:42:38Z</time>
      </trkpt>
      <trkpt lat="47.57821" lon="-3.0521">
        <ele>3</ele>
        <time>2024-05-07T15:42:39Z</time>
      </trkpt>
      <trkpt lat="47.5782" lon="-3.05212">
        <ele>3</ele>
        <time>2024-05-07T15:42:40Z</time>
      </trkpt>
      <trkpt lat="47.57819" lon="-3.05214">
        <ele>2.8</ele>
        <time>2024-05-07T15:42:41Z</time>
      </trkpt>
      <trkpt lat="47.57818" lon="-3.05216">
        <ele>2.8</ele>
        <time>2024-05-07T15:42:42Z</time>
      </trkpt>
      <trkpt lat="47.57818" lon="-3.05217">
        <ele>2.8</ele>
        <time>2024-05-07T15:42:43Z</time>
      </trkpt>
      <trkpt lat="47.57817" lon="-3.05219">
        <ele>2.6</ele>
        <time>2024-05-07T15:42:44Z</time>
      </trkpt>
      <trkpt lat="47.57817" lon="-3.0522">
        <ele>2.6</ele>
        <time>2024-05-07T15:42:45Z</time>
      </trkpt>
      <trkpt lat="47.57816" lon="-3.05222">
        <ele>2.6</ele>
        <time>2024-05-07T15:42:46Z</time>
      </trkpt>
      <trkpt lat="47.57815" lon="-3.05224">
        <ele>2.6</ele>
        <time>2024-05-07T15:42:47Z</time>
      </trkpt>
      <trkpt lat="47.57815" lon="-3.05225">
        <ele>2.6</ele>
        <time>2024-05-07T15:42:48Z</time>
      </trkpt>
      <trkpt lat="47.57814" lon="-3.05227">
        <ele>2.6</ele>
        <time>2024-05-07T15:42:49Z</time>
      </trkpt>
      <trkpt lat="47.57813" lon="-3.05229">
        <ele>2.6</ele>
        <time>2024-05-07T15:42:50Z</time>
      </trkpt>
      <trkpt lat="47.57812" lon="-3.0523">
        <ele>2.6</ele>
        <time>2024-05-07T15:42:51Z</time>
      </trkpt>
      <trkpt lat="47.57812" lon="-3.05232">
        <ele>2.6</ele>
        <time>2024-05-07T15:42:52Z</time>
      </trkpt>
      <trkpt lat="47.57811" lon="-3.05233">
        <ele>2.6</ele>
        <time>2024-05-07T15:42:53Z</time>
      </trkpt>
      <trkpt lat="47.5781" lon="-3.05235">
        <ele>2.6</ele>
        <time>2024-05-07T15:42:54Z</time>
      </trkpt>
      <trkpt lat="47.5781" lon="-3.05236">
        <ele>2.6</ele>
        <time>2024-05-07T15:42:55Z</time>
      </trkpt>
      <trkpt lat="47.57809" lon="-3.05238">
        <ele>2.6</ele>
        <time>2024-05-07T15:42:56Z</time>
      </trkpt>
      <trkpt lat="47.57809" lon="-3.05239">
        <ele>2.6</ele>
        <time>2024-05-07T15:42:57Z</time>
      </trkpt>
      <trkpt lat="47.57809" lon="-3.0524">
        <ele>2.6</ele>
        <time>2024-05-07T15:42:58Z</time>
      </trkpt>
      <trkpt lat="47.57808" lon="-3.05241">
        <ele>2.6</ele>
        <time>2024-05-07T15:42:59Z</time>
      </trkpt>
      <trkpt lat="47.57806" lon="-3.05243">
        <ele>2.6</ele>
        <time>2024-05-07T15:43:00Z</time>
      </trkpt>
      <trkpt lat="47.57806" lon="-3.05245">
        <ele>2.6</ele>
        <time>2024-05-07T15:43:01Z</time>
      </trkpt>
      <trkpt lat="47.57805" lon="-3.05246">
        <ele>2.6</ele>
        <time>2024-05-07T15:43:02Z</time>
      </trkpt>
      <trkpt lat="47.57805" lon="-3.05248">
        <ele>2.6</ele>
        <time>2024-05-07T15:43:03Z</time>
      </trkpt>
      <trkpt lat="47.57804" lon="-3.0525">
        <ele>2.6</ele>
        <time>2024-05-07T15:43:04Z</time>
      </trkpt>
      <trkpt lat="47.57804" lon="-3.05251">
        <ele>2.6</ele>
        <time>2024-05-07T15:43:05Z</time>
      </trkpt>
      <trkpt lat="47.57803" lon="-3.05253">
        <ele>2.6</ele>
        <time>2024-05-07T15:43:06Z</time>
      </trkpt>
      <trkpt lat="47.57803" lon="-3.05254">
        <ele>2.6</ele>
        <time>2024-05-07T15:43:07Z</time>
      </trkpt>
      <trkpt lat="47.57802" lon="-3.05254">
        <ele>2.6</ele>
        <time>2024-05-07T15:43:08Z</time>
      </trkpt>
      <trkpt lat="47.57801" lon="-3.05255">
        <ele>2.6</ele>
        <time>2024-05-07T15:43:09Z</time>
      </trkpt>
      <trkpt lat="47.57801" lon="-3.05257">
        <ele>2.6</ele>
        <time>2024-05-07T15:43:10Z</time>
      </trkpt>
      <trkpt lat="47.57799" lon="-3.05259">
        <ele>2.8</ele>
        <time>2024-05-07T15:43:11Z</time>
      </trkpt>
      <trkpt lat="47.57798" lon="-3.0526">
        <ele>2.8</ele>
        <time>2024-05-07T15:43:12Z</time>
      </trkpt>
      <trkpt lat="47.57797" lon="-3.05261">
        <ele>2.8</ele>
        <time>2024-05-07T15:43:13Z</time>
      </trkpt>
      <trkpt lat="47.57796" lon="-3.05261">
        <ele>2.8</ele>
        <time>2024-05-07T15:43:14Z</time>
      </trkpt>
      <trkpt lat="47.57795" lon="-3.05262">
        <ele>2.8</ele>
        <time>2024-05-07T15:43:15Z</time>
      </trkpt>
      <trkpt lat="47.57795" lon="-3.05263">
        <ele>2.8</ele>
        <time>2024-05-07T15:43:16Z</time>
      </trkpt>
      <trkpt lat="47.57794" lon="-3.05265">
        <ele>2.8</ele>
        <time>2024-05-07T15:43:17Z</time>
      </trkpt>
      <trkpt lat="47.57793" lon="-3.05266">
        <ele>2.8</ele>
        <time>2024-05-07T15:43:18Z</time>
      </trkpt>
      <trkpt lat="47.57792" lon="-3.05268">
        <ele>2.8</ele>
        <time>2024-05-07T15:43:19Z</time>
      </trkpt>
      <trkpt lat="47.57792" lon="-3.05269">
        <ele>2.8</ele>
        <time>2024-05-07T15:43:20Z</time>
      </trkpt>
      <trkpt lat="47.57791" lon="-3.0527">
        <ele>2.8</ele>
        <time>2024-05-07T15:43:21Z</time>
      </trkpt>
      <trkpt lat="47.57791" lon="-3.05271">
        <ele>2.8</ele>
        <time>2024-05-07T15:43:22Z</time>
      </trkpt>
      <trkpt lat="47.5779" lon="-3.05272">
        <ele>2.8</ele>
        <time>2024-05-07T15:43:23Z</time>
      </trkpt>
      <trkpt lat="47.57789" lon="-3.05273">
        <ele>2.8</ele>
        <time>2024-05-07T15:43:24Z</time>
      </trkpt>
      <trkpt lat="47.57788" lon="-3.05274">
        <ele>2.8</ele>
        <time>2024-05-07T15:43:25Z</time>
      </trkpt>
      <trkpt lat="47.57788" lon="-3.05275">
        <ele>2.8</ele>
        <time>2024-05-07T15:43:26Z</time>
      </trkpt>
      <trkpt lat="47.57787" lon="-3.05275">
        <ele>2.8</ele>
        <time>2024-05-07T15:43:27Z</time>
      </trkpt>
      <trkpt lat="47.57786" lon="-3.05276">
        <ele>2.8</ele>
        <time>2024-05-07T15:43:28Z</time>
      </trkpt>
      <trkpt lat="47.57784" lon="-3.05277">
        <ele>2.8</ele>
        <time>2024-05-07T15:43:29Z</time>
      </trkpt>
      <trkpt lat="47.57784" lon="-3.05278">
        <ele>2.6</ele>
        <time>2024-05-07T15:43:30Z</time>
      </trkpt>
      <trkpt lat="47.57783" lon="-3.0528">
        <ele>2.6</ele>
        <time>2024-05-07T15:43:31Z</time>
      </trkpt>
      <trkpt lat="47.57783" lon="-3.0528">
        <ele>2.6</ele>
        <time>2024-05-07T15:43:32Z</time>
      </trkpt>
      <trkpt lat="47.57782" lon="-3.05281">
        <ele>2.6</ele>
        <time>2024-05-07T15:43:33Z</time>
      </trkpt>
      <trkpt lat="47.57781" lon="-3.05283">
        <ele>2.6</ele>
        <time>2024-05-07T15:43:34Z</time>
      </trkpt>
      <trkpt lat="47.57781" lon="-3.05284">
        <ele>2.4</ele>
        <time>2024-05-07T15:43:35Z</time>
      </trkpt>
      <trkpt lat="47.5778" lon="-3.05285">
        <ele>2.4</ele>
        <time>2024-05-07T15:43:36Z</time>
      </trkpt>
      <trkpt lat="47.5778" lon="-3.05287">
        <ele>2.4</ele>
        <time>2024-05-07T15:43:37Z</time>
      </trkpt>
      <trkpt lat="47.5778" lon="-3.05288">
        <ele>2.4</ele>
        <time>2024-05-07T15:43:38Z</time>
      </trkpt>
      <trkpt lat="47.5778" lon="-3.05291">
        <ele>2.4</ele>
        <time>2024-05-07T15:43:39Z</time>
      </trkpt>
      <trkpt lat="47.5778" lon="-3.05292">
        <ele>2.4</ele>
        <time>2024-05-07T15:43:40Z</time>
      </trkpt>
      <trkpt lat="47.57781" lon="-3.05294">
        <ele>2.4</ele>
        <time>2024-05-07T15:43:41Z</time>
      </trkpt>
      <trkpt lat="47.57782" lon="-3.05296">
        <ele>2.4</ele>
        <time>2024-05-07T15:43:42Z</time>
      </trkpt>
      <trkpt lat="47.57783" lon="-3.05296">
        <ele>2.6</ele>
        <time>2024-05-07T15:43:43Z</time>
      </trkpt>
      <trkpt lat="47.57784" lon="-3.05296">
        <ele>2.6</ele>
        <time>2024-05-07T15:43:44Z</time>
      </trkpt>
      <trkpt lat="47.57785" lon="-3.05296">
        <ele>2.6</ele>
        <time>2024-05-07T15:43:45Z</time>
      </trkpt>
      <trkpt lat="47.57785" lon="-3.05295">
        <ele>2.6</ele>
        <time>2024-05-07T15:43:46Z</time>
      </trkpt>
      <trkpt lat="47.57787" lon="-3.05294">
        <ele>2.8</ele>
        <time>2024-05-07T15:43:47Z</time>
      </trkpt>
      <trkpt lat="47.57788" lon="-3.05293">
        <ele>2.8</ele>
        <time>2024-05-07T15:43:48Z</time>
      </trkpt>
      <trkpt lat="47.57789" lon="-3.05293">
        <ele>3</ele>
        <time>2024-05-07T15:43:49Z</time>
      </trkpt>
      <trkpt lat="47.5779" lon="-3.05293">
        <ele>3</ele>
        <time>2024-05-07T15:43:50Z</time>
      </trkpt>
      <trkpt lat="47.5779" lon="-3.05295">
        <ele>3</ele>
        <time>2024-05-07T15:43:51Z</time>
      </trkpt>
      <trkpt lat="47.5779" lon="-3.05296">
        <ele>3</ele>
        <time>2024-05-07T15:43:52Z</time>
      </trkpt>
      <trkpt lat="47.5779" lon="-3.05299">
        <ele>3</ele>
        <time>2024-05-07T15:43:53Z</time>
      </trkpt>
      <trkpt lat="47.57791" lon="-3.053">
        <ele>3</ele>
        <time>2024-05-07T15:43:54Z</time>
      </trkpt>
      <trkpt lat="47.57791" lon="-3.05302">
        <ele>3</ele>
        <time>2024-05-07T15:43:55Z</time>
      </trkpt>
      <trkpt lat="47.57792" lon="-3.05303">
        <ele>3</ele>
        <time>2024-05-07T15:43:56Z</time>
      </trkpt>
      <trkpt lat="47.57793" lon="-3.05304">
        <ele>3</ele>
        <time>2024-05-07T15:43:57Z</time>
      </trkpt>
      <trkpt lat="47.57794" lon="-3.05306">
        <ele>3</ele>
        <time>2024-05-07T15:43:58Z</time>
      </trkpt>
      <trkpt lat="47.57795" lon="-3.05307">
        <ele>3</ele>
        <time>2024-05-07T15:43:59Z</time>
      </trkpt>
      <trkpt lat="47.57795" lon="-3.05309">
        <ele>3</ele>
        <time>2024-05-07T15:44:00Z</time>
      </trkpt>
      <trkpt lat="47.57795" lon="-3.05311">
        <ele>2.8</ele>
        <time>2024-05-07T15:44:01Z</time>
      </trkpt>
      <trkpt lat="47.57795" lon="-3.05313">
        <ele>2.8</ele>
        <time>2024-05-07T15:44:02Z</time>
      </trkpt>
      <trkpt lat="47.57795" lon="-3.05315">
        <ele>2.8</ele>
        <time>2024-05-07T15:44:03Z</time>
      </trkpt>
      <trkpt lat="47.57795" lon="-3.05317">
        <ele>2.8</ele>
        <time>2024-05-07T15:44:04Z</time>
      </trkpt>
      <trkpt lat="47.57794" lon="-3.05319">
        <ele>2.8</ele>
        <time>2024-05-07T15:44:05Z</time>
      </trkpt>
      <trkpt lat="47.57794" lon="-3.0532">
        <ele>3</ele>
        <time>2024-05-07T15:44:06Z</time>
      </trkpt>
      <trkpt lat="47.57794" lon="-3.05322">
        <ele>3</ele>
        <time>2024-05-07T15:44:07Z</time>
      </trkpt>
      <trkpt lat="47.57794" lon="-3.05324">
        <ele>3</ele>
        <time>2024-05-07T15:44:08Z</time>
      </trkpt>
      <trkpt lat="47.57793" lon="-3.05326">
        <ele>3</ele>
        <time>2024-05-07T15:44:09Z</time>
      </trkpt>
      <trkpt lat="47.57793" lon="-3.05328">
        <ele>3.2</ele>
        <time>2024-05-07T15:44:10Z</time>
      </trkpt>
      <trkpt lat="47.57791" lon="-3.0533">
        <ele>3.2</ele>
        <time>2024-05-07T15:44:11Z</time>
      </trkpt>
      <trkpt lat="47.5779" lon="-3.05332">
        <ele>3.2</ele>
        <time>2024-05-07T15:44:12Z</time>
      </trkpt>
      <trkpt lat="47.57788" lon="-3.05333">
        <ele>3.2</ele>
        <time>2024-05-07T15:44:13Z</time>
      </trkpt>
      <trkpt lat="47.57787" lon="-3.05333">
        <ele>3.2</ele>
        <time>2024-05-07T15:44:14Z</time>
      </trkpt>
      <trkpt lat="47.57786" lon="-3.05333">
        <ele>3.2</ele>
        <time>2024-05-07T15:44:15Z</time>
      </trkpt>
      <trkpt lat="47.57786" lon="-3.05334">
        <ele>3.2</ele>
        <time>2024-05-07T15:44:16Z</time>
      </trkpt>
      <trkpt lat="47.57785" lon="-3.05335">
        <ele>3.2</ele>
        <time>2024-05-07T15:44:17Z</time>
      </trkpt>
      <trkpt lat="47.57784" lon="-3.05336">
        <ele>3.2</ele>
        <time>2024-05-07T15:44:18Z</time>
      </trkpt>
      <trkpt lat="47.57784" lon="-3.05338">
        <ele>3.2</ele>
        <time>2024-05-07T15:44:19Z</time>
      </trkpt>
      <trkpt lat="47.57784" lon="-3.05341">
        <ele>3.2</ele>
        <time>2024-05-07T15:44:20Z</time>
      </trkpt>
      <trkpt lat="47.57785" lon="-3.05343">
        <ele>3.2</ele>
        <time>2024-05-07T15:44:21Z</time>
      </trkpt>
      <trkpt lat="47.57784" lon="-3.05345">
        <ele>3.2</ele>
        <time>2024-05-07T15:44:22Z</time>
      </trkpt>
      <trkpt lat="47.57783" lon="-3.05347">
        <ele>3.2</ele>
        <time>2024-05-07T15:44:23Z</time>
      </trkpt>
      <trkpt lat="47.57782" lon="-3.05349">
        <ele>3.2</ele>
        <time>2024-05-07T15:44:24Z</time>
      </trkpt>
      <trkpt lat="47.57782" lon="-3.05352">
        <ele>3.2</ele>
        <time>2024-05-07T15:44:25Z</time>
      </trkpt>
      <trkpt lat="47.57782" lon="-3.05354">
        <ele>3.2</ele>
        <time>2024-05-07T15:44:26Z</time>
      </trkpt>
      <trkpt lat="47.57781" lon="-3.05355">
        <ele>3.2</ele>
        <time>2024-05-07T15:44:27Z</time>
      </trkpt>
      <trkpt lat="47.5778" lon="-3.05357">
        <ele>3.4</ele>
        <time>2024-05-07T15:44:28Z</time>
      </trkpt>
      <trkpt lat="47.5778" lon="-3.05358">
        <ele>3.4</ele>
        <time>2024-05-07T15:44:29Z</time>
      </trkpt>
      <trkpt lat="47.57779" lon="-3.0536">
        <ele>3.4</ele>
        <time>2024-05-07T15:44:30Z</time>
      </trkpt>
      <trkpt lat="47.57778" lon="-3.05362">
        <ele>3.4</ele>
        <time>2024-05-07T15:44:31Z</time>
      </trkpt>
      <trkpt lat="47.57778" lon="-3.05364">
        <ele>3.6</ele>
        <time>2024-05-07T15:44:32Z</time>
      </trkpt>
      <trkpt lat="47.57777" lon="-3.05365">
        <ele>3.6</ele>
        <time>2024-05-07T15:44:33Z</time>
      </trkpt>
      <trkpt lat="47.57776" lon="-3.05366">
        <ele>3.6</ele>
        <time>2024-05-07T15:44:34Z</time>
      </trkpt>
      <trkpt lat="47.57775" lon="-3.05368">
        <ele>3.6</ele>
        <time>2024-05-07T15:44:35Z</time>
      </trkpt>
      <trkpt lat="47.57774" lon="-3.05369">
        <ele>3.6</ele>
        <time>2024-05-07T15:44:36Z</time>
      </trkpt>
      <trkpt lat="47.57774" lon="-3.05371">
        <ele>3.6</ele>
        <time>2024-05-07T15:44:37Z</time>
      </trkpt>
      <trkpt lat="47.57773" lon="-3.05374">
        <ele>3.6</ele>
        <time>2024-05-07T15:44:38Z</time>
      </trkpt>
      <trkpt lat="47.57773" lon="-3.05376">
        <ele>3.6</ele>
        <time>2024-05-07T15:44:39Z</time>
      </trkpt>
      <trkpt lat="47.57772" lon="-3.05379">
        <ele>3.6</ele>
        <time>2024-05-07T15:44:40Z</time>
      </trkpt>
      <trkpt lat="47.57772" lon="-3.05381">
        <ele>3.6</ele>
        <time>2024-05-07T15:44:41Z</time>
      </trkpt>
      <trkpt lat="47.57771" lon="-3.05382">
        <ele>3.6</ele>
        <time>2024-05-07T15:44:42Z</time>
      </trkpt>
      <trkpt lat="47.5777" lon="-3.05384">
        <ele>3.6</ele>
        <time>2024-05-07T15:44:43Z</time>
      </trkpt>
      <trkpt lat="47.57769" lon="-3.05385">
        <ele>3.6</ele>
        <time>2024-05-07T15:44:44Z</time>
      </trkpt>
      <trkpt lat="47.57768" lon="-3.05386">
        <ele>3.6</ele>
        <time>2024-05-07T15:44:45Z</time>
      </trkpt>
      <trkpt lat="47.57768" lon="-3.05388">
        <ele>3.6</ele>
        <time>2024-05-07T15:44:46Z</time>
      </trkpt>
      <trkpt lat="47.57767" lon="-3.05389">
        <ele>3.6</ele>
        <time>2024-05-07T15:44:47Z</time>
      </trkpt>
      <trkpt lat="47.57767" lon="-3.0539">
        <ele>3.6</ele>
        <time>2024-05-07T15:44:48Z</time>
      </trkpt>
      <trkpt lat="47.57766" lon="-3.0539">
        <ele>3.6</ele>
        <time>2024-05-07T15:44:49Z</time>
      </trkpt>
      <trkpt lat="47.57766" lon="-3.05392">
        <ele>3.6</ele>
        <time>2024-05-07T15:44:50Z</time>
      </trkpt>
      <trkpt lat="47.57766" lon="-3.05394">
        <ele>3.6</ele>
        <time>2024-05-07T15:44:51Z</time>
      </trkpt>
      <trkpt lat="47.57765" lon="-3.05397">
        <ele>3.6</ele>
        <time>2024-05-07T15:44:52Z</time>
      </trkpt>
      <trkpt lat="47.57764" lon="-3.05399">
        <ele>3.6</ele>
        <time>2024-05-07T15:44:53Z</time>
      </trkpt>
      <trkpt lat="47.57764" lon="-3.05402">
        <ele>3.8</ele>
        <time>2024-05-07T15:44:54Z</time>
      </trkpt>
      <trkpt lat="47.57764" lon="-3.05403">
        <ele>3.8</ele>
        <time>2024-05-07T15:44:55Z</time>
      </trkpt>
      <trkpt lat="47.57765" lon="-3.05406">
        <ele>3.8</ele>
        <time>2024-05-07T15:44:56Z</time>
      </trkpt>
      <trkpt lat="47.57765" lon="-3.05408">
        <ele>3.8</ele>
        <time>2024-05-07T15:44:57Z</time>
      </trkpt>
      <trkpt lat="47.57766" lon="-3.05409">
        <ele>3.8</ele>
        <time>2024-05-07T15:44:58Z</time>
      </trkpt>
      <trkpt lat="47.57766" lon="-3.0541">
        <ele>4</ele>
        <time>2024-05-07T15:44:59Z</time>
      </trkpt>
      <trkpt lat="47.57767" lon="-3.05411">
        <ele>4</ele>
        <time>2024-05-07T15:45:00Z</time>
      </trkpt>
      <trkpt lat="47.57768" lon="-3.05412">
        <ele>4</ele>
        <time>2024-05-07T15:45:01Z</time>
      </trkpt>
      <trkpt lat="47.57769" lon="-3.05414">
        <ele>4.2</ele>
        <time>2024-05-07T15:45:02Z</time>
      </trkpt>
      <trkpt lat="47.57771" lon="-3.05415">
        <ele>4.2</ele>
        <time>2024-05-07T15:45:03Z</time>
      </trkpt>
      <trkpt lat="47.57771" lon="-3.05416">
        <ele>4.4</ele>
        <time>2024-05-07T15:45:04Z</time>
      </trkpt>
      <trkpt lat="47.57773" lon="-3.05416">
        <ele>4.4</ele>
        <time>2024-05-07T15:45:05Z</time>
      </trkpt>
      <trkpt lat="47.57774" lon="-3.05416">
        <ele>4.4</ele>
        <time>2024-05-07T15:45:06Z</time>
      </trkpt>
      <trkpt lat="47.57775" lon="-3.05417">
        <ele>4.6</ele>
        <time>2024-05-07T15:45:07Z</time>
      </trkpt>
      <trkpt lat="47.57776" lon="-3.05417">
        <ele>4.6</ele>
        <time>2024-05-07T15:45:08Z</time>
      </trkpt>
      <trkpt lat="47.57777" lon="-3.05418">
        <ele>4.8</ele>
        <time>2024-05-07T15:45:09Z</time>
      </trkpt>
      <trkpt lat="47.57779" lon="-3.05419">
        <ele>4.8</ele>
        <time>2024-05-07T15:45:10Z</time>
      </trkpt>
      <trkpt lat="47.5778" lon="-3.05419">
        <ele>5</ele>
        <time>2024-05-07T15:45:11Z</time>
      </trkpt>
      <trkpt lat="47.57781" lon="-3.0542">
        <ele>5</ele>
        <time>2024-05-07T15:45:12Z</time>
      </trkpt>
      <trkpt lat="47.57781" lon="-3.05421">
        <ele>5</ele>
        <time>2024-05-07T15:45:13Z</time>
      </trkpt>
      <trkpt lat="47.57782" lon="-3.05422">
        <ele>5.2</ele>
        <time>2024-05-07T15:45:14Z</time>
      </trkpt>
      <trkpt lat="47.57783" lon="-3.05423">
        <ele>5.2</ele>
        <time>2024-05-07T15:45:15Z</time>
      </trkpt>
      <trkpt lat="47.57784" lon="-3.05423">
        <ele>5.4</ele>
        <time>2024-05-07T15:45:16Z</time>
      </trkpt>
      <trkpt lat="47.57785" lon="-3.05424">
        <ele>5.4</ele>
        <time>2024-05-07T15:45:17Z</time>
      </trkpt>
      <trkpt lat="47.57786" lon="-3.05424">
        <ele>5.6</ele>
        <time>2024-05-07T15:45:18Z</time>
      </trkpt>
      <trkpt lat="47.57787" lon="-3.05425">
        <ele>5.6</ele>
        <time>2024-05-07T15:45:19Z</time>
      </trkpt>
      <trkpt lat="47.57788" lon="-3.05426">
        <ele>5.6</ele>
        <time>2024-05-07T15:45:20Z</time>
      </trkpt>
      <trkpt lat="47.57789" lon="-3.05426">
        <ele>5.8</ele>
        <time>2024-05-07T15:45:21Z</time>
      </trkpt>
      <trkpt lat="47.5779" lon="-3.05427">
        <ele>5.8</ele>
        <time>2024-05-07T15:45:22Z</time>
      </trkpt>
      <trkpt lat="47.57792" lon="-3.05429">
        <ele>5.8</ele>
        <time>2024-05-07T15:45:23Z</time>
      </trkpt>
      <trkpt lat="47.57793" lon="-3.05432">
        <ele>5.8</ele>
        <time>2024-05-07T15:45:24Z</time>
      </trkpt>
      <trkpt lat="47.57794" lon="-3.05433">
        <ele>6</ele>
        <time>2024-05-07T15:45:25Z</time>
      </trkpt>
      <trkpt lat="47.57795" lon="-3.05434">
        <ele>6</ele>
        <time>2024-05-07T15:45:26Z</time>
      </trkpt>
      <trkpt lat="47.57796" lon="-3.05434">
        <ele>6</ele>
        <time>2024-05-07T15:45:27Z</time>
      </trkpt>
      <trkpt lat="47.57798" lon="-3.05434">
        <ele>6</ele>
        <time>2024-05-07T15:45:28Z</time>
      </trkpt>
      <trkpt lat="47.57799" lon="-3.05435">
        <ele>6</ele>
        <time>2024-05-07T15:45:29Z</time>
      </trkpt>
      <trkpt lat="47.57801" lon="-3.05435">
        <ele>6.2</ele>
        <time>2024-05-07T15:45:30Z</time>
      </trkpt>
      <trkpt lat="47.57802" lon="-3.05436">
        <ele>6.2</ele>
        <time>2024-05-07T15:45:31Z</time>
      </trkpt>
      <trkpt lat="47.57802" lon="-3.05437">
        <ele>6.2</ele>
        <time>2024-05-07T15:45:32Z</time>
      </trkpt>
      <trkpt lat="47.57803" lon="-3.05437">
        <ele>6.2</ele>
        <time>2024-05-07T15:45:33Z</time>
      </trkpt>
      <trkpt lat="47.57804" lon="-3.05438">
        <ele>6.4</ele>
        <time>2024-05-07T15:45:34Z</time>
      </trkpt>
      <trkpt lat="47.57805" lon="-3.05439">
        <ele>6.4</ele>
        <time>2024-05-07T15:45:35Z</time>
      </trkpt>
      <trkpt lat="47.57806" lon="-3.0544">
        <ele>6.6</ele>
        <time>2024-05-07T15:45:36Z</time>
      </trkpt>
      <trkpt lat="47.57807" lon="-3.05441">
        <ele>6.8</ele>
        <time>2024-05-07T15:45:37Z</time>
      </trkpt>
      <trkpt lat="47.57808" lon="-3.05441">
        <ele>7</ele>
        <time>2024-05-07T15:45:38Z</time>
      </trkpt>
      <trkpt lat="47.57809" lon="-3.05441">
        <ele>7.2</ele>
        <time>2024-05-07T15:45:39Z</time>
      </trkpt>
      <trkpt lat="47.5781" lon="-3.05442">
        <ele>7.2</ele>
        <time>2024-05-07T15:45:40Z</time>
      </trkpt>
      <trkpt lat="47.57811" lon="-3.05442">
        <ele>7.4</ele>
        <time>2024-05-07T15:45:41Z</time>
      </trkpt>
      <trkpt lat="47.57812" lon="-3.05443">
        <ele>7.4</ele>
        <time>2024-05-07T15:45:42Z</time>
      </trkpt>
      <trkpt lat="47.57813" lon="-3.05444">
        <ele>7.4</ele>
        <time>2024-05-07T15:45:43Z</time>
      </trkpt>
      <trkpt lat="47.57814" lon="-3.05444">
        <ele>7.6</ele>
        <time>2024-05-07T15:45:44Z</time>
      </trkpt>
      <trkpt lat="47.57815" lon="-3.05444">
        <ele>7.6</ele>
        <time>2024-05-07T15:45:45Z</time>
      </trkpt>
      <trkpt lat="47.57817" lon="-3.05443">
        <ele>7.6</ele>
        <time>2024-05-07T15:45:46Z</time>
      </trkpt>
      <trkpt lat="47.57818" lon="-3.05442">
        <ele>7.6</ele>
        <time>2024-05-07T15:45:47Z</time>
      </trkpt>
      <trkpt lat="47.57818" lon="-3.05441">
        <ele>7.6</ele>
        <time>2024-05-07T15:45:48Z</time>
      </trkpt>
      <trkpt lat="47.57818" lon="-3.05439">
        <ele>7.8</ele>
        <time>2024-05-07T15:45:49Z</time>
      </trkpt>
      <trkpt lat="47.57819" lon="-3.05438">
        <ele>7.8</ele>
        <time>2024-05-07T15:45:50Z</time>
      </trkpt>
      <trkpt lat="47.57819" lon="-3.05436">
        <ele>8</ele>
        <time>2024-05-07T15:45:51Z</time>
      </trkpt>
      <trkpt lat="47.5782" lon="-3.05435">
        <ele>8</ele>
        <time>2024-05-07T15:45:52Z</time>
      </trkpt>
      <trkpt lat="47.57821" lon="-3.05433">
        <ele>8.2</ele>
        <time>2024-05-07T15:45:53Z</time>
      </trkpt>
      <trkpt lat="47.57822" lon="-3.05431">
        <ele>8.2</ele>
        <time>2024-05-07T15:45:54Z</time>
      </trkpt>
      <trkpt lat="47.57823" lon="-3.05429">
        <ele>8.4</ele>
        <time>2024-05-07T15:45:55Z</time>
      </trkpt>
      <trkpt lat="47.57824" lon="-3.05427">
        <ele>8.4</ele>
        <time>2024-05-07T15:45:56Z</time>
      </trkpt>
      <trkpt lat="47.57824" lon="-3.05426">
        <ele>8.6</ele>
        <time>2024-05-07T15:45:57Z</time>
      </trkpt>
      <trkpt lat="47.57822" lon="-3.05424">
        <ele>8.6</ele>
        <time>2024-05-07T15:45:58Z</time>
      </trkpt>
      <trkpt lat="47.57822" lon="-3.05423">
        <ele>8.6</ele>
        <time>2024-05-07T15:45:59Z</time>
      </trkpt>
      <trkpt lat="47.57822" lon="-3.05421">
        <ele>8.8</ele>
        <time>2024-05-07T15:46:00Z</time>
      </trkpt>
      <trkpt lat="47.57822" lon="-3.05418">
        <ele>8.8</ele>
        <time>2024-05-07T15:46:01Z</time>
      </trkpt>
      <trkpt lat="47.57822" lon="-3.05417">
        <ele>8.8</ele>
        <time>2024-05-07T15:46:02Z</time>
      </trkpt>
      <trkpt lat="47.57822" lon="-3.05415">
        <ele>8.8</ele>
        <time>2024-05-07T15:46:03Z</time>
      </trkpt>
      <trkpt lat="47.57822" lon="-3.05413">
        <ele>8.8</ele>
        <time>2024-05-07T15:46:04Z</time>
      </trkpt>
      <trkpt lat="47.57822" lon="-3.05411">
        <ele>8.8</ele>
        <time>2024-05-07T15:46:05Z</time>
      </trkpt>
      <trkpt lat="47.57822" lon="-3.0541">
        <ele>8.8</ele>
        <time>2024-05-07T15:46:06Z</time>
      </trkpt>
      <trkpt lat="47.57822" lon="-3.05409">
        <ele>8.8</ele>
        <time>2024-05-07T15:46:07Z</time>
      </trkpt>
      <trkpt lat="47.57822" lon="-3.05407">
        <ele>8.8</ele>
        <time>2024-05-07T15:46:08Z</time>
      </trkpt>
      <trkpt lat="47.57822" lon="-3.05405">
        <ele>9</ele>
        <time>2024-05-07T15:46:09Z</time>
      </trkpt>
      <trkpt lat="47.57822" lon="-3.05403">
        <ele>9</ele>
        <time>2024-05-07T15:46:10Z</time>
      </trkpt>
      <trkpt lat="47.57823" lon="-3.054">
        <ele>8.8</ele>
        <time>2024-05-07T15:46:11Z</time>
      </trkpt>
      <trkpt lat="47.57822" lon="-3.05398">
        <ele>8.8</ele>
        <time>2024-05-07T15:46:12Z</time>
      </trkpt>
      <trkpt lat="47.57822" lon="-3.05396">
        <ele>8.8</ele>
        <time>2024-05-07T15:46:13Z</time>
      </trkpt>
      <trkpt lat="47.57822" lon="-3.05393">
        <ele>8.6</ele>
        <time>2024-05-07T15:46:14Z</time>
      </trkpt>
      <trkpt lat="47.57822" lon="-3.05391">
        <ele>8.6</ele>
        <time>2024-05-07T15:46:15Z</time>
      </trkpt>
      <trkpt lat="47.57821" lon="-3.0539">
        <ele>8.6</ele>
        <time>2024-05-07T15:46:16Z</time>
      </trkpt>
      <trkpt lat="47.57821" lon="-3.05389">
        <ele>8.4</ele>
        <time>2024-05-07T15:46:17Z</time>
      </trkpt>
      <trkpt lat="47.57821" lon="-3.05387">
        <ele>8.4</ele>
        <time>2024-05-07T15:46:18Z</time>
      </trkpt>
      <trkpt lat="47.57821" lon="-3.05385">
        <ele>8</ele>
        <time>2024-05-07T15:46:19Z</time>
      </trkpt>
      <trkpt lat="47.57821" lon="-3.05384">
        <ele>7.8</ele>
        <time>2024-05-07T15:46:20Z</time>
      </trkpt>
      <trkpt lat="47.57821" lon="-3.05382">
        <ele>7.6</ele>
        <time>2024-05-07T15:46:21Z</time>
      </trkpt>
      <trkpt lat="47.57821" lon="-3.0538">
        <ele>7.6</ele>
        <time>2024-05-07T15:46:22Z</time>
      </trkpt>
      <trkpt lat="47.57821" lon="-3.05378">
        <ele>7.4</ele>
        <time>2024-05-07T15:46:23Z</time>
      </trkpt>
      <trkpt lat="47.57821" lon="-3.05376">
        <ele>7.4</ele>
        <time>2024-05-07T15:46:24Z</time>
      </trkpt>
      <trkpt lat="47.57822" lon="-3.05374">
        <ele>7.4</ele>
        <time>2024-05-07T15:46:25Z</time>
      </trkpt>
      <trkpt lat="47.57822" lon="-3.05371">
        <ele>7.2</ele>
        <time>2024-05-07T15:46:26Z</time>
      </trkpt>
      <trkpt lat="47.57823" lon="-3.05369">
        <ele>7</ele>
        <time>2024-05-07T15:46:27Z</time>
      </trkpt>
      <trkpt lat="47.57823" lon="-3.05366">
        <ele>7</ele>
        <time>2024-05-07T15:46:28Z</time>
      </trkpt>
      <trkpt lat="47.57823" lon="-3.05364">
        <ele>7</ele>
        <time>2024-05-07T15:46:29Z</time>
      </trkpt>
      <trkpt lat="47.57823" lon="-3.05363">
        <ele>6.8</ele>
        <time>2024-05-07T15:46:30Z</time>
      </trkpt>
      <trkpt lat="47.57824" lon="-3.05362">
        <ele>6.8</ele>
        <time>2024-05-07T15:46:31Z</time>
      </trkpt>
      <trkpt lat="47.57824" lon="-3.05361">
        <ele>6.6</ele>
        <time>2024-05-07T15:46:32Z</time>
      </trkpt>
      <trkpt lat="47.57824" lon="-3.0536">
        <ele>6.6</ele>
        <time>2024-05-07T15:46:33Z</time>
      </trkpt>
      <trkpt lat="47.57824" lon="-3.0536">
        <ele>6.6</ele>
        <time>2024-05-07T15:46:34Z</time>
      </trkpt>
      <trkpt lat="47.57824" lon="-3.05359">
        <ele>6.4</ele>
        <time>2024-05-07T15:46:35Z</time>
      </trkpt>
      <trkpt lat="47.57825" lon="-3.05357">
        <ele>6.4</ele>
        <time>2024-05-07T15:46:36Z</time>
      </trkpt>
      <trkpt lat="47.57825" lon="-3.05355">
        <ele>6.4</ele>
        <time>2024-05-07T15:46:37Z</time>
      </trkpt>
      <trkpt lat="47.57827" lon="-3.05353">
        <ele>6.4</ele>
        <time>2024-05-07T15:46:38Z</time>
      </trkpt>
      <trkpt lat="47.57828" lon="-3.0535">
        <ele>6.4</ele>
        <time>2024-05-07T15:46:39Z</time>
      </trkpt>
      <trkpt lat="47.57828" lon="-3.05346">
        <ele>6.4</ele>
        <time>2024-05-07T15:46:40Z</time>
      </trkpt>
      <trkpt lat="47.57829" lon="-3.05343">
        <ele>6.4</ele>
        <time>2024-05-07T15:46:41Z</time>
      </trkpt>
      <trkpt lat="47.57829" lon="-3.05341">
        <ele>6.2</ele>
        <time>2024-05-07T15:46:42Z</time>
      </trkpt>
      <trkpt lat="47.57829" lon="-3.05339">
        <ele>6.2</ele>
        <time>2024-05-07T15:46:43Z</time>
      </trkpt>
      <trkpt lat="47.57829" lon="-3.05339">
        <ele>6.2</ele>
        <time>2024-05-07T15:46:44Z</time>
      </trkpt>
      <trkpt lat="47.5783" lon="-3.05339">
        <ele>6</ele>
        <time>2024-05-07T15:46:45Z</time>
      </trkpt>
      <trkpt lat="47.5783" lon="-3.05338">
        <ele>6</ele>
        <time>2024-05-07T15:46:46Z</time>
      </trkpt>
      <trkpt lat="47.57831" lon="-3.05337">
        <ele>6</ele>
        <time>2024-05-07T15:46:47Z</time>
      </trkpt>
      <trkpt lat="47.57831" lon="-3.05336">
        <ele>6</ele>
        <time>2024-05-07T15:46:48Z</time>
      </trkpt>
      <trkpt lat="47.57833" lon="-3.05334">
        <ele>6</ele>
        <time>2024-05-07T15:46:49Z</time>
      </trkpt>
      <trkpt lat="47.57833" lon="-3.05331">
        <ele>5.8</ele>
        <time>2024-05-07T15:46:50Z</time>
      </trkpt>
      <trkpt lat="47.57834" lon="-3.05328">
        <ele>5.8</ele>
        <time>2024-05-07T15:46:51Z</time>
      </trkpt>
      <trkpt lat="47.57835" lon="-3.05326">
        <ele>5.8</ele>
        <time>2024-05-07T15:46:52Z</time>
      </trkpt>
      <trkpt lat="47.57835" lon="-3.05325">
        <ele>5.8</ele>
        <time>2024-05-07T15:46:53Z</time>
      </trkpt>
      <trkpt lat="47.57836" lon="-3.05324">
        <ele>5.8</ele>
        <time>2024-05-07T15:46:54Z</time>
      </trkpt>
      <trkpt lat="47.57836" lon="-3.05323">
        <ele>5.8</ele>
        <time>2024-05-07T15:46:55Z</time>
      </trkpt>
      <trkpt lat="47.57837" lon="-3.05322">
        <ele>5.8</ele>
        <time>2024-05-07T15:46:56Z</time>
      </trkpt>
      <trkpt lat="47.57837" lon="-3.05321">
        <ele>5.8</ele>
        <time>2024-05-07T15:46:57Z</time>
      </trkpt>
      <trkpt lat="47.57837" lon="-3.05319">
        <ele>5.6</ele>
        <time>2024-05-07T15:46:58Z</time>
      </trkpt>
      <trkpt lat="47.57838" lon="-3.05318">
        <ele>5.4</ele>
        <time>2024-05-07T15:46:59Z</time>
      </trkpt>
      <trkpt lat="47.57838" lon="-3.05315">
        <ele>5.4</ele>
        <time>2024-05-07T15:47:00Z</time>
      </trkpt>
      <trkpt lat="47.57839" lon="-3.05313">
        <ele>5.2</ele>
        <time>2024-05-07T15:47:01Z</time>
      </trkpt>
      <trkpt lat="47.57839" lon="-3.05311">
        <ele>5.2</ele>
        <time>2024-05-07T15:47:02Z</time>
      </trkpt>
      <trkpt lat="47.5784" lon="-3.0531">
        <ele>5.2</ele>
        <time>2024-05-07T15:47:03Z</time>
      </trkpt>
      <trkpt lat="47.57841" lon="-3.05309">
        <ele>5.2</ele>
        <time>2024-05-07T15:47:04Z</time>
      </trkpt>
      <trkpt lat="47.57841" lon="-3.05308">
        <ele>5.2</ele>
        <time>2024-05-07T15:47:05Z</time>
      </trkpt>
      <trkpt lat="47.57842" lon="-3.05307">
        <ele>5</ele>
        <time>2024-05-07T15:47:06Z</time>
      </trkpt>
      <trkpt lat="47.57842" lon="-3.05306">
        <ele>4.8</ele>
        <time>2024-05-07T15:47:07Z</time>
      </trkpt>
      <trkpt lat="47.57843" lon="-3.05304">
        <ele>4.6</ele>
        <time>2024-05-07T15:47:08Z</time>
      </trkpt>
      <trkpt lat="47.57844" lon="-3.05302">
        <ele>4.6</ele>
        <time>2024-05-07T15:47:09Z</time>
      </trkpt>
      <trkpt lat="47.57845" lon="-3.053">
        <ele>4.6</ele>
        <time>2024-05-07T15:47:10Z</time>
      </trkpt>
      <trkpt lat="47.57846" lon="-3.05299">
        <ele>4.6</ele>
        <time>2024-05-07T15:47:11Z</time>
      </trkpt>
      <trkpt lat="47.57846" lon="-3.05298">
        <ele>4.6</ele>
        <time>2024-05-07T15:47:12Z</time>
      </trkpt>
      <trkpt lat="47.57847" lon="-3.05297">
        <ele>4.4</ele>
        <time>2024-05-07T15:47:13Z</time>
      </trkpt>
      <trkpt lat="47.57847" lon="-3.05297">
        <ele>4.4</ele>
        <time>2024-05-07T15:47:14Z</time>
      </trkpt>
      <trkpt lat="47.57848" lon="-3.05296">
        <ele>4.4</ele>
        <time>2024-05-07T15:47:15Z</time>
      </trkpt>
      <trkpt lat="47.57848" lon="-3.05295">
        <ele>4.4</ele>
        <time>2024-05-07T15:47:16Z</time>
      </trkpt>
      <trkpt lat="47.57849" lon="-3.05294">
        <ele>4.4</ele>
        <time>2024-05-07T15:47:17Z</time>
      </trkpt>
      <trkpt lat="47.57849" lon="-3.05294">
        <ele>4.4</ele>
        <time>2024-05-07T15:47:18Z</time>
      </trkpt>
      <trkpt lat="47.57849" lon="-3.05294">
        <ele>4.4</ele>
        <time>2024-05-07T15:47:19Z</time>
      </trkpt>
      <trkpt lat="47.57849" lon="-3.05294">
        <ele>4.4</ele>
        <time>2024-05-07T15:47:20Z</time>
      </trkpt>
      <trkpt lat="47.57849" lon="-3.05293">
        <ele>4.6</ele>
        <time>2024-05-07T15:47:21Z</time>
      </trkpt>
      <trkpt lat="47.5785" lon="-3.05293">
        <ele>4.6</ele>
        <time>2024-05-07T15:47:22Z</time>
      </trkpt>
      <trkpt lat="47.57849" lon="-3.05294">
        <ele>4.6</ele>
        <time>2024-05-07T15:47:23Z</time>
      </trkpt>
      <trkpt lat="47.5785" lon="-3.05293">
        <ele>4.6</ele>
        <time>2024-05-07T15:47:24Z</time>
      </trkpt>
      <trkpt lat="47.57851" lon="-3.05292">
        <ele>4.6</ele>
        <time>2024-05-07T15:47:25Z</time>
      </trkpt>
      <trkpt lat="47.57851" lon="-3.05291">
        <ele>4.6</ele>
        <time>2024-05-07T15:47:26Z</time>
      </trkpt>
      <trkpt lat="47.57851" lon="-3.0529">
        <ele>4.6</ele>
        <time>2024-05-07T15:47:27Z</time>
      </trkpt>
      <trkpt lat="47.57851" lon="-3.0529">
        <ele>4.6</ele>
        <time>2024-05-07T15:47:28Z</time>
      </trkpt>
      <trkpt lat="47.57851" lon="-3.0529">
        <ele>4.8</ele>
        <time>2024-05-07T15:47:29Z</time>
      </trkpt>
      <trkpt lat="47.57851" lon="-3.0529">
        <ele>4.8</ele>
        <time>2024-05-07T15:47:30Z</time>
      </trkpt>
      <trkpt lat="47.57852" lon="-3.0529">
        <ele>4.8</ele>
        <time>2024-05-07T15:47:31Z</time>
      </trkpt>
      <trkpt lat="47.57851" lon="-3.05291">
        <ele>4.6</ele>
        <time>2024-05-07T15:47:32Z</time>
      </trkpt>
      <trkpt lat="47.57851" lon="-3.05291">
        <ele>4.6</ele>
        <time>2024-05-07T15:47:33Z</time>
      </trkpt>
      <trkpt lat="47.57851" lon="-3.05291">
        <ele>4.6</ele>
        <time>2024-05-07T15:47:34Z</time>
      </trkpt>
      <trkpt lat="47.57851" lon="-3.05291">
        <ele>4.6</ele>
        <time>2024-05-07T15:47:35Z</time>
      </trkpt>
      <trkpt lat="47.57851" lon="-3.05291">
        <ele>4.6</ele>
        <time>2024-05-07T15:47:36Z</time>
      </trkpt>
      <trkpt lat="47.57851" lon="-3.05291">
        <ele>4.6</ele>
        <time>2024-05-07T15:47:37Z</time>
      </trkpt>
      <trkpt lat="47.57851" lon="-3.05291">
        <ele>4.6</ele>
        <time>2024-05-07T15:47:38Z</time>
      </trkpt>
      <trkpt lat="47.57851" lon="-3.05291">
        <ele>4.6</ele>
        <time>2024-05-07T15:47:39Z</time>
      </trkpt>
      <trkpt lat="47.57851" lon="-3.05291">
        <ele>4.6</ele>
        <time>2024-05-07T15:47:40Z</time>
      </trkpt>
      <trkpt lat="47.57851" lon="-3.05291">
        <ele>4.6</ele>
        <time>2024-05-07T15:47:41Z</time>
      </trkpt>
      <trkpt lat="47.57851" lon="-3.05291">
        <ele>4.6</ele>
        <time>2024-05-07T15:47:42Z</time>
      </trkpt>
      <trkpt lat="47.57851" lon="-3.05291">
        <ele>4.6</ele>
        <time>2024-05-07T15:47:43Z</time>
      </trkpt>
      <trkpt lat="47.57851" lon="-3.05291">
        <ele>4.6</ele>
        <time>2024-05-07T15:47:44Z</time>
      </trkpt>
      <trkpt lat="47.57851" lon="-3.05291">
        <ele>4.6</ele>
        <time>2024-05-07T15:47:45Z</time>
      </trkpt>
      <trkpt lat="47.57851" lon="-3.05291">
        <ele>4.6</ele>
        <time>2024-05-07T15:47:46Z</time>
      </trkpt>
      <trkpt lat="47.57851" lon="-3.05291">
        <ele>4.6</ele>
        <time>2024-05-07T15:47:47Z</time>
      </trkpt>
      <trkpt lat="47.57851" lon="-3.05291">
        <ele>4.6</ele>
        <time>2024-05-07T15:47:48Z</time>
      </trkpt>
      <trkpt lat="47.57851" lon="-3.05291">
        <ele>4.6</ele>
        <time>2024-05-07T15:47:49Z</time>
      </trkpt>
      <trkpt lat="47.57851" lon="-3.0529">
        <ele>4.6</ele>
        <time>2024-05-07T15:47:50Z</time>
      </trkpt>
      <trkpt lat="47.5785" lon="-3.05288">
        <ele>4.4</ele>
        <time>2024-05-07T15:47:51Z</time>
      </trkpt>
      <trkpt lat="47.5785" lon="-3.05287">
        <ele>4.4</ele>
        <time>2024-05-07T15:47:52Z</time>
      </trkpt>
      <trkpt lat="47.5785" lon="-3.05285">
        <ele>4.4</ele>
        <time>2024-05-07T15:47:53Z</time>
      </trkpt>
      <trkpt lat="47.57851" lon="-3.05282">
        <ele>4.4</ele>
        <time>2024-05-07T15:47:54Z</time>
      </trkpt>
      <trkpt lat="47.57852" lon="-3.0528">
        <ele>4</ele>
        <time>2024-05-07T15:47:55Z</time>
      </trkpt>
      <trkpt lat="47.57852" lon="-3.05278">
        <ele>4</ele>
        <time>2024-05-07T15:47:56Z</time>
      </trkpt>
      <trkpt lat="47.57853" lon="-3.05275">
        <ele>3.8</ele>
        <time>2024-05-07T15:47:57Z</time>
      </trkpt>
      <trkpt lat="47.57854" lon="-3.05273">
        <ele>3.8</ele>
        <time>2024-05-07T15:47:58Z</time>
      </trkpt>
      <trkpt lat="47.57854" lon="-3.05271">
        <ele>3.6</ele>
        <time>2024-05-07T15:47:59Z</time>
      </trkpt>
      <trkpt lat="47.57854" lon="-3.0527">
        <ele>3.6</ele>
        <time>2024-05-07T15:48:00Z</time>
      </trkpt>
      <trkpt lat="47.57855" lon="-3.05268">
        <ele>3.6</ele>
        <time>2024-05-07T15:48:01Z</time>
      </trkpt>
      <trkpt lat="47.57855" lon="-3.05266">
        <ele>3.4</ele>
        <time>2024-05-07T15:48:02Z</time>
      </trkpt>
      <trkpt lat="47.57855" lon="-3.05264">
        <ele>3.4</ele>
        <time>2024-05-07T15:48:03Z</time>
      </trkpt>
      <trkpt lat="47.57856" lon="-3.05263">
        <ele>3.2</ele>
        <time>2024-05-07T15:48:04Z</time>
      </trkpt>
      <trkpt lat="47.57856" lon="-3.05261">
        <ele>3.2</ele>
        <time>2024-05-07T15:48:05Z</time>
      </trkpt>
      <trkpt lat="47.57857" lon="-3.05259">
        <ele>3.2</ele>
        <time>2024-05-07T15:48:06Z</time>
      </trkpt>
      <trkpt lat="47.57858" lon="-3.05257">
        <ele>3.2</ele>
        <time>2024-05-07T15:48:07Z</time>
      </trkpt>
      <trkpt lat="47.57858" lon="-3.05256">
        <ele>3</ele>
        <time>2024-05-07T15:48:08Z</time>
      </trkpt>
      <trkpt lat="47.57859" lon="-3.05254">
        <ele>3</ele>
        <time>2024-05-07T15:48:09Z</time>
      </trkpt>
      <trkpt lat="47.57859" lon="-3.05254">
        <ele>3</ele>
        <time>2024-05-07T15:48:10Z</time>
      </trkpt>
      <trkpt lat="47.57859" lon="-3.05253">
        <ele>3</ele>
        <time>2024-05-07T15:48:11Z</time>
      </trkpt>
      <trkpt lat="47.5786" lon="-3.05252">
        <ele>3</ele>
        <time>2024-05-07T15:48:12Z</time>
      </trkpt>
      <trkpt lat="47.5786" lon="-3.05251">
        <ele>3</ele>
        <time>2024-05-07T15:48:13Z</time>
      </trkpt>
      <trkpt lat="47.5786" lon="-3.05249">
        <ele>3</ele>
        <time>2024-05-07T15:48:14Z</time>
      </trkpt>
      <trkpt lat="47.57861" lon="-3.05247">
        <ele>2.8</ele>
        <time>2024-05-07T15:48:15Z</time>
      </trkpt>
      <trkpt lat="47.57862" lon="-3.05244">
        <ele>2.8</ele>
        <time>2024-05-07T15:48:16Z</time>
      </trkpt>
      <trkpt lat="47.57862" lon="-3.05242">
        <ele>2.8</ele>
        <time>2024-05-07T15:48:17Z</time>
      </trkpt>
      <trkpt lat="47.57863" lon="-3.05241">
        <ele>2.6</ele>
        <time>2024-05-07T15:48:18Z</time>
      </trkpt>
      <trkpt lat="47.57863" lon="-3.05239">
        <ele>2.6</ele>
        <time>2024-05-07T15:48:19Z</time>
      </trkpt>
      <trkpt lat="47.57863" lon="-3.05238">
        <ele>2.4</ele>
        <time>2024-05-07T15:48:20Z</time>
      </trkpt>
      <trkpt lat="47.57863" lon="-3.05237">
        <ele>2.4</ele>
        <time>2024-05-07T15:48:21Z</time>
      </trkpt>
      <trkpt lat="47.57864" lon="-3.05236">
        <ele>2.2</ele>
        <time>2024-05-07T15:48:22Z</time>
      </trkpt>
      <trkpt lat="47.57865" lon="-3.05234">
        <ele>2.2</ele>
        <time>2024-05-07T15:48:23Z</time>
      </trkpt>
      <trkpt lat="47.57865" lon="-3.05231">
        <ele>2.2</ele>
        <time>2024-05-07T15:48:24Z</time>
      </trkpt>
      <trkpt lat="47.57866" lon="-3.05229">
        <ele>2</ele>
        <time>2024-05-07T15:48:25Z</time>
      </trkpt>
      <trkpt lat="47.57865" lon="-3.05228">
        <ele>2</ele>
        <time>2024-05-07T15:48:26Z</time>
      </trkpt>
      <trkpt lat="47.57864" lon="-3.05226">
        <ele>2</ele>
        <time>2024-05-07T15:48:27Z</time>
      </trkpt>
      <trkpt lat="47.57863" lon="-3.05225">
        <ele>2</ele>
        <time>2024-05-07T15:48:28Z</time>
      </trkpt>
      <trkpt lat="47.57863" lon="-3.05223">
        <ele>1.8</ele>
        <time>2024-05-07T15:48:29Z</time>
      </trkpt>
      <trkpt lat="47.57863" lon="-3.05221">
        <ele>1.8</ele>
        <time>2024-05-07T15:48:30Z</time>
      </trkpt>
      <trkpt lat="47.57863" lon="-3.05219">
        <ele>1.8</ele>
        <time>2024-05-07T15:48:31Z</time>
      </trkpt>
      <trkpt lat="47.57864" lon="-3.05217">
        <ele>1.6</ele>
        <time>2024-05-07T15:48:32Z</time>
      </trkpt>
      <trkpt lat="47.57864" lon="-3.05216">
        <ele>1.6</ele>
        <time>2024-05-07T15:48:33Z</time>
      </trkpt>
      <trkpt lat="47.57863" lon="-3.05215">
        <ele>1.6</ele>
        <time>2024-05-07T15:48:34Z</time>
      </trkpt>
      <trkpt lat="47.57863" lon="-3.05214">
        <ele>1.6</ele>
        <time>2024-05-07T15:48:35Z</time>
      </trkpt>
      <trkpt lat="47.57862" lon="-3.05214">
        <ele>1.6</ele>
        <time>2024-05-07T15:48:36Z</time>
      </trkpt>
      <trkpt lat="47.57862" lon="-3.05213">
        <ele>1.6</ele>
        <time>2024-05-07T15:48:37Z</time>
      </trkpt>
      <trkpt lat="47.57862" lon="-3.05214">
        <ele>1.6</ele>
        <time>2024-05-07T15:48:38Z</time>
      </trkpt>
      <trkpt lat="47.57862" lon="-3.05213">
        <ele>1.6</ele>
        <time>2024-05-07T15:48:39Z</time>
      </trkpt>
      <trkpt lat="47.57863" lon="-3.05212">
        <ele>1.6</ele>
        <time>2024-05-07T15:48:40Z</time>
      </trkpt>
      <trkpt lat="47.57863" lon="-3.0521">
        <ele>1.6</ele>
        <time>2024-05-07T15:48:41Z</time>
      </trkpt>
      <trkpt lat="47.57863" lon="-3.0521">
        <ele>1.8</ele>
        <time>2024-05-07T15:48:42Z</time>
      </trkpt>
      <trkpt lat="47.57864" lon="-3.05209">
        <ele>1.8</ele>
        <time>2024-05-07T15:48:43Z</time>
      </trkpt>
      <trkpt lat="47.57864" lon="-3.05209">
        <ele>1.8</ele>
        <time>2024-05-07T15:48:44Z</time>
      </trkpt>
      <trkpt lat="47.57864" lon="-3.05209">
        <ele>1.8</ele>
        <time>2024-05-07T15:48:45Z</time>
      </trkpt>
      <trkpt lat="47.57864" lon="-3.05208">
        <ele>2</ele>
        <time>2024-05-07T15:48:46Z</time>
      </trkpt>
      <trkpt lat="47.57864" lon="-3.05208">
        <ele>2</ele>
        <time>2024-05-07T15:48:47Z</time>
      </trkpt>
      <trkpt lat="47.57864" lon="-3.05208">
        <ele>2</ele>
        <time>2024-05-07T15:48:48Z</time>
      </trkpt>
    </trkseg>
  </trk>
</gpx>